<?xml version='1.0' encoding='UTF-8'?><gpx version="1.1" creator="JPX - https://github.com/jenetics/jpx" xmlns="http://www.topografix.com/GPX/1/1"><trk><trkseg><trkpt lat="45.6281633" lon="9.8078425"><ele>190.0</ele><time>2026-05-02T08:03:37.303Z</time></trkpt><trkpt lat="45.6281035" lon="9.8077605"><ele>190.0</ele><time>2026-05-02T08:03:40.803Z</time></trkpt><trkpt lat="45.6281732" lon="9.8077562"><ele>190.0</ele><time>2026-05-02T08:03:44.803Z</time></trkpt><trkpt lat="45.628214" lon="9.8078545"><ele>190.0</ele><time>2026-05-02T08:03:49.803Z</time></trkpt><trkpt lat="45.6282867" lon="9.8078964"><ele>190.0</ele><time>2026-05-02T08:04:02.803Z</time></trkpt><trkpt lat="45.628385" lon="9.807874"><ele>190.0</ele><time>2026-05-02T08:04:04.803Z</time></trkpt><trkpt lat="45.6284507" lon="9.8078858"><ele>190.0</ele><time>2026-05-02T08:04:05.803Z</time></trkpt><trkpt lat="45.6285231" lon="9.8078981"><ele>190.0</ele><time>2026-05-02T08:04:06.803Z</time></trkpt><trkpt lat="45.6285976" lon="9.8079148"><ele>190.0</ele><time>2026-05-02T08:04:07.803Z</time></trkpt><trkpt lat="45.628671" lon="9.8079366"><ele>190.0</ele><time>2026-05-02T08:04:08.803Z</time></trkpt><trkpt lat="45.6287533" lon="9.807959"><ele>190.0</ele><time>2026-05-02T08:04:09.803Z</time></trkpt><trkpt lat="45.6288434" lon="9.8079696"><ele>190.0</ele><time>2026-05-02T08:04:10.803Z</time></trkpt><trkpt lat="45.629097" lon="9.8079954"><ele>190.5</ele><time>2026-05-02T08:04:13.804Z</time></trkpt><trkpt lat="45.6291722" lon="9.8079871"><ele>191.0</ele><time>2026-05-02T08:04:14.803Z</time></trkpt><trkpt lat="45.6292512" lon="9.8079815"><ele>191.5</ele><time>2026-05-02T08:04:15.803Z</time></trkpt><trkpt lat="45.62933" lon="9.8079952"><ele>192.0</ele><time>2026-05-02T08:04:16.803Z</time></trkpt><trkpt lat="45.6294046" lon="9.8080377"><ele>192.49999999999997</ele><time>2026-05-02T08:04:17.803Z</time></trkpt><trkpt lat="45.6294727" lon="9.8081092"><ele>193.0</ele><time>2026-05-02T08:04:18.803Z</time></trkpt><trkpt lat="45.6295388" lon="9.8081905"><ele>193.16666666666666</ele><time>2026-05-02T08:04:19.803Z</time></trkpt><trkpt lat="45.6296032" lon="9.8082646"><ele>193.33333333333331</ele><time>2026-05-02T08:04:20.803Z</time></trkpt><trkpt lat="45.6296572" lon="9.8083319"><ele>193.5</ele><time>2026-05-02T08:04:21.803Z</time></trkpt><trkpt lat="45.6297111" lon="9.8083796"><ele>193.66666666666669</ele><time>2026-05-02T08:04:22.803Z</time></trkpt><trkpt lat="45.6298089" lon="9.8083957"><ele>193.83333333333334</ele><time>2026-05-02T08:04:24.803Z</time></trkpt><trkpt lat="45.6298736" lon="9.8082683"><ele>194.0</ele><time>2026-05-02T08:04:26.803Z</time></trkpt><trkpt lat="45.6298994" lon="9.8081743"><ele>194.00000000000003</ele><time>2026-05-02T08:04:27.803Z</time></trkpt><trkpt lat="45.6299367" lon="9.80809"><ele>194.0</ele><time>2026-05-02T08:04:28.803Z</time></trkpt><trkpt lat="45.6299788" lon="9.8080081"><ele>194.0</ele><time>2026-05-02T08:04:29.803Z</time></trkpt><trkpt lat="45.6300208" lon="9.8079277"><ele>194.0</ele><time>2026-05-02T08:04:30.803Z</time></trkpt><trkpt lat="45.6300617" lon="9.8078567"><ele>194.00000000000003</ele><time>2026-05-02T08:04:31.803Z</time></trkpt><trkpt lat="45.6301742" lon="9.8077836"><ele>194.0</ele><time>2026-05-02T08:04:33.803Z</time></trkpt><trkpt lat="45.6302485" lon="9.8077802"><ele>193.83333333333334</ele><time>2026-05-02T08:04:34.803Z</time></trkpt><trkpt lat="45.630328" lon="9.8077892"><ele>193.66666666666669</ele><time>2026-05-02T08:04:35.803Z</time></trkpt><trkpt lat="45.6304134" lon="9.807806"><ele>193.5</ele><time>2026-05-02T08:04:36.803Z</time></trkpt><trkpt lat="45.6305036" lon="9.8078173"><ele>193.33333333333331</ele><time>2026-05-02T08:04:37.803Z</time></trkpt><trkpt lat="45.6305954" lon="9.8078251"><ele>193.16666666666666</ele><time>2026-05-02T08:04:38.803Z</time></trkpt><trkpt lat="45.6306849" lon="9.8078316"><ele>193.0</ele><time>2026-05-02T08:04:39.803Z</time></trkpt><trkpt lat="45.6307712" lon="9.8078344"><ele>193.0</ele><time>2026-05-02T08:04:40.803Z</time></trkpt><trkpt lat="45.6308556" lon="9.8078352"><ele>193.0</ele><time>2026-05-02T08:04:41.803Z</time></trkpt><trkpt lat="45.6309397" lon="9.8078367"><ele>193.0</ele><time>2026-05-02T08:04:42.803Z</time></trkpt><trkpt lat="45.6310313" lon="9.8078387"><ele>193.0</ele><time>2026-05-02T08:04:43.803Z</time></trkpt><trkpt lat="45.6311296" lon="9.8078455"><ele>193.0</ele><time>2026-05-02T08:04:44.803Z</time></trkpt><trkpt lat="45.631227" lon="9.80785"><ele>193.33333333333331</ele><time>2026-05-02T08:04:45.803Z</time></trkpt><trkpt lat="45.6313227" lon="9.8078546"><ele>193.66666666666666</ele><time>2026-05-02T08:04:46.803Z</time></trkpt><trkpt lat="45.6314162" lon="9.8078611"><ele>194.0</ele><time>2026-05-02T08:04:47.803Z</time></trkpt><trkpt lat="45.6314942" lon="9.8078677"><ele>194.33333333333331</ele><time>2026-05-02T08:04:48.803Z</time></trkpt><trkpt lat="45.6315775" lon="9.8078641"><ele>194.66666666666666</ele><time>2026-05-02T08:04:49.803Z</time></trkpt><trkpt lat="45.6316563" lon="9.8078613"><ele>195.0</ele><time>2026-05-02T08:04:50.803Z</time></trkpt><trkpt lat="45.6317384" lon="9.8078586"><ele>195.0</ele><time>2026-05-02T08:04:51.803Z</time></trkpt><trkpt lat="45.6318275" lon="9.8078618"><ele>195.0</ele><time>2026-05-02T08:04:52.803Z</time></trkpt><trkpt lat="45.6319343" lon="9.8078662"><ele>195.0</ele><time>2026-05-02T08:04:53.803Z</time></trkpt><trkpt lat="45.6320583" lon="9.8078657"><ele>195.0</ele><time>2026-05-02T08:04:54.803Z</time></trkpt><trkpt lat="45.6321825" lon="9.8078716"><ele>195.0</ele><time>2026-05-02T08:04:55.803Z</time></trkpt><trkpt lat="45.6323075" lon="9.8078796"><ele>195.0</ele><time>2026-05-02T08:04:56.803Z</time></trkpt><trkpt lat="45.6324406" lon="9.8078797"><ele>195.0</ele><time>2026-05-02T08:04:57.803Z</time></trkpt><trkpt lat="45.6325755" lon="9.8078874"><ele>195.0</ele><time>2026-05-02T08:04:58.803Z</time></trkpt><trkpt lat="45.6327047" lon="9.8078955"><ele>195.0</ele><time>2026-05-02T08:04:59.803Z</time></trkpt><trkpt lat="45.6328274" lon="9.807895"><ele>195.25</ele><time>2026-05-02T08:05:00.803Z</time></trkpt><trkpt lat="45.6329506" lon="9.8078972"><ele>195.5</ele><time>2026-05-02T08:05:01.803Z</time></trkpt><trkpt lat="45.6330736" lon="9.8078987"><ele>195.75</ele><time>2026-05-02T08:05:02.803Z</time></trkpt><trkpt lat="45.6331925" lon="9.8079061"><ele>196.0</ele><time>2026-05-02T08:05:03.803Z</time></trkpt><trkpt lat="45.6333074" lon="9.8079122"><ele>196.0</ele><time>2026-05-02T08:05:04.803Z</time></trkpt><trkpt lat="45.6335115" lon="9.80793"><ele>196.0</ele><time>2026-05-02T08:05:06.803Z</time></trkpt><trkpt lat="45.6336044" lon="9.8079443"><ele>196.0</ele><time>2026-05-02T08:05:07.803Z</time></trkpt><trkpt lat="45.6336987" lon="9.8079521"><ele>196.0</ele><time>2026-05-02T08:05:08.803Z</time></trkpt><trkpt lat="45.633789" lon="9.807955"><ele>196.66666666666666</ele><time>2026-05-02T08:05:09.803Z</time></trkpt><trkpt lat="45.6338772" lon="9.8079595"><ele>197.33333333333331</ele><time>2026-05-02T08:05:10.803Z</time></trkpt><trkpt lat="45.633967" lon="9.807968"><ele>198.0</ele><time>2026-05-02T08:05:11.803Z</time></trkpt><trkpt lat="45.6340499" lon="9.8079703"><ele>198.66666666666669</ele><time>2026-05-02T08:05:12.803Z</time></trkpt><trkpt lat="45.6341299" lon="9.8079739"><ele>199.33333333333334</ele><time>2026-05-02T08:05:13.803Z</time></trkpt><trkpt lat="45.6342094" lon="9.8079901"><ele>200.0</ele><time>2026-05-02T08:05:14.803Z</time></trkpt><trkpt lat="45.6342874" lon="9.8080249"><ele>200.00000000000003</ele><time>2026-05-02T08:05:15.803Z</time></trkpt><trkpt lat="45.6343648" lon="9.8080808"><ele>200.0</ele><time>2026-05-02T08:05:16.803Z</time></trkpt><trkpt lat="45.6344208" lon="9.8081659"><ele>200.0</ele><time>2026-05-02T08:05:17.803Z</time></trkpt><trkpt lat="45.6344509" lon="9.808274"><ele>200.0</ele><time>2026-05-02T08:05:18.803Z</time></trkpt><trkpt lat="45.6344746" lon="9.8083951"><ele>200.00000000000003</ele><time>2026-05-02T08:05:19.803Z</time></trkpt><trkpt lat="45.6344866" lon="9.8085406"><ele>200.0</ele><time>2026-05-02T08:05:20.803Z</time></trkpt><trkpt lat="45.6344793" lon="9.8087196"><ele>200.0</ele><time>2026-05-02T08:05:21.803Z</time></trkpt><trkpt lat="45.6344642" lon="9.8089036"><ele>200.0</ele><time>2026-05-02T08:05:22.803Z</time></trkpt><trkpt lat="45.6344453" lon="9.8090905"><ele>200.0</ele><time>2026-05-02T08:05:23.803Z</time></trkpt><trkpt lat="45.6344177" lon="9.8092767"><ele>200.0</ele><time>2026-05-02T08:05:24.803Z</time></trkpt><trkpt lat="45.6344008" lon="9.8094502"><ele>199.66666666666669</ele><time>2026-05-02T08:05:25.803Z</time></trkpt><trkpt lat="45.6343644" lon="9.809781"><ele>199.33333333333331</ele><time>2026-05-02T08:05:27.803Z</time></trkpt><trkpt lat="45.6343451" lon="9.8099461"><ele>199.0</ele><time>2026-05-02T08:05:28.803Z</time></trkpt><trkpt lat="45.6343279" lon="9.8101087"><ele>198.75</ele><time>2026-05-02T08:05:29.803Z</time></trkpt><trkpt lat="45.6343037" lon="9.8102728"><ele>198.5</ele><time>2026-05-02T08:05:30.803Z</time></trkpt><trkpt lat="45.634274" lon="9.8104415"><ele>198.25</ele><time>2026-05-02T08:05:31.803Z</time></trkpt><trkpt lat="45.6342537" lon="9.8106152"><ele>198.0</ele><time>2026-05-02T08:05:32.803Z</time></trkpt><trkpt lat="45.634236" lon="9.8107838"><ele>198.0</ele><time>2026-05-02T08:05:33.803Z</time></trkpt><trkpt lat="45.634224" lon="9.8109513"><ele>198.0</ele><time>2026-05-02T08:05:34.803Z</time></trkpt><trkpt lat="45.6342121" lon="9.8111212"><ele>198.0</ele><time>2026-05-02T08:05:35.803Z</time></trkpt><trkpt lat="45.6342015" lon="9.8112888"><ele>198.0</ele><time>2026-05-02T08:05:36.803Z</time></trkpt><trkpt lat="45.6341926" lon="9.811457"><ele>197.75</ele><time>2026-05-02T08:05:37.803Z</time></trkpt><trkpt lat="45.6341866" lon="9.8116316"><ele>197.5</ele><time>2026-05-02T08:05:38.803Z</time></trkpt><trkpt lat="45.6341777" lon="9.811803"><ele>197.25</ele><time>2026-05-02T08:05:39.803Z</time></trkpt><trkpt lat="45.6341706" lon="9.8119809"><ele>197.0</ele><time>2026-05-02T08:05:40.803Z</time></trkpt><trkpt lat="45.6341616" lon="9.8121624"><ele>197.0</ele><time>2026-05-02T08:05:41.803Z</time></trkpt><trkpt lat="45.6341542" lon="9.8123447"><ele>197.0</ele><time>2026-05-02T08:05:42.803Z</time></trkpt><trkpt lat="45.6341436" lon="9.8125257"><ele>197.0</ele><time>2026-05-02T08:05:43.803Z</time></trkpt><trkpt lat="45.6341237" lon="9.812876"><ele>197.00000000000003</ele><time>2026-05-02T08:05:45.803Z</time></trkpt><trkpt lat="45.6341153" lon="9.8130272"><ele>197.0</ele><time>2026-05-02T08:05:46.803Z</time></trkpt><trkpt lat="45.6341046" lon="9.8131641"><ele>197.0</ele><time>2026-05-02T08:05:47.803Z</time></trkpt><trkpt lat="45.6340958" lon="9.813279"><ele>197.0</ele><time>2026-05-02T08:05:48.803Z</time></trkpt><trkpt lat="45.6340949" lon="9.8133823"><ele>197.00000000000003</ele><time>2026-05-02T08:05:49.803Z</time></trkpt><trkpt lat="45.6340876" lon="9.8134819"><ele>197.0</ele><time>2026-05-02T08:05:50.803Z</time></trkpt><trkpt lat="45.6340795" lon="9.81358"><ele>197.6</ele><time>2026-05-02T08:05:51.803Z</time></trkpt><trkpt lat="45.634071" lon="9.8136718"><ele>198.2</ele><time>2026-05-02T08:05:52.803Z</time></trkpt><trkpt lat="45.6340676" lon="9.8138366"><ele>198.8</ele><time>2026-05-02T08:05:54.803Z</time></trkpt><trkpt lat="45.6340524" lon="9.8139991"><ele>199.4</ele><time>2026-05-02T08:05:56.803Z</time></trkpt><trkpt lat="45.6340343" lon="9.8141701"><ele>200.0</ele><time>2026-05-02T08:05:58.803Z</time></trkpt><trkpt lat="45.63402" lon="9.8142707"><ele>200.4</ele><time>2026-05-02T08:05:59.803Z</time></trkpt><trkpt lat="45.6340101" lon="9.8143908"><ele>200.8</ele><time>2026-05-02T08:06:00.804Z</time></trkpt><trkpt lat="45.6340025" lon="9.8145462"><ele>201.2</ele><time>2026-05-02T08:06:01.803Z</time></trkpt><trkpt lat="45.6339936" lon="9.814702"><ele>201.6</ele><time>2026-05-02T08:06:02.803Z</time></trkpt><trkpt lat="45.6339914" lon="9.8148556"><ele>202.0</ele><time>2026-05-02T08:06:03.803Z</time></trkpt><trkpt lat="45.6339996" lon="9.8150045"><ele>201.99999999999997</ele><time>2026-05-02T08:06:04.803Z</time></trkpt><trkpt lat="45.6340146" lon="9.8151375"><ele>202.0</ele><time>2026-05-02T08:06:05.803Z</time></trkpt><trkpt lat="45.634033" lon="9.8152506"><ele>202.0</ele><time>2026-05-02T08:06:06.803Z</time></trkpt><trkpt lat="45.6340525" lon="9.8153478"><ele>202.0</ele><time>2026-05-02T08:06:07.803Z</time></trkpt><trkpt lat="45.6340926" lon="9.8154847"><ele>201.99999999999997</ele><time>2026-05-02T08:06:09.803Z</time></trkpt><trkpt lat="45.6341228" lon="9.8155918"><ele>202.0</ele><time>2026-05-02T08:06:12.803Z</time></trkpt><trkpt lat="45.6341509" lon="9.8157208"><ele>201.8</ele><time>2026-05-02T08:06:14.803Z</time></trkpt><trkpt lat="45.6341539" lon="9.8158284"><ele>201.6</ele><time>2026-05-02T08:06:15.803Z</time></trkpt><trkpt lat="45.6341414" lon="9.8159607"><ele>201.4</ele><time>2026-05-02T08:06:16.803Z</time></trkpt><trkpt lat="45.6341198" lon="9.8161132"><ele>201.20000000000002</ele><time>2026-05-02T08:06:17.803Z</time></trkpt><trkpt lat="45.634093" lon="9.8162715"><ele>201.0</ele><time>2026-05-02T08:06:18.803Z</time></trkpt><trkpt lat="45.6340655" lon="9.8164405"><ele>200.75</ele><time>2026-05-02T08:06:19.803Z</time></trkpt><trkpt lat="45.6340432" lon="9.8166141"><ele>200.5</ele><time>2026-05-02T08:06:20.803Z</time></trkpt><trkpt lat="45.6340248" lon="9.8167866"><ele>200.25</ele><time>2026-05-02T08:06:21.803Z</time></trkpt><trkpt lat="45.6340038" lon="9.8169587"><ele>200.0</ele><time>2026-05-02T08:06:22.803Z</time></trkpt><trkpt lat="45.6339845" lon="9.8171328"><ele>199.75</ele><time>2026-05-02T08:06:23.803Z</time></trkpt><trkpt lat="45.6339648" lon="9.8173097"><ele>199.5</ele><time>2026-05-02T08:06:24.803Z</time></trkpt><trkpt lat="45.6339462" lon="9.817486"><ele>199.25</ele><time>2026-05-02T08:06:25.803Z</time></trkpt><trkpt lat="45.6339291" lon="9.8176631"><ele>199.0</ele><time>2026-05-02T08:06:26.803Z</time></trkpt><trkpt lat="45.6339121" lon="9.8178391"><ele>199.0</ele><time>2026-05-02T08:06:27.803Z</time></trkpt><trkpt lat="45.6338901" lon="9.8180145"><ele>199.0</ele><time>2026-05-02T08:06:28.803Z</time></trkpt><trkpt lat="45.633868" lon="9.8181897"><ele>199.0</ele><time>2026-05-02T08:06:29.803Z</time></trkpt><trkpt lat="45.6338444" lon="9.8183672"><ele>199.0</ele><time>2026-05-02T08:06:30.803Z</time></trkpt><trkpt lat="45.6338177" lon="9.8185454"><ele>199.25</ele><time>2026-05-02T08:06:31.803Z</time></trkpt><trkpt lat="45.6337867" lon="9.8187261"><ele>199.5</ele><time>2026-05-02T08:06:32.803Z</time></trkpt><trkpt lat="45.6337612" lon="9.8189025"><ele>199.75</ele><time>2026-05-02T08:06:33.803Z</time></trkpt><trkpt lat="45.6337483" lon="9.8190679"><ele>200.0</ele><time>2026-05-02T08:06:34.803Z</time></trkpt><trkpt lat="45.6337169" lon="9.8192367"><ele>199.75</ele><time>2026-05-02T08:06:35.803Z</time></trkpt><trkpt lat="45.6336838" lon="9.8194102"><ele>199.5</ele><time>2026-05-02T08:06:36.804Z</time></trkpt><trkpt lat="45.6336491" lon="9.819597"><ele>199.25</ele><time>2026-05-02T08:06:37.803Z</time></trkpt><trkpt lat="45.6336201" lon="9.8197741"><ele>199.0</ele><time>2026-05-02T08:06:38.803Z</time></trkpt><trkpt lat="45.6335942" lon="9.819951"><ele>198.5</ele><time>2026-05-02T08:06:39.803Z</time></trkpt><trkpt lat="45.6335678" lon="9.82013"><ele>198.0</ele><time>2026-05-02T08:06:40.803Z</time></trkpt><trkpt lat="45.6335335" lon="9.8203195"><ele>197.5</ele><time>2026-05-02T08:06:41.804Z</time></trkpt><trkpt lat="45.633503" lon="9.8205076"><ele>197.0</ele><time>2026-05-02T08:06:42.803Z</time></trkpt><trkpt lat="45.6334716" lon="9.8206916"><ele>197.0</ele><time>2026-05-02T08:06:43.803Z</time></trkpt><trkpt lat="45.6334365" lon="9.8208753"><ele>197.0</ele><time>2026-05-02T08:06:44.803Z</time></trkpt><trkpt lat="45.6333945" lon="9.8210638"><ele>197.0</ele><time>2026-05-02T08:06:45.803Z</time></trkpt><trkpt lat="45.6333632" lon="9.8212585"><ele>197.0</ele><time>2026-05-02T08:06:46.803Z</time></trkpt><trkpt lat="45.63334" lon="9.8214533"><ele>197.0</ele><time>2026-05-02T08:06:47.803Z</time></trkpt><trkpt lat="45.6333252" lon="9.821647"><ele>197.0</ele><time>2026-05-02T08:06:48.803Z</time></trkpt><trkpt lat="45.6333174" lon="9.8218364"><ele>197.0</ele><time>2026-05-02T08:06:49.803Z</time></trkpt><trkpt lat="45.6333163" lon="9.8220124"><ele>197.0</ele><time>2026-05-02T08:06:50.803Z</time></trkpt><trkpt lat="45.6333132" lon="9.8221909"><ele>197.25</ele><time>2026-05-02T08:06:51.803Z</time></trkpt><trkpt lat="45.633312" lon="9.8223714"><ele>197.5</ele><time>2026-05-02T08:06:52.803Z</time></trkpt><trkpt lat="45.6333118" lon="9.8225513"><ele>197.75</ele><time>2026-05-02T08:06:53.803Z</time></trkpt><trkpt lat="45.6333079" lon="9.8227407"><ele>198.0</ele><time>2026-05-02T08:06:54.803Z</time></trkpt><trkpt lat="45.633298" lon="9.8229402"><ele>197.66666666666669</ele><time>2026-05-02T08:06:55.803Z</time></trkpt><trkpt lat="45.6332904" lon="9.8231517"><ele>197.33333333333334</ele><time>2026-05-02T08:06:56.803Z</time></trkpt><trkpt lat="45.6332838" lon="9.8233861"><ele>197.0</ele><time>2026-05-02T08:06:57.803Z</time></trkpt><trkpt lat="45.6332895" lon="9.8236353"><ele>197.0</ele><time>2026-05-02T08:06:58.803Z</time></trkpt><trkpt lat="45.6332954" lon="9.8238938"><ele>197.0</ele><time>2026-05-02T08:06:59.803Z</time></trkpt><trkpt lat="45.6332964" lon="9.8241679"><ele>197.0</ele><time>2026-05-02T08:07:00.803Z</time></trkpt><trkpt lat="45.6332949" lon="9.8244544"><ele>196.66666666666669</ele><time>2026-05-02T08:07:01.803Z</time></trkpt><trkpt lat="45.6332797" lon="9.8247568"><ele>196.33333333333331</ele><time>2026-05-02T08:07:02.803Z</time></trkpt><trkpt lat="45.6332495" lon="9.8250629"><ele>196.0</ele><time>2026-05-02T08:07:03.803Z</time></trkpt><trkpt lat="45.6332186" lon="9.8253599"><ele>195.66666666666666</ele><time>2026-05-02T08:07:04.803Z</time></trkpt><trkpt lat="45.6331947" lon="9.825659"><ele>195.33333333333331</ele><time>2026-05-02T08:07:05.803Z</time></trkpt><trkpt lat="45.6331808" lon="9.8259598"><ele>195.0</ele><time>2026-05-02T08:07:06.803Z</time></trkpt><trkpt lat="45.6331728" lon="9.826257"><ele>195.0</ele><time>2026-05-02T08:07:07.803Z</time></trkpt><trkpt lat="45.6331614" lon="9.8265583"><ele>195.0</ele><time>2026-05-02T08:07:08.803Z</time></trkpt><trkpt lat="45.6331487" lon="9.8268584"><ele>195.0</ele><time>2026-05-02T08:07:09.803Z</time></trkpt><trkpt lat="45.633138" lon="9.827154"><ele>195.33333333333331</ele><time>2026-05-02T08:07:10.803Z</time></trkpt><trkpt lat="45.6331276" lon="9.8274408"><ele>195.66666666666666</ele><time>2026-05-02T08:07:11.803Z</time></trkpt><trkpt lat="45.6331142" lon="9.8277231"><ele>196.0</ele><time>2026-05-02T08:07:12.803Z</time></trkpt><trkpt lat="45.6330919" lon="9.8280016"><ele>195.33333333333331</ele><time>2026-05-02T08:07:13.803Z</time></trkpt><trkpt lat="45.6330567" lon="9.8282673"><ele>194.66666666666669</ele><time>2026-05-02T08:07:14.803Z</time></trkpt><trkpt lat="45.6330131" lon="9.8285268"><ele>194.0</ele><time>2026-05-02T08:07:15.803Z</time></trkpt><trkpt lat="45.6329606" lon="9.8287704"><ele>194.0</ele><time>2026-05-02T08:07:16.803Z</time></trkpt><trkpt lat="45.6328908" lon="9.8290025"><ele>194.0</ele><time>2026-05-02T08:07:17.803Z</time></trkpt><trkpt lat="45.6328375" lon="9.8292412"><ele>194.0</ele><time>2026-05-02T08:07:18.803Z</time></trkpt><trkpt lat="45.6327943" lon="9.8294755"><ele>194.25</ele><time>2026-05-02T08:07:19.803Z</time></trkpt><trkpt lat="45.6327603" lon="9.8297022"><ele>194.5</ele><time>2026-05-02T08:07:20.803Z</time></trkpt><trkpt lat="45.6327347" lon="9.8298937"><ele>194.75</ele><time>2026-05-02T08:07:21.803Z</time></trkpt><trkpt lat="45.6326974" lon="9.8300701"><ele>195.0</ele><time>2026-05-02T08:07:22.803Z</time></trkpt><trkpt lat="45.6326404" lon="9.8302267"><ele>194.5</ele><time>2026-05-02T08:07:23.803Z</time></trkpt><trkpt lat="45.6325733" lon="9.8303607"><ele>194.0</ele><time>2026-05-02T08:07:24.803Z</time></trkpt><trkpt lat="45.6324926" lon="9.8305005"><ele>193.5</ele><time>2026-05-02T08:07:25.803Z</time></trkpt><trkpt lat="45.6324437" lon="9.8306432"><ele>193.0</ele><time>2026-05-02T08:07:26.803Z</time></trkpt><trkpt lat="45.6324295" lon="9.830785"><ele>193.0</ele><time>2026-05-02T08:07:27.803Z</time></trkpt><trkpt lat="45.632467" lon="9.830904"><ele>193.0</ele><time>2026-05-02T08:07:28.803Z</time></trkpt><trkpt lat="45.6325466" lon="9.8309874"><ele>193.0</ele><time>2026-05-02T08:07:29.803Z</time></trkpt><trkpt lat="45.6326433" lon="9.8310299"><ele>193.0</ele><time>2026-05-02T08:07:30.803Z</time></trkpt><trkpt lat="45.6327673" lon="9.8310246"><ele>193.0</ele><time>2026-05-02T08:07:31.803Z</time></trkpt><trkpt lat="45.6329163" lon="9.8310352"><ele>193.66666666666666</ele><time>2026-05-02T08:07:32.803Z</time></trkpt><trkpt lat="45.6330666" lon="9.8310939"><ele>194.33333333333331</ele><time>2026-05-02T08:07:33.803Z</time></trkpt><trkpt lat="45.6331981" lon="9.8312052"><ele>195.0</ele><time>2026-05-02T08:07:34.803Z</time></trkpt><trkpt lat="45.6333231" lon="9.8313483"><ele>195.0</ele><time>2026-05-02T08:07:35.803Z</time></trkpt><trkpt lat="45.6334331" lon="9.8315222"><ele>195.0</ele><time>2026-05-02T08:07:36.803Z</time></trkpt><trkpt lat="45.6335361" lon="9.8317099"><ele>195.0</ele><time>2026-05-02T08:07:37.803Z</time></trkpt><trkpt lat="45.6336389" lon="9.8319152"><ele>194.66666666666669</ele><time>2026-05-02T08:07:38.803Z</time></trkpt><trkpt lat="45.6337295" lon="9.8321381"><ele>194.33333333333334</ele><time>2026-05-02T08:07:39.803Z</time></trkpt><trkpt lat="45.6338099" lon="9.832377"><ele>194.0</ele><time>2026-05-02T08:07:40.803Z</time></trkpt><trkpt lat="45.6338724" lon="9.8326395"><ele>194.0</ele><time>2026-05-02T08:07:41.803Z</time></trkpt><trkpt lat="45.6339139" lon="9.8329189"><ele>194.0</ele><time>2026-05-02T08:07:42.803Z</time></trkpt><trkpt lat="45.6339451" lon="9.8331934"><ele>194.0</ele><time>2026-05-02T08:07:43.803Z</time></trkpt><trkpt lat="45.6339689" lon="9.833478"><ele>194.33333333333334</ele><time>2026-05-02T08:07:44.803Z</time></trkpt><trkpt lat="45.6339723" lon="9.833771"><ele>194.66666666666669</ele><time>2026-05-02T08:07:45.803Z</time></trkpt><trkpt lat="45.6339599" lon="9.834065"><ele>195.0</ele><time>2026-05-02T08:07:46.803Z</time></trkpt><trkpt lat="45.6339316" lon="9.834351"><ele>195.33333333333331</ele><time>2026-05-02T08:07:47.803Z</time></trkpt><trkpt lat="45.6338985" lon="9.8346267"><ele>195.66666666666666</ele><time>2026-05-02T08:07:48.803Z</time></trkpt><trkpt lat="45.633853" lon="9.8349012"><ele>196.0</ele><time>2026-05-02T08:07:49.803Z</time></trkpt><trkpt lat="45.6338029" lon="9.8351763"><ele>195.0</ele><time>2026-05-02T08:07:50.803Z</time></trkpt><trkpt lat="45.6337519" lon="9.8354494"><ele>194.0</ele><time>2026-05-02T08:07:51.803Z</time></trkpt><trkpt lat="45.6337047" lon="9.8357217"><ele>193.0</ele><time>2026-05-02T08:07:52.803Z</time></trkpt><trkpt lat="45.6336585" lon="9.8360039"><ele>193.0</ele><time>2026-05-02T08:07:53.803Z</time></trkpt><trkpt lat="45.6336191" lon="9.8362903"><ele>193.0</ele><time>2026-05-02T08:07:54.803Z</time></trkpt><trkpt lat="45.6335851" lon="9.8365728"><ele>193.0</ele><time>2026-05-02T08:07:55.803Z</time></trkpt><trkpt lat="45.6335641" lon="9.8368661"><ele>193.33333333333331</ele><time>2026-05-02T08:07:56.803Z</time></trkpt><trkpt lat="45.6335412" lon="9.8371611"><ele>193.66666666666669</ele><time>2026-05-02T08:07:57.803Z</time></trkpt><trkpt lat="45.6335246" lon="9.8374565"><ele>194.0</ele><time>2026-05-02T08:07:58.803Z</time></trkpt><trkpt lat="45.633507" lon="9.8377584"><ele>194.0</ele><time>2026-05-02T08:07:59.803Z</time></trkpt><trkpt lat="45.6334947" lon="9.8380546"><ele>194.0</ele><time>2026-05-02T08:08:00.803Z</time></trkpt><trkpt lat="45.6334719" lon="9.8383552"><ele>194.0</ele><time>2026-05-02T08:08:01.803Z</time></trkpt><trkpt lat="45.6334495" lon="9.8386558"><ele>194.0</ele><time>2026-05-02T08:08:02.803Z</time></trkpt><trkpt lat="45.6334272" lon="9.8389573"><ele>194.0</ele><time>2026-05-02T08:08:03.803Z</time></trkpt><trkpt lat="45.6334048" lon="9.839258"><ele>194.0</ele><time>2026-05-02T08:08:04.803Z</time></trkpt><trkpt lat="45.6333749" lon="9.839568"><ele>194.0</ele><time>2026-05-02T08:08:05.803Z</time></trkpt><trkpt lat="45.6333406" lon="9.8398771"><ele>194.0</ele><time>2026-05-02T08:08:06.803Z</time></trkpt><trkpt lat="45.6333042" lon="9.8401762"><ele>194.0</ele><time>2026-05-02T08:08:07.803Z</time></trkpt><trkpt lat="45.6332683" lon="9.840467"><ele>194.0</ele><time>2026-05-02T08:08:08.803Z</time></trkpt><trkpt lat="45.6332365" lon="9.8407662"><ele>194.0</ele><time>2026-05-02T08:08:09.803Z</time></trkpt><trkpt lat="45.6332026" lon="9.841056"><ele>194.0</ele><time>2026-05-02T08:08:10.803Z</time></trkpt><trkpt lat="45.6331744" lon="9.8413453"><ele>193.66666666666669</ele><time>2026-05-02T08:08:11.803Z</time></trkpt><trkpt lat="45.6331475" lon="9.8416329"><ele>193.33333333333331</ele><time>2026-05-02T08:08:12.803Z</time></trkpt><trkpt lat="45.633121" lon="9.8419132"><ele>193.0</ele><time>2026-05-02T08:08:13.803Z</time></trkpt><trkpt lat="45.6330881" lon="9.8421978"><ele>193.66666666666666</ele><time>2026-05-02T08:08:14.803Z</time></trkpt><trkpt lat="45.6330518" lon="9.8424996"><ele>194.33333333333331</ele><time>2026-05-02T08:08:15.803Z</time></trkpt><trkpt lat="45.6330075" lon="9.8428268"><ele>195.0</ele><time>2026-05-02T08:08:16.803Z</time></trkpt><trkpt lat="45.6329776" lon="9.8431614"><ele>195.5</ele><time>2026-05-02T08:08:17.803Z</time></trkpt><trkpt lat="45.6329515" lon="9.8435086"><ele>196.0</ele><time>2026-05-02T08:08:18.803Z</time></trkpt><trkpt lat="45.6329154" lon="9.8438587"><ele>195.0</ele><time>2026-05-02T08:08:19.803Z</time></trkpt><trkpt lat="45.6328319" lon="9.8445418"><ele>194.0</ele><time>2026-05-02T08:08:21.803Z</time></trkpt><trkpt lat="45.6327843" lon="9.844868"><ele>193.0</ele><time>2026-05-02T08:08:22.803Z</time></trkpt><trkpt lat="45.6327513" lon="9.8451711"><ele>192.0</ele><time>2026-05-02T08:08:23.803Z</time></trkpt><trkpt lat="45.632717" lon="9.8454584"><ele>191.66666666666666</ele><time>2026-05-02T08:08:24.803Z</time></trkpt><trkpt lat="45.632688" lon="9.8457284"><ele>191.33333333333331</ele><time>2026-05-02T08:08:25.803Z</time></trkpt><trkpt lat="45.6326577" lon="9.8459909"><ele>191.0</ele><time>2026-05-02T08:08:26.803Z</time></trkpt><trkpt lat="45.6326293" lon="9.846242"><ele>190.33333333333331</ele><time>2026-05-02T08:08:27.803Z</time></trkpt><trkpt lat="45.6325964" lon="9.8464809"><ele>189.66666666666666</ele><time>2026-05-02T08:08:28.803Z</time></trkpt><trkpt lat="45.6325721" lon="9.846709"><ele>189.0</ele><time>2026-05-02T08:08:29.803Z</time></trkpt><trkpt lat="45.6325504" lon="9.8469188"><ele>189.0</ele><time>2026-05-02T08:08:30.803Z</time></trkpt><trkpt lat="45.6325288" lon="9.8471115"><ele>189.0</ele><time>2026-05-02T08:08:31.803Z</time></trkpt><trkpt lat="45.6325097" lon="9.8472915"><ele>189.0</ele><time>2026-05-02T08:08:32.803Z</time></trkpt><trkpt lat="45.6324999" lon="9.8474579"><ele>189.0</ele><time>2026-05-02T08:08:33.804Z</time></trkpt><trkpt lat="45.6324847" lon="9.8476181"><ele>189.16666666666666</ele><time>2026-05-02T08:08:34.803Z</time></trkpt><trkpt lat="45.6324688" lon="9.8477634"><ele>189.33333333333334</ele><time>2026-05-02T08:08:35.803Z</time></trkpt><trkpt lat="45.6324531" lon="9.8478963"><ele>189.5</ele><time>2026-05-02T08:08:36.803Z</time></trkpt><trkpt lat="45.6324433" lon="9.8480115"><ele>189.66666666666669</ele><time>2026-05-02T08:08:37.803Z</time></trkpt><trkpt lat="45.6324314" lon="9.8481176"><ele>189.83333333333334</ele><time>2026-05-02T08:08:38.803Z</time></trkpt><trkpt lat="45.6324133" lon="9.848226"><ele>190.0</ele><time>2026-05-02T08:08:39.803Z</time></trkpt><trkpt lat="45.6323928" lon="9.8483309"><ele>190.0</ele><time>2026-05-02T08:08:40.803Z</time></trkpt><trkpt lat="45.6323749" lon="9.8484362"><ele>190.0</ele><time>2026-05-02T08:08:41.803Z</time></trkpt><trkpt lat="45.6323522" lon="9.8485269"><ele>190.0</ele><time>2026-05-02T08:08:42.803Z</time></trkpt><trkpt lat="45.6323312" lon="9.848612"><ele>190.0</ele><time>2026-05-02T08:08:43.803Z</time></trkpt><trkpt lat="45.6323086" lon="9.848783"><ele>190.0</ele><time>2026-05-02T08:08:45.803Z</time></trkpt><trkpt lat="45.6323051" lon="9.8488778"><ele>190.0</ele><time>2026-05-02T08:08:46.803Z</time></trkpt><trkpt lat="45.6323168" lon="9.8489849"><ele>190.5</ele><time>2026-05-02T08:08:47.803Z</time></trkpt><trkpt lat="45.6323438" lon="9.8491187"><ele>191.0</ele><time>2026-05-02T08:08:48.803Z</time></trkpt><trkpt lat="45.6323831" lon="9.8493009"><ele>191.5</ele><time>2026-05-02T08:08:49.803Z</time></trkpt><trkpt lat="45.6324209" lon="9.8495172"><ele>192.0</ele><time>2026-05-02T08:08:50.803Z</time></trkpt><trkpt lat="45.6324591" lon="9.8497366"><ele>192.0</ele><time>2026-05-02T08:08:51.803Z</time></trkpt><trkpt lat="45.6324994" lon="9.8499424"><ele>192.0</ele><time>2026-05-02T08:08:52.803Z</time></trkpt><trkpt lat="45.6325333" lon="9.8501545"><ele>192.0</ele><time>2026-05-02T08:08:53.803Z</time></trkpt><trkpt lat="45.6325661" lon="9.8503685"><ele>191.5</ele><time>2026-05-02T08:08:54.803Z</time></trkpt><trkpt lat="45.6325835" lon="9.8505776"><ele>191.0</ele><time>2026-05-02T08:08:55.803Z</time></trkpt><trkpt lat="45.632587" lon="9.8507867"><ele>190.5</ele><time>2026-05-02T08:08:56.803Z</time></trkpt><trkpt lat="45.6325836" lon="9.8509856"><ele>190.0</ele><time>2026-05-02T08:08:57.803Z</time></trkpt><trkpt lat="45.6325808" lon="9.8511626"><ele>190.0</ele><time>2026-05-02T08:08:58.803Z</time></trkpt><trkpt lat="45.6325676" lon="9.8513357"><ele>190.0</ele><time>2026-05-02T08:08:59.803Z</time></trkpt><trkpt lat="45.6325528" lon="9.8515046"><ele>190.0</ele><time>2026-05-02T08:09:00.803Z</time></trkpt><trkpt lat="45.6325355" lon="9.8516758"><ele>190.0</ele><time>2026-05-02T08:09:01.803Z</time></trkpt><trkpt lat="45.632514" lon="9.851849"><ele>190.5</ele><time>2026-05-02T08:09:02.803Z</time></trkpt><trkpt lat="45.632489" lon="9.8520128"><ele>191.0</ele><time>2026-05-02T08:09:03.803Z</time></trkpt><trkpt lat="45.6324555" lon="9.8521773"><ele>191.5</ele><time>2026-05-02T08:09:04.803Z</time></trkpt><trkpt lat="45.6324144" lon="9.8523368"><ele>192.0</ele><time>2026-05-02T08:09:05.803Z</time></trkpt><trkpt lat="45.6323671" lon="9.8524932"><ele>191.75</ele><time>2026-05-02T08:09:06.803Z</time></trkpt><trkpt lat="45.63231" lon="9.8526583"><ele>191.5</ele><time>2026-05-02T08:09:07.803Z</time></trkpt><trkpt lat="45.63225" lon="9.8528268"><ele>191.25</ele><time>2026-05-02T08:09:08.803Z</time></trkpt><trkpt lat="45.6321968" lon="9.8529936"><ele>191.0</ele><time>2026-05-02T08:09:09.803Z</time></trkpt><trkpt lat="45.6321452" lon="9.8531646"><ele>191.0</ele><time>2026-05-02T08:09:10.803Z</time></trkpt><trkpt lat="45.6320839" lon="9.8533546"><ele>191.0</ele><time>2026-05-02T08:09:11.803Z</time></trkpt><trkpt lat="45.6320174" lon="9.8535651"><ele>191.0</ele><time>2026-05-02T08:09:12.803Z</time></trkpt><trkpt lat="45.6319364" lon="9.85379"><ele>191.66666666666666</ele><time>2026-05-02T08:09:13.803Z</time></trkpt><trkpt lat="45.6318593" lon="9.8540304"><ele>192.33333333333331</ele><time>2026-05-02T08:09:14.803Z</time></trkpt><trkpt lat="45.6317869" lon="9.8542712"><ele>193.0</ele><time>2026-05-02T08:09:15.803Z</time></trkpt><trkpt lat="45.6317023" lon="9.8545136"><ele>193.33333333333331</ele><time>2026-05-02T08:09:16.803Z</time></trkpt><trkpt lat="45.6316112" lon="9.8547624"><ele>193.66666666666669</ele><time>2026-05-02T08:09:17.803Z</time></trkpt><trkpt lat="45.6315292" lon="9.8549961"><ele>194.0</ele><time>2026-05-02T08:09:18.803Z</time></trkpt><trkpt lat="45.6314561" lon="9.8552208"><ele>194.33333333333334</ele><time>2026-05-02T08:09:19.803Z</time></trkpt><trkpt lat="45.6313819" lon="9.8554345"><ele>194.66666666666669</ele><time>2026-05-02T08:09:20.803Z</time></trkpt><trkpt lat="45.6313115" lon="9.8556403"><ele>195.0</ele><time>2026-05-02T08:09:21.803Z</time></trkpt><trkpt lat="45.6312467" lon="9.855837"><ele>195.0</ele><time>2026-05-02T08:09:22.803Z</time></trkpt><trkpt lat="45.6311948" lon="9.8560239"><ele>195.0</ele><time>2026-05-02T08:09:23.803Z</time></trkpt><trkpt lat="45.6311477" lon="9.8561997"><ele>195.0</ele><time>2026-05-02T08:09:24.803Z</time></trkpt><trkpt lat="45.6311098" lon="9.856369"><ele>195.0</ele><time>2026-05-02T08:09:25.803Z</time></trkpt><trkpt lat="45.6310739" lon="9.8565228"><ele>194.8</ele><time>2026-05-02T08:09:26.803Z</time></trkpt><trkpt lat="45.6310408" lon="9.856672"><ele>194.6</ele><time>2026-05-02T08:09:27.803Z</time></trkpt><trkpt lat="45.6310072" lon="9.8568206"><ele>194.39999999999998</ele><time>2026-05-02T08:09:28.803Z</time></trkpt><trkpt lat="45.6309809" lon="9.8569595"><ele>194.2</ele><time>2026-05-02T08:09:29.803Z</time></trkpt><trkpt lat="45.6309546" lon="9.8570923"><ele>194.0</ele><time>2026-05-02T08:09:30.803Z</time></trkpt><trkpt lat="45.6309318" lon="9.8572152"><ele>194.00000000000003</ele><time>2026-05-02T08:09:31.803Z</time></trkpt><trkpt lat="45.6309052" lon="9.8573353"><ele>194.0</ele><time>2026-05-02T08:09:32.803Z</time></trkpt><trkpt lat="45.6308765" lon="9.857455"><ele>194.0</ele><time>2026-05-02T08:09:33.803Z</time></trkpt><trkpt lat="45.6308523" lon="9.8575608"><ele>194.0</ele><time>2026-05-02T08:09:34.803Z</time></trkpt><trkpt lat="45.630833" lon="9.8576509"><ele>194.00000000000003</ele><time>2026-05-02T08:09:35.803Z</time></trkpt><trkpt lat="45.6308036" lon="9.8577921"><ele>194.0</ele><time>2026-05-02T08:09:37.803Z</time></trkpt><trkpt lat="45.6307819" lon="9.8579163"><ele>194.0</ele><time>2026-05-02T08:09:39.803Z</time></trkpt><trkpt lat="45.6307619" lon="9.858062"><ele>194.0</ele><time>2026-05-02T08:09:41.803Z</time></trkpt><trkpt lat="45.6307359" lon="9.858246"><ele>194.0</ele><time>2026-05-02T08:09:43.803Z</time></trkpt><trkpt lat="45.6307282" lon="9.8583427"><ele>194.0</ele><time>2026-05-02T08:09:44.803Z</time></trkpt><trkpt lat="45.6307311" lon="9.8584502"><ele>194.0</ele><time>2026-05-02T08:09:45.803Z</time></trkpt><trkpt lat="45.6307446" lon="9.8585648"><ele>194.39999999999998</ele><time>2026-05-02T08:09:46.803Z</time></trkpt><trkpt lat="45.630761" lon="9.8586912"><ele>194.8</ele><time>2026-05-02T08:09:47.803Z</time></trkpt><trkpt lat="45.6307797" lon="9.8588142"><ele>195.2</ele><time>2026-05-02T08:09:48.804Z</time></trkpt><trkpt lat="45.6307944" lon="9.8589444"><ele>195.60000000000002</ele><time>2026-05-02T08:09:49.803Z</time></trkpt><trkpt lat="45.6308026" lon="9.8590791"><ele>196.0</ele><time>2026-05-02T08:09:50.803Z</time></trkpt><trkpt lat="45.6308048" lon="9.8592144"><ele>196.20000000000002</ele><time>2026-05-02T08:09:51.803Z</time></trkpt><trkpt lat="45.6308066" lon="9.8593626"><ele>196.4</ele><time>2026-05-02T08:09:52.803Z</time></trkpt><trkpt lat="45.6308128" lon="9.8595177"><ele>196.6</ele><time>2026-05-02T08:09:53.803Z</time></trkpt><trkpt lat="45.6308238" lon="9.8596763"><ele>196.8</ele><time>2026-05-02T08:09:54.803Z</time></trkpt><trkpt lat="45.6308402" lon="9.8598341"><ele>197.0</ele><time>2026-05-02T08:09:55.803Z</time></trkpt><trkpt lat="45.6308594" lon="9.8599837"><ele>197.0</ele><time>2026-05-02T08:09:56.803Z</time></trkpt><trkpt lat="45.6308825" lon="9.8601297"><ele>197.0</ele><time>2026-05-02T08:09:57.803Z</time></trkpt><trkpt lat="45.6309092" lon="9.8602692"><ele>197.0</ele><time>2026-05-02T08:09:58.803Z</time></trkpt><trkpt lat="45.6309354" lon="9.8604061"><ele>197.0</ele><time>2026-05-02T08:09:59.803Z</time></trkpt><trkpt lat="45.6309573" lon="9.8605418"><ele>197.0</ele><time>2026-05-02T08:10:00.803Z</time></trkpt><trkpt lat="45.6309826" lon="9.8606763"><ele>197.0</ele><time>2026-05-02T08:10:01.803Z</time></trkpt><trkpt lat="45.6310115" lon="9.8608084"><ele>197.0</ele><time>2026-05-02T08:10:02.803Z</time></trkpt><trkpt lat="45.6310427" lon="9.8609349"><ele>197.0</ele><time>2026-05-02T08:10:03.803Z</time></trkpt><trkpt lat="45.6310788" lon="9.8610506"><ele>197.0</ele><time>2026-05-02T08:10:04.803Z</time></trkpt><trkpt lat="45.6311214" lon="9.8611647"><ele>197.0</ele><time>2026-05-02T08:10:05.803Z</time></trkpt><trkpt lat="45.6311672" lon="9.8612693"><ele>197.16666666666669</ele><time>2026-05-02T08:10:06.803Z</time></trkpt><trkpt lat="45.6312262" lon="9.8613594"><ele>197.33333333333334</ele><time>2026-05-02T08:10:07.803Z</time></trkpt><trkpt lat="45.6312939" lon="9.8614352"><ele>197.5</ele><time>2026-05-02T08:10:08.803Z</time></trkpt><trkpt lat="45.6313625" lon="9.8615038"><ele>197.66666666666669</ele><time>2026-05-02T08:10:09.803Z</time></trkpt><trkpt lat="45.6314381" lon="9.8615489"><ele>197.83333333333334</ele><time>2026-05-02T08:10:10.803Z</time></trkpt><trkpt lat="45.6315111" lon="9.8615711"><ele>198.0</ele><time>2026-05-02T08:10:11.803Z</time></trkpt><trkpt lat="45.6315781" lon="9.8615868"><ele>198.0</ele><time>2026-05-02T08:10:12.803Z</time></trkpt><trkpt lat="45.6316916" lon="9.8616189"><ele>198.0</ele><time>2026-05-02T08:10:14.803Z</time></trkpt><trkpt lat="45.631798" lon="9.8616286"><ele>198.0</ele><time>2026-05-02T08:10:16.803Z</time></trkpt><trkpt lat="45.6319165" lon="9.8616475"><ele>198.0</ele><time>2026-05-02T08:10:18.803Z</time></trkpt><trkpt lat="45.6320186" lon="9.8616544"><ele>198.0</ele><time>2026-05-02T08:10:20.802Z</time></trkpt><trkpt lat="45.6321267" lon="9.8617362"><ele>198.0</ele><time>2026-05-02T08:10:22.802Z</time></trkpt><trkpt lat="45.6321781" lon="9.8617933"><ele>198.0</ele><time>2026-05-02T08:10:23.802Z</time></trkpt><trkpt lat="45.6322311" lon="9.8618887"><ele>198.0</ele><time>2026-05-02T08:10:25.802Z</time></trkpt><trkpt lat="45.6322961" lon="9.8620121"><ele>198.0</ele><time>2026-05-02T08:10:28.802Z</time></trkpt><trkpt lat="45.6323317" lon="9.8620908"><ele>198.0</ele><time>2026-05-02T08:10:29.802Z</time></trkpt><trkpt lat="45.6323705" lon="9.8621768"><ele>198.0</ele><time>2026-05-02T08:10:30.802Z</time></trkpt><trkpt lat="45.6324138" lon="9.8622569"><ele>198.0</ele><time>2026-05-02T08:10:31.802Z</time></trkpt><trkpt lat="45.6325152" lon="9.862333"><ele>198.0</ele><time>2026-05-02T08:10:33.802Z</time></trkpt><trkpt lat="45.6326404" lon="9.8622858"><ele>198.0</ele><time>2026-05-02T08:10:35.802Z</time></trkpt><trkpt lat="45.6327048" lon="9.8622394"><ele>198.0</ele><time>2026-05-02T08:10:36.802Z</time></trkpt><trkpt lat="45.6327725" lon="9.8622032"><ele>198.0</ele><time>2026-05-02T08:10:37.802Z</time></trkpt><trkpt lat="45.6328453" lon="9.8621871"><ele>198.0</ele><time>2026-05-02T08:10:38.802Z</time></trkpt><trkpt lat="45.6329238" lon="9.8621894"><ele>198.0</ele><time>2026-05-02T08:10:39.802Z</time></trkpt><trkpt lat="45.6330152" lon="9.8622079"><ele>198.0</ele><time>2026-05-02T08:10:40.802Z</time></trkpt><trkpt lat="45.6331165" lon="9.86224"><ele>198.0</ele><time>2026-05-02T08:10:41.802Z</time></trkpt><trkpt lat="45.6332207" lon="9.8622833"><ele>198.0</ele><time>2026-05-02T08:10:42.802Z</time></trkpt><trkpt lat="45.6333288" lon="9.8623255"><ele>198.0</ele><time>2026-05-02T08:10:43.802Z</time></trkpt><trkpt lat="45.6334374" lon="9.8623578"><ele>198.0</ele><time>2026-05-02T08:10:44.802Z</time></trkpt><trkpt lat="45.633534" lon="9.8623953"><ele>198.0</ele><time>2026-05-02T08:10:45.802Z</time></trkpt><trkpt lat="45.6336131" lon="9.8624575"><ele>198.0</ele><time>2026-05-02T08:10:46.802Z</time></trkpt><trkpt lat="45.6336759" lon="9.862539"><ele>198.0</ele><time>2026-05-02T08:10:47.802Z</time></trkpt><trkpt lat="45.6337238" lon="9.8626312"><ele>199.0</ele><time>2026-05-02T08:10:48.802Z</time></trkpt><trkpt lat="45.6337605" lon="9.862738"><ele>200.0</ele><time>2026-05-02T08:10:49.802Z</time></trkpt><trkpt lat="45.6337814" lon="9.8628621"><ele>201.0</ele><time>2026-05-02T08:10:50.802Z</time></trkpt><trkpt lat="45.6337804" lon="9.862992"><ele>202.0</ele><time>2026-05-02T08:10:51.802Z</time></trkpt><trkpt lat="45.6337671" lon="9.8631302"><ele>203.0</ele><time>2026-05-02T08:10:52.802Z</time></trkpt><trkpt lat="45.6337535" lon="9.8632603"><ele>203.0</ele><time>2026-05-02T08:10:53.802Z</time></trkpt><trkpt lat="45.6337447" lon="9.8633891"><ele>203.0</ele><time>2026-05-02T08:10:54.802Z</time></trkpt><trkpt lat="45.6337378" lon="9.8635192"><ele>203.0</ele><time>2026-05-02T08:10:55.802Z</time></trkpt><trkpt lat="45.6337318" lon="9.8636572"><ele>203.0</ele><time>2026-05-02T08:10:56.802Z</time></trkpt><trkpt lat="45.6337328" lon="9.8637999"><ele>203.0</ele><time>2026-05-02T08:10:57.802Z</time></trkpt><trkpt lat="45.6337403" lon="9.8639541"><ele>203.2</ele><time>2026-05-02T08:10:58.802Z</time></trkpt><trkpt lat="45.6337569" lon="9.8641074"><ele>203.4</ele><time>2026-05-02T08:10:59.802Z</time></trkpt><trkpt lat="45.6337921" lon="9.8642537"><ele>203.6</ele><time>2026-05-02T08:11:00.802Z</time></trkpt><trkpt lat="45.6338459" lon="9.8643763"><ele>203.79999999999998</ele><time>2026-05-02T08:11:01.802Z</time></trkpt><trkpt lat="45.6339132" lon="9.8644921"><ele>204.0</ele><time>2026-05-02T08:11:02.802Z</time></trkpt><trkpt lat="45.6339757" lon="9.8646003"><ele>204.0</ele><time>2026-05-02T08:11:03.802Z</time></trkpt><trkpt lat="45.6340359" lon="9.8646983"><ele>204.0</ele><time>2026-05-02T08:11:04.802Z</time></trkpt><trkpt lat="45.6340953" lon="9.8647979"><ele>204.0</ele><time>2026-05-02T08:11:05.802Z</time></trkpt><trkpt lat="45.6341506" lon="9.8649089"><ele>204.0</ele><time>2026-05-02T08:11:06.802Z</time></trkpt><trkpt lat="45.6342061" lon="9.8650257"><ele>204.0</ele><time>2026-05-02T08:11:07.802Z</time></trkpt><trkpt lat="45.6342603" lon="9.8651468"><ele>204.0</ele><time>2026-05-02T08:11:08.802Z</time></trkpt><trkpt lat="45.6343106" lon="9.8652781"><ele>204.0</ele><time>2026-05-02T08:11:09.802Z</time></trkpt><trkpt lat="45.6343702" lon="9.8654161"><ele>204.0</ele><time>2026-05-02T08:11:10.802Z</time></trkpt><trkpt lat="45.6344338" lon="9.8655813"><ele>204.0</ele><time>2026-05-02T08:11:11.802Z</time></trkpt><trkpt lat="45.6345066" lon="9.8657677"><ele>204.66666666666669</ele><time>2026-05-02T08:11:12.802Z</time></trkpt><trkpt lat="45.6345993" lon="9.8659742"><ele>205.33333333333334</ele><time>2026-05-02T08:11:13.802Z</time></trkpt><trkpt lat="45.6346977" lon="9.8662019"><ele>206.0</ele><time>2026-05-02T08:11:14.802Z</time></trkpt><trkpt lat="45.6347937" lon="9.8664405"><ele>206.0</ele><time>2026-05-02T08:11:15.802Z</time></trkpt><trkpt lat="45.6348873" lon="9.8666589"><ele>206.0</ele><time>2026-05-02T08:11:16.802Z</time></trkpt><trkpt lat="45.6349711" lon="9.8668642"><ele>206.0</ele><time>2026-05-02T08:11:17.802Z</time></trkpt><trkpt lat="45.6350443" lon="9.8670537"><ele>206.0</ele><time>2026-05-02T08:11:18.802Z</time></trkpt><trkpt lat="45.6351106" lon="9.8672242"><ele>206.0</ele><time>2026-05-02T08:11:19.802Z</time></trkpt><trkpt lat="45.6351742" lon="9.8673814"><ele>206.0</ele><time>2026-05-02T08:11:20.802Z</time></trkpt><trkpt lat="45.6352445" lon="9.8675353"><ele>206.0</ele><time>2026-05-02T08:11:21.802Z</time></trkpt><trkpt lat="45.6353339" lon="9.8676699"><ele>206.25</ele><time>2026-05-02T08:11:22.802Z</time></trkpt><trkpt lat="45.6354122" lon="9.8678053"><ele>206.5</ele><time>2026-05-02T08:11:23.802Z</time></trkpt><trkpt lat="45.6354803" lon="9.8679402"><ele>206.75</ele><time>2026-05-02T08:11:24.802Z</time></trkpt><trkpt lat="45.6355471" lon="9.8680763"><ele>207.0</ele><time>2026-05-02T08:11:25.802Z</time></trkpt><trkpt lat="45.6356112" lon="9.868217"><ele>207.0</ele><time>2026-05-02T08:11:26.802Z</time></trkpt><trkpt lat="45.6356729" lon="9.8683488"><ele>207.0</ele><time>2026-05-02T08:11:27.802Z</time></trkpt><trkpt lat="45.6357226" lon="9.8684764"><ele>207.0</ele><time>2026-05-02T08:11:28.802Z</time></trkpt><trkpt lat="45.6357688" lon="9.8685915"><ele>207.0</ele><time>2026-05-02T08:11:29.802Z</time></trkpt><trkpt lat="45.6358156" lon="9.8686936"><ele>207.0</ele><time>2026-05-02T08:11:30.802Z</time></trkpt><trkpt lat="45.6358657" lon="9.8687931"><ele>207.14285714285717</ele><time>2026-05-02T08:11:31.802Z</time></trkpt><trkpt lat="45.6359147" lon="9.8688831"><ele>207.28571428571428</ele><time>2026-05-02T08:11:32.802Z</time></trkpt><trkpt lat="45.6359672" lon="9.8689698"><ele>207.42857142857144</ele><time>2026-05-02T08:11:33.802Z</time></trkpt><trkpt lat="45.6360106" lon="9.8690489"><ele>207.57142857142858</ele><time>2026-05-02T08:11:34.802Z</time></trkpt><trkpt lat="45.6360523" lon="9.8691285"><ele>207.71428571428572</ele><time>2026-05-02T08:11:35.802Z</time></trkpt><trkpt lat="45.6360978" lon="9.8691989"><ele>207.85714285714286</ele><time>2026-05-02T08:11:36.802Z</time></trkpt><trkpt lat="45.636162" lon="9.8692448"><ele>208.0</ele><time>2026-05-02T08:11:37.802Z</time></trkpt><trkpt lat="45.6362409" lon="9.8692703"><ele>210.0</ele><time>2026-05-02T08:11:38.802Z</time></trkpt><trkpt lat="45.6363249" lon="9.8692864"><ele>212.0</ele><time>2026-05-02T08:11:39.802Z</time></trkpt><trkpt lat="45.6364135" lon="9.8693175"><ele>214.0</ele><time>2026-05-02T08:11:40.802Z</time></trkpt><trkpt lat="45.6365007" lon="9.8693598"><ele>216.0</ele><time>2026-05-02T08:11:41.802Z</time></trkpt><trkpt lat="45.6365949" lon="9.8694147"><ele>218.0</ele><time>2026-05-02T08:11:42.802Z</time></trkpt><trkpt lat="45.6366883" lon="9.8694912"><ele>218.0</ele><time>2026-05-02T08:11:43.802Z</time></trkpt><trkpt lat="45.6367913" lon="9.8695692"><ele>218.0</ele><time>2026-05-02T08:11:44.802Z</time></trkpt><trkpt lat="45.6369052" lon="9.86964"><ele>218.0</ele><time>2026-05-02T08:11:45.802Z</time></trkpt><trkpt lat="45.6370288" lon="9.8696753"><ele>218.0</ele><time>2026-05-02T08:11:46.802Z</time></trkpt><trkpt lat="45.6371614" lon="9.8696913"><ele>220.0</ele><time>2026-05-02T08:11:47.802Z</time></trkpt><trkpt lat="45.6373018" lon="9.8696962"><ele>222.0</ele><time>2026-05-02T08:11:48.802Z</time></trkpt><trkpt lat="45.6374395" lon="9.8697134"><ele>224.0</ele><time>2026-05-02T08:11:49.802Z</time></trkpt><trkpt lat="45.6375757" lon="9.869732"><ele>226.0</ele><time>2026-05-02T08:11:50.802Z</time></trkpt><trkpt lat="45.637706" lon="9.8697481"><ele>225.75</ele><time>2026-05-02T08:11:51.802Z</time></trkpt><trkpt lat="45.637831" lon="9.8697455"><ele>225.5</ele><time>2026-05-02T08:11:52.802Z</time></trkpt><trkpt lat="45.6379522" lon="9.8697234"><ele>225.25</ele><time>2026-05-02T08:11:53.802Z</time></trkpt><trkpt lat="45.6380724" lon="9.869693"><ele>225.0</ele><time>2026-05-02T08:11:54.802Z</time></trkpt><trkpt lat="45.6381944" lon="9.8696446"><ele>225.0</ele><time>2026-05-02T08:11:55.802Z</time></trkpt><trkpt lat="45.6383012" lon="9.8695997"><ele>225.0</ele><time>2026-05-02T08:11:56.802Z</time></trkpt><trkpt lat="45.6383993" lon="9.8695609"><ele>225.0</ele><time>2026-05-02T08:11:57.802Z</time></trkpt><trkpt lat="45.6384963" lon="9.869522"><ele>225.0</ele><time>2026-05-02T08:11:58.802Z</time></trkpt><trkpt lat="45.6385961" lon="9.8694845"><ele>225.0</ele><time>2026-05-02T08:11:59.802Z</time></trkpt><trkpt lat="45.6387098" lon="9.869455"><ele>224.5</ele><time>2026-05-02T08:12:00.802Z</time></trkpt><trkpt lat="45.6388336" lon="9.869441"><ele>224.0</ele><time>2026-05-02T08:12:01.802Z</time></trkpt><trkpt lat="45.6389704" lon="9.8694476"><ele>223.5</ele><time>2026-05-02T08:12:02.802Z</time></trkpt><trkpt lat="45.6391243" lon="9.8694617"><ele>223.0</ele><time>2026-05-02T08:12:03.802Z</time></trkpt><trkpt lat="45.6392723" lon="9.869499"><ele>223.0</ele><time>2026-05-02T08:12:04.802Z</time></trkpt><trkpt lat="45.6394199" lon="9.8695443"><ele>223.0</ele><time>2026-05-02T08:12:05.802Z</time></trkpt><trkpt lat="45.639557" lon="9.8695791"><ele>223.0</ele><time>2026-05-02T08:12:06.802Z</time></trkpt><trkpt lat="45.6396793" lon="9.869594"><ele>223.0</ele><time>2026-05-02T08:12:07.802Z</time></trkpt><trkpt lat="45.6398063" lon="9.8696015"><ele>224.0</ele><time>2026-05-02T08:12:08.802Z</time></trkpt><trkpt lat="45.6399386" lon="9.8696014"><ele>225.0</ele><time>2026-05-02T08:12:09.802Z</time></trkpt><trkpt lat="45.6400674" lon="9.8695867"><ele>226.0</ele><time>2026-05-02T08:12:10.802Z</time></trkpt><trkpt lat="45.6401824" lon="9.8695605"><ele>227.0</ele><time>2026-05-02T08:12:11.802Z</time></trkpt><trkpt lat="45.6402913" lon="9.8695277"><ele>227.0</ele><time>2026-05-02T08:12:12.802Z</time></trkpt><trkpt lat="45.6403963" lon="9.8694773"><ele>227.0</ele><time>2026-05-02T08:12:13.802Z</time></trkpt><trkpt lat="45.6404978" lon="9.8694215"><ele>227.0</ele><time>2026-05-02T08:12:14.802Z</time></trkpt><trkpt lat="45.6405906" lon="9.8693605"><ele>227.0</ele><time>2026-05-02T08:12:15.802Z</time></trkpt><trkpt lat="45.6406708" lon="9.8693071"><ele>227.0</ele><time>2026-05-02T08:12:16.802Z</time></trkpt><trkpt lat="45.6407418" lon="9.8692477"><ele>228.8</ele><time>2026-05-02T08:12:17.802Z</time></trkpt><trkpt lat="45.6408079" lon="9.8691983"><ele>230.6</ele><time>2026-05-02T08:12:18.802Z</time></trkpt><trkpt lat="45.6409163" lon="9.869144"><ele>232.40000000000003</ele><time>2026-05-02T08:12:20.802Z</time></trkpt><trkpt lat="45.6410065" lon="9.8691001"><ele>234.20000000000002</ele><time>2026-05-02T08:12:22.802Z</time></trkpt><trkpt lat="45.6410921" lon="9.8690779"><ele>236.0</ele><time>2026-05-02T08:12:25.802Z</time></trkpt><trkpt lat="45.6411724" lon="9.8691391"><ele>236.0</ele><time>2026-05-02T08:12:28.802Z</time></trkpt><trkpt lat="45.6412534" lon="9.8690621"><ele>236.00000000000003</ele><time>2026-05-02T08:12:31.802Z</time></trkpt><trkpt lat="45.6413004" lon="9.8689819"><ele>236.00000000000003</ele><time>2026-05-02T08:12:32.802Z</time></trkpt><trkpt lat="45.6413637" lon="9.8688957"><ele>236.0</ele><time>2026-05-02T08:12:33.802Z</time></trkpt><trkpt lat="45.6414515" lon="9.8688194"><ele>236.0</ele><time>2026-05-02T08:12:34.802Z</time></trkpt><trkpt lat="45.6415628" lon="9.8687603"><ele>236.0</ele><time>2026-05-02T08:12:35.802Z</time></trkpt><trkpt lat="45.6417048" lon="9.8687273"><ele>236.0</ele><time>2026-05-02T08:12:36.802Z</time></trkpt><trkpt lat="45.6418432" lon="9.8687037"><ele>236.0</ele><time>2026-05-02T08:12:37.802Z</time></trkpt><trkpt lat="45.6419884" lon="9.868685"><ele>236.0</ele><time>2026-05-02T08:12:38.802Z</time></trkpt><trkpt lat="45.6421304" lon="9.8686607"><ele>237.25</ele><time>2026-05-02T08:12:39.802Z</time></trkpt><trkpt lat="45.6422659" lon="9.8686283"><ele>238.5</ele><time>2026-05-02T08:12:40.802Z</time></trkpt><trkpt lat="45.642398" lon="9.8685703"><ele>239.75</ele><time>2026-05-02T08:12:41.802Z</time></trkpt><trkpt lat="45.642514" lon="9.8684966"><ele>241.0</ele><time>2026-05-02T08:12:42.802Z</time></trkpt><trkpt lat="45.6426101" lon="9.8684304"><ele>245.25</ele><time>2026-05-02T08:12:43.802Z</time></trkpt><trkpt lat="45.6427095" lon="9.8683468"><ele>249.5</ele><time>2026-05-02T08:12:44.802Z</time></trkpt><trkpt lat="45.6428111" lon="9.8682617"><ele>253.75</ele><time>2026-05-02T08:12:45.802Z</time></trkpt><trkpt lat="45.6429157" lon="9.8681706"><ele>258.0</ele><time>2026-05-02T08:12:46.802Z</time></trkpt><trkpt lat="45.6430159" lon="9.8680736"><ele>258.5</ele><time>2026-05-02T08:12:47.802Z</time></trkpt><trkpt lat="45.6431105" lon="9.8679577"><ele>259.0</ele><time>2026-05-02T08:12:48.802Z</time></trkpt><trkpt lat="45.6431873" lon="9.867819"><ele>259.5</ele><time>2026-05-02T08:12:49.802Z</time></trkpt><trkpt lat="45.643257" lon="9.8676619"><ele>260.0</ele><time>2026-05-02T08:12:50.802Z</time></trkpt><trkpt lat="45.6433278" lon="9.867516"><ele>262.0</ele><time>2026-05-02T08:12:51.802Z</time></trkpt><trkpt lat="45.6434164" lon="9.8674126"><ele>264.0</ele><time>2026-05-02T08:12:52.802Z</time></trkpt><trkpt lat="45.6435266" lon="9.867341"><ele>266.0</ele><time>2026-05-02T08:12:53.802Z</time></trkpt><trkpt lat="45.6436519" lon="9.8673027"><ele>268.0</ele><time>2026-05-02T08:12:54.802Z</time></trkpt><trkpt lat="45.6437778" lon="9.8672832"><ele>271.0</ele><time>2026-05-02T08:12:55.802Z</time></trkpt><trkpt lat="45.6439029" lon="9.8672746"><ele>274.0</ele><time>2026-05-02T08:12:56.802Z</time></trkpt><trkpt lat="45.6440209" lon="9.8672906"><ele>277.0</ele><time>2026-05-02T08:12:57.802Z</time></trkpt><trkpt lat="45.644127" lon="9.8673426"><ele>280.0</ele><time>2026-05-02T08:12:58.802Z</time></trkpt><trkpt lat="45.6442341" lon="9.8674227"><ele>280.0</ele><time>2026-05-02T08:12:59.802Z</time></trkpt><trkpt lat="45.6443324" lon="9.8675171"><ele>280.0</ele><time>2026-05-02T08:13:00.802Z</time></trkpt><trkpt lat="45.6444376" lon="9.8676019"><ele>280.0</ele><time>2026-05-02T08:13:01.802Z</time></trkpt><trkpt lat="45.6445559" lon="9.8676696"><ele>280.0</ele><time>2026-05-02T08:13:02.802Z</time></trkpt><trkpt lat="45.6446818" lon="9.8677272"><ele>280.0</ele><time>2026-05-02T08:13:03.802Z</time></trkpt><trkpt lat="45.6448169" lon="9.8677822"><ele>280.0</ele><time>2026-05-02T08:13:04.802Z</time></trkpt><trkpt lat="45.644952" lon="9.8678448"><ele>280.0</ele><time>2026-05-02T08:13:05.802Z</time></trkpt><trkpt lat="45.645088" lon="9.8679039"><ele>280.0</ele><time>2026-05-02T08:13:06.802Z</time></trkpt><trkpt lat="45.6452312" lon="9.8679627"><ele>284.25</ele><time>2026-05-02T08:13:07.802Z</time></trkpt><trkpt lat="45.6453618" lon="9.8680236"><ele>288.5</ele><time>2026-05-02T08:13:08.802Z</time></trkpt><trkpt lat="45.6454944" lon="9.8681025"><ele>292.75</ele><time>2026-05-02T08:13:09.802Z</time></trkpt><trkpt lat="45.6456137" lon="9.868199"><ele>297.0</ele><time>2026-05-02T08:13:10.802Z</time></trkpt><trkpt lat="45.6457071" lon="9.8683407"><ele>295.25</ele><time>2026-05-02T08:13:11.802Z</time></trkpt><trkpt lat="45.6457941" lon="9.8684915"><ele>293.5</ele><time>2026-05-02T08:13:12.802Z</time></trkpt><trkpt lat="45.6458715" lon="9.8686527"><ele>291.75</ele><time>2026-05-02T08:13:13.802Z</time></trkpt><trkpt lat="45.6459512" lon="9.8687943"><ele>290.0</ele><time>2026-05-02T08:13:14.802Z</time></trkpt><trkpt lat="45.6460425" lon="9.8689142"><ele>293.25</ele><time>2026-05-02T08:13:15.802Z</time></trkpt><trkpt lat="45.6461413" lon="9.8689734"><ele>296.5</ele><time>2026-05-02T08:13:16.802Z</time></trkpt><trkpt lat="45.646263" lon="9.8689953"><ele>299.75</ele><time>2026-05-02T08:13:17.802Z</time></trkpt><trkpt lat="45.6463798" lon="9.8690079"><ele>303.0</ele><time>2026-05-02T08:13:18.802Z</time></trkpt><trkpt lat="45.6464859" lon="9.8690152"><ele>303.0</ele><time>2026-05-02T08:13:19.802Z</time></trkpt><trkpt lat="45.6465779" lon="9.8690064"><ele>303.0</ele><time>2026-05-02T08:13:20.802Z</time></trkpt><trkpt lat="45.6466621" lon="9.8689574"><ele>303.0</ele><time>2026-05-02T08:13:21.802Z</time></trkpt><trkpt lat="45.646711" lon="9.8688842"><ele>303.0</ele><time>2026-05-02T08:13:22.802Z</time></trkpt><trkpt lat="45.6467113" lon="9.8687789"><ele>303.0</ele><time>2026-05-02T08:13:23.802Z</time></trkpt><trkpt lat="45.6466685" lon="9.8686693"><ele>303.0</ele><time>2026-05-02T08:13:24.802Z</time></trkpt><trkpt lat="45.6465883" lon="9.8685508"><ele>305.2</ele><time>2026-05-02T08:13:25.802Z</time></trkpt><trkpt lat="45.6465235" lon="9.8684344"><ele>307.4</ele><time>2026-05-02T08:13:26.802Z</time></trkpt><trkpt lat="45.6464622" lon="9.8683504"><ele>309.59999999999997</ele><time>2026-05-02T08:13:27.802Z</time></trkpt><trkpt lat="45.6464969" lon="9.8681867"><ele>311.8</ele><time>2026-05-02T08:13:29.802Z</time></trkpt><trkpt lat="45.6465807" lon="9.8681011"><ele>314.0</ele><time>2026-05-02T08:13:30.802Z</time></trkpt><trkpt lat="45.6466709" lon="9.8680195"><ele>314.0</ele><time>2026-05-02T08:13:31.802Z</time></trkpt><trkpt lat="45.64677" lon="9.8679643"><ele>314.0</ele><time>2026-05-02T08:13:32.802Z</time></trkpt><trkpt lat="45.6468747" lon="9.8679431"><ele>314.0</ele><time>2026-05-02T08:13:33.802Z</time></trkpt><trkpt lat="45.6469864" lon="9.8680058"><ele>314.0</ele><time>2026-05-02T08:13:34.802Z</time></trkpt><trkpt lat="45.6471017" lon="9.8681097"><ele>314.5</ele><time>2026-05-02T08:13:35.802Z</time></trkpt><trkpt lat="45.6472132" lon="9.8682266"><ele>315.0</ele><time>2026-05-02T08:13:36.802Z</time></trkpt><trkpt lat="45.6473171" lon="9.8683453"><ele>315.5</ele><time>2026-05-02T08:13:37.802Z</time></trkpt><trkpt lat="45.6474061" lon="9.868469"><ele>316.0</ele><time>2026-05-02T08:13:38.802Z</time></trkpt><trkpt lat="45.6474772" lon="9.8686023"><ele>316.0</ele><time>2026-05-02T08:13:39.802Z</time></trkpt><trkpt lat="45.6475501" lon="9.8687404"><ele>316.0</ele><time>2026-05-02T08:13:40.802Z</time></trkpt><trkpt lat="45.6476178" lon="9.8688792"><ele>316.0</ele><time>2026-05-02T08:13:41.802Z</time></trkpt><trkpt lat="45.6476931" lon="9.8690026"><ele>316.0</ele><time>2026-05-02T08:13:42.802Z</time></trkpt><trkpt lat="45.6477721" lon="9.8691287"><ele>317.20000000000005</ele><time>2026-05-02T08:13:43.802Z</time></trkpt><trkpt lat="45.6478518" lon="9.869254"><ele>318.40000000000003</ele><time>2026-05-02T08:13:44.802Z</time></trkpt><trkpt lat="45.6479217" lon="9.8693702"><ele>319.6</ele><time>2026-05-02T08:13:45.802Z</time></trkpt><trkpt lat="45.6479912" lon="9.8694832"><ele>320.8</ele><time>2026-05-02T08:13:46.802Z</time></trkpt><trkpt lat="45.6480565" lon="9.8695876"><ele>322.0</ele><time>2026-05-02T08:13:47.802Z</time></trkpt><trkpt lat="45.6481208" lon="9.8696852"><ele>322.0</ele><time>2026-05-02T08:13:48.802Z</time></trkpt><trkpt lat="45.6481798" lon="9.869791"><ele>322.0</ele><time>2026-05-02T08:13:49.802Z</time></trkpt><trkpt lat="45.6482325" lon="9.8699087"><ele>322.0</ele><time>2026-05-02T08:13:50.802Z</time></trkpt><trkpt lat="45.6482824" lon="9.8700467"><ele>322.0</ele><time>2026-05-02T08:13:51.802Z</time></trkpt><trkpt lat="45.648329" lon="9.8701876"><ele>322.0</ele><time>2026-05-02T08:13:52.802Z</time></trkpt><trkpt lat="45.6483815" lon="9.8703175"><ele>320.8333333333333</ele><time>2026-05-02T08:13:53.802Z</time></trkpt><trkpt lat="45.6484404" lon="9.8704376"><ele>319.66666666666663</ele><time>2026-05-02T08:13:54.802Z</time></trkpt><trkpt lat="45.6485086" lon="9.8705261"><ele>318.5</ele><time>2026-05-02T08:13:55.802Z</time></trkpt><trkpt lat="45.648579" lon="9.8706004"><ele>317.3333333333333</ele><time>2026-05-02T08:13:56.802Z</time></trkpt><trkpt lat="45.6486496" lon="9.8706729"><ele>316.1666666666667</ele><time>2026-05-02T08:13:57.802Z</time></trkpt><trkpt lat="45.6487101" lon="9.8707418"><ele>315.0</ele><time>2026-05-02T08:13:58.802Z</time></trkpt><trkpt lat="45.6487661" lon="9.8708114"><ele>315.0</ele><time>2026-05-02T08:13:59.802Z</time></trkpt><trkpt lat="45.6488235" lon="9.8708818"><ele>315.0</ele><time>2026-05-02T08:14:00.802Z</time></trkpt><trkpt lat="45.648874" lon="9.8709485"><ele>315.0</ele><time>2026-05-02T08:14:01.802Z</time></trkpt><trkpt lat="45.6489428" lon="9.8709895"><ele>315.0</ele><time>2026-05-02T08:14:02.802Z</time></trkpt><trkpt lat="45.6490053" lon="9.8710497"><ele>315.0</ele><time>2026-05-02T08:14:03.802Z</time></trkpt><trkpt lat="45.6490761" lon="9.8711031"><ele>315.0</ele><time>2026-05-02T08:14:04.802Z</time></trkpt><trkpt lat="45.6491433" lon="9.871162"><ele>314.4</ele><time>2026-05-02T08:14:05.802Z</time></trkpt><trkpt lat="45.6492133" lon="9.8712244"><ele>313.8</ele><time>2026-05-02T08:14:06.802Z</time></trkpt><trkpt lat="45.6492954" lon="9.8712817"><ele>313.2</ele><time>2026-05-02T08:14:07.802Z</time></trkpt><trkpt lat="45.6493858" lon="9.8713374"><ele>312.6</ele><time>2026-05-02T08:14:08.802Z</time></trkpt><trkpt lat="45.6494792" lon="9.8713899"><ele>312.0</ele><time>2026-05-02T08:14:09.802Z</time></trkpt><trkpt lat="45.6495669" lon="9.8714446"><ele>312.0</ele><time>2026-05-02T08:14:10.802Z</time></trkpt><trkpt lat="45.6496527" lon="9.8715044"><ele>312.0</ele><time>2026-05-02T08:14:11.802Z</time></trkpt><trkpt lat="45.6497296" lon="9.8715869"><ele>312.0</ele><time>2026-05-02T08:14:12.802Z</time></trkpt><trkpt lat="45.6497842" lon="9.8716866"><ele>312.0</ele><time>2026-05-02T08:14:13.802Z</time></trkpt><trkpt lat="45.6498386" lon="9.8717907"><ele>312.0</ele><time>2026-05-02T08:14:14.802Z</time></trkpt><trkpt lat="45.649896" lon="9.8718972"><ele>312.0</ele><time>2026-05-02T08:14:15.802Z</time></trkpt><trkpt lat="45.6499575" lon="9.8719981"><ele>312.0</ele><time>2026-05-02T08:14:16.802Z</time></trkpt><trkpt lat="45.6500226" lon="9.8720935"><ele>312.0</ele><time>2026-05-02T08:14:17.802Z</time></trkpt><trkpt lat="45.6500913" lon="9.8721858"><ele>312.0</ele><time>2026-05-02T08:14:18.802Z</time></trkpt><trkpt lat="45.6501622" lon="9.8722748"><ele>312.0</ele><time>2026-05-02T08:14:19.802Z</time></trkpt><trkpt lat="45.6502387" lon="9.8723513"><ele>312.5</ele><time>2026-05-02T08:14:20.802Z</time></trkpt><trkpt lat="45.6503067" lon="9.8724362"><ele>313.0</ele><time>2026-05-02T08:14:21.802Z</time></trkpt><trkpt lat="45.6503662" lon="9.8725124"><ele>313.5</ele><time>2026-05-02T08:14:22.802Z</time></trkpt><trkpt lat="45.6504307" lon="9.8725794"><ele>314.0</ele><time>2026-05-02T08:14:23.802Z</time></trkpt><trkpt lat="45.6504996" lon="9.8726477"><ele>314.5</ele><time>2026-05-02T08:14:24.802Z</time></trkpt><trkpt lat="45.6505668" lon="9.8727361"><ele>315.0</ele><time>2026-05-02T08:14:25.802Z</time></trkpt><trkpt lat="45.6506424" lon="9.8728406"><ele>316.75</ele><time>2026-05-02T08:14:26.802Z</time></trkpt><trkpt lat="45.650725" lon="9.8729541"><ele>318.5</ele><time>2026-05-02T08:14:27.802Z</time></trkpt><trkpt lat="45.6508122" lon="9.8730874"><ele>320.25</ele><time>2026-05-02T08:14:28.802Z</time></trkpt><trkpt lat="45.6508989" lon="9.873238"><ele>322.0</ele><time>2026-05-02T08:14:29.803Z</time></trkpt><trkpt lat="45.6509767" lon="9.8734001"><ele>322.5</ele><time>2026-05-02T08:14:30.802Z</time></trkpt><trkpt lat="45.6510465" lon="9.8735625"><ele>323.0</ele><time>2026-05-02T08:14:31.802Z</time></trkpt><trkpt lat="45.651098" lon="9.8737259"><ele>323.5</ele><time>2026-05-02T08:14:32.802Z</time></trkpt><trkpt lat="45.6511332" lon="9.8738846"><ele>324.0</ele><time>2026-05-02T08:14:33.802Z</time></trkpt><trkpt lat="45.6511555" lon="9.8740482"><ele>328.4</ele><time>2026-05-02T08:14:34.802Z</time></trkpt><trkpt lat="45.6511667" lon="9.8742156"><ele>332.79999999999995</ele><time>2026-05-02T08:14:35.802Z</time></trkpt><trkpt lat="45.6511646" lon="9.8743715"><ele>337.20000000000005</ele><time>2026-05-02T08:14:36.802Z</time></trkpt><trkpt lat="45.6511711" lon="9.8745201"><ele>341.6</ele><time>2026-05-02T08:14:37.802Z</time></trkpt><trkpt lat="45.6511852" lon="9.874668"><ele>346.0</ele><time>2026-05-02T08:14:38.802Z</time></trkpt><trkpt lat="45.6512024" lon="9.874826"><ele>347.0</ele><time>2026-05-02T08:14:39.802Z</time></trkpt><trkpt lat="45.6512396" lon="9.8749833"><ele>348.0</ele><time>2026-05-02T08:14:40.802Z</time></trkpt><trkpt lat="45.6512818" lon="9.8751388"><ele>349.0</ele><time>2026-05-02T08:14:41.802Z</time></trkpt><trkpt lat="45.6513458" lon="9.8752751"><ele>350.0</ele><time>2026-05-02T08:14:42.802Z</time></trkpt><trkpt lat="45.6514163" lon="9.875406"><ele>350.5</ele><time>2026-05-02T08:14:43.802Z</time></trkpt><trkpt lat="45.6514786" lon="9.8755505"><ele>351.0</ele><time>2026-05-02T08:14:44.802Z</time></trkpt><trkpt lat="45.6515229" lon="9.8756977"><ele>351.5</ele><time>2026-05-02T08:14:45.802Z</time></trkpt><trkpt lat="45.6515506" lon="9.8758628"><ele>352.0</ele><time>2026-05-02T08:14:46.802Z</time></trkpt><trkpt lat="45.6515591" lon="9.8760621"><ele>354.0</ele><time>2026-05-02T08:14:47.802Z</time></trkpt><trkpt lat="45.6515454" lon="9.8762941"><ele>356.0</ele><time>2026-05-02T08:14:48.802Z</time></trkpt><trkpt lat="45.6515145" lon="9.8765463"><ele>358.0</ele><time>2026-05-02T08:14:49.802Z</time></trkpt><trkpt lat="45.6514574" lon="9.8768064"><ele>358.3333333333333</ele><time>2026-05-02T08:14:50.802Z</time></trkpt><trkpt lat="45.6514051" lon="9.8770587"><ele>358.6666666666667</ele><time>2026-05-02T08:14:51.802Z</time></trkpt><trkpt lat="45.651357" lon="9.8773207"><ele>359.0</ele><time>2026-05-02T08:14:52.802Z</time></trkpt><trkpt lat="45.6513444" lon="9.87758"><ele>357.33333333333337</ele><time>2026-05-02T08:14:53.802Z</time></trkpt><trkpt lat="45.6513616" lon="9.8778271"><ele>355.6666666666667</ele><time>2026-05-02T08:14:54.802Z</time></trkpt><trkpt lat="45.6514176" lon="9.878064"><ele>354.0</ele><time>2026-05-02T08:14:55.802Z</time></trkpt><trkpt lat="45.6515122" lon="9.8783041"><ele>352.3333333333333</ele><time>2026-05-02T08:14:56.802Z</time></trkpt><trkpt lat="45.6516319" lon="9.8785491"><ele>350.66666666666663</ele><time>2026-05-02T08:14:57.802Z</time></trkpt><trkpt lat="45.6517559" lon="9.8788006"><ele>349.0</ele><time>2026-05-02T08:14:58.802Z</time></trkpt><trkpt lat="45.651873" lon="9.8790495"><ele>357.3333333333333</ele><time>2026-05-02T08:14:59.802Z</time></trkpt><trkpt lat="45.6519876" lon="9.8792869"><ele>365.6666666666667</ele><time>2026-05-02T08:15:00.802Z</time></trkpt><trkpt lat="45.6520796" lon="9.8795182"><ele>374.0</ele><time>2026-05-02T08:15:01.802Z</time></trkpt><trkpt lat="45.6521395" lon="9.8797594"><ele>374.0</ele><time>2026-05-02T08:15:02.802Z</time></trkpt><trkpt lat="45.6521599" lon="9.8800059"><ele>374.0</ele><time>2026-05-02T08:15:03.802Z</time></trkpt><trkpt lat="45.6521465" lon="9.8802577"><ele>374.0</ele><time>2026-05-02T08:15:04.802Z</time></trkpt><trkpt lat="45.6521109" lon="9.880509"><ele>375.0</ele><time>2026-05-02T08:15:05.802Z</time></trkpt><trkpt lat="45.6520921" lon="9.8807688"><ele>376.0</ele><time>2026-05-02T08:15:06.802Z</time></trkpt><trkpt lat="45.6521087" lon="9.8810271"><ele>377.0</ele><time>2026-05-02T08:15:07.802Z</time></trkpt><trkpt lat="45.652147" lon="9.8812771"><ele>377.33333333333337</ele><time>2026-05-02T08:15:08.802Z</time></trkpt><trkpt lat="45.6522085" lon="9.8815033"><ele>377.6666666666667</ele><time>2026-05-02T08:15:09.802Z</time></trkpt><trkpt lat="45.6523113" lon="9.8816679"><ele>378.0</ele><time>2026-05-02T08:15:10.802Z</time></trkpt><trkpt lat="45.6524099" lon="9.8818035"><ele>380.0</ele><time>2026-05-02T08:15:11.802Z</time></trkpt><trkpt lat="45.6524721" lon="9.8819393"><ele>382.0</ele><time>2026-05-02T08:15:12.802Z</time></trkpt><trkpt lat="45.6524875" lon="9.8820887"><ele>384.0</ele><time>2026-05-02T08:15:13.802Z</time></trkpt><trkpt lat="45.6524557" lon="9.8822513"><ele>386.0</ele><time>2026-05-02T08:15:14.802Z</time></trkpt><trkpt lat="45.6523852" lon="9.8824452"><ele>388.0</ele><time>2026-05-02T08:15:15.802Z</time></trkpt><trkpt lat="45.6523339" lon="9.8826397"><ele>390.0</ele><time>2026-05-02T08:15:16.802Z</time></trkpt><trkpt lat="45.652318" lon="9.8828635"><ele>392.0</ele><time>2026-05-02T08:15:17.802Z</time></trkpt><trkpt lat="45.6523292" lon="9.8831119"><ele>392.0</ele><time>2026-05-02T08:15:18.802Z</time></trkpt><trkpt lat="45.6523404" lon="9.8833898"><ele>392.0</ele><time>2026-05-02T08:15:19.802Z</time></trkpt><trkpt lat="45.6523423" lon="9.8836708"><ele>392.0</ele><time>2026-05-02T08:15:20.802Z</time></trkpt><trkpt lat="45.6523179" lon="9.8839491"><ele>394.0</ele><time>2026-05-02T08:15:21.802Z</time></trkpt><trkpt lat="45.6522822" lon="9.8842236"><ele>396.0</ele><time>2026-05-02T08:15:22.802Z</time></trkpt><trkpt lat="45.6522434" lon="9.8845057"><ele>398.0</ele><time>2026-05-02T08:15:23.802Z</time></trkpt><trkpt lat="45.6521941" lon="9.8847802"><ele>401.66666666666663</ele><time>2026-05-02T08:15:24.802Z</time></trkpt><trkpt lat="45.6521553" lon="9.8850292"><ele>405.33333333333337</ele><time>2026-05-02T08:15:25.802Z</time></trkpt><trkpt lat="45.6521109" lon="9.8852608"><ele>409.0</ele><time>2026-05-02T08:15:26.802Z</time></trkpt><trkpt lat="45.6520975" lon="9.8854849"><ele>410.0</ele><time>2026-05-02T08:15:27.802Z</time></trkpt><trkpt lat="45.6521115" lon="9.8856907"><ele>411.0</ele><time>2026-05-02T08:15:28.802Z</time></trkpt><trkpt lat="45.6521698" lon="9.8858735"><ele>412.0</ele><time>2026-05-02T08:15:29.802Z</time></trkpt><trkpt lat="45.6522552" lon="9.8860211"><ele>413.0</ele><time>2026-05-02T08:15:30.802Z</time></trkpt><trkpt lat="45.6523301" lon="9.8861737"><ele>414.25</ele><time>2026-05-02T08:15:31.802Z</time></trkpt><trkpt lat="45.6523848" lon="9.8863503"><ele>415.5</ele><time>2026-05-02T08:15:32.802Z</time></trkpt><trkpt lat="45.6524093" lon="9.8865445"><ele>416.75</ele><time>2026-05-02T08:15:33.802Z</time></trkpt><trkpt lat="45.6523781" lon="9.886777"><ele>418.0</ele><time>2026-05-02T08:15:34.802Z</time></trkpt><trkpt lat="45.6523535" lon="9.8870171"><ele>422.6666666666667</ele><time>2026-05-02T08:15:35.802Z</time></trkpt><trkpt lat="45.6523348" lon="9.8872545"><ele>427.33333333333337</ele><time>2026-05-02T08:15:36.802Z</time></trkpt><trkpt lat="45.6523109" lon="9.8874954"><ele>432.0</ele><time>2026-05-02T08:15:37.802Z</time></trkpt><trkpt lat="45.6522904" lon="9.8877002"><ele>431.25</ele><time>2026-05-02T08:15:38.802Z</time></trkpt><trkpt lat="45.6522508" lon="9.8878843"><ele>430.5</ele><time>2026-05-02T08:15:39.802Z</time></trkpt><trkpt lat="45.652174" lon="9.8880442"><ele>429.75</ele><time>2026-05-02T08:15:40.802Z</time></trkpt><trkpt lat="45.6520531" lon="9.888161"><ele>429.0</ele><time>2026-05-02T08:15:41.802Z</time></trkpt><trkpt lat="45.6519113" lon="9.88827"><ele>429.0</ele><time>2026-05-02T08:15:42.802Z</time></trkpt><trkpt lat="45.6517574" lon="9.8883735"><ele>429.0</ele><time>2026-05-02T08:15:43.802Z</time></trkpt><trkpt lat="45.6516111" lon="9.8884371"><ele>429.0</ele><time>2026-05-02T08:15:44.802Z</time></trkpt><trkpt lat="45.6514555" lon="9.8884694"><ele>429.0</ele><time>2026-05-02T08:15:45.802Z</time></trkpt><trkpt lat="45.6512975" lon="9.8884759"><ele>429.0</ele><time>2026-05-02T08:15:46.802Z</time></trkpt><trkpt lat="45.6511515" lon="9.8884707"><ele>429.0</ele><time>2026-05-02T08:15:47.802Z</time></trkpt><trkpt lat="45.6510133" lon="9.8884847"><ele>429.0</ele><time>2026-05-02T08:15:48.802Z</time></trkpt><trkpt lat="45.6508889" lon="9.888516"><ele>429.0</ele><time>2026-05-02T08:15:49.802Z</time></trkpt><trkpt lat="45.6507877" lon="9.8885684"><ele>429.0</ele><time>2026-05-02T08:15:50.802Z</time></trkpt><trkpt lat="45.6507088" lon="9.8886306"><ele>429.0</ele><time>2026-05-02T08:15:51.802Z</time></trkpt><trkpt lat="45.6506559" lon="9.8887269"><ele>429.0</ele><time>2026-05-02T08:15:52.802Z</time></trkpt><trkpt lat="45.6506395" lon="9.8888199"><ele>429.0</ele><time>2026-05-02T08:15:53.802Z</time></trkpt><trkpt lat="45.6506599" lon="9.8889397"><ele>429.0</ele><time>2026-05-02T08:15:54.802Z</time></trkpt><trkpt lat="45.6507204" lon="9.8890599"><ele>429.0</ele><time>2026-05-02T08:15:55.802Z</time></trkpt><trkpt lat="45.6508137" lon="9.8891775"><ele>429.0</ele><time>2026-05-02T08:15:56.802Z</time></trkpt><trkpt lat="45.6509496" lon="9.8892872"><ele>429.0</ele><time>2026-05-02T08:15:57.802Z</time></trkpt><trkpt lat="45.6510969" lon="9.889396"><ele>429.0</ele><time>2026-05-02T08:15:58.803Z</time></trkpt><trkpt lat="45.6512383" lon="9.8895143"><ele>436.66666666666663</ele><time>2026-05-02T08:15:59.802Z</time></trkpt><trkpt lat="45.651382" lon="9.8896372"><ele>444.3333333333333</ele><time>2026-05-02T08:16:00.802Z</time></trkpt><trkpt lat="45.6515041" lon="9.889763"><ele>452.0</ele><time>2026-05-02T08:16:01.802Z</time></trkpt><trkpt lat="45.6516178" lon="9.8899036"><ele>452.0</ele><time>2026-05-02T08:16:02.802Z</time></trkpt><trkpt lat="45.6517225" lon="9.8900507"><ele>452.0</ele><time>2026-05-02T08:16:03.802Z</time></trkpt><trkpt lat="45.6518175" lon="9.8902159"><ele>452.0</ele><time>2026-05-02T08:16:04.802Z</time></trkpt><trkpt lat="45.6519179" lon="9.8903884"><ele>454.66666666666663</ele><time>2026-05-02T08:16:05.802Z</time></trkpt><trkpt lat="45.6520223" lon="9.8905694"><ele>457.33333333333337</ele><time>2026-05-02T08:16:06.802Z</time></trkpt><trkpt lat="45.6521296" lon="9.890758"><ele>460.0</ele><time>2026-05-02T08:16:07.802Z</time></trkpt><trkpt lat="45.6522373" lon="9.8909492"><ele>460.0</ele><time>2026-05-02T08:16:08.802Z</time></trkpt><trkpt lat="45.652335" lon="9.8911511"><ele>460.0</ele><time>2026-05-02T08:16:09.802Z</time></trkpt><trkpt lat="45.6524187" lon="9.8913658"><ele>460.0</ele><time>2026-05-02T08:16:10.802Z</time></trkpt><trkpt lat="45.6525043" lon="9.8916073"><ele>459.0</ele><time>2026-05-02T08:16:11.802Z</time></trkpt><trkpt lat="45.6525827" lon="9.8918892"><ele>458.0</ele><time>2026-05-02T08:16:12.802Z</time></trkpt><trkpt lat="45.6526636" lon="9.892158"><ele>457.0</ele><time>2026-05-02T08:16:13.802Z</time></trkpt><trkpt lat="45.6527484" lon="9.8924198"><ele>464.0</ele><time>2026-05-02T08:16:14.802Z</time></trkpt><trkpt lat="45.6528365" lon="9.8926721"><ele>471.0</ele><time>2026-05-02T08:16:15.802Z</time></trkpt><trkpt lat="45.6529309" lon="9.8929224"><ele>478.0</ele><time>2026-05-02T08:16:16.802Z</time></trkpt><trkpt lat="45.6530182" lon="9.893171"><ele>478.0</ele><time>2026-05-02T08:16:17.802Z</time></trkpt><trkpt lat="45.6530994" lon="9.8934183"><ele>478.0</ele><time>2026-05-02T08:16:18.802Z</time></trkpt><trkpt lat="45.6531741" lon="9.8936641"><ele>478.0</ele><time>2026-05-02T08:16:19.802Z</time></trkpt><trkpt lat="45.6532413" lon="9.8938898"><ele>475.25</ele><time>2026-05-02T08:16:20.802Z</time></trkpt><trkpt lat="45.6533228" lon="9.8940727"><ele>472.5</ele><time>2026-05-02T08:16:21.802Z</time></trkpt><trkpt lat="45.6534096" lon="9.8942157"><ele>469.75</ele><time>2026-05-02T08:16:22.802Z</time></trkpt><trkpt lat="45.6534989" lon="9.8943172"><ele>467.0</ele><time>2026-05-02T08:16:23.802Z</time></trkpt><trkpt lat="45.6535859" lon="9.894382"><ele>466.40000000000003</ele><time>2026-05-02T08:16:24.802Z</time></trkpt><trkpt lat="45.6536503" lon="9.8944578"><ele>465.80000000000007</ele><time>2026-05-02T08:16:25.802Z</time></trkpt><trkpt lat="45.6536998" lon="9.8945523"><ele>465.2</ele><time>2026-05-02T08:16:26.802Z</time></trkpt><trkpt lat="45.6537291" lon="9.8946757"><ele>464.6</ele><time>2026-05-02T08:16:27.802Z</time></trkpt><trkpt lat="45.6537356" lon="9.8948277"><ele>464.0</ele><time>2026-05-02T08:16:28.802Z</time></trkpt><trkpt lat="45.6537299" lon="9.8950106"><ele>464.25</ele><time>2026-05-02T08:16:29.802Z</time></trkpt><trkpt lat="45.6537367" lon="9.8951979"><ele>464.5</ele><time>2026-05-02T08:16:30.802Z</time></trkpt><trkpt lat="45.6537545" lon="9.8953817"><ele>464.75</ele><time>2026-05-02T08:16:31.802Z</time></trkpt><trkpt lat="45.6537772" lon="9.8955607"><ele>465.0</ele><time>2026-05-02T08:16:32.802Z</time></trkpt><trkpt lat="45.6537962" lon="9.8957248"><ele>465.0</ele><time>2026-05-02T08:16:33.802Z</time></trkpt><trkpt lat="45.6538174" lon="9.8958672"><ele>465.0</ele><time>2026-05-02T08:16:34.802Z</time></trkpt><trkpt lat="45.6538439" lon="9.8959675"><ele>465.0</ele><time>2026-05-02T08:16:35.802Z</time></trkpt><trkpt lat="45.6539503" lon="9.8959837"><ele>465.0</ele><time>2026-05-02T08:16:37.802Z</time></trkpt><trkpt lat="45.6539881" lon="9.8958429"><ele>465.0</ele><time>2026-05-02T08:16:38.802Z</time></trkpt><trkpt lat="45.6540099" lon="9.8956799"><ele>465.0</ele><time>2026-05-02T08:16:39.802Z</time></trkpt><trkpt lat="45.6540359" lon="9.8955029"><ele>465.0</ele><time>2026-05-02T08:16:40.802Z</time></trkpt><trkpt lat="45.6540802" lon="9.8953031"><ele>465.0</ele><time>2026-05-02T08:16:41.802Z</time></trkpt><trkpt lat="45.6541499" lon="9.8950674"><ele>464.66666666666663</ele><time>2026-05-02T08:16:42.802Z</time></trkpt><trkpt lat="45.6542399" lon="9.8948486"><ele>464.3333333333333</ele><time>2026-05-02T08:16:43.802Z</time></trkpt><trkpt lat="45.6543401" lon="9.8946653"><ele>464.0</ele><time>2026-05-02T08:16:44.802Z</time></trkpt><trkpt lat="45.6544579" lon="9.8945162"><ele>457.3333333333333</ele><time>2026-05-02T08:16:45.802Z</time></trkpt><trkpt lat="45.6545916" lon="9.8944052"><ele>450.66666666666663</ele><time>2026-05-02T08:16:46.802Z</time></trkpt><trkpt lat="45.6547421" lon="9.8943226"><ele>444.0</ele><time>2026-05-02T08:16:47.802Z</time></trkpt><trkpt lat="45.6549029" lon="9.8942825"><ele>444.0</ele><time>2026-05-02T08:16:48.802Z</time></trkpt><trkpt lat="45.6550751" lon="9.8942705"><ele>444.0</ele><time>2026-05-02T08:16:49.802Z</time></trkpt><trkpt lat="45.6552611" lon="9.8942744"><ele>444.0</ele><time>2026-05-02T08:16:50.802Z</time></trkpt><trkpt lat="45.6554476" lon="9.8942862"><ele>441.66666666666663</ele><time>2026-05-02T08:16:51.802Z</time></trkpt><trkpt lat="45.6556335" lon="9.8942998"><ele>439.3333333333333</ele><time>2026-05-02T08:16:52.802Z</time></trkpt><trkpt lat="45.6558166" lon="9.8943089"><ele>437.0</ele><time>2026-05-02T08:16:53.802Z</time></trkpt><trkpt lat="45.6559947" lon="9.8943055"><ele>432.66666666666663</ele><time>2026-05-02T08:16:54.802Z</time></trkpt><trkpt lat="45.6561693" lon="9.894279"><ele>428.33333333333337</ele><time>2026-05-02T08:16:55.802Z</time></trkpt><trkpt lat="45.6563316" lon="9.8942143"><ele>424.0</ele><time>2026-05-02T08:16:56.802Z</time></trkpt><trkpt lat="45.6564835" lon="9.8941225"><ele>424.0</ele><time>2026-05-02T08:16:57.802Z</time></trkpt><trkpt lat="45.6566209" lon="9.8939998"><ele>424.0</ele><time>2026-05-02T08:16:58.802Z</time></trkpt><trkpt lat="45.6567416" lon="9.8938574"><ele>424.0</ele><time>2026-05-02T08:16:59.802Z</time></trkpt><trkpt lat="45.656852" lon="9.8937413"><ele>421.5</ele><time>2026-05-02T08:17:00.802Z</time></trkpt><trkpt lat="45.6569693" lon="9.8936996"><ele>419.0</ele><time>2026-05-02T08:17:01.802Z</time></trkpt><trkpt lat="45.6570948" lon="9.8937369"><ele>416.5</ele><time>2026-05-02T08:17:02.802Z</time></trkpt><trkpt lat="45.6572159" lon="9.8938247"><ele>414.0</ele><time>2026-05-02T08:17:03.802Z</time></trkpt><trkpt lat="45.6573381" lon="9.8939169"><ele>414.0</ele><time>2026-05-02T08:17:04.802Z</time></trkpt><trkpt lat="45.6574608" lon="9.8939697"><ele>414.0</ele><time>2026-05-02T08:17:05.802Z</time></trkpt><trkpt lat="45.6575814" lon="9.8939656"><ele>414.0</ele><time>2026-05-02T08:17:06.802Z</time></trkpt><trkpt lat="45.6576977" lon="9.8939096"><ele>414.0</ele><time>2026-05-02T08:17:07.802Z</time></trkpt><trkpt lat="45.6578065" lon="9.8938108"><ele>413.25</ele><time>2026-05-02T08:17:08.802Z</time></trkpt><trkpt lat="45.6579027" lon="9.8936671"><ele>412.5</ele><time>2026-05-02T08:17:09.802Z</time></trkpt><trkpt lat="45.6580044" lon="9.8935049"><ele>411.75</ele><time>2026-05-02T08:17:10.802Z</time></trkpt><trkpt lat="45.65811" lon="9.8933796"><ele>411.0</ele><time>2026-05-02T08:17:11.802Z</time></trkpt><trkpt lat="45.6582412" lon="9.8933055"><ele>411.0</ele><time>2026-05-02T08:17:12.802Z</time></trkpt><trkpt lat="45.6583862" lon="9.8932702"><ele>411.0</ele><time>2026-05-02T08:17:13.802Z</time></trkpt><trkpt lat="45.6585328" lon="9.8932458"><ele>411.0</ele><time>2026-05-02T08:17:14.802Z</time></trkpt><trkpt lat="45.6586767" lon="9.8932052"><ele>411.0</ele><time>2026-05-02T08:17:15.802Z</time></trkpt><trkpt lat="45.6588154" lon="9.8931272"><ele>409.5</ele><time>2026-05-02T08:17:16.802Z</time></trkpt><trkpt lat="45.6589468" lon="9.8930205"><ele>408.0</ele><time>2026-05-02T08:17:17.802Z</time></trkpt><trkpt lat="45.6590624" lon="9.8928784"><ele>406.5</ele><time>2026-05-02T08:17:18.802Z</time></trkpt><trkpt lat="45.6591465" lon="9.892715"><ele>405.0</ele><time>2026-05-02T08:17:19.802Z</time></trkpt><trkpt lat="45.6592254" lon="9.8925591"><ele>405.0</ele><time>2026-05-02T08:17:20.802Z</time></trkpt><trkpt lat="45.6593232" lon="9.8924257"><ele>405.0</ele><time>2026-05-02T08:17:21.802Z</time></trkpt><trkpt lat="45.6594468" lon="9.892359"><ele>405.0</ele><time>2026-05-02T08:17:22.802Z</time></trkpt><trkpt lat="45.6595677" lon="9.8923227"><ele>405.0</ele><time>2026-05-02T08:17:23.802Z</time></trkpt><trkpt lat="45.6596815" lon="9.8922675"><ele>400.0</ele><time>2026-05-02T08:17:24.802Z</time></trkpt><trkpt lat="45.6597808" lon="9.8921742"><ele>395.0</ele><time>2026-05-02T08:17:25.802Z</time></trkpt><trkpt lat="45.6598543" lon="9.8920498"><ele>390.0</ele><time>2026-05-02T08:17:26.802Z</time></trkpt><trkpt lat="45.6599152" lon="9.8919045"><ele>385.0</ele><time>2026-05-02T08:17:27.802Z</time></trkpt><trkpt lat="45.6599908" lon="9.8917751"><ele>385.5</ele><time>2026-05-02T08:17:28.802Z</time></trkpt><trkpt lat="45.6600945" lon="9.8916918"><ele>386.0</ele><time>2026-05-02T08:17:29.802Z</time></trkpt><trkpt lat="45.6602062" lon="9.8916375"><ele>386.5</ele><time>2026-05-02T08:17:30.802Z</time></trkpt><trkpt lat="45.6603224" lon="9.8915853"><ele>387.0</ele><time>2026-05-02T08:17:31.802Z</time></trkpt><trkpt lat="45.6604401" lon="9.8915413"><ele>387.0</ele><time>2026-05-02T08:17:32.802Z</time></trkpt><trkpt lat="45.6605684" lon="9.8915078"><ele>387.0</ele><time>2026-05-02T08:17:33.802Z</time></trkpt><trkpt lat="45.66069" lon="9.8915203"><ele>387.0</ele><time>2026-05-02T08:17:34.802Z</time></trkpt><trkpt lat="45.6608055" lon="9.8915671"><ele>387.0</ele><time>2026-05-02T08:17:35.802Z</time></trkpt><trkpt lat="45.6609263" lon="9.8915992"><ele>387.0</ele><time>2026-05-02T08:17:36.802Z</time></trkpt><trkpt lat="45.6610325" lon="9.891598"><ele>387.0</ele><time>2026-05-02T08:17:37.802Z</time></trkpt><trkpt lat="45.661133" lon="9.8915526"><ele>387.0</ele><time>2026-05-02T08:17:38.802Z</time></trkpt><trkpt lat="45.6612223" lon="9.891466"><ele>387.0</ele><time>2026-05-02T08:17:39.802Z</time></trkpt><trkpt lat="45.6613202" lon="9.8913702"><ele>387.0</ele><time>2026-05-02T08:17:40.802Z</time></trkpt><trkpt lat="45.6614288" lon="9.8912859"><ele>384.25</ele><time>2026-05-02T08:17:41.802Z</time></trkpt><trkpt lat="45.661543" lon="9.8912246"><ele>381.5</ele><time>2026-05-02T08:17:42.802Z</time></trkpt><trkpt lat="45.6616557" lon="9.8911586"><ele>378.75</ele><time>2026-05-02T08:17:43.802Z</time></trkpt><trkpt lat="45.6617694" lon="9.8910797"><ele>376.0</ele><time>2026-05-02T08:17:44.802Z</time></trkpt><trkpt lat="45.6618787" lon="9.8909919"><ele>375.25</ele><time>2026-05-02T08:17:45.802Z</time></trkpt><trkpt lat="45.6619894" lon="9.8909126"><ele>374.5</ele><time>2026-05-02T08:17:46.802Z</time></trkpt><trkpt lat="45.6620957" lon="9.8908281"><ele>373.75</ele><time>2026-05-02T08:17:47.802Z</time></trkpt><trkpt lat="45.6621852" lon="9.8907157"><ele>373.0</ele><time>2026-05-02T08:17:48.802Z</time></trkpt><trkpt lat="45.6622563" lon="9.8905884"><ele>373.0</ele><time>2026-05-02T08:17:49.802Z</time></trkpt><trkpt lat="45.6623294" lon="9.8904534"><ele>373.0</ele><time>2026-05-02T08:17:50.802Z</time></trkpt><trkpt lat="45.6624048" lon="9.8903435"><ele>373.0</ele><time>2026-05-02T08:17:51.802Z</time></trkpt><trkpt lat="45.6624824" lon="9.8902533"><ele>373.0</ele><time>2026-05-02T08:17:52.802Z</time></trkpt><trkpt lat="45.6625944" lon="9.8902165"><ele>373.0</ele><time>2026-05-02T08:17:53.802Z</time></trkpt><trkpt lat="45.6627057" lon="9.8902155"><ele>371.0</ele><time>2026-05-02T08:17:54.802Z</time></trkpt><trkpt lat="45.6628116" lon="9.8902338"><ele>369.0</ele><time>2026-05-02T08:17:55.802Z</time></trkpt><trkpt lat="45.6629153" lon="9.8902632"><ele>367.0</ele><time>2026-05-02T08:17:56.802Z</time></trkpt><trkpt lat="45.6630195" lon="9.8902886"><ele>365.0</ele><time>2026-05-02T08:17:57.802Z</time></trkpt><trkpt lat="45.6631214" lon="9.890289"><ele>363.0</ele><time>2026-05-02T08:17:58.802Z</time></trkpt><trkpt lat="45.663232" lon="9.890275"><ele>363.0</ele><time>2026-05-02T08:17:59.802Z</time></trkpt><trkpt lat="45.6633376" lon="9.8902662"><ele>363.0</ele><time>2026-05-02T08:18:00.802Z</time></trkpt><trkpt lat="45.6634451" lon="9.8902798"><ele>363.0</ele><time>2026-05-02T08:18:01.802Z</time></trkpt><trkpt lat="45.6635291" lon="9.8903198"><ele>363.0</ele><time>2026-05-02T08:18:02.802Z</time></trkpt><trkpt lat="45.6635885" lon="9.8903545"><ele>363.0</ele><time>2026-05-02T08:18:03.802Z</time></trkpt><trkpt lat="45.6636752" lon="9.8904061"><ele>362.2</ele><time>2026-05-02T08:18:05.802Z</time></trkpt><trkpt lat="45.6637374" lon="9.8904486"><ele>361.4</ele><time>2026-05-02T08:18:08.802Z</time></trkpt><trkpt lat="45.6638131" lon="9.8905463"><ele>360.59999999999997</ele><time>2026-05-02T08:18:11.802Z</time></trkpt><trkpt lat="45.6639305" lon="9.8906494"><ele>359.79999999999995</ele><time>2026-05-02T08:18:13.802Z</time></trkpt><trkpt lat="45.6639997" lon="9.8907053"><ele>359.0</ele><time>2026-05-02T08:18:14.802Z</time></trkpt><trkpt lat="45.6640774" lon="9.8907713"><ele>359.0</ele><time>2026-05-02T08:18:15.802Z</time></trkpt><trkpt lat="45.6641645" lon="9.8908554"><ele>359.0</ele><time>2026-05-02T08:18:16.802Z</time></trkpt><trkpt lat="45.664253" lon="9.8909525"><ele>359.0</ele><time>2026-05-02T08:18:17.802Z</time></trkpt><trkpt lat="45.6643333" lon="9.8910659"><ele>359.0</ele><time>2026-05-02T08:18:18.802Z</time></trkpt><trkpt lat="45.664408" lon="9.8911888"><ele>359.0</ele><time>2026-05-02T08:18:19.802Z</time></trkpt><trkpt lat="45.6644834" lon="9.8913149"><ele>356.25</ele><time>2026-05-02T08:18:20.802Z</time></trkpt><trkpt lat="45.6645472" lon="9.8914513"><ele>353.5</ele><time>2026-05-02T08:18:21.802Z</time></trkpt><trkpt lat="45.6645951" lon="9.8916077"><ele>350.75</ele><time>2026-05-02T08:18:22.802Z</time></trkpt><trkpt lat="45.6646367" lon="9.8917672"><ele>348.0</ele><time>2026-05-02T08:18:23.802Z</time></trkpt><trkpt lat="45.6646846" lon="9.8919307"><ele>344.75</ele><time>2026-05-02T08:18:24.802Z</time></trkpt><trkpt lat="45.66475" lon="9.8920818"><ele>341.5</ele><time>2026-05-02T08:18:25.802Z</time></trkpt><trkpt lat="45.6648132" lon="9.892246"><ele>338.25</ele><time>2026-05-02T08:18:26.802Z</time></trkpt><trkpt lat="45.6648674" lon="9.8924151"><ele>335.0</ele><time>2026-05-02T08:18:27.802Z</time></trkpt><trkpt lat="45.6648949" lon="9.8925952"><ele>332.25</ele><time>2026-05-02T08:18:28.802Z</time></trkpt><trkpt lat="45.6648825" lon="9.8927789"><ele>329.5</ele><time>2026-05-02T08:18:29.802Z</time></trkpt><trkpt lat="45.664842" lon="9.8929608"><ele>326.75</ele><time>2026-05-02T08:18:30.802Z</time></trkpt><trkpt lat="45.664797" lon="9.8931503"><ele>324.0</ele><time>2026-05-02T08:18:31.802Z</time></trkpt><trkpt lat="45.6647543" lon="9.8933431"><ele>321.25</ele><time>2026-05-02T08:18:32.802Z</time></trkpt><trkpt lat="45.6647078" lon="9.8935328"><ele>318.5</ele><time>2026-05-02T08:18:33.802Z</time></trkpt><trkpt lat="45.6646642" lon="9.8937136"><ele>315.75</ele><time>2026-05-02T08:18:34.802Z</time></trkpt><trkpt lat="45.6646232" lon="9.8938944"><ele>313.0</ele><time>2026-05-02T08:18:35.802Z</time></trkpt><trkpt lat="45.6645833" lon="9.8940754"><ele>313.0</ele><time>2026-05-02T08:18:36.802Z</time></trkpt><trkpt lat="45.6645526" lon="9.8942545"><ele>313.0</ele><time>2026-05-02T08:18:37.802Z</time></trkpt><trkpt lat="45.6645349" lon="9.8944368"><ele>313.0</ele><time>2026-05-02T08:18:38.802Z</time></trkpt><trkpt lat="45.6645409" lon="9.8946152"><ele>313.0</ele><time>2026-05-02T08:18:39.802Z</time></trkpt><trkpt lat="45.6645602" lon="9.8947987"><ele>311.75</ele><time>2026-05-02T08:18:40.802Z</time></trkpt><trkpt lat="45.6645784" lon="9.8949903"><ele>310.5</ele><time>2026-05-02T08:18:41.802Z</time></trkpt><trkpt lat="45.6645992" lon="9.8951824"><ele>309.25</ele><time>2026-05-02T08:18:42.802Z</time></trkpt><trkpt lat="45.6646065" lon="9.8953853"><ele>308.0</ele><time>2026-05-02T08:18:43.802Z</time></trkpt><trkpt lat="45.6646105" lon="9.8955972"><ele>306.0</ele><time>2026-05-02T08:18:44.802Z</time></trkpt><trkpt lat="45.6645964" lon="9.8958133"><ele>304.0</ele><time>2026-05-02T08:18:45.802Z</time></trkpt><trkpt lat="45.6645859" lon="9.8960275"><ele>302.0</ele><time>2026-05-02T08:18:46.802Z</time></trkpt><trkpt lat="45.664588" lon="9.896245"><ele>300.0</ele><time>2026-05-02T08:18:47.802Z</time></trkpt><trkpt lat="45.6646098" lon="9.8964544"><ele>298.0</ele><time>2026-05-02T08:18:48.802Z</time></trkpt><trkpt lat="45.6646394" lon="9.8966648"><ele>296.0</ele><time>2026-05-02T08:18:49.802Z</time></trkpt><trkpt lat="45.6646687" lon="9.8968664"><ele>294.0</ele><time>2026-05-02T08:18:50.802Z</time></trkpt><trkpt lat="45.664699" lon="9.8970625"><ele>291.5</ele><time>2026-05-02T08:18:51.802Z</time></trkpt><trkpt lat="45.6647255" lon="9.8972552"><ele>289.0</ele><time>2026-05-02T08:18:52.802Z</time></trkpt><trkpt lat="45.6647359" lon="9.8974589"><ele>286.5</ele><time>2026-05-02T08:18:53.802Z</time></trkpt><trkpt lat="45.6647173" lon="9.8976582"><ele>284.0</ele><time>2026-05-02T08:18:54.802Z</time></trkpt><trkpt lat="45.6646773" lon="9.8978393"><ele>281.75</ele><time>2026-05-02T08:18:55.802Z</time></trkpt><trkpt lat="45.6646237" lon="9.8979993"><ele>279.5</ele><time>2026-05-02T08:18:56.802Z</time></trkpt><trkpt lat="45.6645544" lon="9.8981385"><ele>277.25</ele><time>2026-05-02T08:18:57.802Z</time></trkpt><trkpt lat="45.6644798" lon="9.8982762"><ele>275.0</ele><time>2026-05-02T08:18:58.802Z</time></trkpt><trkpt lat="45.6644239" lon="9.8984136"><ele>273.75</ele><time>2026-05-02T08:18:59.802Z</time></trkpt><trkpt lat="45.6643897" lon="9.898562"><ele>272.5</ele><time>2026-05-02T08:19:00.802Z</time></trkpt><trkpt lat="45.664399" lon="9.8987261"><ele>271.25</ele><time>2026-05-02T08:19:01.802Z</time></trkpt><trkpt lat="45.6644344" lon="9.8988945"><ele>270.0</ele><time>2026-05-02T08:19:02.802Z</time></trkpt><trkpt lat="45.6644813" lon="9.8990637"><ele>269.5</ele><time>2026-05-02T08:19:03.802Z</time></trkpt><trkpt lat="45.6645249" lon="9.8992306"><ele>269.0</ele><time>2026-05-02T08:19:04.802Z</time></trkpt><trkpt lat="45.6645511" lon="9.8993988"><ele>268.5</ele><time>2026-05-02T08:19:05.802Z</time></trkpt><trkpt lat="45.6645659" lon="9.8995682"><ele>268.0</ele><time>2026-05-02T08:19:06.802Z</time></trkpt><trkpt lat="45.6645642" lon="9.8997436"><ele>266.6</ele><time>2026-05-02T08:19:07.802Z</time></trkpt><trkpt lat="45.6645593" lon="9.8999095"><ele>265.20000000000005</ele><time>2026-05-02T08:19:08.802Z</time></trkpt><trkpt lat="45.6645589" lon="9.9000714"><ele>263.8</ele><time>2026-05-02T08:19:09.802Z</time></trkpt><trkpt lat="45.6645588" lon="9.900217"><ele>262.40000000000003</ele><time>2026-05-02T08:19:10.802Z</time></trkpt><trkpt lat="45.6645561" lon="9.9003524"><ele>261.0</ele><time>2026-05-02T08:19:11.802Z</time></trkpt><trkpt lat="45.6645574" lon="9.9004609"><ele>260.6666666666667</ele><time>2026-05-02T08:19:12.802Z</time></trkpt><trkpt lat="45.6645648" lon="9.9005566"><ele>260.3333333333333</ele><time>2026-05-02T08:19:13.802Z</time></trkpt><trkpt lat="45.6645796" lon="9.9007171"><ele>260.0</ele><time>2026-05-02T08:19:15.802Z</time></trkpt><trkpt lat="45.6645904" lon="9.9008136"><ele>259.66666666666663</ele><time>2026-05-02T08:19:17.802Z</time></trkpt><trkpt lat="45.6646078" lon="9.9009017"><ele>259.3333333333333</ele><time>2026-05-02T08:19:19.802Z</time></trkpt><trkpt lat="45.6646138" lon="9.9009982"><ele>259.0</ele><time>2026-05-02T08:19:21.802Z</time></trkpt><trkpt lat="45.6646179" lon="9.9011229"><ele>258.8333333333333</ele><time>2026-05-02T08:19:23.802Z</time></trkpt><trkpt lat="45.6646101" lon="9.9012182"><ele>258.66666666666663</ele><time>2026-05-02T08:19:24.802Z</time></trkpt><trkpt lat="45.6646056" lon="9.9013264"><ele>258.5</ele><time>2026-05-02T08:19:25.802Z</time></trkpt><trkpt lat="45.6646075" lon="9.9014512"><ele>258.3333333333333</ele><time>2026-05-02T08:19:26.802Z</time></trkpt><trkpt lat="45.664607" lon="9.9015967"><ele>258.1666666666667</ele><time>2026-05-02T08:19:27.802Z</time></trkpt><trkpt lat="45.6646129" lon="9.9017349"><ele>258.0</ele><time>2026-05-02T08:19:28.802Z</time></trkpt><trkpt lat="45.6646179" lon="9.9018578"><ele>257.1666666666667</ele><time>2026-05-02T08:19:29.802Z</time></trkpt><trkpt lat="45.6646286" lon="9.9019509"><ele>256.3333333333333</ele><time>2026-05-02T08:19:30.802Z</time></trkpt><trkpt lat="45.6646457" lon="9.9020419"><ele>255.5</ele><time>2026-05-02T08:19:32.802Z</time></trkpt><trkpt lat="45.6646713" lon="9.9021282"><ele>254.66666666666666</ele><time>2026-05-02T08:19:37.802Z</time></trkpt><trkpt lat="45.6646877" lon="9.9022789"><ele>253.83333333333331</ele><time>2026-05-02T08:19:39.802Z</time></trkpt><trkpt lat="45.664694" lon="9.9024024"><ele>253.0</ele><time>2026-05-02T08:19:40.802Z</time></trkpt><trkpt lat="45.6647128" lon="9.9025691"><ele>252.25</ele><time>2026-05-02T08:19:41.802Z</time></trkpt><trkpt lat="45.6647457" lon="9.9027783"><ele>251.5</ele><time>2026-05-02T08:19:42.802Z</time></trkpt><trkpt lat="45.6647795" lon="9.9029889"><ele>250.75</ele><time>2026-05-02T08:19:43.802Z</time></trkpt><trkpt lat="45.6648125" lon="9.9031881"><ele>250.0</ele><time>2026-05-02T08:19:44.802Z</time></trkpt><trkpt lat="45.6648394" lon="9.9033689"><ele>249.8</ele><time>2026-05-02T08:19:45.802Z</time></trkpt><trkpt lat="45.6648625" lon="9.9035354"><ele>249.6</ele><time>2026-05-02T08:19:46.802Z</time></trkpt><trkpt lat="45.6648777" lon="9.903692"><ele>249.39999999999998</ele><time>2026-05-02T08:19:47.802Z</time></trkpt><trkpt lat="45.6648852" lon="9.903847"><ele>249.2</ele><time>2026-05-02T08:19:48.802Z</time></trkpt><trkpt lat="45.66489" lon="9.9040031"><ele>249.0</ele><time>2026-05-02T08:19:49.802Z</time></trkpt><trkpt lat="45.6648904" lon="9.904166"><ele>249.0</ele><time>2026-05-02T08:19:50.803Z</time></trkpt><trkpt lat="45.6648885" lon="9.9043337"><ele>249.0</ele><time>2026-05-02T08:19:51.802Z</time></trkpt><trkpt lat="45.6648813" lon="9.9044942"><ele>249.0</ele><time>2026-05-02T08:19:52.802Z</time></trkpt><trkpt lat="45.6648726" lon="9.9046725"><ele>249.0</ele><time>2026-05-02T08:19:53.802Z</time></trkpt><trkpt lat="45.6648618" lon="9.9048541"><ele>249.0</ele><time>2026-05-02T08:19:54.802Z</time></trkpt><trkpt lat="45.6648431" lon="9.9050471"><ele>249.0</ele><time>2026-05-02T08:19:55.802Z</time></trkpt><trkpt lat="45.6648238" lon="9.9052389"><ele>249.0</ele><time>2026-05-02T08:19:56.802Z</time></trkpt><trkpt lat="45.66481" lon="9.9054291"><ele>249.0</ele><time>2026-05-02T08:19:57.802Z</time></trkpt><trkpt lat="45.664807" lon="9.9056089"><ele>248.5</ele><time>2026-05-02T08:19:58.802Z</time></trkpt><trkpt lat="45.6648121" lon="9.9058074"><ele>248.0</ele><time>2026-05-02T08:19:59.802Z</time></trkpt><trkpt lat="45.6648403" lon="9.9059973"><ele>247.5</ele><time>2026-05-02T08:20:00.802Z</time></trkpt><trkpt lat="45.6648923" lon="9.9061723"><ele>247.0</ele><time>2026-05-02T08:20:01.802Z</time></trkpt><trkpt lat="45.6649479" lon="9.906347"><ele>247.0</ele><time>2026-05-02T08:20:02.802Z</time></trkpt><trkpt lat="45.6650015" lon="9.9065389"><ele>247.0</ele><time>2026-05-02T08:20:03.802Z</time></trkpt><trkpt lat="45.665051" lon="9.9067292"><ele>247.0</ele><time>2026-05-02T08:20:04.802Z</time></trkpt><trkpt lat="45.6650905" lon="9.9069002"><ele>247.0</ele><time>2026-05-02T08:20:05.802Z</time></trkpt><trkpt lat="45.6651162" lon="9.9070636"><ele>247.0</ele><time>2026-05-02T08:20:06.802Z</time></trkpt><trkpt lat="45.6651273" lon="9.907229"><ele>247.0</ele><time>2026-05-02T08:20:07.802Z</time></trkpt><trkpt lat="45.6651484" lon="9.9073764"><ele>247.0</ele><time>2026-05-02T08:20:08.802Z</time></trkpt><trkpt lat="45.6651762" lon="9.9075105"><ele>247.0</ele><time>2026-05-02T08:20:09.802Z</time></trkpt><trkpt lat="45.6652042" lon="9.9076296"><ele>247.0</ele><time>2026-05-02T08:20:10.802Z</time></trkpt><trkpt lat="45.6652322" lon="9.9077365"><ele>247.2</ele><time>2026-05-02T08:20:11.802Z</time></trkpt><trkpt lat="45.6652551" lon="9.9078291"><ele>247.39999999999998</ele><time>2026-05-02T08:20:12.802Z</time></trkpt><trkpt lat="45.665288" lon="9.9079975"><ele>247.60000000000002</ele><time>2026-05-02T08:20:14.802Z</time></trkpt><trkpt lat="45.665309" lon="9.9081064"><ele>247.8</ele><time>2026-05-02T08:20:15.802Z</time></trkpt><trkpt lat="45.6653408" lon="9.9082423"><ele>248.0</ele><time>2026-05-02T08:20:16.802Z</time></trkpt><trkpt lat="45.6653916" lon="9.9084061"><ele>246.33333333333334</ele><time>2026-05-02T08:20:17.802Z</time></trkpt><trkpt lat="45.6654732" lon="9.9085793"><ele>244.66666666666669</ele><time>2026-05-02T08:20:18.802Z</time></trkpt><trkpt lat="45.6655686" lon="9.9087525"><ele>243.0</ele><time>2026-05-02T08:20:19.802Z</time></trkpt><trkpt lat="45.6656764" lon="9.9089255"><ele>243.0</ele><time>2026-05-02T08:20:20.802Z</time></trkpt><trkpt lat="45.665791" lon="9.909111"><ele>243.0</ele><time>2026-05-02T08:20:21.802Z</time></trkpt><trkpt lat="45.6659026" lon="9.9093042"><ele>243.0</ele><time>2026-05-02T08:20:22.802Z</time></trkpt><trkpt lat="45.6660128" lon="9.9094961"><ele>244.33333333333331</ele><time>2026-05-02T08:20:23.802Z</time></trkpt><trkpt lat="45.6661211" lon="9.9096878"><ele>245.66666666666666</ele><time>2026-05-02T08:20:24.802Z</time></trkpt><trkpt lat="45.6662245" lon="9.9098882"><ele>247.0</ele><time>2026-05-02T08:20:25.802Z</time></trkpt><trkpt lat="45.6663263" lon="9.9100983"><ele>247.66666666666666</ele><time>2026-05-02T08:20:26.802Z</time></trkpt><trkpt lat="45.6664285" lon="9.9103109"><ele>248.33333333333331</ele><time>2026-05-02T08:20:27.802Z</time></trkpt><trkpt lat="45.6665261" lon="9.9105213"><ele>249.0</ele><time>2026-05-02T08:20:28.802Z</time></trkpt><trkpt lat="45.6666162" lon="9.9107344"><ele>250.33333333333331</ele><time>2026-05-02T08:20:29.802Z</time></trkpt><trkpt lat="45.6667039" lon="9.9109429"><ele>251.66666666666666</ele><time>2026-05-02T08:20:30.802Z</time></trkpt><trkpt lat="45.6667845" lon="9.9111488"><ele>253.0</ele><time>2026-05-02T08:20:31.802Z</time></trkpt><trkpt lat="45.6668419" lon="9.9113657"><ele>253.0</ele><time>2026-05-02T08:20:32.802Z</time></trkpt><trkpt lat="45.6668849" lon="9.9115883"><ele>253.0</ele><time>2026-05-02T08:20:33.802Z</time></trkpt><trkpt lat="45.6669191" lon="9.9118045"><ele>253.0</ele><time>2026-05-02T08:20:34.802Z</time></trkpt><trkpt lat="45.6669494" lon="9.9120223"><ele>253.0</ele><time>2026-05-02T08:20:35.802Z</time></trkpt><trkpt lat="45.666969" lon="9.9122355"><ele>253.0</ele><time>2026-05-02T08:20:36.802Z</time></trkpt><trkpt lat="45.6669904" lon="9.9124461"><ele>253.0</ele><time>2026-05-02T08:20:37.802Z</time></trkpt><trkpt lat="45.6669942" lon="9.9126649"><ele>253.0</ele><time>2026-05-02T08:20:38.802Z</time></trkpt><trkpt lat="45.6670036" lon="9.9128786"><ele>253.0</ele><time>2026-05-02T08:20:39.802Z</time></trkpt><trkpt lat="45.6670032" lon="9.9130916"><ele>253.0</ele><time>2026-05-02T08:20:40.802Z</time></trkpt><trkpt lat="45.6669964" lon="9.9133195"><ele>252.33333333333331</ele><time>2026-05-02T08:20:41.802Z</time></trkpt><trkpt lat="45.6670032" lon="9.9135381"><ele>251.66666666666669</ele><time>2026-05-02T08:20:42.802Z</time></trkpt><trkpt lat="45.6670138" lon="9.9137633"><ele>251.0</ele><time>2026-05-02T08:20:43.802Z</time></trkpt><trkpt lat="45.6670261" lon="9.9139884"><ele>251.0</ele><time>2026-05-02T08:20:44.802Z</time></trkpt><trkpt lat="45.6670402" lon="9.914212"><ele>251.0</ele><time>2026-05-02T08:20:45.802Z</time></trkpt><trkpt lat="45.6670529" lon="9.914419"><ele>251.0</ele><time>2026-05-02T08:20:46.802Z</time></trkpt><trkpt lat="45.6670737" lon="9.9146253"><ele>251.0</ele><time>2026-05-02T08:20:47.802Z</time></trkpt><trkpt lat="45.667103" lon="9.9148231"><ele>249.75</ele><time>2026-05-02T08:20:48.802Z</time></trkpt><trkpt lat="45.6671086" lon="9.9150122"><ele>248.5</ele><time>2026-05-02T08:20:49.802Z</time></trkpt><trkpt lat="45.6670957" lon="9.9151937"><ele>247.25</ele><time>2026-05-02T08:20:50.802Z</time></trkpt><trkpt lat="45.6670525" lon="9.9153672"><ele>246.0</ele><time>2026-05-02T08:20:51.802Z</time></trkpt><trkpt lat="45.666991" lon="9.9155203"><ele>244.5</ele><time>2026-05-02T08:20:52.802Z</time></trkpt><trkpt lat="45.666936" lon="9.915655"><ele>243.0</ele><time>2026-05-02T08:20:53.802Z</time></trkpt><trkpt lat="45.6668861" lon="9.9157954"><ele>241.5</ele><time>2026-05-02T08:20:54.802Z</time></trkpt><trkpt lat="45.6668547" lon="9.9159572"><ele>240.0</ele><time>2026-05-02T08:20:55.802Z</time></trkpt><trkpt lat="45.6668422" lon="9.9161292"><ele>239.75</ele><time>2026-05-02T08:20:56.802Z</time></trkpt><trkpt lat="45.6668488" lon="9.9163063"><ele>239.5</ele><time>2026-05-02T08:20:57.802Z</time></trkpt><trkpt lat="45.6668751" lon="9.9164782"><ele>239.25</ele><time>2026-05-02T08:20:58.802Z</time></trkpt><trkpt lat="45.6669135" lon="9.9166626"><ele>239.0</ele><time>2026-05-02T08:20:59.802Z</time></trkpt><trkpt lat="45.6669504" lon="9.9168429"><ele>238.5</ele><time>2026-05-02T08:21:00.802Z</time></trkpt><trkpt lat="45.6669921" lon="9.9170243"><ele>238.0</ele><time>2026-05-02T08:21:01.802Z</time></trkpt><trkpt lat="45.6670322" lon="9.9172025"><ele>237.5</ele><time>2026-05-02T08:21:02.802Z</time></trkpt><trkpt lat="45.6670689" lon="9.9173872"><ele>237.0</ele><time>2026-05-02T08:21:03.802Z</time></trkpt><trkpt lat="45.6671069" lon="9.9175741"><ele>236.5</ele><time>2026-05-02T08:21:04.802Z</time></trkpt><trkpt lat="45.6671386" lon="9.9177614"><ele>236.0</ele><time>2026-05-02T08:21:05.802Z</time></trkpt><trkpt lat="45.667159" lon="9.9179501"><ele>235.5</ele><time>2026-05-02T08:21:06.802Z</time></trkpt><trkpt lat="45.6671643" lon="9.9181425"><ele>235.0</ele><time>2026-05-02T08:21:07.802Z</time></trkpt><trkpt lat="45.6671412" lon="9.9183196"><ele>234.5</ele><time>2026-05-02T08:21:08.802Z</time></trkpt><trkpt lat="45.6670972" lon="9.9184969"><ele>234.0</ele><time>2026-05-02T08:21:09.802Z</time></trkpt><trkpt lat="45.6670389" lon="9.9186703"><ele>233.5</ele><time>2026-05-02T08:21:10.802Z</time></trkpt><trkpt lat="45.6669795" lon="9.9188524"><ele>233.0</ele><time>2026-05-02T08:21:11.802Z</time></trkpt><trkpt lat="45.6669248" lon="9.919038"><ele>232.0</ele><time>2026-05-02T08:21:12.802Z</time></trkpt><trkpt lat="45.6668778" lon="9.9192345"><ele>231.0</ele><time>2026-05-02T08:21:13.802Z</time></trkpt><trkpt lat="45.6668345" lon="9.9194413"><ele>230.0</ele><time>2026-05-02T08:21:14.802Z</time></trkpt><trkpt lat="45.6668147" lon="9.919633"><ele>229.0</ele><time>2026-05-02T08:21:15.802Z</time></trkpt><trkpt lat="45.666806" lon="9.9198107"><ele>229.0</ele><time>2026-05-02T08:21:16.802Z</time></trkpt><trkpt lat="45.6667994" lon="9.9199907"><ele>229.0</ele><time>2026-05-02T08:21:17.802Z</time></trkpt><trkpt lat="45.6667893" lon="9.9201728"><ele>229.0</ele><time>2026-05-02T08:21:18.802Z</time></trkpt><trkpt lat="45.6667891" lon="9.9203503"><ele>229.0</ele><time>2026-05-02T08:21:19.802Z</time></trkpt><trkpt lat="45.6667915" lon="9.9205305"><ele>229.25</ele><time>2026-05-02T08:21:20.802Z</time></trkpt><trkpt lat="45.6667975" lon="9.9207118"><ele>229.5</ele><time>2026-05-02T08:21:21.802Z</time></trkpt><trkpt lat="45.6668041" lon="9.9208998"><ele>229.75</ele><time>2026-05-02T08:21:22.802Z</time></trkpt><trkpt lat="45.6668106" lon="9.9210913"><ele>230.0</ele><time>2026-05-02T08:21:23.802Z</time></trkpt><trkpt lat="45.6668146" lon="9.9212896"><ele>229.0</ele><time>2026-05-02T08:21:24.802Z</time></trkpt><trkpt lat="45.6668172" lon="9.92149"><ele>228.0</ele><time>2026-05-02T08:21:25.802Z</time></trkpt><trkpt lat="45.6668209" lon="9.9216948"><ele>227.0</ele><time>2026-05-02T08:21:26.802Z</time></trkpt><trkpt lat="45.666827" lon="9.921892"><ele>226.0</ele><time>2026-05-02T08:21:27.802Z</time></trkpt><trkpt lat="45.6668337" lon="9.9220829"><ele>225.5</ele><time>2026-05-02T08:21:28.802Z</time></trkpt><trkpt lat="45.6668486" lon="9.9222783"><ele>225.0</ele><time>2026-05-02T08:21:29.802Z</time></trkpt><trkpt lat="45.6668524" lon="9.9224756"><ele>224.5</ele><time>2026-05-02T08:21:30.802Z</time></trkpt><trkpt lat="45.6668378" lon="9.9226665"><ele>224.0</ele><time>2026-05-02T08:21:31.802Z</time></trkpt><trkpt lat="45.6668034" lon="9.9228491"><ele>224.0</ele><time>2026-05-02T08:21:32.802Z</time></trkpt><trkpt lat="45.666768" lon="9.9230188"><ele>223.99999999999997</ele><time>2026-05-02T08:21:33.802Z</time></trkpt><trkpt lat="45.6667269" lon="9.9231767"><ele>223.99999999999997</ele><time>2026-05-02T08:21:34.802Z</time></trkpt><trkpt lat="45.666677" lon="9.9233088"><ele>224.0</ele><time>2026-05-02T08:21:35.802Z</time></trkpt><trkpt lat="45.6666278" lon="9.9234165"><ele>224.0</ele><time>2026-05-02T08:21:36.802Z</time></trkpt><trkpt lat="45.6665799" lon="9.9234982"><ele>224.0</ele><time>2026-05-02T08:21:37.802Z</time></trkpt><trkpt lat="45.6664848" lon="9.9235979"><ele>223.99999999999997</ele><time>2026-05-02T08:21:39.802Z</time></trkpt><trkpt lat="45.6664269" lon="9.9236589"><ele>223.99999999999997</ele><time>2026-05-02T08:21:40.802Z</time></trkpt><trkpt lat="45.6663771" lon="9.9237345"><ele>224.0</ele><time>2026-05-02T08:21:41.802Z</time></trkpt><trkpt lat="45.6663187" lon="9.9238334"><ele>224.0</ele><time>2026-05-02T08:21:42.802Z</time></trkpt><trkpt lat="45.6662369" lon="9.9239371"><ele>224.0</ele><time>2026-05-02T08:21:43.802Z</time></trkpt><trkpt lat="45.6661335" lon="9.9240384"><ele>224.0</ele><time>2026-05-02T08:21:44.802Z</time></trkpt><trkpt lat="45.6660227" lon="9.9241341"><ele>224.0</ele><time>2026-05-02T08:21:45.802Z</time></trkpt><trkpt lat="45.6659098" lon="9.9242259"><ele>224.0</ele><time>2026-05-02T08:21:46.802Z</time></trkpt><trkpt lat="45.6657971" lon="9.9243161"><ele>223.5</ele><time>2026-05-02T08:21:47.802Z</time></trkpt><trkpt lat="45.6656798" lon="9.9244064"><ele>223.0</ele><time>2026-05-02T08:21:48.802Z</time></trkpt><trkpt lat="45.6655484" lon="9.9244962"><ele>222.5</ele><time>2026-05-02T08:21:49.802Z</time></trkpt><trkpt lat="45.6653943" lon="9.9246001"><ele>222.0</ele><time>2026-05-02T08:21:50.802Z</time></trkpt><trkpt lat="45.6652249" lon="9.9247081"><ele>221.66666666666669</ele><time>2026-05-02T08:21:51.802Z</time></trkpt><trkpt lat="45.6650388" lon="9.9248039"><ele>221.33333333333334</ele><time>2026-05-02T08:21:52.802Z</time></trkpt><trkpt lat="45.6648454" lon="9.9248876"><ele>221.0</ele><time>2026-05-02T08:21:53.802Z</time></trkpt><trkpt lat="45.6646693" lon="9.9250038"><ele>222.0</ele><time>2026-05-02T08:21:54.802Z</time></trkpt><trkpt lat="45.664512" lon="9.9251367"><ele>223.0</ele><time>2026-05-02T08:21:55.802Z</time></trkpt><trkpt lat="45.6643634" lon="9.9252913"><ele>224.0</ele><time>2026-05-02T08:21:56.802Z</time></trkpt><trkpt lat="45.6642255" lon="9.925445"><ele>224.0</ele><time>2026-05-02T08:21:57.802Z</time></trkpt><trkpt lat="45.664107" lon="9.925583"><ele>224.0</ele><time>2026-05-02T08:21:58.802Z</time></trkpt><trkpt lat="45.6640062" lon="9.9257065"><ele>224.0</ele><time>2026-05-02T08:21:59.802Z</time></trkpt><trkpt lat="45.663916" lon="9.9258261"><ele>224.0</ele><time>2026-05-02T08:22:00.802Z</time></trkpt><trkpt lat="45.6638439" lon="9.9259547"><ele>223.75</ele><time>2026-05-02T08:22:01.802Z</time></trkpt><trkpt lat="45.6637981" lon="9.9261088"><ele>223.5</ele><time>2026-05-02T08:22:02.802Z</time></trkpt><trkpt lat="45.6637933" lon="9.9262824"><ele>223.25</ele><time>2026-05-02T08:22:03.802Z</time></trkpt><trkpt lat="45.6638027" lon="9.9264721"><ele>223.0</ele><time>2026-05-02T08:22:04.802Z</time></trkpt><trkpt lat="45.6638203" lon="9.9266762"><ele>223.33333333333331</ele><time>2026-05-02T08:22:05.802Z</time></trkpt><trkpt lat="45.6638363" lon="9.9268908"><ele>223.66666666666669</ele><time>2026-05-02T08:22:06.802Z</time></trkpt><trkpt lat="45.6638373" lon="9.927115"><ele>224.0</ele><time>2026-05-02T08:22:07.802Z</time></trkpt><trkpt lat="45.663833" lon="9.9273507"><ele>224.0</ele><time>2026-05-02T08:22:08.802Z</time></trkpt><trkpt lat="45.6638285" lon="9.9275899"><ele>224.0</ele><time>2026-05-02T08:22:09.802Z</time></trkpt><trkpt lat="45.6638383" lon="9.9278198"><ele>224.0</ele><time>2026-05-02T08:22:10.802Z</time></trkpt><trkpt lat="45.6638495" lon="9.9280529"><ele>224.0</ele><time>2026-05-02T08:22:11.802Z</time></trkpt><trkpt lat="45.6638583" lon="9.9282868"><ele>224.0</ele><time>2026-05-02T08:22:12.802Z</time></trkpt><trkpt lat="45.6638573" lon="9.928528"><ele>224.0</ele><time>2026-05-02T08:22:13.802Z</time></trkpt><trkpt lat="45.6638583" lon="9.9287637"><ele>224.33333333333334</ele><time>2026-05-02T08:22:14.802Z</time></trkpt><trkpt lat="45.6638618" lon="9.9289938"><ele>224.66666666666669</ele><time>2026-05-02T08:22:15.802Z</time></trkpt><trkpt lat="45.6638672" lon="9.9292167"><ele>225.0</ele><time>2026-05-02T08:22:16.802Z</time></trkpt><trkpt lat="45.6638645" lon="9.929427"><ele>225.5</ele><time>2026-05-02T08:22:17.802Z</time></trkpt><trkpt lat="45.6638598" lon="9.9296307"><ele>226.0</ele><time>2026-05-02T08:22:18.802Z</time></trkpt><trkpt lat="45.6638528" lon="9.9298229"><ele>226.5</ele><time>2026-05-02T08:22:19.802Z</time></trkpt><trkpt lat="45.6638444" lon="9.930007"><ele>227.0</ele><time>2026-05-02T08:22:20.802Z</time></trkpt><trkpt lat="45.6638369" lon="9.9301783"><ele>227.6</ele><time>2026-05-02T08:22:21.802Z</time></trkpt><trkpt lat="45.6638335" lon="9.9303345"><ele>228.2</ele><time>2026-05-02T08:22:22.802Z</time></trkpt><trkpt lat="45.6638377" lon="9.9304757"><ele>228.8</ele><time>2026-05-02T08:22:23.802Z</time></trkpt><trkpt lat="45.6638392" lon="9.9306007"><ele>229.4</ele><time>2026-05-02T08:22:24.802Z</time></trkpt><trkpt lat="45.6638465" lon="9.930697"><ele>230.0</ele><time>2026-05-02T08:22:25.802Z</time></trkpt><trkpt lat="45.6638692" lon="9.9308251"><ele>231.16666666666669</ele><time>2026-05-02T08:22:27.802Z</time></trkpt><trkpt lat="45.6639129" lon="9.9308934"><ele>232.33333333333334</ele><time>2026-05-02T08:22:31.802Z</time></trkpt><trkpt lat="45.6639926" lon="9.9309507"><ele>233.5</ele><time>2026-05-02T08:22:33.802Z</time></trkpt><trkpt lat="45.6640591" lon="9.930984"><ele>234.66666666666669</ele><time>2026-05-02T08:22:35.802Z</time></trkpt><trkpt lat="45.6641351" lon="9.9310127"><ele>235.83333333333334</ele><time>2026-05-02T08:22:37.802Z</time></trkpt><trkpt lat="45.6642435" lon="9.9310429"><ele>237.0</ele><time>2026-05-02T08:22:39.802Z</time></trkpt><trkpt lat="45.6643243" lon="9.931057"><ele>237.0</ele><time>2026-05-02T08:22:40.802Z</time></trkpt><trkpt lat="45.6644061" lon="9.931078"><ele>237.0</ele><time>2026-05-02T08:22:41.802Z</time></trkpt><trkpt lat="45.6644758" lon="9.931104"><ele>237.0</ele><time>2026-05-02T08:22:42.802Z</time></trkpt><trkpt lat="45.6645363" lon="9.9311346"><ele>237.0</ele><time>2026-05-02T08:22:43.802Z</time></trkpt><trkpt lat="45.6646306" lon="9.9311876"><ele>237.0</ele><time>2026-05-02T08:22:45.802Z</time></trkpt><trkpt lat="45.6647165" lon="9.9312643"><ele>237.0</ele><time>2026-05-02T08:22:47.802Z</time></trkpt><trkpt lat="45.6648024" lon="9.931418"><ele>235.83333333333334</ele><time>2026-05-02T08:22:49.802Z</time></trkpt><trkpt lat="45.6648613" lon="9.9314992"><ele>234.66666666666669</ele><time>2026-05-02T08:22:50.802Z</time></trkpt><trkpt lat="45.6649289" lon="9.931569"><ele>233.5</ele><time>2026-05-02T08:22:51.802Z</time></trkpt><trkpt lat="45.6650034" lon="9.9316433"><ele>232.33333333333334</ele><time>2026-05-02T08:22:52.802Z</time></trkpt><trkpt lat="45.6650707" lon="9.9317333"><ele>231.16666666666669</ele><time>2026-05-02T08:22:53.802Z</time></trkpt><trkpt lat="45.6651404" lon="9.9318341"><ele>230.0</ele><time>2026-05-02T08:22:54.802Z</time></trkpt><trkpt lat="45.6652082" lon="9.9319489"><ele>229.5</ele><time>2026-05-02T08:22:55.802Z</time></trkpt><trkpt lat="45.665287" lon="9.9320636"><ele>229.0</ele><time>2026-05-02T08:22:56.802Z</time></trkpt><trkpt lat="45.6653681" lon="9.9321893"><ele>228.5</ele><time>2026-05-02T08:22:57.802Z</time></trkpt><trkpt lat="45.6654532" lon="9.9323237"><ele>228.0</ele><time>2026-05-02T08:22:58.802Z</time></trkpt><trkpt lat="45.6655401" lon="9.9324539"><ele>228.2</ele><time>2026-05-02T08:22:59.802Z</time></trkpt><trkpt lat="45.6656164" lon="9.9325874"><ele>228.4</ele><time>2026-05-02T08:23:00.802Z</time></trkpt><trkpt lat="45.6656891" lon="9.9327148"><ele>228.59999999999997</ele><time>2026-05-02T08:23:01.802Z</time></trkpt><trkpt lat="45.6657548" lon="9.9328345"><ele>228.79999999999998</ele><time>2026-05-02T08:23:02.802Z</time></trkpt><trkpt lat="45.6658176" lon="9.9329422"><ele>229.0</ele><time>2026-05-02T08:23:03.802Z</time></trkpt><trkpt lat="45.6658796" lon="9.9330343"><ele>229.0</ele><time>2026-05-02T08:23:04.802Z</time></trkpt><trkpt lat="45.6659335" lon="9.9331216"><ele>229.0</ele><time>2026-05-02T08:23:05.802Z</time></trkpt><trkpt lat="45.6659803" lon="9.9332005"><ele>229.0</ele><time>2026-05-02T08:23:06.802Z</time></trkpt><trkpt lat="45.6660234" lon="9.9332765"><ele>229.0</ele><time>2026-05-02T08:23:07.802Z</time></trkpt><trkpt lat="45.6660599" lon="9.9333515"><ele>229.0</ele><time>2026-05-02T08:23:08.802Z</time></trkpt><trkpt lat="45.6660741" lon="9.9334416"><ele>229.0</ele><time>2026-05-02T08:23:09.802Z</time></trkpt><trkpt lat="45.6660724" lon="9.9335425"><ele>229.0</ele><time>2026-05-02T08:23:10.802Z</time></trkpt><trkpt lat="45.6660609" lon="9.9336616"><ele>229.0</ele><time>2026-05-02T08:23:11.802Z</time></trkpt><trkpt lat="45.6660499" lon="9.9338023"><ele>229.0</ele><time>2026-05-02T08:23:12.802Z</time></trkpt><trkpt lat="45.6660402" lon="9.933978"><ele>229.0</ele><time>2026-05-02T08:23:13.802Z</time></trkpt><trkpt lat="45.6660277" lon="9.9341731"><ele>229.0</ele><time>2026-05-02T08:23:14.802Z</time></trkpt><trkpt lat="45.6660254" lon="9.9343641"><ele>228.75</ele><time>2026-05-02T08:23:15.802Z</time></trkpt><trkpt lat="45.6660246" lon="9.9345514"><ele>228.5</ele><time>2026-05-02T08:23:16.802Z</time></trkpt><trkpt lat="45.6660271" lon="9.9347421"><ele>228.25</ele><time>2026-05-02T08:23:17.802Z</time></trkpt><trkpt lat="45.6660291" lon="9.9349408"><ele>228.0</ele><time>2026-05-02T08:23:18.802Z</time></trkpt><trkpt lat="45.6660306" lon="9.9351489"><ele>228.0</ele><time>2026-05-02T08:23:19.802Z</time></trkpt><trkpt lat="45.6660215" lon="9.935537"><ele>228.0</ele><time>2026-05-02T08:23:21.802Z</time></trkpt><trkpt lat="45.6660111" lon="9.9357079"><ele>228.0</ele><time>2026-05-02T08:23:22.802Z</time></trkpt><trkpt lat="45.6660046" lon="9.9358602"><ele>228.2</ele><time>2026-05-02T08:23:23.802Z</time></trkpt><trkpt lat="45.6659979" lon="9.9359971"><ele>228.4</ele><time>2026-05-02T08:23:24.802Z</time></trkpt><trkpt lat="45.665992" lon="9.9361397"><ele>228.59999999999997</ele><time>2026-05-02T08:23:25.802Z</time></trkpt><trkpt lat="45.6659868" lon="9.936272"><ele>228.79999999999998</ele><time>2026-05-02T08:23:26.802Z</time></trkpt><trkpt lat="45.6659793" lon="9.93641"><ele>229.0</ele><time>2026-05-02T08:23:27.802Z</time></trkpt><trkpt lat="45.6659747" lon="9.9365666"><ele>229.66666666666666</ele><time>2026-05-02T08:23:28.802Z</time></trkpt><trkpt lat="45.6659784" lon="9.9367276"><ele>230.33333333333331</ele><time>2026-05-02T08:23:29.802Z</time></trkpt><trkpt lat="45.6659823" lon="9.9369007"><ele>231.0</ele><time>2026-05-02T08:23:30.802Z</time></trkpt><trkpt lat="45.6659973" lon="9.9372512"><ele>231.0</ele><time>2026-05-02T08:23:32.802Z</time></trkpt><trkpt lat="45.6659955" lon="9.937413"><ele>231.0</ele><time>2026-05-02T08:23:33.802Z</time></trkpt><trkpt lat="45.6659988" lon="9.9375724"><ele>231.0</ele><time>2026-05-02T08:23:34.802Z</time></trkpt><trkpt lat="45.6660014" lon="9.9377378"><ele>231.0</ele><time>2026-05-02T08:23:35.802Z</time></trkpt><trkpt lat="45.6659905" lon="9.937923"><ele>231.0</ele><time>2026-05-02T08:23:36.803Z</time></trkpt><trkpt lat="45.6659931" lon="9.9381206"><ele>231.0</ele><time>2026-05-02T08:23:37.803Z</time></trkpt><trkpt lat="45.6659996" lon="9.938307"><ele>231.0</ele><time>2026-05-02T08:23:38.802Z</time></trkpt><trkpt lat="45.6660036" lon="9.9384766"><ele>231.0</ele><time>2026-05-02T08:23:39.802Z</time></trkpt><trkpt lat="45.6660054" lon="9.9386327"><ele>231.16666666666666</ele><time>2026-05-02T08:23:40.802Z</time></trkpt><trkpt lat="45.6660024" lon="9.9387682"><ele>231.33333333333331</ele><time>2026-05-02T08:23:41.802Z</time></trkpt><trkpt lat="45.6660006" lon="9.9388795"><ele>231.5</ele><time>2026-05-02T08:23:42.802Z</time></trkpt><trkpt lat="45.6659902" lon="9.9389782"><ele>231.66666666666666</ele><time>2026-05-02T08:23:43.802Z</time></trkpt><trkpt lat="45.6659215" lon="9.9391046"><ele>231.83333333333331</ele><time>2026-05-02T08:23:45.802Z</time></trkpt><trkpt lat="45.6658429" lon="9.9391085"><ele>232.0</ele><time>2026-05-02T08:23:46.802Z</time></trkpt><trkpt lat="45.6657346" lon="9.939082"><ele>232.0</ele><time>2026-05-02T08:23:47.802Z</time></trkpt><trkpt lat="45.6656297" lon="9.9390664"><ele>232.0</ele><time>2026-05-02T08:23:48.802Z</time></trkpt><trkpt lat="45.6655272" lon="9.9390466"><ele>232.0</ele><time>2026-05-02T08:23:49.802Z</time></trkpt><trkpt lat="45.6654276" lon="9.9390347"><ele>232.0</ele><time>2026-05-02T08:23:50.802Z</time></trkpt><trkpt lat="45.6653418" lon="9.9390356"><ele>232.0</ele><time>2026-05-02T08:23:51.802Z</time></trkpt><trkpt lat="45.6652616" lon="9.9390367"><ele>230.00000000000003</ele><time>2026-05-02T08:23:52.802Z</time></trkpt><trkpt lat="45.6651827" lon="9.9390259"><ele>228.0</ele><time>2026-05-02T08:23:53.802Z</time></trkpt><trkpt lat="45.6651107" lon="9.9389878"><ele>226.0</ele><time>2026-05-02T08:23:54.802Z</time></trkpt><trkpt lat="45.6650451" lon="9.938935"><ele>224.0</ele><time>2026-05-02T08:23:55.802Z</time></trkpt><trkpt lat="45.6649936" lon="9.9388727"><ele>222.0</ele><time>2026-05-02T08:23:56.802Z</time></trkpt><trkpt lat="45.6649392" lon="9.9388027"><ele>220.0</ele><time>2026-05-02T08:23:57.802Z</time></trkpt><trkpt lat="45.6648909" lon="9.9387323"><ele>218.0</ele><time>2026-05-02T08:23:58.802Z</time></trkpt><trkpt lat="45.6648129" lon="9.9386264"><ele>218.00000000000003</ele><time>2026-05-02T08:24:00.802Z</time></trkpt><trkpt lat="45.664749" lon="9.9385763"><ele>218.0</ele><time>2026-05-02T08:24:02.802Z</time></trkpt><trkpt lat="45.6647078" lon="9.9386528"><ele>218.0</ele><time>2026-05-02T08:24:07.802Z</time></trkpt><trkpt lat="45.6647622" lon="9.938815"><ele>218.0</ele><time>2026-05-02T08:24:09.802Z</time></trkpt><trkpt lat="45.664805" lon="9.9389028"><ele>218.00000000000003</ele><time>2026-05-02T08:24:10.802Z</time></trkpt><trkpt lat="45.6648511" lon="9.9389876"><ele>218.0</ele><time>2026-05-02T08:24:11.802Z</time></trkpt><trkpt lat="45.6648972" lon="9.9390814"><ele>218.0</ele><time>2026-05-02T08:24:12.802Z</time></trkpt><trkpt lat="45.6649366" lon="9.9391972"><ele>218.0</ele><time>2026-05-02T08:24:13.802Z</time></trkpt><trkpt lat="45.6649689" lon="9.9393236"><ele>218.0</ele><time>2026-05-02T08:24:14.802Z</time></trkpt><trkpt lat="45.6649953" lon="9.9394608"><ele>218.0</ele><time>2026-05-02T08:24:15.802Z</time></trkpt><trkpt lat="45.6650177" lon="9.9396106"><ele>218.0</ele><time>2026-05-02T08:24:16.802Z</time></trkpt><trkpt lat="45.6650428" lon="9.9397654"><ele>215.0</ele><time>2026-05-02T08:24:17.802Z</time></trkpt><trkpt lat="45.6650651" lon="9.9399276"><ele>212.0</ele><time>2026-05-02T08:24:18.802Z</time></trkpt><trkpt lat="45.665088" lon="9.9400824"><ele>209.0</ele><time>2026-05-02T08:24:19.802Z</time></trkpt><trkpt lat="45.6651123" lon="9.9402279"><ele>206.0</ele><time>2026-05-02T08:24:20.802Z</time></trkpt><trkpt lat="45.6651447" lon="9.9403579"><ele>203.0</ele><time>2026-05-02T08:24:21.802Z</time></trkpt><trkpt lat="45.6651719" lon="9.9404681"><ele>201.50000000000003</ele><time>2026-05-02T08:24:22.802Z</time></trkpt><trkpt lat="45.6652008" lon="9.9405593"><ele>200.0</ele><time>2026-05-02T08:24:23.802Z</time></trkpt><trkpt lat="45.6652238" lon="9.9406432"><ele>198.5</ele><time>2026-05-02T08:24:24.801Z</time></trkpt><trkpt lat="45.6652599" lon="9.9407932"><ele>197.0</ele><time>2026-05-02T08:24:26.801Z</time></trkpt><trkpt lat="45.6653027" lon="9.9409426"><ele>195.50000000000003</ele><time>2026-05-02T08:24:28.801Z</time></trkpt><trkpt lat="45.6653267" lon="9.9410267"><ele>194.0</ele><time>2026-05-02T08:24:29.801Z</time></trkpt><trkpt lat="45.6653618" lon="9.9411199"><ele>194.00000000000003</ele><time>2026-05-02T08:24:30.801Z</time></trkpt><trkpt lat="45.6653998" lon="9.9412184"><ele>194.0</ele><time>2026-05-02T08:24:31.801Z</time></trkpt><trkpt lat="45.6654347" lon="9.9413265"><ele>194.0</ele><time>2026-05-02T08:24:32.801Z</time></trkpt><trkpt lat="45.6654624" lon="9.9414402"><ele>194.0</ele><time>2026-05-02T08:24:33.801Z</time></trkpt><trkpt lat="45.665485" lon="9.9415428"><ele>194.00000000000003</ele><time>2026-05-02T08:24:34.801Z</time></trkpt><trkpt lat="45.6655" lon="9.9416487"><ele>194.0</ele><time>2026-05-02T08:24:35.801Z</time></trkpt><trkpt lat="45.6655164" lon="9.9417584"><ele>193.33333333333334</ele><time>2026-05-02T08:24:36.801Z</time></trkpt><trkpt lat="45.6655273" lon="9.941879"><ele>192.66666666666669</ele><time>2026-05-02T08:24:37.801Z</time></trkpt><trkpt lat="45.6655429" lon="9.942003"><ele>192.0</ele><time>2026-05-02T08:24:38.801Z</time></trkpt><trkpt lat="45.6655525" lon="9.9421262"><ele>191.33333333333334</ele><time>2026-05-02T08:24:39.801Z</time></trkpt><trkpt lat="45.6655596" lon="9.9422599"><ele>190.66666666666669</ele><time>2026-05-02T08:24:40.801Z</time></trkpt><trkpt lat="45.6655651" lon="9.9423936"><ele>190.0</ele><time>2026-05-02T08:24:41.801Z</time></trkpt><trkpt lat="45.6655699" lon="9.9425233"><ele>190.66666666666669</ele><time>2026-05-02T08:24:42.801Z</time></trkpt><trkpt lat="45.6655735" lon="9.9426429"><ele>191.33333333333334</ele><time>2026-05-02T08:24:43.801Z</time></trkpt><trkpt lat="45.6655764" lon="9.9427537"><ele>192.0</ele><time>2026-05-02T08:24:44.801Z</time></trkpt><trkpt lat="45.665578" lon="9.942854"><ele>192.66666666666669</ele><time>2026-05-02T08:24:45.801Z</time></trkpt><trkpt lat="45.665589" lon="9.942945"><ele>193.33333333333334</ele><time>2026-05-02T08:24:46.801Z</time></trkpt><trkpt lat="45.6656477" lon="9.9430989"><ele>194.0</ele><time>2026-05-02T08:24:48.801Z</time></trkpt><trkpt lat="45.6656909" lon="9.943166"><ele>194.00000000000003</ele><time>2026-05-02T08:24:49.801Z</time></trkpt><trkpt lat="45.6657346" lon="9.9432356"><ele>194.0</ele><time>2026-05-02T08:24:50.801Z</time></trkpt><trkpt lat="45.6657821" lon="9.9433134"><ele>194.0</ele><time>2026-05-02T08:24:51.801Z</time></trkpt><trkpt lat="45.665813" lon="9.9434143"><ele>194.0</ele><time>2026-05-02T08:24:52.801Z</time></trkpt><trkpt lat="45.665843" lon="9.9435296"><ele>194.00000000000003</ele><time>2026-05-02T08:24:53.801Z</time></trkpt><trkpt lat="45.6658677" lon="9.9436567"><ele>194.0</ele><time>2026-05-02T08:24:54.801Z</time></trkpt><trkpt lat="45.6658931" lon="9.9437971"><ele>194.0</ele><time>2026-05-02T08:24:55.801Z</time></trkpt><trkpt lat="45.6659155" lon="9.9439448"><ele>194.0</ele><time>2026-05-02T08:24:56.801Z</time></trkpt><trkpt lat="45.6659438" lon="9.9440939"><ele>194.0</ele><time>2026-05-02T08:24:57.801Z</time></trkpt><trkpt lat="45.6659707" lon="9.9442446"><ele>194.0</ele><time>2026-05-02T08:24:58.801Z</time></trkpt><trkpt lat="45.6660035" lon="9.9443907"><ele>194.0</ele><time>2026-05-02T08:24:59.801Z</time></trkpt><trkpt lat="45.6660429" lon="9.944528"><ele>194.0</ele><time>2026-05-02T08:25:00.801Z</time></trkpt><trkpt lat="45.6660858" lon="9.9446684"><ele>194.0</ele><time>2026-05-02T08:25:01.801Z</time></trkpt><trkpt lat="45.666124" lon="9.9448152"><ele>194.0</ele><time>2026-05-02T08:25:02.801Z</time></trkpt><trkpt lat="45.6661583" lon="9.9449641"><ele>194.0</ele><time>2026-05-02T08:25:03.801Z</time></trkpt><trkpt lat="45.6661914" lon="9.9451159"><ele>194.0</ele><time>2026-05-02T08:25:04.801Z</time></trkpt><trkpt lat="45.6662227" lon="9.945272"><ele>196.75</ele><time>2026-05-02T08:25:05.801Z</time></trkpt><trkpt lat="45.6662518" lon="9.9454319"><ele>199.5</ele><time>2026-05-02T08:25:06.801Z</time></trkpt><trkpt lat="45.6662694" lon="9.9455843"><ele>202.25</ele><time>2026-05-02T08:25:07.801Z</time></trkpt><trkpt lat="45.6662839" lon="9.9457476"><ele>205.0</ele><time>2026-05-02T08:25:08.801Z</time></trkpt><trkpt lat="45.6662993" lon="9.9459072"><ele>205.0</ele><time>2026-05-02T08:25:09.801Z</time></trkpt><trkpt lat="45.6663119" lon="9.946062"><ele>205.0</ele><time>2026-05-02T08:25:10.801Z</time></trkpt><trkpt lat="45.6663283" lon="9.9462152"><ele>205.0</ele><time>2026-05-02T08:25:11.801Z</time></trkpt><trkpt lat="45.66634" lon="9.9463681"><ele>205.0</ele><time>2026-05-02T08:25:12.801Z</time></trkpt><trkpt lat="45.6663505" lon="9.9465175"><ele>205.0</ele><time>2026-05-02T08:25:13.801Z</time></trkpt><trkpt lat="45.6663645" lon="9.9466735"><ele>204.6</ele><time>2026-05-02T08:25:14.801Z</time></trkpt><trkpt lat="45.6663845" lon="9.9468265"><ele>204.2</ele><time>2026-05-02T08:25:15.801Z</time></trkpt><trkpt lat="45.6664123" lon="9.9469836"><ele>203.8</ele><time>2026-05-02T08:25:16.801Z</time></trkpt><trkpt lat="45.6664408" lon="9.9471355"><ele>203.4</ele><time>2026-05-02T08:25:17.801Z</time></trkpt><trkpt lat="45.6664643" lon="9.9472847"><ele>203.0</ele><time>2026-05-02T08:25:18.801Z</time></trkpt><trkpt lat="45.6664827" lon="9.9474354"><ele>202.25</ele><time>2026-05-02T08:25:19.801Z</time></trkpt><trkpt lat="45.666503" lon="9.94758"><ele>201.5</ele><time>2026-05-02T08:25:20.801Z</time></trkpt><trkpt lat="45.6665353" lon="9.9478776"><ele>200.75</ele><time>2026-05-02T08:25:22.801Z</time></trkpt><trkpt lat="45.6665519" lon="9.9480261"><ele>200.0</ele><time>2026-05-02T08:25:23.801Z</time></trkpt><trkpt lat="45.6665734" lon="9.9481874"><ele>200.0</ele><time>2026-05-02T08:25:24.801Z</time></trkpt><trkpt lat="45.6665938" lon="9.9483466"><ele>200.0</ele><time>2026-05-02T08:25:25.801Z</time></trkpt><trkpt lat="45.6666112" lon="9.9484885"><ele>200.0</ele><time>2026-05-02T08:25:26.801Z</time></trkpt><trkpt lat="45.6666307" lon="9.9486193"><ele>200.0</ele><time>2026-05-02T08:25:27.801Z</time></trkpt><trkpt lat="45.6666581" lon="9.9487324"><ele>200.0</ele><time>2026-05-02T08:25:28.801Z</time></trkpt><trkpt lat="45.6666805" lon="9.9488245"><ele>199.6</ele><time>2026-05-02T08:25:29.801Z</time></trkpt><trkpt lat="45.6667426" lon="9.9489192"><ele>199.2</ele><time>2026-05-02T08:25:31.801Z</time></trkpt><trkpt lat="45.6668691" lon="9.9488995"><ele>198.8</ele><time>2026-05-02T08:25:33.801Z</time></trkpt><trkpt lat="45.6669574" lon="9.948864"><ele>198.4</ele><time>2026-05-02T08:25:34.801Z</time></trkpt><trkpt lat="45.6670654" lon="9.9488284"><ele>198.0</ele><time>2026-05-02T08:25:35.801Z</time></trkpt><trkpt lat="45.6671754" lon="9.9488056"><ele>200.2</ele><time>2026-05-02T08:25:36.801Z</time></trkpt><trkpt lat="45.6672865" lon="9.9487801"><ele>202.4</ele><time>2026-05-02T08:25:37.801Z</time></trkpt><trkpt lat="45.6674007" lon="9.9487543"><ele>204.6</ele><time>2026-05-02T08:25:38.801Z</time></trkpt><trkpt lat="45.6675075" lon="9.9487325"><ele>206.79999999999998</ele><time>2026-05-02T08:25:39.801Z</time></trkpt><trkpt lat="45.6676092" lon="9.9486831"><ele>209.0</ele><time>2026-05-02T08:25:40.801Z</time></trkpt><trkpt lat="45.667713" lon="9.9486352"><ele>209.0</ele><time>2026-05-02T08:25:41.801Z</time></trkpt><trkpt lat="45.6679075" lon="9.9485173"><ele>209.0</ele><time>2026-05-02T08:25:43.801Z</time></trkpt><trkpt lat="45.668014" lon="9.9484511"><ele>209.0</ele><time>2026-05-02T08:25:44.801Z</time></trkpt><trkpt lat="45.6681231" lon="9.9483954"><ele>209.0</ele><time>2026-05-02T08:25:45.801Z</time></trkpt><trkpt lat="45.668231" lon="9.9483507"><ele>209.0</ele><time>2026-05-02T08:25:46.801Z</time></trkpt><trkpt lat="45.6683352" lon="9.9483348"><ele>209.0</ele><time>2026-05-02T08:25:47.801Z</time></trkpt><trkpt lat="45.6684406" lon="9.9483345"><ele>209.0</ele><time>2026-05-02T08:25:48.801Z</time></trkpt><trkpt lat="45.6685498" lon="9.9483372"><ele>209.0</ele><time>2026-05-02T08:25:49.801Z</time></trkpt><trkpt lat="45.6686604" lon="9.948345"><ele>209.0</ele><time>2026-05-02T08:25:50.801Z</time></trkpt><trkpt lat="45.668776" lon="9.9483592"><ele>209.0</ele><time>2026-05-02T08:25:51.802Z</time></trkpt><trkpt lat="45.6688911" lon="9.9483771"><ele>209.0</ele><time>2026-05-02T08:25:52.801Z</time></trkpt><trkpt lat="45.6689978" lon="9.9483981"><ele>209.0</ele><time>2026-05-02T08:25:53.801Z</time></trkpt><trkpt lat="45.6690981" lon="9.9484198"><ele>209.0</ele><time>2026-05-02T08:25:54.801Z</time></trkpt><trkpt lat="45.6691883" lon="9.9484348"><ele>209.0</ele><time>2026-05-02T08:25:55.801Z</time></trkpt><trkpt lat="45.6692801" lon="9.9484457"><ele>209.0</ele><time>2026-05-02T08:25:56.801Z</time></trkpt><trkpt lat="45.6693752" lon="9.9484684"><ele>209.0</ele><time>2026-05-02T08:25:57.802Z</time></trkpt><trkpt lat="45.6694645" lon="9.9485153"><ele>209.0</ele><time>2026-05-02T08:25:58.801Z</time></trkpt><trkpt lat="45.6695439" lon="9.9485897"><ele>209.0</ele><time>2026-05-02T08:25:59.801Z</time></trkpt><trkpt lat="45.6696188" lon="9.948684"><ele>209.0</ele><time>2026-05-02T08:26:00.801Z</time></trkpt><trkpt lat="45.669689" lon="9.9487886"><ele>209.0</ele><time>2026-05-02T08:26:01.801Z</time></trkpt><trkpt lat="45.6697559" lon="9.9488995"><ele>209.0</ele><time>2026-05-02T08:26:02.801Z</time></trkpt><trkpt lat="45.669828" lon="9.9490054"><ele>209.0</ele><time>2026-05-02T08:26:03.801Z</time></trkpt><trkpt lat="45.6699058" lon="9.949102"><ele>209.0</ele><time>2026-05-02T08:26:04.801Z</time></trkpt><trkpt lat="45.6699895" lon="9.9492059"><ele>209.0</ele><time>2026-05-02T08:26:05.801Z</time></trkpt><trkpt lat="45.6700668" lon="9.9493075"><ele>209.0</ele><time>2026-05-02T08:26:06.801Z</time></trkpt><trkpt lat="45.6701457" lon="9.9494204"><ele>209.0</ele><time>2026-05-02T08:26:07.801Z</time></trkpt><trkpt lat="45.6702216" lon="9.949517"><ele>209.0</ele><time>2026-05-02T08:26:08.801Z</time></trkpt><trkpt lat="45.6703006" lon="9.9495712"><ele>209.0</ele><time>2026-05-02T08:26:09.801Z</time></trkpt><trkpt lat="45.6703862" lon="9.94961"><ele>209.0</ele><time>2026-05-02T08:26:10.801Z</time></trkpt><trkpt lat="45.6704596" lon="9.949642"><ele>208.2</ele><time>2026-05-02T08:26:11.801Z</time></trkpt><trkpt lat="45.6705206" lon="9.9496801"><ele>207.39999999999998</ele><time>2026-05-02T08:26:12.801Z</time></trkpt><trkpt lat="45.6705846" lon="9.9498184"><ele>206.6</ele><time>2026-05-02T08:26:14.801Z</time></trkpt><trkpt lat="45.6705878" lon="9.9499251"><ele>205.8</ele><time>2026-05-02T08:26:15.801Z</time></trkpt><trkpt lat="45.6705888" lon="9.9500528"><ele>205.0</ele><time>2026-05-02T08:26:16.801Z</time></trkpt><trkpt lat="45.6705742" lon="9.9502141"><ele>205.0</ele><time>2026-05-02T08:26:17.801Z</time></trkpt><trkpt lat="45.6705569" lon="9.9503847"><ele>205.0</ele><time>2026-05-02T08:26:18.801Z</time></trkpt><trkpt lat="45.6705445" lon="9.9505639"><ele>205.0</ele><time>2026-05-02T08:26:19.801Z</time></trkpt><trkpt lat="45.670533" lon="9.9507311"><ele>205.0</ele><time>2026-05-02T08:26:20.801Z</time></trkpt><trkpt lat="45.670526" lon="9.9509087"><ele>205.0</ele><time>2026-05-02T08:26:21.801Z</time></trkpt><trkpt lat="45.6705205" lon="9.9510829"><ele>205.0</ele><time>2026-05-02T08:26:22.801Z</time></trkpt><trkpt lat="45.6705148" lon="9.9512483"><ele>205.0</ele><time>2026-05-02T08:26:23.801Z</time></trkpt><trkpt lat="45.6705058" lon="9.9514201"><ele>205.0</ele><time>2026-05-02T08:26:24.801Z</time></trkpt><trkpt lat="45.6705007" lon="9.9515871"><ele>205.2</ele><time>2026-05-02T08:26:25.801Z</time></trkpt><trkpt lat="45.6704974" lon="9.9517385"><ele>205.4</ele><time>2026-05-02T08:26:26.801Z</time></trkpt><trkpt lat="45.6704959" lon="9.9518845"><ele>205.60000000000002</ele><time>2026-05-02T08:26:27.801Z</time></trkpt><trkpt lat="45.6704964" lon="9.9520117"><ele>205.8</ele><time>2026-05-02T08:26:28.801Z</time></trkpt><trkpt lat="45.6704925" lon="9.9521233"><ele>206.0</ele><time>2026-05-02T08:26:29.801Z</time></trkpt><trkpt lat="45.6704688" lon="9.9522603"><ele>206.0</ele><time>2026-05-02T08:26:31.801Z</time></trkpt><trkpt lat="45.6704088" lon="9.9523051"><ele>206.0</ele><time>2026-05-02T08:26:34.801Z</time></trkpt><trkpt lat="45.6703085" lon="9.9523539"><ele>206.0</ele><time>2026-05-02T08:26:36.801Z</time></trkpt><trkpt lat="45.670181" lon="9.9524327"><ele>206.0</ele><time>2026-05-02T08:26:38.801Z</time></trkpt><trkpt lat="45.6701153" lon="9.9524625"><ele>206.0</ele><time>2026-05-02T08:26:39.801Z</time></trkpt><trkpt lat="45.670048" lon="9.9524982"><ele>205.66666666666669</ele><time>2026-05-02T08:26:40.801Z</time></trkpt><trkpt lat="45.6699745" lon="9.9525333"><ele>205.33333333333334</ele><time>2026-05-02T08:26:41.801Z</time></trkpt><trkpt lat="45.6698992" lon="9.9525924"><ele>205.0</ele><time>2026-05-02T08:26:42.801Z</time></trkpt><trkpt lat="45.6698257" lon="9.9526537"><ele>204.66666666666669</ele><time>2026-05-02T08:26:43.801Z</time></trkpt><trkpt lat="45.6697467" lon="9.9527107"><ele>204.33333333333334</ele><time>2026-05-02T08:26:44.802Z</time></trkpt><trkpt lat="45.6696601" lon="9.952767"><ele>204.0</ele><time>2026-05-02T08:26:45.801Z</time></trkpt><trkpt lat="45.6695793" lon="9.952841"><ele>203.6</ele><time>2026-05-02T08:26:46.801Z</time></trkpt><trkpt lat="45.6694966" lon="9.9529251"><ele>203.2</ele><time>2026-05-02T08:26:47.801Z</time></trkpt><trkpt lat="45.6694144" lon="9.9530162"><ele>202.79999999999998</ele><time>2026-05-02T08:26:48.801Z</time></trkpt><trkpt lat="45.6693313" lon="9.9530992"><ele>202.39999999999998</ele><time>2026-05-02T08:26:49.801Z</time></trkpt><trkpt lat="45.6692572" lon="9.9531827"><ele>202.0</ele><time>2026-05-02T08:26:50.801Z</time></trkpt><trkpt lat="45.6691919" lon="9.953275"><ele>201.0</ele><time>2026-05-02T08:26:51.801Z</time></trkpt><trkpt lat="45.6691342" lon="9.953379"><ele>200.0</ele><time>2026-05-02T08:26:52.801Z</time></trkpt><trkpt lat="45.6690124" lon="9.9535803"><ele>199.0</ele><time>2026-05-02T08:26:54.801Z</time></trkpt><trkpt lat="45.668937" lon="9.9536526"><ele>198.0</ele><time>2026-05-02T08:26:55.801Z</time></trkpt><trkpt lat="45.6688534" lon="9.9536965"><ele>198.0</ele><time>2026-05-02T08:26:56.801Z</time></trkpt><trkpt lat="45.6687585" lon="9.9537145"><ele>198.0</ele><time>2026-05-02T08:26:57.801Z</time></trkpt><trkpt lat="45.6686628" lon="9.9537347"><ele>198.0</ele><time>2026-05-02T08:26:58.801Z</time></trkpt><trkpt lat="45.6685732" lon="9.9537613"><ele>198.0</ele><time>2026-05-02T08:26:59.801Z</time></trkpt><trkpt lat="45.6684822" lon="9.9537943"><ele>198.0</ele><time>2026-05-02T08:27:00.801Z</time></trkpt><trkpt lat="45.6683947" lon="9.9538226"><ele>197.8</ele><time>2026-05-02T08:27:01.801Z</time></trkpt><trkpt lat="45.6683105" lon="9.9538415"><ele>197.60000000000002</ele><time>2026-05-02T08:27:02.801Z</time></trkpt><trkpt lat="45.6682245" lon="9.9538439"><ele>197.39999999999998</ele><time>2026-05-02T08:27:03.801Z</time></trkpt><trkpt lat="45.668128" lon="9.9538307"><ele>197.2</ele><time>2026-05-02T08:27:04.801Z</time></trkpt><trkpt lat="45.6680335" lon="9.9538153"><ele>197.0</ele><time>2026-05-02T08:27:05.801Z</time></trkpt><trkpt lat="45.6679459" lon="9.9538001"><ele>197.0</ele><time>2026-05-02T08:27:06.801Z</time></trkpt><trkpt lat="45.667865" lon="9.9537856"><ele>197.0</ele><time>2026-05-02T08:27:07.801Z</time></trkpt><trkpt lat="45.6677964" lon="9.9537741"><ele>197.0</ele><time>2026-05-02T08:27:08.801Z</time></trkpt><trkpt lat="45.6677095" lon="9.9537541"><ele>197.0</ele><time>2026-05-02T08:27:10.801Z</time></trkpt><trkpt lat="45.667649" lon="9.9538402"><ele>197.0</ele><time>2026-05-02T08:27:13.801Z</time></trkpt><trkpt lat="45.667608" lon="9.9540208"><ele>196.25</ele><time>2026-05-02T08:27:15.801Z</time></trkpt><trkpt lat="45.6675894" lon="9.9541551"><ele>195.5</ele><time>2026-05-02T08:27:16.801Z</time></trkpt><trkpt lat="45.6675765" lon="9.9543172"><ele>194.75</ele><time>2026-05-02T08:27:17.801Z</time></trkpt><trkpt lat="45.6675652" lon="9.9545028"><ele>194.0</ele><time>2026-05-02T08:27:18.801Z</time></trkpt><trkpt lat="45.667558" lon="9.9546858"><ele>194.0</ele><time>2026-05-02T08:27:19.801Z</time></trkpt><trkpt lat="45.6675528" lon="9.9548608"><ele>194.0</ele><time>2026-05-02T08:27:20.801Z</time></trkpt><trkpt lat="45.6675394" lon="9.9550325"><ele>194.0</ele><time>2026-05-02T08:27:21.801Z</time></trkpt><trkpt lat="45.6675242" lon="9.9552"><ele>194.0</ele><time>2026-05-02T08:27:22.801Z</time></trkpt><trkpt lat="45.6675038" lon="9.9553547"><ele>194.6</ele><time>2026-05-02T08:27:23.801Z</time></trkpt><trkpt lat="45.6674823" lon="9.9554978"><ele>195.2</ele><time>2026-05-02T08:27:24.801Z</time></trkpt><trkpt lat="45.6674656" lon="9.955612"><ele>195.79999999999998</ele><time>2026-05-02T08:27:25.801Z</time></trkpt><trkpt lat="45.667458" lon="9.9557128"><ele>196.39999999999998</ele><time>2026-05-02T08:27:26.801Z</time></trkpt><trkpt lat="45.6674299" lon="9.9558659"><ele>197.0</ele><time>2026-05-02T08:27:28.801Z</time></trkpt><trkpt lat="45.6673855" lon="9.9559694"><ele>197.33333333333334</ele><time>2026-05-02T08:27:30.801Z</time></trkpt><trkpt lat="45.6673222" lon="9.9560461"><ele>197.66666666666669</ele><time>2026-05-02T08:27:32.801Z</time></trkpt><trkpt lat="45.6671873" lon="9.9560277"><ele>198.0</ele><time>2026-05-02T08:27:34.801Z</time></trkpt><trkpt lat="45.6671244" lon="9.9560029"><ele>198.33333333333331</ele><time>2026-05-02T08:27:35.801Z</time></trkpt><trkpt lat="45.6670602" lon="9.9559725"><ele>198.66666666666666</ele><time>2026-05-02T08:27:36.801Z</time></trkpt><trkpt lat="45.6669958" lon="9.9559652"><ele>199.0</ele><time>2026-05-02T08:27:37.801Z</time></trkpt><trkpt lat="45.6669266" lon="9.955959"><ele>197.6</ele><time>2026-05-02T08:27:38.801Z</time></trkpt><trkpt lat="45.6668284" lon="9.9559224"><ele>196.2</ele><time>2026-05-02T08:27:40.801Z</time></trkpt><trkpt lat="45.6667475" lon="9.9559669"><ele>194.79999999999998</ele><time>2026-05-02T08:27:42.801Z</time></trkpt><trkpt lat="45.6666882" lon="9.9561026"><ele>193.39999999999998</ele><time>2026-05-02T08:27:44.801Z</time></trkpt><trkpt lat="45.6666473" lon="9.9562486"><ele>192.0</ele><time>2026-05-02T08:27:46.801Z</time></trkpt><trkpt lat="45.6666013" lon="9.9563456"><ele>192.0</ele><time>2026-05-02T08:27:48.801Z</time></trkpt><trkpt lat="45.6665808" lon="9.9564337"><ele>192.0</ele><time>2026-05-02T08:27:50.801Z</time></trkpt><trkpt lat="45.6665359" lon="9.9565477"><ele>192.0</ele><time>2026-05-02T08:27:52.801Z</time></trkpt><trkpt lat="45.666454" lon="9.9566598"><ele>192.0</ele><time>2026-05-02T08:27:54.801Z</time></trkpt><trkpt lat="45.6663785" lon="9.9567821"><ele>192.0</ele><time>2026-05-02T08:27:56.801Z</time></trkpt><trkpt lat="45.6662818" lon="9.9569831"><ele>192.5</ele><time>2026-05-02T08:27:59.801Z</time></trkpt><trkpt lat="45.6662185" lon="9.9570785"><ele>193.0</ele><time>2026-05-02T08:28:01.801Z</time></trkpt><trkpt lat="45.6661169" lon="9.9570463"><ele>193.5</ele><time>2026-05-02T08:28:03.801Z</time></trkpt><trkpt lat="45.6660545" lon="9.9569927"><ele>194.0</ele><time>2026-05-02T08:28:04.801Z</time></trkpt><trkpt lat="45.6659901" lon="9.956937"><ele>194.5</ele><time>2026-05-02T08:28:05.801Z</time></trkpt><trkpt lat="45.6659268" lon="9.9568859"><ele>195.0</ele><time>2026-05-02T08:28:06.801Z</time></trkpt><trkpt lat="45.6658665" lon="9.9568347"><ele>194.0</ele><time>2026-05-02T08:28:07.801Z</time></trkpt><trkpt lat="45.6658098" lon="9.95678"><ele>193.0</ele><time>2026-05-02T08:28:08.801Z</time></trkpt><trkpt lat="45.6657543" lon="9.9567294"><ele>192.0</ele><time>2026-05-02T08:28:09.801Z</time></trkpt><trkpt lat="45.6657005" lon="9.9566789"><ele>191.0</ele><time>2026-05-02T08:28:10.801Z</time></trkpt><trkpt lat="45.6656078" lon="9.9565854"><ele>190.0</ele><time>2026-05-02T08:28:12.801Z</time></trkpt><trkpt lat="45.665513" lon="9.9565081"><ele>189.0</ele><time>2026-05-02T08:28:14.801Z</time></trkpt><trkpt lat="45.6654258" lon="9.9564312"><ele>189.0</ele><time>2026-05-02T08:28:16.801Z</time></trkpt><trkpt lat="45.6653402" lon="9.9563386"><ele>189.0</ele><time>2026-05-02T08:28:18.801Z</time></trkpt><trkpt lat="45.6652325" lon="9.9562552"><ele>189.0</ele><time>2026-05-02T08:28:20.801Z</time></trkpt><trkpt lat="45.6651271" lon="9.9561675"><ele>189.0</ele><time>2026-05-02T08:28:22.801Z</time></trkpt><trkpt lat="45.6650306" lon="9.9561064"><ele>189.0</ele><time>2026-05-02T08:28:24.801Z</time></trkpt><trkpt lat="45.6649486" lon="9.9560563"><ele>189.0</ele><time>2026-05-02T08:28:26.801Z</time></trkpt><trkpt lat="45.6648669" lon="9.9560337"><ele>189.0</ele><time>2026-05-02T08:28:28.801Z</time></trkpt><trkpt lat="45.6647937" lon="9.9561039"><ele>189.0</ele><time>2026-05-02T08:28:30.801Z</time></trkpt><trkpt lat="45.6647185" lon="9.9562208"><ele>189.0</ele><time>2026-05-02T08:28:32.801Z</time></trkpt><trkpt lat="45.6646365" lon="9.9563385"><ele>189.0</ele><time>2026-05-02T08:28:34.801Z</time></trkpt><trkpt lat="45.6645874" lon="9.9564225"><ele>189.0</ele><time>2026-05-02T08:28:35.801Z</time></trkpt><trkpt lat="45.6645476" lon="9.9565211"><ele>189.0</ele><time>2026-05-02T08:28:36.801Z</time></trkpt><trkpt lat="45.6645059" lon="9.9566257"><ele>189.0</ele><time>2026-05-02T08:28:37.801Z</time></trkpt><trkpt lat="45.6644662" lon="9.9567318"><ele>189.0</ele><time>2026-05-02T08:28:38.801Z</time></trkpt><trkpt lat="45.6644318" lon="9.9568268"><ele>189.0</ele><time>2026-05-02T08:28:39.801Z</time></trkpt><trkpt lat="45.6643969" lon="9.9569102"><ele>189.0</ele><time>2026-05-02T08:28:40.801Z</time></trkpt><trkpt lat="45.6643499" lon="9.956982"><ele>189.0</ele><time>2026-05-02T08:28:41.801Z</time></trkpt><trkpt lat="45.6642495" lon="9.9570635"><ele>189.0</ele><time>2026-05-02T08:28:43.801Z</time></trkpt><trkpt lat="45.6641571" lon="9.9570664"><ele>189.0</ele><time>2026-05-02T08:28:45.801Z</time></trkpt><trkpt lat="45.6640864" lon="9.9570567"><ele>189.0</ele><time>2026-05-02T08:28:47.801Z</time></trkpt><trkpt lat="45.6640225" lon="9.9570444"><ele>189.0</ele><time>2026-05-02T08:28:50.801Z</time></trkpt><trkpt lat="45.6639336" lon="9.9570181"><ele>189.0</ele><time>2026-05-02T08:28:54.801Z</time></trkpt><trkpt lat="45.6638513" lon="9.9570034"><ele>189.0</ele><time>2026-05-02T08:28:56.801Z</time></trkpt><trkpt lat="45.6637626" lon="9.9569936"><ele>189.0</ele><time>2026-05-02T08:28:58.801Z</time></trkpt><trkpt lat="45.6636576" lon="9.9570018"><ele>189.0</ele><time>2026-05-02T08:29:00.801Z</time></trkpt><trkpt lat="45.6635499" lon="9.9569921"><ele>189.0</ele><time>2026-05-02T08:29:02.801Z</time></trkpt><trkpt lat="45.6634848" lon="9.9569839"><ele>189.0</ele><time>2026-05-02T08:29:03.801Z</time></trkpt><trkpt lat="45.663417" lon="9.9569681"><ele>189.0</ele><time>2026-05-02T08:29:04.801Z</time></trkpt><trkpt lat="45.6633145" lon="9.9569649"><ele>189.0</ele><time>2026-05-02T08:29:06.801Z</time></trkpt><trkpt lat="45.6632439" lon="9.9570482"><ele>189.0</ele><time>2026-05-02T08:29:08.801Z</time></trkpt><trkpt lat="45.6632382" lon="9.9572245"><ele>189.0</ele><time>2026-05-02T08:29:10.801Z</time></trkpt><trkpt lat="45.6632392" lon="9.9573474"><ele>189.0</ele><time>2026-05-02T08:29:11.801Z</time></trkpt><trkpt lat="45.6632208" lon="9.9574714"><ele>189.0</ele><time>2026-05-02T08:29:12.801Z</time></trkpt><trkpt lat="45.6631809" lon="9.9575907"><ele>189.0</ele><time>2026-05-02T08:29:13.801Z</time></trkpt><trkpt lat="45.6631243" lon="9.9577008"><ele>189.0</ele><time>2026-05-02T08:29:14.801Z</time></trkpt><trkpt lat="45.663056" lon="9.9578158"><ele>189.0</ele><time>2026-05-02T08:29:15.801Z</time></trkpt><trkpt lat="45.6629743" lon="9.9579405"><ele>189.0</ele><time>2026-05-02T08:29:16.801Z</time></trkpt><trkpt lat="45.6628984" lon="9.9580649"><ele>189.0</ele><time>2026-05-02T08:29:17.801Z</time></trkpt><trkpt lat="45.6628247" lon="9.9581937"><ele>189.0</ele><time>2026-05-02T08:29:18.801Z</time></trkpt><trkpt lat="45.662751" lon="9.9583296"><ele>189.0</ele><time>2026-05-02T08:29:19.801Z</time></trkpt><trkpt lat="45.6626689" lon="9.9584619"><ele>189.25</ele><time>2026-05-02T08:29:20.801Z</time></trkpt><trkpt lat="45.6625956" lon="9.9585922"><ele>189.5</ele><time>2026-05-02T08:29:21.801Z</time></trkpt><trkpt lat="45.6625238" lon="9.9587192"><ele>189.75</ele><time>2026-05-02T08:29:22.801Z</time></trkpt><trkpt lat="45.6624574" lon="9.958849"><ele>190.0</ele><time>2026-05-02T08:29:23.801Z</time></trkpt><trkpt lat="45.6623923" lon="9.9589738"><ele>190.0</ele><time>2026-05-02T08:29:24.801Z</time></trkpt><trkpt lat="45.6623246" lon="9.9590914"><ele>190.0</ele><time>2026-05-02T08:29:25.801Z</time></trkpt><trkpt lat="45.6622475" lon="9.9592122"><ele>190.0</ele><time>2026-05-02T08:29:26.801Z</time></trkpt><trkpt lat="45.6621728" lon="9.9593424"><ele>190.0</ele><time>2026-05-02T08:29:27.801Z</time></trkpt><trkpt lat="45.6620952" lon="9.9594666"><ele>190.5</ele><time>2026-05-02T08:29:28.801Z</time></trkpt><trkpt lat="45.6620171" lon="9.9595986"><ele>191.0</ele><time>2026-05-02T08:29:29.801Z</time></trkpt><trkpt lat="45.6619428" lon="9.959725"><ele>191.5</ele><time>2026-05-02T08:29:30.801Z</time></trkpt><trkpt lat="45.6618696" lon="9.9598483"><ele>192.0</ele><time>2026-05-02T08:29:31.801Z</time></trkpt><trkpt lat="45.6618052" lon="9.9599665"><ele>191.2</ele><time>2026-05-02T08:29:32.801Z</time></trkpt><trkpt lat="45.6617344" lon="9.9600737"><ele>190.39999999999998</ele><time>2026-05-02T08:29:33.801Z</time></trkpt><trkpt lat="45.6616616" lon="9.9601879"><ele>189.60000000000002</ele><time>2026-05-02T08:29:34.801Z</time></trkpt><trkpt lat="45.6615869" lon="9.9603136"><ele>188.8</ele><time>2026-05-02T08:29:35.801Z</time></trkpt><trkpt lat="45.6615103" lon="9.9604343"><ele>188.0</ele><time>2026-05-02T08:29:36.801Z</time></trkpt><trkpt lat="45.6614346" lon="9.9605586"><ele>188.0</ele><time>2026-05-02T08:29:37.801Z</time></trkpt><trkpt lat="45.6613665" lon="9.960679"><ele>188.0</ele><time>2026-05-02T08:29:38.801Z</time></trkpt><trkpt lat="45.6612885" lon="9.9608"><ele>188.0</ele><time>2026-05-02T08:29:39.801Z</time></trkpt><trkpt lat="45.6612141" lon="9.9609175"><ele>188.0</ele><time>2026-05-02T08:29:40.801Z</time></trkpt><trkpt lat="45.6611444" lon="9.9610305"><ele>188.0</ele><time>2026-05-02T08:29:41.801Z</time></trkpt><trkpt lat="45.6610723" lon="9.9611469"><ele>188.4</ele><time>2026-05-02T08:29:42.801Z</time></trkpt><trkpt lat="45.6610006" lon="9.9612668"><ele>188.8</ele><time>2026-05-02T08:29:43.801Z</time></trkpt><trkpt lat="45.6609366" lon="9.9613881"><ele>189.2</ele><time>2026-05-02T08:29:44.801Z</time></trkpt><trkpt lat="45.6608723" lon="9.961511"><ele>189.6</ele><time>2026-05-02T08:29:45.801Z</time></trkpt><trkpt lat="45.6608016" lon="9.9616254"><ele>190.0</ele><time>2026-05-02T08:29:46.801Z</time></trkpt><trkpt lat="45.6607303" lon="9.9617371"><ele>190.0</ele><time>2026-05-02T08:29:47.801Z</time></trkpt><trkpt lat="45.6606686" lon="9.9618446"><ele>190.0</ele><time>2026-05-02T08:29:48.801Z</time></trkpt><trkpt lat="45.6606072" lon="9.9619506"><ele>190.0</ele><time>2026-05-02T08:29:49.801Z</time></trkpt><trkpt lat="45.6605484" lon="9.9620503"><ele>190.0</ele><time>2026-05-02T08:29:50.801Z</time></trkpt><trkpt lat="45.6604893" lon="9.9621535"><ele>190.0</ele><time>2026-05-02T08:29:51.801Z</time></trkpt><trkpt lat="45.6604263" lon="9.962259"><ele>190.0</ele><time>2026-05-02T08:29:52.801Z</time></trkpt><trkpt lat="45.6603654" lon="9.9623576"><ele>190.0</ele><time>2026-05-02T08:29:53.801Z</time></trkpt><trkpt lat="45.6603061" lon="9.9624584"><ele>190.0</ele><time>2026-05-02T08:29:54.801Z</time></trkpt><trkpt lat="45.6602437" lon="9.9625587"><ele>190.0</ele><time>2026-05-02T08:29:55.801Z</time></trkpt><trkpt lat="45.6601793" lon="9.9626607"><ele>190.0</ele><time>2026-05-02T08:29:56.801Z</time></trkpt><trkpt lat="45.6601183" lon="9.962766"><ele>189.71428571428572</ele><time>2026-05-02T08:29:57.801Z</time></trkpt><trkpt lat="45.660061" lon="9.9628696"><ele>189.42857142857144</ele><time>2026-05-02T08:29:58.801Z</time></trkpt><trkpt lat="45.6600097" lon="9.9629623"><ele>189.14285714285714</ele><time>2026-05-02T08:29:59.801Z</time></trkpt><trkpt lat="45.6599678" lon="9.9630364"><ele>188.85714285714286</ele><time>2026-05-02T08:30:00.801Z</time></trkpt><trkpt lat="45.6599247" lon="9.9631094"><ele>188.57142857142856</ele><time>2026-05-02T08:30:01.801Z</time></trkpt><trkpt lat="45.6598795" lon="9.9631805"><ele>188.28571428571428</ele><time>2026-05-02T08:30:02.801Z</time></trkpt><trkpt lat="45.659836" lon="9.9632553"><ele>188.0</ele><time>2026-05-02T08:30:03.801Z</time></trkpt><trkpt lat="45.6597887" lon="9.963332"><ele>187.83333333333331</ele><time>2026-05-02T08:30:04.801Z</time></trkpt><trkpt lat="45.6597388" lon="9.9634153"><ele>187.66666666666666</ele><time>2026-05-02T08:30:05.801Z</time></trkpt><trkpt lat="45.6596855" lon="9.9635077"><ele>187.5</ele><time>2026-05-02T08:30:06.801Z</time></trkpt><trkpt lat="45.6596317" lon="9.9636088"><ele>187.33333333333334</ele><time>2026-05-02T08:30:07.801Z</time></trkpt><trkpt lat="45.6595815" lon="9.9637017"><ele>187.16666666666669</ele><time>2026-05-02T08:30:08.801Z</time></trkpt><trkpt lat="45.659524" lon="9.9638002"><ele>187.0</ele><time>2026-05-02T08:30:09.801Z</time></trkpt><trkpt lat="45.6594598" lon="9.9639048"><ele>187.16666666666669</ele><time>2026-05-02T08:30:10.801Z</time></trkpt><trkpt lat="45.6594011" lon="9.964006"><ele>187.33333333333334</ele><time>2026-05-02T08:30:11.801Z</time></trkpt><trkpt lat="45.6593453" lon="9.9641048"><ele>187.5</ele><time>2026-05-02T08:30:12.801Z</time></trkpt><trkpt lat="45.6592879" lon="9.9641928"><ele>187.66666666666666</ele><time>2026-05-02T08:30:13.801Z</time></trkpt><trkpt lat="45.6592339" lon="9.9642713"><ele>187.83333333333331</ele><time>2026-05-02T08:30:14.801Z</time></trkpt><trkpt lat="45.6591811" lon="9.9643437"><ele>188.0</ele><time>2026-05-02T08:30:15.801Z</time></trkpt><trkpt lat="45.659131" lon="9.9644048"><ele>188.0</ele><time>2026-05-02T08:30:16.801Z</time></trkpt><trkpt lat="45.6589934" lon="9.9645841"><ele>188.0</ele><time>2026-05-02T08:30:19.801Z</time></trkpt><trkpt lat="45.6588938" lon="9.9646668"><ele>188.0</ele><time>2026-05-02T08:30:21.801Z</time></trkpt><trkpt lat="45.6588019" lon="9.9647104"><ele>188.0</ele><time>2026-05-02T08:30:23.801Z</time></trkpt><trkpt lat="45.6586852" lon="9.9647256"><ele>188.16666666666666</ele><time>2026-05-02T08:30:25.801Z</time></trkpt><trkpt lat="45.6586042" lon="9.9647975"><ele>188.33333333333331</ele><time>2026-05-02T08:30:27.801Z</time></trkpt><trkpt lat="45.6585816" lon="9.9649171"><ele>188.5</ele><time>2026-05-02T08:30:29.801Z</time></trkpt><trkpt lat="45.6585989" lon="9.9650253"><ele>188.66666666666666</ele><time>2026-05-02T08:30:31.801Z</time></trkpt><trkpt lat="45.6585846" lon="9.9651559"><ele>188.83333333333334</ele><time>2026-05-02T08:30:34.801Z</time></trkpt><trkpt lat="45.6585636" lon="9.9652535"><ele>189.0</ele><time>2026-05-02T08:30:35.801Z</time></trkpt><trkpt lat="45.6585246" lon="9.9653679"><ele>189.0</ele><time>2026-05-02T08:30:36.801Z</time></trkpt><trkpt lat="45.6584669" lon="9.965495"><ele>189.0</ele><time>2026-05-02T08:30:37.801Z</time></trkpt><trkpt lat="45.6583891" lon="9.9656399"><ele>189.0</ele><time>2026-05-02T08:30:38.801Z</time></trkpt><trkpt lat="45.6583089" lon="9.9657925"><ele>189.0</ele><time>2026-05-02T08:30:39.801Z</time></trkpt><trkpt lat="45.658234" lon="9.9659453"><ele>189.25</ele><time>2026-05-02T08:30:40.801Z</time></trkpt><trkpt lat="45.6581659" lon="9.9661085"><ele>189.5</ele><time>2026-05-02T08:30:41.801Z</time></trkpt><trkpt lat="45.6581108" lon="9.9662751"><ele>189.75</ele><time>2026-05-02T08:30:42.801Z</time></trkpt><trkpt lat="45.658072" lon="9.9664428"><ele>190.0</ele><time>2026-05-02T08:30:43.801Z</time></trkpt><trkpt lat="45.6580436" lon="9.9666072"><ele>189.6</ele><time>2026-05-02T08:30:44.801Z</time></trkpt><trkpt lat="45.6580237" lon="9.9667616"><ele>189.2</ele><time>2026-05-02T08:30:45.801Z</time></trkpt><trkpt lat="45.6580171" lon="9.9669079"><ele>188.8</ele><time>2026-05-02T08:30:46.801Z</time></trkpt><trkpt lat="45.6580214" lon="9.9670491"><ele>188.4</ele><time>2026-05-02T08:30:47.801Z</time></trkpt><trkpt lat="45.6580281" lon="9.9671742"><ele>188.0</ele><time>2026-05-02T08:30:48.801Z</time></trkpt><trkpt lat="45.6580323" lon="9.9672912"><ele>188.0</ele><time>2026-05-02T08:30:49.801Z</time></trkpt><trkpt lat="45.6580475" lon="9.967393"><ele>188.0</ele><time>2026-05-02T08:30:50.801Z</time></trkpt><trkpt lat="45.6580614" lon="9.9675478"><ele>188.0</ele><time>2026-05-02T08:30:52.801Z</time></trkpt><trkpt lat="45.6580753" lon="9.9676391"><ele>188.0</ele><time>2026-05-02T08:30:53.801Z</time></trkpt><trkpt lat="45.6581006" lon="9.9677611"><ele>188.0</ele><time>2026-05-02T08:30:54.801Z</time></trkpt><trkpt lat="45.6581477" lon="9.9679242"><ele>188.33333333333331</ele><time>2026-05-02T08:30:55.801Z</time></trkpt><trkpt lat="45.6582176" lon="9.9681195"><ele>188.66666666666666</ele><time>2026-05-02T08:30:56.801Z</time></trkpt><trkpt lat="45.6583039" lon="9.9683234"><ele>189.0</ele><time>2026-05-02T08:30:57.801Z</time></trkpt><trkpt lat="45.6584042" lon="9.9685156"><ele>189.25</ele><time>2026-05-02T08:30:58.801Z</time></trkpt><trkpt lat="45.6585065" lon="9.9686838"><ele>189.5</ele><time>2026-05-02T08:30:59.801Z</time></trkpt><trkpt lat="45.6586072" lon="9.9688418"><ele>189.75</ele><time>2026-05-02T08:31:00.801Z</time></trkpt><trkpt lat="45.6587063" lon="9.9689859"><ele>190.0</ele><time>2026-05-02T08:31:01.801Z</time></trkpt><trkpt lat="45.6588054" lon="9.9691228"><ele>191.0</ele><time>2026-05-02T08:31:02.801Z</time></trkpt><trkpt lat="45.6589039" lon="9.9692534"><ele>192.0</ele><time>2026-05-02T08:31:03.801Z</time></trkpt><trkpt lat="45.6589985" lon="9.96938"><ele>193.0</ele><time>2026-05-02T08:31:04.801Z</time></trkpt><trkpt lat="45.6590946" lon="9.9695085"><ele>194.0</ele><time>2026-05-02T08:31:05.801Z</time></trkpt><trkpt lat="45.6591896" lon="9.969637"><ele>194.0</ele><time>2026-05-02T08:31:06.801Z</time></trkpt><trkpt lat="45.6592732" lon="9.9697728"><ele>194.0</ele><time>2026-05-02T08:31:07.801Z</time></trkpt><trkpt lat="45.6593564" lon="9.9699067"><ele>194.0</ele><time>2026-05-02T08:31:08.801Z</time></trkpt><trkpt lat="45.6594477" lon="9.9700244"><ele>194.0</ele><time>2026-05-02T08:31:09.801Z</time></trkpt><trkpt lat="45.6595363" lon="9.9701303"><ele>193.2</ele><time>2026-05-02T08:31:10.801Z</time></trkpt><trkpt lat="45.6596204" lon="9.9702328"><ele>192.39999999999998</ele><time>2026-05-02T08:31:11.801Z</time></trkpt><trkpt lat="45.6596979" lon="9.9703385"><ele>191.6</ele><time>2026-05-02T08:31:12.801Z</time></trkpt><trkpt lat="45.6597661" lon="9.9704398"><ele>190.8</ele><time>2026-05-02T08:31:13.801Z</time></trkpt><trkpt lat="45.6598254" lon="9.9705248"><ele>190.0</ele><time>2026-05-02T08:31:14.802Z</time></trkpt><trkpt lat="45.6598843" lon="9.9706072"><ele>190.0</ele><time>2026-05-02T08:31:15.801Z</time></trkpt><trkpt lat="45.6599462" lon="9.9706924"><ele>190.0</ele><time>2026-05-02T08:31:16.801Z</time></trkpt><trkpt lat="45.6600152" lon="9.9707786"><ele>190.0</ele><time>2026-05-02T08:31:17.801Z</time></trkpt><trkpt lat="45.6600788" lon="9.9708699"><ele>190.0</ele><time>2026-05-02T08:31:18.801Z</time></trkpt><trkpt lat="45.6601473" lon="9.9709604"><ele>190.0</ele><time>2026-05-02T08:31:19.801Z</time></trkpt><trkpt lat="45.6602242" lon="9.9710511"><ele>188.75</ele><time>2026-05-02T08:31:20.801Z</time></trkpt><trkpt lat="45.6603085" lon="9.9711572"><ele>187.5</ele><time>2026-05-02T08:31:21.801Z</time></trkpt><trkpt lat="45.6603969" lon="9.9712702"><ele>186.25</ele><time>2026-05-02T08:31:22.801Z</time></trkpt><trkpt lat="45.6604821" lon="9.9713844"><ele>185.0</ele><time>2026-05-02T08:31:23.801Z</time></trkpt><trkpt lat="45.6605594" lon="9.9715029"><ele>185.0</ele><time>2026-05-02T08:31:24.801Z</time></trkpt><trkpt lat="45.6606264" lon="9.9716077"><ele>185.0</ele><time>2026-05-02T08:31:25.801Z</time></trkpt><trkpt lat="45.6606791" lon="9.971691"><ele>185.0</ele><time>2026-05-02T08:31:26.801Z</time></trkpt><trkpt lat="45.6607267" lon="9.9717638"><ele>185.0</ele><time>2026-05-02T08:31:27.801Z</time></trkpt><trkpt lat="45.6607775" lon="9.9718515"><ele>185.0</ele><time>2026-05-02T08:31:28.801Z</time></trkpt><trkpt lat="45.6608376" lon="9.9719607"><ele>185.0</ele><time>2026-05-02T08:31:29.801Z</time></trkpt><trkpt lat="45.6609087" lon="9.9720974"><ele>184.75</ele><time>2026-05-02T08:31:30.801Z</time></trkpt><trkpt lat="45.6609799" lon="9.9722613"><ele>184.5</ele><time>2026-05-02T08:31:31.801Z</time></trkpt><trkpt lat="45.6610503" lon="9.9724339"><ele>184.25</ele><time>2026-05-02T08:31:32.801Z</time></trkpt><trkpt lat="45.6611149" lon="9.9726138"><ele>184.0</ele><time>2026-05-02T08:31:33.801Z</time></trkpt><trkpt lat="45.6611702" lon="9.9727941"><ele>184.0</ele><time>2026-05-02T08:31:34.801Z</time></trkpt><trkpt lat="45.6612222" lon="9.9729824"><ele>184.0</ele><time>2026-05-02T08:31:35.801Z</time></trkpt><trkpt lat="45.6612649" lon="9.9731776"><ele>184.0</ele><time>2026-05-02T08:31:36.801Z</time></trkpt><trkpt lat="45.661309" lon="9.9733738"><ele>184.0</ele><time>2026-05-02T08:31:37.801Z</time></trkpt><trkpt lat="45.6613572" lon="9.9735734"><ele>184.75</ele><time>2026-05-02T08:31:38.801Z</time></trkpt><trkpt lat="45.6614055" lon="9.9737702"><ele>185.5</ele><time>2026-05-02T08:31:39.801Z</time></trkpt><trkpt lat="45.6614552" lon="9.9739648"><ele>186.25</ele><time>2026-05-02T08:31:40.801Z</time></trkpt><trkpt lat="45.6615115" lon="9.9741588"><ele>187.0</ele><time>2026-05-02T08:31:41.801Z</time></trkpt><trkpt lat="45.6615646" lon="9.974355"><ele>188.33333333333334</ele><time>2026-05-02T08:31:42.801Z</time></trkpt><trkpt lat="45.6616185" lon="9.9745654"><ele>189.66666666666666</ele><time>2026-05-02T08:31:43.801Z</time></trkpt><trkpt lat="45.6616668" lon="9.9747838"><ele>191.0</ele><time>2026-05-02T08:31:44.801Z</time></trkpt><trkpt lat="45.6617222" lon="9.9750118"><ele>192.0</ele><time>2026-05-02T08:31:45.801Z</time></trkpt><trkpt lat="45.6617806" lon="9.9752438"><ele>193.0</ele><time>2026-05-02T08:31:46.801Z</time></trkpt><trkpt lat="45.6618411" lon="9.9754744"><ele>194.0</ele><time>2026-05-02T08:31:47.801Z</time></trkpt><trkpt lat="45.6619065" lon="9.9757087"><ele>191.0</ele><time>2026-05-02T08:31:48.801Z</time></trkpt><trkpt lat="45.6619694" lon="9.9759507"><ele>188.0</ele><time>2026-05-02T08:31:49.801Z</time></trkpt><trkpt lat="45.6620386" lon="9.9761923"><ele>185.0</ele><time>2026-05-02T08:31:50.801Z</time></trkpt><trkpt lat="45.6621007" lon="9.9764241"><ele>185.0</ele><time>2026-05-02T08:31:51.801Z</time></trkpt><trkpt lat="45.6621643" lon="9.9766606"><ele>185.0</ele><time>2026-05-02T08:31:52.801Z</time></trkpt><trkpt lat="45.6622326" lon="9.9768913"><ele>185.0</ele><time>2026-05-02T08:31:53.801Z</time></trkpt><trkpt lat="45.6623093" lon="9.977107"><ele>187.0</ele><time>2026-05-02T08:31:54.801Z</time></trkpt><trkpt lat="45.6623812" lon="9.9773232"><ele>189.0</ele><time>2026-05-02T08:31:55.801Z</time></trkpt><trkpt lat="45.6624523" lon="9.9775436"><ele>191.0</ele><time>2026-05-02T08:31:56.801Z</time></trkpt><trkpt lat="45.6625191" lon="9.9777546"><ele>194.66666666666666</ele><time>2026-05-02T08:31:57.801Z</time></trkpt><trkpt lat="45.6625882" lon="9.9779567"><ele>198.33333333333331</ele><time>2026-05-02T08:31:58.801Z</time></trkpt><trkpt lat="45.6626604" lon="9.9781519"><ele>202.0</ele><time>2026-05-02T08:31:59.801Z</time></trkpt><trkpt lat="45.66273" lon="9.9783432"><ele>198.5</ele><time>2026-05-02T08:32:00.801Z</time></trkpt><trkpt lat="45.6627996" lon="9.9785329"><ele>195.0</ele><time>2026-05-02T08:32:01.801Z</time></trkpt><trkpt lat="45.6628634" lon="9.9787224"><ele>191.5</ele><time>2026-05-02T08:32:02.801Z</time></trkpt><trkpt lat="45.6629329" lon="9.9789095"><ele>188.0</ele><time>2026-05-02T08:32:03.801Z</time></trkpt><trkpt lat="45.6629988" lon="9.9790892"><ele>188.5</ele><time>2026-05-02T08:32:04.801Z</time></trkpt><trkpt lat="45.6630648" lon="9.9792605"><ele>189.0</ele><time>2026-05-02T08:32:05.801Z</time></trkpt><trkpt lat="45.6631307" lon="9.9794323"><ele>189.5</ele><time>2026-05-02T08:32:06.801Z</time></trkpt><trkpt lat="45.6631943" lon="9.9795967"><ele>190.0</ele><time>2026-05-02T08:32:07.801Z</time></trkpt><trkpt lat="45.6632511" lon="9.9797658"><ele>190.0</ele><time>2026-05-02T08:32:08.801Z</time></trkpt><trkpt lat="45.6633051" lon="9.9799235"><ele>190.0</ele><time>2026-05-02T08:32:09.801Z</time></trkpt><trkpt lat="45.66336" lon="9.9800696"><ele>190.0</ele><time>2026-05-02T08:32:10.801Z</time></trkpt><trkpt lat="45.6634115" lon="9.9802083"><ele>190.0</ele><time>2026-05-02T08:32:11.801Z</time></trkpt><trkpt lat="45.6634635" lon="9.9803388"><ele>189.6</ele><time>2026-05-02T08:32:12.801Z</time></trkpt><trkpt lat="45.6635137" lon="9.9804739"><ele>189.2</ele><time>2026-05-02T08:32:13.801Z</time></trkpt><trkpt lat="45.6635614" lon="9.9806041"><ele>188.8</ele><time>2026-05-02T08:32:14.801Z</time></trkpt><trkpt lat="45.6636028" lon="9.9807345"><ele>188.4</ele><time>2026-05-02T08:32:15.801Z</time></trkpt><trkpt lat="45.6636367" lon="9.9808595"><ele>188.0</ele><time>2026-05-02T08:32:16.801Z</time></trkpt><trkpt lat="45.6636637" lon="9.9809808"><ele>188.0</ele><time>2026-05-02T08:32:17.801Z</time></trkpt><trkpt lat="45.6636806" lon="9.9811017"><ele>188.0</ele><time>2026-05-02T08:32:18.801Z</time></trkpt><trkpt lat="45.6636852" lon="9.9812103"><ele>188.0</ele><time>2026-05-02T08:32:19.801Z</time></trkpt><trkpt lat="45.6636677" lon="9.9813136"><ele>188.0</ele><time>2026-05-02T08:32:20.801Z</time></trkpt><trkpt lat="45.6636345" lon="9.9814094"><ele>188.0</ele><time>2026-05-02T08:32:21.801Z</time></trkpt><trkpt lat="45.6635961" lon="9.9815055"><ele>188.0</ele><time>2026-05-02T08:32:22.801Z</time></trkpt><trkpt lat="45.6635718" lon="9.9816071"><ele>188.0</ele><time>2026-05-02T08:32:23.801Z</time></trkpt><trkpt lat="45.6635795" lon="9.9817099"><ele>188.0</ele><time>2026-05-02T08:32:24.801Z</time></trkpt><trkpt lat="45.663627" lon="9.9817786"><ele>188.0</ele><time>2026-05-02T08:32:25.801Z</time></trkpt><trkpt lat="45.6636964" lon="9.9818168"><ele>188.0</ele><time>2026-05-02T08:32:26.801Z</time></trkpt><trkpt lat="45.6637776" lon="9.981858"><ele>188.0</ele><time>2026-05-02T08:32:27.801Z</time></trkpt><trkpt lat="45.6638539" lon="9.9819154"><ele>188.0</ele><time>2026-05-02T08:32:28.801Z</time></trkpt><trkpt lat="45.663918" lon="9.981998"><ele>188.0</ele><time>2026-05-02T08:32:29.801Z</time></trkpt><trkpt lat="45.6639701" lon="9.9820991"><ele>188.0</ele><time>2026-05-02T08:32:30.801Z</time></trkpt><trkpt lat="45.664002" lon="9.9822208"><ele>188.0</ele><time>2026-05-02T08:32:31.801Z</time></trkpt><trkpt lat="45.6640283" lon="9.9823679"><ele>188.0</ele><time>2026-05-02T08:32:32.801Z</time></trkpt><trkpt lat="45.6640594" lon="9.9825388"><ele>188.0</ele><time>2026-05-02T08:32:33.801Z</time></trkpt><trkpt lat="45.6640989" lon="9.9827507"><ele>188.66666666666666</ele><time>2026-05-02T08:32:34.801Z</time></trkpt><trkpt lat="45.6641408" lon="9.9829855"><ele>189.33333333333334</ele><time>2026-05-02T08:32:35.801Z</time></trkpt><trkpt lat="45.6641861" lon="9.9832281"><ele>190.0</ele><time>2026-05-02T08:32:36.801Z</time></trkpt><trkpt lat="45.6642302" lon="9.9834776"><ele>190.66666666666669</ele><time>2026-05-02T08:32:37.801Z</time></trkpt><trkpt lat="45.664269" lon="9.9837291"><ele>191.33333333333334</ele><time>2026-05-02T08:32:38.801Z</time></trkpt><trkpt lat="45.6642912" lon="9.9839681"><ele>192.0</ele><time>2026-05-02T08:32:39.801Z</time></trkpt><trkpt lat="45.6643189" lon="9.9842014"><ele>193.33333333333331</ele><time>2026-05-02T08:32:40.801Z</time></trkpt><trkpt lat="45.6643487" lon="9.9844292"><ele>194.66666666666666</ele><time>2026-05-02T08:32:41.801Z</time></trkpt><trkpt lat="45.6643855" lon="9.9846707"><ele>196.0</ele><time>2026-05-02T08:32:42.802Z</time></trkpt><trkpt lat="45.6644315" lon="9.984914"><ele>193.66666666666666</ele><time>2026-05-02T08:32:43.801Z</time></trkpt><trkpt lat="45.6644744" lon="9.9851671"><ele>191.33333333333331</ele><time>2026-05-02T08:32:44.801Z</time></trkpt><trkpt lat="45.6645172" lon="9.9854131"><ele>189.0</ele><time>2026-05-02T08:32:45.801Z</time></trkpt><trkpt lat="45.6645602" lon="9.9856487"><ele>189.0</ele><time>2026-05-02T08:32:46.801Z</time></trkpt><trkpt lat="45.6645992" lon="9.9858644"><ele>189.0</ele><time>2026-05-02T08:32:47.801Z</time></trkpt><trkpt lat="45.6646384" lon="9.9860593"><ele>189.0</ele><time>2026-05-02T08:32:48.801Z</time></trkpt><trkpt lat="45.6646766" lon="9.9862338"><ele>189.0</ele><time>2026-05-02T08:32:49.801Z</time></trkpt><trkpt lat="45.6647035" lon="9.9863971"><ele>189.0</ele><time>2026-05-02T08:32:50.801Z</time></trkpt><trkpt lat="45.6647332" lon="9.9865539"><ele>189.0</ele><time>2026-05-02T08:32:51.801Z</time></trkpt><trkpt lat="45.6647568" lon="9.986714"><ele>189.0</ele><time>2026-05-02T08:32:52.801Z</time></trkpt><trkpt lat="45.6647885" lon="9.9868823"><ele>189.0</ele><time>2026-05-02T08:32:53.801Z</time></trkpt><trkpt lat="45.6648201" lon="9.9870554"><ele>188.83333333333334</ele><time>2026-05-02T08:32:54.801Z</time></trkpt><trkpt lat="45.6648514" lon="9.9872171"><ele>188.66666666666666</ele><time>2026-05-02T08:32:55.801Z</time></trkpt><trkpt lat="45.6648761" lon="9.9873553"><ele>188.5</ele><time>2026-05-02T08:32:56.801Z</time></trkpt><trkpt lat="45.664898" lon="9.9874723"><ele>188.33333333333331</ele><time>2026-05-02T08:32:57.801Z</time></trkpt><trkpt lat="45.6649152" lon="9.9875686"><ele>188.16666666666666</ele><time>2026-05-02T08:32:58.801Z</time></trkpt><trkpt lat="45.6649328" lon="9.9876613"><ele>188.0</ele><time>2026-05-02T08:32:59.801Z</time></trkpt><trkpt lat="45.66495" lon="9.9877754"><ele>188.5</ele><time>2026-05-02T08:33:00.801Z</time></trkpt><trkpt lat="45.6649732" lon="9.9879148"><ele>189.0</ele><time>2026-05-02T08:33:01.801Z</time></trkpt><trkpt lat="45.6649998" lon="9.9881019"><ele>189.5</ele><time>2026-05-02T08:33:02.801Z</time></trkpt><trkpt lat="45.6650297" lon="9.9883074"><ele>190.0</ele><time>2026-05-02T08:33:03.801Z</time></trkpt><trkpt lat="45.6650651" lon="9.9885221"><ele>190.0</ele><time>2026-05-02T08:33:04.801Z</time></trkpt><trkpt lat="45.6651058" lon="9.9887447"><ele>190.0</ele><time>2026-05-02T08:33:05.801Z</time></trkpt><trkpt lat="45.6651496" lon="9.9889718"><ele>190.0</ele><time>2026-05-02T08:33:06.801Z</time></trkpt><trkpt lat="45.6651964" lon="9.9892077"><ele>189.0</ele><time>2026-05-02T08:33:07.801Z</time></trkpt><trkpt lat="45.66524" lon="9.9894487"><ele>188.0</ele><time>2026-05-02T08:33:08.801Z</time></trkpt><trkpt lat="45.6652835" lon="9.9896889"><ele>187.0</ele><time>2026-05-02T08:33:09.801Z</time></trkpt><trkpt lat="45.6653205" lon="9.9899319"><ele>187.66666666666669</ele><time>2026-05-02T08:33:10.801Z</time></trkpt><trkpt lat="45.665363" lon="9.9901719"><ele>188.33333333333334</ele><time>2026-05-02T08:33:11.801Z</time></trkpt><trkpt lat="45.665402" lon="9.9904129"><ele>189.0</ele><time>2026-05-02T08:33:12.801Z</time></trkpt><trkpt lat="45.6654346" lon="9.9906591"><ele>188.33333333333334</ele><time>2026-05-02T08:33:13.801Z</time></trkpt><trkpt lat="45.6654583" lon="9.9909047"><ele>187.66666666666669</ele><time>2026-05-02T08:33:14.801Z</time></trkpt><trkpt lat="45.6654656" lon="9.9911504"><ele>187.0</ele><time>2026-05-02T08:33:15.801Z</time></trkpt><trkpt lat="45.6654506" lon="9.9913983"><ele>187.0</ele><time>2026-05-02T08:33:16.801Z</time></trkpt><trkpt lat="45.6654254" lon="9.9916554"><ele>187.0</ele><time>2026-05-02T08:33:17.801Z</time></trkpt><trkpt lat="45.6653903" lon="9.9919177"><ele>187.0</ele><time>2026-05-02T08:33:18.801Z</time></trkpt><trkpt lat="45.66535" lon="9.9921859"><ele>186.66666666666669</ele><time>2026-05-02T08:33:19.801Z</time></trkpt><trkpt lat="45.6653114" lon="9.9924519"><ele>186.33333333333334</ele><time>2026-05-02T08:33:20.801Z</time></trkpt><trkpt lat="45.6652704" lon="9.9927159"><ele>186.0</ele><time>2026-05-02T08:33:21.801Z</time></trkpt><trkpt lat="45.6652311" lon="9.9929889"><ele>188.33333333333331</ele><time>2026-05-02T08:33:22.801Z</time></trkpt><trkpt lat="45.665196" lon="9.9932512"><ele>190.66666666666666</ele><time>2026-05-02T08:33:23.801Z</time></trkpt><trkpt lat="45.6651611" lon="9.9935136"><ele>193.0</ele><time>2026-05-02T08:33:24.801Z</time></trkpt><trkpt lat="45.6651315" lon="9.993765"><ele>193.0</ele><time>2026-05-02T08:33:25.801Z</time></trkpt><trkpt lat="45.6651056" lon="9.9939955"><ele>193.0</ele><time>2026-05-02T08:33:26.801Z</time></trkpt><trkpt lat="45.6650855" lon="9.9941958"><ele>193.0</ele><time>2026-05-02T08:33:27.801Z</time></trkpt><trkpt lat="45.66506" lon="9.9943872"><ele>193.0</ele><time>2026-05-02T08:33:28.801Z</time></trkpt><trkpt lat="45.6650378" lon="9.9945732"><ele>192.5</ele><time>2026-05-02T08:33:29.801Z</time></trkpt><trkpt lat="45.6650149" lon="9.9947479"><ele>192.0</ele><time>2026-05-02T08:33:30.801Z</time></trkpt><trkpt lat="45.6649945" lon="9.9949165"><ele>191.5</ele><time>2026-05-02T08:33:31.801Z</time></trkpt><trkpt lat="45.6649746" lon="9.9950775"><ele>191.0</ele><time>2026-05-02T08:33:32.801Z</time></trkpt><trkpt lat="45.6649499" lon="9.9952329"><ele>190.8</ele><time>2026-05-02T08:33:33.801Z</time></trkpt><trkpt lat="45.6649301" lon="9.9953869"><ele>190.60000000000002</ele><time>2026-05-02T08:33:34.801Z</time></trkpt><trkpt lat="45.6649104" lon="9.9955437"><ele>190.4</ele><time>2026-05-02T08:33:35.801Z</time></trkpt><trkpt lat="45.6648867" lon="9.9957077"><ele>190.2</ele><time>2026-05-02T08:33:36.801Z</time></trkpt><trkpt lat="45.6648607" lon="9.9958621"><ele>190.0</ele><time>2026-05-02T08:33:37.801Z</time></trkpt><trkpt lat="45.6648413" lon="9.9960212"><ele>189.5</ele><time>2026-05-02T08:33:38.801Z</time></trkpt><trkpt lat="45.664821" lon="9.9961849"><ele>189.0</ele><time>2026-05-02T08:33:39.801Z</time></trkpt><trkpt lat="45.6647983" lon="9.996351"><ele>188.5</ele><time>2026-05-02T08:33:40.801Z</time></trkpt><trkpt lat="45.6647739" lon="9.9965212"><ele>188.0</ele><time>2026-05-02T08:33:41.801Z</time></trkpt><trkpt lat="45.6647459" lon="9.9966832"><ele>187.75</ele><time>2026-05-02T08:33:42.801Z</time></trkpt><trkpt lat="45.6647092" lon="9.9968447"><ele>187.5</ele><time>2026-05-02T08:33:43.801Z</time></trkpt><trkpt lat="45.6646701" lon="9.9969953"><ele>187.25</ele><time>2026-05-02T08:33:44.801Z</time></trkpt><trkpt lat="45.6646244" lon="9.9971403"><ele>187.0</ele><time>2026-05-02T08:33:45.801Z</time></trkpt><trkpt lat="45.664577" lon="9.9972825"><ele>187.0</ele><time>2026-05-02T08:33:46.801Z</time></trkpt><trkpt lat="45.6645247" lon="9.9974148"><ele>187.0</ele><time>2026-05-02T08:33:47.801Z</time></trkpt><trkpt lat="45.6644773" lon="9.9975271"><ele>187.0</ele><time>2026-05-02T08:33:48.801Z</time></trkpt><trkpt lat="45.6644317" lon="9.9976116"><ele>187.0</ele><time>2026-05-02T08:33:49.801Z</time></trkpt><trkpt lat="45.6643686" lon="9.9977115"><ele>187.0</ele><time>2026-05-02T08:33:51.801Z</time></trkpt><trkpt lat="45.6643132" lon="9.9978188"><ele>187.2</ele><time>2026-05-02T08:33:53.801Z</time></trkpt><trkpt lat="45.6642374" lon="9.9979423"><ele>187.39999999999998</ele><time>2026-05-02T08:33:55.801Z</time></trkpt><trkpt lat="45.6641656" lon="9.9980426"><ele>187.60000000000002</ele><time>2026-05-02T08:33:57.801Z</time></trkpt><trkpt lat="45.6640789" lon="9.9981486"><ele>187.8</ele><time>2026-05-02T08:33:59.801Z</time></trkpt><trkpt lat="45.664023" lon="9.9982211"><ele>188.0</ele><time>2026-05-02T08:34:00.801Z</time></trkpt><trkpt lat="45.6639573" lon="9.9983215"><ele>187.75</ele><time>2026-05-02T08:34:01.801Z</time></trkpt><trkpt lat="45.6638725" lon="9.998443"><ele>187.5</ele><time>2026-05-02T08:34:02.801Z</time></trkpt><trkpt lat="45.6637704" lon="9.9985669"><ele>187.25</ele><time>2026-05-02T08:34:03.802Z</time></trkpt><trkpt lat="45.6636608" lon="9.998679"><ele>187.0</ele><time>2026-05-02T08:34:04.801Z</time></trkpt><trkpt lat="45.6635417" lon="9.9987873"><ele>187.5</ele><time>2026-05-02T08:34:05.801Z</time></trkpt><trkpt lat="45.6634246" lon="9.9988997"><ele>188.0</ele><time>2026-05-02T08:34:06.801Z</time></trkpt><trkpt lat="45.6633123" lon="9.99902"><ele>188.5</ele><time>2026-05-02T08:34:07.801Z</time></trkpt><trkpt lat="45.6632015" lon="9.999142"><ele>189.0</ele><time>2026-05-02T08:34:08.801Z</time></trkpt><trkpt lat="45.6630952" lon="9.9992594"><ele>189.2</ele><time>2026-05-02T08:34:09.801Z</time></trkpt><trkpt lat="45.6629957" lon="9.999366"><ele>189.39999999999998</ele><time>2026-05-02T08:34:10.801Z</time></trkpt><trkpt lat="45.6629045" lon="9.9994602"><ele>189.6</ele><time>2026-05-02T08:34:11.801Z</time></trkpt><trkpt lat="45.6628206" lon="9.9995482"><ele>189.8</ele><time>2026-05-02T08:34:12.801Z</time></trkpt><trkpt lat="45.6627425" lon="9.9996292"><ele>190.0</ele><time>2026-05-02T08:34:13.801Z</time></trkpt><trkpt lat="45.6626656" lon="9.9997136"><ele>190.4</ele><time>2026-05-02T08:34:14.801Z</time></trkpt><trkpt lat="45.6625882" lon="9.9997976"><ele>190.8</ele><time>2026-05-02T08:34:15.801Z</time></trkpt><trkpt lat="45.6625102" lon="9.9998754"><ele>191.2</ele><time>2026-05-02T08:34:16.801Z</time></trkpt><trkpt lat="45.6624317" lon="9.9999573"><ele>191.6</ele><time>2026-05-02T08:34:17.801Z</time></trkpt><trkpt lat="45.6623572" lon="10.0000341"><ele>192.0</ele><time>2026-05-02T08:34:18.801Z</time></trkpt><trkpt lat="45.6622857" lon="10.0001086"><ele>192.0</ele><time>2026-05-02T08:34:19.801Z</time></trkpt><trkpt lat="45.662217" lon="10.0001801"><ele>192.0</ele><time>2026-05-02T08:34:20.801Z</time></trkpt><trkpt lat="45.6621492" lon="10.0002433"><ele>192.0</ele><time>2026-05-02T08:34:21.801Z</time></trkpt><trkpt lat="45.6620764" lon="10.000305"><ele>192.0</ele><time>2026-05-02T08:34:22.801Z</time></trkpt><trkpt lat="45.6620109" lon="10.0003665"><ele>192.0</ele><time>2026-05-02T08:34:23.801Z</time></trkpt><trkpt lat="45.661945" lon="10.0004376"><ele>192.0</ele><time>2026-05-02T08:34:24.801Z</time></trkpt><trkpt lat="45.661881" lon="10.0005097"><ele>192.6</ele><time>2026-05-02T08:34:25.801Z</time></trkpt><trkpt lat="45.6618167" lon="10.0005924"><ele>193.2</ele><time>2026-05-02T08:34:26.801Z</time></trkpt><trkpt lat="45.6617343" lon="10.0006803"><ele>193.8</ele><time>2026-05-02T08:34:27.801Z</time></trkpt><trkpt lat="45.6616415" lon="10.000787"><ele>194.4</ele><time>2026-05-02T08:34:28.801Z</time></trkpt><trkpt lat="45.6615393" lon="10.0009058"><ele>195.0</ele><time>2026-05-02T08:34:29.801Z</time></trkpt><trkpt lat="45.6614381" lon="10.0010247"><ele>195.0</ele><time>2026-05-02T08:34:30.801Z</time></trkpt><trkpt lat="45.6613418" lon="10.0011411"><ele>195.0</ele><time>2026-05-02T08:34:31.801Z</time></trkpt><trkpt lat="45.6612509" lon="10.001269"><ele>195.0</ele><time>2026-05-02T08:34:32.801Z</time></trkpt><trkpt lat="45.6611615" lon="10.0014121"><ele>195.0</ele><time>2026-05-02T08:34:33.801Z</time></trkpt><trkpt lat="45.6610784" lon="10.0015505"><ele>194.8</ele><time>2026-05-02T08:34:34.801Z</time></trkpt><trkpt lat="45.6610019" lon="10.0016822"><ele>194.6</ele><time>2026-05-02T08:34:35.801Z</time></trkpt><trkpt lat="45.6609307" lon="10.0018051"><ele>194.39999999999998</ele><time>2026-05-02T08:34:36.801Z</time></trkpt><trkpt lat="45.6608681" lon="10.0019195"><ele>194.2</ele><time>2026-05-02T08:34:37.801Z</time></trkpt><trkpt lat="45.660817" lon="10.0020295"><ele>194.0</ele><time>2026-05-02T08:34:38.801Z</time></trkpt><trkpt lat="45.6607711" lon="10.0021332"><ele>194.00000000000003</ele><time>2026-05-02T08:34:39.801Z</time></trkpt><trkpt lat="45.6607152" lon="10.002238"><ele>194.0</ele><time>2026-05-02T08:34:40.801Z</time></trkpt><trkpt lat="45.6606576" lon="10.0023402"><ele>194.0</ele><time>2026-05-02T08:34:41.801Z</time></trkpt><trkpt lat="45.6606025" lon="10.0024327"><ele>194.0</ele><time>2026-05-02T08:34:42.801Z</time></trkpt><trkpt lat="45.6605572" lon="10.0025112"><ele>194.00000000000003</ele><time>2026-05-02T08:34:43.801Z</time></trkpt><trkpt lat="45.6604947" lon="10.0026168"><ele>194.0</ele><time>2026-05-02T08:34:45.801Z</time></trkpt><trkpt lat="45.660451" lon="10.0026928"><ele>194.0</ele><time>2026-05-02T08:34:47.801Z</time></trkpt><trkpt lat="45.6603887" lon="10.0028046"><ele>194.0</ele><time>2026-05-02T08:34:49.801Z</time></trkpt><trkpt lat="45.6603123" lon="10.0029088"><ele>194.0</ele><time>2026-05-02T08:34:51.801Z</time></trkpt><trkpt lat="45.6602628" lon="10.0029663"><ele>194.0</ele><time>2026-05-02T08:34:53.801Z</time></trkpt><trkpt lat="45.6601782" lon="10.0030791"><ele>194.0</ele><time>2026-05-02T08:35:06.801Z</time></trkpt><trkpt lat="45.6601191" lon="10.0031537"><ele>194.2</ele><time>2026-05-02T08:35:07.801Z</time></trkpt><trkpt lat="45.6600537" lon="10.0032331"><ele>194.39999999999998</ele><time>2026-05-02T08:35:08.801Z</time></trkpt><trkpt lat="45.6599833" lon="10.0033153"><ele>194.6</ele><time>2026-05-02T08:35:09.801Z</time></trkpt><trkpt lat="45.6599077" lon="10.0034037"><ele>194.8</ele><time>2026-05-02T08:35:10.801Z</time></trkpt><trkpt lat="45.6598325" lon="10.0034961"><ele>195.0</ele><time>2026-05-02T08:35:11.801Z</time></trkpt><trkpt lat="45.6597663" lon="10.0035881"><ele>194.5</ele><time>2026-05-02T08:35:12.801Z</time></trkpt><trkpt lat="45.6596985" lon="10.003668"><ele>194.0</ele><time>2026-05-02T08:35:13.801Z</time></trkpt><trkpt lat="45.6596343" lon="10.0037416"><ele>193.5</ele><time>2026-05-02T08:35:14.801Z</time></trkpt><trkpt lat="45.6595736" lon="10.0038063"><ele>193.0</ele><time>2026-05-02T08:35:15.801Z</time></trkpt><trkpt lat="45.6595137" lon="10.0038834"><ele>192.5</ele><time>2026-05-02T08:35:16.801Z</time></trkpt><trkpt lat="45.6594537" lon="10.0039657"><ele>192.0</ele><time>2026-05-02T08:35:17.801Z</time></trkpt><trkpt lat="45.6593931" lon="10.0040477"><ele>192.0</ele><time>2026-05-02T08:35:18.801Z</time></trkpt><trkpt lat="45.6593363" lon="10.0041209"><ele>192.0</ele><time>2026-05-02T08:35:19.801Z</time></trkpt><trkpt lat="45.6592785" lon="10.0041968"><ele>192.0</ele><time>2026-05-02T08:35:20.801Z</time></trkpt><trkpt lat="45.6592127" lon="10.0042775"><ele>192.0</ele><time>2026-05-02T08:35:21.801Z</time></trkpt><trkpt lat="45.6591421" lon="10.0043622"><ele>192.0</ele><time>2026-05-02T08:35:22.801Z</time></trkpt><trkpt lat="45.6590655" lon="10.0044585"><ele>192.0</ele><time>2026-05-02T08:35:23.801Z</time></trkpt><trkpt lat="45.6589899" lon="10.0045639"><ele>191.8</ele><time>2026-05-02T08:35:24.801Z</time></trkpt><trkpt lat="45.6589241" lon="10.0046644"><ele>191.6</ele><time>2026-05-02T08:35:25.801Z</time></trkpt><trkpt lat="45.6588677" lon="10.0047577"><ele>191.4</ele><time>2026-05-02T08:35:26.801Z</time></trkpt><trkpt lat="45.6588123" lon="10.0048618"><ele>191.20000000000002</ele><time>2026-05-02T08:35:27.801Z</time></trkpt><trkpt lat="45.6587588" lon="10.0049629"><ele>191.0</ele><time>2026-05-02T08:35:28.801Z</time></trkpt><trkpt lat="45.6587051" lon="10.0050807"><ele>191.0</ele><time>2026-05-02T08:35:29.801Z</time></trkpt><trkpt lat="45.6586486" lon="10.0052047"><ele>191.0</ele><time>2026-05-02T08:35:30.801Z</time></trkpt><trkpt lat="45.6585926" lon="10.005338"><ele>191.0</ele><time>2026-05-02T08:35:31.801Z</time></trkpt><trkpt lat="45.6585308" lon="10.0054744"><ele>191.0</ele><time>2026-05-02T08:35:32.801Z</time></trkpt><trkpt lat="45.6584715" lon="10.0056053"><ele>191.0</ele><time>2026-05-02T08:35:33.801Z</time></trkpt><trkpt lat="45.6584224" lon="10.0057271"><ele>191.20000000000002</ele><time>2026-05-02T08:35:34.801Z</time></trkpt><trkpt lat="45.6583739" lon="10.0058458"><ele>191.4</ele><time>2026-05-02T08:35:35.801Z</time></trkpt><trkpt lat="45.6583271" lon="10.0059543"><ele>191.6</ele><time>2026-05-02T08:35:36.801Z</time></trkpt><trkpt lat="45.6582806" lon="10.0060632"><ele>191.8</ele><time>2026-05-02T08:35:37.801Z</time></trkpt><trkpt lat="45.6582311" lon="10.0061768"><ele>192.0</ele><time>2026-05-02T08:35:38.801Z</time></trkpt><trkpt lat="45.6581778" lon="10.0063028"><ele>192.0</ele><time>2026-05-02T08:35:39.801Z</time></trkpt><trkpt lat="45.6581175" lon="10.0064401"><ele>192.0</ele><time>2026-05-02T08:35:40.801Z</time></trkpt><trkpt lat="45.6580495" lon="10.0065804"><ele>192.0</ele><time>2026-05-02T08:35:41.801Z</time></trkpt><trkpt lat="45.6579757" lon="10.0067255"><ele>192.0</ele><time>2026-05-02T08:35:42.801Z</time></trkpt><trkpt lat="45.6578975" lon="10.0068724"><ele>191.75</ele><time>2026-05-02T08:35:43.801Z</time></trkpt><trkpt lat="45.6578129" lon="10.0070251"><ele>191.5</ele><time>2026-05-02T08:35:44.801Z</time></trkpt><trkpt lat="45.6577278" lon="10.0071705"><ele>191.25</ele><time>2026-05-02T08:35:45.8Z</time></trkpt><trkpt lat="45.6576383" lon="10.0073064"><ele>191.0</ele><time>2026-05-02T08:35:46.8Z</time></trkpt><trkpt lat="45.6575416" lon="10.0074341"><ele>192.25</ele><time>2026-05-02T08:35:47.8Z</time></trkpt><trkpt lat="45.657431" lon="10.0075504"><ele>193.5</ele><time>2026-05-02T08:35:48.8Z</time></trkpt><trkpt lat="45.6573222" lon="10.0076628"><ele>194.75</ele><time>2026-05-02T08:35:49.8Z</time></trkpt><trkpt lat="45.6572106" lon="10.0077697"><ele>196.0</ele><time>2026-05-02T08:35:50.8Z</time></trkpt><trkpt lat="45.6570932" lon="10.0078715"><ele>196.0</ele><time>2026-05-02T08:35:51.8Z</time></trkpt><trkpt lat="45.6569728" lon="10.0079835"><ele>196.0</ele><time>2026-05-02T08:35:52.8Z</time></trkpt><trkpt lat="45.6568565" lon="10.0080881"><ele>196.0</ele><time>2026-05-02T08:35:53.8Z</time></trkpt><trkpt lat="45.6567282" lon="10.0081943"><ele>196.0</ele><time>2026-05-02T08:35:54.8Z</time></trkpt><trkpt lat="45.6565959" lon="10.0083034"><ele>196.0</ele><time>2026-05-02T08:35:55.8Z</time></trkpt><trkpt lat="45.6564674" lon="10.0084045"><ele>196.0</ele><time>2026-05-02T08:35:56.8Z</time></trkpt><trkpt lat="45.6563502" lon="10.0085092"><ele>196.0</ele><time>2026-05-02T08:35:57.8Z</time></trkpt><trkpt lat="45.6562327" lon="10.0086086"><ele>196.0</ele><time>2026-05-02T08:35:58.8Z</time></trkpt><trkpt lat="45.6561138" lon="10.0087117"><ele>195.5</ele><time>2026-05-02T08:35:59.8Z</time></trkpt><trkpt lat="45.6559968" lon="10.008815"><ele>195.0</ele><time>2026-05-02T08:36:00.8Z</time></trkpt><trkpt lat="45.6558789" lon="10.0089187"><ele>194.5</ele><time>2026-05-02T08:36:01.8Z</time></trkpt><trkpt lat="45.6557659" lon="10.0090291"><ele>194.0</ele><time>2026-05-02T08:36:02.8Z</time></trkpt><trkpt lat="45.655662" lon="10.0091426"><ele>194.5</ele><time>2026-05-02T08:36:03.8Z</time></trkpt><trkpt lat="45.6555565" lon="10.0092657"><ele>195.0</ele><time>2026-05-02T08:36:04.8Z</time></trkpt><trkpt lat="45.6554651" lon="10.0093925"><ele>195.5</ele><time>2026-05-02T08:36:05.8Z</time></trkpt><trkpt lat="45.6553806" lon="10.0095431"><ele>196.0</ele><time>2026-05-02T08:36:06.8Z</time></trkpt><trkpt lat="45.6553074" lon="10.0097178"><ele>195.33333333333331</ele><time>2026-05-02T08:36:07.8Z</time></trkpt><trkpt lat="45.6552496" lon="10.0099316"><ele>194.66666666666669</ele><time>2026-05-02T08:36:08.8Z</time></trkpt><trkpt lat="45.6551987" lon="10.0102016"><ele>194.0</ele><time>2026-05-02T08:36:09.8Z</time></trkpt><trkpt lat="45.6551462" lon="10.0105264"><ele>192.5</ele><time>2026-05-02T08:36:10.8Z</time></trkpt><trkpt lat="45.6550789" lon="10.0108694"><ele>191.0</ele><time>2026-05-02T08:36:11.8Z</time></trkpt><trkpt lat="45.6550144" lon="10.0112196"><ele>191.0</ele><time>2026-05-02T08:36:12.8Z</time></trkpt><trkpt lat="45.6549552" lon="10.0115569"><ele>191.0</ele><time>2026-05-02T08:36:13.8Z</time></trkpt><trkpt lat="45.6549" lon="10.0118946"><ele>191.0</ele><time>2026-05-02T08:36:14.8Z</time></trkpt><trkpt lat="45.6548383" lon="10.0122325"><ele>191.0</ele><time>2026-05-02T08:36:15.8Z</time></trkpt><trkpt lat="45.6547856" lon="10.0125561"><ele>190.5</ele><time>2026-05-02T08:36:16.8Z</time></trkpt><trkpt lat="45.6547377" lon="10.0128784"><ele>190.0</ele><time>2026-05-02T08:36:17.8Z</time></trkpt><trkpt lat="45.6546876" lon="10.0132011"><ele>189.33333333333334</ele><time>2026-05-02T08:36:18.8Z</time></trkpt><trkpt lat="45.6546377" lon="10.0135124"><ele>188.66666666666666</ele><time>2026-05-02T08:36:19.8Z</time></trkpt><trkpt lat="45.6545915" lon="10.0138171"><ele>188.0</ele><time>2026-05-02T08:36:20.8Z</time></trkpt><trkpt lat="45.6545474" lon="10.0141165"><ele>187.33333333333331</ele><time>2026-05-02T08:36:21.8Z</time></trkpt><trkpt lat="45.654498" lon="10.0144241"><ele>186.66666666666666</ele><time>2026-05-02T08:36:22.8Z</time></trkpt><trkpt lat="45.654453" lon="10.0147234"><ele>186.0</ele><time>2026-05-02T08:36:23.8Z</time></trkpt><trkpt lat="45.6544093" lon="10.0150349"><ele>186.66666666666666</ele><time>2026-05-02T08:36:24.8Z</time></trkpt><trkpt lat="45.6543648" lon="10.0153288"><ele>187.33333333333331</ele><time>2026-05-02T08:36:25.8Z</time></trkpt><trkpt lat="45.6543164" lon="10.015625"><ele>188.0</ele><time>2026-05-02T08:36:26.8Z</time></trkpt><trkpt lat="45.6542718" lon="10.0159224"><ele>188.0</ele><time>2026-05-02T08:36:27.8Z</time></trkpt><trkpt lat="45.6542233" lon="10.016214"><ele>188.0</ele><time>2026-05-02T08:36:28.8Z</time></trkpt><trkpt lat="45.6541799" lon="10.0165051"><ele>188.0</ele><time>2026-05-02T08:36:29.8Z</time></trkpt><trkpt lat="45.6541257" lon="10.0167999"><ele>187.66666666666666</ele><time>2026-05-02T08:36:30.8Z</time></trkpt><trkpt lat="45.6540719" lon="10.0170862"><ele>187.33333333333334</ele><time>2026-05-02T08:36:31.8Z</time></trkpt><trkpt lat="45.654017" lon="10.0173673"><ele>187.0</ele><time>2026-05-02T08:36:32.8Z</time></trkpt><trkpt lat="45.6539507" lon="10.0176514"><ele>187.0</ele><time>2026-05-02T08:36:33.8Z</time></trkpt><trkpt lat="45.653863" lon="10.0179202"><ele>187.0</ele><time>2026-05-02T08:36:34.8Z</time></trkpt><trkpt lat="45.6537553" lon="10.0181842"><ele>187.0</ele><time>2026-05-02T08:36:35.8Z</time></trkpt><trkpt lat="45.6536381" lon="10.0184378"><ele>187.33333333333334</ele><time>2026-05-02T08:36:36.8Z</time></trkpt><trkpt lat="45.653497" lon="10.0186805"><ele>187.66666666666666</ele><time>2026-05-02T08:36:37.8Z</time></trkpt><trkpt lat="45.6533513" lon="10.0189262"><ele>188.0</ele><time>2026-05-02T08:36:38.8Z</time></trkpt><trkpt lat="45.6532186" lon="10.0191689"><ele>188.33333333333331</ele><time>2026-05-02T08:36:39.8Z</time></trkpt><trkpt lat="45.6530831" lon="10.0194114"><ele>188.66666666666666</ele><time>2026-05-02T08:36:40.8Z</time></trkpt><trkpt lat="45.65295" lon="10.0196546"><ele>189.0</ele><time>2026-05-02T08:36:41.8Z</time></trkpt><trkpt lat="45.6528235" lon="10.0198978"><ele>189.0</ele><time>2026-05-02T08:36:42.8Z</time></trkpt><trkpt lat="45.652703" lon="10.0201336"><ele>189.0</ele><time>2026-05-02T08:36:43.8Z</time></trkpt><trkpt lat="45.6525844" lon="10.0203562"><ele>189.0</ele><time>2026-05-02T08:36:44.8Z</time></trkpt><trkpt lat="45.652466" lon="10.0205772"><ele>189.0</ele><time>2026-05-02T08:36:45.8Z</time></trkpt><trkpt lat="45.6523534" lon="10.0207977"><ele>189.0</ele><time>2026-05-02T08:36:46.8Z</time></trkpt><trkpt lat="45.6522419" lon="10.0210108"><ele>189.0</ele><time>2026-05-02T08:36:47.8Z</time></trkpt><trkpt lat="45.6521349" lon="10.0212136"><ele>189.0</ele><time>2026-05-02T08:36:48.8Z</time></trkpt><trkpt lat="45.6520295" lon="10.0214095"><ele>189.0</ele><time>2026-05-02T08:36:49.8Z</time></trkpt><trkpt lat="45.6519336" lon="10.0215901"><ele>189.0</ele><time>2026-05-02T08:36:50.8Z</time></trkpt><trkpt lat="45.6518518" lon="10.0217427"><ele>189.2</ele><time>2026-05-02T08:36:51.8Z</time></trkpt><trkpt lat="45.651764" lon="10.0218709"><ele>189.39999999999998</ele><time>2026-05-02T08:36:52.8Z</time></trkpt><trkpt lat="45.6516705" lon="10.0219558"><ele>189.6</ele><time>2026-05-02T08:36:53.8Z</time></trkpt><trkpt lat="45.6515746" lon="10.0219919"><ele>189.8</ele><time>2026-05-02T08:36:54.8Z</time></trkpt><trkpt lat="45.6514763" lon="10.0219963"><ele>190.0</ele><time>2026-05-02T08:36:55.8Z</time></trkpt><trkpt lat="45.6513848" lon="10.0219996"><ele>190.0</ele><time>2026-05-02T08:36:56.8Z</time></trkpt><trkpt lat="45.6513111" lon="10.0220321"><ele>190.0</ele><time>2026-05-02T08:36:57.8Z</time></trkpt><trkpt lat="45.6512559" lon="10.0220963"><ele>190.0</ele><time>2026-05-02T08:36:58.8Z</time></trkpt><trkpt lat="45.6512298" lon="10.0222041"><ele>190.0</ele><time>2026-05-02T08:36:59.8Z</time></trkpt><trkpt lat="45.651245" lon="10.0223443"><ele>190.0</ele><time>2026-05-02T08:37:00.8Z</time></trkpt><trkpt lat="45.6512931" lon="10.0224856"><ele>190.0</ele><time>2026-05-02T08:37:01.8Z</time></trkpt><trkpt lat="45.6513762" lon="10.0226328"><ele>189.25</ele><time>2026-05-02T08:37:02.8Z</time></trkpt><trkpt lat="45.6514576" lon="10.0227763"><ele>188.5</ele><time>2026-05-02T08:37:03.8Z</time></trkpt><trkpt lat="45.6515039" lon="10.0229277"><ele>187.75</ele><time>2026-05-02T08:37:04.8Z</time></trkpt><trkpt lat="45.6515269" lon="10.0230928"><ele>187.0</ele><time>2026-05-02T08:37:05.8Z</time></trkpt><trkpt lat="45.6515444" lon="10.0232614"><ele>187.0</ele><time>2026-05-02T08:37:06.8Z</time></trkpt><trkpt lat="45.6515536" lon="10.0234306"><ele>187.0</ele><time>2026-05-02T08:37:07.8Z</time></trkpt><trkpt lat="45.6515671" lon="10.0235857"><ele>187.0</ele><time>2026-05-02T08:37:08.8Z</time></trkpt><trkpt lat="45.6515836" lon="10.0237427"><ele>187.0</ele><time>2026-05-02T08:37:09.8Z</time></trkpt><trkpt lat="45.6516056" lon="10.0239135"><ele>187.0</ele><time>2026-05-02T08:37:10.8Z</time></trkpt><trkpt lat="45.6516479" lon="10.0240773"><ele>187.0</ele><time>2026-05-02T08:37:11.8Z</time></trkpt><trkpt lat="45.6517088" lon="10.0242389"><ele>187.0</ele><time>2026-05-02T08:37:12.8Z</time></trkpt><trkpt lat="45.6517838" lon="10.0244218"><ele>187.0</ele><time>2026-05-02T08:37:13.8Z</time></trkpt><trkpt lat="45.6518598" lon="10.0246302"><ele>187.33333333333334</ele><time>2026-05-02T08:37:14.8Z</time></trkpt><trkpt lat="45.6519406" lon="10.0248503"><ele>187.66666666666666</ele><time>2026-05-02T08:37:15.8Z</time></trkpt><trkpt lat="45.6520175" lon="10.0250682"><ele>188.0</ele><time>2026-05-02T08:37:16.8Z</time></trkpt><trkpt lat="45.6520954" lon="10.0252765"><ele>188.0</ele><time>2026-05-02T08:37:17.8Z</time></trkpt><trkpt lat="45.6521716" lon="10.025485"><ele>188.0</ele><time>2026-05-02T08:37:18.8Z</time></trkpt><trkpt lat="45.6522534" lon="10.0257"><ele>188.0</ele><time>2026-05-02T08:37:19.8Z</time></trkpt><trkpt lat="45.6523353" lon="10.0259252"><ele>188.0</ele><time>2026-05-02T08:37:20.8Z</time></trkpt><trkpt lat="45.6524148" lon="10.0261559"><ele>188.0</ele><time>2026-05-02T08:37:21.8Z</time></trkpt><trkpt lat="45.6525026" lon="10.0263939"><ele>188.0</ele><time>2026-05-02T08:37:22.8Z</time></trkpt><trkpt lat="45.652593" lon="10.0266308"><ele>187.66666666666666</ele><time>2026-05-02T08:37:23.8Z</time></trkpt><trkpt lat="45.6526836" lon="10.0268588"><ele>187.33333333333334</ele><time>2026-05-02T08:37:24.8Z</time></trkpt><trkpt lat="45.6527633" lon="10.0270819"><ele>187.0</ele><time>2026-05-02T08:37:25.8Z</time></trkpt><trkpt lat="45.6528393" lon="10.0273112"><ele>188.66666666666669</ele><time>2026-05-02T08:37:26.8Z</time></trkpt><trkpt lat="45.6529239" lon="10.0275471"><ele>190.33333333333334</ele><time>2026-05-02T08:37:27.8Z</time></trkpt><trkpt lat="45.6530105" lon="10.0277736"><ele>192.0</ele><time>2026-05-02T08:37:28.8Z</time></trkpt><trkpt lat="45.6530947" lon="10.0280015"><ele>192.0</ele><time>2026-05-02T08:37:29.8Z</time></trkpt><trkpt lat="45.6531801" lon="10.0282396"><ele>192.0</ele><time>2026-05-02T08:37:30.8Z</time></trkpt><trkpt lat="45.6532534" lon="10.0284811"><ele>192.0</ele><time>2026-05-02T08:37:31.8Z</time></trkpt><trkpt lat="45.653342" lon="10.0287251"><ele>191.33333333333334</ele><time>2026-05-02T08:37:32.8Z</time></trkpt><trkpt lat="45.6534187" lon="10.0289571"><ele>190.66666666666669</ele><time>2026-05-02T08:37:33.8Z</time></trkpt><trkpt lat="45.6534944" lon="10.0291723"><ele>190.0</ele><time>2026-05-02T08:37:34.8Z</time></trkpt><trkpt lat="45.6535712" lon="10.0293674"><ele>190.66666666666669</ele><time>2026-05-02T08:37:35.8Z</time></trkpt><trkpt lat="45.6536403" lon="10.0295579"><ele>191.33333333333334</ele><time>2026-05-02T08:37:36.8Z</time></trkpt><trkpt lat="45.6537143" lon="10.0297497"><ele>192.0</ele><time>2026-05-02T08:37:37.8Z</time></trkpt><trkpt lat="45.6537772" lon="10.0299399"><ele>191.0</ele><time>2026-05-02T08:37:38.8Z</time></trkpt><trkpt lat="45.6538356" lon="10.0301218"><ele>190.0</ele><time>2026-05-02T08:37:39.8Z</time></trkpt><trkpt lat="45.6538861" lon="10.0303068"><ele>189.0</ele><time>2026-05-02T08:37:40.8Z</time></trkpt><trkpt lat="45.6539327" lon="10.0304916"><ele>188.0</ele><time>2026-05-02T08:37:41.8Z</time></trkpt><trkpt lat="45.6539721" lon="10.0306752"><ele>187.25</ele><time>2026-05-02T08:37:42.8Z</time></trkpt><trkpt lat="45.6540024" lon="10.0308538"><ele>186.5</ele><time>2026-05-02T08:37:43.8Z</time></trkpt><trkpt lat="45.6540301" lon="10.0310369"><ele>185.75</ele><time>2026-05-02T08:37:44.8Z</time></trkpt><trkpt lat="45.6540674" lon="10.0312373"><ele>185.0</ele><time>2026-05-02T08:37:45.8Z</time></trkpt><trkpt lat="45.6541091" lon="10.0314498"><ele>185.33333333333331</ele><time>2026-05-02T08:37:46.8Z</time></trkpt><trkpt lat="45.6541425" lon="10.0316762"><ele>185.66666666666666</ele><time>2026-05-02T08:37:47.8Z</time></trkpt><trkpt lat="45.6541727" lon="10.0319131"><ele>186.0</ele><time>2026-05-02T08:37:48.8Z</time></trkpt><trkpt lat="45.6542022" lon="10.0321399"><ele>186.0</ele><time>2026-05-02T08:37:49.8Z</time></trkpt><trkpt lat="45.6542317" lon="10.0323565"><ele>186.0</ele><time>2026-05-02T08:37:50.8Z</time></trkpt><trkpt lat="45.6542611" lon="10.0325555"><ele>186.0</ele><time>2026-05-02T08:37:51.8Z</time></trkpt><trkpt lat="45.6543001" lon="10.0327407"><ele>186.0</ele><time>2026-05-02T08:37:52.8Z</time></trkpt><trkpt lat="45.654345" lon="10.0329179"><ele>186.0</ele><time>2026-05-02T08:37:53.8Z</time></trkpt><trkpt lat="45.6543978" lon="10.0330846"><ele>186.0</ele><time>2026-05-02T08:37:54.8Z</time></trkpt><trkpt lat="45.6544628" lon="10.0332416"><ele>186.0</ele><time>2026-05-02T08:37:55.8Z</time></trkpt><trkpt lat="45.6545334" lon="10.0333934"><ele>186.0</ele><time>2026-05-02T08:37:56.8Z</time></trkpt><trkpt lat="45.654607" lon="10.0335308"><ele>186.0</ele><time>2026-05-02T08:37:57.8Z</time></trkpt><trkpt lat="45.6546795" lon="10.0336621"><ele>186.0</ele><time>2026-05-02T08:37:58.8Z</time></trkpt><trkpt lat="45.6547529" lon="10.0337862"><ele>186.0</ele><time>2026-05-02T08:37:59.8Z</time></trkpt><trkpt lat="45.6548217" lon="10.0339212"><ele>186.0</ele><time>2026-05-02T08:38:00.8Z</time></trkpt><trkpt lat="45.6548908" lon="10.0340695"><ele>185.66666666666666</ele><time>2026-05-02T08:38:01.8Z</time></trkpt><trkpt lat="45.6549588" lon="10.0342446"><ele>185.33333333333331</ele><time>2026-05-02T08:38:02.8Z</time></trkpt><trkpt lat="45.6550184" lon="10.0344523"><ele>185.0</ele><time>2026-05-02T08:38:03.8Z</time></trkpt><trkpt lat="45.6550763" lon="10.0346837"><ele>185.0</ele><time>2026-05-02T08:38:04.8Z</time></trkpt><trkpt lat="45.6551317" lon="10.0349241"><ele>185.0</ele><time>2026-05-02T08:38:05.8Z</time></trkpt><trkpt lat="45.6551686" lon="10.0351739"><ele>185.0</ele><time>2026-05-02T08:38:06.8Z</time></trkpt><trkpt lat="45.6551874" lon="10.0354275"><ele>185.0</ele><time>2026-05-02T08:38:07.8Z</time></trkpt><trkpt lat="45.6551894" lon="10.0356769"><ele>185.0</ele><time>2026-05-02T08:38:08.8Z</time></trkpt><trkpt lat="45.6551779" lon="10.0359288"><ele>185.0</ele><time>2026-05-02T08:38:09.8Z</time></trkpt><trkpt lat="45.6551588" lon="10.0361942"><ele>185.0</ele><time>2026-05-02T08:38:10.8Z</time></trkpt><trkpt lat="45.6551266" lon="10.0364696"><ele>185.0</ele><time>2026-05-02T08:38:11.8Z</time></trkpt><trkpt lat="45.6550693" lon="10.0367425"><ele>185.0</ele><time>2026-05-02T08:38:12.8Z</time></trkpt><trkpt lat="45.6549899" lon="10.0370068"><ele>185.33333333333331</ele><time>2026-05-02T08:38:13.8Z</time></trkpt><trkpt lat="45.6549016" lon="10.0372578"><ele>185.66666666666666</ele><time>2026-05-02T08:38:14.8Z</time></trkpt><trkpt lat="45.6548087" lon="10.0375023"><ele>186.0</ele><time>2026-05-02T08:38:15.8Z</time></trkpt><trkpt lat="45.6547019" lon="10.0377435"><ele>186.0</ele><time>2026-05-02T08:38:16.8Z</time></trkpt><trkpt lat="45.654578" lon="10.0379758"><ele>186.0</ele><time>2026-05-02T08:38:17.8Z</time></trkpt><trkpt lat="45.6544506" lon="10.0381992"><ele>186.0</ele><time>2026-05-02T08:38:18.8Z</time></trkpt><trkpt lat="45.6543126" lon="10.0384037"><ele>186.0</ele><time>2026-05-02T08:38:19.8Z</time></trkpt><trkpt lat="45.6541547" lon="10.038601"><ele>186.0</ele><time>2026-05-02T08:38:20.8Z</time></trkpt><trkpt lat="45.6539958" lon="10.0387806"><ele>186.0</ele><time>2026-05-02T08:38:21.8Z</time></trkpt><trkpt lat="45.6538393" lon="10.0389382"><ele>186.0</ele><time>2026-05-02T08:38:22.8Z</time></trkpt><trkpt lat="45.6536934" lon="10.0390815"><ele>186.0</ele><time>2026-05-02T08:38:23.8Z</time></trkpt><trkpt lat="45.6535536" lon="10.0392061"><ele>186.0</ele><time>2026-05-02T08:38:24.8Z</time></trkpt><trkpt lat="45.6534051" lon="10.039326"><ele>185.66666666666666</ele><time>2026-05-02T08:38:25.8Z</time></trkpt><trkpt lat="45.6532499" lon="10.0394389"><ele>185.33333333333331</ele><time>2026-05-02T08:38:26.8Z</time></trkpt><trkpt lat="45.65309" lon="10.0395539"><ele>185.0</ele><time>2026-05-02T08:38:27.801Z</time></trkpt><trkpt lat="45.6529212" lon="10.0396652"><ele>184.66666666666666</ele><time>2026-05-02T08:38:28.8Z</time></trkpt><trkpt lat="45.6527489" lon="10.0397769"><ele>184.33333333333334</ele><time>2026-05-02T08:38:29.8Z</time></trkpt><trkpt lat="45.6525749" lon="10.0398942"><ele>184.0</ele><time>2026-05-02T08:38:30.8Z</time></trkpt><trkpt lat="45.6523976" lon="10.040015"><ele>184.66666666666669</ele><time>2026-05-02T08:38:31.8Z</time></trkpt><trkpt lat="45.6522133" lon="10.0401351"><ele>185.33333333333334</ele><time>2026-05-02T08:38:32.8Z</time></trkpt><trkpt lat="45.6520226" lon="10.0402427"><ele>186.0</ele><time>2026-05-02T08:38:33.8Z</time></trkpt><trkpt lat="45.6518354" lon="10.0403451"><ele>186.33333333333334</ele><time>2026-05-02T08:38:34.8Z</time></trkpt><trkpt lat="45.6516639" lon="10.040456"><ele>186.66666666666669</ele><time>2026-05-02T08:38:35.8Z</time></trkpt><trkpt lat="45.6515058" lon="10.0405559"><ele>187.0</ele><time>2026-05-02T08:38:36.8Z</time></trkpt><trkpt lat="45.6513611" lon="10.0406552"><ele>187.0</ele><time>2026-05-02T08:38:37.8Z</time></trkpt><trkpt lat="45.6512311" lon="10.0407502"><ele>187.0</ele><time>2026-05-02T08:38:38.8Z</time></trkpt><trkpt lat="45.6511053" lon="10.0408515"><ele>187.0</ele><time>2026-05-02T08:38:39.8Z</time></trkpt><trkpt lat="45.6509823" lon="10.040945"><ele>187.0</ele><time>2026-05-02T08:38:40.8Z</time></trkpt><trkpt lat="45.650848" lon="10.0410437"><ele>186.0</ele><time>2026-05-02T08:38:41.8Z</time></trkpt><trkpt lat="45.6507162" lon="10.0411365"><ele>185.0</ele><time>2026-05-02T08:38:42.8Z</time></trkpt><trkpt lat="45.6505765" lon="10.0412357"><ele>184.0</ele><time>2026-05-02T08:38:43.8Z</time></trkpt><trkpt lat="45.6504391" lon="10.0413367"><ele>184.0</ele><time>2026-05-02T08:38:44.8Z</time></trkpt><trkpt lat="45.6503004" lon="10.0414369"><ele>184.0</ele><time>2026-05-02T08:38:45.8Z</time></trkpt><trkpt lat="45.6501539" lon="10.0415345"><ele>184.0</ele><time>2026-05-02T08:38:46.8Z</time></trkpt><trkpt lat="45.650004" lon="10.0416324"><ele>185.0</ele><time>2026-05-02T08:38:47.8Z</time></trkpt><trkpt lat="45.6498518" lon="10.0417501"><ele>186.0</ele><time>2026-05-02T08:38:48.8Z</time></trkpt><trkpt lat="45.6496929" lon="10.0418616"><ele>187.0</ele><time>2026-05-02T08:38:49.8Z</time></trkpt><trkpt lat="45.6495321" lon="10.0419614"><ele>187.0</ele><time>2026-05-02T08:38:50.8Z</time></trkpt><trkpt lat="45.6493629" lon="10.0420685"><ele>187.0</ele><time>2026-05-02T08:38:51.8Z</time></trkpt><trkpt lat="45.6491959" lon="10.0421915"><ele>187.0</ele><time>2026-05-02T08:38:52.8Z</time></trkpt><trkpt lat="45.6490285" lon="10.0423356"><ele>186.33333333333334</ele><time>2026-05-02T08:38:53.8Z</time></trkpt><trkpt lat="45.6488646" lon="10.0425022"><ele>185.66666666666666</ele><time>2026-05-02T08:38:54.8Z</time></trkpt><trkpt lat="45.6487109" lon="10.0426864"><ele>185.0</ele><time>2026-05-02T08:38:55.8Z</time></trkpt><trkpt lat="45.648575" lon="10.042877"><ele>186.66666666666666</ele><time>2026-05-02T08:38:56.8Z</time></trkpt><trkpt lat="45.6484417" lon="10.0430627"><ele>188.33333333333334</ele><time>2026-05-02T08:38:57.8Z</time></trkpt><trkpt lat="45.6483207" lon="10.0432321"><ele>190.0</ele><time>2026-05-02T08:38:58.8Z</time></trkpt><trkpt lat="45.6482061" lon="10.0434"><ele>191.33333333333334</ele><time>2026-05-02T08:38:59.8Z</time></trkpt><trkpt lat="45.6480895" lon="10.0435615"><ele>192.66666666666669</ele><time>2026-05-02T08:39:00.799Z</time></trkpt><trkpt lat="45.6479771" lon="10.0437213"><ele>194.0</ele><time>2026-05-02T08:39:01.8Z</time></trkpt><trkpt lat="45.6478622" lon="10.0438795"><ele>241.0</ele><time>2026-05-02T08:39:02.8Z</time></trkpt><trkpt lat="45.6539983" lon="10.0578467"><ele>241.0</ele><time>2026-05-02T08:39:59.813Z</time></trkpt><trkpt lat="45.6540801" lon="10.0581052"><ele>241.0</ele><time>2026-05-02T08:40:00.813Z</time></trkpt><trkpt lat="45.6542571" lon="10.0584405"><ele>240.5</ele><time>2026-05-02T08:40:01.813Z</time></trkpt><trkpt lat="45.6544181" lon="10.0587111"><ele>240.0</ele><time>2026-05-02T08:40:02.813Z</time></trkpt><trkpt lat="45.65456" lon="10.0589745"><ele>244.33333333333331</ele><time>2026-05-02T08:40:03.814Z</time></trkpt><trkpt lat="45.6547006" lon="10.0592319"><ele>248.66666666666666</ele><time>2026-05-02T08:40:04.813Z</time></trkpt><trkpt lat="45.6548315" lon="10.0594789"><ele>253.0</ele><time>2026-05-02T08:40:05.813Z</time></trkpt><trkpt lat="45.6549588" lon="10.0597137"><ele>253.0</ele><time>2026-05-02T08:40:06.813Z</time></trkpt><trkpt lat="45.6550823" lon="10.0599394"><ele>253.0</ele><time>2026-05-02T08:40:07.813Z</time></trkpt><trkpt lat="45.6552044" lon="10.0601629"><ele>253.0</ele><time>2026-05-02T08:40:08.813Z</time></trkpt><trkpt lat="45.6553067" lon="10.0603893"><ele>253.0</ele><time>2026-05-02T08:40:09.813Z</time></trkpt><trkpt lat="45.6554034" lon="10.0606003"><ele>253.0</ele><time>2026-05-02T08:40:10.813Z</time></trkpt><trkpt lat="45.6554951" lon="10.0607936"><ele>253.0</ele><time>2026-05-02T08:40:11.813Z</time></trkpt><trkpt lat="45.6555885" lon="10.0609609"><ele>254.5</ele><time>2026-05-02T08:40:12.813Z</time></trkpt><trkpt lat="45.6556738" lon="10.061113"><ele>256.0</ele><time>2026-05-02T08:40:13.813Z</time></trkpt><trkpt lat="45.6557495" lon="10.0612603"><ele>257.5</ele><time>2026-05-02T08:40:14.813Z</time></trkpt><trkpt lat="45.6558102" lon="10.0613906"><ele>259.0</ele><time>2026-05-02T08:40:15.813Z</time></trkpt><trkpt lat="45.6558579" lon="10.0615055"><ele>259.0</ele><time>2026-05-02T08:40:16.813Z</time></trkpt><trkpt lat="45.6558961" lon="10.0615997"><ele>259.0</ele><time>2026-05-02T08:40:17.813Z</time></trkpt><trkpt lat="45.6559344" lon="10.0617309"><ele>259.0</ele><time>2026-05-02T08:40:19.813Z</time></trkpt><trkpt lat="45.6559784" lon="10.0618517"><ele>259.0</ele><time>2026-05-02T08:40:22.813Z</time></trkpt><trkpt lat="45.6560584" lon="10.0619783"><ele>259.0</ele><time>2026-05-02T08:40:24.813Z</time></trkpt><trkpt lat="45.6561153" lon="10.0620583"><ele>258.2</ele><time>2026-05-02T08:40:25.813Z</time></trkpt><trkpt lat="45.656191" lon="10.0621355"><ele>257.4</ele><time>2026-05-02T08:40:26.813Z</time></trkpt><trkpt lat="45.6562725" lon="10.0622114"><ele>256.6</ele><time>2026-05-02T08:40:27.813Z</time></trkpt><trkpt lat="45.6563613" lon="10.0622668"><ele>255.8</ele><time>2026-05-02T08:40:28.813Z</time></trkpt><trkpt lat="45.6564731" lon="10.0622836"><ele>255.0</ele><time>2026-05-02T08:40:29.813Z</time></trkpt><trkpt lat="45.6566015" lon="10.0622944"><ele>255.0</ele><time>2026-05-02T08:40:30.813Z</time></trkpt><trkpt lat="45.6567403" lon="10.0623331"><ele>255.0</ele><time>2026-05-02T08:40:31.813Z</time></trkpt><trkpt lat="45.656891" lon="10.0623821"><ele>255.0</ele><time>2026-05-02T08:40:32.813Z</time></trkpt><trkpt lat="45.6570409" lon="10.0624471"><ele>258.0</ele><time>2026-05-02T08:40:33.813Z</time></trkpt><trkpt lat="45.6571904" lon="10.0625284"><ele>261.0</ele><time>2026-05-02T08:40:34.814Z</time></trkpt><trkpt lat="45.6573353" lon="10.0626214"><ele>264.0</ele><time>2026-05-02T08:40:35.813Z</time></trkpt><trkpt lat="45.657475" lon="10.0627107"><ele>264.0</ele><time>2026-05-02T08:40:36.813Z</time></trkpt><trkpt lat="45.6576152" lon="10.0627668"><ele>264.0</ele><time>2026-05-02T08:40:37.813Z</time></trkpt><trkpt lat="45.6577556" lon="10.062813"><ele>264.0</ele><time>2026-05-02T08:40:38.813Z</time></trkpt><trkpt lat="45.6578959" lon="10.0628429"><ele>264.0</ele><time>2026-05-02T08:40:39.813Z</time></trkpt><trkpt lat="45.6580326" lon="10.0628665"><ele>261.25</ele><time>2026-05-02T08:40:40.813Z</time></trkpt><trkpt lat="45.6581743" lon="10.0628877"><ele>258.5</ele><time>2026-05-02T08:40:41.813Z</time></trkpt><trkpt lat="45.6583161" lon="10.0628998"><ele>255.75</ele><time>2026-05-02T08:40:42.813Z</time></trkpt><trkpt lat="45.6584577" lon="10.0629091"><ele>253.0</ele><time>2026-05-02T08:40:43.813Z</time></trkpt><trkpt lat="45.658597" lon="10.0629024"><ele>249.75</ele><time>2026-05-02T08:40:44.813Z</time></trkpt><trkpt lat="45.6587332" lon="10.0629035"><ele>246.5</ele><time>2026-05-02T08:40:45.813Z</time></trkpt><trkpt lat="45.6588686" lon="10.0629017"><ele>243.25</ele><time>2026-05-02T08:40:46.813Z</time></trkpt><trkpt lat="45.6590059" lon="10.0628968"><ele>240.0</ele><time>2026-05-02T08:40:47.813Z</time></trkpt><trkpt lat="45.6591402" lon="10.0628945"><ele>240.0</ele><time>2026-05-02T08:40:48.813Z</time></trkpt><trkpt lat="45.6592655" lon="10.0628929"><ele>240.0</ele><time>2026-05-02T08:40:49.813Z</time></trkpt><trkpt lat="45.6593883" lon="10.0628952"><ele>240.0</ele><time>2026-05-02T08:40:50.813Z</time></trkpt><trkpt lat="45.6595104" lon="10.0628944"><ele>240.0</ele><time>2026-05-02T08:40:51.813Z</time></trkpt><trkpt lat="45.6596352" lon="10.0628941"><ele>237.75</ele><time>2026-05-02T08:40:52.813Z</time></trkpt><trkpt lat="45.6597545" lon="10.0628989"><ele>235.5</ele><time>2026-05-02T08:40:53.813Z</time></trkpt><trkpt lat="45.6598713" lon="10.0629037"><ele>233.25</ele><time>2026-05-02T08:40:54.813Z</time></trkpt><trkpt lat="45.6599937" lon="10.0629066"><ele>231.0</ele><time>2026-05-02T08:40:55.813Z</time></trkpt><trkpt lat="45.6601119" lon="10.0629023"><ele>231.0</ele><time>2026-05-02T08:40:56.813Z</time></trkpt><trkpt lat="45.6602276" lon="10.0628978"><ele>231.00000000000003</ele><time>2026-05-02T08:40:57.813Z</time></trkpt><trkpt lat="45.6603385" lon="10.0628964"><ele>231.00000000000003</ele><time>2026-05-02T08:40:58.813Z</time></trkpt><trkpt lat="45.660443" lon="10.0628996"><ele>231.0</ele><time>2026-05-02T08:40:59.813Z</time></trkpt><trkpt lat="45.6605334" lon="10.0629226"><ele>231.0</ele><time>2026-05-02T08:41:00.813Z</time></trkpt><trkpt lat="45.6606069" lon="10.0629575"><ele>230.8</ele><time>2026-05-02T08:41:01.813Z</time></trkpt><trkpt lat="45.6606631" lon="10.0630103"><ele>230.60000000000002</ele><time>2026-05-02T08:41:02.813Z</time></trkpt><trkpt lat="45.6607042" lon="10.063142"><ele>230.4</ele><time>2026-05-02T08:41:04.813Z</time></trkpt><trkpt lat="45.6606408" lon="10.0632464"><ele>230.2</ele><time>2026-05-02T08:41:06.813Z</time></trkpt><trkpt lat="45.6605169" lon="10.0632817"><ele>230.0</ele><time>2026-05-02T08:41:08.813Z</time></trkpt><trkpt lat="45.6604523" lon="10.063308"><ele>230.66666666666669</ele><time>2026-05-02T08:41:09.813Z</time></trkpt><trkpt lat="45.6603947" lon="10.0633444"><ele>231.33333333333334</ele><time>2026-05-02T08:41:10.813Z</time></trkpt><trkpt lat="45.6603188" lon="10.0634286"><ele>232.0</ele><time>2026-05-02T08:41:12.813Z</time></trkpt><trkpt lat="45.6602785" lon="10.0635665"><ele>232.66666666666669</ele><time>2026-05-02T08:41:14.813Z</time></trkpt><trkpt lat="45.6602798" lon="10.0636781"><ele>233.33333333333334</ele><time>2026-05-02T08:41:15.813Z</time></trkpt><trkpt lat="45.6603117" lon="10.0638152"><ele>234.0</ele><time>2026-05-02T08:41:16.813Z</time></trkpt><trkpt lat="45.6603653" lon="10.0639637"><ele>234.0</ele><time>2026-05-02T08:41:17.813Z</time></trkpt><trkpt lat="45.6604422" lon="10.0641088"><ele>234.0</ele><time>2026-05-02T08:41:18.813Z</time></trkpt><trkpt lat="45.6605662" lon="10.0642377"><ele>234.0</ele><time>2026-05-02T08:41:19.813Z</time></trkpt><trkpt lat="45.6607505" lon="10.064334"><ele>235.66666666666669</ele><time>2026-05-02T08:41:20.813Z</time></trkpt><trkpt lat="45.660954" lon="10.0644047"><ele>237.33333333333334</ele><time>2026-05-02T08:41:21.813Z</time></trkpt><trkpt lat="45.6611369" lon="10.0644513"><ele>239.0</ele><time>2026-05-02T08:41:22.813Z</time></trkpt><trkpt lat="45.6612848" lon="10.0644936"><ele>239.0</ele><time>2026-05-02T08:41:23.813Z</time></trkpt><trkpt lat="45.661412" lon="10.0645088"><ele>238.99999999999997</ele><time>2026-05-02T08:41:24.813Z</time></trkpt><trkpt lat="45.661512" lon="10.0645356"><ele>238.99999999999997</ele><time>2026-05-02T08:41:25.813Z</time></trkpt><trkpt lat="45.661588" lon="10.0645991"><ele>239.0</ele><time>2026-05-02T08:41:26.813Z</time></trkpt><trkpt lat="45.6616174" lon="10.0647324"><ele>239.0</ele><time>2026-05-02T08:41:28.813Z</time></trkpt><trkpt lat="45.6615637" lon="10.0647807"><ele>239.0</ele><time>2026-05-02T08:41:29.813Z</time></trkpt><trkpt lat="45.6614657" lon="10.064801"><ele>239.0</ele><time>2026-05-02T08:41:30.814Z</time></trkpt><trkpt lat="45.6613217" lon="10.0647893"><ele>239.0</ele><time>2026-05-02T08:41:31.813Z</time></trkpt><trkpt lat="45.6611154" lon="10.0647369"><ele>241.0</ele><time>2026-05-02T08:41:32.813Z</time></trkpt><trkpt lat="45.6608607" lon="10.0646639"><ele>243.0</ele><time>2026-05-02T08:41:33.813Z</time></trkpt><trkpt lat="45.6606203" lon="10.0645895"><ele>243.0</ele><time>2026-05-02T08:41:34.813Z</time></trkpt><trkpt lat="45.6604042" lon="10.064492"><ele>243.0</ele><time>2026-05-02T08:41:35.813Z</time></trkpt><trkpt lat="45.6601846" lon="10.0643722"><ele>250.0</ele><time>2026-05-02T08:41:36.813Z</time></trkpt><trkpt lat="45.6599626" lon="10.0642754"><ele>257.0</ele><time>2026-05-02T08:41:37.813Z</time></trkpt><trkpt lat="45.6597351" lon="10.0641855"><ele>254.0</ele><time>2026-05-02T08:41:38.813Z</time></trkpt><trkpt lat="45.6595033" lon="10.0640992"><ele>251.0</ele><time>2026-05-02T08:41:39.813Z</time></trkpt><trkpt lat="45.6592813" lon="10.064016"><ele>251.0</ele><time>2026-05-02T08:41:40.813Z</time></trkpt><trkpt lat="45.6590645" lon="10.0639367"><ele>251.0</ele><time>2026-05-02T08:41:41.813Z</time></trkpt><trkpt lat="45.6588569" lon="10.0638779"><ele>251.0</ele><time>2026-05-02T08:41:42.813Z</time></trkpt><trkpt lat="45.6586477" lon="10.0638255"><ele>255.0</ele><time>2026-05-02T08:41:43.813Z</time></trkpt><trkpt lat="45.6584368" lon="10.0637813"><ele>259.0</ele><time>2026-05-02T08:41:44.813Z</time></trkpt><trkpt lat="45.6582472" lon="10.06379"><ele>263.0</ele><time>2026-05-02T08:41:45.813Z</time></trkpt><trkpt lat="45.6580738" lon="10.063903"><ele>263.0</ele><time>2026-05-02T08:41:46.813Z</time></trkpt><trkpt lat="45.6579136" lon="10.0639877"><ele>263.0</ele><time>2026-05-02T08:41:47.813Z</time></trkpt><trkpt lat="45.6577608" lon="10.0640029"><ele>263.0</ele><time>2026-05-02T08:41:48.813Z</time></trkpt><trkpt lat="45.6576101" lon="10.0639562"><ele>264.8</ele><time>2026-05-02T08:41:49.813Z</time></trkpt><trkpt lat="45.6574899" lon="10.063873"><ele>266.6</ele><time>2026-05-02T08:41:50.813Z</time></trkpt><trkpt lat="45.6573796" lon="10.0638105"><ele>268.4</ele><time>2026-05-02T08:41:51.813Z</time></trkpt><trkpt lat="45.6572877" lon="10.0637974"><ele>270.2</ele><time>2026-05-02T08:41:52.813Z</time></trkpt><trkpt lat="45.6572223" lon="10.0638366"><ele>272.0</ele><time>2026-05-02T08:41:53.813Z</time></trkpt><trkpt lat="45.6571825" lon="10.063941"><ele>272.0</ele><time>2026-05-02T08:41:54.813Z</time></trkpt><trkpt lat="45.6572082" lon="10.0640664"><ele>272.0</ele><time>2026-05-02T08:41:55.813Z</time></trkpt><trkpt lat="45.6573066" lon="10.0641886"><ele>272.0</ele><time>2026-05-02T08:41:56.813Z</time></trkpt><trkpt lat="45.6574738" lon="10.0642786"><ele>272.0</ele><time>2026-05-02T08:41:57.813Z</time></trkpt><trkpt lat="45.6576927" lon="10.0643182"><ele>277.0</ele><time>2026-05-02T08:41:58.813Z</time></trkpt><trkpt lat="45.6579152" lon="10.0643366"><ele>282.0</ele><time>2026-05-02T08:41:59.813Z</time></trkpt><trkpt lat="45.6581302" lon="10.0643753"><ele>287.0</ele><time>2026-05-02T08:42:00.813Z</time></trkpt><trkpt lat="45.6583413" lon="10.0644062"><ele>287.0</ele><time>2026-05-02T08:42:01.813Z</time></trkpt><trkpt lat="45.6585304" lon="10.0644402"><ele>287.0</ele><time>2026-05-02T08:42:02.813Z</time></trkpt><trkpt lat="45.658704" lon="10.0644895"><ele>287.0</ele><time>2026-05-02T08:42:03.813Z</time></trkpt><trkpt lat="45.6588695" lon="10.0645674"><ele>283.33333333333337</ele><time>2026-05-02T08:42:04.813Z</time></trkpt><trkpt lat="45.6590203" lon="10.0646829"><ele>279.6666666666667</ele><time>2026-05-02T08:42:05.813Z</time></trkpt><trkpt lat="45.6591728" lon="10.0648486"><ele>276.0</ele><time>2026-05-02T08:42:06.813Z</time></trkpt><trkpt lat="45.6593198" lon="10.0650437"><ele>278.0</ele><time>2026-05-02T08:42:07.813Z</time></trkpt><trkpt lat="45.6594635" lon="10.0652406"><ele>280.0</ele><time>2026-05-02T08:42:08.813Z</time></trkpt><trkpt lat="45.6596041" lon="10.065441"><ele>282.0</ele><time>2026-05-02T08:42:09.813Z</time></trkpt><trkpt lat="45.6597338" lon="10.0656452"><ele>290.3333333333333</ele><time>2026-05-02T08:42:10.813Z</time></trkpt><trkpt lat="45.6598588" lon="10.0658435"><ele>298.66666666666663</ele><time>2026-05-02T08:42:11.813Z</time></trkpt><trkpt lat="45.6599715" lon="10.0660498"><ele>307.0</ele><time>2026-05-02T08:42:12.813Z</time></trkpt><trkpt lat="45.6600745" lon="10.0662613"><ele>307.0</ele><time>2026-05-02T08:42:13.813Z</time></trkpt><trkpt lat="45.6601649" lon="10.0664845"><ele>307.0</ele><time>2026-05-02T08:42:14.813Z</time></trkpt><trkpt lat="45.6602471" lon="10.0666941"><ele>307.0</ele><time>2026-05-02T08:42:15.813Z</time></trkpt><trkpt lat="45.6603297" lon="10.0668865"><ele>308.5</ele><time>2026-05-02T08:42:16.813Z</time></trkpt><trkpt lat="45.6604073" lon="10.0670625"><ele>310.0</ele><time>2026-05-02T08:42:17.813Z</time></trkpt><trkpt lat="45.6604818" lon="10.0672241"><ele>311.5</ele><time>2026-05-02T08:42:18.813Z</time></trkpt><trkpt lat="45.6605422" lon="10.0673913"><ele>313.0</ele><time>2026-05-02T08:42:19.813Z</time></trkpt><trkpt lat="45.660599" lon="10.0675583"><ele>313.0</ele><time>2026-05-02T08:42:20.813Z</time></trkpt><trkpt lat="45.6606547" lon="10.0677243"><ele>313.0</ele><time>2026-05-02T08:42:21.813Z</time></trkpt><trkpt lat="45.6607112" lon="10.0678921"><ele>313.0</ele><time>2026-05-02T08:42:22.813Z</time></trkpt><trkpt lat="45.6607712" lon="10.068048"><ele>313.0</ele><time>2026-05-02T08:42:23.813Z</time></trkpt><trkpt lat="45.6608275" lon="10.0682057"><ele>317.5</ele><time>2026-05-02T08:42:24.813Z</time></trkpt><trkpt lat="45.6608718" lon="10.0683863"><ele>322.0</ele><time>2026-05-02T08:42:25.813Z</time></trkpt><trkpt lat="45.6608926" lon="10.0685748"><ele>326.5</ele><time>2026-05-02T08:42:26.813Z</time></trkpt><trkpt lat="45.6609" lon="10.0687603"><ele>331.0</ele><time>2026-05-02T08:42:27.813Z</time></trkpt><trkpt lat="45.6609195" lon="10.0689439"><ele>331.0</ele><time>2026-05-02T08:42:28.813Z</time></trkpt><trkpt lat="45.6609569" lon="10.0690857"><ele>331.0</ele><time>2026-05-02T08:42:29.813Z</time></trkpt><trkpt lat="45.6610342" lon="10.0691533"><ele>331.0</ele><time>2026-05-02T08:42:30.813Z</time></trkpt><trkpt lat="45.6611138" lon="10.0691284"><ele>331.0</ele><time>2026-05-02T08:42:31.813Z</time></trkpt><trkpt lat="45.6611826" lon="10.0689918"><ele>331.0</ele><time>2026-05-02T08:42:32.813Z</time></trkpt><trkpt lat="45.6612335" lon="10.0688542"><ele>332.0</ele><time>2026-05-02T08:42:33.813Z</time></trkpt><trkpt lat="45.661285" lon="10.0686103"><ele>333.0</ele><time>2026-05-02T08:42:34.813Z</time></trkpt><trkpt lat="45.6613448" lon="10.0683792"><ele>334.0</ele><time>2026-05-02T08:42:35.813Z</time></trkpt><trkpt lat="45.6614381" lon="10.0682086"><ele>330.75</ele><time>2026-05-02T08:42:36.813Z</time></trkpt><trkpt lat="45.6615489" lon="10.0680978"><ele>327.5</ele><time>2026-05-02T08:42:37.813Z</time></trkpt><trkpt lat="45.6616818" lon="10.0680468"><ele>324.25</ele><time>2026-05-02T08:42:38.813Z</time></trkpt><trkpt lat="45.6618236" lon="10.0680332"><ele>321.0</ele><time>2026-05-02T08:42:39.813Z</time></trkpt><trkpt lat="45.6619715" lon="10.0680707"><ele>321.0</ele><time>2026-05-02T08:42:40.813Z</time></trkpt><trkpt lat="45.6621179" lon="10.0681989"><ele>321.0</ele><time>2026-05-02T08:42:41.813Z</time></trkpt><trkpt lat="45.6622556" lon="10.0683691"><ele>321.0</ele><time>2026-05-02T08:42:42.813Z</time></trkpt><trkpt lat="45.6623879" lon="10.0685523"><ele>325.0</ele><time>2026-05-02T08:42:43.813Z</time></trkpt><trkpt lat="45.6625072" lon="10.0687419"><ele>329.0</ele><time>2026-05-02T08:42:44.813Z</time></trkpt><trkpt lat="45.6626159" lon="10.068917"><ele>333.0</ele><time>2026-05-02T08:42:45.813Z</time></trkpt><trkpt lat="45.6627379" lon="10.0690593"><ele>337.0</ele><time>2026-05-02T08:42:46.813Z</time></trkpt><trkpt lat="45.6628833" lon="10.06914"><ele>341.0</ele><time>2026-05-02T08:42:47.813Z</time></trkpt><trkpt lat="45.6630329" lon="10.0691338"><ele>345.0</ele><time>2026-05-02T08:42:48.813Z</time></trkpt><trkpt lat="45.6631762" lon="10.0690556"><ele>345.0</ele><time>2026-05-02T08:42:49.813Z</time></trkpt><trkpt lat="45.6633128" lon="10.0688874"><ele>345.0</ele><time>2026-05-02T08:42:50.813Z</time></trkpt><trkpt lat="45.6634293" lon="10.0687574"><ele>345.0</ele><time>2026-05-02T08:42:51.813Z</time></trkpt><trkpt lat="45.6635383" lon="10.0687356"><ele>345.0</ele><time>2026-05-02T08:42:52.813Z</time></trkpt><trkpt lat="45.6636221" lon="10.0688023"><ele>345.5</ele><time>2026-05-02T08:42:53.813Z</time></trkpt><trkpt lat="45.6636553" lon="10.0689395"><ele>346.0</ele><time>2026-05-02T08:42:54.813Z</time></trkpt><trkpt lat="45.6636403" lon="10.0690972"><ele>346.5</ele><time>2026-05-02T08:42:55.813Z</time></trkpt><trkpt lat="45.6635651" lon="10.06927"><ele>347.0</ele><time>2026-05-02T08:42:56.813Z</time></trkpt><trkpt lat="45.6634584" lon="10.069471"><ele>347.0</ele><time>2026-05-02T08:42:57.813Z</time></trkpt><trkpt lat="45.6633723" lon="10.06968"><ele>347.0</ele><time>2026-05-02T08:42:58.813Z</time></trkpt><trkpt lat="45.6633003" lon="10.0698721"><ele>347.0</ele><time>2026-05-02T08:42:59.813Z</time></trkpt><trkpt lat="45.6632243" lon="10.0700233"><ele>347.0</ele><time>2026-05-02T08:43:00.813Z</time></trkpt><trkpt lat="45.6631327" lon="10.0701079"><ele>347.0</ele><time>2026-05-02T08:43:01.813Z</time></trkpt><trkpt lat="45.6630296" lon="10.0701016"><ele>347.0</ele><time>2026-05-02T08:43:02.813Z</time></trkpt><trkpt lat="45.662926" lon="10.0700127"><ele>347.0</ele><time>2026-05-02T08:43:03.813Z</time></trkpt><trkpt lat="45.6628265" lon="10.0698366"><ele>347.25</ele><time>2026-05-02T08:43:04.813Z</time></trkpt><trkpt lat="45.662732" lon="10.0696587"><ele>347.5</ele><time>2026-05-02T08:43:05.813Z</time></trkpt><trkpt lat="45.6626273" lon="10.0695236"><ele>347.75</ele><time>2026-05-02T08:43:06.813Z</time></trkpt><trkpt lat="45.6624947" lon="10.0694574"><ele>348.0</ele><time>2026-05-02T08:43:07.813Z</time></trkpt><trkpt lat="45.662358" lon="10.0694199"><ele>348.0</ele><time>2026-05-02T08:43:08.813Z</time></trkpt><trkpt lat="45.6622267" lon="10.069375"><ele>348.0</ele><time>2026-05-02T08:43:09.813Z</time></trkpt><trkpt lat="45.6621092" lon="10.0693331"><ele>348.0</ele><time>2026-05-02T08:43:10.813Z</time></trkpt><trkpt lat="45.66201" lon="10.0692854"><ele>348.0</ele><time>2026-05-02T08:43:11.813Z</time></trkpt><trkpt lat="45.6619368" lon="10.069212"><ele>348.6666666666667</ele><time>2026-05-02T08:43:12.813Z</time></trkpt><trkpt lat="45.6618826" lon="10.0691236"><ele>349.3333333333333</ele><time>2026-05-02T08:43:13.813Z</time></trkpt><trkpt lat="45.6618513" lon="10.0690181"><ele>350.0</ele><time>2026-05-02T08:43:14.813Z</time></trkpt><trkpt lat="45.6618287" lon="10.0689148"><ele>350.66666666666663</ele><time>2026-05-02T08:43:15.813Z</time></trkpt><trkpt lat="45.6617808" lon="10.0688387"><ele>351.3333333333333</ele><time>2026-05-02T08:43:16.813Z</time></trkpt><trkpt lat="45.6616675" lon="10.0688171"><ele>352.0</ele><time>2026-05-02T08:43:18.813Z</time></trkpt><trkpt lat="45.6616017" lon="10.0688992"><ele>352.0</ele><time>2026-05-02T08:43:19.813Z</time></trkpt><trkpt lat="45.6615396" lon="10.069043"><ele>352.0</ele><time>2026-05-02T08:43:20.813Z</time></trkpt><trkpt lat="45.6614454" lon="10.0692665"><ele>352.0</ele><time>2026-05-02T08:43:21.813Z</time></trkpt><trkpt lat="45.6613195" lon="10.0695574"><ele>352.0</ele><time>2026-05-02T08:43:22.813Z</time></trkpt><trkpt lat="45.6611889" lon="10.0698404"><ele>352.0</ele><time>2026-05-02T08:43:23.813Z</time></trkpt><trkpt lat="45.6610699" lon="10.0700843"><ele>352.0</ele><time>2026-05-02T08:43:24.813Z</time></trkpt><trkpt lat="45.660966" lon="10.0702875"><ele>355.5</ele><time>2026-05-02T08:43:25.813Z</time></trkpt><trkpt lat="45.6608601" lon="10.0704436"><ele>359.0</ele><time>2026-05-02T08:43:26.813Z</time></trkpt><trkpt lat="45.6607511" lon="10.0705555"><ele>362.5</ele><time>2026-05-02T08:43:27.813Z</time></trkpt><trkpt lat="45.6606378" lon="10.0705791"><ele>366.0</ele><time>2026-05-02T08:43:28.813Z</time></trkpt><trkpt lat="45.6605485" lon="10.0705203"><ele>366.0</ele><time>2026-05-02T08:43:29.813Z</time></trkpt><trkpt lat="45.6605043" lon="10.0703994"><ele>366.0</ele><time>2026-05-02T08:43:30.813Z</time></trkpt><trkpt lat="45.6604835" lon="10.0702752"><ele>366.0</ele><time>2026-05-02T08:43:31.813Z</time></trkpt><trkpt lat="45.6604676" lon="10.0701849"><ele>366.0</ele><time>2026-05-02T08:43:32.814Z</time></trkpt><trkpt lat="45.6604358" lon="10.0700939"><ele>366.0</ele><time>2026-05-02T08:43:35.813Z</time></trkpt><trkpt lat="45.6603776" lon="10.0700354"><ele>366.0</ele><time>2026-05-02T08:43:38.813Z</time></trkpt><trkpt lat="45.6603058" lon="10.0699824"><ele>367.0</ele><time>2026-05-02T08:43:40.813Z</time></trkpt><trkpt lat="45.6601875" lon="10.0698878"><ele>368.0</ele><time>2026-05-02T08:43:42.813Z</time></trkpt><trkpt lat="45.6601207" lon="10.0698369"><ele>369.0</ele><time>2026-05-02T08:43:43.813Z</time></trkpt><trkpt lat="45.6600583" lon="10.0697935"><ele>370.0</ele><time>2026-05-02T08:43:44.813Z</time></trkpt><trkpt lat="45.6599986" lon="10.0697474"><ele>371.0</ele><time>2026-05-02T08:43:45.813Z</time></trkpt><trkpt lat="45.6599401" lon="10.0697072"><ele>372.0</ele><time>2026-05-02T08:43:46.813Z</time></trkpt><trkpt lat="45.659882" lon="10.0696688"><ele>372.0</ele><time>2026-05-02T08:43:47.813Z</time></trkpt><trkpt lat="45.659773" lon="10.0695864"><ele>372.0</ele><time>2026-05-02T08:43:49.813Z</time></trkpt><trkpt lat="45.6596798" lon="10.0695094"><ele>372.0</ele><time>2026-05-02T08:43:51.813Z</time></trkpt><trkpt lat="45.6596134" lon="10.0694653"><ele>372.0</ele><time>2026-05-02T08:43:53.813Z</time></trkpt><trkpt lat="45.6595438" lon="10.0694097"><ele>372.0</ele><time>2026-05-02T08:43:56.813Z</time></trkpt><trkpt lat="45.6594889" lon="10.0693653"><ele>372.0</ele><time>2026-05-02T08:43:58.813Z</time></trkpt><trkpt lat="45.6594163" lon="10.0692813"><ele>372.5</ele><time>2026-05-02T08:44:01.813Z</time></trkpt><trkpt lat="45.659364" lon="10.0691627"><ele>373.0</ele><time>2026-05-02T08:44:04.813Z</time></trkpt><trkpt lat="45.6593316" lon="10.0690395"><ele>373.5</ele><time>2026-05-02T08:44:06.813Z</time></trkpt><trkpt lat="45.6593221" lon="10.0688877"><ele>374.0</ele><time>2026-05-02T08:44:08.813Z</time></trkpt><trkpt lat="45.6593158" lon="10.0687972"><ele>374.5</ele><time>2026-05-02T08:44:09.813Z</time></trkpt><trkpt lat="45.6592965" lon="10.0686989"><ele>375.0</ele><time>2026-05-02T08:44:10.813Z</time></trkpt><trkpt lat="45.6592537" lon="10.0686222"><ele>375.0</ele><time>2026-05-02T08:44:11.813Z</time></trkpt><trkpt lat="45.6591963" lon="10.0685818"><ele>375.0</ele><time>2026-05-02T08:44:12.813Z</time></trkpt><trkpt lat="45.6590885" lon="10.0686414"><ele>375.0</ele><time>2026-05-02T08:44:14.813Z</time></trkpt><trkpt lat="45.6590546" lon="10.0687472"><ele>375.0</ele><time>2026-05-02T08:44:15.813Z</time></trkpt><trkpt lat="45.6590595" lon="10.0688824"><ele>375.0</ele><time>2026-05-02T08:44:16.813Z</time></trkpt><trkpt lat="45.6590797" lon="10.0690082"><ele>375.0</ele><time>2026-05-02T08:44:17.813Z</time></trkpt><trkpt lat="45.6591214" lon="10.0691185"><ele>376.8333333333333</ele><time>2026-05-02T08:44:18.813Z</time></trkpt><trkpt lat="45.6591757" lon="10.0692032"><ele>378.66666666666663</ele><time>2026-05-02T08:44:19.813Z</time></trkpt><trkpt lat="45.6592288" lon="10.069284"><ele>380.5</ele><time>2026-05-02T08:44:20.813Z</time></trkpt><trkpt lat="45.6592827" lon="10.069352"><ele>382.3333333333333</ele><time>2026-05-02T08:44:21.813Z</time></trkpt><trkpt lat="45.6593324" lon="10.0694241"><ele>384.16666666666663</ele><time>2026-05-02T08:44:22.813Z</time></trkpt><trkpt lat="45.6593781" lon="10.0695066"><ele>386.0</ele><time>2026-05-02T08:44:23.813Z</time></trkpt><trkpt lat="45.6594275" lon="10.0695939"><ele>385.4</ele><time>2026-05-02T08:44:24.813Z</time></trkpt><trkpt lat="45.6594801" lon="10.0696901"><ele>384.8</ele><time>2026-05-02T08:44:25.813Z</time></trkpt><trkpt lat="45.6595282" lon="10.0698041"><ele>384.2</ele><time>2026-05-02T08:44:26.813Z</time></trkpt><trkpt lat="45.6595745" lon="10.0699266"><ele>383.59999999999997</ele><time>2026-05-02T08:44:27.813Z</time></trkpt><trkpt lat="45.659618" lon="10.0700499"><ele>383.0</ele><time>2026-05-02T08:44:28.813Z</time></trkpt><trkpt lat="45.6596621" lon="10.0701668"><ele>383.0</ele><time>2026-05-02T08:44:29.813Z</time></trkpt><trkpt lat="45.6597004" lon="10.0702832"><ele>383.0</ele><time>2026-05-02T08:44:30.813Z</time></trkpt><trkpt lat="45.6597354" lon="10.0704045"><ele>383.0</ele><time>2026-05-02T08:44:31.813Z</time></trkpt><trkpt lat="45.6597593" lon="10.0705311"><ele>383.0</ele><time>2026-05-02T08:44:32.813Z</time></trkpt><trkpt lat="45.6597795" lon="10.0706613"><ele>383.0</ele><time>2026-05-02T08:44:33.813Z</time></trkpt><trkpt lat="45.6597954" lon="10.0707895"><ele>385.79999999999995</ele><time>2026-05-02T08:44:34.813Z</time></trkpt><trkpt lat="45.6598238" lon="10.0709202"><ele>388.6</ele><time>2026-05-02T08:44:35.813Z</time></trkpt><trkpt lat="45.6598599" lon="10.0710474"><ele>391.4</ele><time>2026-05-02T08:44:36.813Z</time></trkpt><trkpt lat="45.6599065" lon="10.0711668"><ele>394.20000000000005</ele><time>2026-05-02T08:44:37.813Z</time></trkpt><trkpt lat="45.6599546" lon="10.0712813"><ele>397.0</ele><time>2026-05-02T08:44:38.813Z</time></trkpt><trkpt lat="45.6600019" lon="10.0713909"><ele>397.00000000000006</ele><time>2026-05-02T08:44:39.813Z</time></trkpt><trkpt lat="45.6600411" lon="10.0714955"><ele>397.0</ele><time>2026-05-02T08:44:40.813Z</time></trkpt><trkpt lat="45.6600808" lon="10.0715904"><ele>397.0</ele><time>2026-05-02T08:44:41.813Z</time></trkpt><trkpt lat="45.66013" lon="10.0716729"><ele>397.0</ele><time>2026-05-02T08:44:42.813Z</time></trkpt><trkpt lat="45.6601874" lon="10.071757"><ele>397.00000000000006</ele><time>2026-05-02T08:44:43.813Z</time></trkpt><trkpt lat="45.6602563" lon="10.071841"><ele>397.0</ele><time>2026-05-02T08:44:44.813Z</time></trkpt><trkpt lat="45.660333" lon="10.0719254"><ele>398.20000000000005</ele><time>2026-05-02T08:44:45.813Z</time></trkpt><trkpt lat="45.6604149" lon="10.0720024"><ele>399.4</ele><time>2026-05-02T08:44:46.813Z</time></trkpt><trkpt lat="45.6605033" lon="10.072074"><ele>400.6</ele><time>2026-05-02T08:44:47.813Z</time></trkpt><trkpt lat="45.6605904" lon="10.0721385"><ele>401.79999999999995</ele><time>2026-05-02T08:44:48.813Z</time></trkpt><trkpt lat="45.6606782" lon="10.07219"><ele>403.0</ele><time>2026-05-02T08:44:49.813Z</time></trkpt><trkpt lat="45.6607672" lon="10.0722257"><ele>403.0</ele><time>2026-05-02T08:44:50.813Z</time></trkpt><trkpt lat="45.6608597" lon="10.072249"><ele>403.0</ele><time>2026-05-02T08:44:51.813Z</time></trkpt><trkpt lat="45.6609481" lon="10.0722746"><ele>403.0</ele><time>2026-05-02T08:44:52.813Z</time></trkpt><trkpt lat="45.6610347" lon="10.0723053"><ele>403.0</ele><time>2026-05-02T08:44:53.813Z</time></trkpt><trkpt lat="45.6611197" lon="10.0723459"><ele>403.0</ele><time>2026-05-02T08:44:54.813Z</time></trkpt><trkpt lat="45.6612067" lon="10.0723931"><ele>401.6666666666667</ele><time>2026-05-02T08:44:55.813Z</time></trkpt><trkpt lat="45.6612941" lon="10.0724375"><ele>400.33333333333337</ele><time>2026-05-02T08:44:56.813Z</time></trkpt><trkpt lat="45.6613727" lon="10.0724973"><ele>399.0</ele><time>2026-05-02T08:44:57.813Z</time></trkpt><trkpt lat="45.6614413" lon="10.0725642"><ele>397.66666666666663</ele><time>2026-05-02T08:44:58.813Z</time></trkpt><trkpt lat="45.661501" lon="10.0726304"><ele>396.3333333333333</ele><time>2026-05-02T08:44:59.813Z</time></trkpt><trkpt lat="45.6615607" lon="10.072694"><ele>395.0</ele><time>2026-05-02T08:45:00.813Z</time></trkpt><trkpt lat="45.6616155" lon="10.0727551"><ele>399.2</ele><time>2026-05-02T08:45:01.813Z</time></trkpt><trkpt lat="45.6616643" lon="10.0728202"><ele>403.4</ele><time>2026-05-02T08:45:02.813Z</time></trkpt><trkpt lat="45.661734" lon="10.0729365"><ele>407.6</ele><time>2026-05-02T08:45:04.813Z</time></trkpt><trkpt lat="45.661788" lon="10.0730526"><ele>411.8</ele><time>2026-05-02T08:45:06.813Z</time></trkpt><trkpt lat="45.6618303" lon="10.0732022"><ele>416.0</ele><time>2026-05-02T08:45:08.813Z</time></trkpt><trkpt lat="45.6618677" lon="10.0733386"><ele>418.5</ele><time>2026-05-02T08:45:10.813Z</time></trkpt><trkpt lat="45.6619404" lon="10.0734602"><ele>421.0</ele><time>2026-05-02T08:45:12.813Z</time></trkpt><trkpt lat="45.6620054" lon="10.0736068"><ele>423.5</ele><time>2026-05-02T08:45:14.813Z</time></trkpt><trkpt lat="45.6619974" lon="10.0737672"><ele>426.0</ele><time>2026-05-02T08:45:16.813Z</time></trkpt><trkpt lat="45.6618963" lon="10.0738396"><ele>427.6666666666667</ele><time>2026-05-02T08:45:18.813Z</time></trkpt><trkpt lat="45.6618266" lon="10.0738109"><ele>429.33333333333337</ele><time>2026-05-02T08:45:19.813Z</time></trkpt><trkpt lat="45.6617688" lon="10.0737375"><ele>431.0</ele><time>2026-05-02T08:45:20.813Z</time></trkpt><trkpt lat="45.661732" lon="10.073638"><ele>432.6666666666667</ele><time>2026-05-02T08:45:21.813Z</time></trkpt><trkpt lat="45.6617212" lon="10.0735221"><ele>434.33333333333337</ele><time>2026-05-02T08:45:22.813Z</time></trkpt><trkpt lat="45.6617164" lon="10.0733926"><ele>436.0</ele><time>2026-05-02T08:45:23.813Z</time></trkpt><trkpt lat="45.6616849" lon="10.0732637"><ele>432.0</ele><time>2026-05-02T08:45:24.813Z</time></trkpt><trkpt lat="45.6616526" lon="10.0731499"><ele>428.0</ele><time>2026-05-02T08:45:25.813Z</time></trkpt><trkpt lat="45.6616074" lon="10.0730547"><ele>424.0</ele><time>2026-05-02T08:45:26.813Z</time></trkpt><trkpt lat="45.6615438" lon="10.0729774"><ele>420.0</ele><time>2026-05-02T08:45:27.813Z</time></trkpt><trkpt lat="45.6614619" lon="10.0729081"><ele>416.0</ele><time>2026-05-02T08:45:28.813Z</time></trkpt><trkpt lat="45.6613608" lon="10.0728581"><ele>416.0</ele><time>2026-05-02T08:45:29.813Z</time></trkpt><trkpt lat="45.6612468" lon="10.0728314"><ele>416.0</ele><time>2026-05-02T08:45:30.813Z</time></trkpt><trkpt lat="45.6611295" lon="10.0728209"><ele>416.0</ele><time>2026-05-02T08:45:31.813Z</time></trkpt><trkpt lat="45.6610192" lon="10.0728105"><ele>416.0</ele><time>2026-05-02T08:45:32.813Z</time></trkpt><trkpt lat="45.6609213" lon="10.0727934"><ele>416.0</ele><time>2026-05-02T08:45:33.813Z</time></trkpt><trkpt lat="45.6608259" lon="10.072772"><ele>418.0</ele><time>2026-05-02T08:45:34.813Z</time></trkpt><trkpt lat="45.6607365" lon="10.0727708"><ele>420.0</ele><time>2026-05-02T08:45:35.813Z</time></trkpt><trkpt lat="45.6606481" lon="10.0727937"><ele>422.0</ele><time>2026-05-02T08:45:36.813Z</time></trkpt><trkpt lat="45.6605453" lon="10.0728665"><ele>424.0</ele><time>2026-05-02T08:45:37.813Z</time></trkpt><trkpt lat="45.6604154" lon="10.0729825"><ele>426.0</ele><time>2026-05-02T08:45:38.813Z</time></trkpt><trkpt lat="45.6602779" lon="10.0731147"><ele>427.0</ele><time>2026-05-02T08:45:39.813Z</time></trkpt><trkpt lat="45.6601519" lon="10.0732231"><ele>428.0</ele><time>2026-05-02T08:45:40.813Z</time></trkpt><trkpt lat="45.6600063" lon="10.0732866"><ele>429.0</ele><time>2026-05-02T08:45:41.813Z</time></trkpt><trkpt lat="45.6598648" lon="10.0732774"><ele>430.0</ele><time>2026-05-02T08:45:42.813Z</time></trkpt><trkpt lat="45.6597172" lon="10.073211"><ele>430.0</ele><time>2026-05-02T08:45:43.813Z</time></trkpt><trkpt lat="45.659567" lon="10.073118"><ele>430.0</ele><time>2026-05-02T08:45:44.814Z</time></trkpt><trkpt lat="45.6594106" lon="10.0730457"><ele>430.0</ele><time>2026-05-02T08:45:45.813Z</time></trkpt><trkpt lat="45.6592488" lon="10.0729735"><ele>436.0</ele><time>2026-05-02T08:45:46.813Z</time></trkpt><trkpt lat="45.6590881" lon="10.0729017"><ele>442.0</ele><time>2026-05-02T08:45:47.813Z</time></trkpt><trkpt lat="45.6589408" lon="10.0728267"><ele>448.0</ele><time>2026-05-02T08:45:48.813Z</time></trkpt><trkpt lat="45.6588069" lon="10.0727523"><ele>448.0</ele><time>2026-05-02T08:45:49.813Z</time></trkpt><trkpt lat="45.6586928" lon="10.0726863"><ele>447.99999999999994</ele><time>2026-05-02T08:45:50.813Z</time></trkpt><trkpt lat="45.6585933" lon="10.0726051"><ele>447.99999999999994</ele><time>2026-05-02T08:45:51.813Z</time></trkpt><trkpt lat="45.6585132" lon="10.0725199"><ele>448.0</ele><time>2026-05-02T08:45:52.813Z</time></trkpt><trkpt lat="45.6584355" lon="10.0724446"><ele>448.0</ele><time>2026-05-02T08:45:53.813Z</time></trkpt><trkpt lat="45.6583593" lon="10.0723668"><ele>447.79999999999995</ele><time>2026-05-02T08:45:54.813Z</time></trkpt><trkpt lat="45.6582883" lon="10.072278"><ele>447.59999999999997</ele><time>2026-05-02T08:45:55.813Z</time></trkpt><trkpt lat="45.6582246" lon="10.072185"><ele>447.40000000000003</ele><time>2026-05-02T08:45:56.813Z</time></trkpt><trkpt lat="45.6581466" lon="10.0721002"><ele>447.20000000000005</ele><time>2026-05-02T08:45:57.813Z</time></trkpt><trkpt lat="45.6580525" lon="10.0720331"><ele>447.0</ele><time>2026-05-02T08:45:58.813Z</time></trkpt><trkpt lat="45.657937" lon="10.071981"><ele>447.0</ele><time>2026-05-02T08:45:59.813Z</time></trkpt><trkpt lat="45.6577904" lon="10.0719442"><ele>447.0</ele><time>2026-05-02T08:46:00.813Z</time></trkpt><trkpt lat="45.6576335" lon="10.0719263"><ele>447.0</ele><time>2026-05-02T08:46:01.813Z</time></trkpt><trkpt lat="45.6574782" lon="10.0719159"><ele>451.5</ele><time>2026-05-02T08:46:02.813Z</time></trkpt><trkpt lat="45.6573425" lon="10.0719019"><ele>456.0</ele><time>2026-05-02T08:46:03.813Z</time></trkpt><trkpt lat="45.6572185" lon="10.0718773"><ele>460.5</ele><time>2026-05-02T08:46:04.813Z</time></trkpt><trkpt lat="45.6571143" lon="10.0718409"><ele>465.0</ele><time>2026-05-02T08:46:05.813Z</time></trkpt><trkpt lat="45.6570328" lon="10.071807"><ele>465.0</ele><time>2026-05-02T08:46:06.813Z</time></trkpt><trkpt lat="45.6569719" lon="10.0717799"><ele>465.0</ele><time>2026-05-02T08:46:07.813Z</time></trkpt><trkpt lat="45.6568971" lon="10.0717515"><ele>465.0</ele><time>2026-05-02T08:46:09.813Z</time></trkpt><trkpt lat="45.6568296" lon="10.0717305"><ele>465.0</ele><time>2026-05-02T08:46:12.813Z</time></trkpt><trkpt lat="45.6567501" lon="10.0716912"><ele>465.0</ele><time>2026-05-02T08:46:14.813Z</time></trkpt><trkpt lat="45.6566865" lon="10.0716547"><ele>465.0</ele><time>2026-05-02T08:46:15.813Z</time></trkpt><trkpt lat="45.6565934" lon="10.0716006"><ele>460.33333333333337</ele><time>2026-05-02T08:46:16.813Z</time></trkpt><trkpt lat="45.6564739" lon="10.0715235"><ele>455.6666666666667</ele><time>2026-05-02T08:46:17.813Z</time></trkpt><trkpt lat="45.6563217" lon="10.0714395"><ele>451.0</ele><time>2026-05-02T08:46:18.813Z</time></trkpt><trkpt lat="45.6561746" lon="10.0713508"><ele>452.5</ele><time>2026-05-02T08:46:19.813Z</time></trkpt><trkpt lat="45.6560415" lon="10.0712594"><ele>454.0</ele><time>2026-05-02T08:46:20.813Z</time></trkpt><trkpt lat="45.6559366" lon="10.071164"><ele>455.5</ele><time>2026-05-02T08:46:21.813Z</time></trkpt><trkpt lat="45.6558493" lon="10.0710749"><ele>457.0</ele><time>2026-05-02T08:46:22.813Z</time></trkpt><trkpt lat="45.6557722" lon="10.0710346"><ele>457.0</ele><time>2026-05-02T08:46:23.813Z</time></trkpt><trkpt lat="45.6557049" lon="10.0710458"><ele>457.00000000000006</ele><time>2026-05-02T08:46:24.813Z</time></trkpt><trkpt lat="45.6556414" lon="10.0711105"><ele>457.00000000000006</ele><time>2026-05-02T08:46:25.813Z</time></trkpt><trkpt lat="45.6555928" lon="10.0712349"><ele>457.0</ele><time>2026-05-02T08:46:26.813Z</time></trkpt><trkpt lat="45.6555621" lon="10.0714263"><ele>457.0</ele><time>2026-05-02T08:46:27.813Z</time></trkpt><trkpt lat="45.6555394" lon="10.0716795"><ele>463.6666666666667</ele><time>2026-05-02T08:46:28.813Z</time></trkpt><trkpt lat="45.6555115" lon="10.0719539"><ele>470.33333333333337</ele><time>2026-05-02T08:46:29.813Z</time></trkpt><trkpt lat="45.6554537" lon="10.0721718"><ele>477.0</ele><time>2026-05-02T08:46:30.813Z</time></trkpt><trkpt lat="45.6553633" lon="10.0723311"><ele>471.0</ele><time>2026-05-02T08:46:31.813Z</time></trkpt><trkpt lat="45.6552364" lon="10.0723968"><ele>465.0</ele><time>2026-05-02T08:46:32.813Z</time></trkpt><trkpt lat="45.6550832" lon="10.0723769"><ele>459.0</ele><time>2026-05-02T08:46:33.813Z</time></trkpt><trkpt lat="45.6549102" lon="10.0723466"><ele>459.0</ele><time>2026-05-02T08:46:34.813Z</time></trkpt><trkpt lat="45.6547369" lon="10.0723284"><ele>459.0</ele><time>2026-05-02T08:46:35.813Z</time></trkpt><trkpt lat="45.6545743" lon="10.0723175"><ele>459.0</ele><time>2026-05-02T08:46:36.813Z</time></trkpt><trkpt lat="45.6544327" lon="10.0723295"><ele>459.5</ele><time>2026-05-02T08:46:37.813Z</time></trkpt><trkpt lat="45.6543215" lon="10.0723804"><ele>460.0</ele><time>2026-05-02T08:46:38.813Z</time></trkpt><trkpt lat="45.654244" lon="10.0724879"><ele>460.5</ele><time>2026-05-02T08:46:39.813Z</time></trkpt><trkpt lat="45.6542178" lon="10.072626"><ele>461.0</ele><time>2026-05-02T08:46:40.814Z</time></trkpt><trkpt lat="45.6542569" lon="10.0728004"><ele>465.0</ele><time>2026-05-02T08:46:41.813Z</time></trkpt><trkpt lat="45.6543343" lon="10.0729717"><ele>469.0</ele><time>2026-05-02T08:46:42.813Z</time></trkpt><trkpt lat="45.6544589" lon="10.0731393"><ele>473.0</ele><time>2026-05-02T08:46:43.813Z</time></trkpt><trkpt lat="45.654627" lon="10.0732876"><ele>477.0</ele><time>2026-05-02T08:46:44.813Z</time></trkpt><trkpt lat="45.6548238" lon="10.073408"><ele>481.0</ele><time>2026-05-02T08:46:45.813Z</time></trkpt><trkpt lat="45.6550249" lon="10.0735297"><ele>485.0</ele><time>2026-05-02T08:46:46.813Z</time></trkpt><trkpt lat="45.6552021" lon="10.0736339"><ele>490.66666666666663</ele><time>2026-05-02T08:46:47.813Z</time></trkpt><trkpt lat="45.6553671" lon="10.0737488"><ele>496.33333333333337</ele><time>2026-05-02T08:46:48.813Z</time></trkpt><trkpt lat="45.6555143" lon="10.0738688"><ele>502.0</ele><time>2026-05-02T08:46:49.813Z</time></trkpt><trkpt lat="45.6556513" lon="10.0739829"><ele>498.75</ele><time>2026-05-02T08:46:50.813Z</time></trkpt><trkpt lat="45.6557601" lon="10.0741208"><ele>495.5</ele><time>2026-05-02T08:46:51.813Z</time></trkpt><trkpt lat="45.6558578" lon="10.0742633"><ele>492.25</ele><time>2026-05-02T08:46:52.813Z</time></trkpt><trkpt lat="45.6559711" lon="10.0744097"><ele>489.0</ele><time>2026-05-02T08:46:53.813Z</time></trkpt><trkpt lat="45.6560899" lon="10.0745767"><ele>490.33333333333337</ele><time>2026-05-02T08:46:54.813Z</time></trkpt><trkpt lat="45.6562049" lon="10.0747725"><ele>491.6666666666667</ele><time>2026-05-02T08:46:55.813Z</time></trkpt><trkpt lat="45.6563058" lon="10.0750108"><ele>493.0</ele><time>2026-05-02T08:46:56.813Z</time></trkpt><trkpt lat="45.6564073" lon="10.0752821"><ele>493.0</ele><time>2026-05-02T08:46:57.813Z</time></trkpt><trkpt lat="45.6565083" lon="10.075557"><ele>493.0</ele><time>2026-05-02T08:46:58.813Z</time></trkpt><trkpt lat="45.6566172" lon="10.0758282"><ele>493.0</ele><time>2026-05-02T08:46:59.813Z</time></trkpt><trkpt lat="45.6567269" lon="10.0761021"><ele>494.0</ele><time>2026-05-02T08:47:00.813Z</time></trkpt><trkpt lat="45.6568328" lon="10.0763706"><ele>495.0</ele><time>2026-05-02T08:47:01.813Z</time></trkpt><trkpt lat="45.656944" lon="10.0766213"><ele>496.0</ele><time>2026-05-02T08:47:02.813Z</time></trkpt><trkpt lat="45.6570506" lon="10.0768417"><ele>498.0</ele><time>2026-05-02T08:47:03.813Z</time></trkpt><trkpt lat="45.6571802" lon="10.0770275"><ele>500.0</ele><time>2026-05-02T08:47:04.813Z</time></trkpt><trkpt lat="45.6573155" lon="10.0771796"><ele>502.0</ele><time>2026-05-02T08:47:05.813Z</time></trkpt><trkpt lat="45.6574462" lon="10.0773287"><ele>503.75</ele><time>2026-05-02T08:47:06.813Z</time></trkpt><trkpt lat="45.6575532" lon="10.0774819"><ele>505.5</ele><time>2026-05-02T08:47:07.813Z</time></trkpt><trkpt lat="45.6576505" lon="10.0776439"><ele>507.25</ele><time>2026-05-02T08:47:08.813Z</time></trkpt><trkpt lat="45.6577473" lon="10.0777946"><ele>509.0</ele><time>2026-05-02T08:47:09.813Z</time></trkpt><trkpt lat="45.6578685" lon="10.0779306"><ele>511.0</ele><time>2026-05-02T08:47:10.813Z</time></trkpt><trkpt lat="45.65801" lon="10.0780685"><ele>513.0</ele><time>2026-05-02T08:47:11.813Z</time></trkpt><trkpt lat="45.6581577" lon="10.0782232"><ele>515.0</ele><time>2026-05-02T08:47:12.813Z</time></trkpt><trkpt lat="45.658311" lon="10.0783909"><ele>515.3333333333333</ele><time>2026-05-02T08:47:13.813Z</time></trkpt><trkpt lat="45.6584644" lon="10.0785536"><ele>515.6666666666666</ele><time>2026-05-02T08:47:14.813Z</time></trkpt><trkpt lat="45.6586088" lon="10.078707"><ele>516.0</ele><time>2026-05-02T08:47:15.813Z</time></trkpt><trkpt lat="45.6587412" lon="10.0788522"><ele>518.5</ele><time>2026-05-02T08:47:16.813Z</time></trkpt><trkpt lat="45.6588667" lon="10.0789775"><ele>521.0</ele><time>2026-05-02T08:47:17.813Z</time></trkpt><trkpt lat="45.658986" lon="10.0790664"><ele>523.5</ele><time>2026-05-02T08:47:18.813Z</time></trkpt><trkpt lat="45.6591189" lon="10.0790912"><ele>526.0</ele><time>2026-05-02T08:47:19.813Z</time></trkpt><trkpt lat="45.6592722" lon="10.0790547"><ele>528.6666666666667</ele><time>2026-05-02T08:47:20.813Z</time></trkpt><trkpt lat="45.6594597" lon="10.078974"><ele>531.3333333333334</ele><time>2026-05-02T08:47:21.813Z</time></trkpt><trkpt lat="45.6596662" lon="10.0788669"><ele>534.0</ele><time>2026-05-02T08:47:22.813Z</time></trkpt><trkpt lat="45.6598825" lon="10.0787617"><ele>534.0</ele><time>2026-05-02T08:47:23.813Z</time></trkpt><trkpt lat="45.6601135" lon="10.0786953"><ele>534.0</ele><time>2026-05-02T08:47:24.813Z</time></trkpt><trkpt lat="45.6603384" lon="10.0786662"><ele>534.6666666666666</ele><time>2026-05-02T08:47:25.813Z</time></trkpt><trkpt lat="45.6605597" lon="10.0786334"><ele>535.3333333333333</ele><time>2026-05-02T08:47:26.813Z</time></trkpt><trkpt lat="45.6607766" lon="10.0785797"><ele>536.0</ele><time>2026-05-02T08:47:27.813Z</time></trkpt><trkpt lat="45.660985" lon="10.0785152"><ele>536.3333333333333</ele><time>2026-05-02T08:47:28.813Z</time></trkpt><trkpt lat="45.6611924" lon="10.0784641"><ele>536.6666666666666</ele><time>2026-05-02T08:47:29.813Z</time></trkpt><trkpt lat="45.6613925" lon="10.0784465"><ele>537.0</ele><time>2026-05-02T08:47:30.813Z</time></trkpt><trkpt lat="45.6616011" lon="10.0784642"><ele>537.0</ele><time>2026-05-02T08:47:31.813Z</time></trkpt><trkpt lat="45.6618157" lon="10.0785155"><ele>537.0</ele><time>2026-05-02T08:47:32.813Z</time></trkpt><trkpt lat="45.6620282" lon="10.0785978"><ele>537.0</ele><time>2026-05-02T08:47:33.813Z</time></trkpt><trkpt lat="45.6622312" lon="10.0786901"><ele>538.3333333333334</ele><time>2026-05-02T08:47:34.813Z</time></trkpt><trkpt lat="45.6624065" lon="10.0787877"><ele>539.6666666666667</ele><time>2026-05-02T08:47:35.813Z</time></trkpt><trkpt lat="45.6625814" lon="10.0788719"><ele>541.0</ele><time>2026-05-02T08:47:36.813Z</time></trkpt><trkpt lat="45.6627421" lon="10.0789402"><ele>541.5</ele><time>2026-05-02T08:47:37.813Z</time></trkpt><trkpt lat="45.6628977" lon="10.0790172"><ele>542.0</ele><time>2026-05-02T08:47:38.813Z</time></trkpt><trkpt lat="45.663024" lon="10.0791132"><ele>542.5</ele><time>2026-05-02T08:47:39.813Z</time></trkpt><trkpt lat="45.6631074" lon="10.0792559"><ele>543.0</ele><time>2026-05-02T08:47:40.813Z</time></trkpt><trkpt lat="45.663165" lon="10.0794488"><ele>545.3333333333334</ele><time>2026-05-02T08:47:41.813Z</time></trkpt><trkpt lat="45.6632085" lon="10.0796881"><ele>547.6666666666667</ele><time>2026-05-02T08:47:42.813Z</time></trkpt><trkpt lat="45.6632589" lon="10.079956"><ele>550.0</ele><time>2026-05-02T08:47:43.813Z</time></trkpt><trkpt lat="45.6633122" lon="10.0802597"><ele>554.0</ele><time>2026-05-02T08:47:44.813Z</time></trkpt><trkpt lat="45.663375" lon="10.0805837"><ele>558.0</ele><time>2026-05-02T08:47:45.813Z</time></trkpt><trkpt lat="45.6634563" lon="10.0809049"><ele>561.5</ele><time>2026-05-02T08:47:46.813Z</time></trkpt><trkpt lat="45.6635486" lon="10.0812287"><ele>565.0</ele><time>2026-05-02T08:47:47.813Z</time></trkpt><trkpt lat="45.6636536" lon="10.081546"><ele>572.0</ele><time>2026-05-02T08:47:48.813Z</time></trkpt><trkpt lat="45.6637728" lon="10.0818458"><ele>579.0</ele><time>2026-05-02T08:47:49.813Z</time></trkpt><trkpt lat="45.6638839" lon="10.0821456"><ele>581.0</ele><time>2026-05-02T08:47:50.813Z</time></trkpt><trkpt lat="45.6639703" lon="10.082461"><ele>583.0</ele><time>2026-05-02T08:47:51.813Z</time></trkpt><trkpt lat="45.6640101" lon="10.0827947"><ele>583.0</ele><time>2026-05-02T08:47:52.813Z</time></trkpt><trkpt lat="45.663996" lon="10.0831162"><ele>583.0</ele><time>2026-05-02T08:47:53.813Z</time></trkpt><trkpt lat="45.6639558" lon="10.0834077"><ele>583.0</ele><time>2026-05-02T08:47:54.813Z</time></trkpt><trkpt lat="45.66389" lon="10.0836581"><ele>585.0</ele><time>2026-05-02T08:47:55.813Z</time></trkpt><trkpt lat="45.6638238" lon="10.0838657"><ele>587.0</ele><time>2026-05-02T08:47:56.813Z</time></trkpt><trkpt lat="45.6637673" lon="10.0840754"><ele>589.0</ele><time>2026-05-02T08:47:57.813Z</time></trkpt><trkpt lat="45.6637197" lon="10.084282"><ele>592.0</ele><time>2026-05-02T08:47:58.813Z</time></trkpt><trkpt lat="45.66367" lon="10.0844797"><ele>595.0</ele><time>2026-05-02T08:47:59.813Z</time></trkpt><trkpt lat="45.6636285" lon="10.0846707"><ele>598.0</ele><time>2026-05-02T08:48:00.813Z</time></trkpt><trkpt lat="45.6636002" lon="10.0848592"><ele>601.0</ele><time>2026-05-02T08:48:01.813Z</time></trkpt><trkpt lat="45.6635821" lon="10.0850444"><ele>595.5</ele><time>2026-05-02T08:48:02.813Z</time></trkpt><trkpt lat="45.6635759" lon="10.0852269"><ele>590.0</ele><time>2026-05-02T08:48:03.813Z</time></trkpt><trkpt lat="45.6635737" lon="10.0854125"><ele>584.5</ele><time>2026-05-02T08:48:04.813Z</time></trkpt><trkpt lat="45.6635726" lon="10.0856063"><ele>579.0</ele><time>2026-05-02T08:48:05.813Z</time></trkpt><trkpt lat="45.6635647" lon="10.0857986"><ele>579.0</ele><time>2026-05-02T08:48:06.813Z</time></trkpt><trkpt lat="45.6635392" lon="10.0859953"><ele>579.0</ele><time>2026-05-02T08:48:07.813Z</time></trkpt><trkpt lat="45.6635076" lon="10.0861844"><ele>579.0</ele><time>2026-05-02T08:48:08.813Z</time></trkpt><trkpt lat="45.6634743" lon="10.0863714"><ele>579.0</ele><time>2026-05-02T08:48:09.813Z</time></trkpt><trkpt lat="45.6634433" lon="10.0865568"><ele>581.5</ele><time>2026-05-02T08:48:10.813Z</time></trkpt><trkpt lat="45.6633963" lon="10.0867489"><ele>584.0</ele><time>2026-05-02T08:48:11.813Z</time></trkpt><trkpt lat="45.6633483" lon="10.0869393"><ele>586.5</ele><time>2026-05-02T08:48:12.813Z</time></trkpt><trkpt lat="45.6633078" lon="10.0871221"><ele>589.0</ele><time>2026-05-02T08:48:13.813Z</time></trkpt><trkpt lat="45.66327" lon="10.0873089"><ele>591.75</ele><time>2026-05-02T08:48:14.813Z</time></trkpt><trkpt lat="45.6632356" lon="10.0874934"><ele>594.5</ele><time>2026-05-02T08:48:15.813Z</time></trkpt><trkpt lat="45.6632041" lon="10.0876791"><ele>597.25</ele><time>2026-05-02T08:48:16.813Z</time></trkpt><trkpt lat="45.6631784" lon="10.08786"><ele>600.0</ele><time>2026-05-02T08:48:17.813Z</time></trkpt><trkpt lat="45.6631466" lon="10.0880324"><ele>600.0</ele><time>2026-05-02T08:48:18.813Z</time></trkpt><trkpt lat="45.6631096" lon="10.0882096"><ele>600.0</ele><time>2026-05-02T08:48:19.813Z</time></trkpt><trkpt lat="45.6630724" lon="10.0883851"><ele>600.0</ele><time>2026-05-02T08:48:20.813Z</time></trkpt><trkpt lat="45.6630301" lon="10.0885633"><ele>600.0</ele><time>2026-05-02T08:48:21.813Z</time></trkpt><trkpt lat="45.6629835" lon="10.0887382"><ele>599.0</ele><time>2026-05-02T08:48:22.813Z</time></trkpt><trkpt lat="45.66293" lon="10.0889088"><ele>598.0</ele><time>2026-05-02T08:48:23.813Z</time></trkpt><trkpt lat="45.6628818" lon="10.0890722"><ele>597.0</ele><time>2026-05-02T08:48:24.813Z</time></trkpt><trkpt lat="45.6628282" lon="10.0892314"><ele>596.0</ele><time>2026-05-02T08:48:25.813Z</time></trkpt><trkpt lat="45.6627712" lon="10.0893947"><ele>596.0</ele><time>2026-05-02T08:48:26.813Z</time></trkpt><trkpt lat="45.6627047" lon="10.0895527"><ele>596.0</ele><time>2026-05-02T08:48:27.813Z</time></trkpt><trkpt lat="45.6626452" lon="10.0897066"><ele>596.0</ele><time>2026-05-02T08:48:28.813Z</time></trkpt><trkpt lat="45.6625863" lon="10.0898632"><ele>596.0</ele><time>2026-05-02T08:48:29.813Z</time></trkpt><trkpt lat="45.6625263" lon="10.090018"><ele>600.5</ele><time>2026-05-02T08:48:30.813Z</time></trkpt><trkpt lat="45.6624688" lon="10.0901697"><ele>605.0</ele><time>2026-05-02T08:48:31.813Z</time></trkpt><trkpt lat="45.6624172" lon="10.0903186"><ele>609.5</ele><time>2026-05-02T08:48:32.813Z</time></trkpt><trkpt lat="45.6623722" lon="10.0904778"><ele>614.0</ele><time>2026-05-02T08:48:33.813Z</time></trkpt><trkpt lat="45.6623252" lon="10.090634"><ele>617.6</ele><time>2026-05-02T08:48:34.813Z</time></trkpt><trkpt lat="45.6622797" lon="10.090784"><ele>621.2</ele><time>2026-05-02T08:48:35.813Z</time></trkpt><trkpt lat="45.6622284" lon="10.0909285"><ele>624.8000000000001</ele><time>2026-05-02T08:48:36.813Z</time></trkpt><trkpt lat="45.6621804" lon="10.0910677"><ele>628.4</ele><time>2026-05-02T08:48:37.813Z</time></trkpt><trkpt lat="45.6621238" lon="10.0912082"><ele>632.0</ele><time>2026-05-02T08:48:38.813Z</time></trkpt><trkpt lat="45.6620682" lon="10.0913438"><ele>632.0</ele><time>2026-05-02T08:48:39.813Z</time></trkpt><trkpt lat="45.6620135" lon="10.0914728"><ele>632.0</ele><time>2026-05-02T08:48:40.813Z</time></trkpt><trkpt lat="45.6619551" lon="10.0915963"><ele>632.0</ele><time>2026-05-02T08:48:41.813Z</time></trkpt><trkpt lat="45.6618809" lon="10.0917167"><ele>632.0</ele><time>2026-05-02T08:48:42.813Z</time></trkpt><trkpt lat="45.661813" lon="10.0918425"><ele>632.0</ele><time>2026-05-02T08:48:43.813Z</time></trkpt><trkpt lat="45.6617414" lon="10.0919532"><ele>633.0</ele><time>2026-05-02T08:48:44.813Z</time></trkpt><trkpt lat="45.6616638" lon="10.0920556"><ele>634.0</ele><time>2026-05-02T08:48:45.813Z</time></trkpt><trkpt lat="45.66158" lon="10.0921567"><ele>635.0</ele><time>2026-05-02T08:48:46.813Z</time></trkpt><trkpt lat="45.6615042" lon="10.0922698"><ele>636.0</ele><time>2026-05-02T08:48:47.813Z</time></trkpt><trkpt lat="45.6614441" lon="10.0923887"><ele>637.0</ele><time>2026-05-02T08:48:48.813Z</time></trkpt><trkpt lat="45.6613948" lon="10.0925202"><ele>637.0</ele><time>2026-05-02T08:48:49.813Z</time></trkpt><trkpt lat="45.6613694" lon="10.0926581"><ele>637.0</ele><time>2026-05-02T08:48:50.813Z</time></trkpt><trkpt lat="45.6613542" lon="10.0927915"><ele>637.0</ele><time>2026-05-02T08:48:51.813Z</time></trkpt><trkpt lat="45.6613351" lon="10.0929289"><ele>637.0</ele><time>2026-05-02T08:48:52.813Z</time></trkpt><trkpt lat="45.6613158" lon="10.0930783"><ele>637.0</ele><time>2026-05-02T08:48:53.813Z</time></trkpt><trkpt lat="45.6612754" lon="10.0931997"><ele>634.4</ele><time>2026-05-02T08:48:54.813Z</time></trkpt><trkpt lat="45.661214" lon="10.0932971"><ele>631.8000000000001</ele><time>2026-05-02T08:48:55.813Z</time></trkpt><trkpt lat="45.6611402" lon="10.093392"><ele>629.2</ele><time>2026-05-02T08:48:56.813Z</time></trkpt><trkpt lat="45.6610688" lon="10.0934886"><ele>626.6</ele><time>2026-05-02T08:48:57.813Z</time></trkpt><trkpt lat="45.6610016" lon="10.0935954"><ele>624.0</ele><time>2026-05-02T08:48:58.813Z</time></trkpt><trkpt lat="45.6609488" lon="10.0937171"><ele>624.0</ele><time>2026-05-02T08:48:59.813Z</time></trkpt><trkpt lat="45.6608981" lon="10.0938566"><ele>624.0</ele><time>2026-05-02T08:49:00.813Z</time></trkpt><trkpt lat="45.6608547" lon="10.0939987"><ele>624.0</ele><time>2026-05-02T08:49:01.813Z</time></trkpt><trkpt lat="45.6608249" lon="10.0941428"><ele>624.0</ele><time>2026-05-02T08:49:02.813Z</time></trkpt><trkpt lat="45.6608034" lon="10.0942925"><ele>624.0</ele><time>2026-05-02T08:49:03.813Z</time></trkpt><trkpt lat="45.660787" lon="10.0944398"><ele>627.2</ele><time>2026-05-02T08:49:04.813Z</time></trkpt><trkpt lat="45.6607728" lon="10.094596"><ele>630.4</ele><time>2026-05-02T08:49:05.813Z</time></trkpt><trkpt lat="45.6607544" lon="10.094749"><ele>633.6</ele><time>2026-05-02T08:49:06.813Z</time></trkpt><trkpt lat="45.6607247" lon="10.0949019"><ele>636.8</ele><time>2026-05-02T08:49:07.813Z</time></trkpt><trkpt lat="45.6606821" lon="10.0950462"><ele>640.0</ele><time>2026-05-02T08:49:08.813Z</time></trkpt><trkpt lat="45.6606296" lon="10.0951815"><ele>641.6</ele><time>2026-05-02T08:49:09.813Z</time></trkpt><trkpt lat="45.6605799" lon="10.0953126"><ele>643.2</ele><time>2026-05-02T08:49:10.813Z</time></trkpt><trkpt lat="45.6605399" lon="10.0954425"><ele>644.8</ele><time>2026-05-02T08:49:11.813Z</time></trkpt><trkpt lat="45.6605133" lon="10.0955699"><ele>646.4</ele><time>2026-05-02T08:49:12.813Z</time></trkpt><trkpt lat="45.6604938" lon="10.0956944"><ele>648.0</ele><time>2026-05-02T08:49:13.813Z</time></trkpt><trkpt lat="45.6604855" lon="10.0958219"><ele>649.4</ele><time>2026-05-02T08:49:14.813Z</time></trkpt><trkpt lat="45.6604941" lon="10.0959505"><ele>650.8</ele><time>2026-05-02T08:49:15.813Z</time></trkpt><trkpt lat="45.6605145" lon="10.0960913"><ele>652.2</ele><time>2026-05-02T08:49:16.813Z</time></trkpt><trkpt lat="45.6605257" lon="10.0962366"><ele>653.6</ele><time>2026-05-02T08:49:17.813Z</time></trkpt><trkpt lat="45.6605284" lon="10.0963926"><ele>655.0</ele><time>2026-05-02T08:49:18.813Z</time></trkpt><trkpt lat="45.6605301" lon="10.0965519"><ele>656.25</ele><time>2026-05-02T08:49:19.813Z</time></trkpt><trkpt lat="45.660532" lon="10.0967132"><ele>657.5</ele><time>2026-05-02T08:49:20.813Z</time></trkpt><trkpt lat="45.6605376" lon="10.0968829"><ele>658.75</ele><time>2026-05-02T08:49:21.813Z</time></trkpt><trkpt lat="45.6605456" lon="10.0970521"><ele>660.0</ele><time>2026-05-02T08:49:22.813Z</time></trkpt><trkpt lat="45.660553" lon="10.0972116"><ele>660.0</ele><time>2026-05-02T08:49:23.813Z</time></trkpt><trkpt lat="45.6605628" lon="10.0973827"><ele>660.0</ele><time>2026-05-02T08:49:24.813Z</time></trkpt><trkpt lat="45.6605706" lon="10.0975484"><ele>660.0</ele><time>2026-05-02T08:49:25.813Z</time></trkpt><trkpt lat="45.6605801" lon="10.0977107"><ele>660.0</ele><time>2026-05-02T08:49:26.813Z</time></trkpt><trkpt lat="45.6605837" lon="10.0978696"><ele>660.0</ele><time>2026-05-02T08:49:27.813Z</time></trkpt><trkpt lat="45.6605866" lon="10.0980277"><ele>660.0</ele><time>2026-05-02T08:49:28.813Z</time></trkpt><trkpt lat="45.6605918" lon="10.0981893"><ele>660.0</ele><time>2026-05-02T08:49:29.813Z</time></trkpt><trkpt lat="45.6605992" lon="10.0983544"><ele>660.0</ele><time>2026-05-02T08:49:30.813Z</time></trkpt><trkpt lat="45.6606073" lon="10.0985085"><ele>660.0</ele><time>2026-05-02T08:49:31.813Z</time></trkpt><trkpt lat="45.6606108" lon="10.0986621"><ele>660.75</ele><time>2026-05-02T08:49:32.813Z</time></trkpt><trkpt lat="45.6606216" lon="10.0988242"><ele>661.5</ele><time>2026-05-02T08:49:33.813Z</time></trkpt><trkpt lat="45.6606331" lon="10.0989891"><ele>662.25</ele><time>2026-05-02T08:49:34.813Z</time></trkpt><trkpt lat="45.6606452" lon="10.0991567"><ele>663.0</ele><time>2026-05-02T08:49:35.813Z</time></trkpt><trkpt lat="45.6606664" lon="10.0993261"><ele>663.0</ele><time>2026-05-02T08:49:36.813Z</time></trkpt><trkpt lat="45.660686" lon="10.0994888"><ele>663.0</ele><time>2026-05-02T08:49:37.813Z</time></trkpt><trkpt lat="45.6607004" lon="10.0996483"><ele>663.0</ele><time>2026-05-02T08:49:38.813Z</time></trkpt><trkpt lat="45.6607212" lon="10.0998153"><ele>663.0</ele><time>2026-05-02T08:49:39.813Z</time></trkpt><trkpt lat="45.6607396" lon="10.0999797"><ele>662.25</ele><time>2026-05-02T08:49:40.813Z</time></trkpt><trkpt lat="45.6607577" lon="10.1001497"><ele>661.5</ele><time>2026-05-02T08:49:41.813Z</time></trkpt><trkpt lat="45.6607713" lon="10.100325"><ele>660.75</ele><time>2026-05-02T08:49:42.813Z</time></trkpt><trkpt lat="45.6607734" lon="10.1004958"><ele>660.0</ele><time>2026-05-02T08:49:43.813Z</time></trkpt><trkpt lat="45.6607642" lon="10.1006689"><ele>662.5</ele><time>2026-05-02T08:49:44.813Z</time></trkpt><trkpt lat="45.6607516" lon="10.1008315"><ele>665.0</ele><time>2026-05-02T08:49:45.813Z</time></trkpt><trkpt lat="45.6607355" lon="10.1009985"><ele>667.5</ele><time>2026-05-02T08:49:46.813Z</time></trkpt><trkpt lat="45.6607278" lon="10.1011794"><ele>670.0</ele><time>2026-05-02T08:49:47.813Z</time></trkpt><trkpt lat="45.6607279" lon="10.1013708"><ele>670.0</ele><time>2026-05-02T08:49:48.813Z</time></trkpt><trkpt lat="45.6607389" lon="10.1015673"><ele>670.0</ele><time>2026-05-02T08:49:49.813Z</time></trkpt><trkpt lat="45.6607552" lon="10.1017721"><ele>670.0</ele><time>2026-05-02T08:49:50.813Z</time></trkpt><trkpt lat="45.6607626" lon="10.101973"><ele>670.0</ele><time>2026-05-02T08:49:51.813Z</time></trkpt><trkpt lat="45.6607658" lon="10.1021679"><ele>671.0</ele><time>2026-05-02T08:49:52.813Z</time></trkpt><trkpt lat="45.6607739" lon="10.1023584"><ele>672.0</ele><time>2026-05-02T08:49:53.813Z</time></trkpt><trkpt lat="45.660791" lon="10.1025473"><ele>673.0</ele><time>2026-05-02T08:49:54.813Z</time></trkpt><trkpt lat="45.660813" lon="10.1027356"><ele>674.0</ele><time>2026-05-02T08:49:55.813Z</time></trkpt><trkpt lat="45.6608298" lon="10.102921"><ele>674.0</ele><time>2026-05-02T08:49:56.813Z</time></trkpt><trkpt lat="45.660844" lon="10.1031066"><ele>674.0</ele><time>2026-05-02T08:49:57.813Z</time></trkpt><trkpt lat="45.6608517" lon="10.1032853"><ele>674.0</ele><time>2026-05-02T08:49:58.813Z</time></trkpt><trkpt lat="45.6608604" lon="10.103468"><ele>674.0</ele><time>2026-05-02T08:49:59.813Z</time></trkpt><trkpt lat="45.660877" lon="10.1036567"><ele>673.25</ele><time>2026-05-02T08:50:00.813Z</time></trkpt><trkpt lat="45.6609045" lon="10.1038399"><ele>672.5</ele><time>2026-05-02T08:50:01.813Z</time></trkpt><trkpt lat="45.6609358" lon="10.1040261"><ele>671.75</ele><time>2026-05-02T08:50:02.813Z</time></trkpt><trkpt lat="45.6609659" lon="10.1042015"><ele>671.0</ele><time>2026-05-02T08:50:03.813Z</time></trkpt><trkpt lat="45.6609915" lon="10.1043753"><ele>670.5</ele><time>2026-05-02T08:50:04.813Z</time></trkpt><trkpt lat="45.6610021" lon="10.1045565"><ele>670.0</ele><time>2026-05-02T08:50:05.813Z</time></trkpt><trkpt lat="45.6609905" lon="10.1047381"><ele>669.5</ele><time>2026-05-02T08:50:06.813Z</time></trkpt><trkpt lat="45.6609368" lon="10.1049185"><ele>669.0</ele><time>2026-05-02T08:50:07.813Z</time></trkpt><trkpt lat="45.6608683" lon="10.1050865"><ele>670.75</ele><time>2026-05-02T08:50:08.813Z</time></trkpt><trkpt lat="45.6608028" lon="10.1052388"><ele>672.5</ele><time>2026-05-02T08:50:09.813Z</time></trkpt><trkpt lat="45.6607437" lon="10.1053954"><ele>674.25</ele><time>2026-05-02T08:50:10.813Z</time></trkpt><trkpt lat="45.6606847" lon="10.1055554"><ele>676.0</ele><time>2026-05-02T08:50:11.813Z</time></trkpt><trkpt lat="45.6606195" lon="10.1057075"><ele>680.0</ele><time>2026-05-02T08:50:12.813Z</time></trkpt><trkpt lat="45.6605786" lon="10.1058631"><ele>684.0</ele><time>2026-05-02T08:50:13.814Z</time></trkpt><trkpt lat="45.660542" lon="10.1060106"><ele>688.0</ele><time>2026-05-02T08:50:14.813Z</time></trkpt><trkpt lat="45.6605196" lon="10.1061691"><ele>692.0</ele><time>2026-05-02T08:50:15.813Z</time></trkpt><trkpt lat="45.6605203" lon="10.1063347"><ele>692.0</ele><time>2026-05-02T08:50:16.813Z</time></trkpt><trkpt lat="45.6605625" lon="10.1064975"><ele>692.0</ele><time>2026-05-02T08:50:17.813Z</time></trkpt><trkpt lat="45.6606347" lon="10.1066571"><ele>692.0</ele><time>2026-05-02T08:50:18.813Z</time></trkpt><trkpt lat="45.6607193" lon="10.1068055"><ele>692.0</ele><time>2026-05-02T08:50:19.813Z</time></trkpt><trkpt lat="45.6608093" lon="10.1069573"><ele>690.75</ele><time>2026-05-02T08:50:20.813Z</time></trkpt><trkpt lat="45.6608953" lon="10.1071128"><ele>689.5</ele><time>2026-05-02T08:50:21.813Z</time></trkpt><trkpt lat="45.6609793" lon="10.107261"><ele>688.25</ele><time>2026-05-02T08:50:22.813Z</time></trkpt><trkpt lat="45.6610509" lon="10.1074194"><ele>687.0</ele><time>2026-05-02T08:50:23.813Z</time></trkpt><trkpt lat="45.6611112" lon="10.1075836"><ele>685.75</ele><time>2026-05-02T08:50:24.813Z</time></trkpt><trkpt lat="45.6611443" lon="10.1077619"><ele>684.5</ele><time>2026-05-02T08:50:25.813Z</time></trkpt><trkpt lat="45.6611399" lon="10.1079557"><ele>683.25</ele><time>2026-05-02T08:50:26.813Z</time></trkpt><trkpt lat="45.6610979" lon="10.1081442"><ele>682.0</ele><time>2026-05-02T08:50:27.813Z</time></trkpt><trkpt lat="45.661026" lon="10.1083156"><ele>682.0</ele><time>2026-05-02T08:50:28.813Z</time></trkpt><trkpt lat="45.660939" lon="10.108463"><ele>682.0</ele><time>2026-05-02T08:50:29.813Z</time></trkpt><trkpt lat="45.660837" lon="10.1085944"><ele>682.0</ele><time>2026-05-02T08:50:30.813Z</time></trkpt><trkpt lat="45.6607592" lon="10.1087435"><ele>682.0</ele><time>2026-05-02T08:50:31.813Z</time></trkpt><trkpt lat="45.6607066" lon="10.1089011"><ele>682.25</ele><time>2026-05-02T08:50:32.813Z</time></trkpt><trkpt lat="45.6606851" lon="10.109088"><ele>682.5</ele><time>2026-05-02T08:50:33.813Z</time></trkpt><trkpt lat="45.6606886" lon="10.1092786"><ele>682.75</ele><time>2026-05-02T08:50:34.813Z</time></trkpt><trkpt lat="45.6607268" lon="10.109469"><ele>683.0</ele><time>2026-05-02T08:50:35.813Z</time></trkpt><trkpt lat="45.6607918" lon="10.1096421"><ele>683.0</ele><time>2026-05-02T08:50:36.813Z</time></trkpt><trkpt lat="45.6608656" lon="10.1098146"><ele>683.0</ele><time>2026-05-02T08:50:37.813Z</time></trkpt><trkpt lat="45.6609431" lon="10.1099867"><ele>683.0</ele><time>2026-05-02T08:50:38.813Z</time></trkpt><trkpt lat="45.6610118" lon="10.1101496"><ele>683.0</ele><time>2026-05-02T08:50:39.813Z</time></trkpt><trkpt lat="45.66107" lon="10.1103126"><ele>680.75</ele><time>2026-05-02T08:50:40.813Z</time></trkpt><trkpt lat="45.6610792" lon="10.1104841"><ele>678.5</ele><time>2026-05-02T08:50:41.813Z</time></trkpt><trkpt lat="45.6610448" lon="10.1106514"><ele>676.25</ele><time>2026-05-02T08:50:42.813Z</time></trkpt><trkpt lat="45.6609472" lon="10.1108082"><ele>674.0</ele><time>2026-05-02T08:50:43.813Z</time></trkpt><trkpt lat="45.6608278" lon="10.110953"><ele>672.0</ele><time>2026-05-02T08:50:44.813Z</time></trkpt><trkpt lat="45.6607096" lon="10.1111006"><ele>670.0</ele><time>2026-05-02T08:50:45.813Z</time></trkpt><trkpt lat="45.6606036" lon="10.1112491"><ele>668.0</ele><time>2026-05-02T08:50:46.813Z</time></trkpt><trkpt lat="45.6605031" lon="10.1114028"><ele>668.0</ele><time>2026-05-02T08:50:47.813Z</time></trkpt><trkpt lat="45.6604269" lon="10.1115662"><ele>668.0</ele><time>2026-05-02T08:50:48.814Z</time></trkpt><trkpt lat="45.6603758" lon="10.1117468"><ele>668.0</ele><time>2026-05-02T08:50:49.813Z</time></trkpt><trkpt lat="45.6603563" lon="10.1119426"><ele>668.0</ele><time>2026-05-02T08:50:50.813Z</time></trkpt><trkpt lat="45.6603809" lon="10.1121515"><ele>669.6666666666666</ele><time>2026-05-02T08:50:51.813Z</time></trkpt><trkpt lat="45.660448" lon="10.1123544"><ele>671.3333333333334</ele><time>2026-05-02T08:50:52.813Z</time></trkpt><trkpt lat="45.6605444" lon="10.1125337"><ele>673.0</ele><time>2026-05-02T08:50:53.813Z</time></trkpt><trkpt lat="45.6606472" lon="10.1127149"><ele>669.6666666666667</ele><time>2026-05-02T08:50:54.813Z</time></trkpt><trkpt lat="45.6607523" lon="10.112898"><ele>666.3333333333334</ele><time>2026-05-02T08:50:55.813Z</time></trkpt><trkpt lat="45.6608492" lon="10.1130922"><ele>663.0</ele><time>2026-05-02T08:50:56.813Z</time></trkpt><trkpt lat="45.6609419" lon="10.1132881"><ele>666.6666666666666</ele><time>2026-05-02T08:50:57.813Z</time></trkpt><trkpt lat="45.6610307" lon="10.1134794"><ele>670.3333333333333</ele><time>2026-05-02T08:50:58.813Z</time></trkpt><trkpt lat="45.6611187" lon="10.1136572"><ele>674.0</ele><time>2026-05-02T08:50:59.813Z</time></trkpt><trkpt lat="45.6612101" lon="10.1138264"><ele>674.0</ele><time>2026-05-02T08:51:00.813Z</time></trkpt><trkpt lat="45.6612988" lon="10.1139908"><ele>674.0</ele><time>2026-05-02T08:51:01.813Z</time></trkpt><trkpt lat="45.6613875" lon="10.114157"><ele>674.0</ele><time>2026-05-02T08:51:02.813Z</time></trkpt><trkpt lat="45.6614739" lon="10.1143125"><ele>674.0</ele><time>2026-05-02T08:51:03.813Z</time></trkpt><trkpt lat="45.6615565" lon="10.1144568"><ele>670.5</ele><time>2026-05-02T08:51:04.813Z</time></trkpt><trkpt lat="45.6616578" lon="10.1145748"><ele>667.0</ele><time>2026-05-02T08:51:05.813Z</time></trkpt><trkpt lat="45.6617599" lon="10.114654"><ele>663.5</ele><time>2026-05-02T08:51:06.813Z</time></trkpt><trkpt lat="45.6618689" lon="10.1146908"><ele>660.0</ele><time>2026-05-02T08:51:07.813Z</time></trkpt><trkpt lat="45.6619738" lon="10.1146799"><ele>660.0</ele><time>2026-05-02T08:51:08.813Z</time></trkpt><trkpt lat="45.6620863" lon="10.114618"><ele>660.0</ele><time>2026-05-02T08:51:09.813Z</time></trkpt><trkpt lat="45.6621784" lon="10.1145698"><ele>660.0</ele><time>2026-05-02T08:51:10.813Z</time></trkpt><trkpt lat="45.6622735" lon="10.1145721"><ele>660.0</ele><time>2026-05-02T08:51:11.813Z</time></trkpt><trkpt lat="45.6623494" lon="10.1146341"><ele>660.0</ele><time>2026-05-02T08:51:12.813Z</time></trkpt><trkpt lat="45.662387" lon="10.114737"><ele>660.0</ele><time>2026-05-02T08:51:13.813Z</time></trkpt><trkpt lat="45.6623985" lon="10.1148729"><ele>660.0</ele><time>2026-05-02T08:51:14.813Z</time></trkpt><trkpt lat="45.662386" lon="10.1150319"><ele>660.0</ele><time>2026-05-02T08:51:15.813Z</time></trkpt><trkpt lat="45.6623625" lon="10.115212"><ele>660.0</ele><time>2026-05-02T08:51:16.813Z</time></trkpt><trkpt lat="45.6623568" lon="10.1153939"><ele>656.0</ele><time>2026-05-02T08:51:17.813Z</time></trkpt><trkpt lat="45.6623976" lon="10.1155529"><ele>652.0</ele><time>2026-05-02T08:51:18.813Z</time></trkpt><trkpt lat="45.6624675" lon="10.1156802"><ele>648.0</ele><time>2026-05-02T08:51:19.813Z</time></trkpt><trkpt lat="45.6625671" lon="10.1157696"><ele>644.0</ele><time>2026-05-02T08:51:20.813Z</time></trkpt><trkpt lat="45.6626804" lon="10.1158439"><ele>646.5</ele><time>2026-05-02T08:51:21.813Z</time></trkpt><trkpt lat="45.6627962" lon="10.1159209"><ele>649.0</ele><time>2026-05-02T08:51:22.813Z</time></trkpt><trkpt lat="45.6629116" lon="10.1159991"><ele>651.5</ele><time>2026-05-02T08:51:23.813Z</time></trkpt><trkpt lat="45.663008" lon="10.1161112"><ele>654.0</ele><time>2026-05-02T08:51:24.813Z</time></trkpt><trkpt lat="45.6630824" lon="10.1162486"><ele>654.0</ele><time>2026-05-02T08:51:25.813Z</time></trkpt><trkpt lat="45.6631266" lon="10.1163922"><ele>654.0</ele><time>2026-05-02T08:51:26.813Z</time></trkpt><trkpt lat="45.6631654" lon="10.1165267"><ele>654.0</ele><time>2026-05-02T08:51:27.813Z</time></trkpt><trkpt lat="45.6631918" lon="10.1166445"><ele>654.0</ele><time>2026-05-02T08:51:28.813Z</time></trkpt><trkpt lat="45.6632013" lon="10.1167411"><ele>654.0</ele><time>2026-05-02T08:51:29.813Z</time></trkpt><trkpt lat="45.6631512" lon="10.1169077"><ele>652.1666666666666</ele><time>2026-05-02T08:51:31.813Z</time></trkpt><trkpt lat="45.6630953" lon="10.1169557"><ele>650.3333333333334</ele><time>2026-05-02T08:51:32.813Z</time></trkpt><trkpt lat="45.6630282" lon="10.11697"><ele>648.5</ele><time>2026-05-02T08:51:33.813Z</time></trkpt><trkpt lat="45.6629542" lon="10.1169465"><ele>646.6666666666667</ele><time>2026-05-02T08:51:34.813Z</time></trkpt><trkpt lat="45.6628864" lon="10.1168742"><ele>644.8333333333334</ele><time>2026-05-02T08:51:35.813Z</time></trkpt><trkpt lat="45.6628298" lon="10.1167807"><ele>643.0</ele><time>2026-05-02T08:51:36.813Z</time></trkpt><trkpt lat="45.6627805" lon="10.1166981"><ele>641.1999999999999</ele><time>2026-05-02T08:51:37.813Z</time></trkpt><trkpt lat="45.662692" lon="10.1165852"><ele>639.4</ele><time>2026-05-02T08:51:39.813Z</time></trkpt><trkpt lat="45.6626215" lon="10.1165183"><ele>637.5999999999999</ele><time>2026-05-02T08:51:41.813Z</time></trkpt><trkpt lat="45.6625545" lon="10.1164802"><ele>635.8</ele><time>2026-05-02T08:51:43.813Z</time></trkpt><trkpt lat="45.6624483" lon="10.1165866"><ele>634.0</ele><time>2026-05-02T08:53:18.813Z</time></trkpt><trkpt lat="45.6623832" lon="10.1166627"><ele>631.0</ele><time>2026-05-02T08:53:19.813Z</time></trkpt><trkpt lat="45.662293" lon="10.1167217"><ele>628.0</ele><time>2026-05-02T08:53:20.813Z</time></trkpt><trkpt lat="45.6621707" lon="10.1167647"><ele>625.0</ele><time>2026-05-02T08:53:21.813Z</time></trkpt><trkpt lat="45.6620212" lon="10.1167798"><ele>622.0</ele><time>2026-05-02T08:53:22.813Z</time></trkpt><trkpt lat="45.661859" lon="10.116766"><ele>620.0</ele><time>2026-05-02T08:53:23.813Z</time></trkpt><trkpt lat="45.6616966" lon="10.1167288"><ele>618.0</ele><time>2026-05-02T08:53:24.813Z</time></trkpt><trkpt lat="45.6615377" lon="10.1166885"><ele>616.0</ele><time>2026-05-02T08:53:25.813Z</time></trkpt><trkpt lat="45.66139" lon="10.1166546"><ele>616.0</ele><time>2026-05-02T08:53:26.813Z</time></trkpt><trkpt lat="45.6612471" lon="10.1166259"><ele>616.0</ele><time>2026-05-02T08:53:27.813Z</time></trkpt><trkpt lat="45.6611106" lon="10.1166004"><ele>616.0</ele><time>2026-05-02T08:53:28.813Z</time></trkpt><trkpt lat="45.6609798" lon="10.116583"><ele>616.0</ele><time>2026-05-02T08:53:29.813Z</time></trkpt><trkpt lat="45.6608605" lon="10.116576"><ele>614.2</ele><time>2026-05-02T08:53:30.813Z</time></trkpt><trkpt lat="45.6607531" lon="10.1165952"><ele>612.4000000000001</ele><time>2026-05-02T08:53:31.813Z</time></trkpt><trkpt lat="45.6606727" lon="10.1166553"><ele>610.6</ele><time>2026-05-02T08:53:32.813Z</time></trkpt><trkpt lat="45.6606135" lon="10.1167569"><ele>608.8000000000001</ele><time>2026-05-02T08:53:33.813Z</time></trkpt><trkpt lat="45.6605942" lon="10.1168821"><ele>607.0</ele><time>2026-05-02T08:53:34.813Z</time></trkpt><trkpt lat="45.660633" lon="10.1170118"><ele>607.0</ele><time>2026-05-02T08:53:35.813Z</time></trkpt><trkpt lat="45.660708" lon="10.1171452"><ele>607.0</ele><time>2026-05-02T08:53:36.813Z</time></trkpt><trkpt lat="45.6608416" lon="10.1172754"><ele>607.0</ele><time>2026-05-02T08:53:37.813Z</time></trkpt><trkpt lat="45.6610457" lon="10.1173805"><ele>606.0</ele><time>2026-05-02T08:53:38.813Z</time></trkpt><trkpt lat="45.6612459" lon="10.1174784"><ele>605.0</ele><time>2026-05-02T08:53:39.813Z</time></trkpt><trkpt lat="45.6614242" lon="10.1175651"><ele>604.0</ele><time>2026-05-02T08:53:40.813Z</time></trkpt><trkpt lat="45.6615784" lon="10.1176373"><ele>604.0</ele><time>2026-05-02T08:53:41.813Z</time></trkpt><trkpt lat="45.6617238" lon="10.1176708"><ele>604.0</ele><time>2026-05-02T08:53:42.813Z</time></trkpt><trkpt lat="45.6618695" lon="10.1176584"><ele>604.0</ele><time>2026-05-02T08:53:43.813Z</time></trkpt><trkpt lat="45.6619962" lon="10.1176174"><ele>604.0</ele><time>2026-05-02T08:53:44.813Z</time></trkpt><trkpt lat="45.6621208" lon="10.1175666"><ele>604.4</ele><time>2026-05-02T08:53:45.813Z</time></trkpt><trkpt lat="45.6622289" lon="10.1175292"><ele>604.8</ele><time>2026-05-02T08:53:46.813Z</time></trkpt><trkpt lat="45.6623296" lon="10.117549"><ele>605.2</ele><time>2026-05-02T08:53:47.814Z</time></trkpt><trkpt lat="45.6624104" lon="10.1176323"><ele>605.6</ele><time>2026-05-02T08:53:48.813Z</time></trkpt><trkpt lat="45.662447" lon="10.1177824"><ele>606.0</ele><time>2026-05-02T08:53:49.813Z</time></trkpt><trkpt lat="45.6624613" lon="10.1179731"><ele>606.0</ele><time>2026-05-02T08:53:50.813Z</time></trkpt><trkpt lat="45.6624701" lon="10.1181899"><ele>606.0</ele><time>2026-05-02T08:53:51.813Z</time></trkpt><trkpt lat="45.6624735" lon="10.1184102"><ele>606.0</ele><time>2026-05-02T08:53:52.813Z</time></trkpt><trkpt lat="45.6624852" lon="10.118625"><ele>603.5</ele><time>2026-05-02T08:53:53.813Z</time></trkpt><trkpt lat="45.6624906" lon="10.1188444"><ele>601.0</ele><time>2026-05-02T08:53:54.813Z</time></trkpt><trkpt lat="45.6624692" lon="10.119053"><ele>598.5</ele><time>2026-05-02T08:53:55.813Z</time></trkpt><trkpt lat="45.6624259" lon="10.1192525"><ele>596.0</ele><time>2026-05-02T08:53:56.813Z</time></trkpt><trkpt lat="45.6623562" lon="10.1194476"><ele>596.3333333333333</ele><time>2026-05-02T08:53:57.813Z</time></trkpt><trkpt lat="45.6622796" lon="10.1196407"><ele>596.6666666666666</ele><time>2026-05-02T08:53:58.813Z</time></trkpt><trkpt lat="45.6621979" lon="10.119835"><ele>597.0</ele><time>2026-05-02T08:53:59.813Z</time></trkpt><trkpt lat="45.6621159" lon="10.1200251"><ele>597.0</ele><time>2026-05-02T08:54:00.813Z</time></trkpt><trkpt lat="45.6620386" lon="10.120213"><ele>597.0</ele><time>2026-05-02T08:54:01.813Z</time></trkpt><trkpt lat="45.6619644" lon="10.1204028"><ele>597.0</ele><time>2026-05-02T08:54:02.813Z</time></trkpt><trkpt lat="45.6618925" lon="10.1205906"><ele>592.25</ele><time>2026-05-02T08:54:03.813Z</time></trkpt><trkpt lat="45.6618221" lon="10.1207775"><ele>587.5</ele><time>2026-05-02T08:54:04.813Z</time></trkpt><trkpt lat="45.6617546" lon="10.1209676"><ele>582.75</ele><time>2026-05-02T08:54:05.813Z</time></trkpt><trkpt lat="45.6616889" lon="10.1211537"><ele>578.0</ele><time>2026-05-02T08:54:06.813Z</time></trkpt><trkpt lat="45.6616273" lon="10.1213377"><ele>578.0</ele><time>2026-05-02T08:54:07.813Z</time></trkpt><trkpt lat="45.6615589" lon="10.1215246"><ele>578.0</ele><time>2026-05-02T08:54:08.813Z</time></trkpt><trkpt lat="45.6614886" lon="10.1216992"><ele>578.0</ele><time>2026-05-02T08:54:09.813Z</time></trkpt><trkpt lat="45.6614169" lon="10.1218705"><ele>578.0</ele><time>2026-05-02T08:54:10.813Z</time></trkpt><trkpt lat="45.6613578" lon="10.1220364"><ele>579.25</ele><time>2026-05-02T08:54:11.813Z</time></trkpt><trkpt lat="45.661313" lon="10.1222021"><ele>580.5</ele><time>2026-05-02T08:54:12.813Z</time></trkpt><trkpt lat="45.6612796" lon="10.1223644"><ele>581.75</ele><time>2026-05-02T08:54:13.813Z</time></trkpt><trkpt lat="45.6612495" lon="10.1225201"><ele>583.0</ele><time>2026-05-02T08:54:14.813Z</time></trkpt><trkpt lat="45.661221" lon="10.1226846"><ele>583.1999999999999</ele><time>2026-05-02T08:54:15.813Z</time></trkpt><trkpt lat="45.6612114" lon="10.1228403"><ele>583.4</ele><time>2026-05-02T08:54:16.813Z</time></trkpt><trkpt lat="45.6612093" lon="10.1229963"><ele>583.5999999999999</ele><time>2026-05-02T08:54:17.813Z</time></trkpt><trkpt lat="45.661202" lon="10.1231485"><ele>583.8</ele><time>2026-05-02T08:54:18.813Z</time></trkpt><trkpt lat="45.6611958" lon="10.1233038"><ele>584.0</ele><time>2026-05-02T08:54:19.813Z</time></trkpt><trkpt lat="45.6611869" lon="10.1234659"><ele>584.0</ele><time>2026-05-02T08:54:20.813Z</time></trkpt><trkpt lat="45.6611718" lon="10.1236188"><ele>584.0</ele><time>2026-05-02T08:54:21.813Z</time></trkpt><trkpt lat="45.6611561" lon="10.1237612"><ele>584.0</ele><time>2026-05-02T08:54:22.813Z</time></trkpt><trkpt lat="45.661144" lon="10.1238962"><ele>584.0</ele><time>2026-05-02T08:54:23.813Z</time></trkpt><trkpt lat="45.6611228" lon="10.124008"><ele>584.0</ele><time>2026-05-02T08:54:24.813Z</time></trkpt><trkpt lat="45.6610726" lon="10.124106"><ele>580.2</ele><time>2026-05-02T08:54:25.813Z</time></trkpt><trkpt lat="45.6610083" lon="10.124207"><ele>576.4</ele><time>2026-05-02T08:54:26.813Z</time></trkpt><trkpt lat="45.6609328" lon="10.1242969"><ele>572.6</ele><time>2026-05-02T08:54:27.813Z</time></trkpt><trkpt lat="45.6608492" lon="10.1243648"><ele>568.8</ele><time>2026-05-02T08:54:28.813Z</time></trkpt><trkpt lat="45.660745" lon="10.1244306"><ele>565.0</ele><time>2026-05-02T08:54:29.813Z</time></trkpt><trkpt lat="45.6606331" lon="10.1244844"><ele>565.0</ele><time>2026-05-02T08:54:30.813Z</time></trkpt><trkpt lat="45.6605236" lon="10.1245503"><ele>565.0</ele><time>2026-05-02T08:54:31.813Z</time></trkpt><trkpt lat="45.6604308" lon="10.1246549"><ele>565.0</ele><time>2026-05-02T08:54:32.813Z</time></trkpt><trkpt lat="45.660356" lon="10.124781"><ele>565.0</ele><time>2026-05-02T08:54:33.813Z</time></trkpt><trkpt lat="45.6603014" lon="10.1249302"><ele>560.5</ele><time>2026-05-02T08:54:34.813Z</time></trkpt><trkpt lat="45.6602591" lon="10.1251089"><ele>556.0</ele><time>2026-05-02T08:54:35.813Z</time></trkpt><trkpt lat="45.6602321" lon="10.125291"><ele>551.5</ele><time>2026-05-02T08:54:36.813Z</time></trkpt><trkpt lat="45.6602095" lon="10.125481"><ele>547.0</ele><time>2026-05-02T08:54:37.813Z</time></trkpt><trkpt lat="45.6601962" lon="10.1256718"><ele>547.5</ele><time>2026-05-02T08:54:38.813Z</time></trkpt><trkpt lat="45.660191" lon="10.1258527"><ele>548.0</ele><time>2026-05-02T08:54:39.813Z</time></trkpt><trkpt lat="45.6601954" lon="10.1260235"><ele>548.5</ele><time>2026-05-02T08:54:40.813Z</time></trkpt><trkpt lat="45.6602042" lon="10.1261804"><ele>549.0</ele><time>2026-05-02T08:54:41.813Z</time></trkpt><trkpt lat="45.6602162" lon="10.1263263"><ele>549.0</ele><time>2026-05-02T08:54:42.813Z</time></trkpt><trkpt lat="45.6602173" lon="10.1264595"><ele>549.0</ele><time>2026-05-02T08:54:43.813Z</time></trkpt><trkpt lat="45.660185" lon="10.1265699"><ele>549.0</ele><time>2026-05-02T08:54:44.813Z</time></trkpt><trkpt lat="45.6601254" lon="10.1266326"><ele>549.0</ele><time>2026-05-02T08:54:45.813Z</time></trkpt><trkpt lat="45.6600095" lon="10.1265848"><ele>549.0</ele><time>2026-05-02T08:54:47.813Z</time></trkpt><trkpt lat="45.6599732" lon="10.1264667"><ele>549.0</ele><time>2026-05-02T08:54:48.813Z</time></trkpt><trkpt lat="45.6599702" lon="10.1262886"><ele>549.0</ele><time>2026-05-02T08:54:49.813Z</time></trkpt><trkpt lat="45.6599914" lon="10.1260598"><ele>549.0</ele><time>2026-05-02T08:54:50.813Z</time></trkpt><trkpt lat="45.6600293" lon="10.1258119"><ele>548.5</ele><time>2026-05-02T08:54:51.813Z</time></trkpt><trkpt lat="45.6600695" lon="10.1255878"><ele>548.0</ele><time>2026-05-02T08:54:52.813Z</time></trkpt><trkpt lat="45.6601049" lon="10.1254063"><ele>547.5</ele><time>2026-05-02T08:54:53.813Z</time></trkpt><trkpt lat="45.6601398" lon="10.1252486"><ele>547.0</ele><time>2026-05-02T08:54:54.813Z</time></trkpt><trkpt lat="45.6601679" lon="10.1251093"><ele>547.0</ele><time>2026-05-02T08:54:55.813Z</time></trkpt><trkpt lat="45.6601833" lon="10.1249801"><ele>547.0</ele><time>2026-05-02T08:54:56.813Z</time></trkpt><trkpt lat="45.6601915" lon="10.1248709"><ele>547.0</ele><time>2026-05-02T08:54:57.813Z</time></trkpt><trkpt lat="45.6601642" lon="10.1247836"><ele>547.0</ele><time>2026-05-02T08:54:58.813Z</time></trkpt><trkpt lat="45.6601096" lon="10.1247324"><ele>547.0</ele><time>2026-05-02T08:54:59.813Z</time></trkpt><trkpt lat="45.6600416" lon="10.1247608"><ele>547.0</ele><time>2026-05-02T08:55:00.813Z</time></trkpt><trkpt lat="45.6599686" lon="10.1248596"><ele>547.0</ele><time>2026-05-02T08:55:01.813Z</time></trkpt><trkpt lat="45.6599093" lon="10.1250288"><ele>547.0</ele><time>2026-05-02T08:55:02.813Z</time></trkpt><trkpt lat="45.6598718" lon="10.1252855"><ele>547.0</ele><time>2026-05-02T08:55:03.813Z</time></trkpt><trkpt lat="45.6598523" lon="10.1255984"><ele>547.6666666666667</ele><time>2026-05-02T08:55:04.813Z</time></trkpt><trkpt lat="45.6598331" lon="10.125866"><ele>548.3333333333334</ele><time>2026-05-02T08:55:05.813Z</time></trkpt><trkpt lat="45.6598058" lon="10.1260936"><ele>549.0</ele><time>2026-05-02T08:55:06.813Z</time></trkpt><trkpt lat="45.6597682" lon="10.1262849"><ele>549.0</ele><time>2026-05-02T08:55:07.813Z</time></trkpt><trkpt lat="45.6597318" lon="10.1264484"><ele>549.0</ele><time>2026-05-02T08:55:08.813Z</time></trkpt><trkpt lat="45.6596889" lon="10.1266178"><ele>549.0</ele><time>2026-05-02T08:55:09.813Z</time></trkpt><trkpt lat="45.6596401" lon="10.1267902"><ele>549.0</ele><time>2026-05-02T08:55:10.813Z</time></trkpt><trkpt lat="45.6595966" lon="10.1269542"><ele>548.0</ele><time>2026-05-02T08:55:11.813Z</time></trkpt><trkpt lat="45.6595657" lon="10.1271084"><ele>547.0</ele><time>2026-05-02T08:55:12.813Z</time></trkpt><trkpt lat="45.6595613" lon="10.1272575"><ele>546.0</ele><time>2026-05-02T08:55:13.813Z</time></trkpt><trkpt lat="45.6595904" lon="10.1273853"><ele>545.0</ele><time>2026-05-02T08:55:14.813Z</time></trkpt><trkpt lat="45.6596595" lon="10.1274669"><ele>544.0</ele><time>2026-05-02T08:55:15.813Z</time></trkpt><trkpt lat="45.6597551" lon="10.1275107"><ele>547.25</ele><time>2026-05-02T08:55:16.813Z</time></trkpt><trkpt lat="45.6598754" lon="10.1274999"><ele>550.5</ele><time>2026-05-02T08:55:17.813Z</time></trkpt><trkpt lat="45.6600211" lon="10.1274562"><ele>553.75</ele><time>2026-05-02T08:55:18.813Z</time></trkpt><trkpt lat="45.6601894" lon="10.1273979"><ele>557.0</ele><time>2026-05-02T08:55:19.813Z</time></trkpt><trkpt lat="45.6603535" lon="10.127342"><ele>557.0</ele><time>2026-05-02T08:55:20.813Z</time></trkpt><trkpt lat="45.66051" lon="10.1272981"><ele>557.0</ele><time>2026-05-02T08:55:21.813Z</time></trkpt><trkpt lat="45.6606581" lon="10.1272818"><ele>557.0</ele><time>2026-05-02T08:55:22.813Z</time></trkpt><trkpt lat="45.6607984" lon="10.1273121"><ele>557.0</ele><time>2026-05-02T08:55:23.813Z</time></trkpt><trkpt lat="45.6609364" lon="10.1273832"><ele>557.0</ele><time>2026-05-02T08:55:24.813Z</time></trkpt><trkpt lat="45.6610614" lon="10.127502"><ele>557.0</ele><time>2026-05-02T08:55:25.813Z</time></trkpt><trkpt lat="45.661168" lon="10.1276675"><ele>559.0</ele><time>2026-05-02T08:55:26.813Z</time></trkpt><trkpt lat="45.6612544" lon="10.1278537"><ele>561.0</ele><time>2026-05-02T08:55:27.813Z</time></trkpt><trkpt lat="45.6613226" lon="10.128055"><ele>563.0</ele><time>2026-05-02T08:55:28.813Z</time></trkpt><trkpt lat="45.6613926" lon="10.1282609"><ele>555.5</ele><time>2026-05-02T08:55:29.813Z</time></trkpt><trkpt lat="45.6614672" lon="10.1284473"><ele>548.0</ele><time>2026-05-02T08:55:30.813Z</time></trkpt><trkpt lat="45.6615515" lon="10.1286162"><ele>540.5</ele><time>2026-05-02T08:55:31.813Z</time></trkpt><trkpt lat="45.6616615" lon="10.1287661"><ele>533.0</ele><time>2026-05-02T08:55:32.813Z</time></trkpt><trkpt lat="45.6617963" lon="10.1288689"><ele>533.0</ele><time>2026-05-02T08:55:33.813Z</time></trkpt><trkpt lat="45.6619433" lon="10.1289418"><ele>533.0</ele><time>2026-05-02T08:55:34.813Z</time></trkpt><trkpt lat="45.6620957" lon="10.1289886"><ele>533.0</ele><time>2026-05-02T08:55:35.813Z</time></trkpt><trkpt lat="45.6622556" lon="10.1290349"><ele>524.3333333333333</ele><time>2026-05-02T08:55:36.813Z</time></trkpt><trkpt lat="45.66241" lon="10.1290834"><ele>515.6666666666666</ele><time>2026-05-02T08:55:37.813Z</time></trkpt><trkpt lat="45.6625695" lon="10.129117"><ele>507.0</ele><time>2026-05-02T08:55:38.813Z</time></trkpt><trkpt lat="45.6627275" lon="10.1291464"><ele>509.25</ele><time>2026-05-02T08:55:39.813Z</time></trkpt><trkpt lat="45.6628767" lon="10.1291791"><ele>511.5</ele><time>2026-05-02T08:55:40.813Z</time></trkpt><trkpt lat="45.6630218" lon="10.1291883"><ele>513.75</ele><time>2026-05-02T08:55:41.813Z</time></trkpt><trkpt lat="45.6631658" lon="10.1292043"><ele>516.0</ele><time>2026-05-02T08:55:42.813Z</time></trkpt><trkpt lat="45.6632923" lon="10.1292569"><ele>516.0</ele><time>2026-05-02T08:55:43.813Z</time></trkpt><trkpt lat="45.6634149" lon="10.1293403"><ele>516.0</ele><time>2026-05-02T08:55:44.813Z</time></trkpt><trkpt lat="45.6635151" lon="10.1294931"><ele>516.0</ele><time>2026-05-02T08:55:45.813Z</time></trkpt><trkpt lat="45.6636062" lon="10.1297239"><ele>523.5</ele><time>2026-05-02T08:55:46.813Z</time></trkpt><trkpt lat="45.66371" lon="10.1300104"><ele>531.0</ele><time>2026-05-02T08:55:47.813Z</time></trkpt><trkpt lat="45.6638214" lon="10.1303122"><ele>531.0</ele><time>2026-05-02T08:55:48.813Z</time></trkpt><trkpt lat="45.6639223" lon="10.1305983"><ele>531.0</ele><time>2026-05-02T08:55:49.813Z</time></trkpt><trkpt lat="45.6640134" lon="10.1308736"><ele>531.0</ele><time>2026-05-02T08:55:50.813Z</time></trkpt><trkpt lat="45.6641046" lon="10.1311349"><ele>522.6666666666666</ele><time>2026-05-02T08:55:51.813Z</time></trkpt><trkpt lat="45.6641789" lon="10.1313837"><ele>514.3333333333333</ele><time>2026-05-02T08:55:52.813Z</time></trkpt><trkpt lat="45.6642252" lon="10.131619"><ele>506.0</ele><time>2026-05-02T08:55:53.813Z</time></trkpt><trkpt lat="45.664236" lon="10.1318447"><ele>502.66666666666663</ele><time>2026-05-02T08:55:54.813Z</time></trkpt><trkpt lat="45.6642226" lon="10.1320706"><ele>499.33333333333337</ele><time>2026-05-02T08:55:55.813Z</time></trkpt><trkpt lat="45.6641784" lon="10.1322812"><ele>496.0</ele><time>2026-05-02T08:55:56.813Z</time></trkpt><trkpt lat="45.6641035" lon="10.132456"><ele>494.75</ele><time>2026-05-02T08:55:57.813Z</time></trkpt><trkpt lat="45.6640104" lon="10.1326092"><ele>493.5</ele><time>2026-05-02T08:55:58.813Z</time></trkpt><trkpt lat="45.6639411" lon="10.1327549"><ele>492.25</ele><time>2026-05-02T08:55:59.813Z</time></trkpt><trkpt lat="45.6639091" lon="10.1329037"><ele>491.0</ele><time>2026-05-02T08:56:00.813Z</time></trkpt><trkpt lat="45.6639347" lon="10.1330633"><ele>491.0</ele><time>2026-05-02T08:56:01.813Z</time></trkpt><trkpt lat="45.6640269" lon="10.1332041"><ele>491.0</ele><time>2026-05-02T08:56:02.813Z</time></trkpt><trkpt lat="45.6641535" lon="10.133334"><ele>491.0</ele><time>2026-05-02T08:56:03.813Z</time></trkpt><trkpt lat="45.6642798" lon="10.1334613"><ele>491.0</ele><time>2026-05-02T08:56:04.813Z</time></trkpt><trkpt lat="45.6643771" lon="10.1336124"><ele>487.75</ele><time>2026-05-02T08:56:05.813Z</time></trkpt><trkpt lat="45.6644319" lon="10.1337833"><ele>484.5</ele><time>2026-05-02T08:56:06.813Z</time></trkpt><trkpt lat="45.6644267" lon="10.1339848"><ele>481.25</ele><time>2026-05-02T08:56:07.813Z</time></trkpt><trkpt lat="45.6643901" lon="10.1342115"><ele>478.0</ele><time>2026-05-02T08:56:08.813Z</time></trkpt><trkpt lat="45.6643563" lon="10.1344656"><ele>475.6666666666667</ele><time>2026-05-02T08:56:09.813Z</time></trkpt><trkpt lat="45.6643577" lon="10.134714"><ele>473.33333333333337</ele><time>2026-05-02T08:56:10.813Z</time></trkpt><trkpt lat="45.6643766" lon="10.1349685"><ele>471.0</ele><time>2026-05-02T08:56:11.813Z</time></trkpt><trkpt lat="45.6643897" lon="10.1352136"><ele>470.0</ele><time>2026-05-02T08:56:12.813Z</time></trkpt><trkpt lat="45.6643893" lon="10.1354633"><ele>469.0</ele><time>2026-05-02T08:56:13.813Z</time></trkpt><trkpt lat="45.6643882" lon="10.1357275"><ele>468.0</ele><time>2026-05-02T08:56:14.813Z</time></trkpt><trkpt lat="45.6643897" lon="10.1359787"><ele>464.66666666666663</ele><time>2026-05-02T08:56:15.813Z</time></trkpt><trkpt lat="45.6643733" lon="10.1362086"><ele>461.3333333333333</ele><time>2026-05-02T08:56:16.813Z</time></trkpt><trkpt lat="45.6643429" lon="10.1364297"><ele>458.0</ele><time>2026-05-02T08:56:17.813Z</time></trkpt><trkpt lat="45.6643196" lon="10.1366436"><ele>457.0</ele><time>2026-05-02T08:56:18.813Z</time></trkpt><trkpt lat="45.664297" lon="10.136855"><ele>456.0</ele><time>2026-05-02T08:56:19.813Z</time></trkpt><trkpt lat="45.6642939" lon="10.1370814"><ele>455.0</ele><time>2026-05-02T08:56:20.813Z</time></trkpt><trkpt lat="45.6642911" lon="10.1372988"><ele>453.5</ele><time>2026-05-02T08:56:21.813Z</time></trkpt><trkpt lat="45.6643005" lon="10.1375099"><ele>452.0</ele><time>2026-05-02T08:56:22.813Z</time></trkpt><trkpt lat="45.6643318" lon="10.1377193"><ele>450.5</ele><time>2026-05-02T08:56:23.813Z</time></trkpt><trkpt lat="45.6643779" lon="10.1379068"><ele>449.0</ele><time>2026-05-02T08:56:24.813Z</time></trkpt><trkpt lat="45.6644481" lon="10.138081"><ele>450.66666666666663</ele><time>2026-05-02T08:56:25.813Z</time></trkpt><trkpt lat="45.6645436" lon="10.1382417"><ele>452.33333333333337</ele><time>2026-05-02T08:56:26.813Z</time></trkpt><trkpt lat="45.6646537" lon="10.1383948"><ele>454.0</ele><time>2026-05-02T08:56:27.813Z</time></trkpt><trkpt lat="45.6647776" lon="10.1385516"><ele>454.0</ele><time>2026-05-02T08:56:28.813Z</time></trkpt><trkpt lat="45.664921" lon="10.1387187"><ele>454.0</ele><time>2026-05-02T08:56:29.813Z</time></trkpt><trkpt lat="45.6650743" lon="10.1389005"><ele>454.0</ele><time>2026-05-02T08:56:30.813Z</time></trkpt><trkpt lat="45.6652305" lon="10.1390966"><ele>452.0</ele><time>2026-05-02T08:56:31.813Z</time></trkpt><trkpt lat="45.6653927" lon="10.1392893"><ele>450.0</ele><time>2026-05-02T08:56:32.813Z</time></trkpt><trkpt lat="45.6655463" lon="10.1394936"><ele>448.0</ele><time>2026-05-02T08:56:33.813Z</time></trkpt><trkpt lat="45.6657069" lon="10.1396927"><ele>446.6666666666667</ele><time>2026-05-02T08:56:34.813Z</time></trkpt><trkpt lat="45.6658636" lon="10.1398874"><ele>445.33333333333337</ele><time>2026-05-02T08:56:35.813Z</time></trkpt><trkpt lat="45.6660153" lon="10.1400755"><ele>444.0</ele><time>2026-05-02T08:56:36.813Z</time></trkpt><trkpt lat="45.6661694" lon="10.1402497"><ele>444.0</ele><time>2026-05-02T08:56:37.813Z</time></trkpt><trkpt lat="45.66632" lon="10.1404217"><ele>444.0</ele><time>2026-05-02T08:56:38.813Z</time></trkpt><trkpt lat="45.666469" lon="10.1405875"><ele>444.0</ele><time>2026-05-02T08:56:39.813Z</time></trkpt><trkpt lat="45.6666064" lon="10.140778"><ele>444.66666666666663</ele><time>2026-05-02T08:56:40.813Z</time></trkpt><trkpt lat="45.6667305" lon="10.140985"><ele>445.3333333333333</ele><time>2026-05-02T08:56:41.813Z</time></trkpt><trkpt lat="45.6668499" lon="10.1412113"><ele>446.0</ele><time>2026-05-02T08:56:42.813Z</time></trkpt><trkpt lat="45.66697" lon="10.1414435"><ele>440.3333333333333</ele><time>2026-05-02T08:56:43.813Z</time></trkpt><trkpt lat="45.6670868" lon="10.1416783"><ele>434.66666666666663</ele><time>2026-05-02T08:56:44.813Z</time></trkpt><trkpt lat="45.6671935" lon="10.1419167"><ele>429.0</ele><time>2026-05-02T08:56:45.813Z</time></trkpt><trkpt lat="45.667285" lon="10.1421738"><ele>427.33333333333337</ele><time>2026-05-02T08:56:46.813Z</time></trkpt><trkpt lat="45.6673755" lon="10.1424422"><ele>425.6666666666667</ele><time>2026-05-02T08:56:47.813Z</time></trkpt><trkpt lat="45.6674673" lon="10.1426979"><ele>424.0</ele><time>2026-05-02T08:56:48.813Z</time></trkpt><trkpt lat="45.667571" lon="10.1429327"><ele>424.0</ele><time>2026-05-02T08:56:49.813Z</time></trkpt><trkpt lat="45.6676923" lon="10.1431573"><ele>424.0</ele><time>2026-05-02T08:56:50.813Z</time></trkpt><trkpt lat="45.6678256" lon="10.1433582"><ele>424.0</ele><time>2026-05-02T08:56:51.813Z</time></trkpt><trkpt lat="45.6679615" lon="10.1435556"><ele>424.33333333333337</ele><time>2026-05-02T08:56:52.813Z</time></trkpt><trkpt lat="45.6680991" lon="10.1437473"><ele>424.66666666666663</ele><time>2026-05-02T08:56:53.813Z</time></trkpt><trkpt lat="45.6682357" lon="10.1439251"><ele>425.0</ele><time>2026-05-02T08:56:54.813Z</time></trkpt><trkpt lat="45.6683659" lon="10.1440991"><ele>425.3333333333333</ele><time>2026-05-02T08:56:55.813Z</time></trkpt><trkpt lat="45.6684885" lon="10.1442722"><ele>425.66666666666663</ele><time>2026-05-02T08:56:56.813Z</time></trkpt><trkpt lat="45.6685815" lon="10.1444587"><ele>426.0</ele><time>2026-05-02T08:56:57.813Z</time></trkpt><trkpt lat="45.6686359" lon="10.1446825"><ele>423.33333333333337</ele><time>2026-05-02T08:56:58.813Z</time></trkpt><trkpt lat="45.6686308" lon="10.144934"><ele>420.6666666666667</ele><time>2026-05-02T08:56:59.813Z</time></trkpt><trkpt lat="45.6686044" lon="10.1451872"><ele>418.0</ele><time>2026-05-02T08:57:00.813Z</time></trkpt><trkpt lat="45.6685845" lon="10.1454323"><ele>417.33333333333337</ele><time>2026-05-02T08:57:01.813Z</time></trkpt><trkpt lat="45.6685678" lon="10.1456778"><ele>416.66666666666663</ele><time>2026-05-02T08:57:02.813Z</time></trkpt><trkpt lat="45.6685895" lon="10.1458956"><ele>416.0</ele><time>2026-05-02T08:57:03.813Z</time></trkpt><trkpt lat="45.6686558" lon="10.1461003"><ele>415.3333333333333</ele><time>2026-05-02T08:57:04.813Z</time></trkpt><trkpt lat="45.66876" lon="10.1462888"><ele>414.66666666666663</ele><time>2026-05-02T08:57:05.813Z</time></trkpt><trkpt lat="45.6688834" lon="10.1464675"><ele>414.0</ele><time>2026-05-02T08:57:06.813Z</time></trkpt><trkpt lat="45.6690058" lon="10.1466481"><ele>410.0</ele><time>2026-05-02T08:57:07.813Z</time></trkpt><trkpt lat="45.6691028" lon="10.1468471"><ele>406.0</ele><time>2026-05-02T08:57:08.813Z</time></trkpt><trkpt lat="45.6691673" lon="10.1470802"><ele>402.0</ele><time>2026-05-02T08:57:09.813Z</time></trkpt><trkpt lat="45.6692092" lon="10.1473148"><ele>399.33333333333337</ele><time>2026-05-02T08:57:10.813Z</time></trkpt><trkpt lat="45.6692386" lon="10.1475406"><ele>396.6666666666667</ele><time>2026-05-02T08:57:11.813Z</time></trkpt><trkpt lat="45.6692475" lon="10.1477601"><ele>394.0</ele><time>2026-05-02T08:57:12.813Z</time></trkpt><trkpt lat="45.6692438" lon="10.1479671"><ele>394.0</ele><time>2026-05-02T08:57:13.813Z</time></trkpt><trkpt lat="45.6692357" lon="10.1481601"><ele>394.0</ele><time>2026-05-02T08:57:14.813Z</time></trkpt><trkpt lat="45.6692186" lon="10.1483438"><ele>394.0</ele><time>2026-05-02T08:57:15.813Z</time></trkpt><trkpt lat="45.6691746" lon="10.1485201"><ele>394.0</ele><time>2026-05-02T08:57:16.813Z</time></trkpt><trkpt lat="45.6690969" lon="10.1486846"><ele>392.6666666666667</ele><time>2026-05-02T08:57:17.813Z</time></trkpt><trkpt lat="45.6689904" lon="10.1488271"><ele>391.33333333333337</ele><time>2026-05-02T08:57:18.813Z</time></trkpt><trkpt lat="45.6688615" lon="10.1489571"><ele>390.0</ele><time>2026-05-02T08:57:19.813Z</time></trkpt><trkpt lat="45.668721" lon="10.1490866"><ele>388.66666666666663</ele><time>2026-05-02T08:57:20.813Z</time></trkpt><trkpt lat="45.6685783" lon="10.1492241"><ele>387.3333333333333</ele><time>2026-05-02T08:57:21.813Z</time></trkpt><trkpt lat="45.6684283" lon="10.1493646"><ele>386.0</ele><time>2026-05-02T08:57:22.813Z</time></trkpt><trkpt lat="45.6682861" lon="10.1495048"><ele>386.0</ele><time>2026-05-02T08:57:23.813Z</time></trkpt><trkpt lat="45.6681542" lon="10.1496673"><ele>386.0</ele><time>2026-05-02T08:57:24.813Z</time></trkpt><trkpt lat="45.6680375" lon="10.1498502"><ele>386.0</ele><time>2026-05-02T08:57:25.813Z</time></trkpt><trkpt lat="45.6679303" lon="10.150049"><ele>384.66666666666663</ele><time>2026-05-02T08:57:26.813Z</time></trkpt><trkpt lat="45.6678281" lon="10.150267"><ele>383.3333333333333</ele><time>2026-05-02T08:57:27.813Z</time></trkpt><trkpt lat="45.6677374" lon="10.15048"><ele>382.0</ele><time>2026-05-02T08:57:28.813Z</time></trkpt><trkpt lat="45.6676675" lon="10.1507025"><ele>382.0</ele><time>2026-05-02T08:57:29.813Z</time></trkpt><trkpt lat="45.6676202" lon="10.1509447"><ele>382.0</ele><time>2026-05-02T08:57:30.813Z</time></trkpt><trkpt lat="45.6675839" lon="10.1511912"><ele>382.0</ele><time>2026-05-02T08:57:31.813Z</time></trkpt><trkpt lat="45.667558" lon="10.1514461"><ele>378.3333333333333</ele><time>2026-05-02T08:57:32.813Z</time></trkpt><trkpt lat="45.6675408" lon="10.1517047"><ele>374.6666666666667</ele><time>2026-05-02T08:57:33.813Z</time></trkpt><trkpt lat="45.6675241" lon="10.15196"><ele>371.0</ele><time>2026-05-02T08:57:34.813Z</time></trkpt><trkpt lat="45.6675055" lon="10.1522069"><ele>370.33333333333337</ele><time>2026-05-02T08:57:35.813Z</time></trkpt><trkpt lat="45.6674852" lon="10.1524326"><ele>369.6666666666667</ele><time>2026-05-02T08:57:36.813Z</time></trkpt><trkpt lat="45.6674689" lon="10.1526545"><ele>369.0</ele><time>2026-05-02T08:57:37.813Z</time></trkpt><trkpt lat="45.667455" lon="10.1528699"><ele>369.0</ele><time>2026-05-02T08:57:38.813Z</time></trkpt><trkpt lat="45.6674529" lon="10.1530814"><ele>369.0</ele><time>2026-05-02T08:57:39.813Z</time></trkpt><trkpt lat="45.66748" lon="10.153281"><ele>369.0</ele><time>2026-05-02T08:57:40.813Z</time></trkpt><trkpt lat="45.6675246" lon="10.1534742"><ele>369.0</ele><time>2026-05-02T08:57:41.813Z</time></trkpt><trkpt lat="45.667582" lon="10.1536647"><ele>369.0</ele><time>2026-05-02T08:57:42.813Z</time></trkpt><trkpt lat="45.6676389" lon="10.1538622"><ele>369.0</ele><time>2026-05-02T08:57:43.813Z</time></trkpt><trkpt lat="45.6676912" lon="10.1540497"><ele>369.0</ele><time>2026-05-02T08:57:44.813Z</time></trkpt><trkpt lat="45.6677509" lon="10.1542362"><ele>369.0</ele><time>2026-05-02T08:57:45.813Z</time></trkpt><trkpt lat="45.6678119" lon="10.154426"><ele>369.0</ele><time>2026-05-02T08:57:46.813Z</time></trkpt><trkpt lat="45.6678706" lon="10.1546141"><ele>369.0</ele><time>2026-05-02T08:57:47.813Z</time></trkpt><trkpt lat="45.6679301" lon="10.1547956"><ele>369.0</ele><time>2026-05-02T08:57:48.813Z</time></trkpt><trkpt lat="45.6679913" lon="10.1549801"><ele>369.0</ele><time>2026-05-02T08:57:49.813Z</time></trkpt><trkpt lat="45.6680469" lon="10.1551609"><ele>367.25</ele><time>2026-05-02T08:57:50.813Z</time></trkpt><trkpt lat="45.6681009" lon="10.155346"><ele>365.5</ele><time>2026-05-02T08:57:51.813Z</time></trkpt><trkpt lat="45.6681493" lon="10.1555334"><ele>363.75</ele><time>2026-05-02T08:57:52.813Z</time></trkpt><trkpt lat="45.6682036" lon="10.1557214"><ele>362.0</ele><time>2026-05-02T08:57:53.813Z</time></trkpt><trkpt lat="45.6682569" lon="10.1559067"><ele>361.25</ele><time>2026-05-02T08:57:54.813Z</time></trkpt><trkpt lat="45.6683018" lon="10.1561021"><ele>360.5</ele><time>2026-05-02T08:57:55.813Z</time></trkpt><trkpt lat="45.668346" lon="10.156283"><ele>359.75</ele><time>2026-05-02T08:57:56.813Z</time></trkpt><trkpt lat="45.6683936" lon="10.1564694"><ele>359.0</ele><time>2026-05-02T08:57:57.813Z</time></trkpt><trkpt lat="45.6684477" lon="10.1566561"><ele>357.75</ele><time>2026-05-02T08:57:58.813Z</time></trkpt><trkpt lat="45.6685009" lon="10.1568395"><ele>356.5</ele><time>2026-05-02T08:57:59.813Z</time></trkpt><trkpt lat="45.6685552" lon="10.1570344"><ele>355.25</ele><time>2026-05-02T08:58:00.813Z</time></trkpt><trkpt lat="45.6686099" lon="10.1572261"><ele>354.0</ele><time>2026-05-02T08:58:01.813Z</time></trkpt><trkpt lat="45.668657" lon="10.1574148"><ele>358.75</ele><time>2026-05-02T08:58:02.813Z</time></trkpt><trkpt lat="45.6686929" lon="10.157602"><ele>363.5</ele><time>2026-05-02T08:58:03.813Z</time></trkpt><trkpt lat="45.6687297" lon="10.1577804"><ele>368.25</ele><time>2026-05-02T08:58:04.813Z</time></trkpt><trkpt lat="45.6687636" lon="10.1579558"><ele>373.0</ele><time>2026-05-02T08:58:05.813Z</time></trkpt><trkpt lat="45.6687941" lon="10.1581323"><ele>369.79999999999995</ele><time>2026-05-02T08:58:06.813Z</time></trkpt><trkpt lat="45.6688227" lon="10.1583043"><ele>366.6</ele><time>2026-05-02T08:58:07.813Z</time></trkpt><trkpt lat="45.6688559" lon="10.1584591"><ele>363.4</ele><time>2026-05-02T08:58:08.813Z</time></trkpt><trkpt lat="45.6688839" lon="10.1585924"><ele>360.20000000000005</ele><time>2026-05-02T08:58:09.813Z</time></trkpt><trkpt lat="45.6689136" lon="10.1587006"><ele>357.0</ele><time>2026-05-02T08:58:10.813Z</time></trkpt><trkpt lat="45.6689352" lon="10.1587879"><ele>357.0</ele><time>2026-05-02T08:58:11.813Z</time></trkpt><trkpt lat="45.6689862" lon="10.1588718"><ele>357.0</ele><time>2026-05-02T08:58:13.813Z</time></trkpt><trkpt lat="45.6690545" lon="10.1589215"><ele>357.0</ele><time>2026-05-02T08:58:15.813Z</time></trkpt><trkpt lat="45.6690856" lon="10.1590252"><ele>357.0</ele><time>2026-05-02T08:58:18.813Z</time></trkpt><trkpt lat="45.6691268" lon="10.158948"><ele>357.0</ele><time>2026-05-02T09:00:25.813Z</time></trkpt><trkpt lat="45.6690727" lon="10.15889"><ele>357.0</ele><time>2026-05-02T09:09:08.812Z</time></trkpt><trkpt lat="45.6691252" lon="10.1589528"><ele>357.0</ele><time>2026-05-02T09:09:15.812Z</time></trkpt><trkpt lat="45.6691539" lon="10.1590524"><ele>355.3333333333333</ele><time>2026-05-02T09:09:18.812Z</time></trkpt><trkpt lat="45.6691923" lon="10.1591501"><ele>353.6666666666667</ele><time>2026-05-02T09:09:21.812Z</time></trkpt><trkpt lat="45.6691801" lon="10.1592494"><ele>352.0</ele><time>2026-05-02T09:09:24.812Z</time></trkpt><trkpt lat="45.6691209" lon="10.1593037"><ele>350.33333333333337</ele><time>2026-05-02T09:09:27.812Z</time></trkpt><trkpt lat="45.6690976" lon="10.1594818"><ele>348.6666666666667</ele><time>2026-05-02T09:10:05.811Z</time></trkpt><trkpt lat="45.6691179" lon="10.1596171"><ele>347.0</ele><time>2026-05-02T09:10:06.811Z</time></trkpt><trkpt lat="45.6691521" lon="10.1597902"><ele>346.33333333333337</ele><time>2026-05-02T09:10:07.811Z</time></trkpt><trkpt lat="45.6692044" lon="10.16"><ele>345.6666666666667</ele><time>2026-05-02T09:10:08.811Z</time></trkpt><trkpt lat="45.6692543" lon="10.160224"><ele>345.0</ele><time>2026-05-02T09:10:09.811Z</time></trkpt><trkpt lat="45.6692989" lon="10.160448"><ele>345.0</ele><time>2026-05-02T09:10:10.811Z</time></trkpt><trkpt lat="45.669345" lon="10.1606748"><ele>345.0</ele><time>2026-05-02T09:10:11.811Z</time></trkpt><trkpt lat="45.6693897" lon="10.1609056"><ele>345.0</ele><time>2026-05-02T09:10:12.811Z</time></trkpt><trkpt lat="45.6694414" lon="10.1611295"><ele>346.6666666666667</ele><time>2026-05-02T09:10:13.811Z</time></trkpt><trkpt lat="45.6694907" lon="10.1613621"><ele>348.33333333333337</ele><time>2026-05-02T09:10:14.811Z</time></trkpt><trkpt lat="45.6695457" lon="10.1615973"><ele>350.0</ele><time>2026-05-02T09:10:15.811Z</time></trkpt><trkpt lat="45.6696008" lon="10.1618307"><ele>350.0</ele><time>2026-05-02T09:10:16.811Z</time></trkpt><trkpt lat="45.669647" lon="10.1620613"><ele>350.0</ele><time>2026-05-02T09:10:17.811Z</time></trkpt><trkpt lat="45.6696896" lon="10.1622968"><ele>350.0</ele><time>2026-05-02T09:10:18.811Z</time></trkpt><trkpt lat="45.6697347" lon="10.162534"><ele>348.0</ele><time>2026-05-02T09:10:19.811Z</time></trkpt><trkpt lat="45.6697765" lon="10.1627828"><ele>346.0</ele><time>2026-05-02T09:10:20.811Z</time></trkpt><trkpt lat="45.6698163" lon="10.1630423"><ele>344.0</ele><time>2026-05-02T09:10:21.811Z</time></trkpt><trkpt lat="45.6698536" lon="10.1632989"><ele>343.6666666666667</ele><time>2026-05-02T09:10:22.811Z</time></trkpt><trkpt lat="45.6698897" lon="10.1635579"><ele>343.3333333333333</ele><time>2026-05-02T09:10:23.811Z</time></trkpt><trkpt lat="45.6699264" lon="10.163819"><ele>343.0</ele><time>2026-05-02T09:10:24.811Z</time></trkpt><trkpt lat="45.6699668" lon="10.1640831"><ele>342.0</ele><time>2026-05-02T09:10:25.811Z</time></trkpt><trkpt lat="45.6700041" lon="10.1643506"><ele>341.0</ele><time>2026-05-02T09:10:26.812Z</time></trkpt><trkpt lat="45.6700527" lon="10.1646248"><ele>340.0</ele><time>2026-05-02T09:10:27.811Z</time></trkpt><trkpt lat="45.6700964" lon="10.1649064"><ele>338.66666666666663</ele><time>2026-05-02T09:10:28.811Z</time></trkpt><trkpt lat="45.6701417" lon="10.1651886"><ele>337.3333333333333</ele><time>2026-05-02T09:10:29.811Z</time></trkpt><trkpt lat="45.6701858" lon="10.1654647"><ele>336.0</ele><time>2026-05-02T09:10:30.811Z</time></trkpt><trkpt lat="45.6702281" lon="10.1657427"><ele>335.3333333333333</ele><time>2026-05-02T09:10:31.811Z</time></trkpt><trkpt lat="45.6702737" lon="10.1660208"><ele>334.66666666666663</ele><time>2026-05-02T09:10:32.811Z</time></trkpt><trkpt lat="45.670318" lon="10.1663003"><ele>334.0</ele><time>2026-05-02T09:10:33.811Z</time></trkpt><trkpt lat="45.6703617" lon="10.1665751"><ele>334.0</ele><time>2026-05-02T09:10:34.811Z</time></trkpt><trkpt lat="45.6703989" lon="10.1668546"><ele>334.0</ele><time>2026-05-02T09:10:35.811Z</time></trkpt><trkpt lat="45.6704339" lon="10.1671326"><ele>334.0</ele><time>2026-05-02T09:10:36.811Z</time></trkpt><trkpt lat="45.6704699" lon="10.1674077"><ele>333.0</ele><time>2026-05-02T09:10:37.811Z</time></trkpt><trkpt lat="45.6705134" lon="10.1676784"><ele>332.0</ele><time>2026-05-02T09:10:38.811Z</time></trkpt><trkpt lat="45.6705578" lon="10.1679479"><ele>331.0</ele><time>2026-05-02T09:10:39.811Z</time></trkpt><trkpt lat="45.6706002" lon="10.1682135"><ele>330.66666666666663</ele><time>2026-05-02T09:10:40.811Z</time></trkpt><trkpt lat="45.670642" lon="10.1684818"><ele>330.3333333333333</ele><time>2026-05-02T09:10:41.811Z</time></trkpt><trkpt lat="45.6706873" lon="10.168749"><ele>330.0</ele><time>2026-05-02T09:10:42.811Z</time></trkpt><trkpt lat="45.6707313" lon="10.1690125"><ele>329.6666666666667</ele><time>2026-05-02T09:10:43.811Z</time></trkpt><trkpt lat="45.6707739" lon="10.1692698"><ele>329.33333333333337</ele><time>2026-05-02T09:10:44.811Z</time></trkpt><trkpt lat="45.6708171" lon="10.1695326"><ele>329.0</ele><time>2026-05-02T09:10:45.811Z</time></trkpt><trkpt lat="45.6708661" lon="10.1697899"><ele>328.33333333333337</ele><time>2026-05-02T09:10:46.811Z</time></trkpt><trkpt lat="45.6709088" lon="10.1700551"><ele>327.6666666666667</ele><time>2026-05-02T09:10:47.811Z</time></trkpt><trkpt lat="45.6709495" lon="10.1703251"><ele>327.0</ele><time>2026-05-02T09:10:48.811Z</time></trkpt><trkpt lat="45.6709885" lon="10.1706026"><ele>326.3333333333333</ele><time>2026-05-02T09:10:49.811Z</time></trkpt><trkpt lat="45.6710354" lon="10.1708773"><ele>325.66666666666663</ele><time>2026-05-02T09:10:50.811Z</time></trkpt><trkpt lat="45.6710736" lon="10.1711414"><ele>325.0</ele><time>2026-05-02T09:10:51.811Z</time></trkpt><trkpt lat="45.6711104" lon="10.171404"><ele>325.66666666666663</ele><time>2026-05-02T09:10:52.811Z</time></trkpt><trkpt lat="45.671147" lon="10.1716757"><ele>326.3333333333333</ele><time>2026-05-02T09:10:53.811Z</time></trkpt><trkpt lat="45.6711878" lon="10.171946"><ele>327.0</ele><time>2026-05-02T09:10:54.811Z</time></trkpt><trkpt lat="45.6712335" lon="10.1722204"><ele>326.6666666666667</ele><time>2026-05-02T09:10:55.811Z</time></trkpt><trkpt lat="45.6712853" lon="10.172485"><ele>326.33333333333337</ele><time>2026-05-02T09:10:56.811Z</time></trkpt><trkpt lat="45.6713304" lon="10.1727436"><ele>326.0</ele><time>2026-05-02T09:10:57.811Z</time></trkpt><trkpt lat="45.671359" lon="10.1730103"><ele>327.0</ele><time>2026-05-02T09:10:58.811Z</time></trkpt><trkpt lat="45.6713765" lon="10.1732743"><ele>328.0</ele><time>2026-05-02T09:10:59.811Z</time></trkpt><trkpt lat="45.6713745" lon="10.1735303"><ele>329.0</ele><time>2026-05-02T09:11:00.811Z</time></trkpt><trkpt lat="45.6713454" lon="10.1737838"><ele>331.0</ele><time>2026-05-02T09:11:01.811Z</time></trkpt><trkpt lat="45.6712831" lon="10.174024"><ele>333.0</ele><time>2026-05-02T09:11:02.811Z</time></trkpt><trkpt lat="45.6711923" lon="10.1742514"><ele>335.0</ele><time>2026-05-02T09:11:03.811Z</time></trkpt><trkpt lat="45.6710887" lon="10.1744787"><ele>330.0</ele><time>2026-05-02T09:11:04.811Z</time></trkpt><trkpt lat="45.6710056" lon="10.1747168"><ele>325.0</ele><time>2026-05-02T09:11:05.811Z</time></trkpt><trkpt lat="45.670955" lon="10.1749719"><ele>320.0</ele><time>2026-05-02T09:11:06.811Z</time></trkpt><trkpt lat="45.670958" lon="10.175239"><ele>319.33333333333337</ele><time>2026-05-02T09:11:07.811Z</time></trkpt><trkpt lat="45.6709826" lon="10.1755123"><ele>318.6666666666667</ele><time>2026-05-02T09:11:08.811Z</time></trkpt><trkpt lat="45.6710017" lon="10.1757899"><ele>318.0</ele><time>2026-05-02T09:11:09.811Z</time></trkpt><trkpt lat="45.6710113" lon="10.176063"><ele>316.6666666666667</ele><time>2026-05-02T09:11:10.811Z</time></trkpt><trkpt lat="45.6710174" lon="10.1763224"><ele>315.33333333333337</ele><time>2026-05-02T09:11:11.811Z</time></trkpt><trkpt lat="45.6710142" lon="10.1765764"><ele>314.0</ele><time>2026-05-02T09:11:12.811Z</time></trkpt><trkpt lat="45.6709904" lon="10.176824"><ele>313.6666666666667</ele><time>2026-05-02T09:11:13.811Z</time></trkpt><trkpt lat="45.6709353" lon="10.1770595"><ele>313.3333333333333</ele><time>2026-05-02T09:11:14.811Z</time></trkpt><trkpt lat="45.6708593" lon="10.1772918"><ele>313.0</ele><time>2026-05-02T09:11:15.811Z</time></trkpt><trkpt lat="45.6707719" lon="10.1775248"><ele>313.0</ele><time>2026-05-02T09:11:16.811Z</time></trkpt><trkpt lat="45.6706926" lon="10.1777627"><ele>313.0</ele><time>2026-05-02T09:11:17.811Z</time></trkpt><trkpt lat="45.6706334" lon="10.1780103"><ele>313.0</ele><time>2026-05-02T09:11:18.811Z</time></trkpt><trkpt lat="45.6705948" lon="10.1782743"><ele>313.0</ele><time>2026-05-02T09:11:19.811Z</time></trkpt><trkpt lat="45.6705763" lon="10.1785478"><ele>313.0</ele><time>2026-05-02T09:11:20.811Z</time></trkpt><trkpt lat="45.6705552" lon="10.1788207"><ele>313.0</ele><time>2026-05-02T09:11:21.811Z</time></trkpt><trkpt lat="45.6705312" lon="10.1790966"><ele>313.0</ele><time>2026-05-02T09:11:22.811Z</time></trkpt><trkpt lat="45.670512" lon="10.1793677"><ele>313.0</ele><time>2026-05-02T09:11:23.811Z</time></trkpt><trkpt lat="45.6704947" lon="10.1796432"><ele>313.0</ele><time>2026-05-02T09:11:24.811Z</time></trkpt><trkpt lat="45.6704715" lon="10.1799155"><ele>314.0</ele><time>2026-05-02T09:11:25.811Z</time></trkpt><trkpt lat="45.6704496" lon="10.1801812"><ele>315.0</ele><time>2026-05-02T09:11:26.811Z</time></trkpt><trkpt lat="45.6704284" lon="10.1804418"><ele>316.0</ele><time>2026-05-02T09:11:27.811Z</time></trkpt><trkpt lat="45.6704103" lon="10.1806935"><ele>316.0</ele><time>2026-05-02T09:11:28.811Z</time></trkpt><trkpt lat="45.6703904" lon="10.1809538"><ele>316.0</ele><time>2026-05-02T09:11:29.811Z</time></trkpt><trkpt lat="45.670367" lon="10.1811938"><ele>316.0</ele><time>2026-05-02T09:11:30.811Z</time></trkpt><trkpt lat="45.6703299" lon="10.1814402"><ele>319.3333333333333</ele><time>2026-05-02T09:11:31.811Z</time></trkpt><trkpt lat="45.6702823" lon="10.1816857"><ele>322.6666666666667</ele><time>2026-05-02T09:11:32.811Z</time></trkpt><trkpt lat="45.6702253" lon="10.1819262"><ele>326.0</ele><time>2026-05-02T09:11:33.811Z</time></trkpt><trkpt lat="45.6701646" lon="10.1821623"><ele>319.33333333333337</ele><time>2026-05-02T09:11:34.811Z</time></trkpt><trkpt lat="45.6701049" lon="10.1823949"><ele>312.6666666666667</ele><time>2026-05-02T09:11:35.811Z</time></trkpt><trkpt lat="45.6700483" lon="10.1826192"><ele>306.0</ele><time>2026-05-02T09:11:36.811Z</time></trkpt><trkpt lat="45.6699963" lon="10.1828346"><ele>306.0</ele><time>2026-05-02T09:11:37.811Z</time></trkpt><trkpt lat="45.669952" lon="10.1830505"><ele>306.0</ele><time>2026-05-02T09:11:38.811Z</time></trkpt><trkpt lat="45.6699175" lon="10.1832602"><ele>306.0</ele><time>2026-05-02T09:11:39.811Z</time></trkpt><trkpt lat="45.6699008" lon="10.1834872"><ele>306.3333333333333</ele><time>2026-05-02T09:11:40.811Z</time></trkpt><trkpt lat="45.6698983" lon="10.1837113"><ele>306.66666666666663</ele><time>2026-05-02T09:11:41.811Z</time></trkpt><trkpt lat="45.6698895" lon="10.1839437"><ele>307.0</ele><time>2026-05-02T09:11:42.811Z</time></trkpt><trkpt lat="45.669891" lon="10.1841758"><ele>304.66666666666663</ele><time>2026-05-02T09:11:43.811Z</time></trkpt><trkpt lat="45.6698973" lon="10.1844059"><ele>302.3333333333333</ele><time>2026-05-02T09:11:44.811Z</time></trkpt><trkpt lat="45.6699242" lon="10.1846238"><ele>300.0</ele><time>2026-05-02T09:11:45.811Z</time></trkpt><trkpt lat="45.6699621" lon="10.1848284"><ele>298.75</ele><time>2026-05-02T09:11:46.811Z</time></trkpt><trkpt lat="45.6700066" lon="10.1850347"><ele>297.5</ele><time>2026-05-02T09:11:47.811Z</time></trkpt><trkpt lat="45.670061" lon="10.1852255"><ele>296.25</ele><time>2026-05-02T09:11:48.811Z</time></trkpt><trkpt lat="45.6701312" lon="10.1854096"><ele>295.0</ele><time>2026-05-02T09:11:49.811Z</time></trkpt><trkpt lat="45.6702245" lon="10.1855711"><ele>295.0</ele><time>2026-05-02T09:11:50.811Z</time></trkpt><trkpt lat="45.6703235" lon="10.185709"><ele>295.0</ele><time>2026-05-02T09:11:51.811Z</time></trkpt><trkpt lat="45.6704108" lon="10.1858332"><ele>295.0</ele><time>2026-05-02T09:11:52.811Z</time></trkpt><trkpt lat="45.6705039" lon="10.1859446"><ele>295.0</ele><time>2026-05-02T09:11:53.811Z</time></trkpt><trkpt lat="45.6705834" lon="10.1860494"><ele>295.0</ele><time>2026-05-02T09:11:54.811Z</time></trkpt><trkpt lat="45.6706518" lon="10.1861517"><ele>295.0</ele><time>2026-05-02T09:11:55.811Z</time></trkpt><trkpt lat="45.6707098" lon="10.186251"><ele>295.0</ele><time>2026-05-02T09:11:56.811Z</time></trkpt><trkpt lat="45.6707595" lon="10.1863435"><ele>295.0</ele><time>2026-05-02T09:11:57.811Z</time></trkpt><trkpt lat="45.6708099" lon="10.1864449"><ele>295.0</ele><time>2026-05-02T09:11:58.811Z</time></trkpt><trkpt lat="45.6708659" lon="10.1865541"><ele>294.8333333333333</ele><time>2026-05-02T09:11:59.811Z</time></trkpt><trkpt lat="45.670922" lon="10.1866664"><ele>294.66666666666663</ele><time>2026-05-02T09:12:00.811Z</time></trkpt><trkpt lat="45.6709756" lon="10.1867717"><ele>294.5</ele><time>2026-05-02T09:12:01.811Z</time></trkpt><trkpt lat="45.6710286" lon="10.1868625"><ele>294.3333333333333</ele><time>2026-05-02T09:12:02.811Z</time></trkpt><trkpt lat="45.6710686" lon="10.1869353"><ele>294.1666666666667</ele><time>2026-05-02T09:12:03.811Z</time></trkpt><trkpt lat="45.6711066" lon="10.1870098"><ele>294.0</ele><time>2026-05-02T09:12:04.811Z</time></trkpt><trkpt lat="45.6711827" lon="10.1871437"><ele>294.0</ele><time>2026-05-02T09:12:06.811Z</time></trkpt><trkpt lat="45.6712533" lon="10.187242"><ele>294.0</ele><time>2026-05-02T09:12:08.811Z</time></trkpt><trkpt lat="45.6713071" lon="10.1872959"><ele>294.0</ele><time>2026-05-02T09:12:10.811Z</time></trkpt><trkpt lat="45.6713755" lon="10.1873638"><ele>294.0</ele><time>2026-05-02T09:12:29.811Z</time></trkpt><trkpt lat="45.6714742" lon="10.1874085"><ele>294.0</ele><time>2026-05-02T09:12:31.811Z</time></trkpt><trkpt lat="45.6715439" lon="10.1873948"><ele>294.0</ele><time>2026-05-02T09:12:32.811Z</time></trkpt><trkpt lat="45.6716281" lon="10.1873357"><ele>294.0</ele><time>2026-05-02T09:12:33.811Z</time></trkpt><trkpt lat="45.6717292" lon="10.1872393"><ele>294.0</ele><time>2026-05-02T09:12:34.811Z</time></trkpt><trkpt lat="45.6718515" lon="10.1871288"><ele>294.0</ele><time>2026-05-02T09:12:35.811Z</time></trkpt><trkpt lat="45.6719783" lon="10.1870176"><ele>294.0</ele><time>2026-05-02T09:12:36.811Z</time></trkpt><trkpt lat="45.6721049" lon="10.1869133"><ele>294.0</ele><time>2026-05-02T09:12:37.811Z</time></trkpt><trkpt lat="45.6722319" lon="10.1868252"><ele>294.0</ele><time>2026-05-02T09:12:38.811Z</time></trkpt><trkpt lat="45.6723584" lon="10.1867447"><ele>294.0</ele><time>2026-05-02T09:12:39.811Z</time></trkpt><trkpt lat="45.672475" lon="10.18666"><ele>294.0</ele><time>2026-05-02T09:12:40.811Z</time></trkpt><trkpt lat="45.672602" lon="10.1866"><ele>294.0</ele><time>2026-05-02T09:12:41.811Z</time></trkpt><trkpt lat="45.6727352" lon="10.1865445"><ele>294.0</ele><time>2026-05-02T09:12:42.811Z</time></trkpt><trkpt lat="45.6728686" lon="10.1864953"><ele>294.0</ele><time>2026-05-02T09:12:43.811Z</time></trkpt><trkpt lat="45.6729972" lon="10.1864574"><ele>294.0</ele><time>2026-05-02T09:12:44.811Z</time></trkpt><trkpt lat="45.6731232" lon="10.1864227"><ele>295.0</ele><time>2026-05-02T09:12:45.811Z</time></trkpt><trkpt lat="45.6732503" lon="10.1863969"><ele>296.0</ele><time>2026-05-02T09:12:46.811Z</time></trkpt><trkpt lat="45.6733661" lon="10.1863789"><ele>297.0</ele><time>2026-05-02T09:12:47.811Z</time></trkpt><trkpt lat="45.6734854" lon="10.186369"><ele>298.0</ele><time>2026-05-02T09:12:48.811Z</time></trkpt><trkpt lat="45.6736062" lon="10.1863633"><ele>298.25</ele><time>2026-05-02T09:12:49.811Z</time></trkpt><trkpt lat="45.6737284" lon="10.1863686"><ele>298.5</ele><time>2026-05-02T09:12:50.811Z</time></trkpt><trkpt lat="45.6738502" lon="10.1863844"><ele>298.75</ele><time>2026-05-02T09:12:51.811Z</time></trkpt><trkpt lat="45.6739648" lon="10.1863966"><ele>299.0</ele><time>2026-05-02T09:12:52.811Z</time></trkpt><trkpt lat="45.6740827" lon="10.1864069"><ele>299.0</ele><time>2026-05-02T09:12:53.811Z</time></trkpt><trkpt lat="45.674199" lon="10.1864191"><ele>299.0</ele><time>2026-05-02T09:12:54.811Z</time></trkpt><trkpt lat="45.6743219" lon="10.1864384"><ele>299.0</ele><time>2026-05-02T09:12:55.811Z</time></trkpt><trkpt lat="45.6744514" lon="10.186458"><ele>299.0</ele><time>2026-05-02T09:12:56.811Z</time></trkpt><trkpt lat="45.6745829" lon="10.1864709"><ele>299.25</ele><time>2026-05-02T09:12:57.811Z</time></trkpt><trkpt lat="45.6747176" lon="10.1864842"><ele>299.5</ele><time>2026-05-02T09:12:58.811Z</time></trkpt><trkpt lat="45.6748512" lon="10.1864987"><ele>299.75</ele><time>2026-05-02T09:12:59.811Z</time></trkpt><trkpt lat="45.6749809" lon="10.1865138"><ele>300.0</ele><time>2026-05-02T09:13:00.811Z</time></trkpt><trkpt lat="45.675112" lon="10.1865292"><ele>300.0</ele><time>2026-05-02T09:13:01.811Z</time></trkpt><trkpt lat="45.6752423" lon="10.1865543"><ele>300.0</ele><time>2026-05-02T09:13:02.811Z</time></trkpt><trkpt lat="45.6753746" lon="10.1865784"><ele>300.0</ele><time>2026-05-02T09:13:03.811Z</time></trkpt><trkpt lat="45.6755027" lon="10.1865998"><ele>300.0</ele><time>2026-05-02T09:13:04.811Z</time></trkpt><trkpt lat="45.6756308" lon="10.186613"><ele>300.0</ele><time>2026-05-02T09:13:05.811Z</time></trkpt><trkpt lat="45.6757594" lon="10.1866295"><ele>300.0</ele><time>2026-05-02T09:13:06.811Z</time></trkpt><trkpt lat="45.6758929" lon="10.1866446"><ele>300.0</ele><time>2026-05-02T09:13:07.811Z</time></trkpt><trkpt lat="45.6760359" lon="10.1866621"><ele>300.0</ele><time>2026-05-02T09:13:08.811Z</time></trkpt><trkpt lat="45.6761867" lon="10.186679"><ele>301.0</ele><time>2026-05-02T09:13:09.811Z</time></trkpt><trkpt lat="45.6763402" lon="10.1866864"><ele>302.0</ele><time>2026-05-02T09:13:10.811Z</time></trkpt><trkpt lat="45.6765022" lon="10.1866904"><ele>303.0</ele><time>2026-05-02T09:13:11.811Z</time></trkpt><trkpt lat="45.6766644" lon="10.1867066"><ele>303.0</ele><time>2026-05-02T09:13:12.811Z</time></trkpt><trkpt lat="45.6768281" lon="10.1867252"><ele>303.0</ele><time>2026-05-02T09:13:13.811Z</time></trkpt><trkpt lat="45.6769981" lon="10.1867512"><ele>303.0</ele><time>2026-05-02T09:13:14.811Z</time></trkpt><trkpt lat="45.677173" lon="10.1867731"><ele>303.0</ele><time>2026-05-02T09:13:15.811Z</time></trkpt><trkpt lat="45.6773512" lon="10.1867961"><ele>303.0</ele><time>2026-05-02T09:13:16.811Z</time></trkpt><trkpt lat="45.6775276" lon="10.1868282"><ele>303.0</ele><time>2026-05-02T09:13:17.811Z</time></trkpt><trkpt lat="45.6777049" lon="10.186863"><ele>303.3333333333333</ele><time>2026-05-02T09:13:18.811Z</time></trkpt><trkpt lat="45.6778858" lon="10.1868955"><ele>303.66666666666663</ele><time>2026-05-02T09:13:19.811Z</time></trkpt><trkpt lat="45.67807" lon="10.1869272"><ele>304.0</ele><time>2026-05-02T09:13:20.811Z</time></trkpt><trkpt lat="45.678255" lon="10.1869509"><ele>304.0</ele><time>2026-05-02T09:13:21.811Z</time></trkpt><trkpt lat="45.6784316" lon="10.186982"><ele>304.0</ele><time>2026-05-02T09:13:22.811Z</time></trkpt><trkpt lat="45.6786167" lon="10.1870089"><ele>304.0</ele><time>2026-05-02T09:13:23.811Z</time></trkpt><trkpt lat="45.678797" lon="10.1870254"><ele>304.0</ele><time>2026-05-02T09:13:24.811Z</time></trkpt><trkpt lat="45.6789746" lon="10.1870514"><ele>304.0</ele><time>2026-05-02T09:13:25.811Z</time></trkpt><trkpt lat="45.6791456" lon="10.1870748"><ele>304.0</ele><time>2026-05-02T09:13:26.811Z</time></trkpt><trkpt lat="45.6793136" lon="10.1870981"><ele>304.66666666666663</ele><time>2026-05-02T09:13:27.811Z</time></trkpt><trkpt lat="45.6794738" lon="10.1871185"><ele>305.3333333333333</ele><time>2026-05-02T09:13:28.811Z</time></trkpt><trkpt lat="45.6796452" lon="10.1871392"><ele>306.0</ele><time>2026-05-02T09:13:29.811Z</time></trkpt><trkpt lat="45.6798126" lon="10.1871542"><ele>306.0</ele><time>2026-05-02T09:13:30.811Z</time></trkpt><trkpt lat="45.6799899" lon="10.187157"><ele>306.0</ele><time>2026-05-02T09:13:31.811Z</time></trkpt><trkpt lat="45.6801617" lon="10.1871736"><ele>306.0</ele><time>2026-05-02T09:13:32.811Z</time></trkpt><trkpt lat="45.6803315" lon="10.1872044"><ele>306.3333333333333</ele><time>2026-05-02T09:13:33.811Z</time></trkpt><trkpt lat="45.680498" lon="10.1872377"><ele>306.66666666666663</ele><time>2026-05-02T09:13:34.811Z</time></trkpt><trkpt lat="45.6806608" lon="10.1872728"><ele>307.0</ele><time>2026-05-02T09:13:35.811Z</time></trkpt><trkpt lat="45.6808091" lon="10.1872947"><ele>307.0</ele><time>2026-05-02T09:13:36.811Z</time></trkpt><trkpt lat="45.6809691" lon="10.1873187"><ele>307.0</ele><time>2026-05-02T09:13:37.811Z</time></trkpt><trkpt lat="45.6811279" lon="10.1873458"><ele>307.0</ele><time>2026-05-02T09:13:38.811Z</time></trkpt><trkpt lat="45.6812837" lon="10.187361"><ele>307.66666666666663</ele><time>2026-05-02T09:13:39.811Z</time></trkpt><trkpt lat="45.6814408" lon="10.1873786"><ele>308.3333333333333</ele><time>2026-05-02T09:13:40.811Z</time></trkpt><trkpt lat="45.6815972" lon="10.1873924"><ele>309.0</ele><time>2026-05-02T09:13:41.811Z</time></trkpt><trkpt lat="45.6817561" lon="10.1874162"><ele>309.0</ele><time>2026-05-02T09:13:42.811Z</time></trkpt><trkpt lat="45.6819182" lon="10.187443"><ele>309.0</ele><time>2026-05-02T09:13:43.811Z</time></trkpt><trkpt lat="45.6820752" lon="10.1874639"><ele>309.0</ele><time>2026-05-02T09:13:44.811Z</time></trkpt><trkpt lat="45.6822358" lon="10.1874859"><ele>310.3333333333333</ele><time>2026-05-02T09:13:45.811Z</time></trkpt><trkpt lat="45.6824011" lon="10.1875077"><ele>311.66666666666663</ele><time>2026-05-02T09:13:46.811Z</time></trkpt><trkpt lat="45.682568" lon="10.1875253"><ele>313.0</ele><time>2026-05-02T09:13:47.811Z</time></trkpt><trkpt lat="45.6827328" lon="10.1875371"><ele>312.3333333333333</ele><time>2026-05-02T09:13:48.811Z</time></trkpt><trkpt lat="45.6828993" lon="10.1875523"><ele>311.6666666666667</ele><time>2026-05-02T09:13:49.811Z</time></trkpt><trkpt lat="45.6830651" lon="10.1875683"><ele>311.0</ele><time>2026-05-02T09:13:50.811Z</time></trkpt><trkpt lat="45.6832378" lon="10.1875835"><ele>311.0</ele><time>2026-05-02T09:13:51.811Z</time></trkpt><trkpt lat="45.6834088" lon="10.1875972"><ele>311.0</ele><time>2026-05-02T09:13:52.812Z</time></trkpt><trkpt lat="45.683572" lon="10.1876103"><ele>311.0</ele><time>2026-05-02T09:13:53.811Z</time></trkpt><trkpt lat="45.6837341" lon="10.1876147"><ele>311.33333333333337</ele><time>2026-05-02T09:13:54.811Z</time></trkpt><trkpt lat="45.6838888" lon="10.1876118"><ele>311.6666666666667</ele><time>2026-05-02T09:13:55.811Z</time></trkpt><trkpt lat="45.684036" lon="10.1875891"><ele>312.0</ele><time>2026-05-02T09:13:56.811Z</time></trkpt><trkpt lat="45.6841848" lon="10.1875457"><ele>312.0</ele><time>2026-05-02T09:13:57.811Z</time></trkpt><trkpt lat="45.6843235" lon="10.1874572"><ele>312.0</ele><time>2026-05-02T09:13:58.811Z</time></trkpt><trkpt lat="45.6844569" lon="10.1873721"><ele>312.0</ele><time>2026-05-02T09:13:59.811Z</time></trkpt><trkpt lat="45.6845777" lon="10.1872829"><ele>312.0</ele><time>2026-05-02T09:14:00.811Z</time></trkpt><trkpt lat="45.6846981" lon="10.1871943"><ele>312.4</ele><time>2026-05-02T09:14:01.811Z</time></trkpt><trkpt lat="45.6848113" lon="10.1871152"><ele>312.79999999999995</ele><time>2026-05-02T09:14:02.811Z</time></trkpt><trkpt lat="45.6849083" lon="10.1870425"><ele>313.2</ele><time>2026-05-02T09:14:03.811Z</time></trkpt><trkpt lat="45.6850008" lon="10.1869721"><ele>313.59999999999997</ele><time>2026-05-02T09:14:04.811Z</time></trkpt><trkpt lat="45.685098" lon="10.1869017"><ele>314.0</ele><time>2026-05-02T09:14:05.811Z</time></trkpt><trkpt lat="45.6851833" lon="10.1868295"><ele>314.33333333333337</ele><time>2026-05-02T09:14:06.811Z</time></trkpt><trkpt lat="45.6852682" lon="10.1867655"><ele>314.6666666666667</ele><time>2026-05-02T09:14:07.811Z</time></trkpt><trkpt lat="45.6853407" lon="10.1867125"><ele>315.0</ele><time>2026-05-02T09:14:08.811Z</time></trkpt><trkpt lat="45.6854136" lon="10.1866935"><ele>315.3333333333333</ele><time>2026-05-02T09:14:09.811Z</time></trkpt><trkpt lat="45.6854846" lon="10.1866801"><ele>315.66666666666663</ele><time>2026-05-02T09:14:10.811Z</time></trkpt><trkpt lat="45.6855542" lon="10.186686"><ele>316.0</ele><time>2026-05-02T09:14:11.811Z</time></trkpt><trkpt lat="45.6856233" lon="10.1867166"><ele>316.00000000000006</ele><time>2026-05-02T09:14:12.811Z</time></trkpt><trkpt lat="45.6856922" lon="10.186757"><ele>316.0</ele><time>2026-05-02T09:14:13.811Z</time></trkpt><trkpt lat="45.6857579" lon="10.1867883"><ele>316.0</ele><time>2026-05-02T09:14:14.811Z</time></trkpt><trkpt lat="45.6858218" lon="10.1867921"><ele>316.0</ele><time>2026-05-02T09:14:15.811Z</time></trkpt><trkpt lat="45.685881" lon="10.1867573"><ele>316.0</ele><time>2026-05-02T09:14:16.811Z</time></trkpt><trkpt lat="45.6859301" lon="10.1866858"><ele>316.00000000000006</ele><time>2026-05-02T09:14:17.811Z</time></trkpt><trkpt lat="45.6859673" lon="10.1865712"><ele>316.0</ele><time>2026-05-02T09:14:18.811Z</time></trkpt><trkpt lat="45.6860073" lon="10.1864431"><ele>316.6</ele><time>2026-05-02T09:14:19.811Z</time></trkpt><trkpt lat="45.6860654" lon="10.1863255"><ele>317.20000000000005</ele><time>2026-05-02T09:14:20.811Z</time></trkpt><trkpt lat="45.6861559" lon="10.1862375"><ele>317.79999999999995</ele><time>2026-05-02T09:14:21.811Z</time></trkpt><trkpt lat="45.6862562" lon="10.186172"><ele>318.4</ele><time>2026-05-02T09:14:22.811Z</time></trkpt><trkpt lat="45.6863557" lon="10.1861177"><ele>319.0</ele><time>2026-05-02T09:14:23.811Z</time></trkpt><trkpt lat="45.686447" lon="10.1860843"><ele>319.0</ele><time>2026-05-02T09:14:24.811Z</time></trkpt><trkpt lat="45.6865285" lon="10.1860539"><ele>319.0</ele><time>2026-05-02T09:14:25.811Z</time></trkpt><trkpt lat="45.6865949" lon="10.1860181"><ele>319.0</ele><time>2026-05-02T09:14:26.811Z</time></trkpt><trkpt lat="45.6866869" lon="10.1859666"><ele>319.0</ele><time>2026-05-02T09:14:28.811Z</time></trkpt><trkpt lat="45.6868109" lon="10.1859057"><ele>319.0</ele><time>2026-05-02T09:14:30.811Z</time></trkpt><trkpt lat="45.6869096" lon="10.1858655"><ele>319.75</ele><time>2026-05-02T09:14:31.811Z</time></trkpt><trkpt lat="45.6870288" lon="10.1858368"><ele>320.5</ele><time>2026-05-02T09:14:32.811Z</time></trkpt><trkpt lat="45.6871435" lon="10.1858161"><ele>321.25</ele><time>2026-05-02T09:14:33.811Z</time></trkpt><trkpt lat="45.6872638" lon="10.1858021"><ele>322.0</ele><time>2026-05-02T09:14:34.811Z</time></trkpt><trkpt lat="45.6873861" lon="10.1857859"><ele>322.0</ele><time>2026-05-02T09:14:35.811Z</time></trkpt><trkpt lat="45.6875193" lon="10.1857813"><ele>322.0</ele><time>2026-05-02T09:14:36.811Z</time></trkpt><trkpt lat="45.6876554" lon="10.1857847"><ele>322.0</ele><time>2026-05-02T09:14:37.811Z</time></trkpt><trkpt lat="45.6877871" lon="10.1857896"><ele>322.0</ele><time>2026-05-02T09:14:38.811Z</time></trkpt><trkpt lat="45.687904" lon="10.1857699"><ele>323.0</ele><time>2026-05-02T09:14:39.811Z</time></trkpt><trkpt lat="45.6880177" lon="10.1857306"><ele>324.0</ele><time>2026-05-02T09:14:40.811Z</time></trkpt><trkpt lat="45.6881307" lon="10.1857022"><ele>325.0</ele><time>2026-05-02T09:14:41.811Z</time></trkpt><trkpt lat="45.6882371" lon="10.1856836"><ele>326.0</ele><time>2026-05-02T09:14:42.811Z</time></trkpt><trkpt lat="45.6883466" lon="10.1856853"><ele>327.0</ele><time>2026-05-02T09:14:43.811Z</time></trkpt><trkpt lat="45.6884471" lon="10.1856967"><ele>327.0</ele><time>2026-05-02T09:14:44.811Z</time></trkpt><trkpt lat="45.688548" lon="10.1856933"><ele>327.0</ele><time>2026-05-02T09:14:45.811Z</time></trkpt><trkpt lat="45.6886529" lon="10.1856858"><ele>327.0</ele><time>2026-05-02T09:14:46.811Z</time></trkpt><trkpt lat="45.688762" lon="10.1856858"><ele>327.0</ele><time>2026-05-02T09:14:47.811Z</time></trkpt><trkpt lat="45.68888" lon="10.1856807"><ele>327.0</ele><time>2026-05-02T09:14:48.811Z</time></trkpt><trkpt lat="45.6890226" lon="10.1856724"><ele>327.0</ele><time>2026-05-02T09:14:49.811Z</time></trkpt><trkpt lat="45.6891765" lon="10.18566"><ele>327.0</ele><time>2026-05-02T09:14:50.811Z</time></trkpt><trkpt lat="45.6893322" lon="10.1856461"><ele>327.0</ele><time>2026-05-02T09:14:51.811Z</time></trkpt><trkpt lat="45.6894877" lon="10.1856432"><ele>327.0</ele><time>2026-05-02T09:14:52.811Z</time></trkpt><trkpt lat="45.6896521" lon="10.1856281"><ele>327.0</ele><time>2026-05-02T09:14:53.811Z</time></trkpt><trkpt lat="45.6898125" lon="10.1856086"><ele>327.0</ele><time>2026-05-02T09:14:54.811Z</time></trkpt><trkpt lat="45.6899667" lon="10.1855965"><ele>327.0</ele><time>2026-05-02T09:14:55.811Z</time></trkpt><trkpt lat="45.6901157" lon="10.1855933"><ele>327.0</ele><time>2026-05-02T09:14:56.811Z</time></trkpt><trkpt lat="45.6902653" lon="10.1855885"><ele>327.0</ele><time>2026-05-02T09:14:57.811Z</time></trkpt><trkpt lat="45.6904111" lon="10.1855849"><ele>327.0</ele><time>2026-05-02T09:14:58.811Z</time></trkpt><trkpt lat="45.6905539" lon="10.1855663"><ele>327.0</ele><time>2026-05-02T09:14:59.811Z</time></trkpt><trkpt lat="45.6906984" lon="10.1855523"><ele>327.0</ele><time>2026-05-02T09:15:00.811Z</time></trkpt><trkpt lat="45.6908432" lon="10.1855321"><ele>327.0</ele><time>2026-05-02T09:15:01.811Z</time></trkpt><trkpt lat="45.6909943" lon="10.1854849"><ele>327.0</ele><time>2026-05-02T09:15:02.811Z</time></trkpt><trkpt lat="45.6911517" lon="10.1854159"><ele>327.0</ele><time>2026-05-02T09:15:03.811Z</time></trkpt><trkpt lat="45.6913093" lon="10.1853186"><ele>327.0</ele><time>2026-05-02T09:15:04.811Z</time></trkpt><trkpt lat="45.6914608" lon="10.1852143"><ele>327.0</ele><time>2026-05-02T09:15:05.811Z</time></trkpt><trkpt lat="45.6916026" lon="10.18511"><ele>327.0</ele><time>2026-05-02T09:15:06.811Z</time></trkpt><trkpt lat="45.6917464" lon="10.185009"><ele>327.0</ele><time>2026-05-02T09:15:07.811Z</time></trkpt><trkpt lat="45.6918833" lon="10.1849181"><ele>327.0</ele><time>2026-05-02T09:15:08.811Z</time></trkpt><trkpt lat="45.6920209" lon="10.184832"><ele>329.25</ele><time>2026-05-02T09:15:09.811Z</time></trkpt><trkpt lat="45.6921549" lon="10.1847454"><ele>331.5</ele><time>2026-05-02T09:15:10.811Z</time></trkpt><trkpt lat="45.6922927" lon="10.1846524"><ele>333.75</ele><time>2026-05-02T09:15:11.811Z</time></trkpt><trkpt lat="45.6924336" lon="10.1845914"><ele>336.0</ele><time>2026-05-02T09:15:12.811Z</time></trkpt><trkpt lat="45.6925881" lon="10.184564"><ele>336.0</ele><time>2026-05-02T09:15:13.811Z</time></trkpt><trkpt lat="45.6927465" lon="10.1845595"><ele>336.0</ele><time>2026-05-02T09:15:14.811Z</time></trkpt><trkpt lat="45.6928885" lon="10.1845923"><ele>336.0</ele><time>2026-05-02T09:15:15.811Z</time></trkpt><trkpt lat="45.693039" lon="10.1846434"><ele>339.3333333333333</ele><time>2026-05-02T09:15:16.811Z</time></trkpt><trkpt lat="45.6931935" lon="10.1847033"><ele>342.66666666666663</ele><time>2026-05-02T09:15:17.811Z</time></trkpt><trkpt lat="45.6933527" lon="10.1847596"><ele>346.0</ele><time>2026-05-02T09:15:18.811Z</time></trkpt><trkpt lat="45.6935165" lon="10.1848207"><ele>341.66666666666663</ele><time>2026-05-02T09:15:19.811Z</time></trkpt><trkpt lat="45.6936778" lon="10.1848693"><ele>337.3333333333333</ele><time>2026-05-02T09:15:20.811Z</time></trkpt><trkpt lat="45.6938297" lon="10.1849214"><ele>333.0</ele><time>2026-05-02T09:15:21.811Z</time></trkpt><trkpt lat="45.6939885" lon="10.1849737"><ele>333.0</ele><time>2026-05-02T09:15:22.811Z</time></trkpt><trkpt lat="45.6941445" lon="10.185035"><ele>333.0</ele><time>2026-05-02T09:15:23.811Z</time></trkpt><trkpt lat="45.6942937" lon="10.1850982"><ele>333.0</ele><time>2026-05-02T09:15:24.811Z</time></trkpt><trkpt lat="45.6944383" lon="10.1851537"><ele>335.0</ele><time>2026-05-02T09:15:25.811Z</time></trkpt><trkpt lat="45.6945868" lon="10.1852032"><ele>337.0</ele><time>2026-05-02T09:15:26.811Z</time></trkpt><trkpt lat="45.6947412" lon="10.1852438"><ele>339.0</ele><time>2026-05-02T09:15:27.811Z</time></trkpt><trkpt lat="45.6948988" lon="10.1852837"><ele>339.0</ele><time>2026-05-02T09:15:28.811Z</time></trkpt><trkpt lat="45.6950584" lon="10.1853311"><ele>339.0</ele><time>2026-05-02T09:15:29.811Z</time></trkpt><trkpt lat="45.6952063" lon="10.1853834"><ele>339.0</ele><time>2026-05-02T09:15:30.811Z</time></trkpt><trkpt lat="45.6953486" lon="10.1854378"><ele>343.3333333333333</ele><time>2026-05-02T09:15:31.811Z</time></trkpt><trkpt lat="45.6955027" lon="10.1854889"><ele>347.66666666666663</ele><time>2026-05-02T09:15:32.811Z</time></trkpt><trkpt lat="45.6956574" lon="10.1855395"><ele>352.0</ele><time>2026-05-02T09:15:33.811Z</time></trkpt><trkpt lat="45.6958035" lon="10.1855863"><ele>352.0</ele><time>2026-05-02T09:15:34.811Z</time></trkpt><trkpt lat="45.6959594" lon="10.1856331"><ele>352.0</ele><time>2026-05-02T09:15:35.811Z</time></trkpt><trkpt lat="45.6961084" lon="10.1856846"><ele>352.0</ele><time>2026-05-02T09:15:36.811Z</time></trkpt><trkpt lat="45.69626" lon="10.185718"><ele>349.66666666666663</ele><time>2026-05-02T09:15:37.811Z</time></trkpt><trkpt lat="45.6964084" lon="10.1857602"><ele>347.3333333333333</ele><time>2026-05-02T09:15:38.811Z</time></trkpt><trkpt lat="45.6965498" lon="10.1858305"><ele>345.0</ele><time>2026-05-02T09:15:39.811Z</time></trkpt><trkpt lat="45.6966906" lon="10.1859155"><ele>345.0</ele><time>2026-05-02T09:15:40.811Z</time></trkpt><trkpt lat="45.6968289" lon="10.1860077"><ele>345.0</ele><time>2026-05-02T09:15:41.811Z</time></trkpt><trkpt lat="45.6969635" lon="10.186109"><ele>345.0</ele><time>2026-05-02T09:15:42.811Z</time></trkpt><trkpt lat="45.6970969" lon="10.1862275"><ele>344.25</ele><time>2026-05-02T09:15:43.811Z</time></trkpt><trkpt lat="45.6972114" lon="10.186354"><ele>343.5</ele><time>2026-05-02T09:15:44.811Z</time></trkpt><trkpt lat="45.6973143" lon="10.1864824"><ele>342.75</ele><time>2026-05-02T09:15:45.811Z</time></trkpt><trkpt lat="45.6974146" lon="10.1866141"><ele>342.0</ele><time>2026-05-02T09:15:46.811Z</time></trkpt><trkpt lat="45.6975068" lon="10.1867416"><ele>342.0</ele><time>2026-05-02T09:15:47.811Z</time></trkpt><trkpt lat="45.6975876" lon="10.186858"><ele>342.0</ele><time>2026-05-02T09:15:48.811Z</time></trkpt><trkpt lat="45.6976668" lon="10.1869651"><ele>342.0</ele><time>2026-05-02T09:15:49.811Z</time></trkpt><trkpt lat="45.6977496" lon="10.1870577"><ele>342.0</ele><time>2026-05-02T09:15:50.811Z</time></trkpt><trkpt lat="45.6978325" lon="10.1871522"><ele>342.0</ele><time>2026-05-02T09:15:51.811Z</time></trkpt><trkpt lat="45.6979128" lon="10.1872447"><ele>342.20000000000005</ele><time>2026-05-02T09:15:52.811Z</time></trkpt><trkpt lat="45.6979894" lon="10.1873323"><ele>342.4</ele><time>2026-05-02T09:15:53.811Z</time></trkpt><trkpt lat="45.6980653" lon="10.1874221"><ele>342.6</ele><time>2026-05-02T09:15:54.811Z</time></trkpt><trkpt lat="45.6981392" lon="10.1875102"><ele>342.79999999999995</ele><time>2026-05-02T09:15:55.811Z</time></trkpt><trkpt lat="45.6982119" lon="10.1875995"><ele>343.0</ele><time>2026-05-02T09:15:56.811Z</time></trkpt><trkpt lat="45.6982843" lon="10.1876849"><ele>342.2</ele><time>2026-05-02T09:15:57.811Z</time></trkpt><trkpt lat="45.6983512" lon="10.1877693"><ele>341.4</ele><time>2026-05-02T09:15:58.811Z</time></trkpt><trkpt lat="45.6984156" lon="10.1878669"><ele>340.59999999999997</ele><time>2026-05-02T09:15:59.811Z</time></trkpt><trkpt lat="45.6984928" lon="10.1879584"><ele>339.79999999999995</ele><time>2026-05-02T09:16:00.811Z</time></trkpt><trkpt lat="45.6985714" lon="10.1880482"><ele>339.0</ele><time>2026-05-02T09:16:01.811Z</time></trkpt><trkpt lat="45.6986539" lon="10.1881475"><ele>338.79999999999995</ele><time>2026-05-02T09:16:02.811Z</time></trkpt><trkpt lat="45.6987383" lon="10.1882553"><ele>338.59999999999997</ele><time>2026-05-02T09:16:03.811Z</time></trkpt><trkpt lat="45.6988089" lon="10.188358"><ele>338.4</ele><time>2026-05-02T09:16:04.811Z</time></trkpt><trkpt lat="45.6988705" lon="10.1884491"><ele>338.2</ele><time>2026-05-02T09:16:05.811Z</time></trkpt><trkpt lat="45.6989147" lon="10.1885203"><ele>338.0</ele><time>2026-05-02T09:16:06.811Z</time></trkpt><trkpt lat="45.6989845" lon="10.1886302"><ele>338.0</ele><time>2026-05-02T09:16:08.811Z</time></trkpt><trkpt lat="45.6990597" lon="10.1886551"><ele>338.0</ele><time>2026-05-02T09:16:10.811Z</time></trkpt><trkpt lat="45.6991675" lon="10.1887225"><ele>338.0</ele><time>2026-05-02T09:16:12.811Z</time></trkpt><trkpt lat="45.6992288" lon="10.1887902"><ele>338.0</ele><time>2026-05-02T09:16:13.811Z</time></trkpt><trkpt lat="45.6992929" lon="10.1888694"><ele>338.0</ele><time>2026-05-02T09:16:14.811Z</time></trkpt><trkpt lat="45.6993624" lon="10.1889533"><ele>338.0</ele><time>2026-05-02T09:16:15.811Z</time></trkpt><trkpt lat="45.6994348" lon="10.1890512"><ele>339.0</ele><time>2026-05-02T09:16:16.811Z</time></trkpt><trkpt lat="45.6995128" lon="10.1891522"><ele>340.0</ele><time>2026-05-02T09:16:17.811Z</time></trkpt><trkpt lat="45.6995985" lon="10.1892472"><ele>341.0</ele><time>2026-05-02T09:16:18.811Z</time></trkpt><trkpt lat="45.6996947" lon="10.1893416"><ele>342.0</ele><time>2026-05-02T09:16:19.811Z</time></trkpt><trkpt lat="45.6997911" lon="10.1894397"><ele>343.0</ele><time>2026-05-02T09:16:20.811Z</time></trkpt><trkpt lat="45.6998912" lon="10.1895408"><ele>343.0</ele><time>2026-05-02T09:16:21.811Z</time></trkpt><trkpt lat="45.6999938" lon="10.1896229"><ele>343.0</ele><time>2026-05-02T09:16:22.811Z</time></trkpt><trkpt lat="45.7000843" lon="10.1897204"><ele>343.0</ele><time>2026-05-02T09:16:23.811Z</time></trkpt><trkpt lat="45.7001624" lon="10.189819"><ele>343.0</ele><time>2026-05-02T09:16:24.811Z</time></trkpt><trkpt lat="45.7002208" lon="10.1899095"><ele>343.0</ele><time>2026-05-02T09:16:25.811Z</time></trkpt><trkpt lat="45.7002823" lon="10.189997"><ele>348.2</ele><time>2026-05-02T09:16:26.811Z</time></trkpt><trkpt lat="45.7003377" lon="10.1900925"><ele>353.4</ele><time>2026-05-02T09:16:27.811Z</time></trkpt><trkpt lat="45.7003865" lon="10.1901937"><ele>358.59999999999997</ele><time>2026-05-02T09:16:28.811Z</time></trkpt><trkpt lat="45.7004269" lon="10.190321"><ele>363.79999999999995</ele><time>2026-05-02T09:16:29.811Z</time></trkpt><trkpt lat="45.700458" lon="10.1904506"><ele>369.0</ele><time>2026-05-02T09:16:30.811Z</time></trkpt><trkpt lat="45.7004692" lon="10.1905869"><ele>368.6666666666667</ele><time>2026-05-02T09:16:31.811Z</time></trkpt><trkpt lat="45.7004705" lon="10.1907366"><ele>368.3333333333333</ele><time>2026-05-02T09:16:32.811Z</time></trkpt><trkpt lat="45.700474" lon="10.1908624"><ele>368.0</ele><time>2026-05-02T09:16:33.811Z</time></trkpt><trkpt lat="45.7004824" lon="10.1909757"><ele>367.66666666666663</ele><time>2026-05-02T09:16:34.811Z</time></trkpt><trkpt lat="45.7005112" lon="10.1910628"><ele>367.3333333333333</ele><time>2026-05-02T09:16:35.811Z</time></trkpt><trkpt lat="45.7005594" lon="10.1911236"><ele>367.0</ele><time>2026-05-02T09:16:36.811Z</time></trkpt><trkpt lat="45.7006721" lon="10.1911122"><ele>367.0</ele><time>2026-05-02T09:16:38.811Z</time></trkpt><trkpt lat="45.7007146" lon="10.1910237"><ele>367.0</ele><time>2026-05-02T09:16:39.811Z</time></trkpt><trkpt lat="45.7007376" lon="10.1908845"><ele>367.0</ele><time>2026-05-02T09:16:40.811Z</time></trkpt><trkpt lat="45.7007249" lon="10.190711"><ele>367.0</ele><time>2026-05-02T09:16:41.811Z</time></trkpt><trkpt lat="45.7006988" lon="10.1904905"><ele>367.5</ele><time>2026-05-02T09:16:42.811Z</time></trkpt><trkpt lat="45.7006867" lon="10.190262"><ele>368.0</ele><time>2026-05-02T09:16:43.811Z</time></trkpt><trkpt lat="45.7006845" lon="10.1900577"><ele>368.5</ele><time>2026-05-02T09:16:44.811Z</time></trkpt><trkpt lat="45.7006823" lon="10.1898893"><ele>369.0</ele><time>2026-05-02T09:16:45.811Z</time></trkpt><trkpt lat="45.7006727" lon="10.1897513"><ele>368.3333333333333</ele><time>2026-05-02T09:16:46.811Z</time></trkpt><trkpt lat="45.7006581" lon="10.1896383"><ele>367.6666666666667</ele><time>2026-05-02T09:16:47.811Z</time></trkpt><trkpt lat="45.7006493" lon="10.1895406"><ele>367.0</ele><time>2026-05-02T09:16:48.811Z</time></trkpt><trkpt lat="45.700696" lon="10.1894012"><ele>366.33333333333337</ele><time>2026-05-02T09:16:50.811Z</time></trkpt><trkpt lat="45.7007563" lon="10.1894728"><ele>365.6666666666667</ele><time>2026-05-02T09:16:52.811Z</time></trkpt><trkpt lat="45.7007714" lon="10.1895698"><ele>365.0</ele><time>2026-05-02T09:16:53.811Z</time></trkpt><trkpt lat="45.7007887" lon="10.1897308"><ele>366.0</ele><time>2026-05-02T09:16:54.811Z</time></trkpt><trkpt lat="45.7008129" lon="10.1899274"><ele>367.0</ele><time>2026-05-02T09:16:55.811Z</time></trkpt><trkpt lat="45.7008412" lon="10.190121"><ele>368.0</ele><time>2026-05-02T09:16:56.811Z</time></trkpt><trkpt lat="45.7008731" lon="10.1903096"><ele>369.0</ele><time>2026-05-02T09:16:57.811Z</time></trkpt><trkpt lat="45.7009143" lon="10.1905054"><ele>368.5</ele><time>2026-05-02T09:16:58.811Z</time></trkpt><trkpt lat="45.7009502" lon="10.1906949"><ele>368.0</ele><time>2026-05-02T09:16:59.811Z</time></trkpt><trkpt lat="45.7009777" lon="10.1908721"><ele>367.5</ele><time>2026-05-02T09:17:00.811Z</time></trkpt><trkpt lat="45.7009944" lon="10.1910486"><ele>367.0</ele><time>2026-05-02T09:17:01.811Z</time></trkpt><trkpt lat="45.7010008" lon="10.1912186"><ele>367.0</ele><time>2026-05-02T09:17:02.811Z</time></trkpt><trkpt lat="45.701001" lon="10.1913918"><ele>367.0</ele><time>2026-05-02T09:17:03.811Z</time></trkpt><trkpt lat="45.7010027" lon="10.1915695"><ele>367.0</ele><time>2026-05-02T09:17:04.811Z</time></trkpt><trkpt lat="45.701008" lon="10.1917471"><ele>367.0</ele><time>2026-05-02T09:17:05.811Z</time></trkpt><trkpt lat="45.7010171" lon="10.1919191"><ele>367.5</ele><time>2026-05-02T09:17:06.811Z</time></trkpt><trkpt lat="45.7010345" lon="10.192085"><ele>368.0</ele><time>2026-05-02T09:17:07.811Z</time></trkpt><trkpt lat="45.7010733" lon="10.1922426"><ele>368.5</ele><time>2026-05-02T09:17:08.811Z</time></trkpt><trkpt lat="45.7011175" lon="10.1923911"><ele>369.0</ele><time>2026-05-02T09:17:09.811Z</time></trkpt><trkpt lat="45.7011714" lon="10.1925351"><ele>379.2</ele><time>2026-05-02T09:17:10.811Z</time></trkpt><trkpt lat="45.7012349" lon="10.1926673"><ele>389.4</ele><time>2026-05-02T09:17:11.811Z</time></trkpt><trkpt lat="45.7012902" lon="10.1927921"><ele>399.6</ele><time>2026-05-02T09:17:12.811Z</time></trkpt><trkpt lat="45.7013516" lon="10.1929141"><ele>409.8</ele><time>2026-05-02T09:17:13.811Z</time></trkpt><trkpt lat="45.70142" lon="10.1930301"><ele>420.0</ele><time>2026-05-02T09:17:14.811Z</time></trkpt><trkpt lat="45.7014791" lon="10.1931533"><ele>415.6</ele><time>2026-05-02T09:17:15.812Z</time></trkpt><trkpt lat="45.7015503" lon="10.1932959"><ele>411.2</ele><time>2026-05-02T09:17:16.811Z</time></trkpt><trkpt lat="45.7016197" lon="10.1934179"><ele>406.79999999999995</ele><time>2026-05-02T09:17:17.811Z</time></trkpt><trkpt lat="45.701685" lon="10.193529"><ele>402.4</ele><time>2026-05-02T09:17:18.811Z</time></trkpt><trkpt lat="45.7017492" lon="10.1936342"><ele>398.0</ele><time>2026-05-02T09:17:19.811Z</time></trkpt><trkpt lat="45.7018155" lon="10.1937361"><ele>398.0</ele><time>2026-05-02T09:17:20.811Z</time></trkpt><trkpt lat="45.7018748" lon="10.1938235"><ele>398.0</ele><time>2026-05-02T09:17:21.811Z</time></trkpt><trkpt lat="45.7019276" lon="10.1938936"><ele>398.0</ele><time>2026-05-02T09:17:22.811Z</time></trkpt><trkpt lat="45.7019697" lon="10.1939688"><ele>398.0</ele><time>2026-05-02T09:17:23.811Z</time></trkpt><trkpt lat="45.7019897" lon="10.1941322"><ele>398.0</ele><time>2026-05-02T09:17:25.811Z</time></trkpt><trkpt lat="45.7019387" lon="10.1943122"><ele>396.5</ele><time>2026-05-02T09:17:27.811Z</time></trkpt><trkpt lat="45.7018781" lon="10.1944393"><ele>395.0</ele><time>2026-05-02T09:17:28.811Z</time></trkpt><trkpt lat="45.7018078" lon="10.1945787"><ele>393.5</ele><time>2026-05-02T09:17:29.811Z</time></trkpt><trkpt lat="45.7017356" lon="10.1947225"><ele>392.0</ele><time>2026-05-02T09:17:30.811Z</time></trkpt><trkpt lat="45.7016662" lon="10.1948699"><ele>392.0</ele><time>2026-05-02T09:17:31.811Z</time></trkpt><trkpt lat="45.7016062" lon="10.1950305"><ele>392.0</ele><time>2026-05-02T09:17:32.811Z</time></trkpt><trkpt lat="45.7015537" lon="10.1951941"><ele>392.0</ele><time>2026-05-02T09:17:33.811Z</time></trkpt><trkpt lat="45.7015126" lon="10.1953655"><ele>392.0</ele><time>2026-05-02T09:17:34.811Z</time></trkpt><trkpt lat="45.7014894" lon="10.1955525"><ele>392.0</ele><time>2026-05-02T09:17:35.811Z</time></trkpt><trkpt lat="45.7014752" lon="10.1957398"><ele>392.0</ele><time>2026-05-02T09:17:36.811Z</time></trkpt><trkpt lat="45.7014767" lon="10.1959383"><ele>392.0</ele><time>2026-05-02T09:17:37.811Z</time></trkpt><trkpt lat="45.701493" lon="10.1961309"><ele>392.0</ele><time>2026-05-02T09:17:38.811Z</time></trkpt><trkpt lat="45.701528" lon="10.1963172"><ele>392.0</ele><time>2026-05-02T09:17:39.811Z</time></trkpt><trkpt lat="45.70157" lon="10.1964899"><ele>392.0</ele><time>2026-05-02T09:17:40.811Z</time></trkpt><trkpt lat="45.7016083" lon="10.1966534"><ele>392.0</ele><time>2026-05-02T09:17:41.811Z</time></trkpt><trkpt lat="45.7016536" lon="10.1968031"><ele>392.0</ele><time>2026-05-02T09:17:42.811Z</time></trkpt><trkpt lat="45.7016793" lon="10.196944"><ele>391.3333333333333</ele><time>2026-05-02T09:17:43.811Z</time></trkpt><trkpt lat="45.7017004" lon="10.1970592"><ele>390.66666666666663</ele><time>2026-05-02T09:17:44.811Z</time></trkpt><trkpt lat="45.7017012" lon="10.1971626"><ele>390.0</ele><time>2026-05-02T09:17:45.811Z</time></trkpt><trkpt lat="45.7016532" lon="10.1972428"><ele>389.33333333333337</ele><time>2026-05-02T09:17:47.811Z</time></trkpt><trkpt lat="45.7016013" lon="10.1971888"><ele>388.6666666666667</ele><time>2026-05-02T09:17:48.811Z</time></trkpt><trkpt lat="45.7015361" lon="10.1970712"><ele>388.0</ele><time>2026-05-02T09:17:49.811Z</time></trkpt><trkpt lat="45.7014648" lon="10.1968724"><ele>388.0</ele><time>2026-05-02T09:17:50.81Z</time></trkpt><trkpt lat="45.7013935" lon="10.1966402"><ele>388.0</ele><time>2026-05-02T09:17:51.81Z</time></trkpt><trkpt lat="45.7013058" lon="10.196405"><ele>388.0</ele><time>2026-05-02T09:17:52.81Z</time></trkpt><trkpt lat="45.7012245" lon="10.1961789"><ele>389.0</ele><time>2026-05-02T09:17:53.81Z</time></trkpt><trkpt lat="45.7011429" lon="10.1959926"><ele>390.0</ele><time>2026-05-02T09:17:54.81Z</time></trkpt><trkpt lat="45.7010649" lon="10.1958267"><ele>391.0</ele><time>2026-05-02T09:17:55.81Z</time></trkpt><trkpt lat="45.7009992" lon="10.1956963"><ele>392.0</ele><time>2026-05-02T09:17:56.81Z</time></trkpt><trkpt lat="45.7009475" lon="10.195584"><ele>387.40000000000003</ele><time>2026-05-02T09:17:57.81Z</time></trkpt><trkpt lat="45.7008868" lon="10.195502"><ele>382.8</ele><time>2026-05-02T09:17:58.81Z</time></trkpt><trkpt lat="45.7008182" lon="10.1954596"><ele>378.2</ele><time>2026-05-02T09:17:59.81Z</time></trkpt><trkpt lat="45.7007057" lon="10.1955048"><ele>373.6</ele><time>2026-05-02T09:18:01.81Z</time></trkpt><trkpt lat="45.700675" lon="10.1956354"><ele>369.0</ele><time>2026-05-02T09:18:02.81Z</time></trkpt><trkpt lat="45.7006709" lon="10.1958105"><ele>367.6666666666667</ele><time>2026-05-02T09:18:03.81Z</time></trkpt><trkpt lat="45.700697" lon="10.1960225"><ele>366.33333333333337</ele><time>2026-05-02T09:18:04.81Z</time></trkpt><trkpt lat="45.7007284" lon="10.1962455"><ele>365.0</ele><time>2026-05-02T09:18:05.81Z</time></trkpt><trkpt lat="45.7007464" lon="10.1964478"><ele>364.5</ele><time>2026-05-02T09:18:06.81Z</time></trkpt><trkpt lat="45.7007484" lon="10.1966339"><ele>364.0</ele><time>2026-05-02T09:18:07.81Z</time></trkpt><trkpt lat="45.7007381" lon="10.1968171"><ele>363.5</ele><time>2026-05-02T09:18:08.81Z</time></trkpt><trkpt lat="45.7007302" lon="10.1969866"><ele>363.0</ele><time>2026-05-02T09:18:09.81Z</time></trkpt><trkpt lat="45.7007141" lon="10.1971567"><ele>363.0</ele><time>2026-05-02T09:18:10.81Z</time></trkpt><trkpt lat="45.7006972" lon="10.1973154"><ele>363.0</ele><time>2026-05-02T09:18:11.81Z</time></trkpt><trkpt lat="45.7006766" lon="10.1974655"><ele>363.0</ele><time>2026-05-02T09:18:12.81Z</time></trkpt><trkpt lat="45.7006553" lon="10.1976079"><ele>363.0</ele><time>2026-05-02T09:18:13.811Z</time></trkpt><trkpt lat="45.7006337" lon="10.1977419"><ele>363.0</ele><time>2026-05-02T09:18:14.81Z</time></trkpt><trkpt lat="45.70061" lon="10.1978811"><ele>363.0</ele><time>2026-05-02T09:18:15.81Z</time></trkpt><trkpt lat="45.7005827" lon="10.1980169"><ele>363.0</ele><time>2026-05-02T09:18:16.81Z</time></trkpt><trkpt lat="45.7005654" lon="10.1981447"><ele>363.0</ele><time>2026-05-02T09:18:17.81Z</time></trkpt><trkpt lat="45.7005554" lon="10.1982618"><ele>363.0</ele><time>2026-05-02T09:18:18.81Z</time></trkpt><trkpt lat="45.7005607" lon="10.1983725"><ele>363.0</ele><time>2026-05-02T09:18:19.81Z</time></trkpt><trkpt lat="45.7005738" lon="10.198469"><ele>363.0</ele><time>2026-05-02T09:18:20.81Z</time></trkpt><trkpt lat="45.700586" lon="10.1985698"><ele>362.0</ele><time>2026-05-02T09:18:21.81Z</time></trkpt><trkpt lat="45.7005808" lon="10.1986788"><ele>361.0</ele><time>2026-05-02T09:18:22.81Z</time></trkpt><trkpt lat="45.7005448" lon="10.198781"><ele>360.0</ele><time>2026-05-02T09:18:23.81Z</time></trkpt><trkpt lat="45.7004718" lon="10.1988806"><ele>359.0</ele><time>2026-05-02T09:18:24.81Z</time></trkpt><trkpt lat="45.7003749" lon="10.1989644"><ele>358.0</ele><time>2026-05-02T09:18:25.81Z</time></trkpt><trkpt lat="45.7001408" lon="10.1990167"><ele>356.16666666666663</ele><time>2026-05-02T09:18:27.81Z</time></trkpt><trkpt lat="45.7000366" lon="10.1990267"><ele>354.3333333333333</ele><time>2026-05-02T09:18:28.81Z</time></trkpt><trkpt lat="45.6999467" lon="10.1990207"><ele>352.5</ele><time>2026-05-02T09:18:29.81Z</time></trkpt><trkpt lat="45.6998725" lon="10.1990146"><ele>350.6666666666667</ele><time>2026-05-02T09:18:30.81Z</time></trkpt><trkpt lat="45.6997824" lon="10.199019"><ele>348.83333333333337</ele><time>2026-05-02T09:18:32.81Z</time></trkpt><trkpt lat="45.6997329" lon="10.1990922"><ele>347.0</ele><time>2026-05-02T09:18:34.81Z</time></trkpt><trkpt lat="45.6997067" lon="10.1991764"><ele>347.0</ele><time>2026-05-02T09:18:35.81Z</time></trkpt><trkpt lat="45.6996811" lon="10.1992939"><ele>347.0</ele><time>2026-05-02T09:18:36.81Z</time></trkpt><trkpt lat="45.6996306" lon="10.1996152"><ele>347.0</ele><time>2026-05-02T09:18:38.81Z</time></trkpt><trkpt lat="45.6996087" lon="10.1998305"><ele>348.0</ele><time>2026-05-02T09:18:39.81Z</time></trkpt><trkpt lat="45.6995852" lon="10.2000549"><ele>349.0</ele><time>2026-05-02T09:18:40.81Z</time></trkpt><trkpt lat="45.6995568" lon="10.2002883"><ele>350.0</ele><time>2026-05-02T09:18:41.81Z</time></trkpt><trkpt lat="45.6995213" lon="10.2005261"><ele>350.33333333333337</ele><time>2026-05-02T09:18:42.81Z</time></trkpt><trkpt lat="45.6994857" lon="10.2007633"><ele>350.6666666666667</ele><time>2026-05-02T09:18:43.81Z</time></trkpt><trkpt lat="45.6994393" lon="10.2010146"><ele>351.0</ele><time>2026-05-02T09:18:44.81Z</time></trkpt><trkpt lat="45.6994091" lon="10.2012641"><ele>350.3333333333333</ele><time>2026-05-02T09:18:45.81Z</time></trkpt><trkpt lat="45.6993924" lon="10.2015067"><ele>349.66666666666663</ele><time>2026-05-02T09:18:46.81Z</time></trkpt><trkpt lat="45.6993926" lon="10.2017459"><ele>349.0</ele><time>2026-05-02T09:18:47.81Z</time></trkpt><trkpt lat="45.699439" lon="10.2022141"><ele>349.0</ele><time>2026-05-02T09:18:49.81Z</time></trkpt><trkpt lat="45.6994781" lon="10.2024526"><ele>349.0</ele><time>2026-05-02T09:18:50.81Z</time></trkpt><trkpt lat="45.6995333" lon="10.2026876"><ele>349.0</ele><time>2026-05-02T09:18:51.81Z</time></trkpt><trkpt lat="45.699591" lon="10.2029178"><ele>349.0</ele><time>2026-05-02T09:18:52.81Z</time></trkpt><trkpt lat="45.6996529" lon="10.203144"><ele>349.0</ele><time>2026-05-02T09:18:53.81Z</time></trkpt><trkpt lat="45.6997225" lon="10.2033614"><ele>349.0</ele><time>2026-05-02T09:18:54.81Z</time></trkpt><trkpt lat="45.6997934" lon="10.2035939"><ele>349.3333333333333</ele><time>2026-05-02T09:18:55.81Z</time></trkpt><trkpt lat="45.6998672" lon="10.2038199"><ele>349.6666666666667</ele><time>2026-05-02T09:18:56.81Z</time></trkpt><trkpt lat="45.6999387" lon="10.2040391"><ele>350.0</ele><time>2026-05-02T09:18:57.81Z</time></trkpt><trkpt lat="45.7000118" lon="10.2042542"><ele>350.0</ele><time>2026-05-02T09:18:58.81Z</time></trkpt><trkpt lat="45.7001663" lon="10.2046958"><ele>350.0</ele><time>2026-05-02T09:19:00.81Z</time></trkpt><trkpt lat="45.7002415" lon="10.2049191"><ele>351.33333333333337</ele><time>2026-05-02T09:19:01.81Z</time></trkpt><trkpt lat="45.7003186" lon="10.2051379"><ele>352.6666666666667</ele><time>2026-05-02T09:19:02.81Z</time></trkpt><trkpt lat="45.7003904" lon="10.2053563"><ele>354.0</ele><time>2026-05-02T09:19:03.81Z</time></trkpt><trkpt lat="45.7004585" lon="10.2055732"><ele>354.0</ele><time>2026-05-02T09:19:04.81Z</time></trkpt><trkpt lat="45.7005296" lon="10.2057995"><ele>354.0</ele><time>2026-05-02T09:19:05.81Z</time></trkpt><trkpt lat="45.7006059" lon="10.2060226"><ele>354.0</ele><time>2026-05-02T09:19:06.81Z</time></trkpt><trkpt lat="45.7006906" lon="10.2062424"><ele>354.0</ele><time>2026-05-02T09:19:07.81Z</time></trkpt><trkpt lat="45.7007692" lon="10.2064614"><ele>354.0</ele><time>2026-05-02T09:19:08.81Z</time></trkpt><trkpt lat="45.7008342" lon="10.2066877"><ele>354.0</ele><time>2026-05-02T09:19:09.81Z</time></trkpt><trkpt lat="45.7009714" lon="10.2071504"><ele>354.3333333333333</ele><time>2026-05-02T09:19:11.81Z</time></trkpt><trkpt lat="45.7010391" lon="10.2073732"><ele>354.66666666666663</ele><time>2026-05-02T09:19:12.81Z</time></trkpt><trkpt lat="45.7011116" lon="10.2075816"><ele>355.0</ele><time>2026-05-02T09:19:13.81Z</time></trkpt><trkpt lat="45.7011854" lon="10.2077847"><ele>357.0</ele><time>2026-05-02T09:19:14.81Z</time></trkpt><trkpt lat="45.7012742" lon="10.2079822"><ele>359.0</ele><time>2026-05-02T09:19:15.81Z</time></trkpt><trkpt lat="45.701366" lon="10.2081851"><ele>361.0</ele><time>2026-05-02T09:19:16.81Z</time></trkpt><trkpt lat="45.7014598" lon="10.2083947"><ele>361.0</ele><time>2026-05-02T09:19:17.81Z</time></trkpt><trkpt lat="45.7015593" lon="10.2086108"><ele>361.0</ele><time>2026-05-02T09:19:18.81Z</time></trkpt><trkpt lat="45.70167" lon="10.2088098"><ele>361.0</ele><time>2026-05-02T09:19:19.81Z</time></trkpt><trkpt lat="45.7017935" lon="10.2090052"><ele>361.0</ele><time>2026-05-02T09:19:20.81Z</time></trkpt><trkpt lat="45.7020725" lon="10.2093685"><ele>361.0</ele><time>2026-05-02T09:19:22.81Z</time></trkpt><trkpt lat="45.7022185" lon="10.2095323"><ele>361.0</ele><time>2026-05-02T09:19:23.81Z</time></trkpt><trkpt lat="45.7023647" lon="10.2097043"><ele>361.0</ele><time>2026-05-02T09:19:24.81Z</time></trkpt><trkpt lat="45.7025092" lon="10.2098702"><ele>361.0</ele><time>2026-05-02T09:19:25.81Z</time></trkpt><trkpt lat="45.7026565" lon="10.2100165"><ele>361.0</ele><time>2026-05-02T09:19:26.81Z</time></trkpt><trkpt lat="45.7027999" lon="10.2101658"><ele>361.0</ele><time>2026-05-02T09:19:27.81Z</time></trkpt><trkpt lat="45.7029493" lon="10.2103184"><ele>361.0</ele><time>2026-05-02T09:19:28.81Z</time></trkpt><trkpt lat="45.7030928" lon="10.2104686"><ele>361.0</ele><time>2026-05-02T09:19:29.81Z</time></trkpt><trkpt lat="45.7032335" lon="10.2106233"><ele>361.0</ele><time>2026-05-02T09:19:30.81Z</time></trkpt><trkpt lat="45.7033713" lon="10.2107758"><ele>361.0</ele><time>2026-05-02T09:19:31.81Z</time></trkpt><trkpt lat="45.7036388" lon="10.2110954"><ele>361.66666666666663</ele><time>2026-05-02T09:19:33.81Z</time></trkpt><trkpt lat="45.7037736" lon="10.2112559"><ele>362.3333333333333</ele><time>2026-05-02T09:19:34.81Z</time></trkpt><trkpt lat="45.7039121" lon="10.211401"><ele>363.0</ele><time>2026-05-02T09:19:35.81Z</time></trkpt><trkpt lat="45.704055" lon="10.2115418"><ele>363.0</ele><time>2026-05-02T09:19:36.81Z</time></trkpt><trkpt lat="45.7041904" lon="10.2116843"><ele>363.0</ele><time>2026-05-02T09:19:37.81Z</time></trkpt><trkpt lat="45.70432" lon="10.211828"><ele>363.0</ele><time>2026-05-02T09:19:38.81Z</time></trkpt><trkpt lat="45.704446" lon="10.2119837"><ele>363.3333333333333</ele><time>2026-05-02T09:19:39.81Z</time></trkpt><trkpt lat="45.7045775" lon="10.2121399"><ele>363.66666666666663</ele><time>2026-05-02T09:19:40.81Z</time></trkpt><trkpt lat="45.7047092" lon="10.2123026"><ele>364.0</ele><time>2026-05-02T09:19:41.81Z</time></trkpt><trkpt lat="45.7048359" lon="10.2124634"><ele>364.0</ele><time>2026-05-02T09:19:42.81Z</time></trkpt><trkpt lat="45.7049638" lon="10.2126183"><ele>364.0</ele><time>2026-05-02T09:19:43.81Z</time></trkpt><trkpt lat="45.7050992" lon="10.2127583"><ele>364.0</ele><time>2026-05-02T09:19:44.81Z</time></trkpt><trkpt lat="45.7052344" lon="10.2129042"><ele>365.66666666666663</ele><time>2026-05-02T09:19:45.81Z</time></trkpt><trkpt lat="45.7053706" lon="10.213052"><ele>367.3333333333333</ele><time>2026-05-02T09:19:46.81Z</time></trkpt><trkpt lat="45.7055071" lon="10.2131978"><ele>369.0</ele><time>2026-05-02T09:19:47.81Z</time></trkpt><trkpt lat="45.7056428" lon="10.213347"><ele>369.0</ele><time>2026-05-02T09:19:48.81Z</time></trkpt><trkpt lat="45.7057773" lon="10.2135094"><ele>369.0</ele><time>2026-05-02T09:19:49.81Z</time></trkpt><trkpt lat="45.7059162" lon="10.2136715"><ele>369.0</ele><time>2026-05-02T09:19:50.81Z</time></trkpt><trkpt lat="45.7060499" lon="10.2138399"><ele>370.0</ele><time>2026-05-02T09:19:51.81Z</time></trkpt><trkpt lat="45.7061858" lon="10.2140126"><ele>371.0</ele><time>2026-05-02T09:19:52.81Z</time></trkpt><trkpt lat="45.7063284" lon="10.2141645"><ele>372.0</ele><time>2026-05-02T09:19:53.81Z</time></trkpt><trkpt lat="45.7064656" lon="10.214322"><ele>372.0</ele><time>2026-05-02T09:19:54.81Z</time></trkpt><trkpt lat="45.7065975" lon="10.2144752"><ele>372.0</ele><time>2026-05-02T09:19:55.81Z</time></trkpt><trkpt lat="45.7067203" lon="10.2146339"><ele>372.0</ele><time>2026-05-02T09:19:56.81Z</time></trkpt><trkpt lat="45.7068517" lon="10.2147685"><ele>374.6666666666667</ele><time>2026-05-02T09:19:57.81Z</time></trkpt><trkpt lat="45.706972" lon="10.2149252"><ele>377.33333333333337</ele><time>2026-05-02T09:19:58.81Z</time></trkpt><trkpt lat="45.7070897" lon="10.2150861"><ele>380.0</ele><time>2026-05-02T09:19:59.81Z</time></trkpt><trkpt lat="45.7072055" lon="10.2152451"><ele>380.0</ele><time>2026-05-02T09:20:00.81Z</time></trkpt><trkpt lat="45.7073135" lon="10.2154097"><ele>380.0</ele><time>2026-05-02T09:20:01.81Z</time></trkpt><trkpt lat="45.7074184" lon="10.2155702"><ele>380.0</ele><time>2026-05-02T09:20:02.81Z</time></trkpt><trkpt lat="45.7075238" lon="10.215721"><ele>381.25</ele><time>2026-05-02T09:20:03.81Z</time></trkpt><trkpt lat="45.7076345" lon="10.2158632"><ele>382.5</ele><time>2026-05-02T09:20:04.81Z</time></trkpt><trkpt lat="45.7077334" lon="10.2160165"><ele>383.75</ele><time>2026-05-02T09:20:05.81Z</time></trkpt><trkpt lat="45.7078311" lon="10.2161615"><ele>385.0</ele><time>2026-05-02T09:20:06.81Z</time></trkpt><trkpt lat="45.7079274" lon="10.2162949"><ele>385.0</ele><time>2026-05-02T09:20:07.81Z</time></trkpt><trkpt lat="45.7080103" lon="10.2164145"><ele>385.0</ele><time>2026-05-02T09:20:08.81Z</time></trkpt><trkpt lat="45.7080879" lon="10.2165222"><ele>385.0</ele><time>2026-05-02T09:20:09.81Z</time></trkpt><trkpt lat="45.7081614" lon="10.2166153"><ele>385.0</ele><time>2026-05-02T09:20:10.81Z</time></trkpt><trkpt lat="45.7082306" lon="10.2166845"><ele>385.0</ele><time>2026-05-02T09:20:11.81Z</time></trkpt><trkpt lat="45.7082888" lon="10.2167297"><ele>385.4</ele><time>2026-05-02T09:20:12.81Z</time></trkpt><trkpt lat="45.7083487" lon="10.2167606"><ele>385.8</ele><time>2026-05-02T09:20:14.81Z</time></trkpt><trkpt lat="45.7084347" lon="10.2167898"><ele>386.20000000000005</ele><time>2026-05-02T09:20:21.81Z</time></trkpt><trkpt lat="45.7085198" lon="10.2168522"><ele>386.6</ele><time>2026-05-02T09:20:22.81Z</time></trkpt><trkpt lat="45.7086316" lon="10.2169221"><ele>387.0</ele><time>2026-05-02T09:20:23.81Z</time></trkpt><trkpt lat="45.7087613" lon="10.2170173"><ele>387.0</ele><time>2026-05-02T09:20:24.81Z</time></trkpt><trkpt lat="45.708882" lon="10.2171212"><ele>387.0</ele><time>2026-05-02T09:20:25.81Z</time></trkpt><trkpt lat="45.7090064" lon="10.2172516"><ele>387.0</ele><time>2026-05-02T09:20:26.81Z</time></trkpt><trkpt lat="45.7091182" lon="10.2174034"><ele>387.0</ele><time>2026-05-02T09:20:27.81Z</time></trkpt><trkpt lat="45.7092201" lon="10.2175553"><ele>386.33333333333337</ele><time>2026-05-02T09:20:28.81Z</time></trkpt><trkpt lat="45.7093173" lon="10.2177182"><ele>385.6666666666667</ele><time>2026-05-02T09:20:29.81Z</time></trkpt><trkpt lat="45.7094169" lon="10.217888"><ele>385.0</ele><time>2026-05-02T09:20:30.81Z</time></trkpt><trkpt lat="45.7095207" lon="10.2180658"><ele>383.0</ele><time>2026-05-02T09:20:31.81Z</time></trkpt><trkpt lat="45.7096291" lon="10.2182474"><ele>381.0</ele><time>2026-05-02T09:20:32.81Z</time></trkpt><trkpt lat="45.7097402" lon="10.2184321"><ele>379.0</ele><time>2026-05-02T09:20:33.81Z</time></trkpt><trkpt lat="45.7098541" lon="10.2186157"><ele>379.0</ele><time>2026-05-02T09:20:34.81Z</time></trkpt><trkpt lat="45.7099594" lon="10.2187611"><ele>379.0</ele><time>2026-05-02T09:20:35.81Z</time></trkpt><trkpt lat="45.7100592" lon="10.2189218"><ele>379.0</ele><time>2026-05-02T09:20:36.81Z</time></trkpt><trkpt lat="45.7101429" lon="10.2190752"><ele>379.0</ele><time>2026-05-02T09:20:37.81Z</time></trkpt><trkpt lat="45.7102122" lon="10.2192056"><ele>380.0</ele><time>2026-05-02T09:20:38.81Z</time></trkpt><trkpt lat="45.7102893" lon="10.2192983"><ele>381.0</ele><time>2026-05-02T09:20:39.81Z</time></trkpt><trkpt lat="45.7103659" lon="10.2193774"><ele>382.0</ele><time>2026-05-02T09:20:40.81Z</time></trkpt><trkpt lat="45.7104423" lon="10.2194327"><ele>383.0</ele><time>2026-05-02T09:20:41.81Z</time></trkpt><trkpt lat="45.7105257" lon="10.2194819"><ele>384.0</ele><time>2026-05-02T09:20:42.81Z</time></trkpt><trkpt lat="45.7106136" lon="10.2195183"><ele>384.0</ele><time>2026-05-02T09:20:43.81Z</time></trkpt><trkpt lat="45.7107168" lon="10.2195462"><ele>384.0</ele><time>2026-05-02T09:20:44.81Z</time></trkpt><trkpt lat="45.7108426" lon="10.2195874"><ele>384.0</ele><time>2026-05-02T09:20:45.81Z</time></trkpt><trkpt lat="45.7109822" lon="10.2196368"><ele>384.0</ele><time>2026-05-02T09:20:46.81Z</time></trkpt><trkpt lat="45.7111429" lon="10.2196758"><ele>387.0</ele><time>2026-05-02T09:20:47.81Z</time></trkpt><trkpt lat="45.7113117" lon="10.219709"><ele>390.0</ele><time>2026-05-02T09:20:48.81Z</time></trkpt><trkpt lat="45.7114766" lon="10.219747"><ele>393.0</ele><time>2026-05-02T09:20:49.81Z</time></trkpt><trkpt lat="45.7116397" lon="10.2198014"><ele>392.0</ele><time>2026-05-02T09:20:50.81Z</time></trkpt><trkpt lat="45.7118018" lon="10.2198818"><ele>391.0</ele><time>2026-05-02T09:20:51.81Z</time></trkpt><trkpt lat="45.7119601" lon="10.2199985"><ele>390.0</ele><time>2026-05-02T09:20:52.81Z</time></trkpt><trkpt lat="45.7121188" lon="10.2201314"><ele>390.0</ele><time>2026-05-02T09:20:53.81Z</time></trkpt><trkpt lat="45.7122776" lon="10.2202655"><ele>390.0</ele><time>2026-05-02T09:20:54.81Z</time></trkpt><trkpt lat="45.7124447" lon="10.2203999"><ele>390.0</ele><time>2026-05-02T09:20:55.81Z</time></trkpt><trkpt lat="45.7126095" lon="10.2205347"><ele>389.0</ele><time>2026-05-02T09:20:56.81Z</time></trkpt><trkpt lat="45.7127704" lon="10.2206771"><ele>388.0</ele><time>2026-05-02T09:20:57.81Z</time></trkpt><trkpt lat="45.7129336" lon="10.2208108"><ele>387.0</ele><time>2026-05-02T09:20:58.81Z</time></trkpt><trkpt lat="45.7131016" lon="10.2209382"><ele>387.0</ele><time>2026-05-02T09:20:59.81Z</time></trkpt><trkpt lat="45.7132798" lon="10.221055"><ele>387.0</ele><time>2026-05-02T09:21:00.81Z</time></trkpt><trkpt lat="45.7134579" lon="10.2211645"><ele>387.0</ele><time>2026-05-02T09:21:01.81Z</time></trkpt><trkpt lat="45.7136488" lon="10.2212619"><ele>393.0</ele><time>2026-05-02T09:21:02.81Z</time></trkpt><trkpt lat="45.713865" lon="10.2213272"><ele>399.0</ele><time>2026-05-02T09:21:03.81Z</time></trkpt><trkpt lat="45.7141041" lon="10.2213723"><ele>399.0</ele><time>2026-05-02T09:21:04.81Z</time></trkpt><trkpt lat="45.7143618" lon="10.2214022"><ele>399.0</ele><time>2026-05-02T09:21:05.81Z</time></trkpt><trkpt lat="45.7146049" lon="10.2214507"><ele>394.0</ele><time>2026-05-02T09:21:06.81Z</time></trkpt><trkpt lat="45.7148364" lon="10.2215377"><ele>389.0</ele><time>2026-05-02T09:21:07.81Z</time></trkpt><trkpt lat="45.7150463" lon="10.2216784"><ele>400.0</ele><time>2026-05-02T09:21:08.81Z</time></trkpt><trkpt lat="45.7152469" lon="10.2218437"><ele>411.0</ele><time>2026-05-02T09:21:09.81Z</time></trkpt><trkpt lat="45.715423" lon="10.2220605"><ele>411.0</ele><time>2026-05-02T09:21:10.81Z</time></trkpt><trkpt lat="45.7155978" lon="10.2222827"><ele>411.0</ele><time>2026-05-02T09:21:11.81Z</time></trkpt><trkpt lat="45.7157673" lon="10.2225247"><ele>399.5</ele><time>2026-05-02T09:21:12.81Z</time></trkpt><trkpt lat="45.7159286" lon="10.22276"><ele>388.0</ele><time>2026-05-02T09:21:13.81Z</time></trkpt><trkpt lat="45.7160579" lon="10.2230367"><ele>390.6666666666667</ele><time>2026-05-02T09:21:14.81Z</time></trkpt><trkpt lat="45.7161691" lon="10.2233093"><ele>393.33333333333337</ele><time>2026-05-02T09:21:15.81Z</time></trkpt><trkpt lat="45.7162652" lon="10.2235794"><ele>396.0</ele><time>2026-05-02T09:21:16.81Z</time></trkpt><trkpt lat="45.7163544" lon="10.2238712"><ele>393.33333333333337</ele><time>2026-05-02T09:21:17.81Z</time></trkpt><trkpt lat="45.7164521" lon="10.2241461"><ele>390.6666666666667</ele><time>2026-05-02T09:21:18.81Z</time></trkpt><trkpt lat="45.7165662" lon="10.2244024"><ele>388.0</ele><time>2026-05-02T09:21:19.81Z</time></trkpt><trkpt lat="45.7166803" lon="10.2246309"><ele>387.33333333333337</ele><time>2026-05-02T09:21:20.81Z</time></trkpt><trkpt lat="45.7168119" lon="10.2248343"><ele>386.66666666666663</ele><time>2026-05-02T09:21:21.81Z</time></trkpt><trkpt lat="45.7169467" lon="10.2250193"><ele>386.0</ele><time>2026-05-02T09:21:22.81Z</time></trkpt><trkpt lat="45.7170793" lon="10.2252104"><ele>388.66666666666663</ele><time>2026-05-02T09:21:23.81Z</time></trkpt><trkpt lat="45.7172043" lon="10.2254176"><ele>391.33333333333337</ele><time>2026-05-02T09:21:24.81Z</time></trkpt><trkpt lat="45.7173259" lon="10.2256303"><ele>394.0</ele><time>2026-05-02T09:21:25.81Z</time></trkpt><trkpt lat="45.7174326" lon="10.2258501"><ele>394.0</ele><time>2026-05-02T09:21:26.81Z</time></trkpt><trkpt lat="45.7175377" lon="10.2260718"><ele>394.0</ele><time>2026-05-02T09:21:27.81Z</time></trkpt><trkpt lat="45.717649" lon="10.2262787"><ele>394.0</ele><time>2026-05-02T09:21:28.81Z</time></trkpt><trkpt lat="45.7177652" lon="10.2264692"><ele>395.33333333333337</ele><time>2026-05-02T09:21:29.81Z</time></trkpt><trkpt lat="45.7178859" lon="10.2266386"><ele>396.66666666666663</ele><time>2026-05-02T09:21:30.81Z</time></trkpt><trkpt lat="45.7180023" lon="10.2268066"><ele>398.0</ele><time>2026-05-02T09:21:31.81Z</time></trkpt><trkpt lat="45.7181155" lon="10.2269593"><ele>398.0</ele><time>2026-05-02T09:21:32.81Z</time></trkpt><trkpt lat="45.718219" lon="10.2271064"><ele>398.0</ele><time>2026-05-02T09:21:33.81Z</time></trkpt><trkpt lat="45.7183156" lon="10.2272239"><ele>398.0</ele><time>2026-05-02T09:21:34.81Z</time></trkpt><trkpt lat="45.7184043" lon="10.2273278"><ele>398.0</ele><time>2026-05-02T09:21:35.81Z</time></trkpt><trkpt lat="45.718481" lon="10.2274278"><ele>397.4</ele><time>2026-05-02T09:21:36.81Z</time></trkpt><trkpt lat="45.7185496" lon="10.2275346"><ele>396.79999999999995</ele><time>2026-05-02T09:21:37.81Z</time></trkpt><trkpt lat="45.718613" lon="10.2276342"><ele>396.2</ele><time>2026-05-02T09:21:38.81Z</time></trkpt><trkpt lat="45.7186763" lon="10.2277373"><ele>395.6</ele><time>2026-05-02T09:21:39.81Z</time></trkpt><trkpt lat="45.7187419" lon="10.2278561"><ele>395.0</ele><time>2026-05-02T09:21:40.81Z</time></trkpt><trkpt lat="45.7188231" lon="10.2279755"><ele>395.25</ele><time>2026-05-02T09:21:41.81Z</time></trkpt><trkpt lat="45.7189122" lon="10.2281148"><ele>395.5</ele><time>2026-05-02T09:21:42.81Z</time></trkpt><trkpt lat="45.7190055" lon="10.228272"><ele>395.75</ele><time>2026-05-02T09:21:43.81Z</time></trkpt><trkpt lat="45.7190987" lon="10.2284279"><ele>396.0</ele><time>2026-05-02T09:21:44.81Z</time></trkpt><trkpt lat="45.7191882" lon="10.2285677"><ele>396.0</ele><time>2026-05-02T09:21:45.81Z</time></trkpt><trkpt lat="45.7192625" lon="10.2287054"><ele>396.0</ele><time>2026-05-02T09:21:46.81Z</time></trkpt><trkpt lat="45.7193373" lon="10.2288258"><ele>396.0</ele><time>2026-05-02T09:21:47.81Z</time></trkpt><trkpt lat="45.7194057" lon="10.2289387"><ele>396.0</ele><time>2026-05-02T09:21:48.81Z</time></trkpt><trkpt lat="45.7194819" lon="10.2290548"><ele>397.75</ele><time>2026-05-02T09:21:49.81Z</time></trkpt><trkpt lat="45.7195721" lon="10.2291792"><ele>399.5</ele><time>2026-05-02T09:21:50.81Z</time></trkpt><trkpt lat="45.7196739" lon="10.229322"><ele>401.25</ele><time>2026-05-02T09:21:51.81Z</time></trkpt><trkpt lat="45.7197777" lon="10.2294878"><ele>403.0</ele><time>2026-05-02T09:21:52.81Z</time></trkpt><trkpt lat="45.7198829" lon="10.2296626"><ele>402.0</ele><time>2026-05-02T09:21:53.81Z</time></trkpt><trkpt lat="45.719988" lon="10.2298341"><ele>401.0</ele><time>2026-05-02T09:21:54.81Z</time></trkpt><trkpt lat="45.720087" lon="10.2300022"><ele>400.0</ele><time>2026-05-02T09:21:55.81Z</time></trkpt><trkpt lat="45.720188" lon="10.2301502"><ele>401.0</ele><time>2026-05-02T09:21:56.81Z</time></trkpt><trkpt lat="45.7202949" lon="10.2302789"><ele>402.0</ele><time>2026-05-02T09:21:57.81Z</time></trkpt><trkpt lat="45.7204024" lon="10.2303856"><ele>403.0</ele><time>2026-05-02T09:21:58.81Z</time></trkpt><trkpt lat="45.7205173" lon="10.2304756"><ele>404.0</ele><time>2026-05-02T09:21:59.81Z</time></trkpt><trkpt lat="45.7206386" lon="10.2305482"><ele>404.0</ele><time>2026-05-02T09:22:00.81Z</time></trkpt><trkpt lat="45.7207591" lon="10.2305866"><ele>404.0</ele><time>2026-05-02T09:22:01.81Z</time></trkpt><trkpt lat="45.7208849" lon="10.2306041"><ele>404.0</ele><time>2026-05-02T09:22:02.81Z</time></trkpt><trkpt lat="45.7210093" lon="10.2306096"><ele>404.0</ele><time>2026-05-02T09:22:03.81Z</time></trkpt><trkpt lat="45.7211302" lon="10.2305908"><ele>404.25</ele><time>2026-05-02T09:22:04.81Z</time></trkpt><trkpt lat="45.7212489" lon="10.2305517"><ele>404.5</ele><time>2026-05-02T09:22:05.81Z</time></trkpt><trkpt lat="45.7213658" lon="10.2305031"><ele>404.75</ele><time>2026-05-02T09:22:06.81Z</time></trkpt><trkpt lat="45.721487" lon="10.2304471"><ele>405.0</ele><time>2026-05-02T09:22:07.81Z</time></trkpt><trkpt lat="45.7216005" lon="10.230393"><ele>405.0</ele><time>2026-05-02T09:22:08.81Z</time></trkpt><trkpt lat="45.721709" lon="10.2303431"><ele>405.0</ele><time>2026-05-02T09:22:09.81Z</time></trkpt><trkpt lat="45.7218048" lon="10.230324"><ele>405.0</ele><time>2026-05-02T09:22:10.81Z</time></trkpt><trkpt lat="45.7218893" lon="10.2303422"><ele>405.0</ele><time>2026-05-02T09:22:11.81Z</time></trkpt><trkpt lat="45.7219577" lon="10.2303995"><ele>405.0</ele><time>2026-05-02T09:22:12.81Z</time></trkpt><trkpt lat="45.7220076" lon="10.2304855"><ele>404.8333333333333</ele><time>2026-05-02T09:22:13.81Z</time></trkpt><trkpt lat="45.7220384" lon="10.230583"><ele>404.66666666666663</ele><time>2026-05-02T09:22:14.81Z</time></trkpt><trkpt lat="45.7220519" lon="10.2306913"><ele>404.5</ele><time>2026-05-02T09:22:15.81Z</time></trkpt><trkpt lat="45.722034" lon="10.2307996"><ele>404.3333333333333</ele><time>2026-05-02T09:22:16.81Z</time></trkpt><trkpt lat="45.7219935" lon="10.2309287"><ele>404.16666666666663</ele><time>2026-05-02T09:22:17.81Z</time></trkpt><trkpt lat="45.7219338" lon="10.2310484"><ele>404.0</ele><time>2026-05-02T09:22:18.81Z</time></trkpt><trkpt lat="45.721838" lon="10.2311499"><ele>404.0</ele><time>2026-05-02T09:22:19.81Z</time></trkpt><trkpt lat="45.7217075" lon="10.2312487"><ele>404.0</ele><time>2026-05-02T09:22:20.81Z</time></trkpt><trkpt lat="45.7215252" lon="10.231359"><ele>404.0</ele><time>2026-05-02T09:22:21.81Z</time></trkpt><trkpt lat="45.7213437" lon="10.2314465"><ele>403.66666666666663</ele><time>2026-05-02T09:22:22.81Z</time></trkpt><trkpt lat="45.7211787" lon="10.2315157"><ele>403.33333333333337</ele><time>2026-05-02T09:22:23.81Z</time></trkpt><trkpt lat="45.7210016" lon="10.2315988"><ele>403.0</ele><time>2026-05-02T09:22:24.81Z</time></trkpt><trkpt lat="45.7208344" lon="10.2316661"><ele>403.0</ele><time>2026-05-02T09:22:25.81Z</time></trkpt><trkpt lat="45.7206768" lon="10.2317284"><ele>403.0</ele><time>2026-05-02T09:22:26.81Z</time></trkpt><trkpt lat="45.7205224" lon="10.2317968"><ele>403.0</ele><time>2026-05-02T09:22:27.81Z</time></trkpt><trkpt lat="45.7203645" lon="10.231873"><ele>403.0</ele><time>2026-05-02T09:22:28.81Z</time></trkpt><trkpt lat="45.7202096" lon="10.2319576"><ele>403.0</ele><time>2026-05-02T09:22:29.81Z</time></trkpt><trkpt lat="45.7200575" lon="10.2320479"><ele>403.0</ele><time>2026-05-02T09:22:30.81Z</time></trkpt><trkpt lat="45.7199141" lon="10.2321234"><ele>403.0</ele><time>2026-05-02T09:22:31.81Z</time></trkpt><trkpt lat="45.7197658" lon="10.2321962"><ele>403.0</ele><time>2026-05-02T09:22:32.81Z</time></trkpt><trkpt lat="45.7196216" lon="10.2322539"><ele>403.0</ele><time>2026-05-02T09:22:33.81Z</time></trkpt><trkpt lat="45.7194842" lon="10.2323068"><ele>403.0</ele><time>2026-05-02T09:22:34.81Z</time></trkpt><trkpt lat="45.7193484" lon="10.2323552"><ele>403.75</ele><time>2026-05-02T09:22:35.81Z</time></trkpt><trkpt lat="45.7192219" lon="10.2323988"><ele>404.5</ele><time>2026-05-02T09:22:36.81Z</time></trkpt><trkpt lat="45.7191044" lon="10.232436"><ele>405.25</ele><time>2026-05-02T09:22:37.81Z</time></trkpt><trkpt lat="45.7189998" lon="10.2324838"><ele>406.0</ele><time>2026-05-02T09:22:38.81Z</time></trkpt><trkpt lat="45.7188999" lon="10.232525"><ele>406.0</ele><time>2026-05-02T09:22:39.81Z</time></trkpt><trkpt lat="45.7187948" lon="10.2325792"><ele>406.0</ele><time>2026-05-02T09:22:40.81Z</time></trkpt><trkpt lat="45.7186854" lon="10.2326702"><ele>406.0</ele><time>2026-05-02T09:22:41.81Z</time></trkpt><trkpt lat="45.7185684" lon="10.2328012"><ele>406.0</ele><time>2026-05-02T09:22:42.81Z</time></trkpt><trkpt lat="45.7184383" lon="10.2329687"><ele>408.0</ele><time>2026-05-02T09:22:43.81Z</time></trkpt><trkpt lat="45.718312" lon="10.2331454"><ele>410.0</ele><time>2026-05-02T09:22:44.81Z</time></trkpt><trkpt lat="45.7181927" lon="10.2333165"><ele>412.0</ele><time>2026-05-02T09:22:45.81Z</time></trkpt><trkpt lat="45.718077" lon="10.233482"><ele>412.0</ele><time>2026-05-02T09:22:46.81Z</time></trkpt><trkpt lat="45.7179672" lon="10.2336606"><ele>412.0</ele><time>2026-05-02T09:22:47.81Z</time></trkpt><trkpt lat="45.7178671" lon="10.2338906"><ele>412.0</ele><time>2026-05-02T09:22:48.81Z</time></trkpt><trkpt lat="45.7177727" lon="10.2341635"><ele>413.0</ele><time>2026-05-02T09:22:49.81Z</time></trkpt><trkpt lat="45.7176738" lon="10.2344598"><ele>414.0</ele><time>2026-05-02T09:22:50.81Z</time></trkpt><trkpt lat="45.7175692" lon="10.234745"><ele>416.0</ele><time>2026-05-02T09:22:51.81Z</time></trkpt><trkpt lat="45.7174549" lon="10.2350433"><ele>418.0</ele><time>2026-05-02T09:22:52.81Z</time></trkpt><trkpt lat="45.7173434" lon="10.2353417"><ele>418.0</ele><time>2026-05-02T09:22:53.81Z</time></trkpt><trkpt lat="45.7172369" lon="10.2356217"><ele>418.0</ele><time>2026-05-02T09:22:54.81Z</time></trkpt><trkpt lat="45.7171361" lon="10.2359035"><ele>418.0</ele><time>2026-05-02T09:22:55.81Z</time></trkpt><trkpt lat="45.7170437" lon="10.2361873"><ele>422.33333333333337</ele><time>2026-05-02T09:22:56.81Z</time></trkpt><trkpt lat="45.7169585" lon="10.2364846"><ele>426.66666666666663</ele><time>2026-05-02T09:22:57.81Z</time></trkpt><trkpt lat="45.7168989" lon="10.2367895"><ele>431.0</ele><time>2026-05-02T09:22:58.81Z</time></trkpt><trkpt lat="45.7168681" lon="10.2371119"><ele>431.3333333333333</ele><time>2026-05-02T09:22:59.81Z</time></trkpt><trkpt lat="45.7168505" lon="10.237425"><ele>431.66666666666663</ele><time>2026-05-02T09:23:00.81Z</time></trkpt><trkpt lat="45.7168572" lon="10.2377328"><ele>432.0</ele><time>2026-05-02T09:23:01.81Z</time></trkpt><trkpt lat="45.7168848" lon="10.2380347"><ele>431.0</ele><time>2026-05-02T09:23:02.81Z</time></trkpt><trkpt lat="45.7169349" lon="10.2383299"><ele>430.0</ele><time>2026-05-02T09:23:03.81Z</time></trkpt><trkpt lat="45.7169865" lon="10.2386255"><ele>429.0</ele><time>2026-05-02T09:23:04.81Z</time></trkpt><trkpt lat="45.7170369" lon="10.2389253"><ele>430.33333333333337</ele><time>2026-05-02T09:23:05.81Z</time></trkpt><trkpt lat="45.7170725" lon="10.2392303"><ele>431.6666666666667</ele><time>2026-05-02T09:23:06.81Z</time></trkpt><trkpt lat="45.7170952" lon="10.2395294"><ele>433.0</ele><time>2026-05-02T09:23:07.81Z</time></trkpt><trkpt lat="45.7170966" lon="10.239822"><ele>437.33333333333337</ele><time>2026-05-02T09:23:08.81Z</time></trkpt><trkpt lat="45.7170698" lon="10.2401135"><ele>441.66666666666663</ele><time>2026-05-02T09:23:09.81Z</time></trkpt><trkpt lat="45.7170296" lon="10.2403878"><ele>446.0</ele><time>2026-05-02T09:23:10.81Z</time></trkpt><trkpt lat="45.716955" lon="10.2406258"><ele>439.3333333333333</ele><time>2026-05-02T09:23:11.81Z</time></trkpt><trkpt lat="45.7168331" lon="10.2408388"><ele>432.66666666666663</ele><time>2026-05-02T09:23:12.81Z</time></trkpt><trkpt lat="45.7166787" lon="10.2409996"><ele>426.0</ele><time>2026-05-02T09:23:13.81Z</time></trkpt><trkpt lat="45.7164919" lon="10.2411075"><ele>426.0</ele><time>2026-05-02T09:23:14.81Z</time></trkpt><trkpt lat="45.7163155" lon="10.2412039"><ele>426.0</ele><time>2026-05-02T09:23:15.81Z</time></trkpt><trkpt lat="45.7161575" lon="10.2413281"><ele>426.0</ele><time>2026-05-02T09:23:16.81Z</time></trkpt><trkpt lat="45.7160487" lon="10.2414859"><ele>429.0</ele><time>2026-05-02T09:23:17.81Z</time></trkpt><trkpt lat="45.7159767" lon="10.2416802"><ele>432.0</ele><time>2026-05-02T09:23:18.81Z</time></trkpt><trkpt lat="45.7159404" lon="10.2419351"><ele>435.0</ele><time>2026-05-02T09:23:19.81Z</time></trkpt><trkpt lat="45.7159432" lon="10.2422259"><ele>436.33333333333337</ele><time>2026-05-02T09:23:20.81Z</time></trkpt><trkpt lat="45.715948" lon="10.2425384"><ele>437.6666666666667</ele><time>2026-05-02T09:23:21.81Z</time></trkpt><trkpt lat="45.7159218" lon="10.242833"><ele>439.0</ele><time>2026-05-02T09:23:22.81Z</time></trkpt><trkpt lat="45.7158591" lon="10.2431272"><ele>444.5</ele><time>2026-05-02T09:23:23.81Z</time></trkpt><trkpt lat="45.7157569" lon="10.2434171"><ele>450.0</ele><time>2026-05-02T09:23:24.81Z</time></trkpt><trkpt lat="45.7156363" lon="10.2436981"><ele>454.33333333333337</ele><time>2026-05-02T09:23:25.81Z</time></trkpt><trkpt lat="45.7155091" lon="10.2439713"><ele>458.6666666666667</ele><time>2026-05-02T09:23:26.81Z</time></trkpt><trkpt lat="45.7153822" lon="10.2442279"><ele>463.0</ele><time>2026-05-02T09:23:27.81Z</time></trkpt><trkpt lat="45.7152757" lon="10.2444752"><ele>458.0</ele><time>2026-05-02T09:23:28.81Z</time></trkpt><trkpt lat="45.7152104" lon="10.2447187"><ele>453.0</ele><time>2026-05-02T09:23:29.81Z</time></trkpt><trkpt lat="45.7151742" lon="10.244935"><ele>448.0</ele><time>2026-05-02T09:23:30.81Z</time></trkpt><trkpt lat="45.7151036" lon="10.2451348"><ele>446.0</ele><time>2026-05-02T09:23:31.81Z</time></trkpt><trkpt lat="45.7149993" lon="10.2453033"><ele>444.0</ele><time>2026-05-02T09:23:32.81Z</time></trkpt><trkpt lat="45.7148617" lon="10.2454433"><ele>442.0</ele><time>2026-05-02T09:23:33.81Z</time></trkpt><trkpt lat="45.7147081" lon="10.2455835"><ele>444.0</ele><time>2026-05-02T09:23:34.81Z</time></trkpt><trkpt lat="45.7145738" lon="10.2457518"><ele>446.0</ele><time>2026-05-02T09:23:35.81Z</time></trkpt><trkpt lat="45.7144745" lon="10.2459513"><ele>448.0</ele><time>2026-05-02T09:23:36.81Z</time></trkpt><trkpt lat="45.7143811" lon="10.2462079"><ele>448.33333333333337</ele><time>2026-05-02T09:23:37.81Z</time></trkpt><trkpt lat="45.7143155" lon="10.246486"><ele>448.66666666666663</ele><time>2026-05-02T09:23:38.81Z</time></trkpt><trkpt lat="45.7142453" lon="10.2467824"><ele>449.0</ele><time>2026-05-02T09:23:39.81Z</time></trkpt><trkpt lat="45.7141728" lon="10.2470875"><ele>451.3333333333333</ele><time>2026-05-02T09:23:40.81Z</time></trkpt><trkpt lat="45.7140922" lon="10.2473859"><ele>453.66666666666663</ele><time>2026-05-02T09:23:41.81Z</time></trkpt><trkpt lat="45.7139949" lon="10.2476779"><ele>456.0</ele><time>2026-05-02T09:23:42.81Z</time></trkpt><trkpt lat="45.7138639" lon="10.2479424"><ele>458.33333333333337</ele><time>2026-05-02T09:23:43.81Z</time></trkpt><trkpt lat="45.7137255" lon="10.2481952"><ele>460.6666666666667</ele><time>2026-05-02T09:23:44.81Z</time></trkpt><trkpt lat="45.7135993" lon="10.248448"><ele>463.0</ele><time>2026-05-02T09:23:45.81Z</time></trkpt><trkpt lat="45.7135038" lon="10.2487117"><ele>462.6666666666667</ele><time>2026-05-02T09:23:46.81Z</time></trkpt><trkpt lat="45.7134249" lon="10.2489936"><ele>462.33333333333337</ele><time>2026-05-02T09:23:47.81Z</time></trkpt><trkpt lat="45.7133447" lon="10.249288"><ele>462.0</ele><time>2026-05-02T09:23:48.81Z</time></trkpt><trkpt lat="45.7132501" lon="10.2495721"><ele>468.0</ele><time>2026-05-02T09:23:49.81Z</time></trkpt><trkpt lat="45.713141" lon="10.2498567"><ele>474.0</ele><time>2026-05-02T09:23:50.81Z</time></trkpt><trkpt lat="45.7130332" lon="10.2501386"><ele>474.0</ele><time>2026-05-02T09:23:51.81Z</time></trkpt><trkpt lat="45.7129497" lon="10.2504363"><ele>474.0</ele><time>2026-05-02T09:23:52.81Z</time></trkpt><trkpt lat="45.7128846" lon="10.2507371"><ele>474.0</ele><time>2026-05-02T09:23:53.81Z</time></trkpt><trkpt lat="45.712822" lon="10.2510412"><ele>478.66666666666663</ele><time>2026-05-02T09:23:54.81Z</time></trkpt><trkpt lat="45.7127732" lon="10.2513449"><ele>483.3333333333333</ele><time>2026-05-02T09:23:55.81Z</time></trkpt><trkpt lat="45.712735" lon="10.2516448"><ele>488.0</ele><time>2026-05-02T09:23:56.81Z</time></trkpt><trkpt lat="45.7127036" lon="10.251945"><ele>481.3333333333333</ele><time>2026-05-02T09:23:57.81Z</time></trkpt><trkpt lat="45.712676" lon="10.2522338"><ele>474.66666666666663</ele><time>2026-05-02T09:23:58.81Z</time></trkpt><trkpt lat="45.7126685" lon="10.2525122"><ele>468.0</ele><time>2026-05-02T09:23:59.81Z</time></trkpt><trkpt lat="45.7126598" lon="10.2527799"><ele>468.0</ele><time>2026-05-02T09:24:00.81Z</time></trkpt><trkpt lat="45.7126575" lon="10.2530319"><ele>468.0</ele><time>2026-05-02T09:24:01.81Z</time></trkpt><trkpt lat="45.712662" lon="10.2532856"><ele>468.0</ele><time>2026-05-02T09:24:02.81Z</time></trkpt><trkpt lat="45.7126755" lon="10.2535421"><ele>470.0</ele><time>2026-05-02T09:24:03.81Z</time></trkpt><trkpt lat="45.7127085" lon="10.2538174"><ele>472.0</ele><time>2026-05-02T09:24:04.81Z</time></trkpt><trkpt lat="45.7127431" lon="10.254091"><ele>474.0</ele><time>2026-05-02T09:24:05.81Z</time></trkpt><trkpt lat="45.7127635" lon="10.2543958"><ele>487.0</ele><time>2026-05-02T09:24:06.81Z</time></trkpt><trkpt lat="45.7128003" lon="10.2547178"><ele>500.0</ele><time>2026-05-02T09:24:07.81Z</time></trkpt><trkpt lat="45.7128555" lon="10.2550458"><ele>500.0</ele><time>2026-05-02T09:24:08.81Z</time></trkpt><trkpt lat="45.712901" lon="10.2553835"><ele>500.0</ele><time>2026-05-02T09:24:09.81Z</time></trkpt><trkpt lat="45.7129333" lon="10.2557108"><ele>495.3333333333333</ele><time>2026-05-02T09:24:10.81Z</time></trkpt><trkpt lat="45.7129635" lon="10.2560023"><ele>490.66666666666663</ele><time>2026-05-02T09:24:11.81Z</time></trkpt><trkpt lat="45.7130015" lon="10.2562487"><ele>486.0</ele><time>2026-05-02T09:24:12.81Z</time></trkpt><trkpt lat="45.7130769" lon="10.2564711"><ele>484.0</ele><time>2026-05-02T09:24:13.81Z</time></trkpt><trkpt lat="45.7131743" lon="10.2566541"><ele>482.0</ele><time>2026-05-02T09:24:14.81Z</time></trkpt><trkpt lat="45.7132728" lon="10.2567812"><ele>480.0</ele><time>2026-05-02T09:24:15.81Z</time></trkpt><trkpt lat="45.7133644" lon="10.2568524"><ele>478.0</ele><time>2026-05-02T09:24:16.81Z</time></trkpt><trkpt lat="45.7134472" lon="10.256848"><ele>478.0</ele><time>2026-05-02T09:24:17.81Z</time></trkpt><trkpt lat="45.7135166" lon="10.2567607"><ele>478.0</ele><time>2026-05-02T09:24:18.81Z</time></trkpt><trkpt lat="45.7135474" lon="10.2566061"><ele>478.0</ele><time>2026-05-02T09:24:19.81Z</time></trkpt><trkpt lat="45.7135301" lon="10.2563849"><ele>478.0</ele><time>2026-05-02T09:24:20.81Z</time></trkpt><trkpt lat="45.7134705" lon="10.2561051"><ele>480.6666666666667</ele><time>2026-05-02T09:24:21.81Z</time></trkpt><trkpt lat="45.7134038" lon="10.2558132"><ele>483.33333333333337</ele><time>2026-05-02T09:24:22.81Z</time></trkpt><trkpt lat="45.7133392" lon="10.2555257"><ele>486.0</ele><time>2026-05-02T09:24:23.81Z</time></trkpt><trkpt lat="45.713275" lon="10.2552412"><ele>490.66666666666663</ele><time>2026-05-02T09:24:24.81Z</time></trkpt><trkpt lat="45.713205" lon="10.2549736"><ele>495.3333333333333</ele><time>2026-05-02T09:24:25.81Z</time></trkpt><trkpt lat="45.7131375" lon="10.2547225"><ele>500.0</ele><time>2026-05-02T09:24:26.81Z</time></trkpt><trkpt lat="45.7130801" lon="10.2544716"><ele>501.3333333333333</ele><time>2026-05-02T09:24:27.81Z</time></trkpt><trkpt lat="45.7130279" lon="10.25422"><ele>502.66666666666663</ele><time>2026-05-02T09:24:28.81Z</time></trkpt><trkpt lat="45.7129998" lon="10.2539747"><ele>504.0</ele><time>2026-05-02T09:24:29.81Z</time></trkpt><trkpt lat="45.7129983" lon="10.2537308"><ele>502.0</ele><time>2026-05-02T09:24:30.81Z</time></trkpt><trkpt lat="45.7130125" lon="10.2535032"><ele>500.0</ele><time>2026-05-02T09:24:31.81Z</time></trkpt><trkpt lat="45.7130289" lon="10.2532819"><ele>498.0</ele><time>2026-05-02T09:24:32.81Z</time></trkpt><trkpt lat="45.7130323" lon="10.2531014"><ele>496.0</ele><time>2026-05-02T09:24:33.81Z</time></trkpt><trkpt lat="45.713046" lon="10.2529683"><ele>496.00000000000006</ele><time>2026-05-02T09:24:34.81Z</time></trkpt><trkpt lat="45.7130871" lon="10.25287"><ele>496.0</ele><time>2026-05-02T09:24:35.81Z</time></trkpt><trkpt lat="45.7131562" lon="10.2528322"><ele>496.0</ele><time>2026-05-02T09:24:36.81Z</time></trkpt><trkpt lat="45.7132248" lon="10.2528504"><ele>496.0</ele><time>2026-05-02T09:24:37.81Z</time></trkpt><trkpt lat="45.7132874" lon="10.2529207"><ele>496.00000000000006</ele><time>2026-05-02T09:24:38.81Z</time></trkpt><trkpt lat="45.7133379" lon="10.2530382"><ele>496.0</ele><time>2026-05-02T09:24:39.81Z</time></trkpt><trkpt lat="45.7133225" lon="10.2534727"><ele>496.0</ele><time>2026-05-02T09:24:41.81Z</time></trkpt><trkpt lat="45.713292" lon="10.2537953"><ele>496.0</ele><time>2026-05-02T09:24:42.81Z</time></trkpt><trkpt lat="45.7133016" lon="10.2541188"><ele>500.0</ele><time>2026-05-02T09:24:43.81Z</time></trkpt><trkpt lat="45.7133568" lon="10.2544481"><ele>504.0</ele><time>2026-05-02T09:24:44.81Z</time></trkpt><trkpt lat="45.7134521" lon="10.2547565"><ele>502.66666666666663</ele><time>2026-05-02T09:24:45.81Z</time></trkpt><trkpt lat="45.7135627" lon="10.2550257"><ele>501.3333333333333</ele><time>2026-05-02T09:24:46.81Z</time></trkpt><trkpt lat="45.7136846" lon="10.2552544"><ele>500.0</ele><time>2026-05-02T09:24:47.81Z</time></trkpt><trkpt lat="45.7138215" lon="10.255432"><ele>506.3333333333333</ele><time>2026-05-02T09:24:48.81Z</time></trkpt><trkpt lat="45.7139847" lon="10.2555482"><ele>512.6666666666666</ele><time>2026-05-02T09:24:49.81Z</time></trkpt><trkpt lat="45.7141678" lon="10.2555995"><ele>519.0</ele><time>2026-05-02T09:24:50.81Z</time></trkpt><trkpt lat="45.7143284" lon="10.2556355"><ele>524.6</ele><time>2026-05-02T09:24:51.81Z</time></trkpt><trkpt lat="45.7144559" lon="10.2556792"><ele>530.2</ele><time>2026-05-02T09:24:52.81Z</time></trkpt><trkpt lat="45.7145425" lon="10.2557608"><ele>535.8000000000001</ele><time>2026-05-02T09:24:53.81Z</time></trkpt><trkpt lat="45.7145844" lon="10.2558771"><ele>541.4</ele><time>2026-05-02T09:24:54.81Z</time></trkpt><trkpt lat="45.7145587" lon="10.25599"><ele>547.0</ele><time>2026-05-02T09:24:55.81Z</time></trkpt><trkpt lat="45.7145" lon="10.2561106"><ele>547.0</ele><time>2026-05-02T09:24:56.81Z</time></trkpt><trkpt lat="45.7144407" lon="10.2562366"><ele>547.0</ele><time>2026-05-02T09:24:57.81Z</time></trkpt><trkpt lat="45.7143954" lon="10.2563704"><ele>547.0</ele><time>2026-05-02T09:24:58.81Z</time></trkpt><trkpt lat="45.7143678" lon="10.2564919"><ele>547.0</ele><time>2026-05-02T09:24:59.81Z</time></trkpt><trkpt lat="45.7143716" lon="10.2566021"><ele>547.0</ele><time>2026-05-02T09:25:00.81Z</time></trkpt><trkpt lat="45.7144074" lon="10.2566857"><ele>547.0</ele><time>2026-05-02T09:25:01.81Z</time></trkpt><trkpt lat="45.7144848" lon="10.2567604"><ele>546.5</ele><time>2026-05-02T09:25:02.81Z</time></trkpt><trkpt lat="45.7145706" lon="10.2568516"><ele>546.0</ele><time>2026-05-02T09:25:03.81Z</time></trkpt><trkpt lat="45.7146681" lon="10.2569662"><ele>545.5</ele><time>2026-05-02T09:25:04.81Z</time></trkpt><trkpt lat="45.7147877" lon="10.2570883"><ele>545.0</ele><time>2026-05-02T09:25:05.81Z</time></trkpt><trkpt lat="45.7149562" lon="10.2572074"><ele>547.0</ele><time>2026-05-02T09:25:06.81Z</time></trkpt><trkpt lat="45.7151359" lon="10.2573544"><ele>549.0</ele><time>2026-05-02T09:25:07.81Z</time></trkpt><trkpt lat="45.7153156" lon="10.257526"><ele>551.0</ele><time>2026-05-02T09:25:08.81Z</time></trkpt><trkpt lat="45.7154929" lon="10.2577232"><ele>551.0</ele><time>2026-05-02T09:25:09.81Z</time></trkpt><trkpt lat="45.7156647" lon="10.2579143"><ele>551.0</ele><time>2026-05-02T09:25:10.81Z</time></trkpt><trkpt lat="45.7158048" lon="10.2581173"><ele>551.0</ele><time>2026-05-02T09:25:11.81Z</time></trkpt><trkpt lat="45.7159294" lon="10.2583149"><ele>547.6666666666666</ele><time>2026-05-02T09:25:12.81Z</time></trkpt><trkpt lat="45.71601" lon="10.2585339"><ele>544.3333333333334</ele><time>2026-05-02T09:25:13.81Z</time></trkpt><trkpt lat="45.7160332" lon="10.2587969"><ele>541.0</ele><time>2026-05-02T09:25:14.81Z</time></trkpt><trkpt lat="45.716026" lon="10.2590533"><ele>541.0</ele><time>2026-05-02T09:25:15.81Z</time></trkpt><trkpt lat="45.7159763" lon="10.2592833"><ele>541.0</ele><time>2026-05-02T09:25:16.81Z</time></trkpt><trkpt lat="45.7158966" lon="10.2595011"><ele>541.0</ele><time>2026-05-02T09:25:17.81Z</time></trkpt><trkpt lat="45.7158265" lon="10.2597128"><ele>542.6666666666667</ele><time>2026-05-02T09:25:18.81Z</time></trkpt><trkpt lat="45.7157754" lon="10.2599396"><ele>544.3333333333334</ele><time>2026-05-02T09:25:19.81Z</time></trkpt><trkpt lat="45.7157761" lon="10.2601754"><ele>546.0</ele><time>2026-05-02T09:25:20.81Z</time></trkpt><trkpt lat="45.7158318" lon="10.2604258"><ele>542.0</ele><time>2026-05-02T09:25:21.81Z</time></trkpt><trkpt lat="45.7159556" lon="10.2606966"><ele>538.0</ele><time>2026-05-02T09:25:22.81Z</time></trkpt><trkpt lat="45.7161013" lon="10.2609872"><ele>553.0</ele><time>2026-05-02T09:25:23.81Z</time></trkpt><trkpt lat="45.7162292" lon="10.2612838"><ele>568.0</ele><time>2026-05-02T09:25:24.81Z</time></trkpt><trkpt lat="45.7163474" lon="10.2615849"><ele>568.0</ele><time>2026-05-02T09:25:25.81Z</time></trkpt><trkpt lat="45.7164616" lon="10.2618665"><ele>568.0</ele><time>2026-05-02T09:25:26.81Z</time></trkpt><trkpt lat="45.7165696" lon="10.2621384"><ele>568.0</ele><time>2026-05-02T09:25:27.81Z</time></trkpt><trkpt lat="45.7166477" lon="10.2624069"><ele>566.3333333333334</ele><time>2026-05-02T09:25:28.81Z</time></trkpt><trkpt lat="45.7167005" lon="10.2626675"><ele>564.6666666666666</ele><time>2026-05-02T09:25:29.81Z</time></trkpt><trkpt lat="45.7167345" lon="10.262911"><ele>563.0</ele><time>2026-05-02T09:25:30.81Z</time></trkpt><trkpt lat="45.7167808" lon="10.2631366"><ele>560.3333333333333</ele><time>2026-05-02T09:25:31.81Z</time></trkpt><trkpt lat="45.7168671" lon="10.2633405"><ele>557.6666666666666</ele><time>2026-05-02T09:25:32.81Z</time></trkpt><trkpt lat="45.7169868" lon="10.2635168"><ele>555.0</ele><time>2026-05-02T09:25:33.81Z</time></trkpt><trkpt lat="45.7171323" lon="10.2636841"><ele>560.0</ele><time>2026-05-02T09:25:34.81Z</time></trkpt><trkpt lat="45.7172753" lon="10.2638447"><ele>565.0</ele><time>2026-05-02T09:25:35.81Z</time></trkpt><trkpt lat="45.7174029" lon="10.2639998"><ele>570.0</ele><time>2026-05-02T09:25:36.81Z</time></trkpt><trkpt lat="45.7174907" lon="10.2641513"><ele>570.0</ele><time>2026-05-02T09:25:37.81Z</time></trkpt><trkpt lat="45.7175571" lon="10.26428"><ele>570.0</ele><time>2026-05-02T09:25:38.81Z</time></trkpt><trkpt lat="45.7176186" lon="10.2643618"><ele>570.0</ele><time>2026-05-02T09:25:39.81Z</time></trkpt><trkpt lat="45.7176841" lon="10.2643923"><ele>570.0</ele><time>2026-05-02T09:25:40.81Z</time></trkpt><trkpt lat="45.7177448" lon="10.2643682"><ele>570.0</ele><time>2026-05-02T09:25:41.81Z</time></trkpt><trkpt lat="45.7177642" lon="10.264165"><ele>570.0</ele><time>2026-05-02T09:25:43.81Z</time></trkpt><trkpt lat="45.7176965" lon="10.2640004"><ele>570.0</ele><time>2026-05-02T09:25:44.81Z</time></trkpt><trkpt lat="45.7175723" lon="10.2637615"><ele>570.0</ele><time>2026-05-02T09:25:45.81Z</time></trkpt><trkpt lat="45.7173915" lon="10.2634635"><ele>577.0</ele><time>2026-05-02T09:25:46.81Z</time></trkpt><trkpt lat="45.7172139" lon="10.2632073"><ele>584.0</ele><time>2026-05-02T09:25:47.81Z</time></trkpt><trkpt lat="45.7170693" lon="10.2629958"><ele>586.8</ele><time>2026-05-02T09:25:48.81Z</time></trkpt><trkpt lat="45.7169815" lon="10.2628313"><ele>589.5999999999999</ele><time>2026-05-02T09:25:49.81Z</time></trkpt><trkpt lat="45.7169583" lon="10.2627039"><ele>592.4</ele><time>2026-05-02T09:25:50.809Z</time></trkpt><trkpt lat="45.716974" lon="10.2626123"><ele>595.1999999999999</ele><time>2026-05-02T09:25:51.809Z</time></trkpt><trkpt lat="45.717082" lon="10.262602"><ele>598.0</ele><time>2026-05-02T09:25:53.809Z</time></trkpt><trkpt lat="45.7171601" lon="10.2626969"><ele>598.0</ele><time>2026-05-02T09:25:54.809Z</time></trkpt><trkpt lat="45.7172586" lon="10.2628917"><ele>598.0</ele><time>2026-05-02T09:25:55.809Z</time></trkpt><trkpt lat="45.7173742" lon="10.2631487"><ele>598.0</ele><time>2026-05-02T09:25:56.809Z</time></trkpt><trkpt lat="45.7175169" lon="10.2634342"><ele>600.5</ele><time>2026-05-02T09:25:57.809Z</time></trkpt><trkpt lat="45.7176821" lon="10.2637008"><ele>603.0</ele><time>2026-05-02T09:25:58.809Z</time></trkpt><trkpt lat="45.7178439" lon="10.2639524"><ele>603.0</ele><time>2026-05-02T09:25:59.809Z</time></trkpt><trkpt lat="45.7179954" lon="10.2641798"><ele>603.0</ele><time>2026-05-02T09:26:00.809Z</time></trkpt><trkpt lat="45.7181222" lon="10.2644256"><ele>603.0</ele><time>2026-05-02T09:26:01.809Z</time></trkpt><trkpt lat="45.7182535" lon="10.2646475"><ele>597.6666666666666</ele><time>2026-05-02T09:26:02.809Z</time></trkpt><trkpt lat="45.718395" lon="10.2648364"><ele>592.3333333333333</ele><time>2026-05-02T09:26:03.809Z</time></trkpt><trkpt lat="45.7185466" lon="10.2649767"><ele>587.0</ele><time>2026-05-02T09:26:04.809Z</time></trkpt><trkpt lat="45.7186949" lon="10.2650898"><ele>594.2</ele><time>2026-05-02T09:26:05.809Z</time></trkpt><trkpt lat="45.7188212" lon="10.2651764"><ele>601.4000000000001</ele><time>2026-05-02T09:26:06.809Z</time></trkpt><trkpt lat="45.7188942" lon="10.2652874"><ele>608.5999999999999</ele><time>2026-05-02T09:26:07.809Z</time></trkpt><trkpt lat="45.718938" lon="10.2653899"><ele>615.8</ele><time>2026-05-02T09:26:08.809Z</time></trkpt><trkpt lat="45.7189385" lon="10.2655041"><ele>623.0</ele><time>2026-05-02T09:26:09.809Z</time></trkpt><trkpt lat="45.7189038" lon="10.2655961"><ele>620.5</ele><time>2026-05-02T09:26:10.809Z</time></trkpt><trkpt lat="45.7188221" lon="10.2656595"><ele>618.0</ele><time>2026-05-02T09:26:11.809Z</time></trkpt><trkpt lat="45.718694" lon="10.2656801"><ele>615.5</ele><time>2026-05-02T09:26:12.809Z</time></trkpt><trkpt lat="45.7185237" lon="10.2656818"><ele>613.0</ele><time>2026-05-02T09:26:13.809Z</time></trkpt><trkpt lat="45.7183728" lon="10.2657039"><ele>609.5</ele><time>2026-05-02T09:26:14.809Z</time></trkpt><trkpt lat="45.7182521" lon="10.2657675"><ele>606.0</ele><time>2026-05-02T09:26:15.809Z</time></trkpt><trkpt lat="45.7181566" lon="10.2658999"><ele>602.5</ele><time>2026-05-02T09:26:16.809Z</time></trkpt><trkpt lat="45.7180825" lon="10.2660602"><ele>599.0</ele><time>2026-05-02T09:26:17.809Z</time></trkpt><trkpt lat="45.7180277" lon="10.2662298"><ele>599.0</ele><time>2026-05-02T09:26:18.809Z</time></trkpt><trkpt lat="45.717993" lon="10.2663981"><ele>599.0</ele><time>2026-05-02T09:26:19.809Z</time></trkpt><trkpt lat="45.7179543" lon="10.2665659"><ele>599.0</ele><time>2026-05-02T09:26:20.809Z</time></trkpt><trkpt lat="45.7179137" lon="10.2667295"><ele>599.0</ele><time>2026-05-02T09:26:21.809Z</time></trkpt><trkpt lat="45.7178634" lon="10.2668807"><ele>599.8</ele><time>2026-05-02T09:26:22.809Z</time></trkpt><trkpt lat="45.7177962" lon="10.267026"><ele>600.5999999999999</ele><time>2026-05-02T09:26:23.809Z</time></trkpt><trkpt lat="45.7177259" lon="10.2671626"><ele>601.4</ele><time>2026-05-02T09:26:24.809Z</time></trkpt><trkpt lat="45.7176604" lon="10.2672862"><ele>602.1999999999999</ele><time>2026-05-02T09:26:25.809Z</time></trkpt><trkpt lat="45.7176145" lon="10.2674096"><ele>603.0</ele><time>2026-05-02T09:26:26.809Z</time></trkpt><trkpt lat="45.7175999" lon="10.2675475"><ele>605.25</ele><time>2026-05-02T09:26:27.809Z</time></trkpt><trkpt lat="45.7176177" lon="10.2676901"><ele>607.5</ele><time>2026-05-02T09:26:28.809Z</time></trkpt><trkpt lat="45.7176756" lon="10.2678305"><ele>609.75</ele><time>2026-05-02T09:26:29.809Z</time></trkpt><trkpt lat="45.7177611" lon="10.2679711"><ele>612.0</ele><time>2026-05-02T09:26:30.809Z</time></trkpt><trkpt lat="45.7178677" lon="10.2681145"><ele>612.0</ele><time>2026-05-02T09:26:31.809Z</time></trkpt><trkpt lat="45.7179757" lon="10.2682476"><ele>612.0</ele><time>2026-05-02T09:26:32.809Z</time></trkpt><trkpt lat="45.718081" lon="10.2683678"><ele>612.0</ele><time>2026-05-02T09:26:33.809Z</time></trkpt><trkpt lat="45.7181679" lon="10.2684861"><ele>612.0</ele><time>2026-05-02T09:26:34.809Z</time></trkpt><trkpt lat="45.7182193" lon="10.2686126"><ele>612.0</ele><time>2026-05-02T09:26:35.809Z</time></trkpt><trkpt lat="45.7182213" lon="10.2687424"><ele>612.0</ele><time>2026-05-02T09:26:36.809Z</time></trkpt><trkpt lat="45.7181947" lon="10.2688552"><ele>612.0</ele><time>2026-05-02T09:26:37.809Z</time></trkpt><trkpt lat="45.7181275" lon="10.268927"><ele>612.0</ele><time>2026-05-02T09:26:38.809Z</time></trkpt><trkpt lat="45.7180158" lon="10.2689844"><ele>612.0</ele><time>2026-05-02T09:26:39.809Z</time></trkpt><trkpt lat="45.7178801" lon="10.2690505"><ele>610.75</ele><time>2026-05-02T09:26:40.809Z</time></trkpt><trkpt lat="45.7177341" lon="10.2691501"><ele>609.5</ele><time>2026-05-02T09:26:41.809Z</time></trkpt><trkpt lat="45.7176264" lon="10.2692937"><ele>608.25</ele><time>2026-05-02T09:26:42.809Z</time></trkpt><trkpt lat="45.717583" lon="10.2694779"><ele>607.0</ele><time>2026-05-02T09:26:43.809Z</time></trkpt><trkpt lat="45.7175903" lon="10.269683"><ele>610.4</ele><time>2026-05-02T09:26:44.809Z</time></trkpt><trkpt lat="45.7176137" lon="10.2698739"><ele>613.8000000000001</ele><time>2026-05-02T09:26:45.809Z</time></trkpt><trkpt lat="45.7176171" lon="10.2700378"><ele>617.2</ele><time>2026-05-02T09:26:46.809Z</time></trkpt><trkpt lat="45.7175895" lon="10.2701655"><ele>620.6</ele><time>2026-05-02T09:26:47.809Z</time></trkpt><trkpt lat="45.717538" lon="10.270243"><ele>624.0</ele><time>2026-05-02T09:26:48.809Z</time></trkpt><trkpt lat="45.7174736" lon="10.2702739"><ele>624.0</ele><time>2026-05-02T09:26:49.809Z</time></trkpt><trkpt lat="45.717392" lon="10.2702686"><ele>624.0</ele><time>2026-05-02T09:26:50.809Z</time></trkpt><trkpt lat="45.7172845" lon="10.2701872"><ele>624.0</ele><time>2026-05-02T09:26:51.809Z</time></trkpt><trkpt lat="45.7171436" lon="10.2700067"><ele>624.0</ele><time>2026-05-02T09:26:52.809Z</time></trkpt><trkpt lat="45.7170137" lon="10.2698768"><ele>621.75</ele><time>2026-05-02T09:26:53.809Z</time></trkpt><trkpt lat="45.7168761" lon="10.2697983"><ele>619.5</ele><time>2026-05-02T09:26:54.809Z</time></trkpt><trkpt lat="45.7167545" lon="10.269783"><ele>617.25</ele><time>2026-05-02T09:26:55.809Z</time></trkpt><trkpt lat="45.7166362" lon="10.2698485"><ele>615.0</ele><time>2026-05-02T09:26:56.809Z</time></trkpt><trkpt lat="45.7165255" lon="10.2699594"><ele>615.0</ele><time>2026-05-02T09:26:57.809Z</time></trkpt><trkpt lat="45.7164172" lon="10.2701187"><ele>615.0</ele><time>2026-05-02T09:26:58.809Z</time></trkpt><trkpt lat="45.7163049" lon="10.2703796"><ele>615.0</ele><time>2026-05-02T09:26:59.809Z</time></trkpt><trkpt lat="45.7162042" lon="10.270623"><ele>620.0</ele><time>2026-05-02T09:27:00.809Z</time></trkpt><trkpt lat="45.716122" lon="10.2708785"><ele>625.0</ele><time>2026-05-02T09:27:01.809Z</time></trkpt><trkpt lat="45.7160838" lon="10.2710838"><ele>630.0</ele><time>2026-05-02T09:27:02.809Z</time></trkpt><trkpt lat="45.7161102" lon="10.2712297"><ele>630.0</ele><time>2026-05-02T09:27:03.809Z</time></trkpt><trkpt lat="45.7161982" lon="10.2712898"><ele>630.0</ele><time>2026-05-02T09:27:04.809Z</time></trkpt><trkpt lat="45.7163044" lon="10.2712692"><ele>630.0</ele><time>2026-05-02T09:27:05.809Z</time></trkpt><trkpt lat="45.7164114" lon="10.2711507"><ele>630.0</ele><time>2026-05-02T09:27:06.809Z</time></trkpt><trkpt lat="45.7165211" lon="10.2709185"><ele>630.0</ele><time>2026-05-02T09:27:07.809Z</time></trkpt><trkpt lat="45.7166065" lon="10.2706668"><ele>630.0</ele><time>2026-05-02T09:27:08.809Z</time></trkpt><trkpt lat="45.7166866" lon="10.270479"><ele>630.0</ele><time>2026-05-02T09:27:09.809Z</time></trkpt><trkpt lat="45.7167686" lon="10.2703553"><ele>629.0</ele><time>2026-05-02T09:27:10.809Z</time></trkpt><trkpt lat="45.7168538" lon="10.2703088"><ele>628.0</ele><time>2026-05-02T09:27:11.809Z</time></trkpt><trkpt lat="45.7169283" lon="10.2703386"><ele>627.0</ele><time>2026-05-02T09:27:12.809Z</time></trkpt><trkpt lat="45.7169809" lon="10.2704149"><ele>626.0</ele><time>2026-05-02T09:27:13.809Z</time></trkpt><trkpt lat="45.7170045" lon="10.2705178"><ele>625.0</ele><time>2026-05-02T09:27:14.809Z</time></trkpt><trkpt lat="45.7169844" lon="10.2706654"><ele>624.0</ele><time>2026-05-02T09:27:15.809Z</time></trkpt><trkpt lat="45.7169031" lon="10.2708673"><ele>627.0</ele><time>2026-05-02T09:27:16.809Z</time></trkpt><trkpt lat="45.7167733" lon="10.2710959"><ele>630.0</ele><time>2026-05-02T09:27:17.809Z</time></trkpt><trkpt lat="45.7166203" lon="10.2713873"><ele>636.0</ele><time>2026-05-02T09:27:18.809Z</time></trkpt><trkpt lat="45.7164983" lon="10.2717031"><ele>642.0</ele><time>2026-05-02T09:27:19.809Z</time></trkpt><trkpt lat="45.7164395" lon="10.2720162"><ele>643.0</ele><time>2026-05-02T09:27:20.809Z</time></trkpt><trkpt lat="45.7164459" lon="10.2723276"><ele>644.0</ele><time>2026-05-02T09:27:21.809Z</time></trkpt><trkpt lat="45.716502" lon="10.2726229"><ele>645.0</ele><time>2026-05-02T09:27:22.809Z</time></trkpt><trkpt lat="45.7165958" lon="10.2728952"><ele>645.0</ele><time>2026-05-02T09:27:23.809Z</time></trkpt><trkpt lat="45.7167066" lon="10.2731443"><ele>645.0</ele><time>2026-05-02T09:27:24.809Z</time></trkpt><trkpt lat="45.7168203" lon="10.2733749"><ele>645.0</ele><time>2026-05-02T09:27:25.809Z</time></trkpt><trkpt lat="45.7169257" lon="10.2735894"><ele>653.3333333333334</ele><time>2026-05-02T09:27:26.809Z</time></trkpt><trkpt lat="45.7170204" lon="10.2737924"><ele>661.6666666666667</ele><time>2026-05-02T09:27:27.809Z</time></trkpt><trkpt lat="45.7170936" lon="10.273994"><ele>670.0</ele><time>2026-05-02T09:27:28.809Z</time></trkpt><trkpt lat="45.7171574" lon="10.2741917"><ele>670.0</ele><time>2026-05-02T09:27:29.809Z</time></trkpt><trkpt lat="45.7171915" lon="10.274387"><ele>670.0</ele><time>2026-05-02T09:27:30.809Z</time></trkpt><trkpt lat="45.7172105" lon="10.2745583"><ele>670.0</ele><time>2026-05-02T09:27:31.809Z</time></trkpt><trkpt lat="45.7172043" lon="10.2747048"><ele>670.0</ele><time>2026-05-02T09:27:32.809Z</time></trkpt><trkpt lat="45.7171793" lon="10.2748201"><ele>670.0</ele><time>2026-05-02T09:27:33.809Z</time></trkpt><trkpt lat="45.7171583" lon="10.2749145"><ele>669.6</ele><time>2026-05-02T09:27:34.809Z</time></trkpt><trkpt lat="45.717139" lon="10.2750254"><ele>669.2</ele><time>2026-05-02T09:27:35.809Z</time></trkpt><trkpt lat="45.717107" lon="10.2751444"><ele>668.8</ele><time>2026-05-02T09:27:36.809Z</time></trkpt><trkpt lat="45.7170588" lon="10.2752725"><ele>668.4</ele><time>2026-05-02T09:27:37.809Z</time></trkpt><trkpt lat="45.7169962" lon="10.2754149"><ele>668.0</ele><time>2026-05-02T09:27:38.809Z</time></trkpt><trkpt lat="45.716931" lon="10.2755642"><ele>666.0</ele><time>2026-05-02T09:27:39.809Z</time></trkpt><trkpt lat="45.7168682" lon="10.2757193"><ele>664.0</ele><time>2026-05-02T09:27:40.809Z</time></trkpt><trkpt lat="45.7168187" lon="10.2758868"><ele>662.0</ele><time>2026-05-02T09:27:41.809Z</time></trkpt><trkpt lat="45.7167623" lon="10.2760388"><ele>660.0</ele><time>2026-05-02T09:27:42.809Z</time></trkpt><trkpt lat="45.7167257" lon="10.2761852"><ele>660.0</ele><time>2026-05-02T09:27:43.809Z</time></trkpt><trkpt lat="45.7167141" lon="10.2763238"><ele>660.0</ele><time>2026-05-02T09:27:44.809Z</time></trkpt><trkpt lat="45.7167483" lon="10.276437"><ele>660.0</ele><time>2026-05-02T09:27:45.809Z</time></trkpt><trkpt lat="45.7168157" lon="10.2765206"><ele>660.0</ele><time>2026-05-02T09:27:46.809Z</time></trkpt><trkpt lat="45.7169032" lon="10.2765547"><ele>660.0</ele><time>2026-05-02T09:27:47.809Z</time></trkpt><trkpt lat="45.7170028" lon="10.2765343"><ele>664.3333333333334</ele><time>2026-05-02T09:27:48.809Z</time></trkpt><trkpt lat="45.7171221" lon="10.2764613"><ele>668.6666666666667</ele><time>2026-05-02T09:27:49.809Z</time></trkpt><trkpt lat="45.7172535" lon="10.2763308"><ele>673.0</ele><time>2026-05-02T09:27:50.809Z</time></trkpt><trkpt lat="45.7173959" lon="10.2761282"><ele>673.0</ele><time>2026-05-02T09:27:51.809Z</time></trkpt><trkpt lat="45.7175428" lon="10.2759036"><ele>673.0</ele><time>2026-05-02T09:27:52.809Z</time></trkpt><trkpt lat="45.7176673" lon="10.2756712"><ele>673.0</ele><time>2026-05-02T09:27:53.809Z</time></trkpt><trkpt lat="45.7177759" lon="10.275461"><ele>681.0</ele><time>2026-05-02T09:27:54.809Z</time></trkpt><trkpt lat="45.7178589" lon="10.2752268"><ele>689.0</ele><time>2026-05-02T09:27:55.809Z</time></trkpt><trkpt lat="45.717901" lon="10.2749698"><ele>697.0</ele><time>2026-05-02T09:27:56.809Z</time></trkpt><trkpt lat="45.717926" lon="10.2747148"><ele>700.6666666666667</ele><time>2026-05-02T09:27:57.809Z</time></trkpt><trkpt lat="45.7179034" lon="10.2744372"><ele>704.3333333333334</ele><time>2026-05-02T09:27:58.809Z</time></trkpt><trkpt lat="45.717826" lon="10.2741547"><ele>708.0</ele><time>2026-05-02T09:27:59.809Z</time></trkpt><trkpt lat="45.7177246" lon="10.2738685"><ele>697.3333333333334</ele><time>2026-05-02T09:28:00.809Z</time></trkpt><trkpt lat="45.7176318" lon="10.2735854"><ele>686.6666666666667</ele><time>2026-05-02T09:28:01.809Z</time></trkpt><trkpt lat="45.717562" lon="10.2733283"><ele>676.0</ele><time>2026-05-02T09:28:02.809Z</time></trkpt><trkpt lat="45.7175166" lon="10.2730816"><ele>676.0</ele><time>2026-05-02T09:28:03.809Z</time></trkpt><trkpt lat="45.7174756" lon="10.2728637"><ele>676.0</ele><time>2026-05-02T09:28:04.809Z</time></trkpt><trkpt lat="45.7174562" lon="10.2726734"><ele>676.0</ele><time>2026-05-02T09:28:05.809Z</time></trkpt><trkpt lat="45.7174781" lon="10.2724973"><ele>676.0</ele><time>2026-05-02T09:28:06.809Z</time></trkpt><trkpt lat="45.717533" lon="10.2723301"><ele>677.5</ele><time>2026-05-02T09:28:07.809Z</time></trkpt><trkpt lat="45.7176242" lon="10.2721783"><ele>679.0</ele><time>2026-05-02T09:28:08.809Z</time></trkpt><trkpt lat="45.7177262" lon="10.2720415"><ele>680.5</ele><time>2026-05-02T09:28:09.809Z</time></trkpt><trkpt lat="45.7178186" lon="10.2719305"><ele>682.0</ele><time>2026-05-02T09:28:10.809Z</time></trkpt><trkpt lat="45.7179022" lon="10.271851"><ele>682.0</ele><time>2026-05-02T09:28:11.809Z</time></trkpt><trkpt lat="45.7179834" lon="10.2718186"><ele>682.0</ele><time>2026-05-02T09:28:12.809Z</time></trkpt><trkpt lat="45.718049" lon="10.2718375"><ele>682.0</ele><time>2026-05-02T09:28:13.809Z</time></trkpt><trkpt lat="45.7180946" lon="10.271972"><ele>682.0</ele><time>2026-05-02T09:28:15.809Z</time></trkpt><trkpt lat="45.7180394" lon="10.272088"><ele>682.0</ele><time>2026-05-02T09:28:16.809Z</time></trkpt><trkpt lat="45.7179523" lon="10.272252"><ele>687.6666666666667</ele><time>2026-05-02T09:28:17.809Z</time></trkpt><trkpt lat="45.7178578" lon="10.2724596"><ele>693.3333333333334</ele><time>2026-05-02T09:28:18.809Z</time></trkpt><trkpt lat="45.7177783" lon="10.2727164"><ele>699.0</ele><time>2026-05-02T09:28:19.809Z</time></trkpt><trkpt lat="45.7177436" lon="10.2730075"><ele>704.5</ele><time>2026-05-02T09:28:20.809Z</time></trkpt><trkpt lat="45.7177655" lon="10.2733512"><ele>710.0</ele><time>2026-05-02T09:28:21.809Z</time></trkpt><trkpt lat="45.7178445" lon="10.2736837"><ele>709.0</ele><time>2026-05-02T09:28:22.809Z</time></trkpt><trkpt lat="45.71796" lon="10.2739777"><ele>708.0</ele><time>2026-05-02T09:28:23.809Z</time></trkpt><trkpt lat="45.7182015" lon="10.274431"><ele>708.0</ele><time>2026-05-02T09:28:25.809Z</time></trkpt><trkpt lat="45.7183281" lon="10.2745949"><ele>708.0</ele><time>2026-05-02T09:28:26.809Z</time></trkpt><trkpt lat="45.7184629" lon="10.2747066"><ele>708.0</ele><time>2026-05-02T09:28:27.809Z</time></trkpt><trkpt lat="45.7185837" lon="10.2748301"><ele>712.75</ele><time>2026-05-02T09:28:28.809Z</time></trkpt><trkpt lat="45.7186823" lon="10.2749835"><ele>717.5</ele><time>2026-05-02T09:28:29.809Z</time></trkpt><trkpt lat="45.7187419" lon="10.2751656"><ele>722.25</ele><time>2026-05-02T09:28:30.809Z</time></trkpt><trkpt lat="45.718761" lon="10.2753512"><ele>727.0</ele><time>2026-05-02T09:28:31.809Z</time></trkpt><trkpt lat="45.7187505" lon="10.2755383"><ele>725.5</ele><time>2026-05-02T09:28:32.809Z</time></trkpt><trkpt lat="45.7187242" lon="10.2757165"><ele>724.0</ele><time>2026-05-02T09:28:33.809Z</time></trkpt><trkpt lat="45.7187266" lon="10.2758884"><ele>722.5</ele><time>2026-05-02T09:28:34.809Z</time></trkpt><trkpt lat="45.7187752" lon="10.2760494"><ele>721.0</ele><time>2026-05-02T09:28:35.809Z</time></trkpt><trkpt lat="45.7188271" lon="10.2762186"><ele>721.0</ele><time>2026-05-02T09:28:36.809Z</time></trkpt><trkpt lat="45.7188808" lon="10.276398"><ele>721.0</ele><time>2026-05-02T09:28:37.809Z</time></trkpt><trkpt lat="45.7189414" lon="10.2765745"><ele>721.0</ele><time>2026-05-02T09:28:38.809Z</time></trkpt><trkpt lat="45.7189984" lon="10.2767587"><ele>721.0</ele><time>2026-05-02T09:28:39.809Z</time></trkpt><trkpt lat="45.7190574" lon="10.276941"><ele>719.6666666666667</ele><time>2026-05-02T09:28:40.809Z</time></trkpt><trkpt lat="45.719114" lon="10.2771113"><ele>718.3333333333334</ele><time>2026-05-02T09:28:41.809Z</time></trkpt><trkpt lat="45.7191734" lon="10.2774571"><ele>717.0</ele><time>2026-05-02T09:28:43.809Z</time></trkpt><trkpt lat="45.7191593" lon="10.2776246"><ele>717.0</ele><time>2026-05-02T09:28:44.809Z</time></trkpt><trkpt lat="45.7191222" lon="10.2777882"><ele>717.0</ele><time>2026-05-02T09:28:45.809Z</time></trkpt><trkpt lat="45.7190621" lon="10.2779344"><ele>717.0</ele><time>2026-05-02T09:28:46.809Z</time></trkpt><trkpt lat="45.7189627" lon="10.2781911"><ele>717.0</ele><time>2026-05-02T09:28:48.809Z</time></trkpt><trkpt lat="45.7189137" lon="10.2783097"><ele>718.4000000000001</ele><time>2026-05-02T09:28:49.809Z</time></trkpt><trkpt lat="45.7188694" lon="10.2784183"><ele>719.8000000000001</ele><time>2026-05-02T09:28:50.809Z</time></trkpt><trkpt lat="45.7188238" lon="10.2785285"><ele>721.2</ele><time>2026-05-02T09:28:51.809Z</time></trkpt><trkpt lat="45.718774" lon="10.2786324"><ele>722.6</ele><time>2026-05-02T09:28:52.809Z</time></trkpt><trkpt lat="45.7187039" lon="10.2787192"><ele>724.0</ele><time>2026-05-02T09:28:53.809Z</time></trkpt><trkpt lat="45.7186191" lon="10.2788099"><ele>723.8333333333334</ele><time>2026-05-02T09:28:54.809Z</time></trkpt><trkpt lat="45.718555" lon="10.2789088"><ele>723.6666666666667</ele><time>2026-05-02T09:28:55.809Z</time></trkpt><trkpt lat="45.7184927" lon="10.2789891"><ele>723.5</ele><time>2026-05-02T09:28:56.809Z</time></trkpt><trkpt lat="45.7184331" lon="10.2790614"><ele>723.3333333333334</ele><time>2026-05-02T09:28:57.809Z</time></trkpt><trkpt lat="45.7183694" lon="10.2791182"><ele>723.1666666666666</ele><time>2026-05-02T09:28:58.809Z</time></trkpt><trkpt lat="45.7182984" lon="10.2791722"><ele>723.0</ele><time>2026-05-02T09:28:59.809Z</time></trkpt><trkpt lat="45.7182078" lon="10.2792229"><ele>723.0</ele><time>2026-05-02T09:29:00.809Z</time></trkpt><trkpt lat="45.7180778" lon="10.2792514"><ele>723.0</ele><time>2026-05-02T09:29:01.809Z</time></trkpt><trkpt lat="45.7179252" lon="10.2792856"><ele>723.0</ele><time>2026-05-02T09:29:02.809Z</time></trkpt><trkpt lat="45.7177769" lon="10.2793342"><ele>723.0</ele><time>2026-05-02T09:29:03.809Z</time></trkpt><trkpt lat="45.7176402" lon="10.2793774"><ele>722.5</ele><time>2026-05-02T09:29:04.809Z</time></trkpt><trkpt lat="45.7175138" lon="10.2794215"><ele>722.0</ele><time>2026-05-02T09:29:05.809Z</time></trkpt><trkpt lat="45.7173885" lon="10.2794604"><ele>721.5</ele><time>2026-05-02T09:29:06.809Z</time></trkpt><trkpt lat="45.7172672" lon="10.2794954"><ele>721.0</ele><time>2026-05-02T09:29:07.809Z</time></trkpt><trkpt lat="45.7171415" lon="10.2795243"><ele>721.0</ele><time>2026-05-02T09:29:08.809Z</time></trkpt><trkpt lat="45.7170241" lon="10.2795319"><ele>721.0</ele><time>2026-05-02T09:29:09.809Z</time></trkpt><trkpt lat="45.7169033" lon="10.2795204"><ele>721.0</ele><time>2026-05-02T09:29:10.809Z</time></trkpt><trkpt lat="45.7167871" lon="10.2794851"><ele>721.0</ele><time>2026-05-02T09:29:11.809Z</time></trkpt><trkpt lat="45.716679" lon="10.279433"><ele>722.1999999999999</ele><time>2026-05-02T09:29:12.809Z</time></trkpt><trkpt lat="45.7165796" lon="10.2793652"><ele>723.4</ele><time>2026-05-02T09:29:13.809Z</time></trkpt><trkpt lat="45.7164811" lon="10.2792894"><ele>724.6</ele><time>2026-05-02T09:29:14.809Z</time></trkpt><trkpt lat="45.7163887" lon="10.2792026"><ele>725.8</ele><time>2026-05-02T09:29:15.809Z</time></trkpt><trkpt lat="45.7162915" lon="10.2791129"><ele>727.0</ele><time>2026-05-02T09:29:16.809Z</time></trkpt><trkpt lat="45.7161901" lon="10.2790248"><ele>727.0</ele><time>2026-05-02T09:29:17.809Z</time></trkpt><trkpt lat="45.7160926" lon="10.278939"><ele>727.0</ele><time>2026-05-02T09:29:18.809Z</time></trkpt><trkpt lat="45.7160051" lon="10.2788608"><ele>727.0</ele><time>2026-05-02T09:29:19.809Z</time></trkpt><trkpt lat="45.7159268" lon="10.2788007"><ele>727.0</ele><time>2026-05-02T09:29:20.809Z</time></trkpt><trkpt lat="45.7158506" lon="10.2787618"><ele>727.0</ele><time>2026-05-02T09:29:21.809Z</time></trkpt><trkpt lat="45.7157686" lon="10.2787555"><ele>725.1666666666667</ele><time>2026-05-02T09:29:22.809Z</time></trkpt><trkpt lat="45.7156901" lon="10.278753"><ele>723.3333333333334</ele><time>2026-05-02T09:29:23.809Z</time></trkpt><trkpt lat="45.7156239" lon="10.2787529"><ele>721.5</ele><time>2026-05-02T09:29:24.809Z</time></trkpt><trkpt lat="45.7155175" lon="10.278763"><ele>719.6666666666666</ele><time>2026-05-02T09:29:26.809Z</time></trkpt><trkpt lat="45.7154456" lon="10.2787712"><ele>717.8333333333333</ele><time>2026-05-02T09:29:29.809Z</time></trkpt><trkpt lat="45.7154033" lon="10.2789131"><ele>716.0</ele><time>2026-05-02T10:04:07.035Z</time></trkpt><trkpt lat="45.7155082" lon="10.278615"><ele>716.0</ele><time>2026-05-02T10:17:25.464Z</time></trkpt><trkpt lat="45.7155051" lon="10.2787582"><ele>716.0</ele><time>2026-05-02T10:17:31.798Z</time></trkpt><trkpt lat="45.7154914" lon="10.2788823"><ele>716.0</ele><time>2026-05-02T10:19:19.805Z</time></trkpt><trkpt lat="45.7154797" lon="10.2790574"><ele>716.0</ele><time>2026-05-02T10:19:21.805Z</time></trkpt><trkpt lat="45.7154629" lon="10.2791935"><ele>716.0</ele><time>2026-05-02T10:19:22.805Z</time></trkpt><trkpt lat="45.7154376" lon="10.2793371"><ele>719.1999999999999</ele><time>2026-05-02T10:19:23.805Z</time></trkpt><trkpt lat="45.7154171" lon="10.2794713"><ele>722.4</ele><time>2026-05-02T10:19:24.805Z</time></trkpt><trkpt lat="45.7153873" lon="10.2796048"><ele>725.6</ele><time>2026-05-02T10:19:25.805Z</time></trkpt><trkpt lat="45.7153502" lon="10.279731"><ele>728.8</ele><time>2026-05-02T10:19:26.805Z</time></trkpt><trkpt lat="45.7152939" lon="10.2798555"><ele>732.0</ele><time>2026-05-02T10:19:27.805Z</time></trkpt><trkpt lat="45.7152246" lon="10.2799932"><ele>732.0</ele><time>2026-05-02T10:19:28.805Z</time></trkpt><trkpt lat="45.7151393" lon="10.2801396"><ele>732.0</ele><time>2026-05-02T10:19:29.805Z</time></trkpt><trkpt lat="45.7150456" lon="10.2802768"><ele>732.0</ele><time>2026-05-02T10:19:30.805Z</time></trkpt><trkpt lat="45.7149462" lon="10.2804075"><ele>732.0</ele><time>2026-05-02T10:19:31.805Z</time></trkpt><trkpt lat="45.7148483" lon="10.2805455"><ele>734.0</ele><time>2026-05-02T10:19:32.805Z</time></trkpt><trkpt lat="45.7147411" lon="10.2806972"><ele>736.0</ele><time>2026-05-02T10:19:33.805Z</time></trkpt><trkpt lat="45.714638" lon="10.2808676"><ele>738.0</ele><time>2026-05-02T10:19:34.805Z</time></trkpt><trkpt lat="45.714533" lon="10.2810364"><ele>738.0</ele><time>2026-05-02T10:19:35.805Z</time></trkpt><trkpt lat="45.7144344" lon="10.2811982"><ele>738.0</ele><time>2026-05-02T10:19:36.805Z</time></trkpt><trkpt lat="45.7143537" lon="10.2813555"><ele>738.0</ele><time>2026-05-02T10:19:37.805Z</time></trkpt><trkpt lat="45.7142943" lon="10.2815046"><ele>738.0</ele><time>2026-05-02T10:19:38.805Z</time></trkpt><trkpt lat="45.7142541" lon="10.2816518"><ele>734.75</ele><time>2026-05-02T10:19:39.805Z</time></trkpt><trkpt lat="45.7142353" lon="10.2818093"><ele>731.5</ele><time>2026-05-02T10:19:40.805Z</time></trkpt><trkpt lat="45.7142478" lon="10.2819743"><ele>728.25</ele><time>2026-05-02T10:19:41.805Z</time></trkpt><trkpt lat="45.7142982" lon="10.2821319"><ele>725.0</ele><time>2026-05-02T10:19:42.805Z</time></trkpt><trkpt lat="45.7143796" lon="10.2822805"><ele>732.0</ele><time>2026-05-02T10:19:43.805Z</time></trkpt><trkpt lat="45.7144739" lon="10.2824415"><ele>739.0</ele><time>2026-05-02T10:19:44.805Z</time></trkpt><trkpt lat="45.7145582" lon="10.2826286"><ele>746.0</ele><time>2026-05-02T10:19:45.805Z</time></trkpt><trkpt lat="45.7146251" lon="10.2828344"><ele>746.0</ele><time>2026-05-02T10:19:46.805Z</time></trkpt><trkpt lat="45.7146808" lon="10.2830422"><ele>746.0</ele><time>2026-05-02T10:19:47.805Z</time></trkpt><trkpt lat="45.7147255" lon="10.2832451"><ele>746.0</ele><time>2026-05-02T10:19:48.805Z</time></trkpt><trkpt lat="45.7147495" lon="10.283439"><ele>746.0</ele><time>2026-05-02T10:19:49.805Z</time></trkpt><trkpt lat="45.714742" lon="10.2836299"><ele>745.75</ele><time>2026-05-02T10:19:50.805Z</time></trkpt><trkpt lat="45.7146913" lon="10.2837997"><ele>745.5</ele><time>2026-05-02T10:19:51.805Z</time></trkpt><trkpt lat="45.7145948" lon="10.2839428"><ele>745.25</ele><time>2026-05-02T10:19:52.805Z</time></trkpt><trkpt lat="45.7144813" lon="10.2840713"><ele>745.0</ele><time>2026-05-02T10:19:53.805Z</time></trkpt><trkpt lat="45.7143716" lon="10.2841883"><ele>741.75</ele><time>2026-05-02T10:19:54.805Z</time></trkpt><trkpt lat="45.7142683" lon="10.2842985"><ele>738.5</ele><time>2026-05-02T10:19:55.805Z</time></trkpt><trkpt lat="45.714163" lon="10.2844084"><ele>735.25</ele><time>2026-05-02T10:19:56.805Z</time></trkpt><trkpt lat="45.7140686" lon="10.2845161"><ele>732.0</ele><time>2026-05-02T10:19:57.805Z</time></trkpt><trkpt lat="45.7139727" lon="10.2846247"><ele>732.0</ele><time>2026-05-02T10:19:58.805Z</time></trkpt><trkpt lat="45.7138764" lon="10.2847398"><ele>732.0</ele><time>2026-05-02T10:19:59.805Z</time></trkpt><trkpt lat="45.7137851" lon="10.2848673"><ele>732.0</ele><time>2026-05-02T10:20:00.805Z</time></trkpt><trkpt lat="45.713691" lon="10.2849986"><ele>732.0</ele><time>2026-05-02T10:20:01.805Z</time></trkpt><trkpt lat="45.7136052" lon="10.2851397"><ele>731.75</ele><time>2026-05-02T10:20:02.805Z</time></trkpt><trkpt lat="45.7135397" lon="10.2852894"><ele>731.5</ele><time>2026-05-02T10:20:03.805Z</time></trkpt><trkpt lat="45.7134825" lon="10.285438"><ele>731.25</ele><time>2026-05-02T10:20:04.805Z</time></trkpt><trkpt lat="45.7134246" lon="10.2855862"><ele>731.0</ele><time>2026-05-02T10:20:05.805Z</time></trkpt><trkpt lat="45.713354" lon="10.285721"><ele>733.5</ele><time>2026-05-02T10:20:06.805Z</time></trkpt><trkpt lat="45.7132579" lon="10.285829"><ele>736.0</ele><time>2026-05-02T10:20:07.805Z</time></trkpt><trkpt lat="45.7131244" lon="10.2858973"><ele>738.5</ele><time>2026-05-02T10:20:08.805Z</time></trkpt><trkpt lat="45.7129549" lon="10.28594"><ele>741.0</ele><time>2026-05-02T10:20:09.805Z</time></trkpt><trkpt lat="45.7127667" lon="10.2859677"><ele>738.0</ele><time>2026-05-02T10:20:10.805Z</time></trkpt><trkpt lat="45.7125693" lon="10.2859825"><ele>735.0</ele><time>2026-05-02T10:20:11.805Z</time></trkpt><trkpt lat="45.7123718" lon="10.2859909"><ele>732.0</ele><time>2026-05-02T10:20:12.805Z</time></trkpt><trkpt lat="45.712189" lon="10.2860254"><ele>732.0</ele><time>2026-05-02T10:20:13.805Z</time></trkpt><trkpt lat="45.712028" lon="10.2860802"><ele>732.0</ele><time>2026-05-02T10:20:14.805Z</time></trkpt><trkpt lat="45.7118921" lon="10.286171"><ele>732.0</ele><time>2026-05-02T10:20:15.805Z</time></trkpt><trkpt lat="45.7117884" lon="10.2863074"><ele>730.5</ele><time>2026-05-02T10:20:16.805Z</time></trkpt><trkpt lat="45.7117351" lon="10.2864693"><ele>729.0</ele><time>2026-05-02T10:20:17.805Z</time></trkpt><trkpt lat="45.7117263" lon="10.2866359"><ele>727.5</ele><time>2026-05-02T10:20:18.805Z</time></trkpt><trkpt lat="45.7117746" lon="10.2867739"><ele>726.0</ele><time>2026-05-02T10:20:19.805Z</time></trkpt><trkpt lat="45.7118765" lon="10.2868695"><ele>731.0</ele><time>2026-05-02T10:20:20.805Z</time></trkpt><trkpt lat="45.7119905" lon="10.2869807"><ele>736.0</ele><time>2026-05-02T10:20:21.805Z</time></trkpt><trkpt lat="45.7120839" lon="10.2871529"><ele>741.0</ele><time>2026-05-02T10:20:22.805Z</time></trkpt><trkpt lat="45.7121448" lon="10.2873667"><ele>741.0</ele><time>2026-05-02T10:20:23.805Z</time></trkpt><trkpt lat="45.7121924" lon="10.2876207"><ele>741.0</ele><time>2026-05-02T10:20:24.805Z</time></trkpt><trkpt lat="45.7122611" lon="10.2878602"><ele>741.0</ele><time>2026-05-02T10:20:25.805Z</time></trkpt><trkpt lat="45.7123413" lon="10.2880737"><ele>739.5</ele><time>2026-05-02T10:20:26.805Z</time></trkpt><trkpt lat="45.7124059" lon="10.2882806"><ele>738.0</ele><time>2026-05-02T10:20:27.805Z</time></trkpt><trkpt lat="45.7124237" lon="10.2885061"><ele>736.5</ele><time>2026-05-02T10:20:28.805Z</time></trkpt><trkpt lat="45.7124023" lon="10.2886938"><ele>735.0</ele><time>2026-05-02T10:20:29.805Z</time></trkpt><trkpt lat="45.7123414" lon="10.2888318"><ele>735.0</ele><time>2026-05-02T10:20:30.805Z</time></trkpt><trkpt lat="45.7122325" lon="10.2889016"><ele>735.0</ele><time>2026-05-02T10:20:31.805Z</time></trkpt><trkpt lat="45.712092" lon="10.2888907"><ele>735.0</ele><time>2026-05-02T10:20:32.805Z</time></trkpt><trkpt lat="45.7119288" lon="10.2888338"><ele>735.0</ele><time>2026-05-02T10:20:33.805Z</time></trkpt><trkpt lat="45.7117622" lon="10.2888173"><ele>732.0</ele><time>2026-05-02T10:20:34.805Z</time></trkpt><trkpt lat="45.7116149" lon="10.2888636"><ele>729.0</ele><time>2026-05-02T10:20:35.805Z</time></trkpt><trkpt lat="45.7114889" lon="10.2889682"><ele>726.0</ele><time>2026-05-02T10:20:36.805Z</time></trkpt><trkpt lat="45.7113832" lon="10.2891008"><ele>723.0</ele><time>2026-05-02T10:20:37.805Z</time></trkpt><trkpt lat="45.7112823" lon="10.2892384"><ele>723.0</ele><time>2026-05-02T10:20:38.805Z</time></trkpt><trkpt lat="45.7111813" lon="10.289378"><ele>723.0</ele><time>2026-05-02T10:20:39.805Z</time></trkpt><trkpt lat="45.7110747" lon="10.2895029"><ele>723.0</ele><time>2026-05-02T10:20:40.805Z</time></trkpt><trkpt lat="45.7109876" lon="10.2896182"><ele>723.0</ele><time>2026-05-02T10:20:41.805Z</time></trkpt><trkpt lat="45.7109231" lon="10.2897506"><ele>720.75</ele><time>2026-05-02T10:20:42.805Z</time></trkpt><trkpt lat="45.7108954" lon="10.2899143"><ele>718.5</ele><time>2026-05-02T10:20:43.805Z</time></trkpt><trkpt lat="45.7109107" lon="10.2901111"><ele>716.25</ele><time>2026-05-02T10:20:44.805Z</time></trkpt><trkpt lat="45.7109347" lon="10.2903471"><ele>714.0</ele><time>2026-05-02T10:20:45.805Z</time></trkpt><trkpt lat="45.7109179" lon="10.2906083"><ele>714.0</ele><time>2026-05-02T10:20:46.805Z</time></trkpt><trkpt lat="45.7108501" lon="10.2908744"><ele>714.0</ele><time>2026-05-02T10:20:47.805Z</time></trkpt><trkpt lat="45.7107405" lon="10.291131"><ele>714.0</ele><time>2026-05-02T10:20:48.805Z</time></trkpt><trkpt lat="45.7106289" lon="10.2913737"><ele>720.0</ele><time>2026-05-02T10:20:49.805Z</time></trkpt><trkpt lat="45.7105225" lon="10.2915961"><ele>726.0</ele><time>2026-05-02T10:20:50.805Z</time></trkpt><trkpt lat="45.7104064" lon="10.2917986"><ele>732.0</ele><time>2026-05-02T10:20:51.805Z</time></trkpt><trkpt lat="45.7102738" lon="10.2919709"><ele>728.3333333333334</ele><time>2026-05-02T10:20:52.805Z</time></trkpt><trkpt lat="45.7101228" lon="10.2920845"><ele>724.6666666666667</ele><time>2026-05-02T10:20:53.805Z</time></trkpt><trkpt lat="45.709952" lon="10.2921814"><ele>721.0</ele><time>2026-05-02T10:20:54.805Z</time></trkpt><trkpt lat="45.7097782" lon="10.2922994"><ele>721.0</ele><time>2026-05-02T10:20:55.805Z</time></trkpt><trkpt lat="45.7096319" lon="10.2924545"><ele>721.0</ele><time>2026-05-02T10:20:56.805Z</time></trkpt><trkpt lat="45.709508" lon="10.2926463"><ele>721.0</ele><time>2026-05-02T10:20:57.805Z</time></trkpt><trkpt lat="45.7094106" lon="10.292871"><ele>716.6666666666667</ele><time>2026-05-02T10:20:58.805Z</time></trkpt><trkpt lat="45.7093299" lon="10.2931205"><ele>712.3333333333334</ele><time>2026-05-02T10:20:59.805Z</time></trkpt><trkpt lat="45.7092736" lon="10.2933623"><ele>708.0</ele><time>2026-05-02T10:21:00.805Z</time></trkpt><trkpt lat="45.7092291" lon="10.2935988"><ele>708.0</ele><time>2026-05-02T10:21:01.805Z</time></trkpt><trkpt lat="45.7091833" lon="10.2938298"><ele>708.0</ele><time>2026-05-02T10:21:02.805Z</time></trkpt><trkpt lat="45.7091434" lon="10.2940573"><ele>708.0</ele><time>2026-05-02T10:21:03.805Z</time></trkpt><trkpt lat="45.7091152" lon="10.2942696"><ele>708.75</ele><time>2026-05-02T10:21:04.805Z</time></trkpt><trkpt lat="45.7091183" lon="10.2944865"><ele>709.5</ele><time>2026-05-02T10:21:05.805Z</time></trkpt><trkpt lat="45.7091614" lon="10.2946868"><ele>710.25</ele><time>2026-05-02T10:21:06.805Z</time></trkpt><trkpt lat="45.7092354" lon="10.2948691"><ele>711.0</ele><time>2026-05-02T10:21:07.805Z</time></trkpt><trkpt lat="45.7092981" lon="10.2950492"><ele>711.5</ele><time>2026-05-02T10:21:08.805Z</time></trkpt><trkpt lat="45.7093175" lon="10.2952433"><ele>712.0</ele><time>2026-05-02T10:21:09.805Z</time></trkpt><trkpt lat="45.7092905" lon="10.2954213"><ele>712.5</ele><time>2026-05-02T10:21:10.805Z</time></trkpt><trkpt lat="45.7092256" lon="10.2955694"><ele>713.0</ele><time>2026-05-02T10:21:11.805Z</time></trkpt><trkpt lat="45.7091143" lon="10.2956786"><ele>713.0</ele><time>2026-05-02T10:21:12.805Z</time></trkpt><trkpt lat="45.708961" lon="10.2957281"><ele>713.0</ele><time>2026-05-02T10:21:13.805Z</time></trkpt><trkpt lat="45.7087764" lon="10.2957212"><ele>713.0</ele><time>2026-05-02T10:21:14.805Z</time></trkpt><trkpt lat="45.7085689" lon="10.2957102"><ele>708.3333333333333</ele><time>2026-05-02T10:21:15.805Z</time></trkpt><trkpt lat="45.7083825" lon="10.2957376"><ele>703.6666666666666</ele><time>2026-05-02T10:21:16.805Z</time></trkpt><trkpt lat="45.7082193" lon="10.2958288"><ele>699.0</ele><time>2026-05-02T10:21:17.805Z</time></trkpt><trkpt lat="45.7080824" lon="10.2959759"><ele>699.0</ele><time>2026-05-02T10:21:18.805Z</time></trkpt><trkpt lat="45.7079687" lon="10.2961609"><ele>699.0</ele><time>2026-05-02T10:21:19.805Z</time></trkpt><trkpt lat="45.7078962" lon="10.2963777"><ele>699.0</ele><time>2026-05-02T10:21:20.805Z</time></trkpt><trkpt lat="45.7078639" lon="10.2966051"><ele>701.75</ele><time>2026-05-02T10:21:21.805Z</time></trkpt><trkpt lat="45.7078832" lon="10.2968287"><ele>704.5</ele><time>2026-05-02T10:21:22.805Z</time></trkpt><trkpt lat="45.7079053" lon="10.29703"><ele>707.25</ele><time>2026-05-02T10:21:23.805Z</time></trkpt><trkpt lat="45.7078854" lon="10.2972013"><ele>710.0</ele><time>2026-05-02T10:21:24.805Z</time></trkpt><trkpt lat="45.7078245" lon="10.2973233"><ele>707.75</ele><time>2026-05-02T10:21:25.805Z</time></trkpt><trkpt lat="45.7077359" lon="10.2973784"><ele>705.5</ele><time>2026-05-02T10:21:26.805Z</time></trkpt><trkpt lat="45.7075997" lon="10.2973589"><ele>703.25</ele><time>2026-05-02T10:21:27.805Z</time></trkpt><trkpt lat="45.7074514" lon="10.2973563"><ele>701.0</ele><time>2026-05-02T10:21:28.805Z</time></trkpt><trkpt lat="45.70731" lon="10.2974195"><ele>701.0</ele><time>2026-05-02T10:21:29.805Z</time></trkpt><trkpt lat="45.7071938" lon="10.2975698"><ele>701.0</ele><time>2026-05-02T10:21:30.805Z</time></trkpt><trkpt lat="45.7070906" lon="10.2977584"><ele>701.0</ele><time>2026-05-02T10:21:31.805Z</time></trkpt><trkpt lat="45.7069735" lon="10.297933"><ele>698.6666666666666</ele><time>2026-05-02T10:21:32.805Z</time></trkpt><trkpt lat="45.7068328" lon="10.2980789"><ele>696.3333333333334</ele><time>2026-05-02T10:21:33.805Z</time></trkpt><trkpt lat="45.7066856" lon="10.2981742"><ele>694.0</ele><time>2026-05-02T10:21:34.805Z</time></trkpt><trkpt lat="45.7065285" lon="10.2982417"><ele>694.0</ele><time>2026-05-02T10:21:35.805Z</time></trkpt><trkpt lat="45.7063824" lon="10.2983376"><ele>694.0</ele><time>2026-05-02T10:21:36.805Z</time></trkpt><trkpt lat="45.7062649" lon="10.2984718"><ele>694.0</ele><time>2026-05-02T10:21:37.805Z</time></trkpt><trkpt lat="45.7061856" lon="10.2986864"><ele>695.6666666666667</ele><time>2026-05-02T10:21:38.805Z</time></trkpt><trkpt lat="45.7061306" lon="10.2989336"><ele>697.3333333333334</ele><time>2026-05-02T10:21:39.805Z</time></trkpt><trkpt lat="45.7060974" lon="10.2991814"><ele>699.0</ele><time>2026-05-02T10:21:40.805Z</time></trkpt><trkpt lat="45.7060867" lon="10.2994096"><ele>699.0</ele><time>2026-05-02T10:21:41.805Z</time></trkpt><trkpt lat="45.7061131" lon="10.2996295"><ele>699.0</ele><time>2026-05-02T10:21:42.805Z</time></trkpt><trkpt lat="45.7061924" lon="10.2998083"><ele>699.0</ele><time>2026-05-02T10:21:43.805Z</time></trkpt><trkpt lat="45.7063073" lon="10.2999441"><ele>694.6666666666666</ele><time>2026-05-02T10:21:44.805Z</time></trkpt><trkpt lat="45.7064495" lon="10.3000429"><ele>690.3333333333333</ele><time>2026-05-02T10:21:45.805Z</time></trkpt><trkpt lat="45.7066311" lon="10.300072"><ele>686.0</ele><time>2026-05-02T10:21:46.805Z</time></trkpt><trkpt lat="45.706826" lon="10.3000547"><ele>690.0</ele><time>2026-05-02T10:21:47.805Z</time></trkpt><trkpt lat="45.7070069" lon="10.3000758"><ele>694.0</ele><time>2026-05-02T10:21:48.805Z</time></trkpt><trkpt lat="45.7071685" lon="10.3001395"><ele>698.0</ele><time>2026-05-02T10:21:49.805Z</time></trkpt><trkpt lat="45.7072987" lon="10.3002649"><ele>698.0</ele><time>2026-05-02T10:21:50.805Z</time></trkpt><trkpt lat="45.70739" lon="10.3004458"><ele>698.0</ele><time>2026-05-02T10:21:51.805Z</time></trkpt><trkpt lat="45.7074298" lon="10.3006787"><ele>698.0</ele><time>2026-05-02T10:21:52.805Z</time></trkpt><trkpt lat="45.7074135" lon="10.3009601"><ele>695.6666666666666</ele><time>2026-05-02T10:21:53.805Z</time></trkpt><trkpt lat="45.7073884" lon="10.3012679"><ele>693.3333333333334</ele><time>2026-05-02T10:21:54.805Z</time></trkpt><trkpt lat="45.7073702" lon="10.3015849"><ele>691.0</ele><time>2026-05-02T10:21:55.805Z</time></trkpt><trkpt lat="45.7073527" lon="10.3018905"><ele>690.6666666666667</ele><time>2026-05-02T10:21:56.805Z</time></trkpt><trkpt lat="45.7073382" lon="10.3021667"><ele>690.3333333333334</ele><time>2026-05-02T10:21:57.805Z</time></trkpt><trkpt lat="45.7073304" lon="10.3024066"><ele>690.0</ele><time>2026-05-02T10:21:58.805Z</time></trkpt><trkpt lat="45.7073024" lon="10.3026214"><ele>691.0</ele><time>2026-05-02T10:21:59.805Z</time></trkpt><trkpt lat="45.7072335" lon="10.3027893"><ele>692.0</ele><time>2026-05-02T10:22:00.805Z</time></trkpt><trkpt lat="45.7071158" lon="10.3029101"><ele>693.0</ele><time>2026-05-02T10:22:01.805Z</time></trkpt><trkpt lat="45.7069746" lon="10.3029715"><ele>694.0</ele><time>2026-05-02T10:22:02.805Z</time></trkpt><trkpt lat="45.7068058" lon="10.3029808"><ele>693.0</ele><time>2026-05-02T10:22:03.805Z</time></trkpt><trkpt lat="45.7066182" lon="10.3030055"><ele>692.0</ele><time>2026-05-02T10:22:04.805Z</time></trkpt><trkpt lat="45.7064223" lon="10.3030936"><ele>691.0</ele><time>2026-05-02T10:22:05.805Z</time></trkpt><trkpt lat="45.7062248" lon="10.3032165"><ele>685.3333333333334</ele><time>2026-05-02T10:22:06.805Z</time></trkpt><trkpt lat="45.7060288" lon="10.3033576"><ele>679.6666666666666</ele><time>2026-05-02T10:22:07.805Z</time></trkpt><trkpt lat="45.7058401" lon="10.3035139"><ele>674.0</ele><time>2026-05-02T10:22:08.805Z</time></trkpt><trkpt lat="45.7056573" lon="10.3036774"><ele>674.0</ele><time>2026-05-02T10:22:09.805Z</time></trkpt><trkpt lat="45.7054891" lon="10.303836"><ele>674.0</ele><time>2026-05-02T10:22:10.805Z</time></trkpt><trkpt lat="45.705342" lon="10.3039766"><ele>674.0</ele><time>2026-05-02T10:22:11.805Z</time></trkpt><trkpt lat="45.7052327" lon="10.3041075"><ele>670.75</ele><time>2026-05-02T10:22:12.805Z</time></trkpt><trkpt lat="45.7051771" lon="10.3042561"><ele>667.5</ele><time>2026-05-02T10:22:13.805Z</time></trkpt><trkpt lat="45.705163" lon="10.3044137"><ele>664.25</ele><time>2026-05-02T10:22:14.805Z</time></trkpt><trkpt lat="45.705178" lon="10.3045735"><ele>661.0</ele><time>2026-05-02T10:22:15.805Z</time></trkpt><trkpt lat="45.7052735" lon="10.3047057"><ele>667.0</ele><time>2026-05-02T10:22:16.805Z</time></trkpt><trkpt lat="45.7054091" lon="10.3048324"><ele>673.0</ele><time>2026-05-02T10:22:17.805Z</time></trkpt><trkpt lat="45.7054971" lon="10.3049818"><ele>679.0</ele><time>2026-05-02T10:22:18.805Z</time></trkpt><trkpt lat="45.70551" lon="10.3051308"><ele>685.0</ele><time>2026-05-02T10:22:19.805Z</time></trkpt><trkpt lat="45.7054583" lon="10.3052729"><ele>685.0</ele><time>2026-05-02T10:22:20.805Z</time></trkpt><trkpt lat="45.7053447" lon="10.3053508"><ele>685.0</ele><time>2026-05-02T10:22:21.805Z</time></trkpt><trkpt lat="45.7051816" lon="10.3053942"><ele>685.0</ele><time>2026-05-02T10:22:22.805Z</time></trkpt><trkpt lat="45.7049581" lon="10.3054004"><ele>678.0</ele><time>2026-05-02T10:22:23.805Z</time></trkpt><trkpt lat="45.7047355" lon="10.3054272"><ele>671.0</ele><time>2026-05-02T10:22:24.805Z</time></trkpt><trkpt lat="45.7045604" lon="10.3054621"><ele>664.0</ele><time>2026-05-02T10:22:25.805Z</time></trkpt><trkpt lat="45.7044134" lon="10.3055379"><ele>663.25</ele><time>2026-05-02T10:22:26.805Z</time></trkpt><trkpt lat="45.7043074" lon="10.3056689"><ele>662.5</ele><time>2026-05-02T10:22:27.805Z</time></trkpt><trkpt lat="45.7042286" lon="10.3058533"><ele>661.75</ele><time>2026-05-02T10:22:28.805Z</time></trkpt><trkpt lat="45.7041969" lon="10.3060683"><ele>661.0</ele><time>2026-05-02T10:22:29.805Z</time></trkpt><trkpt lat="45.7042061" lon="10.3062997"><ele>660.0</ele><time>2026-05-02T10:22:30.805Z</time></trkpt><trkpt lat="45.7042657" lon="10.3065339"><ele>659.0</ele><time>2026-05-02T10:22:31.805Z</time></trkpt><trkpt lat="45.7043569" lon="10.3067424"><ele>658.0</ele><time>2026-05-02T10:22:32.805Z</time></trkpt><trkpt lat="45.7044637" lon="10.306914"><ele>662.5</ele><time>2026-05-02T10:22:33.805Z</time></trkpt><trkpt lat="45.7045853" lon="10.3070398"><ele>667.0</ele><time>2026-05-02T10:22:34.805Z</time></trkpt><trkpt lat="45.7046995" lon="10.3071355"><ele>671.5</ele><time>2026-05-02T10:22:35.805Z</time></trkpt><trkpt lat="45.704788" lon="10.307235"><ele>676.0</ele><time>2026-05-02T10:22:36.805Z</time></trkpt><trkpt lat="45.7048452" lon="10.3073483"><ele>676.5</ele><time>2026-05-02T10:22:37.805Z</time></trkpt><trkpt lat="45.7048743" lon="10.30747"><ele>677.0</ele><time>2026-05-02T10:22:38.805Z</time></trkpt><trkpt lat="45.7048561" lon="10.3075878"><ele>677.5</ele><time>2026-05-02T10:22:39.805Z</time></trkpt><trkpt lat="45.704792" lon="10.3077288"><ele>678.0</ele><time>2026-05-02T10:22:40.805Z</time></trkpt><trkpt lat="45.7046839" lon="10.3079269"><ele>681.3333333333334</ele><time>2026-05-02T10:22:41.805Z</time></trkpt><trkpt lat="45.7045819" lon="10.308173"><ele>684.6666666666667</ele><time>2026-05-02T10:22:42.805Z</time></trkpt><trkpt lat="45.7045061" lon="10.3084483"><ele>688.0</ele><time>2026-05-02T10:22:43.805Z</time></trkpt><trkpt lat="45.7044215" lon="10.3087366"><ele>679.0</ele><time>2026-05-02T10:22:44.805Z</time></trkpt><trkpt lat="45.7043177" lon="10.3090179"><ele>670.0</ele><time>2026-05-02T10:22:45.805Z</time></trkpt><trkpt lat="45.704208" lon="10.3092776"><ele>661.0</ele><time>2026-05-02T10:22:46.805Z</time></trkpt><trkpt lat="45.7041043" lon="10.3095019"><ele>661.0</ele><time>2026-05-02T10:22:47.805Z</time></trkpt><trkpt lat="45.7040166" lon="10.3097103"><ele>661.0</ele><time>2026-05-02T10:22:48.805Z</time></trkpt><trkpt lat="45.7039481" lon="10.3099113"><ele>661.0</ele><time>2026-05-02T10:22:49.805Z</time></trkpt><trkpt lat="45.703915" lon="10.3101097"><ele>664.3333333333334</ele><time>2026-05-02T10:22:50.805Z</time></trkpt><trkpt lat="45.7038821" lon="10.3103029"><ele>667.6666666666666</ele><time>2026-05-02T10:22:51.805Z</time></trkpt><trkpt lat="45.703804" lon="10.3104891"><ele>671.0</ele><time>2026-05-02T10:22:52.805Z</time></trkpt><trkpt lat="45.703678" lon="10.3106399"><ele>662.75</ele><time>2026-05-02T10:22:53.805Z</time></trkpt><trkpt lat="45.7035308" lon="10.3107524"><ele>654.5</ele><time>2026-05-02T10:22:54.805Z</time></trkpt><trkpt lat="45.7034046" lon="10.310864"><ele>646.25</ele><time>2026-05-02T10:22:55.805Z</time></trkpt><trkpt lat="45.7033263" lon="10.3109986"><ele>638.0</ele><time>2026-05-02T10:22:56.805Z</time></trkpt><trkpt lat="45.7032983" lon="10.3111689"><ele>638.0</ele><time>2026-05-02T10:22:57.805Z</time></trkpt><trkpt lat="45.703329" lon="10.311381"><ele>638.0</ele><time>2026-05-02T10:22:58.805Z</time></trkpt><trkpt lat="45.7033835" lon="10.3116104"><ele>638.0</ele><time>2026-05-02T10:22:59.805Z</time></trkpt><trkpt lat="45.7034524" lon="10.3118566"><ele>638.3333333333333</ele><time>2026-05-02T10:23:00.805Z</time></trkpt><trkpt lat="45.7035348" lon="10.3120931"><ele>638.6666666666666</ele><time>2026-05-02T10:23:01.805Z</time></trkpt><trkpt lat="45.7036372" lon="10.3123038"><ele>639.0</ele><time>2026-05-02T10:23:02.805Z</time></trkpt><trkpt lat="45.7037688" lon="10.3124992"><ele>648.3333333333334</ele><time>2026-05-02T10:23:03.805Z</time></trkpt><trkpt lat="45.7039093" lon="10.3126789"><ele>657.6666666666667</ele><time>2026-05-02T10:23:04.805Z</time></trkpt><trkpt lat="45.704034" lon="10.3128583"><ele>667.0</ele><time>2026-05-02T10:23:05.805Z</time></trkpt><trkpt lat="45.7041403" lon="10.3130552"><ele>661.3333333333334</ele><time>2026-05-02T10:23:06.805Z</time></trkpt><trkpt lat="45.7042076" lon="10.3132596"><ele>655.6666666666666</ele><time>2026-05-02T10:23:07.805Z</time></trkpt><trkpt lat="45.7042485" lon="10.3134792"><ele>650.0</ele><time>2026-05-02T10:23:08.805Z</time></trkpt><trkpt lat="45.7042319" lon="10.3137147"><ele>652.3333333333333</ele><time>2026-05-02T10:23:09.805Z</time></trkpt><trkpt lat="45.7041498" lon="10.3139346"><ele>654.6666666666666</ele><time>2026-05-02T10:23:10.805Z</time></trkpt><trkpt lat="45.7040046" lon="10.314105"><ele>657.0</ele><time>2026-05-02T10:23:11.805Z</time></trkpt><trkpt lat="45.7038275" lon="10.3142055"><ele>657.0</ele><time>2026-05-02T10:23:12.805Z</time></trkpt><trkpt lat="45.7036404" lon="10.3142848"><ele>657.0</ele><time>2026-05-02T10:23:13.805Z</time></trkpt><trkpt lat="45.703442" lon="10.3143399"><ele>657.0</ele><time>2026-05-02T10:23:14.805Z</time></trkpt><trkpt lat="45.7032575" lon="10.314396"><ele>653.0</ele><time>2026-05-02T10:23:15.805Z</time></trkpt><trkpt lat="45.7030903" lon="10.3144758"><ele>649.0</ele><time>2026-05-02T10:23:16.805Z</time></trkpt><trkpt lat="45.7029529" lon="10.314601"><ele>645.0</ele><time>2026-05-02T10:23:17.805Z</time></trkpt><trkpt lat="45.7028682" lon="10.3147764"><ele>645.0</ele><time>2026-05-02T10:23:18.805Z</time></trkpt><trkpt lat="45.7028317" lon="10.3149829"><ele>645.0</ele><time>2026-05-02T10:23:19.805Z</time></trkpt><trkpt lat="45.7028594" lon="10.3152116"><ele>645.0</ele><time>2026-05-02T10:23:20.805Z</time></trkpt><trkpt lat="45.7029432" lon="10.3154555"><ele>644.3333333333334</ele><time>2026-05-02T10:23:21.805Z</time></trkpt><trkpt lat="45.7030492" lon="10.3156967"><ele>643.6666666666667</ele><time>2026-05-02T10:23:22.805Z</time></trkpt><trkpt lat="45.7031341" lon="10.3159131"><ele>643.0</ele><time>2026-05-02T10:23:23.805Z</time></trkpt><trkpt lat="45.7031936" lon="10.3161097"><ele>643.0</ele><time>2026-05-02T10:23:24.805Z</time></trkpt><trkpt lat="45.7032113" lon="10.3162843"><ele>643.0</ele><time>2026-05-02T10:23:25.805Z</time></trkpt><trkpt lat="45.703168" lon="10.3164315"><ele>643.0</ele><time>2026-05-02T10:23:26.805Z</time></trkpt><trkpt lat="45.7030833" lon="10.3165452"><ele>643.0</ele><time>2026-05-02T10:23:27.805Z</time></trkpt><trkpt lat="45.70295" lon="10.3166115"><ele>643.25</ele><time>2026-05-02T10:23:28.805Z</time></trkpt><trkpt lat="45.7028176" lon="10.3166706"><ele>643.5</ele><time>2026-05-02T10:23:29.805Z</time></trkpt><trkpt lat="45.7027053" lon="10.3167743"><ele>643.75</ele><time>2026-05-02T10:23:30.805Z</time></trkpt><trkpt lat="45.7026379" lon="10.3169327"><ele>644.0</ele><time>2026-05-02T10:23:31.805Z</time></trkpt><trkpt lat="45.7026229" lon="10.3171158"><ele>640.2</ele><time>2026-05-02T10:23:32.805Z</time></trkpt><trkpt lat="45.7026078" lon="10.3172893"><ele>636.4000000000001</ele><time>2026-05-02T10:23:33.805Z</time></trkpt><trkpt lat="45.7025682" lon="10.3174331"><ele>632.6</ele><time>2026-05-02T10:23:34.805Z</time></trkpt><trkpt lat="45.702493" lon="10.3175306"><ele>628.8</ele><time>2026-05-02T10:23:35.805Z</time></trkpt><trkpt lat="45.7023981" lon="10.3175633"><ele>625.0</ele><time>2026-05-02T10:23:36.805Z</time></trkpt><trkpt lat="45.7022941" lon="10.3175112"><ele>625.0</ele><time>2026-05-02T10:23:37.805Z</time></trkpt><trkpt lat="45.7021736" lon="10.3173884"><ele>625.0</ele><time>2026-05-02T10:23:38.805Z</time></trkpt><trkpt lat="45.7020296" lon="10.3172177"><ele>625.0</ele><time>2026-05-02T10:23:39.805Z</time></trkpt><trkpt lat="45.7019002" lon="10.3171115"><ele>621.5</ele><time>2026-05-02T10:23:40.805Z</time></trkpt><trkpt lat="45.7017754" lon="10.3171121"><ele>618.0</ele><time>2026-05-02T10:23:41.805Z</time></trkpt><trkpt lat="45.7016756" lon="10.3172013"><ele>614.5</ele><time>2026-05-02T10:23:42.805Z</time></trkpt><trkpt lat="45.7015965" lon="10.3173391"><ele>611.0</ele><time>2026-05-02T10:23:43.805Z</time></trkpt><trkpt lat="45.7015304" lon="10.317488"><ele>611.0</ele><time>2026-05-02T10:23:44.805Z</time></trkpt><trkpt lat="45.7014789" lon="10.3176372"><ele>611.0</ele><time>2026-05-02T10:23:45.805Z</time></trkpt><trkpt lat="45.7014293" lon="10.3177787"><ele>611.0</ele><time>2026-05-02T10:23:46.805Z</time></trkpt><trkpt lat="45.7013778" lon="10.3179257"><ele>611.0</ele><time>2026-05-02T10:23:47.805Z</time></trkpt><trkpt lat="45.7013189" lon="10.318062"><ele>613.25</ele><time>2026-05-02T10:23:48.805Z</time></trkpt><trkpt lat="45.701254" lon="10.3181841"><ele>615.5</ele><time>2026-05-02T10:23:49.805Z</time></trkpt><trkpt lat="45.7011806" lon="10.3183061"><ele>617.75</ele><time>2026-05-02T10:23:50.805Z</time></trkpt><trkpt lat="45.7011052" lon="10.3184409"><ele>620.0</ele><time>2026-05-02T10:23:51.805Z</time></trkpt><trkpt lat="45.7010235" lon="10.3185766"><ele>614.75</ele><time>2026-05-02T10:23:52.805Z</time></trkpt><trkpt lat="45.7009274" lon="10.3186979"><ele>609.5</ele><time>2026-05-02T10:23:53.805Z</time></trkpt><trkpt lat="45.700847" lon="10.3188261"><ele>604.25</ele><time>2026-05-02T10:23:54.805Z</time></trkpt><trkpt lat="45.7007595" lon="10.3189411"><ele>599.0</ele><time>2026-05-02T10:23:55.805Z</time></trkpt><trkpt lat="45.7006921" lon="10.3190683"><ele>599.0</ele><time>2026-05-02T10:23:56.805Z</time></trkpt><trkpt lat="45.700636" lon="10.3192475"><ele>599.0</ele><time>2026-05-02T10:23:57.805Z</time></trkpt><trkpt lat="45.700597" lon="10.3194168"><ele>599.0</ele><time>2026-05-02T10:23:58.805Z</time></trkpt><trkpt lat="45.7005765" lon="10.3195918"><ele>599.0</ele><time>2026-05-02T10:23:59.805Z</time></trkpt><trkpt lat="45.7005837" lon="10.3197707"><ele>597.25</ele><time>2026-05-02T10:24:00.805Z</time></trkpt><trkpt lat="45.7006171" lon="10.3199431"><ele>595.5</ele><time>2026-05-02T10:24:01.805Z</time></trkpt><trkpt lat="45.7006835" lon="10.320091"><ele>593.75</ele><time>2026-05-02T10:24:02.805Z</time></trkpt><trkpt lat="45.7007807" lon="10.320201"><ele>592.0</ele><time>2026-05-02T10:24:03.805Z</time></trkpt><trkpt lat="45.7009089" lon="10.3202599"><ele>592.0</ele><time>2026-05-02T10:24:04.805Z</time></trkpt><trkpt lat="45.7010638" lon="10.3202834"><ele>592.0</ele><time>2026-05-02T10:24:05.805Z</time></trkpt><trkpt lat="45.701225" lon="10.3203013"><ele>592.0</ele><time>2026-05-02T10:24:06.805Z</time></trkpt><trkpt lat="45.7013748" lon="10.3203566"><ele>587.0</ele><time>2026-05-02T10:24:07.805Z</time></trkpt><trkpt lat="45.7015228" lon="10.3204254"><ele>582.0</ele><time>2026-05-02T10:24:08.805Z</time></trkpt><trkpt lat="45.7016705" lon="10.320503"><ele>577.0</ele><time>2026-05-02T10:24:09.805Z</time></trkpt><trkpt lat="45.7018121" lon="10.3205778"><ele>577.75</ele><time>2026-05-02T10:24:10.805Z</time></trkpt><trkpt lat="45.701948" lon="10.3206275"><ele>578.5</ele><time>2026-05-02T10:24:11.805Z</time></trkpt><trkpt lat="45.7020875" lon="10.3206584"><ele>579.25</ele><time>2026-05-02T10:24:12.805Z</time></trkpt><trkpt lat="45.7022283" lon="10.3206624"><ele>580.0</ele><time>2026-05-02T10:24:13.805Z</time></trkpt><trkpt lat="45.7023774" lon="10.3206388"><ele>580.0</ele><time>2026-05-02T10:24:14.805Z</time></trkpt><trkpt lat="45.7025198" lon="10.3206289"><ele>580.0</ele><time>2026-05-02T10:24:15.805Z</time></trkpt><trkpt lat="45.7026453" lon="10.3206275"><ele>580.0</ele><time>2026-05-02T10:24:16.805Z</time></trkpt><trkpt lat="45.7027438" lon="10.3206826"><ele>580.0</ele><time>2026-05-02T10:24:17.805Z</time></trkpt><trkpt lat="45.7028001" lon="10.3207751"><ele>580.0</ele><time>2026-05-02T10:24:18.805Z</time></trkpt><trkpt lat="45.7028071" lon="10.3208731"><ele>580.0</ele><time>2026-05-02T10:24:19.805Z</time></trkpt><trkpt lat="45.7027052" lon="10.3209925"><ele>580.0</ele><time>2026-05-02T10:24:21.805Z</time></trkpt><trkpt lat="45.7025829" lon="10.3209978"><ele>580.0</ele><time>2026-05-02T10:24:22.805Z</time></trkpt><trkpt lat="45.7024041" lon="10.3209631"><ele>580.0</ele><time>2026-05-02T10:24:23.805Z</time></trkpt><trkpt lat="45.7021619" lon="10.3209496"><ele>580.0</ele><time>2026-05-02T10:24:24.805Z</time></trkpt><trkpt lat="45.7019121" lon="10.320961"><ele>579.0</ele><time>2026-05-02T10:24:25.805Z</time></trkpt><trkpt lat="45.7017004" lon="10.3209984"><ele>578.0</ele><time>2026-05-02T10:24:26.805Z</time></trkpt><trkpt lat="45.7015131" lon="10.3210184"><ele>577.0</ele><time>2026-05-02T10:24:27.805Z</time></trkpt><trkpt lat="45.701337" lon="10.3209649"><ele>577.0</ele><time>2026-05-02T10:24:28.805Z</time></trkpt><trkpt lat="45.7011615" lon="10.3208787"><ele>577.0</ele><time>2026-05-02T10:24:29.805Z</time></trkpt><trkpt lat="45.7009873" lon="10.3208141"><ele>577.0</ele><time>2026-05-02T10:24:30.804Z</time></trkpt><trkpt lat="45.700819" lon="10.3207957"><ele>574.0</ele><time>2026-05-02T10:24:31.805Z</time></trkpt><trkpt lat="45.7006485" lon="10.320858"><ele>571.0</ele><time>2026-05-02T10:24:32.805Z</time></trkpt><trkpt lat="45.7004979" lon="10.3209622"><ele>568.0</ele><time>2026-05-02T10:24:33.805Z</time></trkpt><trkpt lat="45.7003625" lon="10.3211317"><ele>565.3333333333334</ele><time>2026-05-02T10:24:34.805Z</time></trkpt><trkpt lat="45.7002346" lon="10.3212778"><ele>562.6666666666666</ele><time>2026-05-02T10:24:35.805Z</time></trkpt><trkpt lat="45.7000929" lon="10.3213785"><ele>560.0</ele><time>2026-05-02T10:24:36.805Z</time></trkpt><trkpt lat="45.6999557" lon="10.3214407"><ele>560.0</ele><time>2026-05-02T10:24:37.805Z</time></trkpt><trkpt lat="45.6998205" lon="10.3214689"><ele>560.0</ele><time>2026-05-02T10:24:38.805Z</time></trkpt><trkpt lat="45.6997075" lon="10.3214102"><ele>560.0</ele><time>2026-05-02T10:24:39.805Z</time></trkpt><trkpt lat="45.6996359" lon="10.3212828"><ele>560.0</ele><time>2026-05-02T10:24:40.805Z</time></trkpt><trkpt lat="45.6996232" lon="10.3210892"><ele>560.0</ele><time>2026-05-02T10:24:41.805Z</time></trkpt><trkpt lat="45.6996772" lon="10.3208598"><ele>560.0</ele><time>2026-05-02T10:24:42.805Z</time></trkpt><trkpt lat="45.699756" lon="10.3206236"><ele>560.0</ele><time>2026-05-02T10:24:43.805Z</time></trkpt><trkpt lat="45.6998076" lon="10.3204386"><ele>561.0</ele><time>2026-05-02T10:24:44.805Z</time></trkpt><trkpt lat="45.6998156" lon="10.3202758"><ele>562.0</ele><time>2026-05-02T10:24:45.805Z</time></trkpt><trkpt lat="45.6997772" lon="10.3201655"><ele>563.0</ele><time>2026-05-02T10:24:46.805Z</time></trkpt><trkpt lat="45.6997181" lon="10.3201051"><ele>564.0</ele><time>2026-05-02T10:24:47.805Z</time></trkpt><trkpt lat="45.699655" lon="10.3201268"><ele>565.0</ele><time>2026-05-02T10:24:48.805Z</time></trkpt><trkpt lat="45.6995973" lon="10.3202296"><ele>566.0</ele><time>2026-05-02T10:24:49.805Z</time></trkpt><trkpt lat="45.6995601" lon="10.3204106"><ele>564.0</ele><time>2026-05-02T10:24:50.805Z</time></trkpt><trkpt lat="45.6995242" lon="10.3206393"><ele>562.0</ele><time>2026-05-02T10:24:51.805Z</time></trkpt><trkpt lat="45.6994601" lon="10.3208753"><ele>560.0</ele><time>2026-05-02T10:24:52.805Z</time></trkpt><trkpt lat="45.6993522" lon="10.3210538"><ele>555.25</ele><time>2026-05-02T10:24:53.805Z</time></trkpt><trkpt lat="45.6992312" lon="10.3212006"><ele>550.5</ele><time>2026-05-02T10:24:54.805Z</time></trkpt><trkpt lat="45.699132" lon="10.3213446"><ele>545.75</ele><time>2026-05-02T10:24:55.805Z</time></trkpt><trkpt lat="45.6990818" lon="10.3215158"><ele>541.0</ele><time>2026-05-02T10:24:56.806Z</time></trkpt><trkpt lat="45.6990824" lon="10.321695"><ele>541.0</ele><time>2026-05-02T10:24:57.805Z</time></trkpt><trkpt lat="45.6990844" lon="10.3218498"><ele>541.0</ele><time>2026-05-02T10:24:58.805Z</time></trkpt><trkpt lat="45.6990526" lon="10.321967"><ele>541.0</ele><time>2026-05-02T10:24:59.805Z</time></trkpt><trkpt lat="45.6989963" lon="10.3220264"><ele>541.0</ele><time>2026-05-02T10:25:00.805Z</time></trkpt><trkpt lat="45.6989253" lon="10.3220249"><ele>541.0</ele><time>2026-05-02T10:25:01.805Z</time></trkpt><trkpt lat="45.6988438" lon="10.3219289"><ele>541.0</ele><time>2026-05-02T10:25:02.805Z</time></trkpt><trkpt lat="45.6987566" lon="10.3217479"><ele>541.0</ele><time>2026-05-02T10:25:03.805Z</time></trkpt><trkpt lat="45.6986646" lon="10.3214899"><ele>541.0</ele><time>2026-05-02T10:25:04.805Z</time></trkpt><trkpt lat="45.6985364" lon="10.3211874"><ele>541.0</ele><time>2026-05-02T10:25:05.805Z</time></trkpt><trkpt lat="45.6983793" lon="10.320883"><ele>539.6666666666667</ele><time>2026-05-02T10:25:06.805Z</time></trkpt><trkpt lat="45.6982399" lon="10.3206254"><ele>538.3333333333334</ele><time>2026-05-02T10:25:07.805Z</time></trkpt><trkpt lat="45.6981407" lon="10.3203977"><ele>537.0</ele><time>2026-05-02T10:25:08.805Z</time></trkpt><trkpt lat="45.6980788" lon="10.3201913"><ele>537.0</ele><time>2026-05-02T10:25:09.805Z</time></trkpt><trkpt lat="45.6980344" lon="10.3200095"><ele>537.0</ele><time>2026-05-02T10:25:10.805Z</time></trkpt><trkpt lat="45.6979821" lon="10.3198562"><ele>537.0</ele><time>2026-05-02T10:25:11.804Z</time></trkpt><trkpt lat="45.6979126" lon="10.3197607"><ele>537.0</ele><time>2026-05-02T10:25:12.804Z</time></trkpt><trkpt lat="45.6978386" lon="10.3197313"><ele>537.0</ele><time>2026-05-02T10:25:13.804Z</time></trkpt><trkpt lat="45.6977769" lon="10.3197709"><ele>537.0</ele><time>2026-05-02T10:25:14.804Z</time></trkpt><trkpt lat="45.697739" lon="10.3198775"><ele>537.0</ele><time>2026-05-02T10:25:15.804Z</time></trkpt><trkpt lat="45.6977449" lon="10.3200547"><ele>537.0</ele><time>2026-05-02T10:25:16.804Z</time></trkpt><trkpt lat="45.6977972" lon="10.3203002"><ele>537.0</ele><time>2026-05-02T10:25:17.804Z</time></trkpt><trkpt lat="45.6978606" lon="10.3205952"><ele>534.6666666666666</ele><time>2026-05-02T10:25:18.804Z</time></trkpt><trkpt lat="45.6978789" lon="10.3208445"><ele>532.3333333333333</ele><time>2026-05-02T10:25:19.804Z</time></trkpt><trkpt lat="45.6978237" lon="10.3210307"><ele>530.0</ele><time>2026-05-02T10:25:20.804Z</time></trkpt><trkpt lat="45.6977086" lon="10.3211666"><ele>525.25</ele><time>2026-05-02T10:25:21.804Z</time></trkpt><trkpt lat="45.6975817" lon="10.321291"><ele>520.5</ele><time>2026-05-02T10:25:22.804Z</time></trkpt><trkpt lat="45.6974769" lon="10.3214412"><ele>515.75</ele><time>2026-05-02T10:25:23.804Z</time></trkpt><trkpt lat="45.697417" lon="10.3216288"><ele>511.0</ele><time>2026-05-02T10:25:24.804Z</time></trkpt><trkpt lat="45.6974062" lon="10.3218327"><ele>511.0</ele><time>2026-05-02T10:25:25.804Z</time></trkpt><trkpt lat="45.6974466" lon="10.3220332"><ele>511.0</ele><time>2026-05-02T10:25:26.804Z</time></trkpt><trkpt lat="45.6975087" lon="10.3222017"><ele>511.0</ele><time>2026-05-02T10:25:27.804Z</time></trkpt><trkpt lat="45.6975471" lon="10.3223557"><ele>511.0</ele><time>2026-05-02T10:25:28.804Z</time></trkpt><trkpt lat="45.6975428" lon="10.3224994"><ele>511.0</ele><time>2026-05-02T10:25:29.804Z</time></trkpt><trkpt lat="45.697498" lon="10.3225815"><ele>511.0</ele><time>2026-05-02T10:25:30.804Z</time></trkpt><trkpt lat="45.6974348" lon="10.3225965"><ele>511.0</ele><time>2026-05-02T10:25:31.804Z</time></trkpt><trkpt lat="45.6973705" lon="10.3225398"><ele>511.0</ele><time>2026-05-02T10:25:32.804Z</time></trkpt><trkpt lat="45.6973185" lon="10.3224189"><ele>511.0</ele><time>2026-05-02T10:25:33.804Z</time></trkpt><trkpt lat="45.6972851" lon="10.3222132"><ele>511.0</ele><time>2026-05-02T10:25:34.804Z</time></trkpt><trkpt lat="45.6972664" lon="10.3219368"><ele>511.0</ele><time>2026-05-02T10:25:35.804Z</time></trkpt><trkpt lat="45.6972853" lon="10.3216074"><ele>511.0</ele><time>2026-05-02T10:25:36.804Z</time></trkpt><trkpt lat="45.6973355" lon="10.3213311"><ele>510.6</ele><time>2026-05-02T10:25:37.804Z</time></trkpt><trkpt lat="45.6973745" lon="10.3211266"><ele>510.20000000000005</ele><time>2026-05-02T10:25:38.804Z</time></trkpt><trkpt lat="45.6973919" lon="10.3209651"><ele>509.79999999999995</ele><time>2026-05-02T10:25:39.804Z</time></trkpt><trkpt lat="45.6973636" lon="10.3208413"><ele>509.4</ele><time>2026-05-02T10:25:40.804Z</time></trkpt><trkpt lat="45.6973075" lon="10.3207765"><ele>509.0</ele><time>2026-05-02T10:25:41.804Z</time></trkpt><trkpt lat="45.6972338" lon="10.3207806"><ele>509.0</ele><time>2026-05-02T10:25:42.804Z</time></trkpt><trkpt lat="45.6971652" lon="10.320898"><ele>509.0</ele><time>2026-05-02T10:25:43.804Z</time></trkpt><trkpt lat="45.6971158" lon="10.3211124"><ele>509.0</ele><time>2026-05-02T10:25:44.804Z</time></trkpt><trkpt lat="45.6970943" lon="10.3213982"><ele>510.0</ele><time>2026-05-02T10:25:45.804Z</time></trkpt><trkpt lat="45.6971187" lon="10.3217624"><ele>511.0</ele><time>2026-05-02T10:25:46.804Z</time></trkpt><trkpt lat="45.6971534" lon="10.3220948"><ele>509.6666666666667</ele><time>2026-05-02T10:25:47.804Z</time></trkpt><trkpt lat="45.697184" lon="10.3223594"><ele>508.33333333333337</ele><time>2026-05-02T10:25:48.804Z</time></trkpt><trkpt lat="45.6972062" lon="10.3225761"><ele>507.0</ele><time>2026-05-02T10:25:49.804Z</time></trkpt><trkpt lat="45.6972071" lon="10.3227384"><ele>507.0</ele><time>2026-05-02T10:25:50.804Z</time></trkpt><trkpt lat="45.6971782" lon="10.3228522"><ele>507.00000000000006</ele><time>2026-05-02T10:25:51.804Z</time></trkpt><trkpt lat="45.697071" lon="10.3228856"><ele>507.00000000000006</ele><time>2026-05-02T10:25:53.804Z</time></trkpt><trkpt lat="45.6970189" lon="10.3227917"><ele>507.0</ele><time>2026-05-02T10:25:54.804Z</time></trkpt><trkpt lat="45.6969891" lon="10.3226148"><ele>507.0</ele><time>2026-05-02T10:25:55.804Z</time></trkpt><trkpt lat="45.6969716" lon="10.322366"><ele>508.33333333333337</ele><time>2026-05-02T10:25:56.804Z</time></trkpt><trkpt lat="45.6969507" lon="10.3220581"><ele>509.6666666666667</ele><time>2026-05-02T10:25:57.804Z</time></trkpt><trkpt lat="45.6969082" lon="10.3217388"><ele>511.0</ele><time>2026-05-02T10:25:58.804Z</time></trkpt><trkpt lat="45.6968641" lon="10.3214665"><ele>510.33333333333337</ele><time>2026-05-02T10:25:59.804Z</time></trkpt><trkpt lat="45.6968482" lon="10.3212251"><ele>509.66666666666663</ele><time>2026-05-02T10:26:00.804Z</time></trkpt><trkpt lat="45.69688" lon="10.3210038"><ele>509.0</ele><time>2026-05-02T10:26:01.804Z</time></trkpt><trkpt lat="45.6969369" lon="10.3208155"><ele>509.0</ele><time>2026-05-02T10:26:02.804Z</time></trkpt><trkpt lat="45.6969868" lon="10.3206327"><ele>509.0</ele><time>2026-05-02T10:26:03.804Z</time></trkpt><trkpt lat="45.6969954" lon="10.320425"><ele>509.0</ele><time>2026-05-02T10:26:04.804Z</time></trkpt><trkpt lat="45.6969306" lon="10.3202127"><ele>509.0</ele><time>2026-05-02T10:26:05.804Z</time></trkpt><trkpt lat="45.6968272" lon="10.320016"><ele>499.66666666666663</ele><time>2026-05-02T10:26:06.804Z</time></trkpt><trkpt lat="45.6967285" lon="10.3198173"><ele>490.33333333333337</ele><time>2026-05-02T10:26:07.804Z</time></trkpt><trkpt lat="45.6966627" lon="10.3196275"><ele>481.0</ele><time>2026-05-02T10:26:08.804Z</time></trkpt><trkpt lat="45.6967063" lon="10.3192949"><ele>479.5</ele><time>2026-05-02T10:26:10.804Z</time></trkpt><trkpt lat="45.6968118" lon="10.3191415"><ele>478.0</ele><time>2026-05-02T10:26:11.804Z</time></trkpt><trkpt lat="45.6971486" lon="10.3188342"><ele>478.0</ele><time>2026-05-02T10:26:13.804Z</time></trkpt><trkpt lat="45.6973298" lon="10.3186681"><ele>478.0</ele><time>2026-05-02T10:26:14.804Z</time></trkpt><trkpt lat="45.6974869" lon="10.3185025"><ele>478.0</ele><time>2026-05-02T10:26:15.804Z</time></trkpt><trkpt lat="45.6976205" lon="10.3183359"><ele>478.0</ele><time>2026-05-02T10:26:16.804Z</time></trkpt><trkpt lat="45.6976971" lon="10.3181355"><ele>478.0</ele><time>2026-05-02T10:26:17.804Z</time></trkpt><trkpt lat="45.6977367" lon="10.3179161"><ele>478.0</ele><time>2026-05-02T10:26:18.804Z</time></trkpt><trkpt lat="45.6977921" lon="10.317696"><ele>481.0</ele><time>2026-05-02T10:26:19.804Z</time></trkpt><trkpt lat="45.6978836" lon="10.3174865"><ele>484.0</ele><time>2026-05-02T10:26:20.805Z</time></trkpt><trkpt lat="45.6980192" lon="10.3173018"><ele>487.0</ele><time>2026-05-02T10:26:21.804Z</time></trkpt><trkpt lat="45.6981705" lon="10.3171361"><ele>491.0</ele><time>2026-05-02T10:26:22.804Z</time></trkpt><trkpt lat="45.6984805" lon="10.3167382"><ele>495.0</ele><time>2026-05-02T10:26:24.804Z</time></trkpt><trkpt lat="45.6986107" lon="10.3165157"><ele>491.66666666666663</ele><time>2026-05-02T10:26:25.804Z</time></trkpt><trkpt lat="45.6986956" lon="10.3162776"><ele>488.3333333333333</ele><time>2026-05-02T10:26:26.804Z</time></trkpt><trkpt lat="45.6987433" lon="10.3160314"><ele>485.0</ele><time>2026-05-02T10:26:27.804Z</time></trkpt><trkpt lat="45.6987801" lon="10.3158107"><ele>485.0</ele><time>2026-05-02T10:26:28.804Z</time></trkpt><trkpt lat="45.6988056" lon="10.3156271"><ele>485.0</ele><time>2026-05-02T10:26:29.804Z</time></trkpt><trkpt lat="45.6988127" lon="10.3154658"><ele>485.0</ele><time>2026-05-02T10:26:30.804Z</time></trkpt><trkpt lat="45.6987753" lon="10.3153305"><ele>485.0</ele><time>2026-05-02T10:26:31.804Z</time></trkpt><trkpt lat="45.6987042" lon="10.3152649"><ele>485.0</ele><time>2026-05-02T10:26:32.804Z</time></trkpt><trkpt lat="45.6986146" lon="10.3152834"><ele>475.0</ele><time>2026-05-02T10:26:33.804Z</time></trkpt><trkpt lat="45.6985272" lon="10.3153815"><ele>465.0</ele><time>2026-05-02T10:26:34.804Z</time></trkpt><trkpt lat="45.6984423" lon="10.3155808"><ele>455.0</ele><time>2026-05-02T10:26:35.804Z</time></trkpt><trkpt lat="45.6983579" lon="10.3158161"><ele>455.0</ele><time>2026-05-02T10:26:36.804Z</time></trkpt><trkpt lat="45.6982678" lon="10.3160336"><ele>455.0</ele><time>2026-05-02T10:26:37.804Z</time></trkpt><trkpt lat="45.6981574" lon="10.316245"><ele>455.0</ele><time>2026-05-02T10:26:38.804Z</time></trkpt><trkpt lat="45.6980288" lon="10.3164552"><ele>452.66666666666663</ele><time>2026-05-02T10:26:39.804Z</time></trkpt><trkpt lat="45.6978837" lon="10.3166491"><ele>450.33333333333337</ele><time>2026-05-02T10:26:40.804Z</time></trkpt><trkpt lat="45.697718" lon="10.3168442"><ele>448.0</ele><time>2026-05-02T10:26:41.804Z</time></trkpt><trkpt lat="45.6975494" lon="10.3170219"><ele>448.0</ele><time>2026-05-02T10:26:42.804Z</time></trkpt><trkpt lat="45.6973905" lon="10.3171805"><ele>448.0</ele><time>2026-05-02T10:26:43.804Z</time></trkpt><trkpt lat="45.697252" lon="10.3173356"><ele>448.0</ele><time>2026-05-02T10:26:44.804Z</time></trkpt><trkpt lat="45.6971445" lon="10.3174881"><ele>446.50000000000006</ele><time>2026-05-02T10:26:45.804Z</time></trkpt><trkpt lat="45.697063" lon="10.3176009"><ele>445.0</ele><time>2026-05-02T10:26:46.804Z</time></trkpt><trkpt lat="45.6969893" lon="10.3176642"><ele>443.5</ele><time>2026-05-02T10:26:47.804Z</time></trkpt><trkpt lat="45.696917" lon="10.3176708"><ele>442.0</ele><time>2026-05-02T10:26:48.804Z</time></trkpt><trkpt lat="45.6968391" lon="10.3175785"><ele>440.50000000000006</ele><time>2026-05-02T10:26:50.804Z</time></trkpt><trkpt lat="45.6968646" lon="10.3174848"><ele>439.0</ele><time>2026-05-02T10:26:51.804Z</time></trkpt><trkpt lat="45.6969283" lon="10.317363"><ele>442.0</ele><time>2026-05-02T10:26:52.804Z</time></trkpt><trkpt lat="45.6970396" lon="10.3172091"><ele>445.0</ele><time>2026-05-02T10:26:53.804Z</time></trkpt><trkpt lat="45.6972135" lon="10.3170102"><ele>448.0</ele><time>2026-05-02T10:26:54.804Z</time></trkpt><trkpt lat="45.6974041" lon="10.3167946"><ele>448.0</ele><time>2026-05-02T10:26:55.804Z</time></trkpt><trkpt lat="45.6975437" lon="10.3165999"><ele>448.0</ele><time>2026-05-02T10:26:56.804Z</time></trkpt><trkpt lat="45.6976141" lon="10.3164383"><ele>448.0</ele><time>2026-05-02T10:26:57.804Z</time></trkpt><trkpt lat="45.6976325" lon="10.316314"><ele>448.0</ele><time>2026-05-02T10:26:58.804Z</time></trkpt><trkpt lat="45.6975839" lon="10.3162244"><ele>448.0</ele><time>2026-05-02T10:27:00.804Z</time></trkpt><trkpt lat="45.6975136" lon="10.3162676"><ele>448.0</ele><time>2026-05-02T10:27:01.804Z</time></trkpt><trkpt lat="45.6973952" lon="10.3163734"><ele>448.0</ele><time>2026-05-02T10:27:02.804Z</time></trkpt><trkpt lat="45.697232" lon="10.3165145"><ele>448.0</ele><time>2026-05-02T10:27:03.804Z</time></trkpt><trkpt lat="45.697023" lon="10.3167385"><ele>444.0</ele><time>2026-05-02T10:27:04.804Z</time></trkpt><trkpt lat="45.6967945" lon="10.3170208"><ele>440.0</ele><time>2026-05-02T10:27:05.804Z</time></trkpt><trkpt lat="45.6965721" lon="10.3173361"><ele>439.0</ele><time>2026-05-02T10:27:06.804Z</time></trkpt><trkpt lat="45.6961984" lon="10.3178931"><ele>438.33333333333337</ele><time>2026-05-02T10:27:08.804Z</time></trkpt><trkpt lat="45.6960738" lon="10.3180973"><ele>437.66666666666663</ele><time>2026-05-02T10:27:09.804Z</time></trkpt><trkpt lat="45.6959461" lon="10.3182375"><ele>437.0</ele><time>2026-05-02T10:27:10.804Z</time></trkpt><trkpt lat="45.6958127" lon="10.3183051"><ele>437.0</ele><time>2026-05-02T10:27:11.804Z</time></trkpt><trkpt lat="45.6956747" lon="10.3183254"><ele>437.0</ele><time>2026-05-02T10:27:12.804Z</time></trkpt><trkpt lat="45.6955416" lon="10.3183406"><ele>437.0</ele><time>2026-05-02T10:27:13.804Z</time></trkpt><trkpt lat="45.6954095" lon="10.3183771"><ele>437.0</ele><time>2026-05-02T10:27:14.804Z</time></trkpt><trkpt lat="45.6952848" lon="10.3184339"><ele>435.5</ele><time>2026-05-02T10:27:15.804Z</time></trkpt><trkpt lat="45.6951744" lon="10.3185191"><ele>434.0</ele><time>2026-05-02T10:27:16.804Z</time></trkpt><trkpt lat="45.695079" lon="10.3186325"><ele>432.5</ele><time>2026-05-02T10:27:17.804Z</time></trkpt><trkpt lat="45.6950004" lon="10.318771"><ele>431.0</ele><time>2026-05-02T10:27:18.804Z</time></trkpt><trkpt lat="45.6949303" lon="10.3189197"><ele>430.0</ele><time>2026-05-02T10:27:19.804Z</time></trkpt><trkpt lat="45.6948591" lon="10.3190749"><ele>429.0</ele><time>2026-05-02T10:27:20.804Z</time></trkpt><trkpt lat="45.6947911" lon="10.3192222"><ele>428.0</ele><time>2026-05-02T10:27:21.804Z</time></trkpt><trkpt lat="45.6947127" lon="10.319355"><ele>427.0</ele><time>2026-05-02T10:27:22.804Z</time></trkpt><trkpt lat="45.6946246" lon="10.3194848"><ele>427.0</ele><time>2026-05-02T10:27:23.804Z</time></trkpt><trkpt lat="45.6945279" lon="10.3196164"><ele>427.0</ele><time>2026-05-02T10:27:24.804Z</time></trkpt><trkpt lat="45.6944441" lon="10.3197433"><ele>427.0</ele><time>2026-05-02T10:27:25.804Z</time></trkpt><trkpt lat="45.6943835" lon="10.3198688"><ele>427.0</ele><time>2026-05-02T10:27:26.804Z</time></trkpt><trkpt lat="45.6943523" lon="10.3200213"><ele>425.0</ele><time>2026-05-02T10:27:27.804Z</time></trkpt><trkpt lat="45.6943484" lon="10.3202043"><ele>423.0</ele><time>2026-05-02T10:27:28.804Z</time></trkpt><trkpt lat="45.6943731" lon="10.3203428"><ele>421.0</ele><time>2026-05-02T10:27:29.804Z</time></trkpt><trkpt lat="45.6943953" lon="10.3205531"><ele>419.0</ele><time>2026-05-02T10:27:30.804Z</time></trkpt><trkpt lat="45.6944163" lon="10.3207808"><ele>419.66666666666663</ele><time>2026-05-02T10:27:31.804Z</time></trkpt><trkpt lat="45.6944408" lon="10.3209967"><ele>420.33333333333337</ele><time>2026-05-02T10:27:32.804Z</time></trkpt><trkpt lat="45.6944777" lon="10.3212052"><ele>421.0</ele><time>2026-05-02T10:27:33.804Z</time></trkpt><trkpt lat="45.6945186" lon="10.3214139"><ele>421.0</ele><time>2026-05-02T10:27:34.804Z</time></trkpt><trkpt lat="45.6945562" lon="10.321628"><ele>421.0</ele><time>2026-05-02T10:27:35.804Z</time></trkpt><trkpt lat="45.6945872" lon="10.3218493"><ele>421.0</ele><time>2026-05-02T10:27:36.804Z</time></trkpt><trkpt lat="45.6946286" lon="10.3220686"><ele>417.5</ele><time>2026-05-02T10:27:37.804Z</time></trkpt><trkpt lat="45.6947416" lon="10.3224944"><ele>414.0</ele><time>2026-05-02T10:27:39.804Z</time></trkpt><trkpt lat="45.6948017" lon="10.3227044"><ele>414.0</ele><time>2026-05-02T10:27:40.804Z</time></trkpt><trkpt lat="45.6948556" lon="10.3229326"><ele>414.0</ele><time>2026-05-02T10:27:41.804Z</time></trkpt><trkpt lat="45.6948981" lon="10.3231646"><ele>414.0</ele><time>2026-05-02T10:27:42.804Z</time></trkpt><trkpt lat="45.6949361" lon="10.3233949"><ele>413.0</ele><time>2026-05-02T10:27:43.804Z</time></trkpt><trkpt lat="45.6949755" lon="10.3236269"><ele>412.0</ele><time>2026-05-02T10:27:44.804Z</time></trkpt><trkpt lat="45.6950058" lon="10.323859"><ele>411.0</ele><time>2026-05-02T10:27:45.804Z</time></trkpt><trkpt lat="45.6950344" lon="10.3240932"><ele>409.66666666666663</ele><time>2026-05-02T10:27:46.804Z</time></trkpt><trkpt lat="45.6950589" lon="10.3243266"><ele>408.3333333333333</ele><time>2026-05-02T10:27:47.804Z</time></trkpt><trkpt lat="45.6950945" lon="10.32456"><ele>407.0</ele><time>2026-05-02T10:27:48.804Z</time></trkpt><trkpt lat="45.6951318" lon="10.3247897"><ele>406.66666666666663</ele><time>2026-05-02T10:27:49.804Z</time></trkpt><trkpt lat="45.6951658" lon="10.3250206"><ele>406.33333333333337</ele><time>2026-05-02T10:27:50.804Z</time></trkpt><trkpt lat="45.6952016" lon="10.3252532"><ele>406.0</ele><time>2026-05-02T10:27:51.804Z</time></trkpt><trkpt lat="45.6952371" lon="10.3254863"><ele>409.33333333333337</ele><time>2026-05-02T10:27:52.804Z</time></trkpt><trkpt lat="45.6952818" lon="10.3257145"><ele>412.66666666666663</ele><time>2026-05-02T10:27:53.804Z</time></trkpt><trkpt lat="45.6953264" lon="10.3259329"><ele>416.0</ele><time>2026-05-02T10:27:54.804Z</time></trkpt><trkpt lat="45.6953669" lon="10.326151"><ele>416.0</ele><time>2026-05-02T10:27:55.804Z</time></trkpt><trkpt lat="45.6954051" lon="10.3263714"><ele>416.0</ele><time>2026-05-02T10:27:56.804Z</time></trkpt><trkpt lat="45.6954412" lon="10.3265998"><ele>416.0</ele><time>2026-05-02T10:27:57.804Z</time></trkpt><trkpt lat="45.6954804" lon="10.326822"><ele>414.0</ele><time>2026-05-02T10:27:58.804Z</time></trkpt><trkpt lat="45.6955205" lon="10.32704"><ele>412.0</ele><time>2026-05-02T10:27:59.804Z</time></trkpt><trkpt lat="45.6955611" lon="10.3272603"><ele>410.0</ele><time>2026-05-02T10:28:00.804Z</time></trkpt><trkpt lat="45.6956203" lon="10.3274814"><ele>409.0</ele><time>2026-05-02T10:28:01.804Z</time></trkpt><trkpt lat="45.6956773" lon="10.3277213"><ele>408.0</ele><time>2026-05-02T10:28:02.804Z</time></trkpt><trkpt lat="45.6957321" lon="10.3279687"><ele>407.0</ele><time>2026-05-02T10:28:03.804Z</time></trkpt><trkpt lat="45.6957695" lon="10.328233"><ele>405.3333333333333</ele><time>2026-05-02T10:28:04.804Z</time></trkpt><trkpt lat="45.6957959" lon="10.3284966"><ele>403.66666666666663</ele><time>2026-05-02T10:28:05.804Z</time></trkpt><trkpt lat="45.6957824" lon="10.3287655"><ele>402.0</ele><time>2026-05-02T10:28:06.804Z</time></trkpt><trkpt lat="45.6957288" lon="10.3290196"><ele>401.66666666666663</ele><time>2026-05-02T10:28:07.804Z</time></trkpt><trkpt lat="45.6956546" lon="10.329246"><ele>401.3333333333333</ele><time>2026-05-02T10:28:08.804Z</time></trkpt><trkpt lat="45.6955906" lon="10.3294524"><ele>401.0</ele><time>2026-05-02T10:28:09.804Z</time></trkpt><trkpt lat="45.6955395" lon="10.3296495"><ele>401.0</ele><time>2026-05-02T10:28:10.804Z</time></trkpt><trkpt lat="45.6955319" lon="10.3298398"><ele>401.0</ele><time>2026-05-02T10:28:11.804Z</time></trkpt><trkpt lat="45.6955606" lon="10.3300188"><ele>401.0</ele><time>2026-05-02T10:28:12.804Z</time></trkpt><trkpt lat="45.6956111" lon="10.3301922"><ele>401.0</ele><time>2026-05-02T10:28:13.804Z</time></trkpt><trkpt lat="45.6956683" lon="10.330376"><ele>398.0</ele><time>2026-05-02T10:28:14.804Z</time></trkpt><trkpt lat="45.6957362" lon="10.3305637"><ele>395.0</ele><time>2026-05-02T10:28:15.804Z</time></trkpt><trkpt lat="45.6958061" lon="10.3307682"><ele>392.0</ele><time>2026-05-02T10:28:16.804Z</time></trkpt><trkpt lat="45.6958792" lon="10.3309702"><ele>392.0</ele><time>2026-05-02T10:28:17.804Z</time></trkpt><trkpt lat="45.6959546" lon="10.3311816"><ele>392.0</ele><time>2026-05-02T10:28:18.804Z</time></trkpt><trkpt lat="45.6960283" lon="10.3314055"><ele>392.0</ele><time>2026-05-02T10:28:19.804Z</time></trkpt><trkpt lat="45.6961039" lon="10.3316339"><ele>391.66666666666663</ele><time>2026-05-02T10:28:20.804Z</time></trkpt><trkpt lat="45.6961718" lon="10.3318605"><ele>391.33333333333337</ele><time>2026-05-02T10:28:21.804Z</time></trkpt><trkpt lat="45.6962396" lon="10.3320912"><ele>391.0</ele><time>2026-05-02T10:28:22.804Z</time></trkpt><trkpt lat="45.6963156" lon="10.3323363"><ele>391.0</ele><time>2026-05-02T10:28:23.804Z</time></trkpt><trkpt lat="45.6963948" lon="10.3325684"><ele>391.0</ele><time>2026-05-02T10:28:24.804Z</time></trkpt><trkpt lat="45.6964671" lon="10.3328055"><ele>391.0</ele><time>2026-05-02T10:28:25.804Z</time></trkpt><trkpt lat="45.6965411" lon="10.3330415"><ele>389.33333333333337</ele><time>2026-05-02T10:28:26.804Z</time></trkpt><trkpt lat="45.6966134" lon="10.3332721"><ele>387.66666666666663</ele><time>2026-05-02T10:28:27.804Z</time></trkpt><trkpt lat="45.6966903" lon="10.3335032"><ele>386.0</ele><time>2026-05-02T10:28:28.804Z</time></trkpt><trkpt lat="45.6967818" lon="10.3337292"><ele>385.3333333333333</ele><time>2026-05-02T10:28:29.804Z</time></trkpt><trkpt lat="45.6968662" lon="10.3339495"><ele>384.66666666666663</ele><time>2026-05-02T10:28:30.804Z</time></trkpt><trkpt lat="45.6969375" lon="10.334168"><ele>384.0</ele><time>2026-05-02T10:28:31.804Z</time></trkpt><trkpt lat="45.697009" lon="10.3343967"><ele>384.66666666666663</ele><time>2026-05-02T10:28:32.804Z</time></trkpt><trkpt lat="45.6970795" lon="10.3346254"><ele>385.3333333333333</ele><time>2026-05-02T10:28:33.804Z</time></trkpt><trkpt lat="45.6971517" lon="10.3348463"><ele>386.0</ele><time>2026-05-02T10:28:34.804Z</time></trkpt><trkpt lat="45.6972321" lon="10.3350711"><ele>386.0</ele><time>2026-05-02T10:28:35.804Z</time></trkpt><trkpt lat="45.697317" lon="10.3353"><ele>386.0</ele><time>2026-05-02T10:28:36.804Z</time></trkpt><trkpt lat="45.6974072" lon="10.3355531"><ele>386.0</ele><time>2026-05-02T10:28:37.804Z</time></trkpt><trkpt lat="45.6975023" lon="10.3358158"><ele>382.0</ele><time>2026-05-02T10:28:38.804Z</time></trkpt><trkpt lat="45.6976061" lon="10.3361053"><ele>378.0</ele><time>2026-05-02T10:28:39.804Z</time></trkpt><trkpt lat="45.6977078" lon="10.3364192"><ele>386.0</ele><time>2026-05-02T10:28:40.804Z</time></trkpt><trkpt lat="45.697803" lon="10.3367407"><ele>394.0</ele><time>2026-05-02T10:28:41.804Z</time></trkpt><trkpt lat="45.6978886" lon="10.337069"><ele>388.5</ele><time>2026-05-02T10:28:42.804Z</time></trkpt><trkpt lat="45.6979672" lon="10.3373931"><ele>383.0</ele><time>2026-05-02T10:28:43.804Z</time></trkpt><trkpt lat="45.6980401" lon="10.337717"><ele>383.0</ele><time>2026-05-02T10:28:44.804Z</time></trkpt><trkpt lat="45.6981229" lon="10.3380338"><ele>383.0</ele><time>2026-05-02T10:28:45.804Z</time></trkpt><trkpt lat="45.6982239" lon="10.3383322"><ele>381.6666666666667</ele><time>2026-05-02T10:28:46.804Z</time></trkpt><trkpt lat="45.6983534" lon="10.338592"><ele>380.3333333333333</ele><time>2026-05-02T10:28:47.804Z</time></trkpt><trkpt lat="45.6984914" lon="10.3388458"><ele>379.0</ele><time>2026-05-02T10:28:48.804Z</time></trkpt><trkpt lat="45.6986104" lon="10.3391018"><ele>390.3333333333333</ele><time>2026-05-02T10:28:49.804Z</time></trkpt><trkpt lat="45.6986865" lon="10.3393792"><ele>401.66666666666663</ele><time>2026-05-02T10:28:50.804Z</time></trkpt><trkpt lat="45.6987058" lon="10.3396768"><ele>413.0</ele><time>2026-05-02T10:28:51.804Z</time></trkpt><trkpt lat="45.6986875" lon="10.3399785"><ele>414.3333333333333</ele><time>2026-05-02T10:28:52.804Z</time></trkpt><trkpt lat="45.698603" lon="10.3402681"><ele>415.66666666666663</ele><time>2026-05-02T10:28:53.804Z</time></trkpt><trkpt lat="45.6984753" lon="10.3405423"><ele>417.0</ele><time>2026-05-02T10:28:54.804Z</time></trkpt><trkpt lat="45.6983797" lon="10.3408021"><ele>404.3333333333333</ele><time>2026-05-02T10:28:55.804Z</time></trkpt><trkpt lat="45.6983345" lon="10.3410696"><ele>391.66666666666663</ele><time>2026-05-02T10:28:56.804Z</time></trkpt><trkpt lat="45.6983638" lon="10.3413453"><ele>379.0</ele><time>2026-05-02T10:28:57.804Z</time></trkpt><trkpt lat="45.6984513" lon="10.3416255"><ele>383.0</ele><time>2026-05-02T10:28:58.804Z</time></trkpt><trkpt lat="45.6985925" lon="10.3419151"><ele>387.0</ele><time>2026-05-02T10:28:59.804Z</time></trkpt><trkpt lat="45.6987168" lon="10.3422294"><ele>387.0</ele><time>2026-05-02T10:29:00.804Z</time></trkpt><trkpt lat="45.6988179" lon="10.3425471"><ele>387.0</ele><time>2026-05-02T10:29:01.804Z</time></trkpt><trkpt lat="45.6988733" lon="10.3428736"><ele>388.33333333333337</ele><time>2026-05-02T10:29:02.804Z</time></trkpt><trkpt lat="45.698892" lon="10.3431943"><ele>389.6666666666667</ele><time>2026-05-02T10:29:03.804Z</time></trkpt><trkpt lat="45.6988894" lon="10.3435071"><ele>391.0</ele><time>2026-05-02T10:29:04.804Z</time></trkpt><trkpt lat="45.6988607" lon="10.3438071"><ele>388.33333333333337</ele><time>2026-05-02T10:29:05.804Z</time></trkpt><trkpt lat="45.6988681" lon="10.3440905"><ele>385.6666666666667</ele><time>2026-05-02T10:29:06.805Z</time></trkpt><trkpt lat="45.6989296" lon="10.3443449"><ele>383.0</ele><time>2026-05-02T10:29:07.804Z</time></trkpt><trkpt lat="45.6990124" lon="10.3445717"><ele>378.0</ele><time>2026-05-02T10:29:08.804Z</time></trkpt><trkpt lat="45.6990878" lon="10.3447849"><ele>373.0</ele><time>2026-05-02T10:29:09.804Z</time></trkpt><trkpt lat="45.6991434" lon="10.344993"><ele>368.0</ele><time>2026-05-02T10:29:10.804Z</time></trkpt><trkpt lat="45.6991952" lon="10.3452022"><ele>368.0</ele><time>2026-05-02T10:29:11.804Z</time></trkpt><trkpt lat="45.6992646" lon="10.345415"><ele>368.0</ele><time>2026-05-02T10:29:12.804Z</time></trkpt><trkpt lat="45.6993471" lon="10.3456423"><ele>368.0</ele><time>2026-05-02T10:29:13.804Z</time></trkpt><trkpt lat="45.6994443" lon="10.3458925"><ele>368.5</ele><time>2026-05-02T10:29:14.804Z</time></trkpt><trkpt lat="45.6995699" lon="10.3461606"><ele>369.0</ele><time>2026-05-02T10:29:15.804Z</time></trkpt><trkpt lat="45.6997305" lon="10.3464245"><ele>369.0</ele><time>2026-05-02T10:29:16.804Z</time></trkpt><trkpt lat="45.6999162" lon="10.3466907"><ele>369.0</ele><time>2026-05-02T10:29:17.804Z</time></trkpt><trkpt lat="45.7000999" lon="10.3469726"><ele>378.5</ele><time>2026-05-02T10:29:18.804Z</time></trkpt><trkpt lat="45.700281" lon="10.347281"><ele>388.0</ele><time>2026-05-02T10:29:19.804Z</time></trkpt><trkpt lat="45.7004364" lon="10.3476173"><ele>388.0</ele><time>2026-05-02T10:29:20.804Z</time></trkpt><trkpt lat="45.700565" lon="10.3479831"><ele>388.0</ele><time>2026-05-02T10:29:21.804Z</time></trkpt><trkpt lat="45.7006621" lon="10.3483811"><ele>379.0</ele><time>2026-05-02T10:29:22.804Z</time></trkpt><trkpt lat="45.7007579" lon="10.3487719"><ele>370.0</ele><time>2026-05-02T10:29:23.804Z</time></trkpt><trkpt lat="45.7008468" lon="10.3491684"><ele>364.5</ele><time>2026-05-02T10:29:24.804Z</time></trkpt><trkpt lat="45.7009467" lon="10.3495506"><ele>359.0</ele><time>2026-05-02T10:29:25.804Z</time></trkpt><trkpt lat="45.7010669" lon="10.3498932"><ele>368.5</ele><time>2026-05-02T10:29:26.804Z</time></trkpt><trkpt lat="45.7012001" lon="10.3502067"><ele>378.0</ele><time>2026-05-02T10:29:27.804Z</time></trkpt><trkpt lat="45.701342" lon="10.3505177"><ele>373.0</ele><time>2026-05-02T10:29:28.804Z</time></trkpt><trkpt lat="45.7014891" lon="10.3508437"><ele>368.0</ele><time>2026-05-02T10:29:29.804Z</time></trkpt><trkpt lat="45.701635" lon="10.3511756"><ele>364.5</ele><time>2026-05-02T10:29:30.804Z</time></trkpt><trkpt lat="45.7017838" lon="10.3515054"><ele>361.0</ele><time>2026-05-02T10:29:31.804Z</time></trkpt><trkpt lat="45.7019304" lon="10.3518443"><ele>358.0</ele><time>2026-05-02T10:29:32.804Z</time></trkpt><trkpt lat="45.7020847" lon="10.3521844"><ele>355.0</ele><time>2026-05-02T10:29:33.804Z</time></trkpt><trkpt lat="45.70224" lon="10.3525008"><ele>355.0</ele><time>2026-05-02T10:29:34.804Z</time></trkpt><trkpt lat="45.7024043" lon="10.3527899"><ele>355.0</ele><time>2026-05-02T10:29:35.804Z</time></trkpt><trkpt lat="45.7025673" lon="10.353048"><ele>353.66666666666663</ele><time>2026-05-02T10:29:36.804Z</time></trkpt><trkpt lat="45.7027303" lon="10.3532815"><ele>352.3333333333333</ele><time>2026-05-02T10:29:37.804Z</time></trkpt><trkpt lat="45.7028708" lon="10.3534983"><ele>351.0</ele><time>2026-05-02T10:29:38.804Z</time></trkpt><trkpt lat="45.7029831" lon="10.3537281"><ele>360.0</ele><time>2026-05-02T10:29:39.804Z</time></trkpt><trkpt lat="45.703061" lon="10.353973"><ele>369.0</ele><time>2026-05-02T10:29:40.804Z</time></trkpt><trkpt lat="45.7031015" lon="10.3542608"><ele>378.0</ele><time>2026-05-02T10:29:41.804Z</time></trkpt><trkpt lat="45.7031091" lon="10.3545803"><ele>372.5</ele><time>2026-05-02T10:29:42.804Z</time></trkpt><trkpt lat="45.7030938" lon="10.354932"><ele>367.0</ele><time>2026-05-02T10:29:43.804Z</time></trkpt><trkpt lat="45.7030528" lon="10.3553085"><ele>366.0</ele><time>2026-05-02T10:29:44.804Z</time></trkpt><trkpt lat="45.7029775" lon="10.3557083"><ele>365.0</ele><time>2026-05-02T10:29:45.804Z</time></trkpt><trkpt lat="45.7028982" lon="10.3561066"><ele>369.0</ele><time>2026-05-02T10:29:46.804Z</time></trkpt><trkpt lat="45.7027992" lon="10.3564828"><ele>373.0</ele><time>2026-05-02T10:29:47.804Z</time></trkpt><trkpt lat="45.7026961" lon="10.3568391"><ele>360.0</ele><time>2026-05-02T10:29:48.804Z</time></trkpt><trkpt lat="45.7026071" lon="10.357164"><ele>347.0</ele><time>2026-05-02T10:29:49.804Z</time></trkpt><trkpt lat="45.7025626" lon="10.3574907"><ele>347.0</ele><time>2026-05-02T10:29:50.804Z</time></trkpt><trkpt lat="45.7025663" lon="10.3578337"><ele>347.0</ele><time>2026-05-02T10:29:51.804Z</time></trkpt><trkpt lat="45.7026073" lon="10.3581831"><ele>345.0</ele><time>2026-05-02T10:29:52.804Z</time></trkpt><trkpt lat="45.7026797" lon="10.3585455"><ele>343.0</ele><time>2026-05-02T10:29:53.804Z</time></trkpt><trkpt lat="45.7027587" lon="10.3589066"><ele>355.5</ele><time>2026-05-02T10:29:54.804Z</time></trkpt><trkpt lat="45.7028272" lon="10.3592369"><ele>368.0</ele><time>2026-05-02T10:29:55.804Z</time></trkpt><trkpt lat="45.7028822" lon="10.3595289"><ele>366.6666666666667</ele><time>2026-05-02T10:29:56.804Z</time></trkpt><trkpt lat="45.7029052" lon="10.3598037"><ele>365.3333333333333</ele><time>2026-05-02T10:29:57.804Z</time></trkpt><trkpt lat="45.7028765" lon="10.360088"><ele>364.0</ele><time>2026-05-02T10:29:58.804Z</time></trkpt><trkpt lat="45.702793" lon="10.3603672"><ele>352.5</ele><time>2026-05-02T10:29:59.804Z</time></trkpt><trkpt lat="45.7026774" lon="10.360668"><ele>341.0</ele><time>2026-05-02T10:30:00.804Z</time></trkpt><trkpt lat="45.7025327" lon="10.3609967"><ele>341.0</ele><time>2026-05-02T10:30:01.804Z</time></trkpt><trkpt lat="45.7024146" lon="10.3613497"><ele>341.0</ele><time>2026-05-02T10:30:02.804Z</time></trkpt><trkpt lat="45.7023191" lon="10.3616855"><ele>342.0</ele><time>2026-05-02T10:30:03.804Z</time></trkpt><trkpt lat="45.7022381" lon="10.362009"><ele>343.0</ele><time>2026-05-02T10:30:04.804Z</time></trkpt><trkpt lat="45.7021434" lon="10.36234"><ele>339.0</ele><time>2026-05-02T10:30:05.804Z</time></trkpt><trkpt lat="45.7020322" lon="10.3626404"><ele>335.0</ele><time>2026-05-02T10:30:06.804Z</time></trkpt><trkpt lat="45.7019027" lon="10.3629145"><ele>333.6666666666667</ele><time>2026-05-02T10:30:07.804Z</time></trkpt><trkpt lat="45.7017457" lon="10.3631501"><ele>332.3333333333333</ele><time>2026-05-02T10:30:08.804Z</time></trkpt><trkpt lat="45.7015931" lon="10.3633447"><ele>331.0</ele><time>2026-05-02T10:30:09.804Z</time></trkpt><trkpt lat="45.7014794" lon="10.3635582"><ele>331.0</ele><time>2026-05-02T10:30:10.804Z</time></trkpt><trkpt lat="45.7014111" lon="10.3638083"><ele>331.0</ele><time>2026-05-02T10:30:11.804Z</time></trkpt><trkpt lat="45.7013973" lon="10.3641057"><ele>331.0</ele><time>2026-05-02T10:30:12.804Z</time></trkpt><trkpt lat="45.7014254" lon="10.3644358"><ele>335.0</ele><time>2026-05-02T10:30:13.804Z</time></trkpt><trkpt lat="45.7014679" lon="10.3647727"><ele>339.0</ele><time>2026-05-02T10:30:14.804Z</time></trkpt><trkpt lat="45.701492" lon="10.3650933"><ele>339.0</ele><time>2026-05-02T10:30:15.804Z</time></trkpt><trkpt lat="45.7014717" lon="10.3654144"><ele>339.0</ele><time>2026-05-02T10:30:16.804Z</time></trkpt><trkpt lat="45.7013976" lon="10.3657186"><ele>340.0</ele><time>2026-05-02T10:30:17.804Z</time></trkpt><trkpt lat="45.7013015" lon="10.3660003"><ele>341.0</ele><time>2026-05-02T10:30:18.804Z</time></trkpt><trkpt lat="45.7012014" lon="10.3662609"><ele>342.0</ele><time>2026-05-02T10:30:19.804Z</time></trkpt><trkpt lat="45.7011127" lon="10.3665149"><ele>336.0</ele><time>2026-05-02T10:30:20.804Z</time></trkpt><trkpt lat="45.7010364" lon="10.3667621"><ele>330.0</ele><time>2026-05-02T10:30:21.804Z</time></trkpt><trkpt lat="45.7009772" lon="10.3670165"><ele>324.0</ele><time>2026-05-02T10:30:22.804Z</time></trkpt><trkpt lat="45.7009455" lon="10.3672742"><ele>324.0</ele><time>2026-05-02T10:30:23.804Z</time></trkpt><trkpt lat="45.7009335" lon="10.367513"><ele>324.0</ele><time>2026-05-02T10:30:24.804Z</time></trkpt><trkpt lat="45.7009696" lon="10.3677386"><ele>324.0</ele><time>2026-05-02T10:30:25.804Z</time></trkpt><trkpt lat="45.7010382" lon="10.3679605"><ele>332.0</ele><time>2026-05-02T10:30:26.804Z</time></trkpt><trkpt lat="45.7011414" lon="10.3681928"><ele>340.0</ele><time>2026-05-02T10:30:27.804Z</time></trkpt><trkpt lat="45.701244" lon="10.3684377"><ele>348.0</ele><time>2026-05-02T10:30:28.804Z</time></trkpt><trkpt lat="45.7013423" lon="10.3687163"><ele>347.3333333333333</ele><time>2026-05-02T10:30:29.804Z</time></trkpt><trkpt lat="45.7014045" lon="10.3690225"><ele>346.66666666666663</ele><time>2026-05-02T10:30:30.805Z</time></trkpt><trkpt lat="45.7014135" lon="10.3693396"><ele>346.0</ele><time>2026-05-02T10:30:31.804Z</time></trkpt><trkpt lat="45.7013713" lon="10.3696513"><ele>348.0</ele><time>2026-05-02T10:30:32.804Z</time></trkpt><trkpt lat="45.7012898" lon="10.3699547"><ele>350.0</ele><time>2026-05-02T10:30:33.804Z</time></trkpt><trkpt lat="45.7011788" lon="10.3702372"><ele>342.0</ele><time>2026-05-02T10:30:34.804Z</time></trkpt><trkpt lat="45.701046" lon="10.3704808"><ele>334.0</ele><time>2026-05-02T10:30:35.804Z</time></trkpt><trkpt lat="45.7009218" lon="10.3706905"><ele>326.0</ele><time>2026-05-02T10:30:36.804Z</time></trkpt><trkpt lat="45.7008196" lon="10.3708755"><ele>326.0</ele><time>2026-05-02T10:30:37.804Z</time></trkpt><trkpt lat="45.7007569" lon="10.3710707"><ele>326.0</ele><time>2026-05-02T10:30:38.804Z</time></trkpt><trkpt lat="45.7007375" lon="10.3712724"><ele>326.0</ele><time>2026-05-02T10:30:39.804Z</time></trkpt><trkpt lat="45.7007838" lon="10.3715129"><ele>324.6666666666667</ele><time>2026-05-02T10:30:40.804Z</time></trkpt><trkpt lat="45.7008704" lon="10.371794"><ele>323.3333333333333</ele><time>2026-05-02T10:30:41.804Z</time></trkpt><trkpt lat="45.7009502" lon="10.3720928"><ele>322.0</ele><time>2026-05-02T10:30:42.804Z</time></trkpt><trkpt lat="45.7010137" lon="10.3723928"><ele>321.3333333333333</ele><time>2026-05-02T10:30:43.804Z</time></trkpt><trkpt lat="45.7010722" lon="10.3726907"><ele>320.6666666666667</ele><time>2026-05-02T10:30:44.804Z</time></trkpt><trkpt lat="45.701103" lon="10.3729928"><ele>320.0</ele><time>2026-05-02T10:30:45.804Z</time></trkpt><trkpt lat="45.7010953" lon="10.3733126"><ele>320.0</ele><time>2026-05-02T10:30:46.804Z</time></trkpt><trkpt lat="45.7010478" lon="10.3736536"><ele>320.0</ele><time>2026-05-02T10:30:47.804Z</time></trkpt><trkpt lat="45.7009805" lon="10.3739871"><ele>320.0</ele><time>2026-05-02T10:30:48.804Z</time></trkpt><trkpt lat="45.7008996" lon="10.3743205"><ele>320.0</ele><time>2026-05-02T10:30:49.804Z</time></trkpt><trkpt lat="45.7008476" lon="10.3746484"><ele>320.5</ele><time>2026-05-02T10:30:50.804Z</time></trkpt><trkpt lat="45.7008342" lon="10.3749882"><ele>321.0</ele><time>2026-05-02T10:30:51.804Z</time></trkpt><trkpt lat="45.7008705" lon="10.3753234"><ele>321.0</ele><time>2026-05-02T10:30:52.804Z</time></trkpt><trkpt lat="45.700966" lon="10.3756613"><ele>321.0</ele><time>2026-05-02T10:30:53.804Z</time></trkpt><trkpt lat="45.7011031" lon="10.3759817"><ele>319.0</ele><time>2026-05-02T10:30:54.804Z</time></trkpt><trkpt lat="45.7012717" lon="10.376297"><ele>317.0</ele><time>2026-05-02T10:30:55.804Z</time></trkpt><trkpt lat="45.7014696" lon="10.3765924"><ele>317.0</ele><time>2026-05-02T10:30:56.804Z</time></trkpt><trkpt lat="45.7016906" lon="10.3768881"><ele>317.0</ele><time>2026-05-02T10:30:57.804Z</time></trkpt><trkpt lat="45.7019066" lon="10.3771773"><ele>318.0</ele><time>2026-05-02T10:30:58.804Z</time></trkpt><trkpt lat="45.7021019" lon="10.3774699"><ele>319.0</ele><time>2026-05-02T10:30:59.805Z</time></trkpt><trkpt lat="45.7022864" lon="10.3777607"><ele>316.5</ele><time>2026-05-02T10:31:00.804Z</time></trkpt><trkpt lat="45.7024571" lon="10.3780268"><ele>314.0</ele><time>2026-05-02T10:31:01.804Z</time></trkpt><trkpt lat="45.7026261" lon="10.3782826"><ele>324.5</ele><time>2026-05-02T10:31:02.804Z</time></trkpt><trkpt lat="45.7027866" lon="10.3785361"><ele>335.0</ele><time>2026-05-02T10:31:03.804Z</time></trkpt><trkpt lat="45.7029243" lon="10.3787975"><ele>332.0</ele><time>2026-05-02T10:31:04.804Z</time></trkpt><trkpt lat="45.7030339" lon="10.379074"><ele>329.0</ele><time>2026-05-02T10:31:05.804Z</time></trkpt><trkpt lat="45.7031129" lon="10.3793722"><ele>326.0</ele><time>2026-05-02T10:31:06.804Z</time></trkpt><trkpt lat="45.7031767" lon="10.3796872"><ele>321.5</ele><time>2026-05-02T10:31:07.804Z</time></trkpt><trkpt lat="45.7032245" lon="10.3800136"><ele>317.0</ele><time>2026-05-02T10:31:08.804Z</time></trkpt><trkpt lat="45.7032565" lon="10.3803399"><ele>316.33333333333337</ele><time>2026-05-02T10:31:09.804Z</time></trkpt><trkpt lat="45.703285" lon="10.3806553"><ele>315.6666666666667</ele><time>2026-05-02T10:31:10.804Z</time></trkpt><trkpt lat="45.7032901" lon="10.3809608"><ele>315.0</ele><time>2026-05-02T10:31:11.804Z</time></trkpt><trkpt lat="45.7032498" lon="10.3812509"><ele>318.0</ele><time>2026-05-02T10:31:12.804Z</time></trkpt><trkpt lat="45.7031486" lon="10.3815146"><ele>321.0</ele><time>2026-05-02T10:31:13.804Z</time></trkpt><trkpt lat="45.7030001" lon="10.3817471"><ele>324.0</ele><time>2026-05-02T10:31:14.804Z</time></trkpt><trkpt lat="45.7028584" lon="10.3819915"><ele>322.6666666666667</ele><time>2026-05-02T10:31:15.804Z</time></trkpt><trkpt lat="45.7027449" lon="10.3822429"><ele>321.33333333333337</ele><time>2026-05-02T10:31:16.804Z</time></trkpt><trkpt lat="45.7026518" lon="10.3824985"><ele>320.0</ele><time>2026-05-02T10:31:17.804Z</time></trkpt><trkpt lat="45.7025626" lon="10.3827422"><ele>320.0</ele><time>2026-05-02T10:31:18.804Z</time></trkpt><trkpt lat="45.7024756" lon="10.3829739"><ele>320.0</ele><time>2026-05-02T10:31:19.804Z</time></trkpt><trkpt lat="45.7023814" lon="10.3831958"><ele>320.0</ele><time>2026-05-02T10:31:20.804Z</time></trkpt><trkpt lat="45.7022832" lon="10.3833827"><ele>319.6666666666667</ele><time>2026-05-02T10:31:21.804Z</time></trkpt><trkpt lat="45.7021607" lon="10.3835431"><ele>319.3333333333333</ele><time>2026-05-02T10:31:22.804Z</time></trkpt><trkpt lat="45.7020259" lon="10.3836641"><ele>319.0</ele><time>2026-05-02T10:31:23.804Z</time></trkpt><trkpt lat="45.7018953" lon="10.3837701"><ele>317.25</ele><time>2026-05-02T10:31:24.804Z</time></trkpt><trkpt lat="45.7017806" lon="10.3838835"><ele>315.5</ele><time>2026-05-02T10:31:25.804Z</time></trkpt><trkpt lat="45.7016842" lon="10.3840187"><ele>313.75</ele><time>2026-05-02T10:31:26.804Z</time></trkpt><trkpt lat="45.701613" lon="10.3841775"><ele>312.0</ele><time>2026-05-02T10:31:27.804Z</time></trkpt><trkpt lat="45.7015815" lon="10.3843704"><ele>312.0</ele><time>2026-05-02T10:31:28.804Z</time></trkpt><trkpt lat="45.7015865" lon="10.384587"><ele>312.0</ele><time>2026-05-02T10:31:29.804Z</time></trkpt><trkpt lat="45.7016223" lon="10.3847914"><ele>312.0</ele><time>2026-05-02T10:31:30.804Z</time></trkpt><trkpt lat="45.7016696" lon="10.3849884"><ele>312.0</ele><time>2026-05-02T10:31:31.804Z</time></trkpt><trkpt lat="45.7017149" lon="10.3851708"><ele>312.0</ele><time>2026-05-02T10:31:32.804Z</time></trkpt><trkpt lat="45.7017566" lon="10.3853434"><ele>312.0</ele><time>2026-05-02T10:31:33.804Z</time></trkpt><trkpt lat="45.7018009" lon="10.3855151"><ele>312.0</ele><time>2026-05-02T10:31:34.804Z</time></trkpt><trkpt lat="45.7018441" lon="10.3856719"><ele>312.0</ele><time>2026-05-02T10:31:35.804Z</time></trkpt><trkpt lat="45.7018899" lon="10.3858107"><ele>311.6</ele><time>2026-05-02T10:31:36.804Z</time></trkpt><trkpt lat="45.7019226" lon="10.3859417"><ele>311.2</ele><time>2026-05-02T10:31:37.804Z</time></trkpt><trkpt lat="45.7019493" lon="10.386058"><ele>310.8</ele><time>2026-05-02T10:31:38.804Z</time></trkpt><trkpt lat="45.7019691" lon="10.3861563"><ele>310.4</ele><time>2026-05-02T10:31:39.804Z</time></trkpt><trkpt lat="45.7019937" lon="10.386299"><ele>310.0</ele><time>2026-05-02T10:31:41.804Z</time></trkpt><trkpt lat="45.7020253" lon="10.3864306"><ele>309.8333333333333</ele><time>2026-05-02T10:32:29.804Z</time></trkpt><trkpt lat="45.7020655" lon="10.3865974"><ele>309.66666666666663</ele><time>2026-05-02T10:32:31.804Z</time></trkpt><trkpt lat="45.7020627" lon="10.386694"><ele>309.5</ele><time>2026-05-02T10:32:32.804Z</time></trkpt><trkpt lat="45.7020391" lon="10.3868069"><ele>309.3333333333333</ele><time>2026-05-02T10:32:33.804Z</time></trkpt><trkpt lat="45.7020255" lon="10.386932"><ele>309.1666666666667</ele><time>2026-05-02T10:32:34.804Z</time></trkpt><trkpt lat="45.702018" lon="10.387033"><ele>309.0</ele><time>2026-05-02T10:32:35.804Z</time></trkpt><trkpt lat="45.7020344" lon="10.3871215"><ele>309.0</ele><time>2026-05-02T10:32:36.804Z</time></trkpt><trkpt lat="45.7021558" lon="10.3871955"><ele>309.0</ele><time>2026-05-02T10:32:38.804Z</time></trkpt><trkpt lat="45.7022527" lon="10.3871816"><ele>309.0</ele><time>2026-05-02T10:32:39.804Z</time></trkpt><trkpt lat="45.702367" lon="10.3871557"><ele>309.0</ele><time>2026-05-02T10:32:40.804Z</time></trkpt><trkpt lat="45.7024782" lon="10.3871309"><ele>309.0</ele><time>2026-05-02T10:32:41.804Z</time></trkpt><trkpt lat="45.7025952" lon="10.3870899"><ele>309.0</ele><time>2026-05-02T10:32:42.804Z</time></trkpt><trkpt lat="45.7027056" lon="10.3870594"><ele>309.0</ele><time>2026-05-02T10:32:43.804Z</time></trkpt><trkpt lat="45.7027989" lon="10.3870707"><ele>309.0</ele><time>2026-05-02T10:32:44.804Z</time></trkpt><trkpt lat="45.702879" lon="10.3871264"><ele>309.0</ele><time>2026-05-02T10:32:45.804Z</time></trkpt><trkpt lat="45.7029557" lon="10.3872031"><ele>308.6666666666667</ele><time>2026-05-02T10:32:46.804Z</time></trkpt><trkpt lat="45.7030321" lon="10.3872796"><ele>308.3333333333333</ele><time>2026-05-02T10:32:47.804Z</time></trkpt><trkpt lat="45.7031071" lon="10.3873532"><ele>308.0</ele><time>2026-05-02T10:32:48.804Z</time></trkpt><trkpt lat="45.7031808" lon="10.3874244"><ele>307.66666666666663</ele><time>2026-05-02T10:32:49.804Z</time></trkpt><trkpt lat="45.7032502" lon="10.3874937"><ele>307.3333333333333</ele><time>2026-05-02T10:32:50.804Z</time></trkpt><trkpt lat="45.7033183" lon="10.3875598"><ele>307.0</ele><time>2026-05-02T10:32:51.804Z</time></trkpt><trkpt lat="45.7033887" lon="10.3876231"><ele>307.0</ele><time>2026-05-02T10:32:52.804Z</time></trkpt><trkpt lat="45.7034642" lon="10.3877012"><ele>307.0</ele><time>2026-05-02T10:32:53.803Z</time></trkpt><trkpt lat="45.7035405" lon="10.3878156"><ele>307.0</ele><time>2026-05-02T10:32:54.803Z</time></trkpt><trkpt lat="45.7036217" lon="10.3879902"><ele>307.0</ele><time>2026-05-02T10:32:55.803Z</time></trkpt><trkpt lat="45.7036965" lon="10.3882055"><ele>307.3333333333333</ele><time>2026-05-02T10:32:56.803Z</time></trkpt><trkpt lat="45.7037768" lon="10.3884183"><ele>307.6666666666667</ele><time>2026-05-02T10:32:57.803Z</time></trkpt><trkpt lat="45.7038622" lon="10.3886275"><ele>308.0</ele><time>2026-05-02T10:32:58.803Z</time></trkpt><trkpt lat="45.7039465" lon="10.3888437"><ele>308.0</ele><time>2026-05-02T10:32:59.803Z</time></trkpt><trkpt lat="45.7040277" lon="10.3890555"><ele>308.0</ele><time>2026-05-02T10:33:00.803Z</time></trkpt><trkpt lat="45.7041109" lon="10.3892703"><ele>308.0</ele><time>2026-05-02T10:33:01.803Z</time></trkpt><trkpt lat="45.7041967" lon="10.389486"><ele>308.33333333333337</ele><time>2026-05-02T10:33:02.803Z</time></trkpt><trkpt lat="45.7042742" lon="10.3897091"><ele>308.6666666666667</ele><time>2026-05-02T10:33:03.803Z</time></trkpt><trkpt lat="45.7043405" lon="10.3899438"><ele>309.0</ele><time>2026-05-02T10:33:04.803Z</time></trkpt><trkpt lat="45.7043908" lon="10.3901852"><ele>314.3333333333333</ele><time>2026-05-02T10:33:05.803Z</time></trkpt><trkpt lat="45.7044415" lon="10.3904299"><ele>319.66666666666663</ele><time>2026-05-02T10:33:06.803Z</time></trkpt><trkpt lat="45.7044935" lon="10.3906808"><ele>325.0</ele><time>2026-05-02T10:33:07.803Z</time></trkpt><trkpt lat="45.7045449" lon="10.3909381"><ele>325.66666666666663</ele><time>2026-05-02T10:33:08.803Z</time></trkpt><trkpt lat="45.704595" lon="10.3911932"><ele>326.3333333333333</ele><time>2026-05-02T10:33:09.803Z</time></trkpt><trkpt lat="45.7046355" lon="10.391451"><ele>327.0</ele><time>2026-05-02T10:33:10.803Z</time></trkpt><trkpt lat="45.7046802" lon="10.3917049"><ele>327.0</ele><time>2026-05-02T10:33:11.803Z</time></trkpt><trkpt lat="45.7047264" lon="10.39196"><ele>327.0</ele><time>2026-05-02T10:33:12.803Z</time></trkpt><trkpt lat="45.7047828" lon="10.3922152"><ele>327.0</ele><time>2026-05-02T10:33:13.803Z</time></trkpt><trkpt lat="45.7048274" lon="10.3924703"><ele>325.6666666666667</ele><time>2026-05-02T10:33:14.803Z</time></trkpt><trkpt lat="45.7048721" lon="10.392723"><ele>324.33333333333337</ele><time>2026-05-02T10:33:15.803Z</time></trkpt><trkpt lat="45.7049167" lon="10.3929762"><ele>323.0</ele><time>2026-05-02T10:33:16.803Z</time></trkpt><trkpt lat="45.70496" lon="10.393232"><ele>321.33333333333337</ele><time>2026-05-02T10:33:17.803Z</time></trkpt><trkpt lat="45.7049995" lon="10.3934798"><ele>319.6666666666667</ele><time>2026-05-02T10:33:18.803Z</time></trkpt><trkpt lat="45.7050442" lon="10.3937324"><ele>318.0</ele><time>2026-05-02T10:33:19.803Z</time></trkpt><trkpt lat="45.7050955" lon="10.3939841"><ele>320.3333333333333</ele><time>2026-05-02T10:33:20.803Z</time></trkpt><trkpt lat="45.7051512" lon="10.394239"><ele>322.66666666666663</ele><time>2026-05-02T10:33:21.803Z</time></trkpt><trkpt lat="45.7052088" lon="10.3944973"><ele>325.0</ele><time>2026-05-02T10:33:22.803Z</time></trkpt><trkpt lat="45.7052889" lon="10.3947511"><ele>325.0</ele><time>2026-05-02T10:33:23.803Z</time></trkpt><trkpt lat="45.7053629" lon="10.3950053"><ele>325.0</ele><time>2026-05-02T10:33:24.803Z</time></trkpt><trkpt lat="45.7054458" lon="10.3952555"><ele>325.0</ele><time>2026-05-02T10:33:25.803Z</time></trkpt><trkpt lat="45.7055305" lon="10.3954976"><ele>323.0</ele><time>2026-05-02T10:33:26.803Z</time></trkpt><trkpt lat="45.7056066" lon="10.3957463"><ele>321.0</ele><time>2026-05-02T10:33:27.803Z</time></trkpt><trkpt lat="45.7056709" lon="10.3960005"><ele>319.0</ele><time>2026-05-02T10:33:28.803Z</time></trkpt><trkpt lat="45.7057315" lon="10.3962546"><ele>317.0</ele><time>2026-05-02T10:33:29.803Z</time></trkpt><trkpt lat="45.7057875" lon="10.3965115"><ele>315.0</ele><time>2026-05-02T10:33:30.803Z</time></trkpt><trkpt lat="45.7058331" lon="10.3967546"><ele>313.0</ele><time>2026-05-02T10:33:31.803Z</time></trkpt><trkpt lat="45.7058781" lon="10.3969817"><ele>313.3333333333333</ele><time>2026-05-02T10:33:32.803Z</time></trkpt><trkpt lat="45.7059159" lon="10.3972008"><ele>313.6666666666667</ele><time>2026-05-02T10:33:33.803Z</time></trkpt><trkpt lat="45.7059545" lon="10.3974132"><ele>314.0</ele><time>2026-05-02T10:33:34.803Z</time></trkpt><trkpt lat="45.7059873" lon="10.3976205"><ele>314.0</ele><time>2026-05-02T10:33:35.803Z</time></trkpt><trkpt lat="45.7060187" lon="10.3978175"><ele>314.0</ele><time>2026-05-02T10:33:36.803Z</time></trkpt><trkpt lat="45.7060463" lon="10.3980114"><ele>314.0</ele><time>2026-05-02T10:33:37.803Z</time></trkpt><trkpt lat="45.7060802" lon="10.3981956"><ele>314.0</ele><time>2026-05-02T10:33:38.803Z</time></trkpt><trkpt lat="45.706115" lon="10.3983812"><ele>315.75</ele><time>2026-05-02T10:33:39.803Z</time></trkpt><trkpt lat="45.7061544" lon="10.3985638"><ele>317.5</ele><time>2026-05-02T10:33:40.803Z</time></trkpt><trkpt lat="45.7062004" lon="10.3987486"><ele>319.25</ele><time>2026-05-02T10:33:41.803Z</time></trkpt><trkpt lat="45.7062574" lon="10.3989464"><ele>321.0</ele><time>2026-05-02T10:33:42.803Z</time></trkpt><trkpt lat="45.7063309" lon="10.3991501"><ele>321.0</ele><time>2026-05-02T10:33:43.803Z</time></trkpt><trkpt lat="45.7064263" lon="10.3993578"><ele>321.0</ele><time>2026-05-02T10:33:44.803Z</time></trkpt><trkpt lat="45.7065217" lon="10.3995693"><ele>321.0</ele><time>2026-05-02T10:33:45.803Z</time></trkpt><trkpt lat="45.7066123" lon="10.3997773"><ele>319.6666666666667</ele><time>2026-05-02T10:33:46.803Z</time></trkpt><trkpt lat="45.7066917" lon="10.3999724"><ele>318.33333333333337</ele><time>2026-05-02T10:33:47.803Z</time></trkpt><trkpt lat="45.7067715" lon="10.4001571"><ele>317.0</ele><time>2026-05-02T10:33:48.803Z</time></trkpt><trkpt lat="45.7068473" lon="10.4003334"><ele>317.0</ele><time>2026-05-02T10:33:49.803Z</time></trkpt><trkpt lat="45.706926" lon="10.4005082"><ele>317.0</ele><time>2026-05-02T10:33:50.803Z</time></trkpt><trkpt lat="45.7070144" lon="10.4006885"><ele>317.0</ele><time>2026-05-02T10:33:51.803Z</time></trkpt><trkpt lat="45.707115" lon="10.4008813"><ele>317.0</ele><time>2026-05-02T10:33:52.803Z</time></trkpt><trkpt lat="45.7072312" lon="10.4010902"><ele>317.0</ele><time>2026-05-02T10:33:53.803Z</time></trkpt><trkpt lat="45.7073517" lon="10.4013027"><ele>317.0</ele><time>2026-05-02T10:33:54.803Z</time></trkpt><trkpt lat="45.7074714" lon="10.4015067"><ele>316.0</ele><time>2026-05-02T10:33:55.803Z</time></trkpt><trkpt lat="45.7075793" lon="10.4017105"><ele>315.0</ele><time>2026-05-02T10:33:56.803Z</time></trkpt><trkpt lat="45.7076789" lon="10.4019227"><ele>314.0</ele><time>2026-05-02T10:33:57.803Z</time></trkpt><trkpt lat="45.7077768" lon="10.402145"><ele>314.33333333333337</ele><time>2026-05-02T10:33:58.803Z</time></trkpt><trkpt lat="45.7078769" lon="10.402353"><ele>314.6666666666667</ele><time>2026-05-02T10:33:59.803Z</time></trkpt><trkpt lat="45.7079693" lon="10.4025688"><ele>315.0</ele><time>2026-05-02T10:34:00.803Z</time></trkpt><trkpt lat="45.7080555" lon="10.4027839"><ele>315.0</ele><time>2026-05-02T10:34:01.803Z</time></trkpt><trkpt lat="45.7081434" lon="10.4029938"><ele>315.0</ele><time>2026-05-02T10:34:02.803Z</time></trkpt><trkpt lat="45.7082297" lon="10.4032061"><ele>315.0</ele><time>2026-05-02T10:34:03.803Z</time></trkpt><trkpt lat="45.7083146" lon="10.403414"><ele>315.3333333333333</ele><time>2026-05-02T10:34:04.803Z</time></trkpt><trkpt lat="45.7084028" lon="10.4036182"><ele>315.66666666666663</ele><time>2026-05-02T10:34:05.803Z</time></trkpt><trkpt lat="45.7084923" lon="10.4038309"><ele>316.0</ele><time>2026-05-02T10:34:06.803Z</time></trkpt><trkpt lat="45.7085797" lon="10.4040428"><ele>317.0</ele><time>2026-05-02T10:34:07.803Z</time></trkpt><trkpt lat="45.7086661" lon="10.4042556"><ele>318.0</ele><time>2026-05-02T10:34:08.803Z</time></trkpt><trkpt lat="45.7087472" lon="10.4044525"><ele>319.0</ele><time>2026-05-02T10:34:09.803Z</time></trkpt><trkpt lat="45.7088286" lon="10.404643"><ele>318.66666666666663</ele><time>2026-05-02T10:34:10.803Z</time></trkpt><trkpt lat="45.7089171" lon="10.4048195"><ele>318.3333333333333</ele><time>2026-05-02T10:34:11.803Z</time></trkpt><trkpt lat="45.7090234" lon="10.4049721"><ele>318.0</ele><time>2026-05-02T10:34:12.803Z</time></trkpt><trkpt lat="45.709147" lon="10.4050999"><ele>318.0</ele><time>2026-05-02T10:34:13.803Z</time></trkpt><trkpt lat="45.7092804" lon="10.4051891"><ele>318.0</ele><time>2026-05-02T10:34:14.803Z</time></trkpt><trkpt lat="45.709435" lon="10.4052502"><ele>318.0</ele><time>2026-05-02T10:34:15.803Z</time></trkpt><trkpt lat="45.7095945" lon="10.4052986"><ele>318.0</ele><time>2026-05-02T10:34:16.803Z</time></trkpt><trkpt lat="45.7097603" lon="10.4053439"><ele>318.0</ele><time>2026-05-02T10:34:17.803Z</time></trkpt><trkpt lat="45.7099274" lon="10.4053837"><ele>318.0</ele><time>2026-05-02T10:34:18.803Z</time></trkpt><trkpt lat="45.7100885" lon="10.4054387"><ele>319.0</ele><time>2026-05-02T10:34:19.803Z</time></trkpt><trkpt lat="45.7102416" lon="10.4054963"><ele>320.0</ele><time>2026-05-02T10:34:20.803Z</time></trkpt><trkpt lat="45.7103855" lon="10.4055592"><ele>321.0</ele><time>2026-05-02T10:34:21.803Z</time></trkpt><trkpt lat="45.7105194" lon="10.4056423"><ele>321.0</ele><time>2026-05-02T10:34:22.803Z</time></trkpt><trkpt lat="45.7106579" lon="10.4057431"><ele>321.0</ele><time>2026-05-02T10:34:23.803Z</time></trkpt><trkpt lat="45.7107863" lon="10.4058647"><ele>321.0</ele><time>2026-05-02T10:34:24.803Z</time></trkpt><trkpt lat="45.7109031" lon="10.4060164"><ele>321.0</ele><time>2026-05-02T10:34:25.803Z</time></trkpt><trkpt lat="45.7110237" lon="10.4061877"><ele>321.0</ele><time>2026-05-02T10:34:26.803Z</time></trkpt><trkpt lat="45.711142" lon="10.4063651"><ele>321.0</ele><time>2026-05-02T10:34:27.803Z</time></trkpt><trkpt lat="45.7112559" lon="10.4065419"><ele>323.3333333333333</ele><time>2026-05-02T10:34:28.803Z</time></trkpt><trkpt lat="45.7113739" lon="10.4067113"><ele>325.66666666666663</ele><time>2026-05-02T10:34:29.803Z</time></trkpt><trkpt lat="45.7114994" lon="10.4068811"><ele>328.0</ele><time>2026-05-02T10:34:30.803Z</time></trkpt><trkpt lat="45.7116215" lon="10.407058"><ele>326.0</ele><time>2026-05-02T10:34:31.803Z</time></trkpt><trkpt lat="45.7117214" lon="10.4072709"><ele>324.0</ele><time>2026-05-02T10:34:32.803Z</time></trkpt><trkpt lat="45.7118156" lon="10.4075053"><ele>322.0</ele><time>2026-05-02T10:34:33.803Z</time></trkpt><trkpt lat="45.7119149" lon="10.4077634"><ele>325.3333333333333</ele><time>2026-05-02T10:34:34.803Z</time></trkpt><trkpt lat="45.7120118" lon="10.4080404"><ele>328.6666666666667</ele><time>2026-05-02T10:34:35.803Z</time></trkpt><trkpt lat="45.7121106" lon="10.4083355"><ele>332.0</ele><time>2026-05-02T10:34:36.803Z</time></trkpt><trkpt lat="45.7122138" lon="10.4086539"><ele>332.0</ele><time>2026-05-02T10:34:37.803Z</time></trkpt><trkpt lat="45.7123188" lon="10.4089883"><ele>332.0</ele><time>2026-05-02T10:34:38.803Z</time></trkpt><trkpt lat="45.7124315" lon="10.4093338"><ele>328.5</ele><time>2026-05-02T10:34:39.803Z</time></trkpt><trkpt lat="45.7125537" lon="10.4096776"><ele>325.0</ele><time>2026-05-02T10:34:40.803Z</time></trkpt><trkpt lat="45.7126803" lon="10.4100249"><ele>332.5</ele><time>2026-05-02T10:34:41.803Z</time></trkpt><trkpt lat="45.7128048" lon="10.410365"><ele>340.0</ele><time>2026-05-02T10:34:42.803Z</time></trkpt><trkpt lat="45.7129232" lon="10.4107037"><ele>340.0</ele><time>2026-05-02T10:34:43.803Z</time></trkpt><trkpt lat="45.7130409" lon="10.4110332"><ele>340.0</ele><time>2026-05-02T10:34:44.803Z</time></trkpt><trkpt lat="45.7131579" lon="10.4113579"><ele>336.5</ele><time>2026-05-02T10:34:45.803Z</time></trkpt><trkpt lat="45.7132789" lon="10.4116746"><ele>333.0</ele><time>2026-05-02T10:34:46.803Z</time></trkpt><trkpt lat="45.7134149" lon="10.4119621"><ele>337.5</ele><time>2026-05-02T10:34:47.803Z</time></trkpt><trkpt lat="45.7135796" lon="10.4122025"><ele>342.0</ele><time>2026-05-02T10:34:48.803Z</time></trkpt><trkpt lat="45.7137633" lon="10.4123963"><ele>342.0</ele><time>2026-05-02T10:34:49.803Z</time></trkpt><trkpt lat="45.7139791" lon="10.4125277"><ele>342.0</ele><time>2026-05-02T10:34:50.803Z</time></trkpt><trkpt lat="45.7142055" lon="10.4126398"><ele>343.5</ele><time>2026-05-02T10:34:51.803Z</time></trkpt><trkpt lat="45.714437" lon="10.4127536"><ele>345.0</ele><time>2026-05-02T10:34:52.803Z</time></trkpt><trkpt lat="45.7146648" lon="10.4128966"><ele>341.0</ele><time>2026-05-02T10:34:53.803Z</time></trkpt><trkpt lat="45.7148754" lon="10.4130613"><ele>337.0</ele><time>2026-05-02T10:34:54.803Z</time></trkpt><trkpt lat="45.7150667" lon="10.4132584"><ele>341.0</ele><time>2026-05-02T10:34:55.803Z</time></trkpt><trkpt lat="45.7152504" lon="10.4134852"><ele>345.0</ele><time>2026-05-02T10:34:56.803Z</time></trkpt><trkpt lat="45.715437" lon="10.4137379"><ele>341.5</ele><time>2026-05-02T10:34:57.803Z</time></trkpt><trkpt lat="45.7156223" lon="10.4140049"><ele>338.0</ele><time>2026-05-02T10:34:58.803Z</time></trkpt><trkpt lat="45.7158037" lon="10.414279"><ele>338.0</ele><time>2026-05-02T10:34:59.803Z</time></trkpt><trkpt lat="45.7159765" lon="10.4145443"><ele>338.0</ele><time>2026-05-02T10:35:00.803Z</time></trkpt><trkpt lat="45.7161309" lon="10.4147935"><ele>342.6666666666667</ele><time>2026-05-02T10:35:01.803Z</time></trkpt><trkpt lat="45.7162681" lon="10.4150085"><ele>347.3333333333333</ele><time>2026-05-02T10:35:02.803Z</time></trkpt><trkpt lat="45.7163873" lon="10.4152135"><ele>352.0</ele><time>2026-05-02T10:35:03.803Z</time></trkpt><trkpt lat="45.7164862" lon="10.4154123"><ele>347.5</ele><time>2026-05-02T10:35:04.803Z</time></trkpt><trkpt lat="45.7165657" lon="10.4155883"><ele>343.0</ele><time>2026-05-02T10:35:05.803Z</time></trkpt><trkpt lat="45.7166506" lon="10.415743"><ele>338.5</ele><time>2026-05-02T10:35:06.803Z</time></trkpt><trkpt lat="45.7167567" lon="10.4158817"><ele>334.0</ele><time>2026-05-02T10:35:07.803Z</time></trkpt><trkpt lat="45.716878" lon="10.4160325"><ele>338.3333333333333</ele><time>2026-05-02T10:35:08.803Z</time></trkpt><trkpt lat="45.7170035" lon="10.4162013"><ele>342.6666666666667</ele><time>2026-05-02T10:35:09.803Z</time></trkpt><trkpt lat="45.7171329" lon="10.4164002"><ele>347.0</ele><time>2026-05-02T10:35:10.803Z</time></trkpt><trkpt lat="45.7172658" lon="10.4165971"><ele>347.0</ele><time>2026-05-02T10:35:11.803Z</time></trkpt><trkpt lat="45.7173936" lon="10.4167975"><ele>347.0</ele><time>2026-05-02T10:35:12.803Z</time></trkpt><trkpt lat="45.717528" lon="10.4170012"><ele>347.0</ele><time>2026-05-02T10:35:13.803Z</time></trkpt><trkpt lat="45.7176644" lon="10.4171974"><ele>347.6666666666667</ele><time>2026-05-02T10:35:14.803Z</time></trkpt><trkpt lat="45.7177998" lon="10.4173903"><ele>348.3333333333333</ele><time>2026-05-02T10:35:15.803Z</time></trkpt><trkpt lat="45.7179316" lon="10.4175691"><ele>349.0</ele><time>2026-05-02T10:35:16.803Z</time></trkpt><trkpt lat="45.7180618" lon="10.417729"><ele>349.0</ele><time>2026-05-02T10:35:17.803Z</time></trkpt><trkpt lat="45.7181919" lon="10.417889"><ele>349.0</ele><time>2026-05-02T10:35:18.803Z</time></trkpt><trkpt lat="45.7183264" lon="10.4180777"><ele>349.0</ele><time>2026-05-02T10:35:19.803Z</time></trkpt><trkpt lat="45.7184606" lon="10.4182904"><ele>347.0</ele><time>2026-05-02T10:35:20.803Z</time></trkpt><trkpt lat="45.7185968" lon="10.418509"><ele>345.0</ele><time>2026-05-02T10:35:21.803Z</time></trkpt><trkpt lat="45.7187285" lon="10.41872"><ele>343.0</ele><time>2026-05-02T10:35:22.803Z</time></trkpt><trkpt lat="45.7188546" lon="10.418926"><ele>339.3333333333333</ele><time>2026-05-02T10:35:23.803Z</time></trkpt><trkpt lat="45.7189721" lon="10.4191116"><ele>335.6666666666667</ele><time>2026-05-02T10:35:24.803Z</time></trkpt><trkpt lat="45.7190832" lon="10.4192762"><ele>332.0</ele><time>2026-05-02T10:35:25.804Z</time></trkpt><trkpt lat="45.7191878" lon="10.4194203"><ele>332.0</ele><time>2026-05-02T10:35:26.803Z</time></trkpt><trkpt lat="45.7192839" lon="10.4195513"><ele>332.0</ele><time>2026-05-02T10:35:27.803Z</time></trkpt><trkpt lat="45.7193892" lon="10.419694"><ele>332.0</ele><time>2026-05-02T10:35:28.803Z</time></trkpt><trkpt lat="45.7195099" lon="10.4198629"><ele>332.0</ele><time>2026-05-02T10:35:29.803Z</time></trkpt><trkpt lat="45.7196502" lon="10.4200665"><ele>331.5</ele><time>2026-05-02T10:35:30.803Z</time></trkpt><trkpt lat="45.7198086" lon="10.4203039"><ele>331.0</ele><time>2026-05-02T10:35:31.803Z</time></trkpt><trkpt lat="45.7199804" lon="10.4205564"><ele>331.0</ele><time>2026-05-02T10:35:32.803Z</time></trkpt><trkpt lat="45.7201569" lon="10.4208203"><ele>331.0</ele><time>2026-05-02T10:35:33.803Z</time></trkpt><trkpt lat="45.7203241" lon="10.4210661"><ele>330.0</ele><time>2026-05-02T10:35:34.803Z</time></trkpt><trkpt lat="45.720486" lon="10.4213007"><ele>329.0</ele><time>2026-05-02T10:35:35.803Z</time></trkpt><trkpt lat="45.7206345" lon="10.4215327"><ele>329.0</ele><time>2026-05-02T10:35:36.803Z</time></trkpt><trkpt lat="45.7207762" lon="10.4217435"><ele>329.0</ele><time>2026-05-02T10:35:37.803Z</time></trkpt><trkpt lat="45.7209086" lon="10.421933"><ele>329.0</ele><time>2026-05-02T10:35:38.803Z</time></trkpt><trkpt lat="45.7210287" lon="10.4221298"><ele>330.33333333333337</ele><time>2026-05-02T10:35:39.803Z</time></trkpt><trkpt lat="45.7211468" lon="10.4223667"><ele>331.6666666666667</ele><time>2026-05-02T10:35:40.803Z</time></trkpt><trkpt lat="45.7212517" lon="10.4226448"><ele>333.0</ele><time>2026-05-02T10:35:41.803Z</time></trkpt><trkpt lat="45.721348" lon="10.4229544"><ele>330.5</ele><time>2026-05-02T10:35:42.803Z</time></trkpt><trkpt lat="45.7214472" lon="10.4232709"><ele>328.0</ele><time>2026-05-02T10:35:43.803Z</time></trkpt><trkpt lat="45.7215458" lon="10.4235776"><ele>329.0</ele><time>2026-05-02T10:35:44.803Z</time></trkpt><trkpt lat="45.7216468" lon="10.4238856"><ele>330.0</ele><time>2026-05-02T10:35:45.803Z</time></trkpt><trkpt lat="45.7217777" lon="10.4241741"><ele>330.5</ele><time>2026-05-02T10:35:46.803Z</time></trkpt><trkpt lat="45.7219312" lon="10.424431"><ele>331.0</ele><time>2026-05-02T10:35:47.803Z</time></trkpt><trkpt lat="45.7221116" lon="10.4246419"><ele>330.3333333333333</ele><time>2026-05-02T10:35:48.803Z</time></trkpt><trkpt lat="45.7222913" lon="10.424826"><ele>329.6666666666667</ele><time>2026-05-02T10:35:49.803Z</time></trkpt><trkpt lat="45.7224458" lon="10.4250205"><ele>329.0</ele><time>2026-05-02T10:35:50.803Z</time></trkpt><trkpt lat="45.7225715" lon="10.4252157"><ele>329.0</ele><time>2026-05-02T10:35:51.803Z</time></trkpt><trkpt lat="45.7226757" lon="10.425409"><ele>329.0</ele><time>2026-05-02T10:35:52.803Z</time></trkpt><trkpt lat="45.7227681" lon="10.4255929"><ele>329.0</ele><time>2026-05-02T10:35:53.803Z</time></trkpt><trkpt lat="45.722858" lon="10.4257674"><ele>329.75</ele><time>2026-05-02T10:35:54.803Z</time></trkpt><trkpt lat="45.7229461" lon="10.4259306"><ele>330.5</ele><time>2026-05-02T10:35:55.803Z</time></trkpt><trkpt lat="45.7230294" lon="10.4260943"><ele>331.25</ele><time>2026-05-02T10:35:56.803Z</time></trkpt><trkpt lat="45.723112" lon="10.4262538"><ele>332.0</ele><time>2026-05-02T10:35:57.803Z</time></trkpt><trkpt lat="45.7232069" lon="10.4264127"><ele>332.0</ele><time>2026-05-02T10:35:58.803Z</time></trkpt><trkpt lat="45.7233179" lon="10.4265728"><ele>332.0</ele><time>2026-05-02T10:35:59.803Z</time></trkpt><trkpt lat="45.7234513" lon="10.4267498"><ele>332.0</ele><time>2026-05-02T10:36:00.803Z</time></trkpt><trkpt lat="45.7235978" lon="10.4269378"><ele>332.6666666666667</ele><time>2026-05-02T10:36:01.803Z</time></trkpt><trkpt lat="45.7237417" lon="10.4271297"><ele>333.3333333333333</ele><time>2026-05-02T10:36:02.803Z</time></trkpt><trkpt lat="45.7238772" lon="10.4273105"><ele>334.0</ele><time>2026-05-02T10:36:03.803Z</time></trkpt><trkpt lat="45.7240082" lon="10.4274836"><ele>334.0</ele><time>2026-05-02T10:36:04.803Z</time></trkpt><trkpt lat="45.7241299" lon="10.427656"><ele>334.0</ele><time>2026-05-02T10:36:05.803Z</time></trkpt><trkpt lat="45.7242436" lon="10.4278162"><ele>334.0</ele><time>2026-05-02T10:36:06.803Z</time></trkpt><trkpt lat="45.7243548" lon="10.427971"><ele>336.66666666666663</ele><time>2026-05-02T10:36:07.803Z</time></trkpt><trkpt lat="45.7244731" lon="10.4281272"><ele>339.3333333333333</ele><time>2026-05-02T10:36:08.803Z</time></trkpt><trkpt lat="45.7245957" lon="10.4283023"><ele>342.0</ele><time>2026-05-02T10:36:09.803Z</time></trkpt><trkpt lat="45.7247136" lon="10.4284967"><ele>342.0</ele><time>2026-05-02T10:36:10.803Z</time></trkpt><trkpt lat="45.7248149" lon="10.4287045"><ele>342.0</ele><time>2026-05-02T10:36:11.803Z</time></trkpt><trkpt lat="45.7249044" lon="10.4289114"><ele>342.0</ele><time>2026-05-02T10:36:12.803Z</time></trkpt><trkpt lat="45.7249951" lon="10.4291017"><ele>342.3333333333333</ele><time>2026-05-02T10:36:13.803Z</time></trkpt><trkpt lat="45.7251032" lon="10.4293037"><ele>342.66666666666663</ele><time>2026-05-02T10:36:14.803Z</time></trkpt><trkpt lat="45.7252403" lon="10.4295128"><ele>343.0</ele><time>2026-05-02T10:36:15.803Z</time></trkpt><trkpt lat="45.7253797" lon="10.4297213"><ele>340.0</ele><time>2026-05-02T10:36:16.803Z</time></trkpt><trkpt lat="45.7255205" lon="10.4299177"><ele>337.0</ele><time>2026-05-02T10:36:17.803Z</time></trkpt><trkpt lat="45.7256515" lon="10.4301025"><ele>334.0</ele><time>2026-05-02T10:36:18.803Z</time></trkpt><trkpt lat="45.7257801" lon="10.4302701"><ele>334.0</ele><time>2026-05-02T10:36:19.803Z</time></trkpt><trkpt lat="45.7259104" lon="10.4304378"><ele>334.0</ele><time>2026-05-02T10:36:20.803Z</time></trkpt><trkpt lat="45.7260517" lon="10.4306174"><ele>334.0</ele><time>2026-05-02T10:36:21.803Z</time></trkpt><trkpt lat="45.7262126" lon="10.4308152"><ele>334.5</ele><time>2026-05-02T10:36:22.803Z</time></trkpt><trkpt lat="45.7263712" lon="10.4310443"><ele>335.0</ele><time>2026-05-02T10:36:23.803Z</time></trkpt><trkpt lat="45.7265416" lon="10.4312865"><ele>331.5</ele><time>2026-05-02T10:36:24.803Z</time></trkpt><trkpt lat="45.7267276" lon="10.4315341"><ele>328.0</ele><time>2026-05-02T10:36:25.803Z</time></trkpt><trkpt lat="45.7269221" lon="10.4317796"><ele>329.5</ele><time>2026-05-02T10:36:26.803Z</time></trkpt><trkpt lat="45.7271172" lon="10.4320066"><ele>331.0</ele><time>2026-05-02T10:36:27.803Z</time></trkpt><trkpt lat="45.7273032" lon="10.4322158"><ele>331.0</ele><time>2026-05-02T10:36:28.803Z</time></trkpt><trkpt lat="45.727472" lon="10.4323993"><ele>331.0</ele><time>2026-05-02T10:36:29.803Z</time></trkpt><trkpt lat="45.7276233" lon="10.432555"><ele>331.0</ele><time>2026-05-02T10:36:30.803Z</time></trkpt><trkpt lat="45.7277788" lon="10.4326589"><ele>333.3333333333333</ele><time>2026-05-02T10:36:31.803Z</time></trkpt><trkpt lat="45.7279395" lon="10.4327057"><ele>335.6666666666667</ele><time>2026-05-02T10:36:32.803Z</time></trkpt><trkpt lat="45.7281109" lon="10.4326442"><ele>338.0</ele><time>2026-05-02T10:36:33.803Z</time></trkpt><trkpt lat="45.7282905" lon="10.4326086"><ele>338.0</ele><time>2026-05-02T10:36:34.803Z</time></trkpt><trkpt lat="45.7284811" lon="10.4326335"><ele>338.0</ele><time>2026-05-02T10:36:35.803Z</time></trkpt><trkpt lat="45.728676" lon="10.4327401"><ele>338.0</ele><time>2026-05-02T10:36:36.803Z</time></trkpt><trkpt lat="45.7288602" lon="10.4329361"><ele>339.0</ele><time>2026-05-02T10:36:37.803Z</time></trkpt><trkpt lat="45.7290291" lon="10.4332056"><ele>340.0</ele><time>2026-05-02T10:36:38.803Z</time></trkpt><trkpt lat="45.7291799" lon="10.4335084"><ele>340.0</ele><time>2026-05-02T10:36:39.803Z</time></trkpt><trkpt lat="45.7293315" lon="10.4338004"><ele>340.0</ele><time>2026-05-02T10:36:40.803Z</time></trkpt><trkpt lat="45.7294978" lon="10.4340443"><ele>339.66666666666663</ele><time>2026-05-02T10:36:41.803Z</time></trkpt><trkpt lat="45.7296842" lon="10.4342438"><ele>339.3333333333333</ele><time>2026-05-02T10:36:42.803Z</time></trkpt><trkpt lat="45.7298722" lon="10.434381"><ele>339.0</ele><time>2026-05-02T10:36:43.803Z</time></trkpt><trkpt lat="45.7300573" lon="10.4344706"><ele>340.0</ele><time>2026-05-02T10:36:44.803Z</time></trkpt><trkpt lat="45.7302351" lon="10.4345291"><ele>341.0</ele><time>2026-05-02T10:36:45.803Z</time></trkpt><trkpt lat="45.7303927" lon="10.4345797"><ele>342.0</ele><time>2026-05-02T10:36:46.803Z</time></trkpt><trkpt lat="45.7305371" lon="10.4345958"><ele>342.0</ele><time>2026-05-02T10:36:47.803Z</time></trkpt><trkpt lat="45.7306679" lon="10.4345691"><ele>342.0</ele><time>2026-05-02T10:36:48.803Z</time></trkpt><trkpt lat="45.7307835" lon="10.4345139"><ele>342.0</ele><time>2026-05-02T10:36:49.803Z</time></trkpt><trkpt lat="45.7308958" lon="10.43445"><ele>342.0</ele><time>2026-05-02T10:36:50.803Z</time></trkpt><trkpt lat="45.7310196" lon="10.434381"><ele>343.3333333333333</ele><time>2026-05-02T10:36:51.803Z</time></trkpt><trkpt lat="45.7311623" lon="10.4342922"><ele>344.66666666666663</ele><time>2026-05-02T10:36:52.803Z</time></trkpt><trkpt lat="45.7313176" lon="10.4341966"><ele>346.0</ele><time>2026-05-02T10:36:53.803Z</time></trkpt><trkpt lat="45.7314974" lon="10.4341004"><ele>346.0</ele><time>2026-05-02T10:36:54.803Z</time></trkpt><trkpt lat="45.7316929" lon="10.4340009"><ele>346.0</ele><time>2026-05-02T10:36:55.803Z</time></trkpt><trkpt lat="45.7318965" lon="10.4339137"><ele>346.0</ele><time>2026-05-02T10:36:56.803Z</time></trkpt><trkpt lat="45.7320879" lon="10.433889"><ele>346.3333333333333</ele><time>2026-05-02T10:36:57.803Z</time></trkpt><trkpt lat="45.7322786" lon="10.4339398"><ele>346.6666666666667</ele><time>2026-05-02T10:36:58.803Z</time></trkpt><trkpt lat="45.7324914" lon="10.4340547"><ele>347.0</ele><time>2026-05-02T10:36:59.803Z</time></trkpt><trkpt lat="45.7327049" lon="10.4342151"><ele>352.5</ele><time>2026-05-02T10:37:00.803Z</time></trkpt><trkpt lat="45.7329321" lon="10.434356"><ele>358.0</ele><time>2026-05-02T10:37:01.803Z</time></trkpt><trkpt lat="45.7331437" lon="10.4344881"><ele>358.0</ele><time>2026-05-02T10:37:02.803Z</time></trkpt><trkpt lat="45.7333606" lon="10.434578"><ele>358.0</ele><time>2026-05-02T10:37:03.803Z</time></trkpt><trkpt lat="45.7335942" lon="10.4346169"><ele>361.5</ele><time>2026-05-02T10:37:04.803Z</time></trkpt><trkpt lat="45.7338446" lon="10.4346166"><ele>365.0</ele><time>2026-05-02T10:37:05.803Z</time></trkpt><trkpt lat="45.734092" lon="10.4345963"><ele>365.0</ele><time>2026-05-02T10:37:06.803Z</time></trkpt><trkpt lat="45.7343227" lon="10.4345583"><ele>365.0</ele><time>2026-05-02T10:37:07.803Z</time></trkpt><trkpt lat="45.7345446" lon="10.4345246"><ele>365.6666666666667</ele><time>2026-05-02T10:37:08.803Z</time></trkpt><trkpt lat="45.7347625" lon="10.4344731"><ele>366.3333333333333</ele><time>2026-05-02T10:37:09.803Z</time></trkpt><trkpt lat="45.7349762" lon="10.4344203"><ele>367.0</ele><time>2026-05-02T10:37:10.803Z</time></trkpt><trkpt lat="45.735182" lon="10.4344193"><ele>363.66666666666663</ele><time>2026-05-02T10:37:11.803Z</time></trkpt><trkpt lat="45.735397" lon="10.434479"><ele>360.3333333333333</ele><time>2026-05-02T10:37:12.803Z</time></trkpt><trkpt lat="45.7355969" lon="10.4346083"><ele>357.0</ele><time>2026-05-02T10:37:13.803Z</time></trkpt><trkpt lat="45.7357982" lon="10.4347784"><ele>357.0</ele><time>2026-05-02T10:37:14.803Z</time></trkpt><trkpt lat="45.7360041" lon="10.4349505"><ele>357.0</ele><time>2026-05-02T10:37:15.803Z</time></trkpt><trkpt lat="45.7362019" lon="10.4351121"><ele>364.0</ele><time>2026-05-02T10:37:16.803Z</time></trkpt><trkpt lat="45.7363904" lon="10.4352465"><ele>371.0</ele><time>2026-05-02T10:37:17.803Z</time></trkpt><trkpt lat="45.7365762" lon="10.4353519"><ele>378.0</ele><time>2026-05-02T10:37:18.803Z</time></trkpt><trkpt lat="45.7367539" lon="10.4354434"><ele>378.6666666666667</ele><time>2026-05-02T10:37:19.803Z</time></trkpt><trkpt lat="45.7369238" lon="10.4355467"><ele>379.33333333333337</ele><time>2026-05-02T10:37:20.803Z</time></trkpt><trkpt lat="45.7370661" lon="10.435682"><ele>380.0</ele><time>2026-05-02T10:37:21.803Z</time></trkpt><trkpt lat="45.7371924" lon="10.4358467"><ele>380.0</ele><time>2026-05-02T10:37:22.803Z</time></trkpt><trkpt lat="45.7373095" lon="10.4360226"><ele>380.0</ele><time>2026-05-02T10:37:23.803Z</time></trkpt><trkpt lat="45.7374215" lon="10.4361911"><ele>380.0</ele><time>2026-05-02T10:37:24.803Z</time></trkpt><trkpt lat="45.7375385" lon="10.4363271"><ele>381.75</ele><time>2026-05-02T10:37:25.803Z</time></trkpt><trkpt lat="45.7376702" lon="10.4364067"><ele>383.5</ele><time>2026-05-02T10:37:26.803Z</time></trkpt><trkpt lat="45.7378064" lon="10.4364385"><ele>385.25</ele><time>2026-05-02T10:37:27.803Z</time></trkpt><trkpt lat="45.7379439" lon="10.436438"><ele>387.0</ele><time>2026-05-02T10:37:28.803Z</time></trkpt><trkpt lat="45.7380784" lon="10.4364664"><ele>387.0</ele><time>2026-05-02T10:37:29.803Z</time></trkpt><trkpt lat="45.7381956" lon="10.4365521"><ele>387.0</ele><time>2026-05-02T10:37:30.803Z</time></trkpt><trkpt lat="45.7382951" lon="10.4366741"><ele>387.0</ele><time>2026-05-02T10:37:31.803Z</time></trkpt><trkpt lat="45.7383691" lon="10.4368343"><ele>387.0</ele><time>2026-05-02T10:37:32.803Z</time></trkpt><trkpt lat="45.7384496" lon="10.4369737"><ele>387.0</ele><time>2026-05-02T10:37:33.803Z</time></trkpt><trkpt lat="45.7385414" lon="10.4371073"><ele>387.0</ele><time>2026-05-02T10:37:34.803Z</time></trkpt><trkpt lat="45.738629" lon="10.4372284"><ele>387.0</ele><time>2026-05-02T10:37:35.803Z</time></trkpt><trkpt lat="45.7387098" lon="10.4373528"><ele>387.0</ele><time>2026-05-02T10:37:36.803Z</time></trkpt><trkpt lat="45.7387666" lon="10.4375003"><ele>387.25</ele><time>2026-05-02T10:37:37.803Z</time></trkpt><trkpt lat="45.7388167" lon="10.4376696"><ele>387.5</ele><time>2026-05-02T10:37:38.803Z</time></trkpt><trkpt lat="45.7388593" lon="10.4378474"><ele>387.75</ele><time>2026-05-02T10:37:39.803Z</time></trkpt><trkpt lat="45.7388829" lon="10.4380356"><ele>388.0</ele><time>2026-05-02T10:37:40.803Z</time></trkpt><trkpt lat="45.7389018" lon="10.4382318"><ele>388.0</ele><time>2026-05-02T10:37:41.803Z</time></trkpt><trkpt lat="45.7389264" lon="10.4384212"><ele>388.0</ele><time>2026-05-02T10:37:42.803Z</time></trkpt><trkpt lat="45.7389567" lon="10.4386084"><ele>388.0</ele><time>2026-05-02T10:37:43.803Z</time></trkpt><trkpt lat="45.7389968" lon="10.4387915"><ele>388.0</ele><time>2026-05-02T10:37:44.803Z</time></trkpt><trkpt lat="45.7390476" lon="10.4389665"><ele>386.5</ele><time>2026-05-02T10:37:45.803Z</time></trkpt><trkpt lat="45.7391092" lon="10.4391152"><ele>385.0</ele><time>2026-05-02T10:37:46.803Z</time></trkpt><trkpt lat="45.7391809" lon="10.4392564"><ele>383.5</ele><time>2026-05-02T10:37:47.803Z</time></trkpt><trkpt lat="45.7392674" lon="10.439403"><ele>382.0</ele><time>2026-05-02T10:37:48.803Z</time></trkpt><trkpt lat="45.7393405" lon="10.4395609"><ele>386.75</ele><time>2026-05-02T10:37:49.803Z</time></trkpt><trkpt lat="45.7394009" lon="10.4397334"><ele>391.5</ele><time>2026-05-02T10:37:50.803Z</time></trkpt><trkpt lat="45.7394495" lon="10.4399365"><ele>396.25</ele><time>2026-05-02T10:37:51.803Z</time></trkpt><trkpt lat="45.7394845" lon="10.4401563"><ele>401.0</ele><time>2026-05-02T10:37:52.803Z</time></trkpt><trkpt lat="45.7395185" lon="10.4403926"><ele>400.0</ele><time>2026-05-02T10:37:53.803Z</time></trkpt><trkpt lat="45.73955" lon="10.440632"><ele>399.0</ele><time>2026-05-02T10:37:54.803Z</time></trkpt><trkpt lat="45.7395748" lon="10.4408923"><ele>398.0</ele><time>2026-05-02T10:37:55.803Z</time></trkpt><trkpt lat="45.7396033" lon="10.4411466"><ele>394.66666666666663</ele><time>2026-05-02T10:37:56.803Z</time></trkpt><trkpt lat="45.7396318" lon="10.4413973"><ele>391.33333333333337</ele><time>2026-05-02T10:37:57.803Z</time></trkpt><trkpt lat="45.7396628" lon="10.4416526"><ele>388.0</ele><time>2026-05-02T10:37:58.803Z</time></trkpt><trkpt lat="45.7397016" lon="10.4419007"><ele>385.0</ele><time>2026-05-02T10:37:59.803Z</time></trkpt><trkpt lat="45.7397387" lon="10.4421605"><ele>382.0</ele><time>2026-05-02T10:38:00.803Z</time></trkpt><trkpt lat="45.7397771" lon="10.4424227"><ele>379.0</ele><time>2026-05-02T10:38:01.803Z</time></trkpt><trkpt lat="45.7398104" lon="10.4426879"><ele>379.0</ele><time>2026-05-02T10:38:02.803Z</time></trkpt><trkpt lat="45.7398451" lon="10.4429571"><ele>379.0</ele><time>2026-05-02T10:38:03.803Z</time></trkpt><trkpt lat="45.7398813" lon="10.4432237"><ele>379.0</ele><time>2026-05-02T10:38:04.803Z</time></trkpt><trkpt lat="45.7399168" lon="10.4434828"><ele>374.0</ele><time>2026-05-02T10:38:05.803Z</time></trkpt><trkpt lat="45.7399597" lon="10.4437374"><ele>369.0</ele><time>2026-05-02T10:38:06.803Z</time></trkpt><trkpt lat="45.7399951" lon="10.4439837"><ele>364.0</ele><time>2026-05-02T10:38:07.803Z</time></trkpt><trkpt lat="45.7400193" lon="10.4442165"><ele>362.25</ele><time>2026-05-02T10:38:08.803Z</time></trkpt><trkpt lat="45.7400326" lon="10.4444154"><ele>360.5</ele><time>2026-05-02T10:38:09.803Z</time></trkpt><trkpt lat="45.7400175" lon="10.4445917"><ele>358.75</ele><time>2026-05-02T10:38:10.803Z</time></trkpt><trkpt lat="45.7399591" lon="10.4447311"><ele>357.0</ele><time>2026-05-02T10:38:11.803Z</time></trkpt><trkpt lat="45.739878" lon="10.444837"><ele>356.3333333333333</ele><time>2026-05-02T10:38:12.803Z</time></trkpt><trkpt lat="45.7397174" lon="10.4448491"><ele>355.66666666666663</ele><time>2026-05-02T10:38:13.803Z</time></trkpt><trkpt lat="45.7395053" lon="10.4448417"><ele>355.0</ele><time>2026-05-02T10:38:14.803Z</time></trkpt><trkpt lat="45.7392993" lon="10.4449148"><ele>355.0</ele><time>2026-05-02T10:38:15.803Z</time></trkpt><trkpt lat="45.7391039" lon="10.4450835"><ele>355.0</ele><time>2026-05-02T10:38:16.803Z</time></trkpt><trkpt lat="45.7389083" lon="10.445299"><ele>353.0</ele><time>2026-05-02T10:38:17.803Z</time></trkpt><trkpt lat="45.7386981" lon="10.4455394"><ele>351.0</ele><time>2026-05-02T10:38:18.803Z</time></trkpt><trkpt lat="45.7384664" lon="10.4457778"><ele>351.0</ele><time>2026-05-02T10:38:19.803Z</time></trkpt><trkpt lat="45.7382171" lon="10.4460174"><ele>351.0</ele><time>2026-05-02T10:38:20.803Z</time></trkpt><trkpt lat="45.7379611" lon="10.4462707"><ele>352.0</ele><time>2026-05-02T10:38:21.803Z</time></trkpt><trkpt lat="45.7377069" lon="10.4465358"><ele>353.0</ele><time>2026-05-02T10:38:22.803Z</time></trkpt><trkpt lat="45.7374492" lon="10.4467982"><ele>353.0</ele><time>2026-05-02T10:38:23.803Z</time></trkpt><trkpt lat="45.7371881" lon="10.4470391"><ele>353.0</ele><time>2026-05-02T10:38:24.803Z</time></trkpt><trkpt lat="45.7369233" lon="10.4472226"><ele>357.5</ele><time>2026-05-02T10:38:25.803Z</time></trkpt><trkpt lat="45.736669" lon="10.4473581"><ele>362.0</ele><time>2026-05-02T10:38:26.803Z</time></trkpt><trkpt lat="45.7364268" lon="10.4474842"><ele>362.0</ele><time>2026-05-02T10:38:27.803Z</time></trkpt><trkpt lat="45.7361937" lon="10.4476214"><ele>362.0</ele><time>2026-05-02T10:38:28.803Z</time></trkpt><trkpt lat="45.7359754" lon="10.4477811"><ele>366.5</ele><time>2026-05-02T10:38:29.803Z</time></trkpt><trkpt lat="45.7357854" lon="10.4479827"><ele>371.0</ele><time>2026-05-02T10:38:30.803Z</time></trkpt><trkpt lat="45.7356098" lon="10.4481937"><ele>371.0</ele><time>2026-05-02T10:38:31.803Z</time></trkpt><trkpt lat="45.7354552" lon="10.4484131"><ele>371.0</ele><time>2026-05-02T10:38:32.803Z</time></trkpt><trkpt lat="45.735322" lon="10.4486779"><ele>371.0</ele><time>2026-05-02T10:38:33.803Z</time></trkpt><trkpt lat="45.7351954" lon="10.4489253"><ele>370.6666666666667</ele><time>2026-05-02T10:38:34.803Z</time></trkpt><trkpt lat="45.735089" lon="10.4491678"><ele>370.3333333333333</ele><time>2026-05-02T10:38:35.803Z</time></trkpt><trkpt lat="45.7350033" lon="10.4494436"><ele>370.0</ele><time>2026-05-02T10:38:36.803Z</time></trkpt><trkpt lat="45.7349537" lon="10.4497443"><ele>370.0</ele><time>2026-05-02T10:38:37.803Z</time></trkpt><trkpt lat="45.7349356" lon="10.4500556"><ele>370.0</ele><time>2026-05-02T10:38:38.803Z</time></trkpt><trkpt lat="45.7349515" lon="10.4503619"><ele>370.0</ele><time>2026-05-02T10:38:39.803Z</time></trkpt><trkpt lat="45.7350258" lon="10.4506453"><ele>372.66666666666663</ele><time>2026-05-02T10:38:40.803Z</time></trkpt><trkpt lat="45.7351266" lon="10.4509256"><ele>375.3333333333333</ele><time>2026-05-02T10:38:41.803Z</time></trkpt><trkpt lat="45.7351969" lon="10.4512246"><ele>378.0</ele><time>2026-05-02T10:38:42.803Z</time></trkpt><trkpt lat="45.7352288" lon="10.4515331"><ele>377.5</ele><time>2026-05-02T10:38:43.803Z</time></trkpt><trkpt lat="45.7352001" lon="10.4518507"><ele>377.0</ele><time>2026-05-02T10:38:44.803Z</time></trkpt><trkpt lat="45.7350979" lon="10.4521583"><ele>381.5</ele><time>2026-05-02T10:38:45.803Z</time></trkpt><trkpt lat="45.734961" lon="10.4524516"><ele>386.0</ele><time>2026-05-02T10:38:46.803Z</time></trkpt><trkpt lat="45.734843" lon="10.4527259"><ele>386.0</ele><time>2026-05-02T10:38:47.803Z</time></trkpt><trkpt lat="45.7346979" lon="10.452925"><ele>386.0</ele><time>2026-05-02T10:38:48.803Z</time></trkpt><trkpt lat="45.7345481" lon="10.4530818"><ele>386.0</ele><time>2026-05-02T10:38:49.803Z</time></trkpt><trkpt lat="45.7343947" lon="10.4532017"><ele>385.5</ele><time>2026-05-02T10:38:50.803Z</time></trkpt><trkpt lat="45.7342524" lon="10.4533152"><ele>385.0</ele><time>2026-05-02T10:38:51.803Z</time></trkpt><trkpt lat="45.7341455" lon="10.4534485"><ele>384.5</ele><time>2026-05-02T10:38:52.803Z</time></trkpt><trkpt lat="45.7340633" lon="10.4536009"><ele>384.0</ele><time>2026-05-02T10:38:53.803Z</time></trkpt><trkpt lat="45.7340048" lon="10.4537725"><ele>385.79999999999995</ele><time>2026-05-02T10:38:54.803Z</time></trkpt><trkpt lat="45.7339589" lon="10.4539306"><ele>387.59999999999997</ele><time>2026-05-02T10:38:55.803Z</time></trkpt><trkpt lat="45.7339034" lon="10.4540772"><ele>389.4</ele><time>2026-05-02T10:38:56.803Z</time></trkpt><trkpt lat="45.7338484" lon="10.4542053"><ele>391.2</ele><time>2026-05-02T10:38:57.803Z</time></trkpt><trkpt lat="45.733803" lon="10.4543272"><ele>393.0</ele><time>2026-05-02T10:38:58.803Z</time></trkpt><trkpt lat="45.7337538" lon="10.454436"><ele>393.0</ele><time>2026-05-02T10:38:59.803Z</time></trkpt><trkpt lat="45.7336995" lon="10.4545236"><ele>393.0</ele><time>2026-05-02T10:39:00.803Z</time></trkpt><trkpt lat="45.7336345" lon="10.4546021"><ele>393.0</ele><time>2026-05-02T10:39:01.803Z</time></trkpt><trkpt lat="45.7335715" lon="10.4546705"><ele>393.0</ele><time>2026-05-02T10:39:02.803Z</time></trkpt><trkpt lat="45.7335173" lon="10.4547369"><ele>393.0</ele><time>2026-05-02T10:39:03.803Z</time></trkpt><trkpt lat="45.733489" lon="10.4548206"><ele>393.0</ele><time>2026-05-02T10:39:04.803Z</time></trkpt><trkpt lat="45.733468" lon="10.4549218"><ele>390.4</ele><time>2026-05-02T10:39:05.803Z</time></trkpt><trkpt lat="45.7334585" lon="10.4550401"><ele>387.79999999999995</ele><time>2026-05-02T10:39:06.803Z</time></trkpt><trkpt lat="45.7334735" lon="10.4551655"><ele>385.2</ele><time>2026-05-02T10:39:07.803Z</time></trkpt><trkpt lat="45.733514" lon="10.4553163"><ele>382.6</ele><time>2026-05-02T10:39:08.803Z</time></trkpt><trkpt lat="45.7335921" lon="10.4554889"><ele>380.0</ele><time>2026-05-02T10:39:09.803Z</time></trkpt><trkpt lat="45.733675" lon="10.4556817"><ele>380.0</ele><time>2026-05-02T10:39:10.803Z</time></trkpt><trkpt lat="45.7337602" lon="10.4558873"><ele>380.0</ele><time>2026-05-02T10:39:11.803Z</time></trkpt><trkpt lat="45.7338444" lon="10.4560889"><ele>380.0</ele><time>2026-05-02T10:39:12.803Z</time></trkpt><trkpt lat="45.7339309" lon="10.4562836"><ele>380.6666666666667</ele><time>2026-05-02T10:39:13.803Z</time></trkpt><trkpt lat="45.7340032" lon="10.4564807"><ele>381.3333333333333</ele><time>2026-05-02T10:39:14.803Z</time></trkpt><trkpt lat="45.7340771" lon="10.4566779"><ele>382.0</ele><time>2026-05-02T10:39:15.803Z</time></trkpt><trkpt lat="45.7341431" lon="10.4568767"><ele>382.0</ele><time>2026-05-02T10:39:16.803Z</time></trkpt><trkpt lat="45.7342012" lon="10.4570626"><ele>382.0</ele><time>2026-05-02T10:39:17.803Z</time></trkpt><trkpt lat="45.7342504" lon="10.4572329"><ele>382.0</ele><time>2026-05-02T10:39:18.803Z</time></trkpt><trkpt lat="45.7343008" lon="10.4573854"><ele>382.0</ele><time>2026-05-02T10:39:19.803Z</time></trkpt><trkpt lat="45.7343533" lon="10.4575194"><ele>381.0</ele><time>2026-05-02T10:39:20.803Z</time></trkpt><trkpt lat="45.734403" lon="10.4576395"><ele>380.0</ele><time>2026-05-02T10:39:21.803Z</time></trkpt><trkpt lat="45.7344451" lon="10.4577502"><ele>379.0</ele><time>2026-05-02T10:39:22.803Z</time></trkpt><trkpt lat="45.7344825" lon="10.4578561"><ele>378.0</ele><time>2026-05-02T10:39:23.803Z</time></trkpt><trkpt lat="45.7345137" lon="10.4579502"><ele>377.0</ele><time>2026-05-02T10:39:24.803Z</time></trkpt><trkpt lat="45.7345589" lon="10.4581035"><ele>377.0</ele><time>2026-05-02T10:39:26.803Z</time></trkpt><trkpt lat="45.7346263" lon="10.4582634"><ele>377.0</ele><time>2026-05-02T10:39:28.803Z</time></trkpt><trkpt lat="45.734666" lon="10.4583556"><ele>377.0</ele><time>2026-05-02T10:39:29.803Z</time></trkpt><trkpt lat="45.7347182" lon="10.4584589"><ele>377.0</ele><time>2026-05-02T10:39:30.803Z</time></trkpt><trkpt lat="45.734774" lon="10.4585619"><ele>377.0</ele><time>2026-05-02T10:39:31.803Z</time></trkpt><trkpt lat="45.7348356" lon="10.4586644"><ele>377.0</ele><time>2026-05-02T10:39:32.803Z</time></trkpt><trkpt lat="45.734912" lon="10.4587712"><ele>377.0</ele><time>2026-05-02T10:39:33.803Z</time></trkpt><trkpt lat="45.7350043" lon="10.4589045"><ele>377.0</ele><time>2026-05-02T10:39:34.803Z</time></trkpt><trkpt lat="45.7351113" lon="10.4590674"><ele>377.0</ele><time>2026-05-02T10:39:35.803Z</time></trkpt><trkpt lat="45.7352186" lon="10.4592698"><ele>376.6666666666667</ele><time>2026-05-02T10:39:36.803Z</time></trkpt><trkpt lat="45.7353339" lon="10.4594848"><ele>376.3333333333333</ele><time>2026-05-02T10:39:37.803Z</time></trkpt><trkpt lat="45.7354465" lon="10.459691"><ele>376.0</ele><time>2026-05-02T10:39:38.803Z</time></trkpt><trkpt lat="45.7355566" lon="10.4599086"><ele>376.0</ele><time>2026-05-02T10:39:39.803Z</time></trkpt><trkpt lat="45.735646" lon="10.4601364"><ele>376.0</ele><time>2026-05-02T10:39:40.803Z</time></trkpt><trkpt lat="45.7357134" lon="10.4603612"><ele>376.0</ele><time>2026-05-02T10:39:41.803Z</time></trkpt><trkpt lat="45.735769" lon="10.4605735"><ele>375.5</ele><time>2026-05-02T10:39:42.803Z</time></trkpt><trkpt lat="45.7358301" lon="10.4607695"><ele>375.0</ele><time>2026-05-02T10:39:43.803Z</time></trkpt><trkpt lat="45.7359003" lon="10.4609352"><ele>374.5</ele><time>2026-05-02T10:39:44.803Z</time></trkpt><trkpt lat="45.7359806" lon="10.4610908"><ele>374.0</ele><time>2026-05-02T10:39:45.803Z</time></trkpt><trkpt lat="45.7360774" lon="10.4612436"><ele>374.5</ele><time>2026-05-02T10:39:46.803Z</time></trkpt><trkpt lat="45.736167" lon="10.4613817"><ele>375.0</ele><time>2026-05-02T10:39:47.803Z</time></trkpt><trkpt lat="45.7362461" lon="10.4615132"><ele>375.5</ele><time>2026-05-02T10:39:48.803Z</time></trkpt><trkpt lat="45.7363272" lon="10.4616246"><ele>376.0</ele><time>2026-05-02T10:39:49.803Z</time></trkpt><trkpt lat="45.7364067" lon="10.4617149"><ele>376.0</ele><time>2026-05-02T10:39:50.803Z</time></trkpt><trkpt lat="45.7364824" lon="10.4617829"><ele>376.0</ele><time>2026-05-02T10:39:51.803Z</time></trkpt><trkpt lat="45.736561" lon="10.4618339"><ele>376.0</ele><time>2026-05-02T10:39:52.803Z</time></trkpt><trkpt lat="45.7366496" lon="10.4618786"><ele>376.0</ele><time>2026-05-02T10:39:53.803Z</time></trkpt><trkpt lat="45.7367514" lon="10.4619067"><ele>376.0</ele><time>2026-05-02T10:39:54.803Z</time></trkpt><trkpt lat="45.7368831" lon="10.4619055"><ele>377.66666666666663</ele><time>2026-05-02T10:39:55.803Z</time></trkpt><trkpt lat="45.7370485" lon="10.4619028"><ele>379.3333333333333</ele><time>2026-05-02T10:39:56.803Z</time></trkpt><trkpt lat="45.7372391" lon="10.4618959"><ele>381.0</ele><time>2026-05-02T10:39:57.803Z</time></trkpt><trkpt lat="45.7374579" lon="10.4619076"><ele>381.0</ele><time>2026-05-02T10:39:58.803Z</time></trkpt><trkpt lat="45.7376949" lon="10.4619559"><ele>381.0</ele><time>2026-05-02T10:39:59.803Z</time></trkpt><trkpt lat="45.7379447" lon="10.4620458"><ele>380.0</ele><time>2026-05-02T10:40:00.803Z</time></trkpt><trkpt lat="45.7382173" lon="10.4621944"><ele>379.0</ele><time>2026-05-02T10:40:01.803Z</time></trkpt><trkpt lat="45.7384815" lon="10.4623905"><ele>390.0</ele><time>2026-05-02T10:40:02.803Z</time></trkpt><trkpt lat="45.7387189" lon="10.462632"><ele>401.0</ele><time>2026-05-02T10:40:03.803Z</time></trkpt><trkpt lat="45.7389173" lon="10.4629208"><ele>392.5</ele><time>2026-05-02T10:40:04.803Z</time></trkpt><trkpt lat="45.7390827" lon="10.4632471"><ele>384.0</ele><time>2026-05-02T10:40:05.803Z</time></trkpt><trkpt lat="45.7392204" lon="10.4635794"><ele>378.0</ele><time>2026-05-02T10:40:06.803Z</time></trkpt><trkpt lat="45.7393246" lon="10.4639103"><ele>372.0</ele><time>2026-05-02T10:40:07.803Z</time></trkpt><trkpt lat="45.7394073" lon="10.4642415"><ele>380.0</ele><time>2026-05-02T10:40:08.803Z</time></trkpt><trkpt lat="45.7394955" lon="10.4645482"><ele>388.0</ele><time>2026-05-02T10:40:09.803Z</time></trkpt><trkpt lat="45.739615" lon="10.4648292"><ele>388.0</ele><time>2026-05-02T10:40:10.803Z</time></trkpt><trkpt lat="45.7397726" lon="10.4650781"><ele>388.0</ele><time>2026-05-02T10:40:11.803Z</time></trkpt><trkpt lat="45.7399352" lon="10.4653512"><ele>381.5</ele><time>2026-05-02T10:40:12.803Z</time></trkpt><trkpt lat="45.7400804" lon="10.4656366"><ele>375.0</ele><time>2026-05-02T10:40:13.803Z</time></trkpt><trkpt lat="45.7402079" lon="10.4659308"><ele>382.5</ele><time>2026-05-02T10:40:14.803Z</time></trkpt><trkpt lat="45.7403151" lon="10.4662313"><ele>390.0</ele><time>2026-05-02T10:40:15.803Z</time></trkpt><trkpt lat="45.7403971" lon="10.4665365"><ele>390.0</ele><time>2026-05-02T10:40:16.803Z</time></trkpt><trkpt lat="45.7404592" lon="10.4668244"><ele>390.0</ele><time>2026-05-02T10:40:17.803Z</time></trkpt><trkpt lat="45.7404995" lon="10.4671086"><ele>390.0</ele><time>2026-05-02T10:40:18.803Z</time></trkpt><trkpt lat="45.7405263" lon="10.4673727"><ele>388.33333333333337</ele><time>2026-05-02T10:40:19.803Z</time></trkpt><trkpt lat="45.7405461" lon="10.4676216"><ele>386.6666666666667</ele><time>2026-05-02T10:40:20.803Z</time></trkpt><trkpt lat="45.7405702" lon="10.4678542"><ele>385.0</ele><time>2026-05-02T10:40:21.803Z</time></trkpt><trkpt lat="45.7405946" lon="10.468084"><ele>383.6666666666667</ele><time>2026-05-02T10:40:22.803Z</time></trkpt><trkpt lat="45.7406393" lon="10.4683072"><ele>382.33333333333337</ele><time>2026-05-02T10:40:23.803Z</time></trkpt><trkpt lat="45.7407058" lon="10.4685157"><ele>381.0</ele><time>2026-05-02T10:40:24.803Z</time></trkpt><trkpt lat="45.7407867" lon="10.4687236"><ele>382.66666666666663</ele><time>2026-05-02T10:40:25.803Z</time></trkpt><trkpt lat="45.740885" lon="10.4689124"><ele>384.3333333333333</ele><time>2026-05-02T10:40:26.803Z</time></trkpt><trkpt lat="45.7410066" lon="10.4690693"><ele>386.0</ele><time>2026-05-02T10:40:27.803Z</time></trkpt><trkpt lat="45.7411477" lon="10.4691999"><ele>386.0</ele><time>2026-05-02T10:40:28.803Z</time></trkpt><trkpt lat="45.7413048" lon="10.4693134"><ele>386.0</ele><time>2026-05-02T10:40:29.803Z</time></trkpt><trkpt lat="45.7414751" lon="10.4694108"><ele>386.0</ele><time>2026-05-02T10:40:30.803Z</time></trkpt><trkpt lat="45.7416401" lon="10.4695034"><ele>386.0</ele><time>2026-05-02T10:40:31.803Z</time></trkpt><trkpt lat="45.7417936" lon="10.4695956"><ele>386.0</ele><time>2026-05-02T10:40:32.803Z</time></trkpt><trkpt lat="45.7419204" lon="10.4696673"><ele>386.0</ele><time>2026-05-02T10:40:33.803Z</time></trkpt><trkpt lat="45.7420406" lon="10.4697563"><ele>386.0</ele><time>2026-05-02T10:40:34.803Z</time></trkpt><trkpt lat="45.7421655" lon="10.4698596"><ele>387.66666666666663</ele><time>2026-05-02T10:40:35.803Z</time></trkpt><trkpt lat="45.7422897" lon="10.4699932"><ele>389.33333333333337</ele><time>2026-05-02T10:40:36.803Z</time></trkpt><trkpt lat="45.7424137" lon="10.4701596"><ele>391.0</ele><time>2026-05-02T10:40:37.803Z</time></trkpt><trkpt lat="45.7425282" lon="10.4703446"><ele>386.6666666666667</ele><time>2026-05-02T10:40:38.803Z</time></trkpt><trkpt lat="45.7426316" lon="10.4705376"><ele>382.33333333333337</ele><time>2026-05-02T10:40:39.803Z</time></trkpt><trkpt lat="45.742723" lon="10.470718"><ele>378.0</ele><time>2026-05-02T10:40:40.803Z</time></trkpt><trkpt lat="45.7427973" lon="10.4708855"><ele>378.3333333333333</ele><time>2026-05-02T10:40:41.803Z</time></trkpt><trkpt lat="45.7428873" lon="10.4710316"><ele>378.66666666666663</ele><time>2026-05-02T10:40:42.803Z</time></trkpt><trkpt lat="45.7430035" lon="10.4711738"><ele>379.0</ele><time>2026-05-02T10:40:43.803Z</time></trkpt><trkpt lat="45.7431446" lon="10.4713194"><ele>379.0</ele><time>2026-05-02T10:40:44.802Z</time></trkpt><trkpt lat="45.7433247" lon="10.4714824"><ele>379.0</ele><time>2026-05-02T10:40:45.802Z</time></trkpt><trkpt lat="45.7435358" lon="10.4716788"><ele>392.5</ele><time>2026-05-02T10:40:46.802Z</time></trkpt><trkpt lat="45.7437448" lon="10.4718861"><ele>406.0</ele><time>2026-05-02T10:40:47.802Z</time></trkpt><trkpt lat="45.7439412" lon="10.4720896"><ele>404.33333333333337</ele><time>2026-05-02T10:40:48.802Z</time></trkpt><trkpt lat="45.744113" lon="10.4722965"><ele>402.66666666666663</ele><time>2026-05-02T10:40:49.802Z</time></trkpt><trkpt lat="45.7442818" lon="10.4724713"><ele>401.0</ele><time>2026-05-02T10:40:50.802Z</time></trkpt><trkpt lat="45.7444579" lon="10.4726102"><ele>401.0</ele><time>2026-05-02T10:40:51.802Z</time></trkpt><trkpt lat="45.7446518" lon="10.4727246"><ele>401.0</ele><time>2026-05-02T10:40:52.802Z</time></trkpt><trkpt lat="45.7448441" lon="10.4728369"><ele>401.0</ele><time>2026-05-02T10:40:53.802Z</time></trkpt><trkpt lat="45.745014" lon="10.4729487"><ele>398.66666666666663</ele><time>2026-05-02T10:40:54.802Z</time></trkpt><trkpt lat="45.7451759" lon="10.4730501"><ele>396.33333333333337</ele><time>2026-05-02T10:40:55.802Z</time></trkpt><trkpt lat="45.7453296" lon="10.4731644"><ele>394.0</ele><time>2026-05-02T10:40:56.802Z</time></trkpt><trkpt lat="45.745469" lon="10.4732754"><ele>394.0</ele><time>2026-05-02T10:40:57.803Z</time></trkpt><trkpt lat="45.7455985" lon="10.4733844"><ele>394.0</ele><time>2026-05-02T10:40:58.802Z</time></trkpt><trkpt lat="45.7457286" lon="10.4735242"><ele>394.0</ele><time>2026-05-02T10:40:59.802Z</time></trkpt><trkpt lat="45.7458618" lon="10.4736984"><ele>398.33333333333337</ele><time>2026-05-02T10:41:00.802Z</time></trkpt><trkpt lat="45.7459884" lon="10.4739368"><ele>402.66666666666663</ele><time>2026-05-02T10:41:01.802Z</time></trkpt><trkpt lat="45.746095" lon="10.4742059"><ele>407.0</ele><time>2026-05-02T10:41:02.802Z</time></trkpt><trkpt lat="45.7461926" lon="10.4744647"><ele>401.3333333333333</ele><time>2026-05-02T10:41:03.802Z</time></trkpt><trkpt lat="45.746288" lon="10.4747031"><ele>395.66666666666663</ele><time>2026-05-02T10:41:04.802Z</time></trkpt><trkpt lat="45.7464074" lon="10.474891"><ele>390.0</ele><time>2026-05-02T10:41:05.802Z</time></trkpt><trkpt lat="45.7465581" lon="10.4750705"><ele>390.0</ele><time>2026-05-02T10:41:06.802Z</time></trkpt><trkpt lat="45.7467222" lon="10.4752546"><ele>390.0</ele><time>2026-05-02T10:41:07.802Z</time></trkpt><trkpt lat="45.7468943" lon="10.4754474"><ele>390.0</ele><time>2026-05-02T10:41:08.802Z</time></trkpt><trkpt lat="45.7470628" lon="10.4756332"><ele>391.66666666666663</ele><time>2026-05-02T10:41:09.802Z</time></trkpt><trkpt lat="45.7472203" lon="10.4758158"><ele>393.3333333333333</ele><time>2026-05-02T10:41:10.802Z</time></trkpt><trkpt lat="45.7473868" lon="10.4759924"><ele>395.0</ele><time>2026-05-02T10:41:11.802Z</time></trkpt><trkpt lat="45.7475609" lon="10.4761781"><ele>394.5</ele><time>2026-05-02T10:41:12.802Z</time></trkpt><trkpt lat="45.7477414" lon="10.4763648"><ele>394.0</ele><time>2026-05-02T10:41:13.802Z</time></trkpt><trkpt lat="45.7479284" lon="10.4765578"><ele>394.0</ele><time>2026-05-02T10:41:14.802Z</time></trkpt><trkpt lat="45.7481169" lon="10.4767528"><ele>394.0</ele><time>2026-05-02T10:41:15.802Z</time></trkpt><trkpt lat="45.7483141" lon="10.4769518"><ele>394.0</ele><time>2026-05-02T10:41:16.802Z</time></trkpt><trkpt lat="45.7485212" lon="10.4771524"><ele>394.0</ele><time>2026-05-02T10:41:17.802Z</time></trkpt><trkpt lat="45.7487437" lon="10.4773869"><ele>394.0</ele><time>2026-05-02T10:41:18.802Z</time></trkpt><trkpt lat="45.7489673" lon="10.4776381"><ele>394.0</ele><time>2026-05-02T10:41:19.802Z</time></trkpt><trkpt lat="45.7491837" lon="10.4779063"><ele>395.0</ele><time>2026-05-02T10:41:20.802Z</time></trkpt><trkpt lat="45.7494048" lon="10.4781805"><ele>396.0</ele><time>2026-05-02T10:41:21.802Z</time></trkpt><trkpt lat="45.7496271" lon="10.4784366"><ele>396.0</ele><time>2026-05-02T10:41:22.802Z</time></trkpt><trkpt lat="45.7498604" lon="10.4786577"><ele>396.0</ele><time>2026-05-02T10:41:23.802Z</time></trkpt><trkpt lat="45.7501053" lon="10.4788366"><ele>395.0</ele><time>2026-05-02T10:41:24.802Z</time></trkpt><trkpt lat="45.7503676" lon="10.4789851"><ele>394.0</ele><time>2026-05-02T10:41:25.802Z</time></trkpt><trkpt lat="45.7506331" lon="10.4791219"><ele>394.0</ele><time>2026-05-02T10:41:26.802Z</time></trkpt><trkpt lat="45.7508964" lon="10.4792537"><ele>394.0</ele><time>2026-05-02T10:41:27.802Z</time></trkpt><trkpt lat="45.7511494" lon="10.4793828"><ele>397.0</ele><time>2026-05-02T10:41:28.802Z</time></trkpt><trkpt lat="45.7513901" lon="10.4795114"><ele>400.0</ele><time>2026-05-02T10:41:29.802Z</time></trkpt><trkpt lat="45.7516222" lon="10.4796331"><ele>396.0</ele><time>2026-05-02T10:41:30.802Z</time></trkpt><trkpt lat="45.7518424" lon="10.4797514"><ele>392.0</ele><time>2026-05-02T10:41:31.802Z</time></trkpt><trkpt lat="45.7520631" lon="10.4798594"><ele>392.0</ele><time>2026-05-02T10:41:32.802Z</time></trkpt><trkpt lat="45.7522687" lon="10.4799661"><ele>392.0</ele><time>2026-05-02T10:41:33.802Z</time></trkpt><trkpt lat="45.7524663" lon="10.4800814"><ele>392.0</ele><time>2026-05-02T10:41:34.802Z</time></trkpt><trkpt lat="45.7526513" lon="10.4801932"><ele>391.0</ele><time>2026-05-02T10:41:35.802Z</time></trkpt><trkpt lat="45.7528247" lon="10.4803066"><ele>390.0</ele><time>2026-05-02T10:41:36.802Z</time></trkpt><trkpt lat="45.7530015" lon="10.4804151"><ele>389.0</ele><time>2026-05-02T10:41:37.802Z</time></trkpt><trkpt lat="45.7531915" lon="10.4805288"><ele>389.0</ele><time>2026-05-02T10:41:38.802Z</time></trkpt><trkpt lat="45.7533956" lon="10.4806386"><ele>389.0</ele><time>2026-05-02T10:41:39.802Z</time></trkpt><trkpt lat="45.7536256" lon="10.4807606"><ele>396.5</ele><time>2026-05-02T10:41:40.802Z</time></trkpt><trkpt lat="45.7538679" lon="10.4808925"><ele>404.0</ele><time>2026-05-02T10:41:41.802Z</time></trkpt><trkpt lat="45.7541114" lon="10.4810269"><ele>404.0</ele><time>2026-05-02T10:41:42.802Z</time></trkpt><trkpt lat="45.7543481" lon="10.481152"><ele>404.0</ele><time>2026-05-02T10:41:43.802Z</time></trkpt><trkpt lat="45.7545704" lon="10.4812677"><ele>404.0</ele><time>2026-05-02T10:41:44.802Z</time></trkpt><trkpt lat="45.754771" lon="10.4814065"><ele>404.0</ele><time>2026-05-02T10:41:45.802Z</time></trkpt><trkpt lat="45.7549591" lon="10.481574"><ele>404.0</ele><time>2026-05-02T10:41:46.802Z</time></trkpt><trkpt lat="45.7551185" lon="10.4818023"><ele>413.5</ele><time>2026-05-02T10:41:47.802Z</time></trkpt><trkpt lat="45.7552552" lon="10.4820563"><ele>423.0</ele><time>2026-05-02T10:41:48.802Z</time></trkpt><trkpt lat="45.7554107" lon="10.4823078"><ele>423.0</ele><time>2026-05-02T10:41:49.802Z</time></trkpt><trkpt lat="45.7555743" lon="10.4825634"><ele>423.0</ele><time>2026-05-02T10:41:50.802Z</time></trkpt><trkpt lat="45.7557403" lon="10.4828359"><ele>427.5</ele><time>2026-05-02T10:41:51.802Z</time></trkpt><trkpt lat="45.7559049" lon="10.4831044"><ele>432.0</ele><time>2026-05-02T10:41:52.802Z</time></trkpt><trkpt lat="45.7560642" lon="10.4833738"><ele>432.0</ele><time>2026-05-02T10:41:53.802Z</time></trkpt><trkpt lat="45.7562253" lon="10.483635"><ele>432.0</ele><time>2026-05-02T10:41:54.802Z</time></trkpt><trkpt lat="45.7563858" lon="10.4838951"><ele>422.33333333333337</ele><time>2026-05-02T10:41:55.802Z</time></trkpt><trkpt lat="45.7565437" lon="10.4841523"><ele>412.6666666666667</ele><time>2026-05-02T10:41:56.802Z</time></trkpt><trkpt lat="45.7566752" lon="10.4843456"><ele>403.0</ele><time>2026-05-02T10:41:57.802Z</time></trkpt><trkpt lat="45.7568004" lon="10.4845293"><ele>402.0</ele><time>2026-05-02T10:41:58.802Z</time></trkpt><trkpt lat="45.7569238" lon="10.4847162"><ele>401.0</ele><time>2026-05-02T10:41:59.802Z</time></trkpt><trkpt lat="45.757059" lon="10.4849302"><ele>400.0</ele><time>2026-05-02T10:42:00.802Z</time></trkpt><trkpt lat="45.7571985" lon="10.4851714"><ele>400.0</ele><time>2026-05-02T10:42:01.802Z</time></trkpt><trkpt lat="45.7573362" lon="10.4854182"><ele>400.0</ele><time>2026-05-02T10:42:02.802Z</time></trkpt><trkpt lat="45.7611317" lon="10.4896217"><ele>383.0</ele><time>2026-05-02T10:42:22.813Z</time></trkpt><trkpt lat="45.7616736" lon="10.4901526"><ele>383.0</ele><time>2026-05-02T10:42:24.813Z</time></trkpt><trkpt lat="45.7619622" lon="10.4903757"><ele>383.0</ele><time>2026-05-02T10:42:25.813Z</time></trkpt><trkpt lat="45.7622919" lon="10.4906068"><ele>383.0</ele><time>2026-05-02T10:42:26.813Z</time></trkpt><trkpt lat="45.7626097" lon="10.4908024"><ele>383.0</ele><time>2026-05-02T10:42:27.813Z</time></trkpt><trkpt lat="45.7629161" lon="10.490954"><ele>391.5</ele><time>2026-05-02T10:42:28.813Z</time></trkpt><trkpt lat="45.7632098" lon="10.4910774"><ele>400.0</ele><time>2026-05-02T10:42:29.813Z</time></trkpt><trkpt lat="45.763487" lon="10.4911854"><ele>392.0</ele><time>2026-05-02T10:42:30.813Z</time></trkpt><trkpt lat="45.7637295" lon="10.4912844"><ele>384.0</ele><time>2026-05-02T10:42:31.813Z</time></trkpt><trkpt lat="45.7639475" lon="10.49135"><ele>384.0</ele><time>2026-05-02T10:42:32.813Z</time></trkpt><trkpt lat="45.7641442" lon="10.4913883"><ele>384.0</ele><time>2026-05-02T10:42:33.813Z</time></trkpt><trkpt lat="45.7643058" lon="10.4914298"><ele>384.0</ele><time>2026-05-02T10:42:34.813Z</time></trkpt><trkpt lat="45.7644362" lon="10.4914946"><ele>386.5</ele><time>2026-05-02T10:42:35.813Z</time></trkpt><trkpt lat="45.7645375" lon="10.4915793"><ele>389.0</ele><time>2026-05-02T10:42:36.813Z</time></trkpt><trkpt lat="45.7646289" lon="10.4916721"><ele>391.5</ele><time>2026-05-02T10:42:37.813Z</time></trkpt><trkpt lat="45.7647273" lon="10.4917193"><ele>394.0</ele><time>2026-05-02T10:42:38.813Z</time></trkpt><trkpt lat="45.764849" lon="10.4917105"><ele>394.0</ele><time>2026-05-02T10:42:39.813Z</time></trkpt><trkpt lat="45.7649814" lon="10.4917135"><ele>394.0</ele><time>2026-05-02T10:42:40.813Z</time></trkpt><trkpt lat="45.7651163" lon="10.4917364"><ele>394.0</ele><time>2026-05-02T10:42:41.813Z</time></trkpt><trkpt lat="45.7652456" lon="10.491777"><ele>394.0</ele><time>2026-05-02T10:42:42.813Z</time></trkpt><trkpt lat="45.7653741" lon="10.4918106"><ele>396.0</ele><time>2026-05-02T10:42:43.813Z</time></trkpt><trkpt lat="45.7655035" lon="10.4918344"><ele>398.0</ele><time>2026-05-02T10:42:44.813Z</time></trkpt><trkpt lat="45.7656345" lon="10.4918369"><ele>400.0</ele><time>2026-05-02T10:42:45.813Z</time></trkpt><trkpt lat="45.7657647" lon="10.4918365"><ele>402.0</ele><time>2026-05-02T10:42:46.813Z</time></trkpt><trkpt lat="45.7658971" lon="10.4918502"><ele>402.5</ele><time>2026-05-02T10:42:47.813Z</time></trkpt><trkpt lat="45.7660319" lon="10.4918925"><ele>403.0</ele><time>2026-05-02T10:42:48.813Z</time></trkpt><trkpt lat="45.7661425" lon="10.491935"><ele>403.5</ele><time>2026-05-02T10:42:49.813Z</time></trkpt><trkpt lat="45.7662463" lon="10.491991"><ele>404.0</ele><time>2026-05-02T10:42:50.813Z</time></trkpt><trkpt lat="45.7663381" lon="10.4920527"><ele>403.16666666666663</ele><time>2026-05-02T10:42:51.813Z</time></trkpt><trkpt lat="45.7664365" lon="10.4921117"><ele>402.3333333333333</ele><time>2026-05-02T10:42:52.813Z</time></trkpt><trkpt lat="45.7665218" lon="10.4921672"><ele>401.5</ele><time>2026-05-02T10:42:53.813Z</time></trkpt><trkpt lat="45.7665993" lon="10.4922111"><ele>400.66666666666663</ele><time>2026-05-02T10:42:54.813Z</time></trkpt><trkpt lat="45.7666675" lon="10.4922569"><ele>399.8333333333333</ele><time>2026-05-02T10:42:55.813Z</time></trkpt><trkpt lat="45.7667386" lon="10.4922997"><ele>399.0</ele><time>2026-05-02T10:42:56.813Z</time></trkpt><trkpt lat="45.7668148" lon="10.4923518"><ele>400.2</ele><time>2026-05-02T10:42:57.813Z</time></trkpt><trkpt lat="45.7668953" lon="10.4924199"><ele>401.4</ele><time>2026-05-02T10:42:58.813Z</time></trkpt><trkpt lat="45.7669831" lon="10.4924858"><ele>402.6</ele><time>2026-05-02T10:42:59.813Z</time></trkpt><trkpt lat="45.7670662" lon="10.4925439"><ele>403.8</ele><time>2026-05-02T10:43:00.813Z</time></trkpt><trkpt lat="45.7671492" lon="10.4925804"><ele>405.0</ele><time>2026-05-02T10:43:01.813Z</time></trkpt><trkpt lat="45.7672335" lon="10.492614"><ele>405.0</ele><time>2026-05-02T10:43:02.813Z</time></trkpt><trkpt lat="45.7673149" lon="10.492642"><ele>405.0</ele><time>2026-05-02T10:43:03.813Z</time></trkpt><trkpt lat="45.7673925" lon="10.4926754"><ele>405.0</ele><time>2026-05-02T10:43:04.813Z</time></trkpt><trkpt lat="45.7674664" lon="10.4927155"><ele>405.0</ele><time>2026-05-02T10:43:05.813Z</time></trkpt><trkpt lat="45.7675391" lon="10.4927726"><ele>405.0</ele><time>2026-05-02T10:43:06.813Z</time></trkpt><trkpt lat="45.7676052" lon="10.4928515"><ele>405.0</ele><time>2026-05-02T10:43:07.813Z</time></trkpt><trkpt lat="45.7676696" lon="10.4929392"><ele>408.6</ele><time>2026-05-02T10:43:08.813Z</time></trkpt><trkpt lat="45.7677389" lon="10.4930283"><ele>412.2</ele><time>2026-05-02T10:43:09.813Z</time></trkpt><trkpt lat="45.7678089" lon="10.4931232"><ele>415.79999999999995</ele><time>2026-05-02T10:43:10.813Z</time></trkpt><trkpt lat="45.7678764" lon="10.493213"><ele>419.4</ele><time>2026-05-02T10:43:11.813Z</time></trkpt><trkpt lat="45.7679488" lon="10.4933194"><ele>423.0</ele><time>2026-05-02T10:43:12.813Z</time></trkpt><trkpt lat="45.7680358" lon="10.4934426"><ele>423.0</ele><time>2026-05-02T10:43:13.813Z</time></trkpt><trkpt lat="45.768132" lon="10.4935802"><ele>423.0</ele><time>2026-05-02T10:43:14.813Z</time></trkpt><trkpt lat="45.7682409" lon="10.4937329"><ele>423.0</ele><time>2026-05-02T10:43:15.813Z</time></trkpt><trkpt lat="45.7683556" lon="10.4939015"><ele>425.0</ele><time>2026-05-02T10:43:16.813Z</time></trkpt><trkpt lat="45.7684734" lon="10.4941163"><ele>427.0</ele><time>2026-05-02T10:43:17.813Z</time></trkpt><trkpt lat="45.768581" lon="10.4943445"><ele>429.0</ele><time>2026-05-02T10:43:18.813Z</time></trkpt><trkpt lat="45.7686737" lon="10.4945927"><ele>429.0</ele><time>2026-05-02T10:43:19.813Z</time></trkpt><trkpt lat="45.7687294" lon="10.4948389"><ele>429.0</ele><time>2026-05-02T10:43:20.813Z</time></trkpt><trkpt lat="45.7687644" lon="10.495086"><ele>429.0</ele><time>2026-05-02T10:43:21.813Z</time></trkpt><trkpt lat="45.7687906" lon="10.4953169"><ele>424.66666666666663</ele><time>2026-05-02T10:43:22.813Z</time></trkpt><trkpt lat="45.7687977" lon="10.4955677"><ele>420.3333333333333</ele><time>2026-05-02T10:43:23.813Z</time></trkpt><trkpt lat="45.7688124" lon="10.4958056"><ele>416.0</ele><time>2026-05-02T10:43:24.813Z</time></trkpt><trkpt lat="45.7688522" lon="10.4960307"><ele>416.0</ele><time>2026-05-02T10:43:25.813Z</time></trkpt><trkpt lat="45.7689183" lon="10.4962465"><ele>416.0</ele><time>2026-05-02T10:43:26.813Z</time></trkpt><trkpt lat="45.769001" lon="10.4964473"><ele>416.0</ele><time>2026-05-02T10:43:27.813Z</time></trkpt><trkpt lat="45.7691035" lon="10.496624"><ele>411.3333333333333</ele><time>2026-05-02T10:43:28.813Z</time></trkpt><trkpt lat="45.7692304" lon="10.496768"><ele>406.66666666666663</ele><time>2026-05-02T10:43:29.813Z</time></trkpt><trkpt lat="45.7693891" lon="10.4969014"><ele>402.0</ele><time>2026-05-02T10:43:30.813Z</time></trkpt><trkpt lat="45.7695439" lon="10.497034"><ele>405.33333333333337</ele><time>2026-05-02T10:43:31.813Z</time></trkpt><trkpt lat="45.7696848" lon="10.497194"><ele>408.6666666666667</ele><time>2026-05-02T10:43:32.813Z</time></trkpt><trkpt lat="45.7697934" lon="10.4973793"><ele>412.0</ele><time>2026-05-02T10:43:33.813Z</time></trkpt><trkpt lat="45.7698814" lon="10.4975825"><ele>412.0</ele><time>2026-05-02T10:43:34.813Z</time></trkpt><trkpt lat="45.7699796" lon="10.4977833"><ele>412.0</ele><time>2026-05-02T10:43:35.813Z</time></trkpt><trkpt lat="45.7700921" lon="10.4979941"><ele>412.0</ele><time>2026-05-02T10:43:36.813Z</time></trkpt><trkpt lat="45.7702328" lon="10.4981774"><ele>416.6666666666667</ele><time>2026-05-02T10:43:37.813Z</time></trkpt><trkpt lat="45.7703778" lon="10.4983383"><ele>421.33333333333337</ele><time>2026-05-02T10:43:38.813Z</time></trkpt><trkpt lat="45.7705411" lon="10.4984752"><ele>426.0</ele><time>2026-05-02T10:43:39.813Z</time></trkpt><trkpt lat="45.770705" lon="10.4986165"><ele>425.0</ele><time>2026-05-02T10:43:40.813Z</time></trkpt><trkpt lat="45.7708796" lon="10.4987741"><ele>424.0</ele><time>2026-05-02T10:43:41.813Z</time></trkpt><trkpt lat="45.7710658" lon="10.4989544"><ele>423.0</ele><time>2026-05-02T10:43:42.813Z</time></trkpt><trkpt lat="45.7712615" lon="10.4991628"><ele>423.0</ele><time>2026-05-02T10:43:43.813Z</time></trkpt><trkpt lat="45.7714493" lon="10.4993976"><ele>423.0</ele><time>2026-05-02T10:43:44.813Z</time></trkpt><trkpt lat="45.7716394" lon="10.4996632"><ele>422.0</ele><time>2026-05-02T10:43:45.813Z</time></trkpt><trkpt lat="45.7718262" lon="10.4999278"><ele>421.0</ele><time>2026-05-02T10:43:46.813Z</time></trkpt><trkpt lat="45.7720243" lon="10.5001854"><ele>410.5</ele><time>2026-05-02T10:43:47.813Z</time></trkpt><trkpt lat="45.7722149" lon="10.5004359"><ele>400.0</ele><time>2026-05-02T10:43:48.813Z</time></trkpt><trkpt lat="45.7723887" lon="10.5006902"><ele>400.0</ele><time>2026-05-02T10:43:49.813Z</time></trkpt><trkpt lat="45.772546" lon="10.5009294"><ele>400.0</ele><time>2026-05-02T10:43:50.813Z</time></trkpt><trkpt lat="45.7726985" lon="10.501155"><ele>400.0</ele><time>2026-05-02T10:43:51.813Z</time></trkpt><trkpt lat="45.7728513" lon="10.5013645"><ele>400.33333333333337</ele><time>2026-05-02T10:43:52.813Z</time></trkpt><trkpt lat="45.7729922" lon="10.5015436"><ele>400.66666666666663</ele><time>2026-05-02T10:43:53.813Z</time></trkpt><trkpt lat="45.7731256" lon="10.5017192"><ele>401.0</ele><time>2026-05-02T10:43:54.813Z</time></trkpt><trkpt lat="45.7732663" lon="10.5018843"><ele>401.0</ele><time>2026-05-02T10:43:55.813Z</time></trkpt><trkpt lat="45.7734241" lon="10.5020114"><ele>401.0</ele><time>2026-05-02T10:43:56.813Z</time></trkpt><trkpt lat="45.773611" lon="10.5021291"><ele>401.0</ele><time>2026-05-02T10:43:57.813Z</time></trkpt><trkpt lat="45.7738191" lon="10.5022373"><ele>394.0</ele><time>2026-05-02T10:43:58.813Z</time></trkpt><trkpt lat="45.7740305" lon="10.5023387"><ele>387.0</ele><time>2026-05-02T10:43:59.813Z</time></trkpt><trkpt lat="45.7742516" lon="10.5024285"><ele>392.5</ele><time>2026-05-02T10:44:00.813Z</time></trkpt><trkpt lat="45.7744971" lon="10.5024812"><ele>398.0</ele><time>2026-05-02T10:44:01.813Z</time></trkpt><trkpt lat="45.7747434" lon="10.5025437"><ele>398.0</ele><time>2026-05-02T10:44:02.813Z</time></trkpt><trkpt lat="45.7749838" lon="10.5026409"><ele>398.0</ele><time>2026-05-02T10:44:03.813Z</time></trkpt><trkpt lat="45.7752181" lon="10.502773"><ele>392.0</ele><time>2026-05-02T10:44:04.813Z</time></trkpt><trkpt lat="45.7754442" lon="10.502938"><ele>386.0</ele><time>2026-05-02T10:44:05.813Z</time></trkpt><trkpt lat="45.7756576" lon="10.5031568"><ele>386.0</ele><time>2026-05-02T10:44:06.813Z</time></trkpt><trkpt lat="45.7758661" lon="10.5033808"><ele>386.0</ele><time>2026-05-02T10:44:07.813Z</time></trkpt><trkpt lat="45.7760644" lon="10.5035888"><ele>381.66666666666663</ele><time>2026-05-02T10:44:08.813Z</time></trkpt><trkpt lat="45.7762597" lon="10.5037499"><ele>377.3333333333333</ele><time>2026-05-02T10:44:09.813Z</time></trkpt><trkpt lat="45.7764487" lon="10.5038643"><ele>373.0</ele><time>2026-05-02T10:44:10.813Z</time></trkpt><trkpt lat="45.7766326" lon="10.5039206"><ele>373.0</ele><time>2026-05-02T10:44:11.813Z</time></trkpt><trkpt lat="45.7768263" lon="10.5039099"><ele>373.0</ele><time>2026-05-02T10:44:12.813Z</time></trkpt><trkpt lat="45.7770179" lon="10.5038183"><ele>373.0</ele><time>2026-05-02T10:44:13.813Z</time></trkpt><trkpt lat="45.7772461" lon="10.5035801"><ele>380.0</ele><time>2026-05-02T10:44:14.813Z</time></trkpt><trkpt lat="45.7774883" lon="10.5034"><ele>387.0</ele><time>2026-05-02T10:44:15.813Z</time></trkpt><trkpt lat="45.7777463" lon="10.5032844"><ele>387.0</ele><time>2026-05-02T10:44:16.813Z</time></trkpt><trkpt lat="45.7779911" lon="10.5032061"><ele>387.0</ele><time>2026-05-02T10:44:17.813Z</time></trkpt><trkpt lat="45.7782242" lon="10.5031624"><ele>387.0</ele><time>2026-05-02T10:44:18.813Z</time></trkpt><trkpt lat="45.7784441" lon="10.503194"><ele>387.0</ele><time>2026-05-02T10:44:19.813Z</time></trkpt><trkpt lat="45.7786754" lon="10.5032433"><ele>389.0</ele><time>2026-05-02T10:44:20.813Z</time></trkpt><trkpt lat="45.7789119" lon="10.5033088"><ele>391.0</ele><time>2026-05-02T10:44:21.813Z</time></trkpt><trkpt lat="45.7791498" lon="10.5033581"><ele>391.0</ele><time>2026-05-02T10:44:22.813Z</time></trkpt><trkpt lat="45.779403" lon="10.5033757"><ele>391.0</ele><time>2026-05-02T10:44:23.813Z</time></trkpt><trkpt lat="45.7796578" lon="10.5033756"><ele>391.0</ele><time>2026-05-02T10:44:24.813Z</time></trkpt><trkpt lat="45.7799159" lon="10.5033316"><ele>391.0</ele><time>2026-05-02T10:44:25.813Z</time></trkpt><trkpt lat="45.7801737" lon="10.5032443"><ele>388.5</ele><time>2026-05-02T10:44:26.813Z</time></trkpt><trkpt lat="45.7804186" lon="10.5031727"><ele>386.0</ele><time>2026-05-02T10:44:27.813Z</time></trkpt><trkpt lat="45.7806711" lon="10.5031372"><ele>386.0</ele><time>2026-05-02T10:44:28.813Z</time></trkpt><trkpt lat="45.7809291" lon="10.5031335"><ele>386.0</ele><time>2026-05-02T10:44:29.813Z</time></trkpt><trkpt lat="45.7811859" lon="10.5031163"><ele>385.5</ele><time>2026-05-02T10:44:30.813Z</time></trkpt><trkpt lat="45.7814371" lon="10.5030625"><ele>385.0</ele><time>2026-05-02T10:44:31.813Z</time></trkpt><trkpt lat="45.7816763" lon="10.5029746"><ele>390.0</ele><time>2026-05-02T10:44:32.813Z</time></trkpt><trkpt lat="45.7818989" lon="10.5028594"><ele>395.0</ele><time>2026-05-02T10:44:33.813Z</time></trkpt><trkpt lat="45.7821295" lon="10.5027211"><ele>395.0</ele><time>2026-05-02T10:44:34.813Z</time></trkpt><trkpt lat="45.7823609" lon="10.5025836"><ele>395.0</ele><time>2026-05-02T10:44:35.813Z</time></trkpt><trkpt lat="45.782577" lon="10.5024376"><ele>394.3333333333333</ele><time>2026-05-02T10:44:36.813Z</time></trkpt><trkpt lat="45.7827744" lon="10.5022792"><ele>393.66666666666663</ele><time>2026-05-02T10:44:37.813Z</time></trkpt><trkpt lat="45.7829429" lon="10.5021222"><ele>393.0</ele><time>2026-05-02T10:44:38.813Z</time></trkpt><trkpt lat="45.7830906" lon="10.5019694"><ele>393.0</ele><time>2026-05-02T10:44:39.813Z</time></trkpt><trkpt lat="45.7832145" lon="10.501829"><ele>393.0</ele><time>2026-05-02T10:44:40.813Z</time></trkpt><trkpt lat="45.7833167" lon="10.5016724"><ele>393.0</ele><time>2026-05-02T10:44:41.813Z</time></trkpt><trkpt lat="45.7833977" lon="10.5014884"><ele>393.0</ele><time>2026-05-02T10:44:42.813Z</time></trkpt><trkpt lat="45.7834846" lon="10.501294"><ele>393.0</ele><time>2026-05-02T10:44:43.813Z</time></trkpt><trkpt lat="45.783575" lon="10.5011016"><ele>393.0</ele><time>2026-05-02T10:44:44.813Z</time></trkpt><trkpt lat="45.7836881" lon="10.5009085"><ele>393.0</ele><time>2026-05-02T10:44:45.813Z</time></trkpt><trkpt lat="45.7838375" lon="10.5007234"><ele>393.0</ele><time>2026-05-02T10:44:46.813Z</time></trkpt><trkpt lat="45.7840246" lon="10.5005902"><ele>393.0</ele><time>2026-05-02T10:44:47.813Z</time></trkpt><trkpt lat="45.784226" lon="10.5005154"><ele>394.0</ele><time>2026-05-02T10:44:48.813Z</time></trkpt><trkpt lat="45.7844513" lon="10.5005048"><ele>395.0</ele><time>2026-05-02T10:44:49.813Z</time></trkpt><trkpt lat="45.7846724" lon="10.5005773"><ele>395.0</ele><time>2026-05-02T10:44:50.813Z</time></trkpt><trkpt lat="45.7848769" lon="10.5007167"><ele>395.0</ele><time>2026-05-02T10:44:51.813Z</time></trkpt><trkpt lat="45.7850806" lon="10.5008689"><ele>397.0</ele><time>2026-05-02T10:44:52.813Z</time></trkpt><trkpt lat="45.7852839" lon="10.5009942"><ele>399.0</ele><time>2026-05-02T10:44:53.813Z</time></trkpt><trkpt lat="45.7854907" lon="10.5010899"><ele>401.0</ele><time>2026-05-02T10:44:54.813Z</time></trkpt><trkpt lat="45.7857129" lon="10.5011311"><ele>401.0</ele><time>2026-05-02T10:44:55.813Z</time></trkpt><trkpt lat="45.7859386" lon="10.5011145"><ele>401.0</ele><time>2026-05-02T10:44:56.813Z</time></trkpt><trkpt lat="45.7861885" lon="10.5010842"><ele>403.5</ele><time>2026-05-02T10:44:57.813Z</time></trkpt><trkpt lat="45.7864488" lon="10.5010696"><ele>406.0</ele><time>2026-05-02T10:44:58.813Z</time></trkpt><trkpt lat="45.7867191" lon="10.5010604"><ele>408.0</ele><time>2026-05-02T10:44:59.813Z</time></trkpt><trkpt lat="45.7869829" lon="10.5010407"><ele>410.0</ele><time>2026-05-02T10:45:00.813Z</time></trkpt><trkpt lat="45.7872523" lon="10.5009781"><ele>410.0</ele><time>2026-05-02T10:45:01.813Z</time></trkpt><trkpt lat="45.7875256" lon="10.500871"><ele>410.0</ele><time>2026-05-02T10:45:02.813Z</time></trkpt><trkpt lat="45.7877977" lon="10.5007484"><ele>406.5</ele><time>2026-05-02T10:45:03.813Z</time></trkpt><trkpt lat="45.7880825" lon="10.5006262"><ele>403.0</ele><time>2026-05-02T10:45:04.813Z</time></trkpt><trkpt lat="45.7883717" lon="10.5005125"><ele>413.0</ele><time>2026-05-02T10:45:05.813Z</time></trkpt><trkpt lat="45.7886734" lon="10.5004075"><ele>423.0</ele><time>2026-05-02T10:45:06.813Z</time></trkpt><trkpt lat="45.7889728" lon="10.5003015"><ele>423.0</ele><time>2026-05-02T10:45:07.813Z</time></trkpt><trkpt lat="45.7892744" lon="10.5001998"><ele>423.0</ele><time>2026-05-02T10:45:08.813Z</time></trkpt><trkpt lat="45.7895759" lon="10.5001177"><ele>423.5</ele><time>2026-05-02T10:45:09.813Z</time></trkpt><trkpt lat="45.7898657" lon="10.5000619"><ele>424.0</ele><time>2026-05-02T10:45:10.813Z</time></trkpt><trkpt lat="45.7901463" lon="10.5000312"><ele>426.0</ele><time>2026-05-02T10:45:11.813Z</time></trkpt><trkpt lat="45.790405" lon="10.5000379"><ele>428.0</ele><time>2026-05-02T10:45:12.813Z</time></trkpt><trkpt lat="45.7906298" lon="10.5000645"><ele>428.0</ele><time>2026-05-02T10:45:13.813Z</time></trkpt><trkpt lat="45.7908235" lon="10.5001101"><ele>428.0</ele><time>2026-05-02T10:45:14.813Z</time></trkpt><trkpt lat="45.7910231" lon="10.5001588"><ele>428.0</ele><time>2026-05-02T10:45:15.813Z</time></trkpt><trkpt lat="45.7912139" lon="10.5001326"><ele>428.3333333333333</ele><time>2026-05-02T10:45:16.813Z</time></trkpt><trkpt lat="45.7913925" lon="10.5000359"><ele>428.66666666666663</ele><time>2026-05-02T10:45:17.813Z</time></trkpt><trkpt lat="45.7915725" lon="10.499945"><ele>429.0</ele><time>2026-05-02T10:45:18.813Z</time></trkpt><trkpt lat="45.7917157" lon="10.4998156"><ele>432.5</ele><time>2026-05-02T10:45:19.813Z</time></trkpt><trkpt lat="45.7918435" lon="10.4997221"><ele>436.0</ele><time>2026-05-02T10:45:20.813Z</time></trkpt><trkpt lat="45.7919802" lon="10.4996953"><ele>439.5</ele><time>2026-05-02T10:45:21.813Z</time></trkpt><trkpt lat="45.7921041" lon="10.4997423"><ele>443.0</ele><time>2026-05-02T10:45:22.813Z</time></trkpt><trkpt lat="45.7922206" lon="10.4998821"><ele>443.0</ele><time>2026-05-02T10:45:23.813Z</time></trkpt><trkpt lat="45.7923335" lon="10.5000977"><ele>443.0</ele><time>2026-05-02T10:45:24.813Z</time></trkpt><trkpt lat="45.7924752" lon="10.5003299"><ele>443.0</ele><time>2026-05-02T10:45:25.813Z</time></trkpt><trkpt lat="45.7926603" lon="10.500504"><ele>436.5</ele><time>2026-05-02T10:45:26.813Z</time></trkpt><trkpt lat="45.7928786" lon="10.5006342"><ele>430.0</ele><time>2026-05-02T10:45:27.813Z</time></trkpt><trkpt lat="45.793123" lon="10.5007187"><ele>430.0</ele><time>2026-05-02T10:45:28.813Z</time></trkpt><trkpt lat="45.7933847" lon="10.500798"><ele>430.0</ele><time>2026-05-02T10:45:29.813Z</time></trkpt><trkpt lat="45.7936509" lon="10.5008698"><ele>435.0</ele><time>2026-05-02T10:45:30.813Z</time></trkpt><trkpt lat="45.7939058" lon="10.5009365"><ele>440.0</ele><time>2026-05-02T10:45:31.813Z</time></trkpt><trkpt lat="45.7941451" lon="10.5009787"><ele>447.0</ele><time>2026-05-02T10:45:32.813Z</time></trkpt><trkpt lat="45.7943528" lon="10.5009842"><ele>454.0</ele><time>2026-05-02T10:45:33.813Z</time></trkpt><trkpt lat="45.7945296" lon="10.501006"><ele>461.0</ele><time>2026-05-02T10:45:34.813Z</time></trkpt><trkpt lat="45.7946853" lon="10.5010498"><ele>461.0</ele><time>2026-05-02T10:45:35.813Z</time></trkpt><trkpt lat="45.7948319" lon="10.5011596"><ele>461.0</ele><time>2026-05-02T10:45:36.813Z</time></trkpt><trkpt lat="45.7949823" lon="10.5012831"><ele>461.0</ele><time>2026-05-02T10:45:37.813Z</time></trkpt><trkpt lat="45.7951537" lon="10.5013988"><ele>456.0</ele><time>2026-05-02T10:45:38.813Z</time></trkpt><trkpt lat="45.7953453" lon="10.501482"><ele>451.0</ele><time>2026-05-02T10:45:39.813Z</time></trkpt><trkpt lat="45.795535" lon="10.5015241"><ele>446.0</ele><time>2026-05-02T10:45:40.813Z</time></trkpt><trkpt lat="45.7957161" lon="10.501539"><ele>446.0</ele><time>2026-05-02T10:45:41.813Z</time></trkpt><trkpt lat="45.7958906" lon="10.501583"><ele>446.0</ele><time>2026-05-02T10:45:42.813Z</time></trkpt><trkpt lat="45.7960517" lon="10.5016501"><ele>446.0</ele><time>2026-05-02T10:45:43.813Z</time></trkpt><trkpt lat="45.7961863" lon="10.5017539"><ele>446.25</ele><time>2026-05-02T10:45:44.813Z</time></trkpt><trkpt lat="45.7963288" lon="10.5018253"><ele>446.5</ele><time>2026-05-02T10:45:45.813Z</time></trkpt><trkpt lat="45.796459" lon="10.501895"><ele>446.75</ele><time>2026-05-02T10:45:46.813Z</time></trkpt><trkpt lat="45.7965808" lon="10.5019753"><ele>447.0</ele><time>2026-05-02T10:45:47.813Z</time></trkpt><trkpt lat="45.7966793" lon="10.5020974"><ele>447.0</ele><time>2026-05-02T10:45:48.813Z</time></trkpt><trkpt lat="45.796733" lon="10.5022495"><ele>447.0</ele><time>2026-05-02T10:45:49.813Z</time></trkpt><trkpt lat="45.7967694" lon="10.5024133"><ele>447.0</ele><time>2026-05-02T10:45:50.813Z</time></trkpt><trkpt lat="45.7968084" lon="10.5025667"><ele>447.0</ele><time>2026-05-02T10:45:51.813Z</time></trkpt><trkpt lat="45.7968546" lon="10.5027045"><ele>449.20000000000005</ele><time>2026-05-02T10:45:52.813Z</time></trkpt><trkpt lat="45.7969173" lon="10.5028199"><ele>451.40000000000003</ele><time>2026-05-02T10:45:53.813Z</time></trkpt><trkpt lat="45.7969757" lon="10.5029262"><ele>453.59999999999997</ele><time>2026-05-02T10:45:54.813Z</time></trkpt><trkpt lat="45.7970341" lon="10.5030263"><ele>455.79999999999995</ele><time>2026-05-02T10:45:55.813Z</time></trkpt><trkpt lat="45.7970942" lon="10.5031194"><ele>458.0</ele><time>2026-05-02T10:45:56.813Z</time></trkpt><trkpt lat="45.7971651" lon="10.5032001"><ele>458.0</ele><time>2026-05-02T10:45:57.813Z</time></trkpt><trkpt lat="45.7972355" lon="10.5032949"><ele>457.99999999999994</ele><time>2026-05-02T10:45:58.813Z</time></trkpt><trkpt lat="45.7973205" lon="10.503394"><ele>457.99999999999994</ele><time>2026-05-02T10:45:59.813Z</time></trkpt><trkpt lat="45.7974149" lon="10.5034812"><ele>458.0</ele><time>2026-05-02T10:46:00.813Z</time></trkpt><trkpt lat="45.7975334" lon="10.503559"><ele>458.0</ele><time>2026-05-02T10:46:01.813Z</time></trkpt><trkpt lat="45.7976482" lon="10.5036322"><ele>461.0</ele><time>2026-05-02T10:46:02.813Z</time></trkpt><trkpt lat="45.7977593" lon="10.5037013"><ele>464.0</ele><time>2026-05-02T10:46:03.813Z</time></trkpt><trkpt lat="45.797863" lon="10.5037792"><ele>467.0</ele><time>2026-05-02T10:46:04.813Z</time></trkpt><trkpt lat="45.7979612" lon="10.5038567"><ele>470.0</ele><time>2026-05-02T10:46:05.813Z</time></trkpt><trkpt lat="45.7980659" lon="10.5039165"><ele>463.5</ele><time>2026-05-02T10:46:06.813Z</time></trkpt><trkpt lat="45.7981804" lon="10.5039627"><ele>457.0</ele><time>2026-05-02T10:46:07.813Z</time></trkpt><trkpt lat="45.7983046" lon="10.5040005"><ele>450.5</ele><time>2026-05-02T10:46:08.813Z</time></trkpt><trkpt lat="45.798431" lon="10.5040346"><ele>444.0</ele><time>2026-05-02T10:46:09.813Z</time></trkpt><trkpt lat="45.7985553" lon="10.5040832"><ele>444.0</ele><time>2026-05-02T10:46:10.813Z</time></trkpt><trkpt lat="45.7986866" lon="10.5041438"><ele>444.0</ele><time>2026-05-02T10:46:11.813Z</time></trkpt><trkpt lat="45.7988105" lon="10.504224"><ele>444.0</ele><time>2026-05-02T10:46:12.813Z</time></trkpt><trkpt lat="45.7989274" lon="10.5042918"><ele>444.0</ele><time>2026-05-02T10:46:13.813Z</time></trkpt><trkpt lat="45.7990365" lon="10.5043434"><ele>444.0</ele><time>2026-05-02T10:46:14.813Z</time></trkpt><trkpt lat="45.7991346" lon="10.5043537"><ele>444.0</ele><time>2026-05-02T10:46:15.813Z</time></trkpt><trkpt lat="45.7992247" lon="10.5043069"><ele>444.0</ele><time>2026-05-02T10:46:16.813Z</time></trkpt><trkpt lat="45.7993037" lon="10.504207"><ele>444.0</ele><time>2026-05-02T10:46:17.813Z</time></trkpt><trkpt lat="45.7993723" lon="10.5040718"><ele>444.0</ele><time>2026-05-02T10:46:18.813Z</time></trkpt><trkpt lat="45.7994399" lon="10.5039484"><ele>446.2</ele><time>2026-05-02T10:46:19.813Z</time></trkpt><trkpt lat="45.7995236" lon="10.5038619"><ele>448.4</ele><time>2026-05-02T10:46:20.813Z</time></trkpt><trkpt lat="45.7996285" lon="10.5037987"><ele>450.6</ele><time>2026-05-02T10:46:21.813Z</time></trkpt><trkpt lat="45.7997387" lon="10.503758"><ele>452.8</ele><time>2026-05-02T10:46:22.813Z</time></trkpt><trkpt lat="45.7998502" lon="10.5037411"><ele>455.0</ele><time>2026-05-02T10:46:23.813Z</time></trkpt><trkpt lat="45.7999666" lon="10.5037486"><ele>450.5</ele><time>2026-05-02T10:46:24.813Z</time></trkpt><trkpt lat="45.8000813" lon="10.5037865"><ele>446.0</ele><time>2026-05-02T10:46:25.813Z</time></trkpt><trkpt lat="45.800187" lon="10.5038645"><ele>441.5</ele><time>2026-05-02T10:46:26.814Z</time></trkpt><trkpt lat="45.8002806" lon="10.503969"><ele>437.0</ele><time>2026-05-02T10:46:27.813Z</time></trkpt><trkpt lat="45.8003605" lon="10.5040941"><ele>437.0</ele><time>2026-05-02T10:46:28.813Z</time></trkpt><trkpt lat="45.8004554" lon="10.5042118"><ele>437.0</ele><time>2026-05-02T10:46:29.813Z</time></trkpt><trkpt lat="45.8005839" lon="10.5042992"><ele>437.0</ele><time>2026-05-02T10:46:30.813Z</time></trkpt><trkpt lat="45.8007461" lon="10.5043649"><ele>437.0</ele><time>2026-05-02T10:46:31.813Z</time></trkpt><trkpt lat="45.8009" lon="10.50443"><ele>438.3333333333333</ele><time>2026-05-02T10:46:32.813Z</time></trkpt><trkpt lat="45.8010371" lon="10.5045265"><ele>439.66666666666663</ele><time>2026-05-02T10:46:33.813Z</time></trkpt><trkpt lat="45.8011704" lon="10.5046387"><ele>441.0</ele><time>2026-05-02T10:46:34.813Z</time></trkpt><trkpt lat="45.8012995" lon="10.5047345"><ele>436.0</ele><time>2026-05-02T10:46:35.813Z</time></trkpt><trkpt lat="45.8014269" lon="10.5047876"><ele>431.0</ele><time>2026-05-02T10:46:36.813Z</time></trkpt><trkpt lat="45.8015548" lon="10.5048002"><ele>426.0</ele><time>2026-05-02T10:46:37.813Z</time></trkpt><trkpt lat="45.8016747" lon="10.5047927"><ele>421.0</ele><time>2026-05-02T10:46:38.813Z</time></trkpt><trkpt lat="45.8017812" lon="10.5047976"><ele>423.75</ele><time>2026-05-02T10:46:39.813Z</time></trkpt><trkpt lat="45.801875" lon="10.5048328"><ele>426.5</ele><time>2026-05-02T10:46:40.813Z</time></trkpt><trkpt lat="45.8019661" lon="10.5049158"><ele>429.25</ele><time>2026-05-02T10:46:41.813Z</time></trkpt><trkpt lat="45.8020675" lon="10.5050594"><ele>432.0</ele><time>2026-05-02T10:46:42.813Z</time></trkpt><trkpt lat="45.8021853" lon="10.5052254"><ele>432.0</ele><time>2026-05-02T10:46:43.813Z</time></trkpt><trkpt lat="45.8023258" lon="10.5053678"><ele>432.0</ele><time>2026-05-02T10:46:44.813Z</time></trkpt><trkpt lat="45.8025006" lon="10.5054717"><ele>432.0</ele><time>2026-05-02T10:46:45.813Z</time></trkpt><trkpt lat="45.8026948" lon="10.5055565"><ele>428.0</ele><time>2026-05-02T10:46:46.813Z</time></trkpt><trkpt lat="45.8029011" lon="10.50561"><ele>424.0</ele><time>2026-05-02T10:46:47.813Z</time></trkpt><trkpt lat="45.8031067" lon="10.5056527"><ele>420.0</ele><time>2026-05-02T10:46:48.813Z</time></trkpt><trkpt lat="45.8033079" lon="10.5057021"><ele>420.0</ele><time>2026-05-02T10:46:49.813Z</time></trkpt><trkpt lat="45.8034959" lon="10.5057863"><ele>420.0</ele><time>2026-05-02T10:46:50.813Z</time></trkpt><trkpt lat="45.8036677" lon="10.5059311"><ele>420.0</ele><time>2026-05-02T10:46:51.813Z</time></trkpt><trkpt lat="45.8038137" lon="10.5061301"><ele>419.33333333333337</ele><time>2026-05-02T10:46:52.813Z</time></trkpt><trkpt lat="45.8039614" lon="10.5063283"><ele>418.6666666666667</ele><time>2026-05-02T10:46:53.813Z</time></trkpt><trkpt lat="45.8041322" lon="10.5064883"><ele>418.0</ele><time>2026-05-02T10:46:54.813Z</time></trkpt><trkpt lat="45.8043349" lon="10.5066068"><ele>423.5</ele><time>2026-05-02T10:46:55.813Z</time></trkpt><trkpt lat="45.8045675" lon="10.506691"><ele>429.0</ele><time>2026-05-02T10:46:56.813Z</time></trkpt><trkpt lat="45.8048208" lon="10.5067363"><ele>429.0</ele><time>2026-05-02T10:46:57.813Z</time></trkpt><trkpt lat="45.8050708" lon="10.5067518"><ele>429.0</ele><time>2026-05-02T10:46:58.813Z</time></trkpt><trkpt lat="45.8053046" lon="10.5067342"><ele>430.66666666666663</ele><time>2026-05-02T10:46:59.813Z</time></trkpt><trkpt lat="45.8055259" lon="10.506679"><ele>432.3333333333333</ele><time>2026-05-02T10:47:00.813Z</time></trkpt><trkpt lat="45.8057363" lon="10.5066201"><ele>434.0</ele><time>2026-05-02T10:47:01.813Z</time></trkpt><trkpt lat="45.8059395" lon="10.5066289"><ele>440.0</ele><time>2026-05-02T10:47:02.813Z</time></trkpt><trkpt lat="45.8061429" lon="10.506701"><ele>446.0</ele><time>2026-05-02T10:47:03.813Z</time></trkpt><trkpt lat="45.8063434" lon="10.5068709"><ele>452.0</ele><time>2026-05-02T10:47:04.813Z</time></trkpt><trkpt lat="45.8065213" lon="10.5070728"><ele>452.66666666666663</ele><time>2026-05-02T10:47:05.813Z</time></trkpt><trkpt lat="45.8066992" lon="10.5072564"><ele>453.33333333333337</ele><time>2026-05-02T10:47:06.813Z</time></trkpt><trkpt lat="45.8068699" lon="10.5074076"><ele>454.0</ele><time>2026-05-02T10:47:07.813Z</time></trkpt><trkpt lat="45.8070496" lon="10.5075182"><ele>454.0</ele><time>2026-05-02T10:47:08.813Z</time></trkpt><trkpt lat="45.8072241" lon="10.5075995"><ele>454.0</ele><time>2026-05-02T10:47:09.813Z</time></trkpt><trkpt lat="45.8073782" lon="10.5076678"><ele>454.0</ele><time>2026-05-02T10:47:10.813Z</time></trkpt><trkpt lat="45.8074997" lon="10.5077611"><ele>454.0</ele><time>2026-05-02T10:47:11.813Z</time></trkpt><trkpt lat="45.8075994" lon="10.5078985"><ele>454.0</ele><time>2026-05-02T10:47:12.813Z</time></trkpt><trkpt lat="45.8076673" lon="10.508095"><ele>454.0</ele><time>2026-05-02T10:47:13.813Z</time></trkpt><trkpt lat="45.8077255" lon="10.5083184"><ele>450.6666666666667</ele><time>2026-05-02T10:47:14.813Z</time></trkpt><trkpt lat="45.8078112" lon="10.508534"><ele>447.33333333333337</ele><time>2026-05-02T10:47:15.813Z</time></trkpt><trkpt lat="45.8079427" lon="10.5087257"><ele>444.0</ele><time>2026-05-02T10:47:16.813Z</time></trkpt><trkpt lat="45.8081065" lon="10.5088922"><ele>444.0</ele><time>2026-05-02T10:47:17.813Z</time></trkpt><trkpt lat="45.8082744" lon="10.5090641"><ele>444.0</ele><time>2026-05-02T10:47:18.813Z</time></trkpt><trkpt lat="45.8084517" lon="10.5092294"><ele>444.0</ele><time>2026-05-02T10:47:19.813Z</time></trkpt><trkpt lat="45.8086296" lon="10.5094077"><ele>444.66666666666663</ele><time>2026-05-02T10:47:20.813Z</time></trkpt><trkpt lat="45.8087907" lon="10.5095952"><ele>445.3333333333333</ele><time>2026-05-02T10:47:21.813Z</time></trkpt><trkpt lat="45.8089387" lon="10.5098117"><ele>446.0</ele><time>2026-05-02T10:47:22.813Z</time></trkpt><trkpt lat="45.8090788" lon="10.5100468"><ele>446.0</ele><time>2026-05-02T10:47:23.813Z</time></trkpt><trkpt lat="45.8092117" lon="10.510287"><ele>446.0</ele><time>2026-05-02T10:47:24.813Z</time></trkpt><trkpt lat="45.8093488" lon="10.5105299"><ele>446.0</ele><time>2026-05-02T10:47:25.813Z</time></trkpt><trkpt lat="45.8094827" lon="10.5107649"><ele>443.3333333333333</ele><time>2026-05-02T10:47:26.813Z</time></trkpt><trkpt lat="45.8096102" lon="10.5109889"><ele>440.66666666666663</ele><time>2026-05-02T10:47:27.813Z</time></trkpt><trkpt lat="45.8097246" lon="10.5111994"><ele>438.0</ele><time>2026-05-02T10:47:28.813Z</time></trkpt><trkpt lat="45.8098306" lon="10.5113987"><ele>438.0</ele><time>2026-05-02T10:47:29.813Z</time></trkpt><trkpt lat="45.8099403" lon="10.511584"><ele>438.0</ele><time>2026-05-02T10:47:30.813Z</time></trkpt><trkpt lat="45.8100422" lon="10.5117665"><ele>438.0</ele><time>2026-05-02T10:47:31.813Z</time></trkpt><trkpt lat="45.8101327" lon="10.5119246"><ele>438.0</ele><time>2026-05-02T10:47:32.813Z</time></trkpt><trkpt lat="45.8102077" lon="10.5120673"><ele>437.99999999999994</ele><time>2026-05-02T10:47:33.813Z</time></trkpt><trkpt lat="45.8102713" lon="10.5121939"><ele>437.99999999999994</ele><time>2026-05-02T10:47:34.813Z</time></trkpt><trkpt lat="45.8103302" lon="10.5123135"><ele>438.0</ele><time>2026-05-02T10:47:35.813Z</time></trkpt><trkpt lat="45.8103884" lon="10.5124312"><ele>438.0</ele><time>2026-05-02T10:47:36.813Z</time></trkpt><trkpt lat="45.8104704" lon="10.512565"><ele>438.0</ele><time>2026-05-02T10:47:37.813Z</time></trkpt><trkpt lat="45.8105845" lon="10.5127176"><ele>438.0</ele><time>2026-05-02T10:47:38.813Z</time></trkpt><trkpt lat="45.8107444" lon="10.5128698"><ele>438.0</ele><time>2026-05-02T10:47:39.813Z</time></trkpt><trkpt lat="45.8109158" lon="10.5130337"><ele>439.0</ele><time>2026-05-02T10:47:40.813Z</time></trkpt><trkpt lat="45.8110846" lon="10.513216"><ele>440.0</ele><time>2026-05-02T10:47:41.813Z</time></trkpt><trkpt lat="45.8112469" lon="10.513421"><ele>441.0</ele><time>2026-05-02T10:47:42.813Z</time></trkpt><trkpt lat="45.8114098" lon="10.5136678"><ele>436.33333333333337</ele><time>2026-05-02T10:47:43.813Z</time></trkpt><trkpt lat="45.8115479" lon="10.5139166"><ele>431.6666666666667</ele><time>2026-05-02T10:47:44.813Z</time></trkpt><trkpt lat="45.8116737" lon="10.51416"><ele>427.0</ele><time>2026-05-02T10:47:45.813Z</time></trkpt><trkpt lat="45.8118074" lon="10.5143771"><ele>428.0</ele><time>2026-05-02T10:47:46.813Z</time></trkpt><trkpt lat="45.8119609" lon="10.5145422"><ele>429.0</ele><time>2026-05-02T10:47:47.813Z</time></trkpt><trkpt lat="45.8121222" lon="10.5146744"><ele>430.0</ele><time>2026-05-02T10:47:48.813Z</time></trkpt><trkpt lat="45.8122835" lon="10.5147904"><ele>430.0</ele><time>2026-05-02T10:47:49.813Z</time></trkpt><trkpt lat="45.8124399" lon="10.5148914"><ele>430.0</ele><time>2026-05-02T10:47:50.813Z</time></trkpt><trkpt lat="45.8125831" lon="10.5149999"><ele>430.0</ele><time>2026-05-02T10:47:51.813Z</time></trkpt><trkpt lat="45.8127093" lon="10.5151311"><ele>431.75</ele><time>2026-05-02T10:47:52.813Z</time></trkpt><trkpt lat="45.8128149" lon="10.5152883"><ele>433.5</ele><time>2026-05-02T10:47:53.813Z</time></trkpt><trkpt lat="45.8128984" lon="10.515456"><ele>435.25</ele><time>2026-05-02T10:47:54.813Z</time></trkpt><trkpt lat="45.8129745" lon="10.5156161"><ele>437.0</ele><time>2026-05-02T10:47:55.813Z</time></trkpt><trkpt lat="45.8130478" lon="10.5157837"><ele>437.0</ele><time>2026-05-02T10:47:56.813Z</time></trkpt><trkpt lat="45.8131212" lon="10.5159633"><ele>437.0</ele><time>2026-05-02T10:47:57.813Z</time></trkpt><trkpt lat="45.8132114" lon="10.5161536"><ele>437.0</ele><time>2026-05-02T10:47:58.813Z</time></trkpt><trkpt lat="45.8133141" lon="10.5163498"><ele>438.3333333333333</ele><time>2026-05-02T10:47:59.813Z</time></trkpt><trkpt lat="45.8134327" lon="10.5165466"><ele>439.66666666666663</ele><time>2026-05-02T10:48:00.813Z</time></trkpt><trkpt lat="45.8135682" lon="10.5167592"><ele>441.0</ele><time>2026-05-02T10:48:01.813Z</time></trkpt><trkpt lat="45.8137229" lon="10.5169698"><ele>431.5</ele><time>2026-05-02T10:48:02.813Z</time></trkpt><trkpt lat="45.8138976" lon="10.517178"><ele>422.0</ele><time>2026-05-02T10:48:03.813Z</time></trkpt><trkpt lat="45.8140817" lon="10.5173763"><ele>422.0</ele><time>2026-05-02T10:48:04.813Z</time></trkpt><trkpt lat="45.8142592" lon="10.5175636"><ele>422.0</ele><time>2026-05-02T10:48:05.813Z</time></trkpt><trkpt lat="45.8144224" lon="10.5177414"><ele>422.0</ele><time>2026-05-02T10:48:06.813Z</time></trkpt><trkpt lat="45.8145832" lon="10.517904"><ele>421.0</ele><time>2026-05-02T10:48:07.813Z</time></trkpt><trkpt lat="45.8147204" lon="10.5180719"><ele>420.0</ele><time>2026-05-02T10:48:08.813Z</time></trkpt><trkpt lat="45.8148364" lon="10.5182583"><ele>419.0</ele><time>2026-05-02T10:48:09.813Z</time></trkpt><trkpt lat="45.8149273" lon="10.5184443"><ele>419.0</ele><time>2026-05-02T10:48:10.813Z</time></trkpt><trkpt lat="45.8150048" lon="10.5186321"><ele>419.0</ele><time>2026-05-02T10:48:11.813Z</time></trkpt><trkpt lat="45.8150896" lon="10.5188071"><ele>419.0</ele><time>2026-05-02T10:48:12.813Z</time></trkpt><trkpt lat="45.8151979" lon="10.5189492"><ele>419.0</ele><time>2026-05-02T10:48:13.813Z</time></trkpt><trkpt lat="45.8153395" lon="10.5190601"><ele>415.0</ele><time>2026-05-02T10:48:14.813Z</time></trkpt><trkpt lat="45.8155118" lon="10.5191503"><ele>411.0</ele><time>2026-05-02T10:48:15.813Z</time></trkpt><trkpt lat="45.8157162" lon="10.5192305"><ele>407.0</ele><time>2026-05-02T10:48:16.813Z</time></trkpt><trkpt lat="45.8159343" lon="10.5193152"><ele>404.3333333333333</ele><time>2026-05-02T10:48:17.813Z</time></trkpt><trkpt lat="45.816148" lon="10.5194169"><ele>401.66666666666663</ele><time>2026-05-02T10:48:18.813Z</time></trkpt><trkpt lat="45.8163472" lon="10.5195254"><ele>399.0</ele><time>2026-05-02T10:48:19.813Z</time></trkpt><trkpt lat="45.8165232" lon="10.5196658"><ele>399.0</ele><time>2026-05-02T10:48:20.813Z</time></trkpt><trkpt lat="45.8166787" lon="10.519834"><ele>399.0</ele><time>2026-05-02T10:48:21.813Z</time></trkpt><trkpt lat="45.816806" lon="10.5200232"><ele>399.0</ele><time>2026-05-02T10:48:22.813Z</time></trkpt><trkpt lat="45.8169188" lon="10.5202296"><ele>401.0</ele><time>2026-05-02T10:48:23.813Z</time></trkpt><trkpt lat="45.817037" lon="10.520441"><ele>403.0</ele><time>2026-05-02T10:48:24.813Z</time></trkpt><trkpt lat="45.8171656" lon="10.5206536"><ele>405.0</ele><time>2026-05-02T10:48:25.813Z</time></trkpt><trkpt lat="45.8173056" lon="10.5208834"><ele>405.0</ele><time>2026-05-02T10:48:26.813Z</time></trkpt><trkpt lat="45.8174479" lon="10.521119"><ele>405.0</ele><time>2026-05-02T10:48:27.813Z</time></trkpt><trkpt lat="45.8175872" lon="10.521351"><ele>405.0</ele><time>2026-05-02T10:48:28.813Z</time></trkpt><trkpt lat="45.8177181" lon="10.5215878"><ele>403.0</ele><time>2026-05-02T10:48:29.813Z</time></trkpt><trkpt lat="45.8178367" lon="10.5217929"><ele>401.0</ele><time>2026-05-02T10:48:30.813Z</time></trkpt><trkpt lat="45.8179508" lon="10.5219751"><ele>399.0</ele><time>2026-05-02T10:48:31.813Z</time></trkpt><trkpt lat="45.8180536" lon="10.5221412"><ele>401.5</ele><time>2026-05-02T10:48:32.813Z</time></trkpt><trkpt lat="45.818153" lon="10.5222883"><ele>404.0</ele><time>2026-05-02T10:48:33.813Z</time></trkpt><trkpt lat="45.8182614" lon="10.5224114"><ele>406.5</ele><time>2026-05-02T10:48:34.813Z</time></trkpt><trkpt lat="45.8183744" lon="10.5225186"><ele>409.0</ele><time>2026-05-02T10:48:35.813Z</time></trkpt><trkpt lat="45.8184847" lon="10.5226139"><ele>409.0</ele><time>2026-05-02T10:48:36.813Z</time></trkpt><trkpt lat="45.8186037" lon="10.5227214"><ele>409.0</ele><time>2026-05-02T10:48:37.812Z</time></trkpt><trkpt lat="45.8187153" lon="10.5228468"><ele>409.0</ele><time>2026-05-02T10:48:38.812Z</time></trkpt><trkpt lat="45.8188189" lon="10.522994"><ele>409.0</ele><time>2026-05-02T10:48:39.812Z</time></trkpt><trkpt lat="45.8189206" lon="10.5231513"><ele>401.0</ele><time>2026-05-02T10:48:40.812Z</time></trkpt><trkpt lat="45.8190171" lon="10.5233051"><ele>393.0</ele><time>2026-05-02T10:48:41.812Z</time></trkpt><trkpt lat="45.8191285" lon="10.5234605"><ele>385.0</ele><time>2026-05-02T10:48:42.812Z</time></trkpt><trkpt lat="45.8192405" lon="10.5236107"><ele>386.6666666666667</ele><time>2026-05-02T10:48:43.812Z</time></trkpt><trkpt lat="45.8193491" lon="10.5237619"><ele>388.33333333333337</ele><time>2026-05-02T10:48:44.812Z</time></trkpt><trkpt lat="45.8194564" lon="10.523922"><ele>390.0</ele><time>2026-05-02T10:48:45.812Z</time></trkpt><trkpt lat="45.8195628" lon="10.5240813"><ele>390.0</ele><time>2026-05-02T10:48:46.812Z</time></trkpt><trkpt lat="45.8196639" lon="10.5242614"><ele>390.0</ele><time>2026-05-02T10:48:47.812Z</time></trkpt><trkpt lat="45.8197613" lon="10.52444"><ele>390.0</ele><time>2026-05-02T10:48:48.812Z</time></trkpt><trkpt lat="45.8198672" lon="10.5246343"><ele>385.6666666666667</ele><time>2026-05-02T10:48:49.812Z</time></trkpt><trkpt lat="45.8199759" lon="10.5248241"><ele>381.33333333333337</ele><time>2026-05-02T10:48:50.812Z</time></trkpt><trkpt lat="45.8200921" lon="10.5250316"><ele>377.0</ele><time>2026-05-02T10:48:51.812Z</time></trkpt><trkpt lat="45.8202089" lon="10.5252612"><ele>380.0</ele><time>2026-05-02T10:48:52.812Z</time></trkpt><trkpt lat="45.8203252" lon="10.5254853"><ele>383.0</ele><time>2026-05-02T10:48:53.812Z</time></trkpt><trkpt lat="45.820444" lon="10.52571"><ele>386.0</ele><time>2026-05-02T10:48:54.812Z</time></trkpt><trkpt lat="45.8205588" lon="10.5259238"><ele>386.0</ele><time>2026-05-02T10:48:55.812Z</time></trkpt><trkpt lat="45.8206772" lon="10.5261279"><ele>386.0</ele><time>2026-05-02T10:48:56.812Z</time></trkpt><trkpt lat="45.8207887" lon="10.5263187"><ele>386.0</ele><time>2026-05-02T10:48:57.812Z</time></trkpt><trkpt lat="45.8208983" lon="10.5265006"><ele>392.3333333333333</ele><time>2026-05-02T10:48:58.812Z</time></trkpt><trkpt lat="45.8210062" lon="10.5266723"><ele>398.66666666666663</ele><time>2026-05-02T10:48:59.812Z</time></trkpt><trkpt lat="45.8211042" lon="10.5268372"><ele>405.0</ele><time>2026-05-02T10:49:00.812Z</time></trkpt><trkpt lat="45.8212055" lon="10.5269992"><ele>399.5</ele><time>2026-05-02T10:49:01.812Z</time></trkpt><trkpt lat="45.8212866" lon="10.527163"><ele>394.0</ele><time>2026-05-02T10:49:02.812Z</time></trkpt><trkpt lat="45.8213909" lon="10.5273066"><ele>388.5</ele><time>2026-05-02T10:49:03.812Z</time></trkpt><trkpt lat="45.8215126" lon="10.527454"><ele>383.0</ele><time>2026-05-02T10:49:04.812Z</time></trkpt><trkpt lat="45.8216494" lon="10.5275938"><ele>383.0</ele><time>2026-05-02T10:49:05.812Z</time></trkpt><trkpt lat="45.8217867" lon="10.5277268"><ele>383.0</ele><time>2026-05-02T10:49:06.812Z</time></trkpt><trkpt lat="45.8219199" lon="10.5278573"><ele>383.0</ele><time>2026-05-02T10:49:07.812Z</time></trkpt><trkpt lat="45.8220644" lon="10.5279757"><ele>381.6666666666667</ele><time>2026-05-02T10:49:08.812Z</time></trkpt><trkpt lat="45.8222107" lon="10.5280932"><ele>380.3333333333333</ele><time>2026-05-02T10:49:09.812Z</time></trkpt><trkpt lat="45.8223547" lon="10.5282161"><ele>379.0</ele><time>2026-05-02T10:49:10.812Z</time></trkpt><trkpt lat="45.8224977" lon="10.5283292"><ele>379.0</ele><time>2026-05-02T10:49:11.812Z</time></trkpt><trkpt lat="45.8226454" lon="10.5284359"><ele>379.0</ele><time>2026-05-02T10:49:12.812Z</time></trkpt><trkpt lat="45.8227947" lon="10.5285455"><ele>379.0</ele><time>2026-05-02T10:49:13.812Z</time></trkpt><trkpt lat="45.8229447" lon="10.5286575"><ele>380.0</ele><time>2026-05-02T10:49:14.812Z</time></trkpt><trkpt lat="45.8230863" lon="10.5287667"><ele>381.0</ele><time>2026-05-02T10:49:15.812Z</time></trkpt><trkpt lat="45.8232172" lon="10.5288788"><ele>382.0</ele><time>2026-05-02T10:49:16.812Z</time></trkpt><trkpt lat="45.8233556" lon="10.5289975"><ele>384.0</ele><time>2026-05-02T10:49:17.812Z</time></trkpt><trkpt lat="45.8234999" lon="10.529119"><ele>386.0</ele><time>2026-05-02T10:49:18.812Z</time></trkpt><trkpt lat="45.8236473" lon="10.5292428"><ele>388.0</ele><time>2026-05-02T10:49:19.812Z</time></trkpt><trkpt lat="45.8237942" lon="10.5293549"><ele>388.0</ele><time>2026-05-02T10:49:20.812Z</time></trkpt><trkpt lat="45.8239384" lon="10.5294661"><ele>388.0</ele><time>2026-05-02T10:49:21.812Z</time></trkpt><trkpt lat="45.8240831" lon="10.5295671"><ele>388.0</ele><time>2026-05-02T10:49:22.812Z</time></trkpt><trkpt lat="45.824231" lon="10.5296637"><ele>387.33333333333337</ele><time>2026-05-02T10:49:23.812Z</time></trkpt><trkpt lat="45.8243756" lon="10.5297565"><ele>386.66666666666663</ele><time>2026-05-02T10:49:24.812Z</time></trkpt><trkpt lat="45.8245225" lon="10.5298459"><ele>386.0</ele><time>2026-05-02T10:49:25.812Z</time></trkpt><trkpt lat="45.824663" lon="10.5299218"><ele>386.0</ele><time>2026-05-02T10:49:26.812Z</time></trkpt><trkpt lat="45.8248091" lon="10.5299999"><ele>386.0</ele><time>2026-05-02T10:49:27.812Z</time></trkpt><trkpt lat="45.8249519" lon="10.5300803"><ele>386.0</ele><time>2026-05-02T10:49:28.812Z</time></trkpt><trkpt lat="45.8250677" lon="10.5301725"><ele>386.0</ele><time>2026-05-02T10:49:29.812Z</time></trkpt><trkpt lat="45.8251547" lon="10.5302893"><ele>385.25</ele><time>2026-05-02T10:49:30.812Z</time></trkpt><trkpt lat="45.8252102" lon="10.5304348"><ele>384.5</ele><time>2026-05-02T10:49:31.812Z</time></trkpt><trkpt lat="45.8252659" lon="10.530591"><ele>383.75</ele><time>2026-05-02T10:49:32.812Z</time></trkpt><trkpt lat="45.8253275" lon="10.5307252"><ele>383.0</ele><time>2026-05-02T10:49:33.812Z</time></trkpt><trkpt lat="45.8254142" lon="10.530832"><ele>383.0</ele><time>2026-05-02T10:49:34.812Z</time></trkpt><trkpt lat="45.825524" lon="10.5309216"><ele>383.0</ele><time>2026-05-02T10:49:35.812Z</time></trkpt><trkpt lat="45.8256522" lon="10.531029"><ele>383.0</ele><time>2026-05-02T10:49:36.812Z</time></trkpt><trkpt lat="45.8257886" lon="10.5311592"><ele>383.0</ele><time>2026-05-02T10:49:37.812Z</time></trkpt><trkpt lat="45.8259231" lon="10.5313145"><ele>384.6666666666667</ele><time>2026-05-02T10:49:38.812Z</time></trkpt><trkpt lat="45.8260588" lon="10.5314746"><ele>386.33333333333337</ele><time>2026-05-02T10:49:39.812Z</time></trkpt><trkpt lat="45.8261976" lon="10.5316207"><ele>388.0</ele><time>2026-05-02T10:49:40.812Z</time></trkpt><trkpt lat="45.8263374" lon="10.5317517"><ele>388.0</ele><time>2026-05-02T10:49:41.812Z</time></trkpt><trkpt lat="45.8264768" lon="10.5318688"><ele>388.0</ele><time>2026-05-02T10:49:42.812Z</time></trkpt><trkpt lat="45.8266082" lon="10.5319732"><ele>388.0</ele><time>2026-05-02T10:49:43.812Z</time></trkpt><trkpt lat="45.8267239" lon="10.532072"><ele>388.0</ele><time>2026-05-02T10:49:44.812Z</time></trkpt><trkpt lat="45.8268525" lon="10.5321471"><ele>389.5</ele><time>2026-05-02T10:49:45.812Z</time></trkpt><trkpt lat="45.8269755" lon="10.5322232"><ele>391.0</ele><time>2026-05-02T10:49:46.812Z</time></trkpt><trkpt lat="45.8270895" lon="10.5323068"><ele>392.5</ele><time>2026-05-02T10:49:47.812Z</time></trkpt><trkpt lat="45.827198" lon="10.5323827"><ele>394.0</ele><time>2026-05-02T10:49:48.812Z</time></trkpt><trkpt lat="45.8273052" lon="10.5324658"><ele>394.0</ele><time>2026-05-02T10:49:49.812Z</time></trkpt><trkpt lat="45.8274224" lon="10.5325767"><ele>394.0</ele><time>2026-05-02T10:49:50.812Z</time></trkpt><trkpt lat="45.8275445" lon="10.5327257"><ele>394.0</ele><time>2026-05-02T10:49:51.812Z</time></trkpt><trkpt lat="45.8276685" lon="10.5329166"><ele>400.6666666666667</ele><time>2026-05-02T10:49:52.812Z</time></trkpt><trkpt lat="45.8277926" lon="10.5331117"><ele>407.33333333333337</ele><time>2026-05-02T10:49:53.812Z</time></trkpt><trkpt lat="45.827909" lon="10.5333172"><ele>414.0</ele><time>2026-05-02T10:49:54.812Z</time></trkpt><trkpt lat="45.828024" lon="10.5335308"><ele>405.66666666666663</ele><time>2026-05-02T10:49:55.812Z</time></trkpt><trkpt lat="45.8281469" lon="10.5337426"><ele>397.3333333333333</ele><time>2026-05-02T10:49:56.812Z</time></trkpt><trkpt lat="45.8282849" lon="10.5339381"><ele>389.0</ele><time>2026-05-02T10:49:57.812Z</time></trkpt><trkpt lat="45.8284158" lon="10.5341155"><ele>390.0</ele><time>2026-05-02T10:49:58.812Z</time></trkpt><trkpt lat="45.8285324" lon="10.5342907"><ele>391.0</ele><time>2026-05-02T10:49:59.812Z</time></trkpt><trkpt lat="45.8286487" lon="10.5344611"><ele>392.0</ele><time>2026-05-02T10:50:00.812Z</time></trkpt><trkpt lat="45.8287506" lon="10.5346307"><ele>392.0</ele><time>2026-05-02T10:50:01.812Z</time></trkpt><trkpt lat="45.8288458" lon="10.5348063"><ele>392.0</ele><time>2026-05-02T10:50:02.812Z</time></trkpt><trkpt lat="45.8289418" lon="10.5349686"><ele>392.0</ele><time>2026-05-02T10:50:03.812Z</time></trkpt><trkpt lat="45.8290323" lon="10.5351237"><ele>392.0</ele><time>2026-05-02T10:50:04.812Z</time></trkpt><trkpt lat="45.8291208" lon="10.5352883"><ele>391.75</ele><time>2026-05-02T10:50:05.812Z</time></trkpt><trkpt lat="45.8292118" lon="10.5354372"><ele>391.5</ele><time>2026-05-02T10:50:06.812Z</time></trkpt><trkpt lat="45.8293057" lon="10.5355906"><ele>391.25</ele><time>2026-05-02T10:50:07.812Z</time></trkpt><trkpt lat="45.8293948" lon="10.535754"><ele>391.0</ele><time>2026-05-02T10:50:08.812Z</time></trkpt><trkpt lat="45.8294788" lon="10.5359181"><ele>392.75</ele><time>2026-05-02T10:50:09.812Z</time></trkpt><trkpt lat="45.8295679" lon="10.5360731"><ele>394.5</ele><time>2026-05-02T10:50:10.812Z</time></trkpt><trkpt lat="45.829657" lon="10.5362399"><ele>396.25</ele><time>2026-05-02T10:50:11.812Z</time></trkpt><trkpt lat="45.8297325" lon="10.5364103"><ele>398.0</ele><time>2026-05-02T10:50:12.812Z</time></trkpt><trkpt lat="45.8298055" lon="10.5365869"><ele>398.0</ele><time>2026-05-02T10:50:13.812Z</time></trkpt><trkpt lat="45.8298721" lon="10.5367655"><ele>398.0</ele><time>2026-05-02T10:50:14.812Z</time></trkpt><trkpt lat="45.8299427" lon="10.5369598"><ele>398.0</ele><time>2026-05-02T10:50:15.812Z</time></trkpt><trkpt lat="45.8300175" lon="10.5371541"><ele>398.0</ele><time>2026-05-02T10:50:16.812Z</time></trkpt><trkpt lat="45.8300792" lon="10.5373601"><ele>398.66666666666663</ele><time>2026-05-02T10:50:17.812Z</time></trkpt><trkpt lat="45.8301223" lon="10.5375874"><ele>399.33333333333337</ele><time>2026-05-02T10:50:18.812Z</time></trkpt><trkpt lat="45.8301765" lon="10.5378088"><ele>400.0</ele><time>2026-05-02T10:50:19.812Z</time></trkpt><trkpt lat="45.8302366" lon="10.5380223"><ele>397.6666666666667</ele><time>2026-05-02T10:50:20.812Z</time></trkpt><trkpt lat="45.8303199" lon="10.5382319"><ele>395.33333333333337</ele><time>2026-05-02T10:50:21.812Z</time></trkpt><trkpt lat="45.8304073" lon="10.5384404"><ele>393.0</ele><time>2026-05-02T10:50:22.812Z</time></trkpt><trkpt lat="45.8304968" lon="10.5386461"><ele>392.0</ele><time>2026-05-02T10:50:23.812Z</time></trkpt><trkpt lat="45.8305866" lon="10.5388537"><ele>391.0</ele><time>2026-05-02T10:50:24.812Z</time></trkpt><trkpt lat="45.8306847" lon="10.5390657"><ele>390.0</ele><time>2026-05-02T10:50:25.812Z</time></trkpt><trkpt lat="45.8307911" lon="10.5392819"><ele>390.0</ele><time>2026-05-02T10:50:26.812Z</time></trkpt><trkpt lat="45.8308982" lon="10.5394992"><ele>390.0</ele><time>2026-05-02T10:50:27.812Z</time></trkpt><trkpt lat="45.8310075" lon="10.5397143"><ele>390.0</ele><time>2026-05-02T10:50:28.812Z</time></trkpt><trkpt lat="45.8311158" lon="10.539929"><ele>390.0</ele><time>2026-05-02T10:50:29.812Z</time></trkpt><trkpt lat="45.8312206" lon="10.5401509"><ele>390.0</ele><time>2026-05-02T10:50:30.812Z</time></trkpt><trkpt lat="45.8313237" lon="10.5403843"><ele>390.0</ele><time>2026-05-02T10:50:31.812Z</time></trkpt><trkpt lat="45.8314275" lon="10.5406172"><ele>389.0</ele><time>2026-05-02T10:50:32.812Z</time></trkpt><trkpt lat="45.8315318" lon="10.540846"><ele>388.0</ele><time>2026-05-02T10:50:33.812Z</time></trkpt><trkpt lat="45.8316506" lon="10.5410726"><ele>387.0</ele><time>2026-05-02T10:50:34.812Z</time></trkpt><trkpt lat="45.8317889" lon="10.5412904"><ele>385.6666666666667</ele><time>2026-05-02T10:50:35.812Z</time></trkpt><trkpt lat="45.8319387" lon="10.541494"><ele>384.33333333333337</ele><time>2026-05-02T10:50:36.812Z</time></trkpt><trkpt lat="45.8321002" lon="10.5416817"><ele>383.0</ele><time>2026-05-02T10:50:37.812Z</time></trkpt><trkpt lat="45.8322653" lon="10.5418542"><ele>383.0</ele><time>2026-05-02T10:50:38.812Z</time></trkpt><trkpt lat="45.8324464" lon="10.5420066"><ele>383.0</ele><time>2026-05-02T10:50:39.812Z</time></trkpt><trkpt lat="45.832647" lon="10.5421472"><ele>383.0</ele><time>2026-05-02T10:50:40.812Z</time></trkpt><trkpt lat="45.8328596" lon="10.5422881"><ele>382.5</ele><time>2026-05-02T10:50:41.812Z</time></trkpt><trkpt lat="45.8330902" lon="10.5424344"><ele>382.0</ele><time>2026-05-02T10:50:42.812Z</time></trkpt><trkpt lat="45.833337" lon="10.5425752"><ele>381.5</ele><time>2026-05-02T10:50:43.812Z</time></trkpt><trkpt lat="45.8336026" lon="10.5427117"><ele>381.0</ele><time>2026-05-02T10:50:44.812Z</time></trkpt><trkpt lat="45.8338863" lon="10.5428523"><ele>379.5</ele><time>2026-05-02T10:50:45.812Z</time></trkpt><trkpt lat="45.8341806" lon="10.5429731"><ele>378.0</ele><time>2026-05-02T10:50:46.812Z</time></trkpt><trkpt lat="45.8344856" lon="10.5430614"><ele>378.0</ele><time>2026-05-02T10:50:47.812Z</time></trkpt><trkpt lat="45.8348054" lon="10.5431202"><ele>378.0</ele><time>2026-05-02T10:50:48.812Z</time></trkpt><trkpt lat="45.8351236" lon="10.543174"><ele>381.5</ele><time>2026-05-02T10:50:49.812Z</time></trkpt><trkpt lat="45.8354273" lon="10.5432363"><ele>385.0</ele><time>2026-05-02T10:50:50.812Z</time></trkpt><trkpt lat="45.8357084" lon="10.5433116"><ele>385.0</ele><time>2026-05-02T10:50:51.812Z</time></trkpt><trkpt lat="45.8359633" lon="10.5434289"><ele>385.0</ele><time>2026-05-02T10:50:52.812Z</time></trkpt><trkpt lat="45.8361822" lon="10.543596"><ele>386.0</ele><time>2026-05-02T10:50:53.812Z</time></trkpt><trkpt lat="45.8363682" lon="10.5438272"><ele>387.0</ele><time>2026-05-02T10:50:54.812Z</time></trkpt><trkpt lat="45.836502" lon="10.544125"><ele>387.0</ele><time>2026-05-02T10:50:55.812Z</time></trkpt><trkpt lat="45.8366025" lon="10.5444766"><ele>387.0</ele><time>2026-05-02T10:50:56.812Z</time></trkpt><trkpt lat="45.8366978" lon="10.5448598"><ele>387.0</ele><time>2026-05-02T10:50:57.812Z</time></trkpt><trkpt lat="45.8368019" lon="10.5452294"><ele>387.0</ele><time>2026-05-02T10:50:58.812Z</time></trkpt><trkpt lat="45.8369097" lon="10.5455725"><ele>387.0</ele><time>2026-05-02T10:50:59.812Z</time></trkpt><trkpt lat="45.8370196" lon="10.5458818"><ele>387.0</ele><time>2026-05-02T10:51:00.812Z</time></trkpt><trkpt lat="45.8371415" lon="10.5461781"><ele>385.0</ele><time>2026-05-02T10:51:01.812Z</time></trkpt><trkpt lat="45.8372877" lon="10.5464471"><ele>383.0</ele><time>2026-05-02T10:51:02.812Z</time></trkpt><trkpt lat="45.8374493" lon="10.5467017"><ele>383.0</ele><time>2026-05-02T10:51:03.812Z</time></trkpt><trkpt lat="45.8376112" lon="10.5469374"><ele>383.0</ele><time>2026-05-02T10:51:04.812Z</time></trkpt><trkpt lat="45.8377622" lon="10.5471699"><ele>384.6666666666667</ele><time>2026-05-02T10:51:05.812Z</time></trkpt><trkpt lat="45.8379066" lon="10.5473938"><ele>386.33333333333337</ele><time>2026-05-02T10:51:06.812Z</time></trkpt><trkpt lat="45.8380426" lon="10.5476093"><ele>388.0</ele><time>2026-05-02T10:51:07.812Z</time></trkpt><trkpt lat="45.8381795" lon="10.5478036"><ele>386.6666666666667</ele><time>2026-05-02T10:51:08.812Z</time></trkpt><trkpt lat="45.8383208" lon="10.5479684"><ele>385.33333333333337</ele><time>2026-05-02T10:51:09.812Z</time></trkpt><trkpt lat="45.8384679" lon="10.5480862"><ele>384.0</ele><time>2026-05-02T10:51:10.812Z</time></trkpt><trkpt lat="45.8386257" lon="10.548172"><ele>386.66666666666663</ele><time>2026-05-02T10:51:11.812Z</time></trkpt><trkpt lat="45.838784" lon="10.5482633"><ele>389.3333333333333</ele><time>2026-05-02T10:51:12.812Z</time></trkpt><trkpt lat="45.8389418" lon="10.5483708"><ele>392.0</ele><time>2026-05-02T10:51:13.812Z</time></trkpt><trkpt lat="45.8390972" lon="10.5484861"><ele>392.0</ele><time>2026-05-02T10:51:14.812Z</time></trkpt><trkpt lat="45.8392553" lon="10.5486051"><ele>392.0</ele><time>2026-05-02T10:51:15.813Z</time></trkpt><trkpt lat="45.83942" lon="10.5487249"><ele>392.0</ele><time>2026-05-02T10:51:16.812Z</time></trkpt><trkpt lat="45.8395901" lon="10.5488479"><ele>393.3333333333333</ele><time>2026-05-02T10:51:17.812Z</time></trkpt><trkpt lat="45.8397627" lon="10.5489938"><ele>394.66666666666663</ele><time>2026-05-02T10:51:18.812Z</time></trkpt><trkpt lat="45.8399289" lon="10.5491625"><ele>396.0</ele><time>2026-05-02T10:51:19.812Z</time></trkpt><trkpt lat="45.8400726" lon="10.5493335"><ele>397.0</ele><time>2026-05-02T10:51:20.812Z</time></trkpt><trkpt lat="45.8402087" lon="10.5494779"><ele>398.0</ele><time>2026-05-02T10:51:21.812Z</time></trkpt><trkpt lat="45.8403557" lon="10.5495974"><ele>399.0</ele><time>2026-05-02T10:51:22.812Z</time></trkpt><trkpt lat="45.8405104" lon="10.5496894"><ele>399.0</ele><time>2026-05-02T10:51:23.812Z</time></trkpt><trkpt lat="45.840673" lon="10.5497483"><ele>399.0</ele><time>2026-05-02T10:51:24.812Z</time></trkpt><trkpt lat="45.8408412" lon="10.5497802"><ele>399.0</ele><time>2026-05-02T10:51:25.812Z</time></trkpt><trkpt lat="45.8410052" lon="10.5497968"><ele>401.5</ele><time>2026-05-02T10:51:26.812Z</time></trkpt><trkpt lat="45.8411545" lon="10.5498178"><ele>404.0</ele><time>2026-05-02T10:51:27.812Z</time></trkpt><trkpt lat="45.8412914" lon="10.5498579"><ele>406.5</ele><time>2026-05-02T10:51:28.812Z</time></trkpt><trkpt lat="45.8414233" lon="10.5499072"><ele>409.0</ele><time>2026-05-02T10:51:29.812Z</time></trkpt><trkpt lat="45.8415421" lon="10.5499788"><ele>409.0</ele><time>2026-05-02T10:51:30.812Z</time></trkpt><trkpt lat="45.8416556" lon="10.5500633"><ele>409.0</ele><time>2026-05-02T10:51:31.812Z</time></trkpt><trkpt lat="45.8417735" lon="10.5501599"><ele>409.0</ele><time>2026-05-02T10:51:32.812Z</time></trkpt><trkpt lat="45.8418819" lon="10.5502577"><ele>409.0</ele><time>2026-05-02T10:51:33.812Z</time></trkpt><trkpt lat="45.8420165" lon="10.5503398"><ele>407.5</ele><time>2026-05-02T10:51:34.812Z</time></trkpt><trkpt lat="45.8421509" lon="10.5504107"><ele>406.0</ele><time>2026-05-02T10:51:35.812Z</time></trkpt><trkpt lat="45.8422712" lon="10.550465"><ele>404.5</ele><time>2026-05-02T10:51:36.812Z</time></trkpt><trkpt lat="45.8424043" lon="10.5505364"><ele>403.0</ele><time>2026-05-02T10:51:37.812Z</time></trkpt><trkpt lat="45.8425505" lon="10.550618"><ele>405.6666666666667</ele><time>2026-05-02T10:51:38.812Z</time></trkpt><trkpt lat="45.8427113" lon="10.5507182"><ele>408.33333333333337</ele><time>2026-05-02T10:51:39.812Z</time></trkpt><trkpt lat="45.8428943" lon="10.550842"><ele>411.0</ele><time>2026-05-02T10:51:40.812Z</time></trkpt><trkpt lat="45.843089" lon="10.5510038"><ele>411.0</ele><time>2026-05-02T10:51:41.812Z</time></trkpt><trkpt lat="45.8432815" lon="10.5511824"><ele>411.0</ele><time>2026-05-02T10:51:42.812Z</time></trkpt><trkpt lat="45.8434769" lon="10.5513571"><ele>410.0</ele><time>2026-05-02T10:51:43.812Z</time></trkpt><trkpt lat="45.8436697" lon="10.5515585"><ele>409.0</ele><time>2026-05-02T10:51:44.812Z</time></trkpt><trkpt lat="45.843883" lon="10.5517331"><ele>409.0</ele><time>2026-05-02T10:51:45.812Z</time></trkpt><trkpt lat="45.8441074" lon="10.5519128"><ele>409.0</ele><time>2026-05-02T10:51:46.812Z</time></trkpt><trkpt lat="45.844332" lon="10.5520999"><ele>405.5</ele><time>2026-05-02T10:51:47.812Z</time></trkpt><trkpt lat="45.8445552" lon="10.5522947"><ele>402.0</ele><time>2026-05-02T10:51:48.812Z</time></trkpt><trkpt lat="45.844778" lon="10.5524956"><ele>402.0</ele><time>2026-05-02T10:51:49.812Z</time></trkpt><trkpt lat="45.8450092" lon="10.5526738"><ele>402.0</ele><time>2026-05-02T10:51:50.812Z</time></trkpt><trkpt lat="45.8452425" lon="10.5528625"><ele>398.5</ele><time>2026-05-02T10:51:51.812Z</time></trkpt><trkpt lat="45.8454736" lon="10.5530633"><ele>395.0</ele><time>2026-05-02T10:51:52.812Z</time></trkpt><trkpt lat="45.845698" lon="10.5532589"><ele>395.0</ele><time>2026-05-02T10:51:53.812Z</time></trkpt><trkpt lat="45.8459205" lon="10.5534554"><ele>395.0</ele><time>2026-05-02T10:51:54.812Z</time></trkpt><trkpt lat="45.8461363" lon="10.5536592"><ele>393.5</ele><time>2026-05-02T10:51:55.812Z</time></trkpt><trkpt lat="45.84635" lon="10.5538715"><ele>392.0</ele><time>2026-05-02T10:51:56.812Z</time></trkpt><trkpt lat="45.84656" lon="10.5540749"><ele>392.0</ele><time>2026-05-02T10:51:57.812Z</time></trkpt><trkpt lat="45.8467686" lon="10.5542814"><ele>392.0</ele><time>2026-05-02T10:51:58.812Z</time></trkpt><trkpt lat="45.8469692" lon="10.5545211"><ele>394.5</ele><time>2026-05-02T10:51:59.812Z</time></trkpt><trkpt lat="45.8471605" lon="10.5547776"><ele>397.0</ele><time>2026-05-02T10:52:00.812Z</time></trkpt><trkpt lat="45.8473364" lon="10.5550552"><ele>397.0</ele><time>2026-05-02T10:52:01.812Z</time></trkpt><trkpt lat="45.847493" lon="10.5553503"><ele>397.0</ele><time>2026-05-02T10:52:02.812Z</time></trkpt><trkpt lat="45.8476255" lon="10.5556636"><ele>400.0</ele><time>2026-05-02T10:52:03.812Z</time></trkpt><trkpt lat="45.8477564" lon="10.5559796"><ele>403.0</ele><time>2026-05-02T10:52:04.812Z</time></trkpt><trkpt lat="45.847877" lon="10.5563091"><ele>396.5</ele><time>2026-05-02T10:52:05.812Z</time></trkpt><trkpt lat="45.8479996" lon="10.556636"><ele>390.0</ele><time>2026-05-02T10:52:06.812Z</time></trkpt><trkpt lat="45.848125" lon="10.5569603"><ele>388.5</ele><time>2026-05-02T10:52:07.812Z</time></trkpt><trkpt lat="45.8482468" lon="10.5572764"><ele>387.0</ele><time>2026-05-02T10:52:08.812Z</time></trkpt><trkpt lat="45.8483662" lon="10.5575877"><ele>387.5</ele><time>2026-05-02T10:52:09.812Z</time></trkpt><trkpt lat="45.8484855" lon="10.5578919"><ele>388.0</ele><time>2026-05-02T10:52:10.812Z</time></trkpt><trkpt lat="45.8486019" lon="10.5581896"><ele>388.0</ele><time>2026-05-02T10:52:11.812Z</time></trkpt><trkpt lat="45.8487276" lon="10.5584818"><ele>388.0</ele><time>2026-05-02T10:52:12.812Z</time></trkpt><trkpt lat="45.8488439" lon="10.5587747"><ele>387.6666666666667</ele><time>2026-05-02T10:52:13.812Z</time></trkpt><trkpt lat="45.8489573" lon="10.5590517"><ele>387.33333333333337</ele><time>2026-05-02T10:52:14.812Z</time></trkpt><trkpt lat="45.8490686" lon="10.5593273"><ele>387.0</ele><time>2026-05-02T10:52:15.812Z</time></trkpt><trkpt lat="45.8491791" lon="10.5596002"><ele>387.0</ele><time>2026-05-02T10:52:16.813Z</time></trkpt><trkpt lat="45.8492847" lon="10.5598632"><ele>387.0</ele><time>2026-05-02T10:52:17.812Z</time></trkpt><trkpt lat="45.8493905" lon="10.560117"><ele>387.0</ele><time>2026-05-02T10:52:18.812Z</time></trkpt><trkpt lat="45.8494916" lon="10.5603595"><ele>388.0</ele><time>2026-05-02T10:52:19.812Z</time></trkpt><trkpt lat="45.8495884" lon="10.5606036"><ele>389.0</ele><time>2026-05-02T10:52:20.812Z</time></trkpt><trkpt lat="45.8496848" lon="10.5608438"><ele>390.0</ele><time>2026-05-02T10:52:21.812Z</time></trkpt><trkpt lat="45.8497733" lon="10.5610651"><ele>390.0</ele><time>2026-05-02T10:52:22.812Z</time></trkpt><trkpt lat="45.8498624" lon="10.5612788"><ele>390.0</ele><time>2026-05-02T10:52:23.812Z</time></trkpt><trkpt lat="45.8499555" lon="10.5614868"><ele>390.0</ele><time>2026-05-02T10:52:24.812Z</time></trkpt><trkpt lat="45.850035" lon="10.5616965"><ele>390.0</ele><time>2026-05-02T10:52:25.812Z</time></trkpt><trkpt lat="45.8501119" lon="10.5619116"><ele>390.0</ele><time>2026-05-02T10:52:26.812Z</time></trkpt><trkpt lat="45.8501882" lon="10.5621163"><ele>390.0</ele><time>2026-05-02T10:52:27.812Z</time></trkpt><trkpt lat="45.850269" lon="10.5623183"><ele>391.0</ele><time>2026-05-02T10:52:28.812Z</time></trkpt><trkpt lat="45.850358" lon="10.5625176"><ele>392.0</ele><time>2026-05-02T10:52:29.812Z</time></trkpt><trkpt lat="45.850444" lon="10.5627265"><ele>393.0</ele><time>2026-05-02T10:52:30.812Z</time></trkpt><trkpt lat="45.8505278" lon="10.5629406"><ele>393.0</ele><time>2026-05-02T10:52:31.812Z</time></trkpt><trkpt lat="45.8506038" lon="10.5631573"><ele>393.0</ele><time>2026-05-02T10:52:32.812Z</time></trkpt><trkpt lat="45.8506769" lon="10.5633844"><ele>393.0</ele><time>2026-05-02T10:52:33.812Z</time></trkpt><trkpt lat="45.8507481" lon="10.5636072"><ele>392.66666666666663</ele><time>2026-05-02T10:52:34.812Z</time></trkpt><trkpt lat="45.8508151" lon="10.5638338"><ele>392.3333333333333</ele><time>2026-05-02T10:52:35.812Z</time></trkpt><trkpt lat="45.8508936" lon="10.5640561"><ele>392.0</ele><time>2026-05-02T10:52:36.812Z</time></trkpt><trkpt lat="45.8509829" lon="10.564272"><ele>392.3333333333333</ele><time>2026-05-02T10:52:37.812Z</time></trkpt><trkpt lat="45.8510901" lon="10.5644743"><ele>392.66666666666663</ele><time>2026-05-02T10:52:38.812Z</time></trkpt><trkpt lat="45.8512205" lon="10.5646425"><ele>393.0</ele><time>2026-05-02T10:52:39.812Z</time></trkpt><trkpt lat="45.8513614" lon="10.5647862"><ele>393.0</ele><time>2026-05-02T10:52:40.812Z</time></trkpt><trkpt lat="45.8515067" lon="10.5649173"><ele>393.0</ele><time>2026-05-02T10:52:41.812Z</time></trkpt><trkpt lat="45.8516527" lon="10.5650375"><ele>393.0</ele><time>2026-05-02T10:52:42.812Z</time></trkpt><trkpt lat="45.851789" lon="10.5651632"><ele>393.66666666666663</ele><time>2026-05-02T10:52:43.812Z</time></trkpt><trkpt lat="45.8519186" lon="10.5652958"><ele>394.3333333333333</ele><time>2026-05-02T10:52:44.812Z</time></trkpt><trkpt lat="45.8520476" lon="10.5654327"><ele>395.0</ele><time>2026-05-02T10:52:45.812Z</time></trkpt><trkpt lat="45.8521732" lon="10.5655766"><ele>393.66666666666663</ele><time>2026-05-02T10:52:46.812Z</time></trkpt><trkpt lat="45.8522991" lon="10.5657296"><ele>392.33333333333337</ele><time>2026-05-02T10:52:47.812Z</time></trkpt><trkpt lat="45.8524231" lon="10.5658845"><ele>391.0</ele><time>2026-05-02T10:52:48.812Z</time></trkpt><trkpt lat="45.8525467" lon="10.5660332"><ele>391.33333333333337</ele><time>2026-05-02T10:52:49.812Z</time></trkpt><trkpt lat="45.8526728" lon="10.5661727"><ele>391.66666666666663</ele><time>2026-05-02T10:52:50.812Z</time></trkpt><trkpt lat="45.8527976" lon="10.5663101"><ele>392.0</ele><time>2026-05-02T10:52:51.812Z</time></trkpt><trkpt lat="45.8529221" lon="10.5664391"><ele>392.0</ele><time>2026-05-02T10:52:52.812Z</time></trkpt><trkpt lat="45.8530447" lon="10.5665647"><ele>392.0</ele><time>2026-05-02T10:52:53.812Z</time></trkpt><trkpt lat="45.8531707" lon="10.5666671"><ele>392.0</ele><time>2026-05-02T10:52:54.812Z</time></trkpt><trkpt lat="45.8532998" lon="10.5667511"><ele>392.0</ele><time>2026-05-02T10:52:55.812Z</time></trkpt><trkpt lat="45.8534295" lon="10.5668292"><ele>392.25</ele><time>2026-05-02T10:52:56.812Z</time></trkpt><trkpt lat="45.8535568" lon="10.5669162"><ele>392.5</ele><time>2026-05-02T10:52:57.812Z</time></trkpt><trkpt lat="45.8536759" lon="10.5669989"><ele>392.75</ele><time>2026-05-02T10:52:58.812Z</time></trkpt><trkpt lat="45.8537897" lon="10.5670725"><ele>393.0</ele><time>2026-05-02T10:52:59.812Z</time></trkpt><trkpt lat="45.8538929" lon="10.56715"><ele>392.5</ele><time>2026-05-02T10:53:00.812Z</time></trkpt><trkpt lat="45.853992" lon="10.5672241"><ele>392.0</ele><time>2026-05-02T10:53:01.812Z</time></trkpt><trkpt lat="45.8540841" lon="10.567282"><ele>391.5</ele><time>2026-05-02T10:53:02.812Z</time></trkpt><trkpt lat="45.8542552" lon="10.5673735"><ele>391.0</ele><time>2026-05-02T10:53:04.812Z</time></trkpt><trkpt lat="45.8543246" lon="10.5674205"><ele>391.0</ele><time>2026-05-02T10:53:05.812Z</time></trkpt><trkpt lat="45.8543785" lon="10.567496"><ele>391.0</ele><time>2026-05-02T10:53:06.812Z</time></trkpt><trkpt lat="45.8543958" lon="10.5676775"><ele>391.0</ele><time>2026-05-02T10:53:08.812Z</time></trkpt><trkpt lat="45.8543666" lon="10.5677965"><ele>391.0</ele><time>2026-05-02T10:53:09.812Z</time></trkpt><trkpt lat="45.8543417" lon="10.5679237"><ele>391.0</ele><time>2026-05-02T10:53:10.812Z</time></trkpt><trkpt lat="45.8543201" lon="10.5680495"><ele>391.0</ele><time>2026-05-02T10:53:11.812Z</time></trkpt><trkpt lat="45.8543057" lon="10.5681766"><ele>391.0</ele><time>2026-05-02T10:53:12.812Z</time></trkpt><trkpt lat="45.8542992" lon="10.5683135"><ele>391.0</ele><time>2026-05-02T10:53:13.812Z</time></trkpt><trkpt lat="45.8542997" lon="10.5684661"><ele>391.0</ele><time>2026-05-02T10:53:14.812Z</time></trkpt><trkpt lat="45.8543044" lon="10.5686259"><ele>391.0</ele><time>2026-05-02T10:53:15.812Z</time></trkpt><trkpt lat="45.8543053" lon="10.568795"><ele>390.6666666666667</ele><time>2026-05-02T10:53:16.812Z</time></trkpt><trkpt lat="45.8543156" lon="10.5689669"><ele>390.33333333333337</ele><time>2026-05-02T10:53:17.812Z</time></trkpt><trkpt lat="45.8543285" lon="10.5691448"><ele>390.0</ele><time>2026-05-02T10:53:18.812Z</time></trkpt><trkpt lat="45.8543445" lon="10.5695369"><ele>390.0</ele><time>2026-05-02T10:53:20.812Z</time></trkpt><trkpt lat="45.8543577" lon="10.5697321"><ele>390.0</ele><time>2026-05-02T10:53:21.812Z</time></trkpt><trkpt lat="45.8543744" lon="10.5699355"><ele>390.0</ele><time>2026-05-02T10:53:22.812Z</time></trkpt><trkpt lat="45.8543845" lon="10.5701412"><ele>390.0</ele><time>2026-05-02T10:53:23.812Z</time></trkpt><trkpt lat="45.8543921" lon="10.5703422"><ele>390.0</ele><time>2026-05-02T10:53:24.812Z</time></trkpt><trkpt lat="45.8544066" lon="10.5705357"><ele>390.0</ele><time>2026-05-02T10:53:25.812Z</time></trkpt><trkpt lat="45.8544121" lon="10.5707084"><ele>390.0</ele><time>2026-05-02T10:53:26.812Z</time></trkpt><trkpt lat="45.854422" lon="10.5708726"><ele>390.0</ele><time>2026-05-02T10:53:27.812Z</time></trkpt><trkpt lat="45.8544316" lon="10.571029"><ele>390.0</ele><time>2026-05-02T10:53:28.812Z</time></trkpt><trkpt lat="45.854434" lon="10.5711693"><ele>390.0</ele><time>2026-05-02T10:53:29.812Z</time></trkpt><trkpt lat="45.854443" lon="10.5713091"><ele>390.0</ele><time>2026-05-02T10:53:30.812Z</time></trkpt><trkpt lat="45.8544447" lon="10.5714643"><ele>390.0</ele><time>2026-05-02T10:53:31.812Z</time></trkpt><trkpt lat="45.854433" lon="10.5716401"><ele>390.0</ele><time>2026-05-02T10:53:32.812Z</time></trkpt><trkpt lat="45.8543909" lon="10.571832"><ele>389.75</ele><time>2026-05-02T10:53:33.812Z</time></trkpt><trkpt lat="45.8543236" lon="10.5720258"><ele>389.5</ele><time>2026-05-02T10:53:34.812Z</time></trkpt><trkpt lat="45.8542411" lon="10.5721969"><ele>389.25</ele><time>2026-05-02T10:53:35.812Z</time></trkpt><trkpt lat="45.8541473" lon="10.5723504"><ele>389.0</ele><time>2026-05-02T10:53:36.812Z</time></trkpt><trkpt lat="45.8540446" lon="10.57248"><ele>389.0</ele><time>2026-05-02T10:53:37.812Z</time></trkpt><trkpt lat="45.8539363" lon="10.5725879"><ele>389.0</ele><time>2026-05-02T10:53:38.812Z</time></trkpt><trkpt lat="45.8538291" lon="10.5726823"><ele>389.0</ele><time>2026-05-02T10:53:39.812Z</time></trkpt><trkpt lat="45.8537178" lon="10.5727789"><ele>389.0</ele><time>2026-05-02T10:53:40.812Z</time></trkpt><trkpt lat="45.8536059" lon="10.5728859"><ele>389.0</ele><time>2026-05-02T10:53:41.812Z</time></trkpt></trkseg><trkseg><trkpt lat="45.859888" lon="10.5684369"><ele>406.0</ele><time>2026-05-02T12:36:45.14Z</time></trkpt><trkpt lat="45.8598552" lon="10.5685463"><ele>406.0</ele><time>2026-05-02T12:36:46.64Z</time></trkpt><trkpt lat="45.8598933" lon="10.5683053"><ele>406.0</ele><time>2026-05-02T12:36:49.64Z</time></trkpt><trkpt lat="45.8599315" lon="10.5684546"><ele>406.0</ele><time>2026-05-02T12:36:54.64Z</time></trkpt><trkpt lat="45.8599293" lon="10.5685471"><ele>406.0</ele><time>2026-05-02T12:36:55.801Z</time></trkpt><trkpt lat="45.8598824" lon="10.5684498"><ele>406.00000000000006</ele><time>2026-05-02T12:37:13.801Z</time></trkpt><trkpt lat="45.8598431" lon="10.568374"><ele>406.0</ele><time>2026-05-02T12:37:16.801Z</time></trkpt><trkpt lat="45.8597305" lon="10.5684372"><ele>406.0</ele><time>2026-05-02T12:37:18.801Z</time></trkpt><trkpt lat="45.8596696" lon="10.5684831"><ele>406.0</ele><time>2026-05-02T12:37:19.801Z</time></trkpt><trkpt lat="45.8596039" lon="10.5685311"><ele>406.00000000000006</ele><time>2026-05-02T12:37:20.801Z</time></trkpt><trkpt lat="45.8595337" lon="10.5685825"><ele>406.0</ele><time>2026-05-02T12:37:21.801Z</time></trkpt><trkpt lat="45.8594614" lon="10.5686336"><ele>406.00000000000006</ele><time>2026-05-02T12:37:22.801Z</time></trkpt><trkpt lat="45.8593913" lon="10.5686816"><ele>406.0</ele><time>2026-05-02T12:37:23.801Z</time></trkpt><trkpt lat="45.8593249" lon="10.5687273"><ele>406.0</ele><time>2026-05-02T12:37:24.801Z</time></trkpt><trkpt lat="45.8592622" lon="10.5687695"><ele>406.0</ele><time>2026-05-02T12:37:25.801Z</time></trkpt><trkpt lat="45.8592011" lon="10.5688061"><ele>406.00000000000006</ele><time>2026-05-02T12:37:26.801Z</time></trkpt><trkpt lat="45.8591064" lon="10.5688798"><ele>406.0</ele><time>2026-05-02T12:37:28.801Z</time></trkpt><trkpt lat="45.8590614" lon="10.568958"><ele>405.6</ele><time>2026-05-02T12:37:30.801Z</time></trkpt><trkpt lat="45.8591122" lon="10.5691009"><ele>405.20000000000005</ele><time>2026-05-02T12:37:33.801Z</time></trkpt><trkpt lat="45.8592254" lon="10.5691846"><ele>404.79999999999995</ele><time>2026-05-02T12:37:35.801Z</time></trkpt><trkpt lat="45.8592958" lon="10.5692167"><ele>404.4</ele><time>2026-05-02T12:37:36.801Z</time></trkpt><trkpt lat="45.8593728" lon="10.5692305"><ele>404.0</ele><time>2026-05-02T12:37:37.801Z</time></trkpt><trkpt lat="45.8594523" lon="10.569229"><ele>404.0</ele><time>2026-05-02T12:37:38.801Z</time></trkpt><trkpt lat="45.8595283" lon="10.56923"><ele>404.0</ele><time>2026-05-02T12:37:39.801Z</time></trkpt><trkpt lat="45.8595927" lon="10.5692568"><ele>404.0</ele><time>2026-05-02T12:37:40.801Z</time></trkpt><trkpt lat="45.8596465" lon="10.569406"><ele>404.0</ele><time>2026-05-02T12:37:42.801Z</time></trkpt><trkpt lat="45.8595848" lon="10.5695569"><ele>404.0</ele><time>2026-05-02T12:37:44.801Z</time></trkpt><trkpt lat="45.8593717" lon="10.5696557"><ele>403.42857142857144</ele><time>2026-05-02T12:37:47.801Z</time></trkpt><trkpt lat="45.8593027" lon="10.5697002"><ele>402.85714285714283</ele><time>2026-05-02T12:37:48.801Z</time></trkpt><trkpt lat="45.8592415" lon="10.5697622"><ele>402.28571428571433</ele><time>2026-05-02T12:37:49.801Z</time></trkpt><trkpt lat="45.8592062" lon="10.5698556"><ele>401.7142857142857</ele><time>2026-05-02T12:37:50.801Z</time></trkpt><trkpt lat="45.8591889" lon="10.5699653"><ele>401.14285714285717</ele><time>2026-05-02T12:37:51.801Z</time></trkpt><trkpt lat="45.8591857" lon="10.5700685"><ele>400.5714285714286</ele><time>2026-05-02T12:37:52.801Z</time></trkpt><trkpt lat="45.8592157" lon="10.5701632"><ele>400.0</ele><time>2026-05-02T12:37:53.801Z</time></trkpt><trkpt lat="45.8593612" lon="10.5702862"><ele>400.0</ele><time>2026-05-02T12:37:55.801Z</time></trkpt><trkpt lat="45.8594427" lon="10.5703293"><ele>400.0</ele><time>2026-05-02T12:37:56.801Z</time></trkpt><trkpt lat="45.8595263" lon="10.5703752"><ele>400.0</ele><time>2026-05-02T12:37:57.801Z</time></trkpt><trkpt lat="45.8596171" lon="10.5704333"><ele>400.0</ele><time>2026-05-02T12:37:58.801Z</time></trkpt><trkpt lat="45.8597063" lon="10.5705148"><ele>400.0</ele><time>2026-05-02T12:37:59.801Z</time></trkpt><trkpt lat="45.8597885" lon="10.5706235"><ele>399.75</ele><time>2026-05-02T12:38:00.801Z</time></trkpt><trkpt lat="45.8598688" lon="10.5707588"><ele>399.5</ele><time>2026-05-02T12:38:01.801Z</time></trkpt><trkpt lat="45.8599487" lon="10.5709097"><ele>399.25</ele><time>2026-05-02T12:38:02.801Z</time></trkpt><trkpt lat="45.8600402" lon="10.5710855"><ele>399.0</ele><time>2026-05-02T12:38:03.801Z</time></trkpt><trkpt lat="45.8601325" lon="10.5712634"><ele>400.0</ele><time>2026-05-02T12:38:04.801Z</time></trkpt><trkpt lat="45.8602289" lon="10.5714329"><ele>401.0</ele><time>2026-05-02T12:38:05.801Z</time></trkpt><trkpt lat="45.8603255" lon="10.5716025"><ele>402.0</ele><time>2026-05-02T12:38:06.801Z</time></trkpt><trkpt lat="45.8604233" lon="10.5717806"><ele>402.0</ele><time>2026-05-02T12:38:07.801Z</time></trkpt><trkpt lat="45.8605236" lon="10.5719657"><ele>402.0</ele><time>2026-05-02T12:38:08.801Z</time></trkpt><trkpt lat="45.8606259" lon="10.5721515"><ele>402.0</ele><time>2026-05-02T12:38:09.801Z</time></trkpt><trkpt lat="45.8607306" lon="10.5723461"><ele>402.0</ele><time>2026-05-02T12:38:10.801Z</time></trkpt><trkpt lat="45.8608415" lon="10.5725462"><ele>402.0</ele><time>2026-05-02T12:38:11.801Z</time></trkpt><trkpt lat="45.8609445" lon="10.5727509"><ele>402.0</ele><time>2026-05-02T12:38:12.801Z</time></trkpt><trkpt lat="45.8610414" lon="10.5729632"><ele>402.33333333333337</ele><time>2026-05-02T12:38:13.801Z</time></trkpt><trkpt lat="45.8611487" lon="10.5731729"><ele>402.6666666666667</ele><time>2026-05-02T12:38:14.801Z</time></trkpt><trkpt lat="45.8612624" lon="10.5733841"><ele>403.0</ele><time>2026-05-02T12:38:15.801Z</time></trkpt><trkpt lat="45.8613824" lon="10.5735979"><ele>403.0</ele><time>2026-05-02T12:38:16.801Z</time></trkpt><trkpt lat="45.8614995" lon="10.573806"><ele>403.0</ele><time>2026-05-02T12:38:17.801Z</time></trkpt><trkpt lat="45.8616185" lon="10.5740191"><ele>403.0</ele><time>2026-05-02T12:38:18.801Z</time></trkpt><trkpt lat="45.8617469" lon="10.574228"><ele>403.33333333333337</ele><time>2026-05-02T12:38:19.801Z</time></trkpt><trkpt lat="45.8618792" lon="10.5744355"><ele>403.66666666666663</ele><time>2026-05-02T12:38:20.801Z</time></trkpt><trkpt lat="45.8620222" lon="10.5746363"><ele>404.0</ele><time>2026-05-02T12:38:21.801Z</time></trkpt><trkpt lat="45.8621717" lon="10.5748349"><ele>404.0</ele><time>2026-05-02T12:38:22.801Z</time></trkpt><trkpt lat="45.862323" lon="10.5750181"><ele>404.0</ele><time>2026-05-02T12:38:23.801Z</time></trkpt><trkpt lat="45.862481" lon="10.575192"><ele>404.0</ele><time>2026-05-02T12:38:24.801Z</time></trkpt><trkpt lat="45.8626446" lon="10.5753572"><ele>403.66666666666663</ele><time>2026-05-02T12:38:25.801Z</time></trkpt><trkpt lat="45.8628178" lon="10.5755115"><ele>403.33333333333337</ele><time>2026-05-02T12:38:26.801Z</time></trkpt><trkpt lat="45.8630021" lon="10.5756609"><ele>403.0</ele><time>2026-05-02T12:38:27.801Z</time></trkpt><trkpt lat="45.8631795" lon="10.5758243"><ele>403.0</ele><time>2026-05-02T12:38:28.801Z</time></trkpt><trkpt lat="45.8633569" lon="10.5759741"><ele>403.0</ele><time>2026-05-02T12:38:29.801Z</time></trkpt><trkpt lat="45.8635328" lon="10.576124"><ele>403.0</ele><time>2026-05-02T12:38:30.801Z</time></trkpt><trkpt lat="45.8637081" lon="10.5762694"><ele>403.0</ele><time>2026-05-02T12:38:31.801Z</time></trkpt><trkpt lat="45.8638758" lon="10.5764127"><ele>403.0</ele><time>2026-05-02T12:38:32.801Z</time></trkpt><trkpt lat="45.8640349" lon="10.5765558"><ele>403.0</ele><time>2026-05-02T12:38:33.801Z</time></trkpt><trkpt lat="45.8641959" lon="10.5767032"><ele>403.6666666666667</ele><time>2026-05-02T12:38:34.801Z</time></trkpt><trkpt lat="45.8643538" lon="10.576859"><ele>404.33333333333337</ele><time>2026-05-02T12:38:35.801Z</time></trkpt><trkpt lat="45.8645" lon="10.5770229"><ele>405.0</ele><time>2026-05-02T12:38:36.801Z</time></trkpt><trkpt lat="45.8646539" lon="10.577202"><ele>403.66666666666663</ele><time>2026-05-02T12:38:37.801Z</time></trkpt><trkpt lat="45.8647964" lon="10.5773885"><ele>402.3333333333333</ele><time>2026-05-02T12:38:38.801Z</time></trkpt><trkpt lat="45.8649368" lon="10.5775984"><ele>401.0</ele><time>2026-05-02T12:38:39.801Z</time></trkpt><trkpt lat="45.8650772" lon="10.5778149"><ele>400.3333333333333</ele><time>2026-05-02T12:38:40.801Z</time></trkpt><trkpt lat="45.8652234" lon="10.578027"><ele>399.66666666666663</ele><time>2026-05-02T12:38:41.801Z</time></trkpt><trkpt lat="45.8653678" lon="10.5782361"><ele>399.0</ele><time>2026-05-02T12:38:42.801Z</time></trkpt><trkpt lat="45.8655104" lon="10.5784453"><ele>399.0</ele><time>2026-05-02T12:38:43.801Z</time></trkpt><trkpt lat="45.8656565" lon="10.5786553"><ele>399.0</ele><time>2026-05-02T12:38:44.801Z</time></trkpt><trkpt lat="45.8658024" lon="10.5788624"><ele>399.0</ele><time>2026-05-02T12:38:45.801Z</time></trkpt><trkpt lat="45.8659481" lon="10.5790775"><ele>399.33333333333337</ele><time>2026-05-02T12:38:46.801Z</time></trkpt><trkpt lat="45.8660975" lon="10.5793009"><ele>399.6666666666667</ele><time>2026-05-02T12:38:47.801Z</time></trkpt><trkpt lat="45.8662527" lon="10.5795312"><ele>400.0</ele><time>2026-05-02T12:38:48.801Z</time></trkpt><trkpt lat="45.8664081" lon="10.5797696"><ele>400.33333333333337</ele><time>2026-05-02T12:38:49.801Z</time></trkpt><trkpt lat="45.866567" lon="10.5799955"><ele>400.66666666666663</ele><time>2026-05-02T12:38:50.801Z</time></trkpt><trkpt lat="45.8667261" lon="10.5802196"><ele>401.0</ele><time>2026-05-02T12:38:51.801Z</time></trkpt><trkpt lat="45.8668775" lon="10.5804497"><ele>401.0</ele><time>2026-05-02T12:38:52.801Z</time></trkpt><trkpt lat="45.8670315" lon="10.5806814"><ele>401.0</ele><time>2026-05-02T12:38:53.801Z</time></trkpt><trkpt lat="45.8671901" lon="10.580914"><ele>401.0</ele><time>2026-05-02T12:38:54.801Z</time></trkpt><trkpt lat="45.8673449" lon="10.5811596"><ele>401.0</ele><time>2026-05-02T12:38:55.801Z</time></trkpt><trkpt lat="45.8675023" lon="10.5813965"><ele>402.0</ele><time>2026-05-02T12:38:56.801Z</time></trkpt><trkpt lat="45.8676653" lon="10.581625"><ele>403.0</ele><time>2026-05-02T12:38:57.801Z</time></trkpt><trkpt lat="45.8678271" lon="10.5818611"><ele>403.5</ele><time>2026-05-02T12:38:58.801Z</time></trkpt><trkpt lat="45.8679879" lon="10.5821023"><ele>404.0</ele><time>2026-05-02T12:38:59.801Z</time></trkpt><trkpt lat="45.8681568" lon="10.5823462"><ele>404.0</ele><time>2026-05-02T12:39:00.801Z</time></trkpt><trkpt lat="45.8683325" lon="10.5825888"><ele>404.0</ele><time>2026-05-02T12:39:01.801Z</time></trkpt><trkpt lat="45.8685045" lon="10.5828281"><ele>404.5</ele><time>2026-05-02T12:39:02.801Z</time></trkpt><trkpt lat="45.8686753" lon="10.5830667"><ele>405.0</ele><time>2026-05-02T12:39:03.801Z</time></trkpt><trkpt lat="45.8688431" lon="10.5833092"><ele>405.0</ele><time>2026-05-02T12:39:04.801Z</time></trkpt><trkpt lat="45.869005" lon="10.5835566"><ele>405.0</ele><time>2026-05-02T12:39:05.801Z</time></trkpt><trkpt lat="45.8691693" lon="10.5838024"><ele>406.0</ele><time>2026-05-02T12:39:06.801Z</time></trkpt><trkpt lat="45.8693358" lon="10.5840413"><ele>407.0</ele><time>2026-05-02T12:39:07.801Z</time></trkpt><trkpt lat="45.869505" lon="10.5842858"><ele>407.0</ele><time>2026-05-02T12:39:08.801Z</time></trkpt><trkpt lat="45.8696655" lon="10.584531"><ele>407.0</ele><time>2026-05-02T12:39:09.801Z</time></trkpt><trkpt lat="45.8698287" lon="10.584771"><ele>407.0</ele><time>2026-05-02T12:39:10.801Z</time></trkpt><trkpt lat="45.8699968" lon="10.585001"><ele>407.0</ele><time>2026-05-02T12:39:11.801Z</time></trkpt><trkpt lat="45.8701784" lon="10.5852219"><ele>407.0</ele><time>2026-05-02T12:39:12.801Z</time></trkpt><trkpt lat="45.8703676" lon="10.5854264"><ele>407.0</ele><time>2026-05-02T12:39:13.801Z</time></trkpt><trkpt lat="45.8705576" lon="10.5856164"><ele>407.0</ele><time>2026-05-02T12:39:14.801Z</time></trkpt><trkpt lat="45.8707564" lon="10.5858053"><ele>407.0</ele><time>2026-05-02T12:39:15.801Z</time></trkpt><trkpt lat="45.8709605" lon="10.5859901"><ele>409.5</ele><time>2026-05-02T12:39:16.801Z</time></trkpt><trkpt lat="45.8711726" lon="10.5861606"><ele>412.0</ele><time>2026-05-02T12:39:17.801Z</time></trkpt><trkpt lat="45.8713761" lon="10.5863198"><ele>412.0</ele><time>2026-05-02T12:39:18.801Z</time></trkpt><trkpt lat="45.871583" lon="10.5864763"><ele>412.0</ele><time>2026-05-02T12:39:19.801Z</time></trkpt><trkpt lat="45.8718003" lon="10.5866227"><ele>414.0</ele><time>2026-05-02T12:39:20.801Z</time></trkpt><trkpt lat="45.8720252" lon="10.586766"><ele>416.0</ele><time>2026-05-02T12:39:21.801Z</time></trkpt><trkpt lat="45.8722479" lon="10.5869141"><ele>415.5</ele><time>2026-05-02T12:39:22.801Z</time></trkpt><trkpt lat="45.872466" lon="10.5870642"><ele>415.0</ele><time>2026-05-02T12:39:23.801Z</time></trkpt><trkpt lat="45.8726834" lon="10.5872183"><ele>415.0</ele><time>2026-05-02T12:39:24.801Z</time></trkpt><trkpt lat="45.8729077" lon="10.5873718"><ele>415.0</ele><time>2026-05-02T12:39:25.801Z</time></trkpt><trkpt lat="45.8731301" lon="10.587519"><ele>415.0</ele><time>2026-05-02T12:39:26.801Z</time></trkpt><trkpt lat="45.8733522" lon="10.5876731"><ele>415.0</ele><time>2026-05-02T12:39:27.801Z</time></trkpt><trkpt lat="45.8735791" lon="10.5878293"><ele>414.5</ele><time>2026-05-02T12:39:28.801Z</time></trkpt><trkpt lat="45.873801" lon="10.587987"><ele>414.0</ele><time>2026-05-02T12:39:29.801Z</time></trkpt><trkpt lat="45.8740129" lon="10.588145"><ele>414.0</ele><time>2026-05-02T12:39:30.801Z</time></trkpt><trkpt lat="45.8742319" lon="10.5883063"><ele>414.0</ele><time>2026-05-02T12:39:31.801Z</time></trkpt><trkpt lat="45.8744458" lon="10.5884585"><ele>414.66666666666663</ele><time>2026-05-02T12:39:32.801Z</time></trkpt><trkpt lat="45.8746491" lon="10.5886045"><ele>415.3333333333333</ele><time>2026-05-02T12:39:33.801Z</time></trkpt><trkpt lat="45.874838" lon="10.5887446"><ele>416.0</ele><time>2026-05-02T12:39:34.801Z</time></trkpt><trkpt lat="45.8750128" lon="10.5888631"><ele>415.3333333333333</ele><time>2026-05-02T12:39:35.801Z</time></trkpt><trkpt lat="45.8751684" lon="10.588999"><ele>414.66666666666663</ele><time>2026-05-02T12:39:36.801Z</time></trkpt><trkpt lat="45.8753027" lon="10.5891605"><ele>414.0</ele><time>2026-05-02T12:39:37.801Z</time></trkpt><trkpt lat="45.875418" lon="10.5893467"><ele>413.66666666666663</ele><time>2026-05-02T12:39:38.801Z</time></trkpt><trkpt lat="45.8755099" lon="10.5895578"><ele>413.3333333333333</ele><time>2026-05-02T12:39:39.801Z</time></trkpt><trkpt lat="45.8755902" lon="10.5897932"><ele>413.0</ele><time>2026-05-02T12:39:40.801Z</time></trkpt><trkpt lat="45.8756766" lon="10.5900206"><ele>413.0</ele><time>2026-05-02T12:39:41.801Z</time></trkpt><trkpt lat="45.8757928" lon="10.5902179"><ele>413.0</ele><time>2026-05-02T12:39:42.801Z</time></trkpt><trkpt lat="45.8759563" lon="10.5903975"><ele>413.0</ele><time>2026-05-02T12:39:43.801Z</time></trkpt><trkpt lat="45.8761441" lon="10.5905535"><ele>413.0</ele><time>2026-05-02T12:39:44.801Z</time></trkpt><trkpt lat="45.876341" lon="10.5907162"><ele>413.0</ele><time>2026-05-02T12:39:45.801Z</time></trkpt><trkpt lat="45.8765319" lon="10.5908922"><ele>413.0</ele><time>2026-05-02T12:39:46.801Z</time></trkpt><trkpt lat="45.8767119" lon="10.5911039"><ele>413.0</ele><time>2026-05-02T12:39:47.801Z</time></trkpt><trkpt lat="45.8768769" lon="10.5913428"><ele>413.5</ele><time>2026-05-02T12:39:48.801Z</time></trkpt><trkpt lat="45.8770224" lon="10.5916027"><ele>414.0</ele><time>2026-05-02T12:39:49.801Z</time></trkpt><trkpt lat="45.8771609" lon="10.5918775"><ele>414.0</ele><time>2026-05-02T12:39:50.801Z</time></trkpt><trkpt lat="45.8772819" lon="10.5921668"><ele>414.0</ele><time>2026-05-02T12:39:51.801Z</time></trkpt><trkpt lat="45.87739" lon="10.5924781"><ele>414.0</ele><time>2026-05-02T12:39:52.801Z</time></trkpt><trkpt lat="45.8775006" lon="10.592793"><ele>414.0</ele><time>2026-05-02T12:39:53.801Z</time></trkpt><trkpt lat="45.8776131" lon="10.5931005"><ele>414.5</ele><time>2026-05-02T12:39:54.801Z</time></trkpt><trkpt lat="45.8777361" lon="10.593398"><ele>415.0</ele><time>2026-05-02T12:39:55.801Z</time></trkpt><trkpt lat="45.8778588" lon="10.5936824"><ele>415.0</ele><time>2026-05-02T12:39:56.801Z</time></trkpt><trkpt lat="45.8779818" lon="10.5939577"><ele>415.0</ele><time>2026-05-02T12:39:57.801Z</time></trkpt><trkpt lat="45.878114" lon="10.5942349"><ele>415.0</ele><time>2026-05-02T12:39:58.801Z</time></trkpt><trkpt lat="45.8782553" lon="10.5945034"><ele>415.0</ele><time>2026-05-02T12:39:59.801Z</time></trkpt><trkpt lat="45.8784151" lon="10.5947652"><ele>415.5</ele><time>2026-05-02T12:40:00.801Z</time></trkpt><trkpt lat="45.8785847" lon="10.5950157"><ele>416.0</ele><time>2026-05-02T12:40:01.801Z</time></trkpt><trkpt lat="45.8787589" lon="10.5952574"><ele>416.5</ele><time>2026-05-02T12:40:02.801Z</time></trkpt><trkpt lat="45.8789428" lon="10.5954932"><ele>417.0</ele><time>2026-05-02T12:40:03.801Z</time></trkpt><trkpt lat="45.8791327" lon="10.5957234"><ele>417.0</ele><time>2026-05-02T12:40:04.801Z</time></trkpt><trkpt lat="45.8793314" lon="10.5959396"><ele>417.0</ele><time>2026-05-02T12:40:05.801Z</time></trkpt><trkpt lat="45.8795407" lon="10.5961375"><ele>417.5</ele><time>2026-05-02T12:40:06.801Z</time></trkpt><trkpt lat="45.8797562" lon="10.596324"><ele>418.0</ele><time>2026-05-02T12:40:07.801Z</time></trkpt><trkpt lat="45.8799758" lon="10.5964911"><ele>418.5</ele><time>2026-05-02T12:40:08.801Z</time></trkpt><trkpt lat="45.8802038" lon="10.5966438"><ele>419.0</ele><time>2026-05-02T12:40:09.801Z</time></trkpt><trkpt lat="45.88043" lon="10.5967922"><ele>419.0</ele><time>2026-05-02T12:40:10.801Z</time></trkpt><trkpt lat="45.8806572" lon="10.5969288"><ele>419.0</ele><time>2026-05-02T12:40:11.801Z</time></trkpt><trkpt lat="45.8808819" lon="10.5970656"><ele>420.0</ele><time>2026-05-02T12:40:12.801Z</time></trkpt><trkpt lat="45.881107" lon="10.5971961"><ele>421.0</ele><time>2026-05-02T12:40:13.801Z</time></trkpt><trkpt lat="45.8813304" lon="10.5973305"><ele>421.0</ele><time>2026-05-02T12:40:14.801Z</time></trkpt><trkpt lat="45.8815559" lon="10.5974685"><ele>421.0</ele><time>2026-05-02T12:40:15.801Z</time></trkpt><trkpt lat="45.8817831" lon="10.5976055"><ele>421.5</ele><time>2026-05-02T12:40:16.801Z</time></trkpt><trkpt lat="45.8820133" lon="10.5977457"><ele>422.0</ele><time>2026-05-02T12:40:17.801Z</time></trkpt><trkpt lat="45.88224" lon="10.5978865"><ele>422.0</ele><time>2026-05-02T12:40:18.801Z</time></trkpt><trkpt lat="45.8824707" lon="10.5980203"><ele>422.0</ele><time>2026-05-02T12:40:19.801Z</time></trkpt><trkpt lat="45.8827024" lon="10.5981577"><ele>422.0</ele><time>2026-05-02T12:40:20.801Z</time></trkpt><trkpt lat="45.8829317" lon="10.5983025"><ele>422.0</ele><time>2026-05-02T12:40:21.801Z</time></trkpt><trkpt lat="45.8831623" lon="10.5984427"><ele>422.0</ele><time>2026-05-02T12:40:22.801Z</time></trkpt><trkpt lat="45.8833913" lon="10.5985852"><ele>422.0</ele><time>2026-05-02T12:40:23.801Z</time></trkpt><trkpt lat="45.8836213" lon="10.5987226"><ele>423.5</ele><time>2026-05-02T12:40:24.801Z</time></trkpt><trkpt lat="45.8838551" lon="10.5988643"><ele>425.0</ele><time>2026-05-02T12:40:25.801Z</time></trkpt><trkpt lat="45.8840899" lon="10.5990068"><ele>427.5</ele><time>2026-05-02T12:40:26.801Z</time></trkpt><trkpt lat="45.8843151" lon="10.5991521"><ele>430.0</ele><time>2026-05-02T12:40:27.801Z</time></trkpt><trkpt lat="45.8845398" lon="10.5992906"><ele>430.0</ele><time>2026-05-02T12:40:28.801Z</time></trkpt><trkpt lat="45.8847592" lon="10.5994309"><ele>430.0</ele><time>2026-05-02T12:40:29.801Z</time></trkpt><trkpt lat="45.8849741" lon="10.599594"><ele>428.5</ele><time>2026-05-02T12:40:30.801Z</time></trkpt><trkpt lat="45.8851831" lon="10.5997804"><ele>427.0</ele><time>2026-05-02T12:40:31.801Z</time></trkpt><trkpt lat="45.8853867" lon="10.5999851"><ele>427.0</ele><time>2026-05-02T12:40:32.801Z</time></trkpt><trkpt lat="45.8855879" lon="10.6002057"><ele>427.0</ele><time>2026-05-02T12:40:33.801Z</time></trkpt><trkpt lat="45.8857891" lon="10.6004366"><ele>427.5</ele><time>2026-05-02T12:40:34.801Z</time></trkpt><trkpt lat="45.8859931" lon="10.6006645"><ele>428.0</ele><time>2026-05-02T12:40:35.801Z</time></trkpt><trkpt lat="45.8861869" lon="10.6008872"><ele>428.0</ele><time>2026-05-02T12:40:36.801Z</time></trkpt><trkpt lat="45.8863866" lon="10.6011102"><ele>428.0</ele><time>2026-05-02T12:40:37.801Z</time></trkpt><trkpt lat="45.8865931" lon="10.6013255"><ele>427.5</ele><time>2026-05-02T12:40:38.801Z</time></trkpt><trkpt lat="45.8868074" lon="10.6015207"><ele>427.0</ele><time>2026-05-02T12:40:39.801Z</time></trkpt><trkpt lat="45.8870256" lon="10.6017092"><ele>427.0</ele><time>2026-05-02T12:40:40.801Z</time></trkpt><trkpt lat="45.8872606" lon="10.6018878"><ele>427.0</ele><time>2026-05-02T12:40:41.801Z</time></trkpt><trkpt lat="45.8874806" lon="10.6020447"><ele>428.0</ele><time>2026-05-02T12:40:42.801Z</time></trkpt><trkpt lat="45.8877033" lon="10.6022072"><ele>429.0</ele><time>2026-05-02T12:40:43.801Z</time></trkpt><trkpt lat="45.887924" lon="10.6023654"><ele>429.0</ele><time>2026-05-02T12:40:44.801Z</time></trkpt><trkpt lat="45.8881441" lon="10.6025265"><ele>429.0</ele><time>2026-05-02T12:40:45.801Z</time></trkpt><trkpt lat="45.8883663" lon="10.6026874"><ele>428.5</ele><time>2026-05-02T12:40:46.801Z</time></trkpt><trkpt lat="45.8885867" lon="10.6028469"><ele>428.0</ele><time>2026-05-02T12:40:47.801Z</time></trkpt><trkpt lat="45.8888107" lon="10.6030031"><ele>428.0</ele><time>2026-05-02T12:40:48.801Z</time></trkpt><trkpt lat="45.8890447" lon="10.6031667"><ele>428.0</ele><time>2026-05-02T12:40:49.801Z</time></trkpt><trkpt lat="45.889278" lon="10.6033306"><ele>429.5</ele><time>2026-05-02T12:40:50.801Z</time></trkpt><trkpt lat="45.8895032" lon="10.6034983"><ele>431.0</ele><time>2026-05-02T12:40:51.801Z</time></trkpt><trkpt lat="45.8897248" lon="10.6036673"><ele>431.0</ele><time>2026-05-02T12:40:52.801Z</time></trkpt><trkpt lat="45.8899464" lon="10.6038398"><ele>431.0</ele><time>2026-05-02T12:40:53.801Z</time></trkpt><trkpt lat="45.8901719" lon="10.6040018"><ele>431.0</ele><time>2026-05-02T12:40:54.801Z</time></trkpt><trkpt lat="45.8903949" lon="10.6041554"><ele>431.0</ele><time>2026-05-02T12:40:55.801Z</time></trkpt><trkpt lat="45.8906244" lon="10.604302"><ele>431.0</ele><time>2026-05-02T12:40:56.801Z</time></trkpt><trkpt lat="45.8908696" lon="10.6044406"><ele>431.0</ele><time>2026-05-02T12:40:57.801Z</time></trkpt><trkpt lat="45.8911242" lon="10.6045663"><ele>432.5</ele><time>2026-05-02T12:40:58.802Z</time></trkpt><trkpt lat="45.8913739" lon="10.6046731"><ele>434.0</ele><time>2026-05-02T12:40:59.801Z</time></trkpt><trkpt lat="45.8916183" lon="10.6047659"><ele>434.0</ele><time>2026-05-02T12:41:00.801Z</time></trkpt><trkpt lat="45.8918609" lon="10.6048508"><ele>434.0</ele><time>2026-05-02T12:41:01.801Z</time></trkpt><trkpt lat="45.8921004" lon="10.6049273"><ele>434.0</ele><time>2026-05-02T12:41:02.801Z</time></trkpt><trkpt lat="45.8923441" lon="10.6050142"><ele>434.0</ele><time>2026-05-02T12:41:03.801Z</time></trkpt><trkpt lat="45.8925877" lon="10.6051032"><ele>435.5</ele><time>2026-05-02T12:41:04.801Z</time></trkpt><trkpt lat="45.8928286" lon="10.6051928"><ele>437.0</ele><time>2026-05-02T12:41:05.801Z</time></trkpt><trkpt lat="45.893075" lon="10.6052832"><ele>436.0</ele><time>2026-05-02T12:41:06.801Z</time></trkpt><trkpt lat="45.8933218" lon="10.6053712"><ele>435.0</ele><time>2026-05-02T12:41:07.801Z</time></trkpt><trkpt lat="45.8935625" lon="10.6054675"><ele>438.0</ele><time>2026-05-02T12:41:08.801Z</time></trkpt><trkpt lat="45.8938093" lon="10.6055577"><ele>441.0</ele><time>2026-05-02T12:41:09.801Z</time></trkpt><trkpt lat="45.8940563" lon="10.6056478"><ele>442.0</ele><time>2026-05-02T12:41:10.801Z</time></trkpt><trkpt lat="45.8942894" lon="10.6057449"><ele>443.0</ele><time>2026-05-02T12:41:11.801Z</time></trkpt><trkpt lat="45.894534" lon="10.6058702"><ele>443.0</ele><time>2026-05-02T12:41:12.801Z</time></trkpt><trkpt lat="45.8947709" lon="10.6060117"><ele>443.0</ele><time>2026-05-02T12:41:13.801Z</time></trkpt><trkpt lat="45.8949944" lon="10.6061756"><ele>444.0</ele><time>2026-05-02T12:41:14.801Z</time></trkpt><trkpt lat="45.8952144" lon="10.6063495"><ele>445.0</ele><time>2026-05-02T12:41:15.801Z</time></trkpt><trkpt lat="45.8954322" lon="10.6065152"><ele>445.0</ele><time>2026-05-02T12:41:16.801Z</time></trkpt><trkpt lat="45.89565" lon="10.6066752"><ele>445.0</ele><time>2026-05-02T12:41:17.801Z</time></trkpt><trkpt lat="45.8958717" lon="10.6068301"><ele>446.0</ele><time>2026-05-02T12:41:18.801Z</time></trkpt><trkpt lat="45.8960907" lon="10.6069849"><ele>447.0</ele><time>2026-05-02T12:41:19.801Z</time></trkpt><trkpt lat="45.8963162" lon="10.6071505"><ele>447.0</ele><time>2026-05-02T12:41:20.801Z</time></trkpt><trkpt lat="45.8965388" lon="10.6073192"><ele>447.0</ele><time>2026-05-02T12:41:21.801Z</time></trkpt><trkpt lat="45.8967619" lon="10.6074793"><ele>450.5</ele><time>2026-05-02T12:41:22.801Z</time></trkpt><trkpt lat="45.8969815" lon="10.6076332"><ele>454.0</ele><time>2026-05-02T12:41:23.801Z</time></trkpt><trkpt lat="45.8972061" lon="10.6077878"><ele>452.5</ele><time>2026-05-02T12:41:24.801Z</time></trkpt><trkpt lat="45.8974261" lon="10.6079414"><ele>451.0</ele><time>2026-05-02T12:41:25.801Z</time></trkpt><trkpt lat="45.8976438" lon="10.6081045"><ele>454.5</ele><time>2026-05-02T12:41:26.801Z</time></trkpt><trkpt lat="45.8978633" lon="10.6082619"><ele>458.0</ele><time>2026-05-02T12:41:27.801Z</time></trkpt><trkpt lat="45.8980869" lon="10.6084149"><ele>458.0</ele><time>2026-05-02T12:41:28.801Z</time></trkpt><trkpt lat="45.8983144" lon="10.6085578"><ele>458.0</ele><time>2026-05-02T12:41:29.801Z</time></trkpt><trkpt lat="45.8985396" lon="10.6086764"><ele>455.0</ele><time>2026-05-02T12:41:30.801Z</time></trkpt><trkpt lat="45.898778" lon="10.608763"><ele>452.0</ele><time>2026-05-02T12:41:31.801Z</time></trkpt><trkpt lat="45.8990287" lon="10.6088031"><ele>452.5</ele><time>2026-05-02T12:41:32.801Z</time></trkpt><trkpt lat="45.8992791" lon="10.6088032"><ele>453.0</ele><time>2026-05-02T12:41:33.801Z</time></trkpt><trkpt lat="45.8995274" lon="10.6087593"><ele>453.0</ele><time>2026-05-02T12:41:34.801Z</time></trkpt><trkpt lat="45.8997783" lon="10.6086934"><ele>453.0</ele><time>2026-05-02T12:41:35.801Z</time></trkpt><trkpt lat="45.9000272" lon="10.6085995"><ele>454.5</ele><time>2026-05-02T12:41:36.801Z</time></trkpt><trkpt lat="45.9002697" lon="10.6084886"><ele>456.0</ele><time>2026-05-02T12:41:37.801Z</time></trkpt><trkpt lat="45.9005089" lon="10.6083686"><ele>456.0</ele><time>2026-05-02T12:41:38.801Z</time></trkpt><trkpt lat="45.9007501" lon="10.6082516"><ele>456.0</ele><time>2026-05-02T12:41:39.801Z</time></trkpt><trkpt lat="45.9009874" lon="10.6081266"><ele>453.0</ele><time>2026-05-02T12:41:40.801Z</time></trkpt><trkpt lat="45.9012281" lon="10.6079999"><ele>450.0</ele><time>2026-05-02T12:41:41.801Z</time></trkpt><trkpt lat="45.9014754" lon="10.6078672"><ele>452.5</ele><time>2026-05-02T12:41:42.801Z</time></trkpt><trkpt lat="45.9017212" lon="10.6077537"><ele>455.0</ele><time>2026-05-02T12:41:43.801Z</time></trkpt><trkpt lat="45.9019545" lon="10.6076797"><ele>455.0</ele><time>2026-05-02T12:41:44.801Z</time></trkpt><trkpt lat="45.9021954" lon="10.6076523"><ele>455.0</ele><time>2026-05-02T12:41:45.801Z</time></trkpt><trkpt lat="45.9024313" lon="10.6076677"><ele>460.0</ele><time>2026-05-02T12:41:46.801Z</time></trkpt><trkpt lat="45.9026636" lon="10.607707"><ele>465.0</ele><time>2026-05-02T12:41:47.801Z</time></trkpt><trkpt lat="45.9028782" lon="10.6077781"><ele>462.0</ele><time>2026-05-02T12:41:48.801Z</time></trkpt><trkpt lat="45.9030799" lon="10.6078693"><ele>459.0</ele><time>2026-05-02T12:41:49.801Z</time></trkpt><trkpt lat="45.9032762" lon="10.6079905"><ele>456.0</ele><time>2026-05-02T12:41:50.801Z</time></trkpt><trkpt lat="45.9034704" lon="10.608136"><ele>456.0</ele><time>2026-05-02T12:41:51.801Z</time></trkpt><trkpt lat="45.9036645" lon="10.6083158"><ele>456.0</ele><time>2026-05-02T12:41:52.801Z</time></trkpt><trkpt lat="45.903865" lon="10.6085338"><ele>454.5</ele><time>2026-05-02T12:41:53.801Z</time></trkpt><trkpt lat="45.9040713" lon="10.6087768"><ele>453.0</ele><time>2026-05-02T12:41:54.801Z</time></trkpt><trkpt lat="45.9042735" lon="10.6090495"><ele>453.0</ele><time>2026-05-02T12:41:55.801Z</time></trkpt><trkpt lat="45.9044873" lon="10.6093309"><ele>453.0</ele><time>2026-05-02T12:41:56.801Z</time></trkpt><trkpt lat="45.904718" lon="10.6096118"><ele>454.5</ele><time>2026-05-02T12:41:57.801Z</time></trkpt><trkpt lat="45.9049412" lon="10.6098591"><ele>456.0</ele><time>2026-05-02T12:41:58.801Z</time></trkpt><trkpt lat="45.9051591" lon="10.6101111"><ele>458.5</ele><time>2026-05-02T12:41:59.801Z</time></trkpt><trkpt lat="45.9053741" lon="10.6103682"><ele>461.0</ele><time>2026-05-02T12:42:00.801Z</time></trkpt><trkpt lat="45.9055898" lon="10.6106405"><ele>461.0</ele><time>2026-05-02T12:42:01.801Z</time></trkpt><trkpt lat="45.9057861" lon="10.6109287"><ele>461.0</ele><time>2026-05-02T12:42:02.801Z</time></trkpt><trkpt lat="45.9059751" lon="10.6112351"><ele>460.0</ele><time>2026-05-02T12:42:03.802Z</time></trkpt><trkpt lat="45.9061563" lon="10.6115397"><ele>459.0</ele><time>2026-05-02T12:42:04.802Z</time></trkpt><trkpt lat="45.9063499" lon="10.611833"><ele>459.0</ele><time>2026-05-02T12:42:05.801Z</time></trkpt><trkpt lat="45.9065391" lon="10.6121228"><ele>459.0</ele><time>2026-05-02T12:42:06.801Z</time></trkpt><trkpt lat="45.9067277" lon="10.6124134"><ele>462.0</ele><time>2026-05-02T12:42:07.801Z</time></trkpt><trkpt lat="45.9069197" lon="10.6127147"><ele>465.0</ele><time>2026-05-02T12:42:08.801Z</time></trkpt><trkpt lat="45.9071074" lon="10.6130079"><ele>466.5</ele><time>2026-05-02T12:42:09.801Z</time></trkpt><trkpt lat="45.9072872" lon="10.613285"><ele>468.0</ele><time>2026-05-02T12:42:10.801Z</time></trkpt><trkpt lat="45.9074647" lon="10.6135538"><ele>472.0</ele><time>2026-05-02T12:42:11.801Z</time></trkpt><trkpt lat="45.9076348" lon="10.6137999"><ele>476.0</ele><time>2026-05-02T12:42:12.801Z</time></trkpt><trkpt lat="45.9077853" lon="10.6140274"><ele>476.0</ele><time>2026-05-02T12:42:13.801Z</time></trkpt><trkpt lat="45.9079242" lon="10.6142498"><ele>476.0</ele><time>2026-05-02T12:42:14.801Z</time></trkpt><trkpt lat="45.9080557" lon="10.6144603"><ele>476.0</ele><time>2026-05-02T12:42:15.801Z</time></trkpt><trkpt lat="45.9081775" lon="10.6146449"><ele>475.75</ele><time>2026-05-02T12:42:16.801Z</time></trkpt><trkpt lat="45.9082787" lon="10.6147954"><ele>475.5</ele><time>2026-05-02T12:42:17.801Z</time></trkpt><trkpt lat="45.9083669" lon="10.6149286"><ele>475.25</ele><time>2026-05-02T12:42:18.801Z</time></trkpt><trkpt lat="45.9084455" lon="10.6150491"><ele>475.0</ele><time>2026-05-02T12:42:19.801Z</time></trkpt><trkpt lat="45.9085079" lon="10.6151413"><ele>475.00000000000006</ele><time>2026-05-02T12:42:20.801Z</time></trkpt><trkpt lat="45.9085535" lon="10.6152157"><ele>475.0</ele><time>2026-05-02T12:42:21.801Z</time></trkpt><trkpt lat="45.9085821" lon="10.6153142"><ele>475.0</ele><time>2026-05-02T12:42:23.801Z</time></trkpt><trkpt lat="45.9085181" lon="10.6153162"><ele>475.0</ele><time>2026-05-02T12:43:57.8Z</time></trkpt><trkpt lat="45.9083859" lon="10.6153197"><ele>475.00000000000006</ele><time>2026-05-02T12:43:59.8Z</time></trkpt><trkpt lat="45.9082799" lon="10.6152902"><ele>475.0</ele><time>2026-05-02T12:44:00.8Z</time></trkpt><trkpt lat="45.9081591" lon="10.6152355"><ele>475.0</ele><time>2026-05-02T12:44:01.8Z</time></trkpt><trkpt lat="45.9080432" lon="10.6151696"><ele>475.0</ele><time>2026-05-02T12:44:02.8Z</time></trkpt><trkpt lat="45.9079394" lon="10.6150874"><ele>475.0</ele><time>2026-05-02T12:44:03.8Z</time></trkpt><trkpt lat="45.9078572" lon="10.6149832"><ele>475.0</ele><time>2026-05-02T12:44:04.8Z</time></trkpt><trkpt lat="45.9078071" lon="10.6148562"><ele>475.0</ele><time>2026-05-02T12:44:05.8Z</time></trkpt><trkpt lat="45.907789" lon="10.6147071"><ele>475.0</ele><time>2026-05-02T12:44:06.8Z</time></trkpt><trkpt lat="45.9078058" lon="10.6145553"><ele>475.0</ele><time>2026-05-02T12:44:07.8Z</time></trkpt><trkpt lat="45.9078573" lon="10.61443"><ele>475.0</ele><time>2026-05-02T12:44:08.8Z</time></trkpt><trkpt lat="45.9079227" lon="10.6143293"><ele>475.0</ele><time>2026-05-02T12:44:09.8Z</time></trkpt><trkpt lat="45.9079932" lon="10.6142549"><ele>475.2</ele><time>2026-05-02T12:44:10.8Z</time></trkpt><trkpt lat="45.9080616" lon="10.6142052"><ele>475.4</ele><time>2026-05-02T12:44:11.8Z</time></trkpt><trkpt lat="45.9081309" lon="10.6141464"><ele>475.6</ele><time>2026-05-02T12:44:12.8Z</time></trkpt><trkpt lat="45.908205" lon="10.6140698"><ele>475.8</ele><time>2026-05-02T12:44:13.8Z</time></trkpt><trkpt lat="45.9082855" lon="10.6139822"><ele>476.0</ele><time>2026-05-02T12:44:14.8Z</time></trkpt><trkpt lat="45.908379" lon="10.6138704"><ele>477.5</ele><time>2026-05-02T12:44:15.8Z</time></trkpt><trkpt lat="45.9084786" lon="10.6137481"><ele>479.0</ele><time>2026-05-02T12:44:16.8Z</time></trkpt><trkpt lat="45.9085882" lon="10.613637"><ele>480.5</ele><time>2026-05-02T12:44:17.8Z</time></trkpt><trkpt lat="45.9086983" lon="10.6135335"><ele>482.0</ele><time>2026-05-02T12:44:18.8Z</time></trkpt><trkpt lat="45.9088105" lon="10.6134439"><ele>483.0</ele><time>2026-05-02T12:44:19.8Z</time></trkpt><trkpt lat="45.9089283" lon="10.6133772"><ele>484.0</ele><time>2026-05-02T12:44:20.8Z</time></trkpt><trkpt lat="45.909048" lon="10.6133356"><ele>485.0</ele><time>2026-05-02T12:44:21.8Z</time></trkpt><trkpt lat="45.9091763" lon="10.6133178"><ele>486.0</ele><time>2026-05-02T12:44:22.8Z</time></trkpt><trkpt lat="45.909304" lon="10.6133043"><ele>488.75</ele><time>2026-05-02T12:44:23.8Z</time></trkpt><trkpt lat="45.9094323" lon="10.6132768"><ele>491.5</ele><time>2026-05-02T12:44:24.8Z</time></trkpt><trkpt lat="45.9095656" lon="10.613223"><ele>494.25</ele><time>2026-05-02T12:44:25.8Z</time></trkpt><trkpt lat="45.9097076" lon="10.6131394"><ele>497.0</ele><time>2026-05-02T12:44:26.8Z</time></trkpt><trkpt lat="45.90985" lon="10.6130426"><ele>497.0</ele><time>2026-05-02T12:44:27.8Z</time></trkpt><trkpt lat="45.9099832" lon="10.6129317"><ele>497.0</ele><time>2026-05-02T12:44:28.8Z</time></trkpt><trkpt lat="45.9101082" lon="10.6128089"><ele>497.0</ele><time>2026-05-02T12:44:29.8Z</time></trkpt><trkpt lat="45.9102201" lon="10.6126733"><ele>502.5</ele><time>2026-05-02T12:44:30.8Z</time></trkpt><trkpt lat="45.9103154" lon="10.6125332"><ele>508.0</ele><time>2026-05-02T12:44:31.8Z</time></trkpt><trkpt lat="45.9104038" lon="10.6123962"><ele>513.5</ele><time>2026-05-02T12:44:32.8Z</time></trkpt><trkpt lat="45.9104835" lon="10.6122599"><ele>519.0</ele><time>2026-05-02T12:44:33.8Z</time></trkpt><trkpt lat="45.9105493" lon="10.6121308"><ele>519.0</ele><time>2026-05-02T12:44:34.8Z</time></trkpt><trkpt lat="45.9106027" lon="10.6120113"><ele>519.0</ele><time>2026-05-02T12:44:35.8Z</time></trkpt><trkpt lat="45.9106558" lon="10.6119185"><ele>519.0</ele><time>2026-05-02T12:44:36.8Z</time></trkpt><trkpt lat="45.9107112" lon="10.6118619"><ele>519.0</ele><time>2026-05-02T12:44:37.8Z</time></trkpt><trkpt lat="45.9107758" lon="10.6118539"><ele>519.0</ele><time>2026-05-02T12:44:38.8Z</time></trkpt><trkpt lat="45.9108408" lon="10.6118856"><ele>519.0</ele><time>2026-05-02T12:44:39.8Z</time></trkpt><trkpt lat="45.9108972" lon="10.6119518"><ele>523.25</ele><time>2026-05-02T12:44:40.8Z</time></trkpt><trkpt lat="45.9109448" lon="10.6120696"><ele>527.5</ele><time>2026-05-02T12:44:41.8Z</time></trkpt><trkpt lat="45.9109789" lon="10.6122221"><ele>531.75</ele><time>2026-05-02T12:44:42.8Z</time></trkpt><trkpt lat="45.9110358" lon="10.6124257"><ele>536.0</ele><time>2026-05-02T12:44:43.8Z</time></trkpt><trkpt lat="45.9111036" lon="10.6126392"><ele>535.25</ele><time>2026-05-02T12:44:44.8Z</time></trkpt><trkpt lat="45.9111626" lon="10.6128409"><ele>534.5</ele><time>2026-05-02T12:44:45.8Z</time></trkpt><trkpt lat="45.9112259" lon="10.6130009"><ele>533.75</ele><time>2026-05-02T12:44:46.8Z</time></trkpt><trkpt lat="45.9112841" lon="10.6131377"><ele>533.0</ele><time>2026-05-02T12:44:47.8Z</time></trkpt><trkpt lat="45.9113497" lon="10.6132474"><ele>533.0</ele><time>2026-05-02T12:44:48.8Z</time></trkpt><trkpt lat="45.9114086" lon="10.6133361"><ele>533.0</ele><time>2026-05-02T12:44:49.8Z</time></trkpt><trkpt lat="45.9114645" lon="10.6134171"><ele>533.0</ele><time>2026-05-02T12:44:50.8Z</time></trkpt><trkpt lat="45.9115158" lon="10.61347"><ele>533.0</ele><time>2026-05-02T12:44:51.8Z</time></trkpt><trkpt lat="45.9116085" lon="10.6134881"><ele>533.0</ele><time>2026-05-02T12:44:53.8Z</time></trkpt><trkpt lat="45.9116697" lon="10.6134588"><ele>533.0</ele><time>2026-05-02T12:44:55.8Z</time></trkpt><trkpt lat="45.9117626" lon="10.6134302"><ele>534.5</ele><time>2026-05-02T12:44:57.8Z</time></trkpt><trkpt lat="45.911822" lon="10.6133921"><ele>536.0</ele><time>2026-05-02T12:44:58.8Z</time></trkpt><trkpt lat="45.9118852" lon="10.6133456"><ele>537.5</ele><time>2026-05-02T12:44:59.8Z</time></trkpt><trkpt lat="45.9119907" lon="10.6133459"><ele>539.0</ele><time>2026-05-02T12:45:01.8Z</time></trkpt><trkpt lat="45.9120782" lon="10.6134476"><ele>540.5</ele><time>2026-05-02T12:45:03.8Z</time></trkpt><trkpt lat="45.9121687" lon="10.6134654"><ele>542.0</ele><time>2026-05-02T12:45:05.8Z</time></trkpt><trkpt lat="45.9122334" lon="10.6132997"><ele>542.0</ele><time>2026-05-02T12:45:07.8Z</time></trkpt><trkpt lat="45.9122455" lon="10.6131549"><ele>542.0</ele><time>2026-05-02T12:45:08.8Z</time></trkpt><trkpt lat="45.912244" lon="10.612988"><ele>542.0</ele><time>2026-05-02T12:45:09.8Z</time></trkpt><trkpt lat="45.9122366" lon="10.6128279"><ele>542.0</ele><time>2026-05-02T12:45:10.8Z</time></trkpt><trkpt lat="45.9122256" lon="10.6126819"><ele>542.0</ele><time>2026-05-02T12:45:11.8Z</time></trkpt><trkpt lat="45.9122136" lon="10.6125367"><ele>543.5</ele><time>2026-05-02T12:45:12.8Z</time></trkpt><trkpt lat="45.9122089" lon="10.6124001"><ele>545.0</ele><time>2026-05-02T12:45:13.8Z</time></trkpt><trkpt lat="45.9121944" lon="10.6122775"><ele>546.5</ele><time>2026-05-02T12:45:14.8Z</time></trkpt><trkpt lat="45.9121758" lon="10.6121816"><ele>548.0</ele><time>2026-05-02T12:45:15.8Z</time></trkpt><trkpt lat="45.9121141" lon="10.6120291"><ele>549.5</ele><time>2026-05-02T12:45:17.8Z</time></trkpt><trkpt lat="45.9120845" lon="10.6119371"><ele>551.0</ele><time>2026-05-02T12:45:18.8Z</time></trkpt><trkpt lat="45.9120681" lon="10.6118286"><ele>551.0</ele><time>2026-05-02T12:45:19.8Z</time></trkpt><trkpt lat="45.9120636" lon="10.6116955"><ele>551.0</ele><time>2026-05-02T12:45:20.8Z</time></trkpt><trkpt lat="45.9120857" lon="10.6114559"><ele>551.0</ele><time>2026-05-02T12:45:22.8Z</time></trkpt><trkpt lat="45.9121224" lon="10.61135"><ele>551.0</ele><time>2026-05-02T12:45:23.8Z</time></trkpt><trkpt lat="45.9121644" lon="10.6112641"><ele>551.0</ele><time>2026-05-02T12:45:24.8Z</time></trkpt><trkpt lat="45.9122766" lon="10.6112378"><ele>551.0</ele><time>2026-05-02T12:45:26.8Z</time></trkpt><trkpt lat="45.9123682" lon="10.6113829"><ele>551.0</ele><time>2026-05-02T12:45:28.8Z</time></trkpt><trkpt lat="45.9124131" lon="10.6115336"><ele>551.0</ele><time>2026-05-02T12:45:29.8Z</time></trkpt><trkpt lat="45.9124614" lon="10.6116891"><ele>551.0</ele><time>2026-05-02T12:45:30.8Z</time></trkpt><trkpt lat="45.9125104" lon="10.6118324"><ele>553.75</ele><time>2026-05-02T12:45:31.8Z</time></trkpt><trkpt lat="45.9126156" lon="10.6120838"><ele>556.5</ele><time>2026-05-02T12:45:33.8Z</time></trkpt><trkpt lat="45.9126614" lon="10.6122027"><ele>559.25</ele><time>2026-05-02T12:45:34.8Z</time></trkpt><trkpt lat="45.912698" lon="10.6123064"><ele>562.0</ele><time>2026-05-02T12:45:35.8Z</time></trkpt><trkpt lat="45.9127358" lon="10.6124221"><ele>562.0</ele><time>2026-05-02T12:45:36.8Z</time></trkpt><trkpt lat="45.9127867" lon="10.6125269"><ele>562.0</ele><time>2026-05-02T12:45:37.8Z</time></trkpt><trkpt lat="45.9128451" lon="10.6126181"><ele>562.0</ele><time>2026-05-02T12:45:38.8Z</time></trkpt><trkpt lat="45.9129134" lon="10.6126992"><ele>562.0</ele><time>2026-05-02T12:45:39.8Z</time></trkpt><trkpt lat="45.9129731" lon="10.6127892"><ele>562.0</ele><time>2026-05-02T12:45:40.8Z</time></trkpt><trkpt lat="45.9130318" lon="10.6128916"><ele>562.0</ele><time>2026-05-02T12:45:41.8Z</time></trkpt><trkpt lat="45.9130983" lon="10.6129884"><ele>562.75</ele><time>2026-05-02T12:45:42.8Z</time></trkpt><trkpt lat="45.9131748" lon="10.6130695"><ele>563.5</ele><time>2026-05-02T12:45:43.8Z</time></trkpt><trkpt lat="45.9132747" lon="10.6131265"><ele>564.25</ele><time>2026-05-02T12:45:44.8Z</time></trkpt><trkpt lat="45.913397" lon="10.6131805"><ele>565.0</ele><time>2026-05-02T12:45:45.8Z</time></trkpt><trkpt lat="45.9135245" lon="10.6132427"><ele>565.0</ele><time>2026-05-02T12:45:46.8Z</time></trkpt><trkpt lat="45.9136464" lon="10.6132833"><ele>565.0</ele><time>2026-05-02T12:45:47.8Z</time></trkpt><trkpt lat="45.9137529" lon="10.613316"><ele>565.0</ele><time>2026-05-02T12:45:48.8Z</time></trkpt><trkpt lat="45.9138421" lon="10.6133414"><ele>565.0</ele><time>2026-05-02T12:45:49.8Z</time></trkpt><trkpt lat="45.9139105" lon="10.6133414"><ele>565.0</ele><time>2026-05-02T12:45:50.8Z</time></trkpt><trkpt lat="45.9140268" lon="10.6133179"><ele>565.0</ele><time>2026-05-02T12:45:52.8Z</time></trkpt><trkpt lat="45.9141075" lon="10.6133097"><ele>565.0</ele><time>2026-05-02T12:45:53.8Z</time></trkpt><trkpt lat="45.9142087" lon="10.6132865"><ele>565.0</ele><time>2026-05-02T12:45:54.8Z</time></trkpt><trkpt lat="45.9143371" lon="10.6132671"><ele>565.0</ele><time>2026-05-02T12:45:55.8Z</time></trkpt><trkpt lat="45.9144737" lon="10.6132601"><ele>565.0</ele><time>2026-05-02T12:45:56.8Z</time></trkpt><trkpt lat="45.9146123" lon="10.6133091"><ele>570.25</ele><time>2026-05-02T12:45:57.8Z</time></trkpt><trkpt lat="45.9147402" lon="10.6133935"><ele>575.5</ele><time>2026-05-02T12:45:58.8Z</time></trkpt><trkpt lat="45.9148488" lon="10.613529"><ele>580.75</ele><time>2026-05-02T12:45:59.8Z</time></trkpt><trkpt lat="45.9149199" lon="10.6137053"><ele>586.0</ele><time>2026-05-02T12:46:00.8Z</time></trkpt><trkpt lat="45.9149492" lon="10.6139116"><ele>586.0</ele><time>2026-05-02T12:46:01.8Z</time></trkpt><trkpt lat="45.9149539" lon="10.6141273"><ele>586.0</ele><time>2026-05-02T12:46:02.8Z</time></trkpt><trkpt lat="45.9149532" lon="10.6143374"><ele>586.0</ele><time>2026-05-02T12:46:03.8Z</time></trkpt><trkpt lat="45.9149721" lon="10.6145356"><ele>586.0</ele><time>2026-05-02T12:46:04.8Z</time></trkpt><trkpt lat="45.9150245" lon="10.6147187"><ele>593.5</ele><time>2026-05-02T12:46:05.8Z</time></trkpt><trkpt lat="45.9151212" lon="10.6148766"><ele>601.0</ele><time>2026-05-02T12:46:06.8Z</time></trkpt><trkpt lat="45.91523" lon="10.6150204"><ele>608.5</ele><time>2026-05-02T12:46:07.8Z</time></trkpt><trkpt lat="45.9153336" lon="10.6151599"><ele>616.0</ele><time>2026-05-02T12:46:08.8Z</time></trkpt><trkpt lat="45.9154184" lon="10.615275"><ele>616.0</ele><time>2026-05-02T12:46:09.8Z</time></trkpt><trkpt lat="45.915496" lon="10.6153409"><ele>616.0</ele><time>2026-05-02T12:46:10.8Z</time></trkpt><trkpt lat="45.9155592" lon="10.6153326"><ele>616.0</ele><time>2026-05-02T12:46:11.8Z</time></trkpt><trkpt lat="45.9155289" lon="10.6151512"><ele>616.0</ele><time>2026-05-02T12:46:13.8Z</time></trkpt><trkpt lat="45.9154446" lon="10.6150067"><ele>616.0</ele><time>2026-05-02T12:46:14.8Z</time></trkpt><trkpt lat="45.9153464" lon="10.6148324"><ele>616.0</ele><time>2026-05-02T12:46:15.8Z</time></trkpt><trkpt lat="45.9152882" lon="10.6146321"><ele>616.0</ele><time>2026-05-02T12:46:16.8Z</time></trkpt><trkpt lat="45.9152596" lon="10.6144309"><ele>616.0</ele><time>2026-05-02T12:46:17.8Z</time></trkpt><trkpt lat="45.9152659" lon="10.6142441"><ele>616.0</ele><time>2026-05-02T12:46:18.8Z</time></trkpt><trkpt lat="45.9152985" lon="10.6140753"><ele>618.0</ele><time>2026-05-02T12:46:19.8Z</time></trkpt><trkpt lat="45.9153483" lon="10.6138936"><ele>620.0</ele><time>2026-05-02T12:46:20.8Z</time></trkpt><trkpt lat="45.9154043" lon="10.6136976"><ele>622.0</ele><time>2026-05-02T12:46:21.8Z</time></trkpt><trkpt lat="45.9154488" lon="10.6134875"><ele>624.0</ele><time>2026-05-02T12:46:22.8Z</time></trkpt><trkpt lat="45.9154596" lon="10.6132581"><ele>625.6666666666666</ele><time>2026-05-02T12:46:23.8Z</time></trkpt><trkpt lat="45.915445" lon="10.6129971"><ele>627.3333333333333</ele><time>2026-05-02T12:46:24.8Z</time></trkpt><trkpt lat="45.915417" lon="10.6127177"><ele>629.0</ele><time>2026-05-02T12:46:25.8Z</time></trkpt><trkpt lat="45.9154047" lon="10.612436"><ele>631.0</ele><time>2026-05-02T12:46:26.8Z</time></trkpt><trkpt lat="45.9154061" lon="10.6121587"><ele>633.0</ele><time>2026-05-02T12:46:27.8Z</time></trkpt><trkpt lat="45.9154339" lon="10.6118719"><ele>635.0</ele><time>2026-05-02T12:46:28.8Z</time></trkpt><trkpt lat="45.9154651" lon="10.6115953"><ele>637.0</ele><time>2026-05-02T12:46:29.8Z</time></trkpt><trkpt lat="45.9154807" lon="10.6113161"><ele>639.0</ele><time>2026-05-02T12:46:30.8Z</time></trkpt><trkpt lat="45.9154682" lon="10.6110331"><ele>641.0</ele><time>2026-05-02T12:46:31.8Z</time></trkpt><trkpt lat="45.9154302" lon="10.6107573"><ele>641.6666666666666</ele><time>2026-05-02T12:46:32.8Z</time></trkpt><trkpt lat="45.9153652" lon="10.6104956"><ele>642.3333333333334</ele><time>2026-05-02T12:46:33.8Z</time></trkpt><trkpt lat="45.9152815" lon="10.6102435"><ele>643.0</ele><time>2026-05-02T12:46:34.8Z</time></trkpt><trkpt lat="45.9151977" lon="10.6100155"><ele>641.5</ele><time>2026-05-02T12:46:35.8Z</time></trkpt><trkpt lat="45.9151227" lon="10.6098159"><ele>640.0</ele><time>2026-05-02T12:46:36.8Z</time></trkpt><trkpt lat="45.9150625" lon="10.6096543"><ele>638.5</ele><time>2026-05-02T12:46:37.8Z</time></trkpt><trkpt lat="45.9150191" lon="10.6095235"><ele>637.0</ele><time>2026-05-02T12:46:38.8Z</time></trkpt><trkpt lat="45.9150095" lon="10.6094158"><ele>640.25</ele><time>2026-05-02T12:46:39.8Z</time></trkpt><trkpt lat="45.9150728" lon="10.6093114"><ele>643.5</ele><time>2026-05-02T12:46:41.8Z</time></trkpt><trkpt lat="45.9152068" lon="10.6094192"><ele>646.75</ele><time>2026-05-02T12:46:43.8Z</time></trkpt><trkpt lat="45.9153254" lon="10.6095863"><ele>650.0</ele><time>2026-05-02T12:46:44.8Z</time></trkpt><trkpt lat="45.9154817" lon="10.6098425"><ele>650.0</ele><time>2026-05-02T12:46:45.8Z</time></trkpt><trkpt lat="45.9156485" lon="10.6101357"><ele>650.0</ele><time>2026-05-02T12:46:46.8Z</time></trkpt><trkpt lat="45.9157779" lon="10.6104193"><ele>647.6666666666666</ele><time>2026-05-02T12:46:47.8Z</time></trkpt><trkpt lat="45.9158816" lon="10.6106974"><ele>645.3333333333334</ele><time>2026-05-02T12:46:48.8Z</time></trkpt><trkpt lat="45.915963" lon="10.610982"><ele>643.0</ele><time>2026-05-02T12:46:49.8Z</time></trkpt><trkpt lat="45.9160323" lon="10.6112694"><ele>657.3333333333334</ele><time>2026-05-02T12:46:50.8Z</time></trkpt><trkpt lat="45.9160911" lon="10.6115533"><ele>671.6666666666666</ele><time>2026-05-02T12:46:51.8Z</time></trkpt><trkpt lat="45.9161425" lon="10.6118336"><ele>686.0</ele><time>2026-05-02T12:46:52.8Z</time></trkpt><trkpt lat="45.9161921" lon="10.612102"><ele>686.0</ele><time>2026-05-02T12:46:53.8Z</time></trkpt><trkpt lat="45.9162388" lon="10.6123594"><ele>686.0</ele><time>2026-05-02T12:46:54.8Z</time></trkpt><trkpt lat="45.9162747" lon="10.6126027"><ele>686.0</ele><time>2026-05-02T12:46:55.8Z</time></trkpt><trkpt lat="45.9163106" lon="10.612814"><ele>686.0</ele><time>2026-05-02T12:46:56.8Z</time></trkpt><trkpt lat="45.9163433" lon="10.6129725"><ele>686.0</ele><time>2026-05-02T12:46:57.8Z</time></trkpt><trkpt lat="45.9163828" lon="10.6130679"><ele>686.0</ele><time>2026-05-02T12:46:58.8Z</time></trkpt><trkpt lat="45.9164379" lon="10.6131218"><ele>686.0</ele><time>2026-05-02T12:46:59.8Z</time></trkpt><trkpt lat="45.9165486" lon="10.6130822"><ele>686.0</ele><time>2026-05-02T12:47:01.8Z</time></trkpt><trkpt lat="45.9165756" lon="10.612971"><ele>686.0</ele><time>2026-05-02T12:47:02.8Z</time></trkpt><trkpt lat="45.9165791" lon="10.6127783"><ele>686.0</ele><time>2026-05-02T12:47:03.8Z</time></trkpt><trkpt lat="45.9165734" lon="10.612534"><ele>686.0</ele><time>2026-05-02T12:47:04.8Z</time></trkpt><trkpt lat="45.9165717" lon="10.6122402"><ele>687.0</ele><time>2026-05-02T12:47:05.8Z</time></trkpt><trkpt lat="45.9165824" lon="10.611948"><ele>688.0</ele><time>2026-05-02T12:47:06.8Z</time></trkpt><trkpt lat="45.9165978" lon="10.6116756"><ele>689.0</ele><time>2026-05-02T12:47:07.8Z</time></trkpt><trkpt lat="45.9166148" lon="10.6114148"><ele>690.3333333333333</ele><time>2026-05-02T12:47:08.8Z</time></trkpt><trkpt lat="45.9166247" lon="10.6111568"><ele>691.6666666666666</ele><time>2026-05-02T12:47:09.8Z</time></trkpt><trkpt lat="45.9166087" lon="10.610904"><ele>693.0</ele><time>2026-05-02T12:47:10.8Z</time></trkpt><trkpt lat="45.9165899" lon="10.6106524"><ele>693.0</ele><time>2026-05-02T12:47:11.8Z</time></trkpt><trkpt lat="45.916555" lon="10.6103922"><ele>693.0</ele><time>2026-05-02T12:47:12.8Z</time></trkpt><trkpt lat="45.9165515" lon="10.6101484"><ele>693.0</ele><time>2026-05-02T12:47:13.8Z</time></trkpt><trkpt lat="45.9165656" lon="10.609906"><ele>693.3333333333334</ele><time>2026-05-02T12:47:14.8Z</time></trkpt><trkpt lat="45.9166016" lon="10.6096655"><ele>693.6666666666667</ele><time>2026-05-02T12:47:15.8Z</time></trkpt><trkpt lat="45.9166564" lon="10.6094283"><ele>694.0</ele><time>2026-05-02T12:47:16.8Z</time></trkpt><trkpt lat="45.9167232" lon="10.6091947"><ele>709.0</ele><time>2026-05-02T12:47:17.8Z</time></trkpt><trkpt lat="45.9167903" lon="10.6089572"><ele>724.0</ele><time>2026-05-02T12:47:18.8Z</time></trkpt><trkpt lat="45.9168679" lon="10.608735"><ele>739.0</ele><time>2026-05-02T12:47:19.8Z</time></trkpt><trkpt lat="45.9169402" lon="10.6085258"><ele>739.0</ele><time>2026-05-02T12:47:20.8Z</time></trkpt><trkpt lat="45.917007" lon="10.6083256"><ele>739.0</ele><time>2026-05-02T12:47:21.8Z</time></trkpt><trkpt lat="45.9170585" lon="10.6081212"><ele>739.0</ele><time>2026-05-02T12:47:22.8Z</time></trkpt><trkpt lat="45.9170868" lon="10.6078992"><ele>738.0</ele><time>2026-05-02T12:47:23.8Z</time></trkpt><trkpt lat="45.9171075" lon="10.607676"><ele>737.0</ele><time>2026-05-02T12:47:24.8Z</time></trkpt><trkpt lat="45.9171047" lon="10.607455"><ele>736.0</ele><time>2026-05-02T12:47:25.8Z</time></trkpt><trkpt lat="45.917103" lon="10.6072334"><ele>736.0</ele><time>2026-05-02T12:47:26.8Z</time></trkpt><trkpt lat="45.9170991" lon="10.6070085"><ele>736.0</ele><time>2026-05-02T12:47:27.8Z</time></trkpt><trkpt lat="45.9170729" lon="10.6068036"><ele>736.0</ele><time>2026-05-02T12:47:28.8Z</time></trkpt><trkpt lat="45.9170272" lon="10.6066253"><ele>736.0</ele><time>2026-05-02T12:47:29.8Z</time></trkpt><trkpt lat="45.9169685" lon="10.6064882"><ele>736.4</ele><time>2026-05-02T12:47:30.8Z</time></trkpt><trkpt lat="45.9169132" lon="10.6063763"><ele>736.8</ele><time>2026-05-02T12:47:31.8Z</time></trkpt><trkpt lat="45.9168838" lon="10.6062759"><ele>737.1999999999999</ele><time>2026-05-02T12:47:32.8Z</time></trkpt><trkpt lat="45.9168994" lon="10.6061318"><ele>737.5999999999999</ele><time>2026-05-02T12:47:34.8Z</time></trkpt><trkpt lat="45.9169874" lon="10.6061556"><ele>738.0</ele><time>2026-05-02T12:47:36.8Z</time></trkpt><trkpt lat="45.9170481" lon="10.606283"><ele>738.0</ele><time>2026-05-02T12:47:37.8Z</time></trkpt><trkpt lat="45.9171352" lon="10.6064943"><ele>738.0</ele><time>2026-05-02T12:47:38.8Z</time></trkpt><trkpt lat="45.9172253" lon="10.6067248"><ele>738.0</ele><time>2026-05-02T12:47:39.8Z</time></trkpt><trkpt lat="45.9172973" lon="10.6069167"><ele>738.0</ele><time>2026-05-02T12:47:40.8Z</time></trkpt><trkpt lat="45.9174351" lon="10.6070916"><ele>738.0</ele><time>2026-05-02T12:47:42.8Z</time></trkpt><trkpt lat="45.9174983" lon="10.6070024"><ele>738.0</ele><time>2026-05-02T12:47:44.8Z</time></trkpt><trkpt lat="45.9174649" lon="10.6068831"><ele>738.0</ele><time>2026-05-02T12:47:45.8Z</time></trkpt><trkpt lat="45.917399" lon="10.6067195"><ele>738.0</ele><time>2026-05-02T12:47:46.8Z</time></trkpt><trkpt lat="45.9172993" lon="10.6065319"><ele>738.0</ele><time>2026-05-02T12:47:47.8Z</time></trkpt><trkpt lat="45.9172235" lon="10.6063612"><ele>738.0</ele><time>2026-05-02T12:47:48.8Z</time></trkpt><trkpt lat="45.9171842" lon="10.6062222"><ele>738.0</ele><time>2026-05-02T12:47:49.8Z</time></trkpt><trkpt lat="45.9171816" lon="10.6061274"><ele>738.0</ele><time>2026-05-02T12:47:50.8Z</time></trkpt><trkpt lat="45.9172967" lon="10.6062178"><ele>738.0</ele><time>2026-05-02T12:47:53.8Z</time></trkpt><trkpt lat="45.9173899" lon="10.6064114"><ele>738.0</ele><time>2026-05-02T12:47:54.8Z</time></trkpt><trkpt lat="45.9174807" lon="10.6066721"><ele>738.0</ele><time>2026-05-02T12:47:55.8Z</time></trkpt><trkpt lat="45.9175471" lon="10.6069785"><ele>738.0</ele><time>2026-05-02T12:47:56.8Z</time></trkpt><trkpt lat="45.9175795" lon="10.607283"><ele>738.0</ele><time>2026-05-02T12:47:57.801Z</time></trkpt><trkpt lat="45.9175999" lon="10.607566"><ele>758.3333333333333</ele><time>2026-05-02T12:47:58.8Z</time></trkpt><trkpt lat="45.9176203" lon="10.6078382"><ele>778.6666666666666</ele><time>2026-05-02T12:47:59.8Z</time></trkpt><trkpt lat="45.9176474" lon="10.608104"><ele>799.0</ele><time>2026-05-02T12:48:00.8Z</time></trkpt><trkpt lat="45.9176586" lon="10.6083568"><ele>799.0</ele><time>2026-05-02T12:48:01.8Z</time></trkpt><trkpt lat="45.9176419" lon="10.6086107"><ele>799.0</ele><time>2026-05-02T12:48:02.8Z</time></trkpt><trkpt lat="45.9175996" lon="10.6088649"><ele>799.0</ele><time>2026-05-02T12:48:03.8Z</time></trkpt><trkpt lat="45.9175431" lon="10.6091083"><ele>783.6666666666666</ele><time>2026-05-02T12:48:04.8Z</time></trkpt><trkpt lat="45.9175061" lon="10.6093414"><ele>768.3333333333333</ele><time>2026-05-02T12:48:05.8Z</time></trkpt><trkpt lat="45.9174946" lon="10.60958"><ele>753.0</ele><time>2026-05-02T12:48:06.8Z</time></trkpt><trkpt lat="45.9174976" lon="10.6098071"><ele>753.0</ele><time>2026-05-02T12:48:07.8Z</time></trkpt><trkpt lat="45.9175002" lon="10.6100215"><ele>753.0</ele><time>2026-05-02T12:48:08.8Z</time></trkpt><trkpt lat="45.9174853" lon="10.6101815"><ele>753.0</ele><time>2026-05-02T12:48:09.8Z</time></trkpt><trkpt lat="45.9174847" lon="10.6103086"><ele>753.0</ele><time>2026-05-02T12:48:10.8Z</time></trkpt><trkpt lat="45.9175343" lon="10.6104308"><ele>753.0</ele><time>2026-05-02T12:48:12.8Z</time></trkpt><trkpt lat="45.917597" lon="10.6103094"><ele>776.3333333333333</ele><time>2026-05-02T12:48:14.8Z</time></trkpt><trkpt lat="45.9176199" lon="10.6101191"><ele>799.6666666666666</ele><time>2026-05-02T12:48:15.8Z</time></trkpt><trkpt lat="45.9176272" lon="10.6098714"><ele>823.0</ele><time>2026-05-02T12:48:16.8Z</time></trkpt><trkpt lat="45.9176451" lon="10.6095928"><ele>820.3333333333333</ele><time>2026-05-02T12:48:17.8Z</time></trkpt><trkpt lat="45.9176678" lon="10.6093382"><ele>817.6666666666667</ele><time>2026-05-02T12:48:18.8Z</time></trkpt><trkpt lat="45.9176981" lon="10.6091102"><ele>815.0</ele><time>2026-05-02T12:48:19.8Z</time></trkpt><trkpt lat="45.9177559" lon="10.6089002"><ele>815.0</ele><time>2026-05-02T12:48:20.8Z</time></trkpt><trkpt lat="45.9178323" lon="10.6086995"><ele>815.0</ele><time>2026-05-02T12:48:21.8Z</time></trkpt><trkpt lat="45.9179123" lon="10.6084961"><ele>815.0</ele><time>2026-05-02T12:48:22.8Z</time></trkpt><trkpt lat="45.9179871" lon="10.6082751"><ele>809.6666666666667</ele><time>2026-05-02T12:48:23.8Z</time></trkpt><trkpt lat="45.9180427" lon="10.6080337"><ele>804.3333333333333</ele><time>2026-05-02T12:48:24.8Z</time></trkpt><trkpt lat="45.9180792" lon="10.6077774"><ele>799.0</ele><time>2026-05-02T12:48:25.8Z</time></trkpt><trkpt lat="45.9181234" lon="10.607511"><ele>795.3333333333333</ele><time>2026-05-02T12:48:26.8Z</time></trkpt><trkpt lat="45.9181784" lon="10.6072407"><ele>791.6666666666667</ele><time>2026-05-02T12:48:27.8Z</time></trkpt><trkpt lat="45.9182438" lon="10.6069752"><ele>788.0</ele><time>2026-05-02T12:48:28.8Z</time></trkpt><trkpt lat="45.9182899" lon="10.6066989"><ele>788.6666666666667</ele><time>2026-05-02T12:48:29.8Z</time></trkpt><trkpt lat="45.9183212" lon="10.6064289"><ele>789.3333333333333</ele><time>2026-05-02T12:48:30.8Z</time></trkpt><trkpt lat="45.9183247" lon="10.6061611"><ele>790.0</ele><time>2026-05-02T12:48:31.8Z</time></trkpt><trkpt lat="45.9183233" lon="10.6059095"><ele>790.0</ele><time>2026-05-02T12:48:32.8Z</time></trkpt><trkpt lat="45.9183066" lon="10.6056718"><ele>790.0</ele><time>2026-05-02T12:48:33.8Z</time></trkpt><trkpt lat="45.9182758" lon="10.6054482"><ele>790.0</ele><time>2026-05-02T12:48:34.8Z</time></trkpt><trkpt lat="45.9182218" lon="10.6052436"><ele>792.5</ele><time>2026-05-02T12:48:35.8Z</time></trkpt><trkpt lat="45.9181443" lon="10.6050805"><ele>795.0</ele><time>2026-05-02T12:48:36.8Z</time></trkpt><trkpt lat="45.9180292" lon="10.6049916"><ele>797.5</ele><time>2026-05-02T12:48:37.8Z</time></trkpt><trkpt lat="45.9179039" lon="10.6049559"><ele>800.0</ele><time>2026-05-02T12:48:38.8Z</time></trkpt><trkpt lat="45.9177944" lon="10.6049276"><ele>800.0</ele><time>2026-05-02T12:48:39.8Z</time></trkpt><trkpt lat="45.9176963" lon="10.6048735"><ele>800.0</ele><time>2026-05-02T12:48:40.8Z</time></trkpt><trkpt lat="45.917632" lon="10.6047827"><ele>800.0</ele><time>2026-05-02T12:48:41.8Z</time></trkpt><trkpt lat="45.9176033" lon="10.6046533"><ele>800.0</ele><time>2026-05-02T12:48:42.8Z</time></trkpt><trkpt lat="45.9176105" lon="10.6044994"><ele>800.0</ele><time>2026-05-02T12:48:43.8Z</time></trkpt><trkpt lat="45.9176012" lon="10.6043501"><ele>801.4</ele><time>2026-05-02T12:48:44.8Z</time></trkpt><trkpt lat="45.9175775" lon="10.6042361"><ele>802.8</ele><time>2026-05-02T12:48:45.8Z</time></trkpt><trkpt lat="45.9175323" lon="10.6041681"><ele>804.2</ele><time>2026-05-02T12:48:46.8Z</time></trkpt><trkpt lat="45.9174648" lon="10.6041369"><ele>805.6</ele><time>2026-05-02T12:48:47.8Z</time></trkpt><trkpt lat="45.9173646" lon="10.6041501"><ele>807.0</ele><time>2026-05-02T12:48:48.8Z</time></trkpt><trkpt lat="45.91722" lon="10.6042057"><ele>807.0</ele><time>2026-05-02T12:48:49.8Z</time></trkpt><trkpt lat="45.9170439" lon="10.6042977"><ele>807.0</ele><time>2026-05-02T12:48:50.8Z</time></trkpt><trkpt lat="45.9168509" lon="10.6043751"><ele>807.0</ele><time>2026-05-02T12:48:51.8Z</time></trkpt><trkpt lat="45.9166768" lon="10.6044481"><ele>798.75</ele><time>2026-05-02T12:48:52.8Z</time></trkpt><trkpt lat="45.916528" lon="10.6045051"><ele>790.5</ele><time>2026-05-02T12:48:53.8Z</time></trkpt><trkpt lat="45.9164064" lon="10.6045615"><ele>782.25</ele><time>2026-05-02T12:48:54.8Z</time></trkpt><trkpt lat="45.9163073" lon="10.6046134"><ele>774.0</ele><time>2026-05-02T12:48:55.8Z</time></trkpt><trkpt lat="45.9162292" lon="10.6046491"><ele>774.0</ele><time>2026-05-02T12:48:56.8Z</time></trkpt><trkpt lat="45.9161259" lon="10.6046493"><ele>774.0</ele><time>2026-05-02T12:48:58.8Z</time></trkpt><trkpt lat="45.916169" lon="10.6045528"><ele>774.0</ele><time>2026-05-02T12:49:01.8Z</time></trkpt><trkpt lat="45.9162566" lon="10.6045237"><ele>774.0</ele><time>2026-05-02T12:49:02.8Z</time></trkpt><trkpt lat="45.9163806" lon="10.6044722"><ele>774.0</ele><time>2026-05-02T12:49:03.8Z</time></trkpt><trkpt lat="45.9165085" lon="10.6044141"><ele>782.25</ele><time>2026-05-02T12:49:04.8Z</time></trkpt><trkpt lat="45.916639" lon="10.604345"><ele>790.5</ele><time>2026-05-02T12:49:05.8Z</time></trkpt><trkpt lat="45.9167626" lon="10.604276"><ele>798.75</ele><time>2026-05-02T12:49:06.8Z</time></trkpt><trkpt lat="45.9168717" lon="10.6042206"><ele>807.0</ele><time>2026-05-02T12:49:07.8Z</time></trkpt><trkpt lat="45.9169622" lon="10.6041692"><ele>807.0</ele><time>2026-05-02T12:49:08.8Z</time></trkpt><trkpt lat="45.9170333" lon="10.6041075"><ele>807.0</ele><time>2026-05-02T12:49:09.8Z</time></trkpt><trkpt lat="45.9170892" lon="10.6040465"><ele>807.0</ele><time>2026-05-02T12:49:10.8Z</time></trkpt><trkpt lat="45.9169504" lon="10.6040342"><ele>807.0</ele><time>2026-05-02T12:49:14.8Z</time></trkpt><trkpt lat="45.9168078" lon="10.6040849"><ele>807.0</ele><time>2026-05-02T12:49:15.8Z</time></trkpt><trkpt lat="45.9166541" lon="10.6041474"><ele>807.0</ele><time>2026-05-02T12:49:16.8Z</time></trkpt><trkpt lat="45.9165231" lon="10.6041882"><ele>807.0</ele><time>2026-05-02T12:49:17.8Z</time></trkpt><trkpt lat="45.9164158" lon="10.6041984"><ele>807.0</ele><time>2026-05-02T12:49:18.8Z</time></trkpt><trkpt lat="45.9163157" lon="10.6041686"><ele>807.0</ele><time>2026-05-02T12:49:19.8Z</time></trkpt><trkpt lat="45.9162344" lon="10.6041129"><ele>807.0</ele><time>2026-05-02T12:49:20.8Z</time></trkpt><trkpt lat="45.9161829" lon="10.6040409"><ele>807.0</ele><time>2026-05-02T12:49:21.8Z</time></trkpt><trkpt lat="45.9161554" lon="10.6039083"><ele>807.0</ele><time>2026-05-02T12:49:22.8Z</time></trkpt><trkpt lat="45.9161346" lon="10.6038066"><ele>807.0</ele><time>2026-05-02T12:49:23.8Z</time></trkpt><trkpt lat="45.9161278" lon="10.6037028"><ele>807.0</ele><time>2026-05-02T12:49:24.8Z</time></trkpt><trkpt lat="45.9161472" lon="10.6035777"><ele>807.0</ele><time>2026-05-02T12:49:25.8Z</time></trkpt><trkpt lat="45.9161847" lon="10.6034515"><ele>807.0</ele><time>2026-05-02T12:49:26.801Z</time></trkpt><trkpt lat="45.9162119" lon="10.6033285"><ele>811.1666666666666</ele><time>2026-05-02T12:49:27.8Z</time></trkpt><trkpt lat="45.9162374" lon="10.603213"><ele>815.3333333333333</ele><time>2026-05-02T12:49:28.8Z</time></trkpt><trkpt lat="45.9162576" lon="10.6031013"><ele>819.5</ele><time>2026-05-02T12:49:29.8Z</time></trkpt><trkpt lat="45.9162923" lon="10.6029986"><ele>823.6666666666666</ele><time>2026-05-02T12:49:30.8Z</time></trkpt><trkpt lat="45.9163305" lon="10.6029184"><ele>827.8333333333333</ele><time>2026-05-02T12:49:31.8Z</time></trkpt><trkpt lat="45.9163593" lon="10.602771"><ele>832.0</ele><time>2026-05-02T12:49:33.8Z</time></trkpt><trkpt lat="45.9163316" lon="10.6026756"><ele>831.6</ele><time>2026-05-02T12:49:35.8Z</time></trkpt><trkpt lat="45.9162583" lon="10.6025894"><ele>831.2</ele><time>2026-05-02T12:49:37.8Z</time></trkpt><trkpt lat="45.9161855" lon="10.602558"><ele>830.8</ele><time>2026-05-02T12:49:39.8Z</time></trkpt><trkpt lat="45.9160886" lon="10.602585"><ele>830.4</ele><time>2026-05-02T12:49:41.8Z</time></trkpt><trkpt lat="45.9159825" lon="10.6026227"><ele>830.0</ele><time>2026-05-02T12:49:43.8Z</time></trkpt><trkpt lat="45.9158759" lon="10.6026574"><ele>830.0000000000001</ele><time>2026-05-02T12:49:45.8Z</time></trkpt><trkpt lat="45.9157586" lon="10.6026868"><ele>830.0</ele><time>2026-05-02T12:49:47.8Z</time></trkpt><trkpt lat="45.9156496" lon="10.6027571"><ele>830.0</ele><time>2026-05-02T12:49:49.8Z</time></trkpt><trkpt lat="45.9155856" lon="10.6027766"><ele>830.0</ele><time>2026-05-02T12:49:50.8Z</time></trkpt><trkpt lat="45.9155192" lon="10.6027969"><ele>830.0000000000001</ele><time>2026-05-02T12:49:51.8Z</time></trkpt><trkpt lat="45.9154511" lon="10.6028227"><ele>830.0</ele><time>2026-05-02T12:49:52.8Z</time></trkpt><trkpt lat="45.915384" lon="10.6028568"><ele>828.6666666666667</ele><time>2026-05-02T12:49:53.8Z</time></trkpt><trkpt lat="45.9153185" lon="10.6028904"><ele>827.3333333333334</ele><time>2026-05-02T12:49:54.8Z</time></trkpt><trkpt lat="45.9152485" lon="10.6029133"><ele>826.0</ele><time>2026-05-02T12:49:55.8Z</time></trkpt><trkpt lat="45.9151834" lon="10.6029426"><ele>824.6666666666667</ele><time>2026-05-02T12:49:56.8Z</time></trkpt><trkpt lat="45.9151226" lon="10.6029732"><ele>823.3333333333334</ele><time>2026-05-02T12:49:57.8Z</time></trkpt><trkpt lat="45.9150168" lon="10.6030437"><ele>822.0</ele><time>2026-05-02T12:49:59.8Z</time></trkpt><trkpt lat="45.9149047" lon="10.6030857"><ele>821.3333333333334</ele><time>2026-05-02T12:50:01.801Z</time></trkpt><trkpt lat="45.914799" lon="10.6030872"><ele>820.6666666666667</ele><time>2026-05-02T12:50:03.8Z</time></trkpt><trkpt lat="45.9147049" lon="10.6030871"><ele>820.0</ele><time>2026-05-02T12:50:05.8Z</time></trkpt><trkpt lat="45.9145916" lon="10.6030765"><ele>819.3333333333334</ele><time>2026-05-02T12:50:07.8Z</time></trkpt><trkpt lat="45.9145258" lon="10.6030727"><ele>818.6666666666667</ele><time>2026-05-02T12:50:08.8Z</time></trkpt><trkpt lat="45.9144615" lon="10.6030666"><ele>818.0</ele><time>2026-05-02T12:50:09.8Z</time></trkpt><trkpt lat="45.9143939" lon="10.6030586"><ele>818.0000000000001</ele><time>2026-05-02T12:50:10.8Z</time></trkpt><trkpt lat="45.9143127" lon="10.6030595"><ele>818.0</ele><time>2026-05-02T12:50:11.8Z</time></trkpt><trkpt lat="45.914234" lon="10.6030779"><ele>818.0</ele><time>2026-05-02T12:50:12.8Z</time></trkpt><trkpt lat="45.9141455" lon="10.6030844"><ele>818.0</ele><time>2026-05-02T12:50:13.8Z</time></trkpt><trkpt lat="45.9140582" lon="10.603096"><ele>818.0000000000001</ele><time>2026-05-02T12:50:14.8Z</time></trkpt><trkpt lat="45.9139771" lon="10.6031108"><ele>818.0</ele><time>2026-05-02T12:50:15.8Z</time></trkpt><trkpt lat="45.9139015" lon="10.6031189"><ele>818.8333333333334</ele><time>2026-05-02T12:50:16.8Z</time></trkpt><trkpt lat="45.913833" lon="10.6031272"><ele>819.6666666666667</ele><time>2026-05-02T12:50:17.8Z</time></trkpt><trkpt lat="45.9137656" lon="10.6031322"><ele>820.5</ele><time>2026-05-02T12:50:18.8Z</time></trkpt><trkpt lat="45.913702" lon="10.6031322"><ele>821.3333333333333</ele><time>2026-05-02T12:50:19.8Z</time></trkpt><trkpt lat="45.9136042" lon="10.6031331"><ele>822.1666666666666</ele><time>2026-05-02T12:50:21.8Z</time></trkpt><trkpt lat="45.9135233" lon="10.603115"><ele>823.0</ele><time>2026-05-02T12:50:23.8Z</time></trkpt><trkpt lat="45.9134392" lon="10.6030602"><ele>823.8</ele><time>2026-05-02T12:50:25.8Z</time></trkpt><trkpt lat="45.9133254" lon="10.6029743"><ele>824.5999999999999</ele><time>2026-05-02T12:50:27.8Z</time></trkpt><trkpt lat="45.9132651" lon="10.6029309"><ele>825.4000000000001</ele><time>2026-05-02T12:50:28.8Z</time></trkpt><trkpt lat="45.9131283" lon="10.6028488"><ele>826.2</ele><time>2026-05-02T12:50:31.8Z</time></trkpt><trkpt lat="45.9130819" lon="10.6027811"><ele>827.0</ele><time>2026-05-02T12:50:33.8Z</time></trkpt><trkpt lat="45.9131592" lon="10.6027189"><ele>831.4000000000001</ele><time>2026-05-02T12:50:35.8Z</time></trkpt><trkpt lat="45.9132331" lon="10.6027126"><ele>835.8000000000001</ele><time>2026-05-02T12:50:36.8Z</time></trkpt><trkpt lat="45.9133163" lon="10.6027256"><ele>840.2</ele><time>2026-05-02T12:50:37.8Z</time></trkpt><trkpt lat="45.9134011" lon="10.602743"><ele>844.6</ele><time>2026-05-02T12:50:38.8Z</time></trkpt><trkpt lat="45.9135053" lon="10.6027736"><ele>849.0</ele><time>2026-05-02T12:50:39.8Z</time></trkpt><trkpt lat="45.913606" lon="10.6027753"><ele>849.6</ele><time>2026-05-02T12:50:40.8Z</time></trkpt><trkpt lat="45.9137064" lon="10.6027673"><ele>850.2</ele><time>2026-05-02T12:50:41.8Z</time></trkpt><trkpt lat="45.913801" lon="10.602747"><ele>850.8000000000001</ele><time>2026-05-02T12:50:42.8Z</time></trkpt><trkpt lat="45.9138821" lon="10.602718"><ele>851.4000000000001</ele><time>2026-05-02T12:50:43.8Z</time></trkpt><trkpt lat="45.9139712" lon="10.6026839"><ele>852.0</ele><time>2026-05-02T12:50:44.8Z</time></trkpt><trkpt lat="45.9140664" lon="10.6026526"><ele>852.0</ele><time>2026-05-02T12:50:45.8Z</time></trkpt><trkpt lat="45.9141566" lon="10.6026278"><ele>852.0</ele><time>2026-05-02T12:50:46.8Z</time></trkpt><trkpt lat="45.9142403" lon="10.6026023"><ele>852.0</ele><time>2026-05-02T12:50:47.8Z</time></trkpt><trkpt lat="45.9143067" lon="10.6025749"><ele>852.0</ele><time>2026-05-02T12:50:48.8Z</time></trkpt><trkpt lat="45.9144748" lon="10.6025111"><ele>852.0</ele><time>2026-05-02T12:50:51.8Z</time></trkpt><trkpt lat="45.9145226" lon="10.6024467"><ele>852.0</ele><time>2026-05-02T12:50:53.8Z</time></trkpt><trkpt lat="45.9144374" lon="10.6023659"><ele>852.0</ele><time>2026-05-02T12:50:56.8Z</time></trkpt><trkpt lat="45.9143647" lon="10.6023477"><ele>852.0</ele><time>2026-05-02T12:50:57.8Z</time></trkpt><trkpt lat="45.9142772" lon="10.6023292"><ele>852.0</ele><time>2026-05-02T12:50:58.8Z</time></trkpt><trkpt lat="45.9141723" lon="10.6023101"><ele>852.0</ele><time>2026-05-02T12:50:59.8Z</time></trkpt><trkpt lat="45.9140561" lon="10.6022633"><ele>852.0</ele><time>2026-05-02T12:51:00.8Z</time></trkpt><trkpt lat="45.9139248" lon="10.6021991"><ele>852.0</ele><time>2026-05-02T12:51:01.8Z</time></trkpt><trkpt lat="45.9137918" lon="10.602154"><ele>852.0</ele><time>2026-05-02T12:51:02.8Z</time></trkpt><trkpt lat="45.9136615" lon="10.60211"><ele>852.0</ele><time>2026-05-02T12:51:03.8Z</time></trkpt><trkpt lat="45.9135355" lon="10.6020673"><ele>852.0</ele><time>2026-05-02T12:51:04.8Z</time></trkpt><trkpt lat="45.9134157" lon="10.6020351"><ele>852.0</ele><time>2026-05-02T12:51:05.8Z</time></trkpt><trkpt lat="45.9132986" lon="10.6020061"><ele>852.0</ele><time>2026-05-02T12:51:06.8Z</time></trkpt><trkpt lat="45.9131785" lon="10.6019783"><ele>852.0</ele><time>2026-05-02T12:51:07.8Z</time></trkpt><trkpt lat="45.9130526" lon="10.6019423"><ele>858.75</ele><time>2026-05-02T12:51:08.8Z</time></trkpt><trkpt lat="45.9129253" lon="10.6019099"><ele>865.5</ele><time>2026-05-02T12:51:09.8Z</time></trkpt><trkpt lat="45.9127978" lon="10.6018885"><ele>872.25</ele><time>2026-05-02T12:51:10.8Z</time></trkpt><trkpt lat="45.9126746" lon="10.6018598"><ele>879.0</ele><time>2026-05-02T12:51:11.8Z</time></trkpt><trkpt lat="45.9125553" lon="10.6018277"><ele>879.5</ele><time>2026-05-02T12:51:12.8Z</time></trkpt><trkpt lat="45.9124407" lon="10.6018014"><ele>880.0</ele><time>2026-05-02T12:51:13.8Z</time></trkpt><trkpt lat="45.9123238" lon="10.6017944"><ele>880.5</ele><time>2026-05-02T12:51:14.8Z</time></trkpt><trkpt lat="45.9122099" lon="10.6018141"><ele>881.0</ele><time>2026-05-02T12:51:15.8Z</time></trkpt><trkpt lat="45.9121025" lon="10.6018237"><ele>881.0</ele><time>2026-05-02T12:51:16.8Z</time></trkpt><trkpt lat="45.911987" lon="10.6018411"><ele>881.0</ele><time>2026-05-02T12:51:17.8Z</time></trkpt><trkpt lat="45.911867" lon="10.6018658"><ele>881.0</ele><time>2026-05-02T12:51:18.8Z</time></trkpt><trkpt lat="45.9117502" lon="10.6018897"><ele>881.0</ele><time>2026-05-02T12:51:19.8Z</time></trkpt><trkpt lat="45.9116361" lon="10.6018821"><ele>881.5</ele><time>2026-05-02T12:51:20.8Z</time></trkpt><trkpt lat="45.9115257" lon="10.6018179"><ele>882.0</ele><time>2026-05-02T12:51:21.8Z</time></trkpt><trkpt lat="45.9114256" lon="10.6017227"><ele>882.5</ele><time>2026-05-02T12:51:22.8Z</time></trkpt><trkpt lat="45.9113283" lon="10.6015817"><ele>883.0</ele><time>2026-05-02T12:51:23.8Z</time></trkpt><trkpt lat="45.9112374" lon="10.6014285"><ele>883.0</ele><time>2026-05-02T12:51:24.8Z</time></trkpt><trkpt lat="45.9111478" lon="10.6012738"><ele>883.0</ele><time>2026-05-02T12:51:25.8Z</time></trkpt><trkpt lat="45.9110563" lon="10.6011331"><ele>883.0</ele><time>2026-05-02T12:51:26.8Z</time></trkpt><trkpt lat="45.9109711" lon="10.6010149"><ele>883.0</ele><time>2026-05-02T12:51:27.8Z</time></trkpt><trkpt lat="45.9108812" lon="10.600932"><ele>886.0</ele><time>2026-05-02T12:51:28.8Z</time></trkpt><trkpt lat="45.9107825" lon="10.6008961"><ele>889.0</ele><time>2026-05-02T12:51:29.799Z</time></trkpt><trkpt lat="45.9106789" lon="10.6009114"><ele>892.0</ele><time>2026-05-02T12:51:30.799Z</time></trkpt><trkpt lat="45.9105684" lon="10.6009544"><ele>895.0</ele><time>2026-05-02T12:51:31.799Z</time></trkpt><trkpt lat="45.9104519" lon="10.6009752"><ele>898.0</ele><time>2026-05-02T12:51:32.799Z</time></trkpt><trkpt lat="45.910323" lon="10.6009486"><ele>898.0</ele><time>2026-05-02T12:51:33.799Z</time></trkpt><trkpt lat="45.9102055" lon="10.6008865"><ele>898.0</ele><time>2026-05-02T12:51:34.799Z</time></trkpt><trkpt lat="45.9100983" lon="10.6007842"><ele>898.0</ele><time>2026-05-02T12:51:35.799Z</time></trkpt><trkpt lat="45.9099928" lon="10.6006554"><ele>898.0</ele><time>2026-05-02T12:51:36.799Z</time></trkpt><trkpt lat="45.9098768" lon="10.6005339"><ele>897.0</ele><time>2026-05-02T12:51:37.799Z</time></trkpt><trkpt lat="45.9097436" lon="10.6004299"><ele>896.0</ele><time>2026-05-02T12:51:38.799Z</time></trkpt><trkpt lat="45.9095973" lon="10.6003277"><ele>895.0</ele><time>2026-05-02T12:51:39.799Z</time></trkpt><trkpt lat="45.9094539" lon="10.6002397"><ele>899.6666666666666</ele><time>2026-05-02T12:51:40.799Z</time></trkpt><trkpt lat="45.9093082" lon="10.6001501"><ele>904.3333333333333</ele><time>2026-05-02T12:51:41.799Z</time></trkpt><trkpt lat="45.909165" lon="10.6000685"><ele>909.0</ele><time>2026-05-02T12:51:42.799Z</time></trkpt><trkpt lat="45.9090302" lon="10.599974"><ele>909.0</ele><time>2026-05-02T12:51:43.799Z</time></trkpt><trkpt lat="45.9088992" lon="10.5998674"><ele>909.0</ele><time>2026-05-02T12:51:44.799Z</time></trkpt><trkpt lat="45.9087647" lon="10.5997824"><ele>909.0</ele><time>2026-05-02T12:51:45.8Z</time></trkpt><trkpt lat="45.9086391" lon="10.5997077"><ele>909.0</ele><time>2026-05-02T12:51:46.799Z</time></trkpt><trkpt lat="45.908523" lon="10.5996608"><ele>908.5</ele><time>2026-05-02T12:51:47.799Z</time></trkpt><trkpt lat="45.9083996" lon="10.5996584"><ele>908.0</ele><time>2026-05-02T12:51:48.799Z</time></trkpt><trkpt lat="45.9082749" lon="10.599674"><ele>907.5</ele><time>2026-05-02T12:51:49.799Z</time></trkpt><trkpt lat="45.9081408" lon="10.5996949"><ele>907.0</ele><time>2026-05-02T12:51:50.799Z</time></trkpt><trkpt lat="45.907997" lon="10.5996843"><ele>907.0</ele><time>2026-05-02T12:51:51.799Z</time></trkpt><trkpt lat="45.9078508" lon="10.5996738"><ele>907.0</ele><time>2026-05-02T12:51:52.799Z</time></trkpt><trkpt lat="45.9077085" lon="10.5996296"><ele>907.0</ele><time>2026-05-02T12:51:53.799Z</time></trkpt><trkpt lat="45.9075686" lon="10.5995664"><ele>907.0</ele><time>2026-05-02T12:51:54.799Z</time></trkpt><trkpt lat="45.9074258" lon="10.5994756"><ele>918.0</ele><time>2026-05-02T12:51:55.799Z</time></trkpt><trkpt lat="45.9072822" lon="10.5993663"><ele>929.0</ele><time>2026-05-02T12:51:56.799Z</time></trkpt><trkpt lat="45.9071423" lon="10.5992177"><ele>940.0</ele><time>2026-05-02T12:51:57.799Z</time></trkpt><trkpt lat="45.9070089" lon="10.5990665"><ele>940.0</ele><time>2026-05-02T12:51:58.799Z</time></trkpt><trkpt lat="45.9068747" lon="10.59893"><ele>940.0</ele><time>2026-05-02T12:51:59.799Z</time></trkpt><trkpt lat="45.9067419" lon="10.5988261"><ele>940.0</ele><time>2026-05-02T12:52:00.799Z</time></trkpt><trkpt lat="45.9066213" lon="10.5987281"><ele>942.0</ele><time>2026-05-02T12:52:01.799Z</time></trkpt><trkpt lat="45.9065073" lon="10.5986213"><ele>944.0</ele><time>2026-05-02T12:52:02.799Z</time></trkpt><trkpt lat="45.9064107" lon="10.5985452"><ele>946.0</ele><time>2026-05-02T12:52:03.799Z</time></trkpt><trkpt lat="45.9063202" lon="10.5984837"><ele>948.0</ele><time>2026-05-02T12:52:04.799Z</time></trkpt><trkpt lat="45.906237" lon="10.598448"><ele>950.0</ele><time>2026-05-02T12:52:05.799Z</time></trkpt><trkpt lat="45.9061799" lon="10.5983934"><ele>950.0</ele><time>2026-05-02T12:52:06.799Z</time></trkpt><trkpt lat="45.9061295" lon="10.5982635"><ele>950.0</ele><time>2026-05-02T12:52:08.799Z</time></trkpt><trkpt lat="45.9061953" lon="10.5981827"><ele>950.0</ele><time>2026-05-02T12:52:10.799Z</time></trkpt><trkpt lat="45.9062865" lon="10.598206"><ele>950.0</ele><time>2026-05-02T12:52:11.799Z</time></trkpt><trkpt lat="45.9064239" lon="10.5982637"><ele>950.0</ele><time>2026-05-02T12:52:12.799Z</time></trkpt><trkpt lat="45.9065867" lon="10.5983231"><ele>955.3333333333334</ele><time>2026-05-02T12:52:13.799Z</time></trkpt><trkpt lat="45.906747" lon="10.5983882"><ele>960.6666666666667</ele><time>2026-05-02T12:52:14.799Z</time></trkpt><trkpt lat="45.9069029" lon="10.59844"><ele>966.0</ele><time>2026-05-02T12:52:15.799Z</time></trkpt><trkpt lat="45.9070412" lon="10.598494"><ele>966.0</ele><time>2026-05-02T12:52:16.799Z</time></trkpt><trkpt lat="45.907175" lon="10.5985346"><ele>966.0</ele><time>2026-05-02T12:52:17.799Z</time></trkpt><trkpt lat="45.9073118" lon="10.5985594"><ele>966.0</ele><time>2026-05-02T12:52:18.799Z</time></trkpt><trkpt lat="45.9074383" lon="10.5985509"><ele>966.0</ele><time>2026-05-02T12:52:19.799Z</time></trkpt><trkpt lat="45.9075711" lon="10.5985299"><ele>970.0</ele><time>2026-05-02T12:52:20.799Z</time></trkpt><trkpt lat="45.9077051" lon="10.5984994"><ele>974.0</ele><time>2026-05-02T12:52:21.799Z</time></trkpt><trkpt lat="45.9078277" lon="10.5985049"><ele>978.0</ele><time>2026-05-02T12:52:22.799Z</time></trkpt><trkpt lat="45.9079338" lon="10.5985502"><ele>982.0</ele><time>2026-05-02T12:52:23.799Z</time></trkpt><trkpt lat="45.9080097" lon="10.5986166"><ele>982.0</ele><time>2026-05-02T12:52:24.799Z</time></trkpt><trkpt lat="45.9080774" lon="10.5986646"><ele>982.0</ele><time>2026-05-02T12:52:25.799Z</time></trkpt><trkpt lat="45.9081747" lon="10.598658"><ele>982.0</ele><time>2026-05-02T12:52:27.799Z</time></trkpt><trkpt lat="45.90816" lon="10.598548"><ele>982.0</ele><time>2026-05-02T12:52:29.799Z</time></trkpt><trkpt lat="45.9080902" lon="10.5984674"><ele>982.0</ele><time>2026-05-02T12:52:30.799Z</time></trkpt><trkpt lat="45.9079759" lon="10.5983645"><ele>982.0</ele><time>2026-05-02T12:52:31.799Z</time></trkpt><trkpt lat="45.9078203" lon="10.5982527"><ele>982.0</ele><time>2026-05-02T12:52:32.799Z</time></trkpt><trkpt lat="45.907661" lon="10.5981439"><ele>982.0</ele><time>2026-05-02T12:52:33.799Z</time></trkpt><trkpt lat="45.9075243" lon="10.5980427"><ele>983.25</ele><time>2026-05-02T12:52:34.799Z</time></trkpt><trkpt lat="45.907403" lon="10.597956"><ele>984.5</ele><time>2026-05-02T12:52:35.799Z</time></trkpt><trkpt lat="45.9072989" lon="10.597873"><ele>985.75</ele><time>2026-05-02T12:52:36.799Z</time></trkpt><trkpt lat="45.9072078" lon="10.5977904"><ele>987.0</ele><time>2026-05-02T12:52:37.799Z</time></trkpt><trkpt lat="45.9071304" lon="10.5977114"><ele>987.0</ele><time>2026-05-02T12:52:38.799Z</time></trkpt><trkpt lat="45.9070702" lon="10.5976428"><ele>987.0</ele><time>2026-05-02T12:52:39.799Z</time></trkpt><trkpt lat="45.9070308" lon="10.5975553"><ele>987.0</ele><time>2026-05-02T12:52:40.799Z</time></trkpt><trkpt lat="45.9070146" lon="10.5974611"><ele>987.0</ele><time>2026-05-02T12:52:41.799Z</time></trkpt><trkpt lat="45.9070276" lon="10.5973574"><ele>987.0</ele><time>2026-05-02T12:52:42.799Z</time></trkpt><trkpt lat="45.9070683" lon="10.5972511"><ele>987.0</ele><time>2026-05-02T12:52:43.799Z</time></trkpt><trkpt lat="45.9071313" lon="10.5971509"><ele>987.0</ele><time>2026-05-02T12:52:44.799Z</time></trkpt><trkpt lat="45.9071957" lon="10.597058"><ele>987.0</ele><time>2026-05-02T12:52:45.799Z</time></trkpt><trkpt lat="45.9072585" lon="10.5969673"><ele>987.0</ele><time>2026-05-02T12:52:46.799Z</time></trkpt><trkpt lat="45.9073223" lon="10.5968794"><ele>987.0</ele><time>2026-05-02T12:52:47.799Z</time></trkpt><trkpt lat="45.9073841" lon="10.5967895"><ele>987.0</ele><time>2026-05-02T12:52:48.799Z</time></trkpt><trkpt lat="45.9074462" lon="10.5966966"><ele>987.0</ele><time>2026-05-02T12:52:49.799Z</time></trkpt><trkpt lat="45.9075083" lon="10.5965943"><ele>986.8333333333334</ele><time>2026-05-02T12:52:50.8Z</time></trkpt><trkpt lat="45.9075626" lon="10.5964851"><ele>986.6666666666667</ele><time>2026-05-02T12:52:51.799Z</time></trkpt><trkpt lat="45.9076179" lon="10.596373"><ele>986.5</ele><time>2026-05-02T12:52:52.799Z</time></trkpt><trkpt lat="45.9076721" lon="10.5962675"><ele>986.3333333333334</ele><time>2026-05-02T12:52:53.799Z</time></trkpt><trkpt lat="45.9077175" lon="10.5961604"><ele>986.1666666666667</ele><time>2026-05-02T12:52:54.799Z</time></trkpt><trkpt lat="45.9077597" lon="10.596069"><ele>986.0</ele><time>2026-05-02T12:52:55.799Z</time></trkpt><trkpt lat="45.9078091" lon="10.5960019"><ele>994.5</ele><time>2026-05-02T12:52:56.799Z</time></trkpt><trkpt lat="45.9078923" lon="10.5959809"><ele>1003.0</ele><time>2026-05-02T12:52:58.799Z</time></trkpt><trkpt lat="45.9078793" lon="10.5961616"><ele>1011.5</ele><time>2026-05-02T12:53:00.799Z</time></trkpt><trkpt lat="45.9078515" lon="10.5963491"><ele>1020.0</ele><time>2026-05-02T12:53:01.799Z</time></trkpt><trkpt lat="45.9078377" lon="10.5965649"><ele>1020.0</ele><time>2026-05-02T12:53:02.799Z</time></trkpt><trkpt lat="45.9078442" lon="10.5967553"><ele>1020.0</ele><time>2026-05-02T12:53:03.799Z</time></trkpt><trkpt lat="45.9078755" lon="10.5969103"><ele>1020.0</ele><time>2026-05-02T12:53:04.799Z</time></trkpt><trkpt lat="45.9079296" lon="10.5970257"><ele>1020.0</ele><time>2026-05-02T12:53:05.799Z</time></trkpt><trkpt lat="45.9080023" lon="10.5970979"><ele>1020.0</ele><time>2026-05-02T12:53:06.799Z</time></trkpt><trkpt lat="45.908099" lon="10.5971246"><ele>1017.75</ele><time>2026-05-02T12:53:07.799Z</time></trkpt><trkpt lat="45.9082122" lon="10.5971228"><ele>1015.5</ele><time>2026-05-02T12:53:08.799Z</time></trkpt><trkpt lat="45.9083479" lon="10.5971125"><ele>1013.25</ele><time>2026-05-02T12:53:09.799Z</time></trkpt><trkpt lat="45.9084812" lon="10.597115"><ele>1011.0</ele><time>2026-05-02T12:53:10.799Z</time></trkpt><trkpt lat="45.9086021" lon="10.5971241"><ele>1011.0</ele><time>2026-05-02T12:53:11.799Z</time></trkpt><trkpt lat="45.9087226" lon="10.5971299"><ele>1011.0</ele><time>2026-05-02T12:53:12.799Z</time></trkpt><trkpt lat="45.9088396" lon="10.5971465"><ele>1011.0</ele><time>2026-05-02T12:53:13.799Z</time></trkpt><trkpt lat="45.9089582" lon="10.5971593"><ele>1011.0</ele><time>2026-05-02T12:53:14.799Z</time></trkpt><trkpt lat="45.9090825" lon="10.5971626"><ele>1011.0</ele><time>2026-05-02T12:53:15.799Z</time></trkpt><trkpt lat="45.9092118" lon="10.5971596"><ele>1011.0</ele><time>2026-05-02T12:53:16.799Z</time></trkpt><trkpt lat="45.9093416" lon="10.5971538"><ele>1011.0</ele><time>2026-05-02T12:53:17.799Z</time></trkpt><trkpt lat="45.9094724" lon="10.5971516"><ele>1011.0</ele><time>2026-05-02T12:53:18.799Z</time></trkpt><trkpt lat="45.909607" lon="10.5971572"><ele>1011.75</ele><time>2026-05-02T12:53:19.799Z</time></trkpt><trkpt lat="45.9097448" lon="10.597172"><ele>1012.5</ele><time>2026-05-02T12:53:20.799Z</time></trkpt><trkpt lat="45.9098809" lon="10.5971755"><ele>1013.25</ele><time>2026-05-02T12:53:21.799Z</time></trkpt><trkpt lat="45.9100118" lon="10.5971767"><ele>1014.0</ele><time>2026-05-02T12:53:22.799Z</time></trkpt><trkpt lat="45.9101458" lon="10.5971646"><ele>1015.75</ele><time>2026-05-02T12:53:23.799Z</time></trkpt><trkpt lat="45.9102794" lon="10.5971502"><ele>1017.5</ele><time>2026-05-02T12:53:24.799Z</time></trkpt><trkpt lat="45.910409" lon="10.5971206"><ele>1019.25</ele><time>2026-05-02T12:53:25.799Z</time></trkpt><trkpt lat="45.910542" lon="10.5970802"><ele>1021.0</ele><time>2026-05-02T12:53:26.799Z</time></trkpt><trkpt lat="45.9106714" lon="10.5970359"><ele>1021.0</ele><time>2026-05-02T12:53:27.799Z</time></trkpt><trkpt lat="45.9107989" lon="10.5970183"><ele>1021.0</ele><time>2026-05-02T12:53:28.799Z</time></trkpt><trkpt lat="45.910924" lon="10.5970152"><ele>1021.0</ele><time>2026-05-02T12:53:29.799Z</time></trkpt><trkpt lat="45.9110493" lon="10.597036"><ele>1021.0</ele><time>2026-05-02T12:53:30.799Z</time></trkpt><trkpt lat="45.9111712" lon="10.5970619"><ele>1022.5</ele><time>2026-05-02T12:53:31.8Z</time></trkpt><trkpt lat="45.9112951" lon="10.5970683"><ele>1024.0</ele><time>2026-05-02T12:53:32.799Z</time></trkpt><trkpt lat="45.9114181" lon="10.5970504"><ele>1025.5</ele><time>2026-05-02T12:53:33.799Z</time></trkpt><trkpt lat="45.9115361" lon="10.5970163"><ele>1027.0</ele><time>2026-05-02T12:53:34.799Z</time></trkpt><trkpt lat="45.911655" lon="10.5969459"><ele>1042.75</ele><time>2026-05-02T12:53:35.799Z</time></trkpt><trkpt lat="45.9117759" lon="10.5968942"><ele>1058.5</ele><time>2026-05-02T12:53:36.799Z</time></trkpt><trkpt lat="45.9118951" lon="10.5968746"><ele>1074.25</ele><time>2026-05-02T12:53:37.799Z</time></trkpt><trkpt lat="45.9120153" lon="10.5968673"><ele>1090.0</ele><time>2026-05-02T12:53:38.799Z</time></trkpt><trkpt lat="45.9121309" lon="10.5968689"><ele>1090.0</ele><time>2026-05-02T12:53:39.799Z</time></trkpt><trkpt lat="45.9122597" lon="10.5968832"><ele>1090.0</ele><time>2026-05-02T12:53:40.799Z</time></trkpt><trkpt lat="45.9123925" lon="10.5969035"><ele>1090.0</ele><time>2026-05-02T12:53:41.799Z</time></trkpt><trkpt lat="45.9125286" lon="10.5969302"><ele>1090.0</ele><time>2026-05-02T12:53:42.799Z</time></trkpt><trkpt lat="45.9126728" lon="10.5969589"><ele>1090.75</ele><time>2026-05-02T12:53:43.799Z</time></trkpt><trkpt lat="45.9128157" lon="10.5969867"><ele>1091.5</ele><time>2026-05-02T12:53:44.799Z</time></trkpt><trkpt lat="45.9129606" lon="10.5970005"><ele>1092.25</ele><time>2026-05-02T12:53:45.799Z</time></trkpt><trkpt lat="45.9131134" lon="10.5969985"><ele>1093.0</ele><time>2026-05-02T12:53:46.799Z</time></trkpt><trkpt lat="45.9132573" lon="10.5970181"><ele>1088.75</ele><time>2026-05-02T12:53:47.799Z</time></trkpt><trkpt lat="45.9133987" lon="10.5970434"><ele>1084.5</ele><time>2026-05-02T12:53:48.799Z</time></trkpt><trkpt lat="45.9135256" lon="10.5970824"><ele>1080.25</ele><time>2026-05-02T12:53:49.799Z</time></trkpt><trkpt lat="45.9136465" lon="10.5971106"><ele>1076.0</ele><time>2026-05-02T12:53:50.799Z</time></trkpt><trkpt lat="45.9137584" lon="10.5971237"><ele>1076.0</ele><time>2026-05-02T12:53:51.799Z</time></trkpt><trkpt lat="45.9138611" lon="10.5971284"><ele>1076.0</ele><time>2026-05-02T12:53:52.799Z</time></trkpt><trkpt lat="45.9139607" lon="10.5971141"><ele>1076.0</ele><time>2026-05-02T12:53:53.799Z</time></trkpt><trkpt lat="45.9140569" lon="10.5970704"><ele>1076.0</ele><time>2026-05-02T12:53:54.799Z</time></trkpt><trkpt lat="45.9141698" lon="10.5969786"><ele>1076.0</ele><time>2026-05-02T12:53:55.799Z</time></trkpt><trkpt lat="45.9142704" lon="10.5968667"><ele>1080.8</ele><time>2026-05-02T12:53:56.799Z</time></trkpt><trkpt lat="45.9143652" lon="10.5967685"><ele>1085.6</ele><time>2026-05-02T12:53:57.799Z</time></trkpt><trkpt lat="45.9144609" lon="10.5966938"><ele>1090.4</ele><time>2026-05-02T12:53:58.799Z</time></trkpt><trkpt lat="45.914553" lon="10.5966545"><ele>1095.2</ele><time>2026-05-02T12:53:59.799Z</time></trkpt><trkpt lat="45.9146518" lon="10.5966592"><ele>1100.0</ele><time>2026-05-02T12:54:00.799Z</time></trkpt><trkpt lat="45.9147642" lon="10.5966992"><ele>1100.0</ele><time>2026-05-02T12:54:01.799Z</time></trkpt><trkpt lat="45.9148846" lon="10.5967275"><ele>1100.0</ele><time>2026-05-02T12:54:02.799Z</time></trkpt><trkpt lat="45.9150145" lon="10.5967338"><ele>1100.0</ele><time>2026-05-02T12:54:03.799Z</time></trkpt><trkpt lat="45.9151338" lon="10.596722"><ele>1100.0</ele><time>2026-05-02T12:54:04.799Z</time></trkpt><trkpt lat="45.9152305" lon="10.5966823"><ele>1098.6</ele><time>2026-05-02T12:54:05.799Z</time></trkpt><trkpt lat="45.9153101" lon="10.5966311"><ele>1097.2</ele><time>2026-05-02T12:54:06.799Z</time></trkpt><trkpt lat="45.915389" lon="10.5965769"><ele>1095.8</ele><time>2026-05-02T12:54:07.799Z</time></trkpt><trkpt lat="45.915457" lon="10.596502"><ele>1094.4</ele><time>2026-05-02T12:54:08.799Z</time></trkpt><trkpt lat="45.9155203" lon="10.5964055"><ele>1093.0</ele><time>2026-05-02T12:54:09.799Z</time></trkpt><trkpt lat="45.9155905" lon="10.5963088"><ele>1093.0</ele><time>2026-05-02T12:54:10.799Z</time></trkpt><trkpt lat="45.9156682" lon="10.5962094"><ele>1093.0</ele><time>2026-05-02T12:54:11.799Z</time></trkpt><trkpt lat="45.9157585" lon="10.596099"><ele>1093.0</ele><time>2026-05-02T12:54:12.799Z</time></trkpt><trkpt lat="45.9158555" lon="10.5959766"><ele>1093.0</ele><time>2026-05-02T12:54:13.799Z</time></trkpt><trkpt lat="45.9159477" lon="10.5958616"><ele>1096.5</ele><time>2026-05-02T12:54:14.799Z</time></trkpt><trkpt lat="45.91604" lon="10.5957518"><ele>1100.0</ele><time>2026-05-02T12:54:15.799Z</time></trkpt><trkpt lat="45.9161473" lon="10.5956352"><ele>1103.5</ele><time>2026-05-02T12:54:16.799Z</time></trkpt><trkpt lat="45.9162547" lon="10.5955172"><ele>1107.0</ele><time>2026-05-02T12:54:17.799Z</time></trkpt><trkpt lat="45.9163695" lon="10.59542"><ele>1114.75</ele><time>2026-05-02T12:54:18.799Z</time></trkpt><trkpt lat="45.9164856" lon="10.5953157"><ele>1122.5</ele><time>2026-05-02T12:54:19.799Z</time></trkpt><trkpt lat="45.9166011" lon="10.5952193"><ele>1130.25</ele><time>2026-05-02T12:54:20.799Z</time></trkpt><trkpt lat="45.9167237" lon="10.5951477"><ele>1138.0</ele><time>2026-05-02T12:54:21.799Z</time></trkpt><trkpt lat="45.9168554" lon="10.5950888"><ele>1138.0</ele><time>2026-05-02T12:54:22.799Z</time></trkpt><trkpt lat="45.9169955" lon="10.5950363"><ele>1138.0</ele><time>2026-05-02T12:54:23.799Z</time></trkpt><trkpt lat="45.9171413" lon="10.5949821"><ele>1138.0</ele><time>2026-05-02T12:54:24.799Z</time></trkpt><trkpt lat="45.9172911" lon="10.594934"><ele>1138.0</ele><time>2026-05-02T12:54:25.799Z</time></trkpt><trkpt lat="45.9174451" lon="10.5949084"><ele>1137.75</ele><time>2026-05-02T12:54:26.799Z</time></trkpt><trkpt lat="45.9175975" lon="10.5948874"><ele>1137.5</ele><time>2026-05-02T12:54:27.799Z</time></trkpt><trkpt lat="45.917743" lon="10.5948787"><ele>1137.25</ele><time>2026-05-02T12:54:28.799Z</time></trkpt><trkpt lat="45.9178875" lon="10.5948833"><ele>1137.0</ele><time>2026-05-02T12:54:29.799Z</time></trkpt><trkpt lat="45.9180269" lon="10.5948969"><ele>1137.0</ele><time>2026-05-02T12:54:30.799Z</time></trkpt><trkpt lat="45.9181588" lon="10.5949214"><ele>1137.0</ele><time>2026-05-02T12:54:31.799Z</time></trkpt><trkpt lat="45.918289" lon="10.5949618"><ele>1137.0</ele><time>2026-05-02T12:54:32.799Z</time></trkpt><trkpt lat="45.9184187" lon="10.5950096"><ele>1137.0</ele><time>2026-05-02T12:54:33.799Z</time></trkpt><trkpt lat="45.9185457" lon="10.5950596"><ele>1137.0</ele><time>2026-05-02T12:54:34.799Z</time></trkpt><trkpt lat="45.9186585" lon="10.5951065"><ele>1137.0</ele><time>2026-05-02T12:54:35.799Z</time></trkpt><trkpt lat="45.9187613" lon="10.5951488"><ele>1137.0</ele><time>2026-05-02T12:54:36.799Z</time></trkpt><trkpt lat="45.9188462" lon="10.5951794"><ele>1137.0</ele><time>2026-05-02T12:54:37.799Z</time></trkpt><trkpt lat="45.9189306" lon="10.5952009"><ele>1137.0</ele><time>2026-05-02T12:54:38.799Z</time></trkpt><trkpt lat="45.919014" lon="10.595178"><ele>1137.0</ele><time>2026-05-02T12:54:39.799Z</time></trkpt><trkpt lat="45.9191047" lon="10.5951058"><ele>1137.0</ele><time>2026-05-02T12:54:40.799Z</time></trkpt><trkpt lat="45.9192081" lon="10.595018"><ele>1137.0</ele><time>2026-05-02T12:54:41.799Z</time></trkpt><trkpt lat="45.9193204" lon="10.5949326"><ele>1137.0</ele><time>2026-05-02T12:54:42.799Z</time></trkpt><trkpt lat="45.9194248" lon="10.5948529"><ele>1139.8</ele><time>2026-05-02T12:54:43.799Z</time></trkpt><trkpt lat="45.9195165" lon="10.5947717"><ele>1142.6</ele><time>2026-05-02T12:54:44.799Z</time></trkpt><trkpt lat="45.9196005" lon="10.5946889"><ele>1145.3999999999999</ele><time>2026-05-02T12:54:45.799Z</time></trkpt><trkpt lat="45.9196712" lon="10.5945881"><ele>1148.2</ele><time>2026-05-02T12:54:46.799Z</time></trkpt><trkpt lat="45.9197199" lon="10.5944724"><ele>1151.0</ele><time>2026-05-02T12:54:47.799Z</time></trkpt><trkpt lat="45.9197437" lon="10.5943519"><ele>1151.0</ele><time>2026-05-02T12:54:48.799Z</time></trkpt><trkpt lat="45.9197567" lon="10.5942345"><ele>1151.0</ele><time>2026-05-02T12:54:49.799Z</time></trkpt><trkpt lat="45.9197679" lon="10.5941238"><ele>1151.0</ele><time>2026-05-02T12:54:50.799Z</time></trkpt><trkpt lat="45.9197961" lon="10.5940174"><ele>1151.0</ele><time>2026-05-02T12:54:51.799Z</time></trkpt><trkpt lat="45.9198372" lon="10.5939235"><ele>1151.0</ele><time>2026-05-02T12:54:52.799Z</time></trkpt><trkpt lat="45.9198933" lon="10.5938449"><ele>1151.0</ele><time>2026-05-02T12:54:53.799Z</time></trkpt><trkpt lat="45.9199495" lon="10.5937732"><ele>1151.0</ele><time>2026-05-02T12:54:54.799Z</time></trkpt><trkpt lat="45.9199848" lon="10.5936923"><ele>1151.0</ele><time>2026-05-02T12:54:55.799Z</time></trkpt><trkpt lat="45.9200097" lon="10.5936005"><ele>1151.0</ele><time>2026-05-02T12:54:56.799Z</time></trkpt><trkpt lat="45.920035" lon="10.593498"><ele>1151.0</ele><time>2026-05-02T12:54:57.799Z</time></trkpt><trkpt lat="45.9200775" lon="10.5934039"><ele>1151.0</ele><time>2026-05-02T12:54:58.799Z</time></trkpt><trkpt lat="45.920142" lon="10.59332"><ele>1151.0</ele><time>2026-05-02T12:54:59.799Z</time></trkpt><trkpt lat="45.9202296" lon="10.5932496"><ele>1151.2</ele><time>2026-05-02T12:55:00.799Z</time></trkpt><trkpt lat="45.9203183" lon="10.593167"><ele>1151.3999999999999</ele><time>2026-05-02T12:55:01.799Z</time></trkpt><trkpt lat="45.9203978" lon="10.5930712"><ele>1151.6</ele><time>2026-05-02T12:55:02.799Z</time></trkpt><trkpt lat="45.9204573" lon="10.5929547"><ele>1151.8</ele><time>2026-05-02T12:55:03.799Z</time></trkpt><trkpt lat="45.9205113" lon="10.5928398"><ele>1152.0</ele><time>2026-05-02T12:55:04.799Z</time></trkpt><trkpt lat="45.9205759" lon="10.5927429"><ele>1157.0</ele><time>2026-05-02T12:55:05.8Z</time></trkpt><trkpt lat="45.9206497" lon="10.5926773"><ele>1162.0</ele><time>2026-05-02T12:55:06.799Z</time></trkpt><trkpt lat="45.9207287" lon="10.592643"><ele>1167.0</ele><time>2026-05-02T12:55:07.799Z</time></trkpt><trkpt lat="45.9208003" lon="10.5926191"><ele>1172.0</ele><time>2026-05-02T12:55:08.799Z</time></trkpt><trkpt lat="45.9208747" lon="10.5925739"><ele>1177.0</ele><time>2026-05-02T12:55:09.799Z</time></trkpt><trkpt lat="45.9209294" lon="10.59249"><ele>1182.0</ele><time>2026-05-02T12:55:10.799Z</time></trkpt><trkpt lat="45.9209865" lon="10.5924081"><ele>1183.0</ele><time>2026-05-02T12:55:11.799Z</time></trkpt><trkpt lat="45.9210508" lon="10.592333"><ele>1184.0</ele><time>2026-05-02T12:55:12.799Z</time></trkpt><trkpt lat="45.9211337" lon="10.592299"><ele>1185.0</ele><time>2026-05-02T12:55:13.799Z</time></trkpt><trkpt lat="45.9212206" lon="10.5923035"><ele>1186.0</ele><time>2026-05-02T12:55:14.799Z</time></trkpt><trkpt lat="45.9213127" lon="10.5923222"><ele>1187.0</ele><time>2026-05-02T12:55:15.799Z</time></trkpt><trkpt lat="45.9213763" lon="10.5924199"><ele>1188.0</ele><time>2026-05-02T12:55:16.799Z</time></trkpt><trkpt lat="45.9214328" lon="10.59257"><ele>1188.0</ele><time>2026-05-02T12:55:17.799Z</time></trkpt><trkpt lat="45.9214903" lon="10.5927388"><ele>1188.0</ele><time>2026-05-02T12:55:18.799Z</time></trkpt><trkpt lat="45.9215384" lon="10.5928912"><ele>1188.0</ele><time>2026-05-02T12:55:19.799Z</time></trkpt><trkpt lat="45.9215656" lon="10.593044"><ele>1188.0</ele><time>2026-05-02T12:55:20.799Z</time></trkpt><trkpt lat="45.9215772" lon="10.5931865"><ele>1185.5</ele><time>2026-05-02T12:55:21.799Z</time></trkpt><trkpt lat="45.9215894" lon="10.5933162"><ele>1183.0</ele><time>2026-05-02T12:55:22.799Z</time></trkpt><trkpt lat="45.9216131" lon="10.5934377"><ele>1180.5</ele><time>2026-05-02T12:55:23.799Z</time></trkpt><trkpt lat="45.9216533" lon="10.5935328"><ele>1178.0</ele><time>2026-05-02T12:55:24.799Z</time></trkpt><trkpt lat="45.9217164" lon="10.5936115"><ele>1175.5</ele><time>2026-05-02T12:55:25.799Z</time></trkpt><trkpt lat="45.9217803" lon="10.5936683"><ele>1173.0</ele><time>2026-05-02T12:55:26.799Z</time></trkpt><trkpt lat="45.9218958" lon="10.5937212"><ele>1170.5</ele><time>2026-05-02T12:55:27.799Z</time></trkpt><trkpt lat="45.9220298" lon="10.5937713"><ele>1168.0</ele><time>2026-05-02T12:55:28.799Z</time></trkpt><trkpt lat="45.9221634" lon="10.5938228"><ele>1165.5</ele><time>2026-05-02T12:55:29.799Z</time></trkpt><trkpt lat="45.9222854" lon="10.5938654"><ele>1163.0</ele><time>2026-05-02T12:55:30.799Z</time></trkpt><trkpt lat="45.9224081" lon="10.5938966"><ele>1163.0</ele><time>2026-05-02T12:55:31.799Z</time></trkpt><trkpt lat="45.9225219" lon="10.593925"><ele>1163.0</ele><time>2026-05-02T12:55:32.799Z</time></trkpt><trkpt lat="45.9226318" lon="10.5939376"><ele>1163.0</ele><time>2026-05-02T12:55:33.799Z</time></trkpt><trkpt lat="45.9227444" lon="10.5939172"><ele>1163.0</ele><time>2026-05-02T12:55:34.799Z</time></trkpt><trkpt lat="45.9228531" lon="10.593851"><ele>1161.0</ele><time>2026-05-02T12:55:35.799Z</time></trkpt><trkpt lat="45.922958" lon="10.5937859"><ele>1159.0</ele><time>2026-05-02T12:55:36.799Z</time></trkpt><trkpt lat="45.9230696" lon="10.5937202"><ele>1157.0</ele><time>2026-05-02T12:55:37.799Z</time></trkpt><trkpt lat="45.9231789" lon="10.5936406"><ele>1155.0</ele><time>2026-05-02T12:55:38.799Z</time></trkpt><trkpt lat="45.9232873" lon="10.5935673"><ele>1160.2</ele><time>2026-05-02T12:55:39.799Z</time></trkpt><trkpt lat="45.9233932" lon="10.5935226"><ele>1165.4</ele><time>2026-05-02T12:55:40.799Z</time></trkpt><trkpt lat="45.9234993" lon="10.5935183"><ele>1170.6</ele><time>2026-05-02T12:55:41.799Z</time></trkpt><trkpt lat="45.923598" lon="10.593561"><ele>1175.8</ele><time>2026-05-02T12:55:42.799Z</time></trkpt><trkpt lat="45.9236981" lon="10.5935992"><ele>1181.0</ele><time>2026-05-02T12:55:43.799Z</time></trkpt><trkpt lat="45.9237991" lon="10.5936179"><ele>1181.8</ele><time>2026-05-02T12:55:44.799Z</time></trkpt><trkpt lat="45.9238904" lon="10.5935956"><ele>1182.6</ele><time>2026-05-02T12:55:45.799Z</time></trkpt><trkpt lat="45.9239869" lon="10.5935419"><ele>1183.4</ele><time>2026-05-02T12:55:46.799Z</time></trkpt><trkpt lat="45.9240756" lon="10.5934944"><ele>1184.2</ele><time>2026-05-02T12:55:47.799Z</time></trkpt><trkpt lat="45.9241635" lon="10.5934678"><ele>1185.0</ele><time>2026-05-02T12:55:48.799Z</time></trkpt><trkpt lat="45.9242487" lon="10.5934554"><ele>1186.2</ele><time>2026-05-02T12:55:49.799Z</time></trkpt><trkpt lat="45.9243333" lon="10.5934665"><ele>1187.4</ele><time>2026-05-02T12:55:50.799Z</time></trkpt><trkpt lat="45.9244104" lon="10.5935241"><ele>1188.6</ele><time>2026-05-02T12:55:51.799Z</time></trkpt><trkpt lat="45.9244805" lon="10.59361"><ele>1189.8</ele><time>2026-05-02T12:55:52.799Z</time></trkpt><trkpt lat="45.9245522" lon="10.5937277"><ele>1191.0</ele><time>2026-05-02T12:55:53.799Z</time></trkpt><trkpt lat="45.9246222" lon="10.5938745"><ele>1191.0</ele><time>2026-05-02T12:55:54.799Z</time></trkpt><trkpt lat="45.9246586" lon="10.5940607"><ele>1191.0</ele><time>2026-05-02T12:55:55.799Z</time></trkpt><trkpt lat="45.924706" lon="10.5942233"><ele>1191.0</ele><time>2026-05-02T12:55:56.799Z</time></trkpt><trkpt lat="45.9247622" lon="10.5943599"><ele>1191.0</ele><time>2026-05-02T12:55:57.799Z</time></trkpt><trkpt lat="45.9248357" lon="10.5944926"><ele>1191.5</ele><time>2026-05-02T12:55:58.799Z</time></trkpt><trkpt lat="45.9249262" lon="10.594621"><ele>1192.0</ele><time>2026-05-02T12:55:59.799Z</time></trkpt><trkpt lat="45.9250206" lon="10.5947446"><ele>1192.5</ele><time>2026-05-02T12:56:00.799Z</time></trkpt><trkpt lat="45.9251114" lon="10.5948731"><ele>1193.0</ele><time>2026-05-02T12:56:01.799Z</time></trkpt><trkpt lat="45.9252058" lon="10.5950105"><ele>1193.0</ele><time>2026-05-02T12:56:02.799Z</time></trkpt><trkpt lat="45.9253044" lon="10.595156"><ele>1193.0</ele><time>2026-05-02T12:56:03.799Z</time></trkpt><trkpt lat="45.9253944" lon="10.5952958"><ele>1193.0</ele><time>2026-05-02T12:56:04.799Z</time></trkpt><trkpt lat="45.9254836" lon="10.5954295"><ele>1193.0</ele><time>2026-05-02T12:56:05.799Z</time></trkpt><trkpt lat="45.9255752" lon="10.5955501"><ele>1190.75</ele><time>2026-05-02T12:56:06.799Z</time></trkpt><trkpt lat="45.9256743" lon="10.5956593"><ele>1188.5</ele><time>2026-05-02T12:56:07.799Z</time></trkpt><trkpt lat="45.925783" lon="10.5957452"><ele>1186.25</ele><time>2026-05-02T12:56:08.799Z</time></trkpt><trkpt lat="45.9258927" lon="10.5958214"><ele>1184.0</ele><time>2026-05-02T12:56:09.799Z</time></trkpt><trkpt lat="45.9260035" lon="10.5958864"><ele>1184.0</ele><time>2026-05-02T12:56:10.799Z</time></trkpt><trkpt lat="45.926114" lon="10.5959469"><ele>1184.0</ele><time>2026-05-02T12:56:11.799Z</time></trkpt><trkpt lat="45.9262315" lon="10.5960175"><ele>1184.0</ele><time>2026-05-02T12:56:12.799Z</time></trkpt><trkpt lat="45.9263469" lon="10.5960932"><ele>1184.0</ele><time>2026-05-02T12:56:13.799Z</time></trkpt><trkpt lat="45.9264579" lon="10.5961744"><ele>1180.0</ele><time>2026-05-02T12:56:14.799Z</time></trkpt><trkpt lat="45.9265628" lon="10.5962669"><ele>1176.0</ele><time>2026-05-02T12:56:15.799Z</time></trkpt><trkpt lat="45.9266649" lon="10.5963696"><ele>1172.0</ele><time>2026-05-02T12:56:16.799Z</time></trkpt><trkpt lat="45.9267725" lon="10.5964786"><ele>1168.0</ele><time>2026-05-02T12:56:17.799Z</time></trkpt><trkpt lat="45.9268806" lon="10.5966018"><ele>1168.0</ele><time>2026-05-02T12:56:18.799Z</time></trkpt><trkpt lat="45.9269858" lon="10.5967524"><ele>1168.0</ele><time>2026-05-02T12:56:19.799Z</time></trkpt><trkpt lat="45.9270838" lon="10.596897"><ele>1168.0</ele><time>2026-05-02T12:56:20.799Z</time></trkpt><trkpt lat="45.92718" lon="10.5970487"><ele>1168.0</ele><time>2026-05-02T12:56:21.799Z</time></trkpt><trkpt lat="45.927275" lon="10.5971849"><ele>1169.5</ele><time>2026-05-02T12:56:22.799Z</time></trkpt><trkpt lat="45.9273636" lon="10.5973362"><ele>1171.0</ele><time>2026-05-02T12:56:23.799Z</time></trkpt><trkpt lat="45.927453" lon="10.5974842"><ele>1172.5</ele><time>2026-05-02T12:56:24.799Z</time></trkpt><trkpt lat="45.9275395" lon="10.5976276"><ele>1174.0</ele><time>2026-05-02T12:56:25.799Z</time></trkpt><trkpt lat="45.9276335" lon="10.597772"><ele>1171.0</ele><time>2026-05-02T12:56:26.799Z</time></trkpt><trkpt lat="45.9277346" lon="10.5979171"><ele>1168.0</ele><time>2026-05-02T12:56:27.799Z</time></trkpt><trkpt lat="45.927838" lon="10.5980624"><ele>1165.0</ele><time>2026-05-02T12:56:28.799Z</time></trkpt><trkpt lat="45.927942" lon="10.5982159"><ele>1162.0</ele><time>2026-05-02T12:56:29.799Z</time></trkpt><trkpt lat="45.9280484" lon="10.5983598"><ele>1162.0</ele><time>2026-05-02T12:56:30.799Z</time></trkpt><trkpt lat="45.9281512" lon="10.5985116"><ele>1162.0</ele><time>2026-05-02T12:56:31.799Z</time></trkpt><trkpt lat="45.9282439" lon="10.5986751"><ele>1162.0</ele><time>2026-05-02T12:56:32.799Z</time></trkpt><trkpt lat="45.9283267" lon="10.5988537"><ele>1162.0</ele><time>2026-05-02T12:56:33.799Z</time></trkpt><trkpt lat="45.9283994" lon="10.5990396"><ele>1161.5</ele><time>2026-05-02T12:56:34.799Z</time></trkpt><trkpt lat="45.9284664" lon="10.5992263"><ele>1161.0</ele><time>2026-05-02T12:56:35.799Z</time></trkpt><trkpt lat="45.9285347" lon="10.5993996"><ele>1160.5</ele><time>2026-05-02T12:56:36.799Z</time></trkpt><trkpt lat="45.9286047" lon="10.5995575"><ele>1160.0</ele><time>2026-05-02T12:56:37.799Z</time></trkpt><trkpt lat="45.9286771" lon="10.5996867"><ele>1160.0</ele><time>2026-05-02T12:56:38.799Z</time></trkpt><trkpt lat="45.9287586" lon="10.5997692"><ele>1160.0</ele><time>2026-05-02T12:56:39.799Z</time></trkpt><trkpt lat="45.9288504" lon="10.5998434"><ele>1160.0</ele><time>2026-05-02T12:56:40.799Z</time></trkpt><trkpt lat="45.9289425" lon="10.5999181"><ele>1160.0</ele><time>2026-05-02T12:56:41.799Z</time></trkpt><trkpt lat="45.929032" lon="10.599998"><ele>1160.0</ele><time>2026-05-02T12:56:42.799Z</time></trkpt><trkpt lat="45.9291224" lon="10.6000476"><ele>1160.0</ele><time>2026-05-02T12:56:43.799Z</time></trkpt><trkpt lat="45.9292137" lon="10.6000765"><ele>1160.0</ele><time>2026-05-02T12:56:44.799Z</time></trkpt><trkpt lat="45.9293163" lon="10.6000888"><ele>1160.0</ele><time>2026-05-02T12:56:45.799Z</time></trkpt><trkpt lat="45.9294254" lon="10.6001021"><ele>1160.0</ele><time>2026-05-02T12:56:46.799Z</time></trkpt><trkpt lat="45.9295379" lon="10.6001267"><ele>1160.0</ele><time>2026-05-02T12:56:47.799Z</time></trkpt><trkpt lat="45.9296533" lon="10.6001448"><ele>1161.5</ele><time>2026-05-02T12:56:48.799Z</time></trkpt><trkpt lat="45.929774" lon="10.6001657"><ele>1163.0</ele><time>2026-05-02T12:56:49.799Z</time></trkpt><trkpt lat="45.9298859" lon="10.6002108"><ele>1164.5</ele><time>2026-05-02T12:56:50.799Z</time></trkpt><trkpt lat="45.9299973" lon="10.6002616"><ele>1166.0</ele><time>2026-05-02T12:56:51.799Z</time></trkpt><trkpt lat="45.9301093" lon="10.6003115"><ele>1164.2</ele><time>2026-05-02T12:56:52.799Z</time></trkpt><trkpt lat="45.9302089" lon="10.6003736"><ele>1162.3999999999999</ele><time>2026-05-02T12:56:53.799Z</time></trkpt><trkpt lat="45.930303" lon="10.6004402"><ele>1160.6</ele><time>2026-05-02T12:56:54.799Z</time></trkpt><trkpt lat="45.9304077" lon="10.6004943"><ele>1158.8</ele><time>2026-05-02T12:56:55.799Z</time></trkpt><trkpt lat="45.9305136" lon="10.6005378"><ele>1157.0</ele><time>2026-05-02T12:56:56.799Z</time></trkpt><trkpt lat="45.9306196" lon="10.6005624"><ele>1157.0</ele><time>2026-05-02T12:56:57.799Z</time></trkpt><trkpt lat="45.9307327" lon="10.6005839"><ele>1157.0</ele><time>2026-05-02T12:56:58.799Z</time></trkpt><trkpt lat="45.9308542" lon="10.6006091"><ele>1157.0</ele><time>2026-05-02T12:56:59.799Z</time></trkpt><trkpt lat="45.9309731" lon="10.6006336"><ele>1157.0</ele><time>2026-05-02T12:57:00.799Z</time></trkpt><trkpt lat="45.9311056" lon="10.6006738"><ele>1158.5</ele><time>2026-05-02T12:57:01.799Z</time></trkpt><trkpt lat="45.9312371" lon="10.6007144"><ele>1160.0</ele><time>2026-05-02T12:57:02.799Z</time></trkpt><trkpt lat="45.9313729" lon="10.6007558"><ele>1161.5</ele><time>2026-05-02T12:57:03.799Z</time></trkpt><trkpt lat="45.9315057" lon="10.6008013"><ele>1163.0</ele><time>2026-05-02T12:57:04.799Z</time></trkpt><trkpt lat="45.9316362" lon="10.6008511"><ele>1164.5</ele><time>2026-05-02T12:57:05.799Z</time></trkpt><trkpt lat="45.9317623" lon="10.6009032"><ele>1166.0</ele><time>2026-05-02T12:57:06.799Z</time></trkpt><trkpt lat="45.931876" lon="10.6009669"><ele>1167.5</ele><time>2026-05-02T12:57:07.799Z</time></trkpt><trkpt lat="45.9319836" lon="10.6010246"><ele>1169.0</ele><time>2026-05-02T12:57:08.799Z</time></trkpt><trkpt lat="45.9320804" lon="10.6010734"><ele>1169.0</ele><time>2026-05-02T12:57:09.799Z</time></trkpt><trkpt lat="45.932177" lon="10.6011133"><ele>1169.0</ele><time>2026-05-02T12:57:10.799Z</time></trkpt><trkpt lat="45.9322826" lon="10.6011138"><ele>1169.0</ele><time>2026-05-02T12:57:11.799Z</time></trkpt><trkpt lat="45.9323853" lon="10.6010863"><ele>1169.0</ele><time>2026-05-02T12:57:12.799Z</time></trkpt><trkpt lat="45.9324914" lon="10.6010407"><ele>1169.0</ele><time>2026-05-02T12:57:13.799Z</time></trkpt><trkpt lat="45.9325999" lon="10.6010028"><ele>1170.0</ele><time>2026-05-02T12:57:14.799Z</time></trkpt><trkpt lat="45.9327138" lon="10.6009871"><ele>1171.0</ele><time>2026-05-02T12:57:15.799Z</time></trkpt><trkpt lat="45.9328275" lon="10.6009966"><ele>1172.0</ele><time>2026-05-02T12:57:16.799Z</time></trkpt><trkpt lat="45.9329385" lon="10.601009"><ele>1173.0</ele><time>2026-05-02T12:57:17.799Z</time></trkpt><trkpt lat="45.9330461" lon="10.6010233"><ele>1174.0</ele><time>2026-05-02T12:57:18.799Z</time></trkpt><trkpt lat="45.9331447" lon="10.6010369"><ele>1174.0</ele><time>2026-05-02T12:57:19.799Z</time></trkpt><trkpt lat="45.9332333" lon="10.6010625"><ele>1174.0</ele><time>2026-05-02T12:57:20.799Z</time></trkpt><trkpt lat="45.9333268" lon="10.601094"><ele>1174.0</ele><time>2026-05-02T12:57:21.799Z</time></trkpt><trkpt lat="45.9334208" lon="10.6011187"><ele>1174.0</ele><time>2026-05-02T12:57:22.799Z</time></trkpt><trkpt lat="45.933518" lon="10.6011472"><ele>1174.0</ele><time>2026-05-02T12:57:23.799Z</time></trkpt><trkpt lat="45.9336151" lon="10.6011847"><ele>1171.6000000000001</ele><time>2026-05-02T12:57:24.799Z</time></trkpt><trkpt lat="45.9337184" lon="10.6012341"><ele>1169.2</ele><time>2026-05-02T12:57:25.799Z</time></trkpt><trkpt lat="45.9338219" lon="10.6012888"><ele>1166.8000000000002</ele><time>2026-05-02T12:57:26.799Z</time></trkpt><trkpt lat="45.9339228" lon="10.6013389"><ele>1164.4</ele><time>2026-05-02T12:57:27.799Z</time></trkpt><trkpt lat="45.9340232" lon="10.6013834"><ele>1162.0</ele><time>2026-05-02T12:57:28.799Z</time></trkpt><trkpt lat="45.9341269" lon="10.6014175"><ele>1163.0</ele><time>2026-05-02T12:57:29.799Z</time></trkpt><trkpt lat="45.9342304" lon="10.6014539"><ele>1164.0</ele><time>2026-05-02T12:57:30.799Z</time></trkpt><trkpt lat="45.9343349" lon="10.6014871"><ele>1165.0</ele><time>2026-05-02T12:57:31.799Z</time></trkpt><trkpt lat="45.9344325" lon="10.6015104"><ele>1166.0</ele><time>2026-05-02T12:57:32.799Z</time></trkpt><trkpt lat="45.934529" lon="10.6015221"><ele>1167.0</ele><time>2026-05-02T12:57:33.799Z</time></trkpt><trkpt lat="45.9346215" lon="10.6015262"><ele>1167.0</ele><time>2026-05-02T12:57:34.799Z</time></trkpt><trkpt lat="45.9347125" lon="10.6015316"><ele>1167.0</ele><time>2026-05-02T12:57:35.799Z</time></trkpt><trkpt lat="45.9347981" lon="10.6015302"><ele>1167.0</ele><time>2026-05-02T12:57:36.799Z</time></trkpt><trkpt lat="45.9348834" lon="10.6015383"><ele>1167.0</ele><time>2026-05-02T12:57:37.799Z</time></trkpt><trkpt lat="45.9349527" lon="10.6015415"><ele>1167.0</ele><time>2026-05-02T12:57:38.799Z</time></trkpt><trkpt lat="45.9350659" lon="10.6015544"><ele>1167.0</ele><time>2026-05-02T12:57:40.799Z</time></trkpt><trkpt lat="45.9351653" lon="10.601578"><ele>1166.8333333333333</ele><time>2026-05-02T12:57:42.799Z</time></trkpt><trkpt lat="45.9352313" lon="10.6016216"><ele>1166.6666666666667</ele><time>2026-05-02T12:57:44.799Z</time></trkpt><trkpt lat="45.9353062" lon="10.6016387"><ele>1166.5</ele><time>2026-05-02T12:59:13.799Z</time></trkpt><trkpt lat="45.9353814" lon="10.601612"><ele>1166.3333333333335</ele><time>2026-05-02T12:59:15.799Z</time></trkpt><trkpt lat="45.9354817" lon="10.6016074"><ele>1166.1666666666667</ele><time>2026-05-02T12:59:17.799Z</time></trkpt><trkpt lat="45.9355632" lon="10.6016063"><ele>1166.0</ele><time>2026-05-02T12:59:19.799Z</time></trkpt><trkpt lat="45.9356407" lon="10.6015502"><ele>1166.0</ele><time>2026-05-02T12:59:22.799Z</time></trkpt><trkpt lat="45.935652" lon="10.601443"><ele>1166.0</ele><time>2026-05-02T12:59:24.799Z</time></trkpt><trkpt lat="45.9356482" lon="10.6013016"><ele>1166.0</ele><time>2026-05-02T12:59:26.799Z</time></trkpt><trkpt lat="45.935636" lon="10.6011214"><ele>1166.0</ele><time>2026-05-02T12:59:28.799Z</time></trkpt><trkpt lat="45.9356387" lon="10.6010061"><ele>1166.0</ele><time>2026-05-02T12:59:29.799Z</time></trkpt><trkpt lat="45.9356406" lon="10.6008826"><ele>1167.5</ele><time>2026-05-02T12:59:30.799Z</time></trkpt><trkpt lat="45.9356395" lon="10.6005991"><ele>1169.0</ele><time>2026-05-02T12:59:32.799Z</time></trkpt><trkpt lat="45.935637" lon="10.6004565"><ele>1170.5</ele><time>2026-05-02T12:59:33.799Z</time></trkpt><trkpt lat="45.9356342" lon="10.600321"><ele>1172.0</ele><time>2026-05-02T12:59:34.799Z</time></trkpt><trkpt lat="45.9356323" lon="10.6001927"><ele>1173.6666666666667</ele><time>2026-05-02T12:59:35.799Z</time></trkpt><trkpt lat="45.9356305" lon="10.6000691"><ele>1175.3333333333335</ele><time>2026-05-02T12:59:36.799Z</time></trkpt><trkpt lat="45.9356271" lon="10.5999467"><ele>1177.0</ele><time>2026-05-02T12:59:37.799Z</time></trkpt><trkpt lat="45.9356231" lon="10.5998319"><ele>1178.6666666666667</ele><time>2026-05-02T12:59:38.799Z</time></trkpt><trkpt lat="45.9356151" lon="10.599728"><ele>1180.3333333333333</ele><time>2026-05-02T12:59:39.799Z</time></trkpt><trkpt lat="45.9356036" lon="10.5996297"><ele>1182.0</ele><time>2026-05-02T12:59:40.799Z</time></trkpt><trkpt lat="45.9355966" lon="10.5995363"><ele>1182.0</ele><time>2026-05-02T12:59:41.799Z</time></trkpt><trkpt lat="45.9355806" lon="10.5993993"><ele>1182.0</ele><time>2026-05-02T12:59:43.799Z</time></trkpt><trkpt lat="45.9355527" lon="10.5993173"><ele>1182.0</ele><time>2026-05-02T12:59:45.799Z</time></trkpt><trkpt lat="45.9354864" lon="10.5993594"><ele>1182.0</ele><time>2026-05-02T12:59:48.799Z</time></trkpt><trkpt lat="45.9355226" lon="10.5994541"><ele>1182.0</ele><time>2026-05-02T12:59:51.799Z</time></trkpt><trkpt lat="45.9355612" lon="10.5995367"><ele>1182.0</ele><time>2026-05-02T12:59:53.798Z</time></trkpt><trkpt lat="45.935595" lon="10.5996333"><ele>1182.0</ele><time>2026-05-02T12:59:55.798Z</time></trkpt><trkpt lat="45.9356111" lon="10.5997503"><ele>1182.0</ele><time>2026-05-02T12:59:57.798Z</time></trkpt><trkpt lat="45.9356257" lon="10.5998884"><ele>1182.0</ele><time>2026-05-02T12:59:59.798Z</time></trkpt><trkpt lat="45.935636" lon="10.6000327"><ele>1182.0</ele><time>2026-05-02T13:00:01.798Z</time></trkpt><trkpt lat="45.9356396" lon="10.6002037"><ele>1182.0</ele><time>2026-05-02T13:00:03.798Z</time></trkpt><trkpt lat="45.9356447" lon="10.6003008"><ele>1180.3333333333333</ele><time>2026-05-02T13:00:04.798Z</time></trkpt><trkpt lat="45.9356505" lon="10.6004112"><ele>1178.6666666666667</ele><time>2026-05-02T13:00:05.798Z</time></trkpt><trkpt lat="45.9356542" lon="10.6005309"><ele>1177.0</ele><time>2026-05-02T13:00:06.798Z</time></trkpt><trkpt lat="45.9356562" lon="10.6006613"><ele>1175.3333333333335</ele><time>2026-05-02T13:00:07.798Z</time></trkpt><trkpt lat="45.9356544" lon="10.6007969"><ele>1173.6666666666667</ele><time>2026-05-02T13:00:08.798Z</time></trkpt><trkpt lat="45.9356538" lon="10.6009288"><ele>1172.0</ele><time>2026-05-02T13:00:09.798Z</time></trkpt><trkpt lat="45.9356526" lon="10.6010587"><ele>1171.0</ele><time>2026-05-02T13:00:10.798Z</time></trkpt><trkpt lat="45.9356509" lon="10.6011872"><ele>1170.0</ele><time>2026-05-02T13:00:11.798Z</time></trkpt><trkpt lat="45.9356461" lon="10.601304"><ele>1169.0</ele><time>2026-05-02T13:00:12.798Z</time></trkpt><trkpt lat="45.9356517" lon="10.6014221"><ele>1168.0</ele><time>2026-05-02T13:00:13.798Z</time></trkpt><trkpt lat="45.9356613" lon="10.6015444"><ele>1167.0</ele><time>2026-05-02T13:00:14.798Z</time></trkpt><trkpt lat="45.9356794" lon="10.6016773"><ele>1166.0</ele><time>2026-05-02T13:00:15.798Z</time></trkpt><trkpt lat="45.9357006" lon="10.601814"><ele>1166.0</ele><time>2026-05-02T13:00:16.798Z</time></trkpt><trkpt lat="45.9357401" lon="10.6019527"><ele>1166.0</ele><time>2026-05-02T13:00:17.798Z</time></trkpt><trkpt lat="45.9357873" lon="10.6020875"><ele>1166.0</ele><time>2026-05-02T13:00:18.798Z</time></trkpt><trkpt lat="45.9358777" lon="10.602339"><ele>1166.0</ele><time>2026-05-02T13:00:20.798Z</time></trkpt><trkpt lat="45.9359277" lon="10.6024629"><ele>1164.8</ele><time>2026-05-02T13:00:21.798Z</time></trkpt><trkpt lat="45.9359732" lon="10.602582"><ele>1163.6</ele><time>2026-05-02T13:00:22.798Z</time></trkpt><trkpt lat="45.9360109" lon="10.6027016"><ele>1162.4</ele><time>2026-05-02T13:00:23.798Z</time></trkpt><trkpt lat="45.9360487" lon="10.6028244"><ele>1161.2</ele><time>2026-05-02T13:00:24.798Z</time></trkpt><trkpt lat="45.9360865" lon="10.602946"><ele>1160.0</ele><time>2026-05-02T13:00:25.798Z</time></trkpt><trkpt lat="45.9361215" lon="10.6030755"><ele>1159.8</ele><time>2026-05-02T13:00:26.798Z</time></trkpt><trkpt lat="45.9361549" lon="10.6032067"><ele>1159.6</ele><time>2026-05-02T13:00:27.798Z</time></trkpt><trkpt lat="45.9361939" lon="10.6033354"><ele>1159.4</ele><time>2026-05-02T13:00:28.798Z</time></trkpt><trkpt lat="45.9362298" lon="10.603457"><ele>1159.2</ele><time>2026-05-02T13:00:29.798Z</time></trkpt><trkpt lat="45.9362618" lon="10.6035713"><ele>1159.0</ele><time>2026-05-02T13:00:30.798Z</time></trkpt><trkpt lat="45.9362899" lon="10.6036797"><ele>1158.1666666666665</ele><time>2026-05-02T13:00:31.798Z</time></trkpt><trkpt lat="45.9363103" lon="10.6037803"><ele>1157.3333333333333</ele><time>2026-05-02T13:00:32.798Z</time></trkpt><trkpt lat="45.9363286" lon="10.6038748"><ele>1156.5</ele><time>2026-05-02T13:00:33.798Z</time></trkpt><trkpt lat="45.9363488" lon="10.6039644"><ele>1155.6666666666667</ele><time>2026-05-02T13:00:34.798Z</time></trkpt><trkpt lat="45.936387" lon="10.6041111"><ele>1154.8333333333335</ele><time>2026-05-02T13:00:36.798Z</time></trkpt><trkpt lat="45.9364489" lon="10.6041882"><ele>1154.0</ele><time>2026-05-02T13:00:38.798Z</time></trkpt><trkpt lat="45.9365159" lon="10.6041188"><ele>1154.0</ele><time>2026-05-02T13:00:40.798Z</time></trkpt><trkpt lat="45.9365799" lon="10.6039994"><ele>1154.0</ele><time>2026-05-02T13:00:42.798Z</time></trkpt><trkpt lat="45.9366383" lon="10.6038896"><ele>1154.0</ele><time>2026-05-02T13:00:44.798Z</time></trkpt><trkpt lat="45.9366994" lon="10.6037618"><ele>1154.0</ele><time>2026-05-02T13:00:46.798Z</time></trkpt><trkpt lat="45.9367694" lon="10.6036006"><ele>1154.0</ele><time>2026-05-02T13:00:48.798Z</time></trkpt><trkpt lat="45.9368498" lon="10.6034091"><ele>1153.0</ele><time>2026-05-02T13:00:50.798Z</time></trkpt><trkpt lat="45.936888" lon="10.6033233"><ele>1152.0</ele><time>2026-05-02T13:00:51.798Z</time></trkpt><trkpt lat="45.9369266" lon="10.6032421"><ele>1151.0</ele><time>2026-05-02T13:00:52.798Z</time></trkpt><trkpt lat="45.9369635" lon="10.6031574"><ele>1150.0</ele><time>2026-05-02T13:00:53.798Z</time></trkpt><trkpt lat="45.9369975" lon="10.6030537"><ele>1149.0</ele><time>2026-05-02T13:00:54.798Z</time></trkpt><trkpt lat="45.9370336" lon="10.602945"><ele>1148.0</ele><time>2026-05-02T13:00:55.798Z</time></trkpt><trkpt lat="45.9371169" lon="10.6027204"><ele>1148.0</ele><time>2026-05-02T13:00:57.798Z</time></trkpt><trkpt lat="45.9371626" lon="10.6026156"><ele>1148.0</ele><time>2026-05-02T13:00:58.798Z</time></trkpt><trkpt lat="45.937212" lon="10.6025162"><ele>1148.0</ele><time>2026-05-02T13:00:59.798Z</time></trkpt><trkpt lat="45.9373171" lon="10.6023397"><ele>1148.0</ele><time>2026-05-02T13:01:01.798Z</time></trkpt><trkpt lat="45.9373725" lon="10.6022584"><ele>1148.0</ele><time>2026-05-02T13:01:02.798Z</time></trkpt><trkpt lat="45.9374207" lon="10.6021706"><ele>1148.0</ele><time>2026-05-02T13:01:03.798Z</time></trkpt><trkpt lat="45.9374566" lon="10.6020663"><ele>1148.0</ele><time>2026-05-02T13:01:04.798Z</time></trkpt><trkpt lat="45.9374813" lon="10.6019515"><ele>1148.0</ele><time>2026-05-02T13:01:05.798Z</time></trkpt><trkpt lat="45.937494" lon="10.601823"><ele>1148.0</ele><time>2026-05-02T13:01:06.798Z</time></trkpt><trkpt lat="45.9375045" lon="10.6016815"><ele>1148.0</ele><time>2026-05-02T13:01:07.798Z</time></trkpt><trkpt lat="45.9375334" lon="10.6013931"><ele>1150.5</ele><time>2026-05-02T13:01:09.798Z</time></trkpt><trkpt lat="45.9375485" lon="10.601253"><ele>1153.0</ele><time>2026-05-02T13:01:10.798Z</time></trkpt><trkpt lat="45.9375933" lon="10.6009631"><ele>1155.5</ele><time>2026-05-02T13:01:12.798Z</time></trkpt><trkpt lat="45.9376177" lon="10.6008242"><ele>1158.0</ele><time>2026-05-02T13:01:13.798Z</time></trkpt><trkpt lat="45.9376443" lon="10.6006986"><ele>1158.4</ele><time>2026-05-02T13:01:14.798Z</time></trkpt><trkpt lat="45.9376791" lon="10.6005784"><ele>1158.8</ele><time>2026-05-02T13:01:15.798Z</time></trkpt><trkpt lat="45.9377215" lon="10.6004735"><ele>1159.2</ele><time>2026-05-02T13:01:16.798Z</time></trkpt><trkpt lat="45.9377714" lon="10.6003918"><ele>1159.6</ele><time>2026-05-02T13:01:17.798Z</time></trkpt><trkpt lat="45.9378283" lon="10.60033"><ele>1160.0</ele><time>2026-05-02T13:01:18.798Z</time></trkpt><trkpt lat="45.9379887" lon="10.6002782"><ele>1160.6666666666667</ele><time>2026-05-02T13:01:20.798Z</time></trkpt><trkpt lat="45.9380723" lon="10.6002692"><ele>1161.3333333333335</ele><time>2026-05-02T13:01:21.798Z</time></trkpt><trkpt lat="45.9381566" lon="10.6002673"><ele>1162.0</ele><time>2026-05-02T13:01:22.798Z</time></trkpt><trkpt lat="45.9382366" lon="10.6002658"><ele>1162.6666666666667</ele><time>2026-05-02T13:01:23.798Z</time></trkpt><trkpt lat="45.9383113" lon="10.6002613"><ele>1163.3333333333333</ele><time>2026-05-02T13:01:24.798Z</time></trkpt><trkpt lat="45.938375" lon="10.6002476"><ele>1164.0</ele><time>2026-05-02T13:01:25.798Z</time></trkpt><trkpt lat="45.9384686" lon="10.6002131"><ele>1164.8333333333333</ele><time>2026-05-02T13:01:27.798Z</time></trkpt><trkpt lat="45.9385457" lon="10.6001859"><ele>1165.6666666666667</ele><time>2026-05-02T13:01:31.798Z</time></trkpt><trkpt lat="45.938627" lon="10.6001701"><ele>1166.5</ele><time>2026-05-02T13:01:40.798Z</time></trkpt><trkpt lat="45.93869" lon="10.600144"><ele>1167.3333333333335</ele><time>2026-05-02T13:01:41.798Z</time></trkpt><trkpt lat="45.9387613" lon="10.600121"><ele>1168.1666666666667</ele><time>2026-05-02T13:01:42.798Z</time></trkpt><trkpt lat="45.9388432" lon="10.6001096"><ele>1169.0</ele><time>2026-05-02T13:01:43.798Z</time></trkpt><trkpt lat="45.9389357" lon="10.6001106"><ele>1169.0</ele><time>2026-05-02T13:01:44.798Z</time></trkpt><trkpt lat="45.9391238" lon="10.6001713"><ele>1169.0</ele><time>2026-05-02T13:01:46.798Z</time></trkpt><trkpt lat="45.9392272" lon="10.6002307"><ele>1169.0</ele><time>2026-05-02T13:01:47.798Z</time></trkpt><trkpt lat="45.939412" lon="10.6004075"><ele>1167.6000000000001</ele><time>2026-05-02T13:01:49.798Z</time></trkpt><trkpt lat="45.9394953" lon="10.6005042"><ele>1166.2</ele><time>2026-05-02T13:01:50.798Z</time></trkpt><trkpt lat="45.9395739" lon="10.600594"><ele>1164.8000000000002</ele><time>2026-05-02T13:01:51.798Z</time></trkpt><trkpt lat="45.9396475" lon="10.6006772"><ele>1163.4</ele><time>2026-05-02T13:01:52.798Z</time></trkpt><trkpt lat="45.9397175" lon="10.6007494"><ele>1162.0</ele><time>2026-05-02T13:01:53.798Z</time></trkpt><trkpt lat="45.9397822" lon="10.6008157"><ele>1162.0</ele><time>2026-05-02T13:01:54.798Z</time></trkpt><trkpt lat="45.9398427" lon="10.6008719"><ele>1162.0</ele><time>2026-05-02T13:01:55.798Z</time></trkpt><trkpt lat="45.9399184" lon="10.600987"><ele>1162.0</ele><time>2026-05-02T13:01:57.798Z</time></trkpt><trkpt lat="45.9398152" lon="10.6010899"><ele>1162.0</ele><time>2026-05-02T13:02:00.798Z</time></trkpt><trkpt lat="45.9397186" lon="10.6010917"><ele>1162.0</ele><time>2026-05-02T13:02:01.798Z</time></trkpt><trkpt lat="45.9396014" lon="10.6011003"><ele>1162.0</ele><time>2026-05-02T13:02:02.798Z</time></trkpt><trkpt lat="45.939482" lon="10.6011148"><ele>1162.0</ele><time>2026-05-02T13:02:03.798Z</time></trkpt><trkpt lat="45.9393706" lon="10.6011364"><ele>1162.0</ele><time>2026-05-02T13:02:04.798Z</time></trkpt><trkpt lat="45.939266" lon="10.6011774"><ele>1162.0</ele><time>2026-05-02T13:02:05.798Z</time></trkpt><trkpt lat="45.9391751" lon="10.6012223"><ele>1162.0</ele><time>2026-05-02T13:02:06.798Z</time></trkpt><trkpt lat="45.9390771" lon="10.6012978"><ele>1156.2</ele><time>2026-05-02T13:02:07.799Z</time></trkpt><trkpt lat="45.9389746" lon="10.601365"><ele>1150.4</ele><time>2026-05-02T13:02:08.798Z</time></trkpt><trkpt lat="45.9388682" lon="10.601421"><ele>1144.6</ele><time>2026-05-02T13:02:09.798Z</time></trkpt><trkpt lat="45.938762" lon="10.6014684"><ele>1138.8</ele><time>2026-05-02T13:02:10.798Z</time></trkpt><trkpt lat="45.9386589" lon="10.6015204"><ele>1133.0</ele><time>2026-05-02T13:02:11.798Z</time></trkpt><trkpt lat="45.9385569" lon="10.6015818"><ele>1133.0</ele><time>2026-05-02T13:02:12.798Z</time></trkpt><trkpt lat="45.9384547" lon="10.6016671"><ele>1133.0</ele><time>2026-05-02T13:02:13.798Z</time></trkpt><trkpt lat="45.9383634" lon="10.601773"><ele>1133.0</ele><time>2026-05-02T13:02:14.798Z</time></trkpt><trkpt lat="45.9382876" lon="10.6018939"><ele>1133.0</ele><time>2026-05-02T13:02:15.798Z</time></trkpt><trkpt lat="45.9382224" lon="10.6020229"><ele>1132.4</ele><time>2026-05-02T13:02:16.798Z</time></trkpt><trkpt lat="45.9381643" lon="10.6021515"><ele>1131.8</ele><time>2026-05-02T13:02:17.798Z</time></trkpt><trkpt lat="45.938119" lon="10.6022769"><ele>1131.2</ele><time>2026-05-02T13:02:18.798Z</time></trkpt><trkpt lat="45.9380848" lon="10.6024005"><ele>1130.6</ele><time>2026-05-02T13:02:19.798Z</time></trkpt><trkpt lat="45.9380674" lon="10.6025334"><ele>1130.0</ele><time>2026-05-02T13:02:20.798Z</time></trkpt><trkpt lat="45.9380562" lon="10.6026634"><ele>1130.0</ele><time>2026-05-02T13:02:21.798Z</time></trkpt><trkpt lat="45.9380529" lon="10.6027854"><ele>1130.0</ele><time>2026-05-02T13:02:22.798Z</time></trkpt><trkpt lat="45.9380117" lon="10.6030114"><ele>1130.0</ele><time>2026-05-02T13:02:24.798Z</time></trkpt><trkpt lat="45.9379645" lon="10.6030963"><ele>1130.0</ele><time>2026-05-02T13:02:25.798Z</time></trkpt><trkpt lat="45.9379066" lon="10.6031611"><ele>1130.0</ele><time>2026-05-02T13:02:26.798Z</time></trkpt><trkpt lat="45.9378487" lon="10.6032775"><ele>1127.25</ele><time>2026-05-02T13:02:28.798Z</time></trkpt><trkpt lat="45.9379555" lon="10.6032394"><ele>1124.5</ele><time>2026-05-02T13:02:31.798Z</time></trkpt><trkpt lat="45.9380553" lon="10.6031482"><ele>1121.75</ele><time>2026-05-02T13:02:32.798Z</time></trkpt><trkpt lat="45.9381685" lon="10.6030462"><ele>1119.0</ele><time>2026-05-02T13:02:33.798Z</time></trkpt><trkpt lat="45.9382721" lon="10.6029724"><ele>1119.0</ele><time>2026-05-02T13:02:34.798Z</time></trkpt><trkpt lat="45.9383882" lon="10.602922"><ele>1119.0</ele><time>2026-05-02T13:02:35.798Z</time></trkpt><trkpt lat="45.9384957" lon="10.6028834"><ele>1119.0</ele><time>2026-05-02T13:02:36.798Z</time></trkpt><trkpt lat="45.9386102" lon="10.6028478"><ele>1119.0</ele><time>2026-05-02T13:02:37.798Z</time></trkpt><trkpt lat="45.9388493" lon="10.6027868"><ele>1119.0</ele><time>2026-05-02T13:02:39.798Z</time></trkpt><trkpt lat="45.9389682" lon="10.6027672"><ele>1119.0</ele><time>2026-05-02T13:02:40.798Z</time></trkpt><trkpt lat="45.9390835" lon="10.6027477"><ele>1119.0</ele><time>2026-05-02T13:02:41.798Z</time></trkpt><trkpt lat="45.9391954" lon="10.6027189"><ele>1119.0</ele><time>2026-05-02T13:02:42.798Z</time></trkpt><trkpt lat="45.9393048" lon="10.6026898"><ele>1118.8</ele><time>2026-05-02T13:02:43.798Z</time></trkpt><trkpt lat="45.9394092" lon="10.6026533"><ele>1118.6000000000001</ele><time>2026-05-02T13:02:44.798Z</time></trkpt><trkpt lat="45.9395032" lon="10.6026253"><ele>1118.4</ele><time>2026-05-02T13:02:45.798Z</time></trkpt><trkpt lat="45.939601" lon="10.6026271"><ele>1118.2</ele><time>2026-05-02T13:02:46.798Z</time></trkpt><trkpt lat="45.9397015" lon="10.6026514"><ele>1118.0</ele><time>2026-05-02T13:02:47.798Z</time></trkpt><trkpt lat="45.939897" lon="10.6027247"><ele>1118.0</ele><time>2026-05-02T13:02:49.798Z</time></trkpt><trkpt lat="45.9399844" lon="10.6027478"><ele>1118.0</ele><time>2026-05-02T13:02:50.798Z</time></trkpt><trkpt lat="45.9400656" lon="10.6027565"><ele>1118.0</ele><time>2026-05-02T13:02:51.798Z</time></trkpt><trkpt lat="45.9401391" lon="10.6027395"><ele>1118.0</ele><time>2026-05-02T13:02:52.798Z</time></trkpt><trkpt lat="45.940211" lon="10.6027015"><ele>1118.0</ele><time>2026-05-02T13:02:53.798Z</time></trkpt><trkpt lat="45.940282" lon="10.6026829"><ele>1118.0</ele><time>2026-05-02T13:02:54.798Z</time></trkpt><trkpt lat="45.9403626" lon="10.6026813"><ele>1119.2</ele><time>2026-05-02T13:02:55.798Z</time></trkpt><trkpt lat="45.9404507" lon="10.6026953"><ele>1120.4</ele><time>2026-05-02T13:02:56.798Z</time></trkpt><trkpt lat="45.9405414" lon="10.6027322"><ele>1121.6000000000001</ele><time>2026-05-02T13:02:57.798Z</time></trkpt><trkpt lat="45.9406336" lon="10.6027982"><ele>1122.8</ele><time>2026-05-02T13:02:58.798Z</time></trkpt><trkpt lat="45.940719" lon="10.6028897"><ele>1124.0</ele><time>2026-05-02T13:02:59.798Z</time></trkpt><trkpt lat="45.9408239" lon="10.6031384"><ele>1119.8</ele><time>2026-05-02T13:03:01.798Z</time></trkpt><trkpt lat="45.9408545" lon="10.6032679"><ele>1115.6000000000001</ele><time>2026-05-02T13:03:02.798Z</time></trkpt><trkpt lat="45.9408851" lon="10.603394"><ele>1111.4</ele><time>2026-05-02T13:03:03.798Z</time></trkpt><trkpt lat="45.9409144" lon="10.6035242"><ele>1107.2</ele><time>2026-05-02T13:03:04.798Z</time></trkpt><trkpt lat="45.9409486" lon="10.6036381"><ele>1103.0</ele><time>2026-05-02T13:03:05.798Z</time></trkpt><trkpt lat="45.9410517" lon="10.6037982"><ele>1097.6666666666667</ele><time>2026-05-02T13:03:07.798Z</time></trkpt><trkpt lat="45.9411127" lon="10.6038518"><ele>1092.3333333333335</ele><time>2026-05-02T13:03:08.798Z</time></trkpt><trkpt lat="45.9411768" lon="10.6038777"><ele>1087.0</ele><time>2026-05-02T13:03:09.798Z</time></trkpt><trkpt lat="45.9412463" lon="10.6038895"><ele>1081.6666666666667</ele><time>2026-05-02T13:03:10.798Z</time></trkpt><trkpt lat="45.9413154" lon="10.6038915"><ele>1076.3333333333333</ele><time>2026-05-02T13:03:11.798Z</time></trkpt><trkpt lat="45.9414217" lon="10.6038568"><ele>1071.0</ele><time>2026-05-02T13:03:13.798Z</time></trkpt><trkpt lat="45.9415057" lon="10.6037795"><ele>1071.0</ele><time>2026-05-02T13:03:15.798Z</time></trkpt><trkpt lat="45.9415667" lon="10.603836"><ele>1071.0</ele><time>2026-05-02T13:03:18.798Z</time></trkpt><trkpt lat="45.9414881" lon="10.603978"><ele>1071.0</ele><time>2026-05-02T13:03:20.798Z</time></trkpt><trkpt lat="45.941427" lon="10.6040696"><ele>1071.0</ele><time>2026-05-02T13:03:21.798Z</time></trkpt><trkpt lat="45.9413537" lon="10.6041645"><ele>1071.0</ele><time>2026-05-02T13:03:22.798Z</time></trkpt><trkpt lat="45.9412839" lon="10.6042465"><ele>1071.0</ele><time>2026-05-02T13:03:23.798Z</time></trkpt><trkpt lat="45.9412177" lon="10.6043243"><ele>1071.0</ele><time>2026-05-02T13:03:24.798Z</time></trkpt><trkpt lat="45.9411557" lon="10.6043917"><ele>1071.0</ele><time>2026-05-02T13:03:25.798Z</time></trkpt><trkpt lat="45.9410919" lon="10.6044506"><ele>1071.0</ele><time>2026-05-02T13:03:26.798Z</time></trkpt><trkpt lat="45.9410189" lon="10.6045082"><ele>1071.0</ele><time>2026-05-02T13:03:27.798Z</time></trkpt><trkpt lat="45.9409445" lon="10.6045532"><ele>1071.0</ele><time>2026-05-02T13:03:28.798Z</time></trkpt><trkpt lat="45.9408567" lon="10.604602"><ele>1070.0</ele><time>2026-05-02T13:03:29.798Z</time></trkpt><trkpt lat="45.9407603" lon="10.6046596"><ele>1069.0</ele><time>2026-05-02T13:03:30.798Z</time></trkpt><trkpt lat="45.9406579" lon="10.6047245"><ele>1068.0</ele><time>2026-05-02T13:03:31.798Z</time></trkpt><trkpt lat="45.9405545" lon="10.6047943"><ele>1067.0</ele><time>2026-05-02T13:03:32.798Z</time></trkpt><trkpt lat="45.9404505" lon="10.6048747"><ele>1066.0</ele><time>2026-05-02T13:03:33.798Z</time></trkpt><trkpt lat="45.9403537" lon="10.6049662"><ele>1066.0</ele><time>2026-05-02T13:03:34.798Z</time></trkpt><trkpt lat="45.9402769" lon="10.6050788"><ele>1066.0</ele><time>2026-05-02T13:03:35.798Z</time></trkpt><trkpt lat="45.9402128" lon="10.6051963"><ele>1066.0</ele><time>2026-05-02T13:03:36.798Z</time></trkpt><trkpt lat="45.9401554" lon="10.6053095"><ele>1066.0</ele><time>2026-05-02T13:03:37.798Z</time></trkpt><trkpt lat="45.940111" lon="10.6054123"><ele>1066.0</ele><time>2026-05-02T13:03:38.798Z</time></trkpt><trkpt lat="45.9400706" lon="10.6055103"><ele>1065.1666666666665</ele><time>2026-05-02T13:03:39.798Z</time></trkpt><trkpt lat="45.9400364" lon="10.6056026"><ele>1064.3333333333333</ele><time>2026-05-02T13:03:40.798Z</time></trkpt><trkpt lat="45.9399959" lon="10.6056977"><ele>1063.5</ele><time>2026-05-02T13:03:41.798Z</time></trkpt><trkpt lat="45.9399418" lon="10.6057948"><ele>1062.6666666666667</ele><time>2026-05-02T13:03:42.798Z</time></trkpt><trkpt lat="45.9398758" lon="10.6058942"><ele>1061.8333333333335</ele><time>2026-05-02T13:03:43.798Z</time></trkpt><trkpt lat="45.9398053" lon="10.6059944"><ele>1061.0</ele><time>2026-05-02T13:03:44.798Z</time></trkpt><trkpt lat="45.9397268" lon="10.6060897"><ele>1056.0</ele><time>2026-05-02T13:03:45.798Z</time></trkpt><trkpt lat="45.9396473" lon="10.6061891"><ele>1051.0</ele><time>2026-05-02T13:03:46.798Z</time></trkpt><trkpt lat="45.9395696" lon="10.6063179"><ele>1046.0</ele><time>2026-05-02T13:03:47.798Z</time></trkpt><trkpt lat="45.93949" lon="10.6064301"><ele>1041.0</ele><time>2026-05-02T13:03:48.798Z</time></trkpt><trkpt lat="45.9394124" lon="10.6065328"><ele>1036.0</ele><time>2026-05-02T13:03:49.798Z</time></trkpt><trkpt lat="45.9393462" lon="10.6066388"><ele>1036.0</ele><time>2026-05-02T13:03:50.798Z</time></trkpt><trkpt lat="45.9392941" lon="10.6067647"><ele>1036.0</ele><time>2026-05-02T13:03:51.798Z</time></trkpt><trkpt lat="45.9392473" lon="10.6069098"><ele>1036.0</ele><time>2026-05-02T13:03:52.798Z</time></trkpt><trkpt lat="45.9392012" lon="10.6070557"><ele>1036.0</ele><time>2026-05-02T13:03:53.798Z</time></trkpt><trkpt lat="45.9391739" lon="10.6072017"><ele>1036.0</ele><time>2026-05-02T13:03:54.798Z</time></trkpt><trkpt lat="45.9391666" lon="10.6073477"><ele>1036.2</ele><time>2026-05-02T13:03:55.798Z</time></trkpt><trkpt lat="45.9391801" lon="10.6075012"><ele>1036.3999999999999</ele><time>2026-05-02T13:03:56.798Z</time></trkpt><trkpt lat="45.9391884" lon="10.6076553"><ele>1036.6</ele><time>2026-05-02T13:03:57.798Z</time></trkpt><trkpt lat="45.9391845" lon="10.6078025"><ele>1036.8</ele><time>2026-05-02T13:03:58.798Z</time></trkpt><trkpt lat="45.9391698" lon="10.6079465"><ele>1037.0</ele><time>2026-05-02T13:03:59.798Z</time></trkpt><trkpt lat="45.9391482" lon="10.6080846"><ele>1037.0</ele><time>2026-05-02T13:04:00.798Z</time></trkpt><trkpt lat="45.9391264" lon="10.6082354"><ele>1037.0</ele><time>2026-05-02T13:04:01.798Z</time></trkpt><trkpt lat="45.939101" lon="10.6083942"><ele>1037.0</ele><time>2026-05-02T13:04:02.798Z</time></trkpt><trkpt lat="45.9390854" lon="10.6085521"><ele>1037.0</ele><time>2026-05-02T13:04:03.798Z</time></trkpt><trkpt lat="45.9390708" lon="10.6087025"><ele>1037.0</ele><time>2026-05-02T13:04:04.798Z</time></trkpt><trkpt lat="45.9390508" lon="10.6088398"><ele>1035.6666666666667</ele><time>2026-05-02T13:04:05.798Z</time></trkpt><trkpt lat="45.9390292" lon="10.6089678"><ele>1034.3333333333335</ele><time>2026-05-02T13:04:06.798Z</time></trkpt><trkpt lat="45.9390164" lon="10.6090739"><ele>1033.0</ele><time>2026-05-02T13:04:07.798Z</time></trkpt><trkpt lat="45.9390275" lon="10.6092036"><ele>1031.6666666666667</ele><time>2026-05-02T13:04:09.799Z</time></trkpt><trkpt lat="45.9390922" lon="10.6091566"><ele>1030.3333333333333</ele><time>2026-05-02T13:04:11.798Z</time></trkpt><trkpt lat="45.9391371" lon="10.6090401"><ele>1029.0</ele><time>2026-05-02T13:04:12.798Z</time></trkpt><trkpt lat="45.9392015" lon="10.6088837"><ele>1024.0</ele><time>2026-05-02T13:04:13.798Z</time></trkpt><trkpt lat="45.9392646" lon="10.6087391"><ele>1019.0000000000001</ele><time>2026-05-02T13:04:14.798Z</time></trkpt><trkpt lat="45.9393098" lon="10.6086133"><ele>1014.0000000000001</ele><time>2026-05-02T13:04:15.798Z</time></trkpt><trkpt lat="45.9393332" lon="10.6084871"><ele>1009.0</ele><time>2026-05-02T13:04:16.798Z</time></trkpt><trkpt lat="45.9393485" lon="10.6083659"><ele>1004.0</ele><time>2026-05-02T13:04:17.798Z</time></trkpt><trkpt lat="45.9393641" lon="10.6082434"><ele>1004.0</ele><time>2026-05-02T13:04:18.798Z</time></trkpt><trkpt lat="45.9393938" lon="10.6081222"><ele>1004.0000000000001</ele><time>2026-05-02T13:04:19.798Z</time></trkpt><trkpt lat="45.9394356" lon="10.6080028"><ele>1004.0000000000001</ele><time>2026-05-02T13:04:20.798Z</time></trkpt><trkpt lat="45.9394878" lon="10.6078873"><ele>1004.0</ele><time>2026-05-02T13:04:21.798Z</time></trkpt><trkpt lat="45.9395426" lon="10.6077638"><ele>1004.0</ele><time>2026-05-02T13:04:22.798Z</time></trkpt><trkpt lat="45.9396058" lon="10.6076335"><ele>1002.6</ele><time>2026-05-02T13:04:23.798Z</time></trkpt><trkpt lat="45.9396774" lon="10.6075169"><ele>1001.2</ele><time>2026-05-02T13:04:24.798Z</time></trkpt><trkpt lat="45.939752" lon="10.6074085"><ele>999.8000000000001</ele><time>2026-05-02T13:04:25.798Z</time></trkpt><trkpt lat="45.9398397" lon="10.6073165"><ele>998.4000000000001</ele><time>2026-05-02T13:04:26.798Z</time></trkpt><trkpt lat="45.9399488" lon="10.6072381"><ele>997.0</ele><time>2026-05-02T13:04:27.798Z</time></trkpt><trkpt lat="45.9401819" lon="10.6071067"><ele>997.0</ele><time>2026-05-02T13:04:29.798Z</time></trkpt><trkpt lat="45.9402852" lon="10.6070272"><ele>997.0</ele><time>2026-05-02T13:04:30.798Z</time></trkpt><trkpt lat="45.940386" lon="10.6069429"><ele>997.0</ele><time>2026-05-02T13:04:31.798Z</time></trkpt><trkpt lat="45.9404732" lon="10.6068575"><ele>997.0</ele><time>2026-05-02T13:04:32.798Z</time></trkpt><trkpt lat="45.9405494" lon="10.6067411"><ele>998.6</ele><time>2026-05-02T13:04:33.798Z</time></trkpt><trkpt lat="45.9406186" lon="10.6066302"><ele>1000.2</ele><time>2026-05-02T13:04:34.798Z</time></trkpt><trkpt lat="45.9406911" lon="10.6065237"><ele>1001.8</ele><time>2026-05-02T13:04:35.798Z</time></trkpt><trkpt lat="45.9407635" lon="10.6064345"><ele>1003.4</ele><time>2026-05-02T13:04:36.798Z</time></trkpt><trkpt lat="45.9408393" lon="10.6063317"><ele>1005.0</ele><time>2026-05-02T13:04:37.798Z</time></trkpt><trkpt lat="45.9409116" lon="10.6062763"><ele>1005.0</ele><time>2026-05-02T13:04:38.798Z</time></trkpt><trkpt lat="45.9409981" lon="10.6062614"><ele>1005.0</ele><time>2026-05-02T13:04:39.798Z</time></trkpt><trkpt lat="45.9410891" lon="10.6062623"><ele>1005.0</ele><time>2026-05-02T13:04:40.798Z</time></trkpt><trkpt lat="45.9411842" lon="10.6062717"><ele>1005.0</ele><time>2026-05-02T13:04:41.798Z</time></trkpt><trkpt lat="45.9412801" lon="10.6062769"><ele>1005.0</ele><time>2026-05-02T13:04:42.798Z</time></trkpt><trkpt lat="45.9413628" lon="10.6062984"><ele>1005.0</ele><time>2026-05-02T13:04:43.798Z</time></trkpt><trkpt lat="45.9414442" lon="10.6063293"><ele>1005.0</ele><time>2026-05-02T13:04:44.798Z</time></trkpt><trkpt lat="45.9415161" lon="10.6063872"><ele>1005.0</ele><time>2026-05-02T13:04:45.798Z</time></trkpt><trkpt lat="45.9415806" lon="10.606463"><ele>1005.0</ele><time>2026-05-02T13:04:46.798Z</time></trkpt><trkpt lat="45.9416305" lon="10.6065428"><ele>1005.0</ele><time>2026-05-02T13:04:47.798Z</time></trkpt><trkpt lat="45.941673" lon="10.6066169"><ele>1005.0</ele><time>2026-05-02T13:04:48.798Z</time></trkpt><trkpt lat="45.9417021" lon="10.6067411"><ele>1005.0</ele><time>2026-05-02T13:04:50.798Z</time></trkpt><trkpt lat="45.9416118" lon="10.6068051"><ele>1005.0</ele><time>2026-05-02T13:04:52.798Z</time></trkpt><trkpt lat="45.9415124" lon="10.6068065"><ele>1005.0</ele><time>2026-05-02T13:04:53.798Z</time></trkpt><trkpt lat="45.941404" lon="10.6068199"><ele>1005.0</ele><time>2026-05-02T13:04:54.798Z</time></trkpt><trkpt lat="45.9412995" lon="10.606846"><ele>1005.0</ele><time>2026-05-02T13:04:55.798Z</time></trkpt><trkpt lat="45.9412219" lon="10.6068989"><ele>1005.0</ele><time>2026-05-02T13:04:56.798Z</time></trkpt><trkpt lat="45.9411672" lon="10.6069894"><ele>1005.0</ele><time>2026-05-02T13:04:57.798Z</time></trkpt><trkpt lat="45.9411332" lon="10.6071041"><ele>1005.0</ele><time>2026-05-02T13:04:58.798Z</time></trkpt><trkpt lat="45.9411194" lon="10.6072421"><ele>1005.0</ele><time>2026-05-02T13:04:59.798Z</time></trkpt><trkpt lat="45.9411375" lon="10.6074123"><ele>1005.0</ele><time>2026-05-02T13:05:00.798Z</time></trkpt><trkpt lat="45.9411663" lon="10.6075807"><ele>999.25</ele><time>2026-05-02T13:05:01.798Z</time></trkpt><trkpt lat="45.9412205" lon="10.6077458"><ele>993.5</ele><time>2026-05-02T13:05:02.798Z</time></trkpt><trkpt lat="45.9412608" lon="10.6079153"><ele>987.75</ele><time>2026-05-02T13:05:03.798Z</time></trkpt><trkpt lat="45.9413054" lon="10.6080511"><ele>982.0</ele><time>2026-05-02T13:05:04.798Z</time></trkpt><trkpt lat="45.941343" lon="10.6081881"><ele>979.6</ele><time>2026-05-02T13:05:05.798Z</time></trkpt><trkpt lat="45.9413667" lon="10.6083335"><ele>977.2</ele><time>2026-05-02T13:05:06.798Z</time></trkpt><trkpt lat="45.9413748" lon="10.6084787"><ele>974.8</ele><time>2026-05-02T13:05:07.798Z</time></trkpt><trkpt lat="45.9413616" lon="10.6086195"><ele>972.4</ele><time>2026-05-02T13:05:08.798Z</time></trkpt><trkpt lat="45.9413309" lon="10.608765"><ele>970.0</ele><time>2026-05-02T13:05:09.798Z</time></trkpt><trkpt lat="45.9412949" lon="10.6089098"><ele>968.8</ele><time>2026-05-02T13:05:10.798Z</time></trkpt><trkpt lat="45.9412651" lon="10.6090576"><ele>967.6</ele><time>2026-05-02T13:05:11.798Z</time></trkpt><trkpt lat="45.9412426" lon="10.6092089"><ele>966.4000000000001</ele><time>2026-05-02T13:05:12.798Z</time></trkpt><trkpt lat="45.9412212" lon="10.609357"><ele>965.2</ele><time>2026-05-02T13:05:13.798Z</time></trkpt><trkpt lat="45.9411905" lon="10.6094972"><ele>964.0</ele><time>2026-05-02T13:05:14.798Z</time></trkpt><trkpt lat="45.941152" lon="10.6096299"><ele>961.2</ele><time>2026-05-02T13:05:15.798Z</time></trkpt><trkpt lat="45.9411154" lon="10.6097488"><ele>958.4000000000001</ele><time>2026-05-02T13:05:16.798Z</time></trkpt><trkpt lat="45.941086" lon="10.6098691"><ele>955.6</ele><time>2026-05-02T13:05:17.798Z</time></trkpt><trkpt lat="45.9410621" lon="10.6099962"><ele>952.8</ele><time>2026-05-02T13:05:18.798Z</time></trkpt><trkpt lat="45.9410637" lon="10.6101331"><ele>950.0</ele><time>2026-05-02T13:05:19.798Z</time></trkpt><trkpt lat="45.9410675" lon="10.6102554"><ele>947.0</ele><time>2026-05-02T13:05:20.798Z</time></trkpt><trkpt lat="45.9410694" lon="10.6103951"><ele>944.0</ele><time>2026-05-02T13:05:21.798Z</time></trkpt><trkpt lat="45.9410648" lon="10.6105378"><ele>941.0</ele><time>2026-05-02T13:05:22.798Z</time></trkpt><trkpt lat="45.9410408" lon="10.610693"><ele>938.0</ele><time>2026-05-02T13:05:23.798Z</time></trkpt><trkpt lat="45.9409779" lon="10.6110054"><ele>938.0</ele><time>2026-05-02T13:05:25.798Z</time></trkpt><trkpt lat="45.9409309" lon="10.611155"><ele>938.0</ele><time>2026-05-02T13:05:26.798Z</time></trkpt><trkpt lat="45.9408769" lon="10.6112957"><ele>938.0</ele><time>2026-05-02T13:05:27.798Z</time></trkpt><trkpt lat="45.9408188" lon="10.6114045"><ele>938.0</ele><time>2026-05-02T13:05:28.798Z</time></trkpt><trkpt lat="45.940767" lon="10.6115012"><ele>938.0</ele><time>2026-05-02T13:05:29.798Z</time></trkpt><trkpt lat="45.9407088" lon="10.6115748"><ele>939.1666666666667</ele><time>2026-05-02T13:05:30.798Z</time></trkpt><trkpt lat="45.9406475" lon="10.6116229"><ele>940.3333333333334</ele><time>2026-05-02T13:05:31.798Z</time></trkpt><trkpt lat="45.940568" lon="10.6117242"><ele>941.5</ele><time>2026-05-02T13:05:33.798Z</time></trkpt><trkpt lat="45.9405562" lon="10.611842"><ele>942.6666666666667</ele><time>2026-05-02T13:05:35.798Z</time></trkpt><trkpt lat="45.9406426" lon="10.6118192"><ele>943.8333333333334</ele><time>2026-05-02T13:05:39.798Z</time></trkpt><trkpt lat="45.940718" lon="10.6117621"><ele>945.0</ele><time>2026-05-02T13:05:40.798Z</time></trkpt><trkpt lat="45.9408175" lon="10.611668"><ele>937.5</ele><time>2026-05-02T13:05:41.798Z</time></trkpt><trkpt lat="45.9409238" lon="10.6115559"><ele>930.0</ele><time>2026-05-02T13:05:42.798Z</time></trkpt><trkpt lat="45.9410143" lon="10.6114314"><ele>922.5</ele><time>2026-05-02T13:05:43.798Z</time></trkpt><trkpt lat="45.9410829" lon="10.6113198"><ele>915.0</ele><time>2026-05-02T13:05:44.798Z</time></trkpt><trkpt lat="45.9411577" lon="10.6112306"><ele>915.0</ele><time>2026-05-02T13:05:45.798Z</time></trkpt><trkpt lat="45.9412295" lon="10.6111738"><ele>915.0</ele><time>2026-05-02T13:05:46.798Z</time></trkpt><trkpt lat="45.9413058" lon="10.6111638"><ele>915.0</ele><time>2026-05-02T13:05:48.798Z</time></trkpt><trkpt lat="45.9413061" lon="10.6113305"><ele>915.0</ele><time>2026-05-02T13:05:50.798Z</time></trkpt><trkpt lat="45.9412863" lon="10.6114624"><ele>915.0</ele><time>2026-05-02T13:05:51.798Z</time></trkpt><trkpt lat="45.9412431" lon="10.6116162"><ele>915.0</ele><time>2026-05-02T13:05:52.798Z</time></trkpt><trkpt lat="45.9411885" lon="10.6117728"><ele>915.0</ele><time>2026-05-02T13:05:53.798Z</time></trkpt><trkpt lat="45.9411304" lon="10.6119326"><ele>915.0</ele><time>2026-05-02T13:05:54.798Z</time></trkpt><trkpt lat="45.9410554" lon="10.6120938"><ele>915.0</ele><time>2026-05-02T13:05:55.798Z</time></trkpt><trkpt lat="45.9409846" lon="10.6122381"><ele>918.25</ele><time>2026-05-02T13:05:56.798Z</time></trkpt><trkpt lat="45.9409035" lon="10.6123777"><ele>921.5</ele><time>2026-05-02T13:05:57.798Z</time></trkpt><trkpt lat="45.9408381" lon="10.6125145"><ele>924.75</ele><time>2026-05-02T13:05:58.798Z</time></trkpt><trkpt lat="45.9407767" lon="10.6126486"><ele>928.0</ele><time>2026-05-02T13:05:59.798Z</time></trkpt><trkpt lat="45.9407345" lon="10.6127786"><ele>924.4</ele><time>2026-05-02T13:06:00.798Z</time></trkpt><trkpt lat="45.9407068" lon="10.6129072"><ele>920.8</ele><time>2026-05-02T13:06:01.798Z</time></trkpt><trkpt lat="45.9406789" lon="10.6130462"><ele>917.2</ele><time>2026-05-02T13:06:02.798Z</time></trkpt><trkpt lat="45.9406387" lon="10.6131717"><ele>913.6</ele><time>2026-05-02T13:06:03.798Z</time></trkpt><trkpt lat="45.940579" lon="10.6132759"><ele>910.0</ele><time>2026-05-02T13:06:04.798Z</time></trkpt><trkpt lat="45.9405136" lon="10.6133634"><ele>909.9999999999999</ele><time>2026-05-02T13:06:05.798Z</time></trkpt><trkpt lat="45.9404513" lon="10.6134407"><ele>910.0</ele><time>2026-05-02T13:06:06.798Z</time></trkpt><trkpt lat="45.9403961" lon="10.6135145"><ele>910.0</ele><time>2026-05-02T13:06:07.798Z</time></trkpt><trkpt lat="45.9403581" lon="10.6135918"><ele>910.0</ele><time>2026-05-02T13:06:08.798Z</time></trkpt><trkpt lat="45.9403269" lon="10.6136739"><ele>909.9999999999999</ele><time>2026-05-02T13:06:09.798Z</time></trkpt><trkpt lat="45.9402821" lon="10.6137864"><ele>910.0</ele><time>2026-05-02T13:06:10.798Z</time></trkpt><trkpt lat="45.9402162" lon="10.6139041"><ele>909.5</ele><time>2026-05-02T13:06:11.798Z</time></trkpt><trkpt lat="45.9401418" lon="10.6140334"><ele>909.0</ele><time>2026-05-02T13:06:12.798Z</time></trkpt><trkpt lat="45.9400708" lon="10.6141788"><ele>908.5</ele><time>2026-05-02T13:06:13.798Z</time></trkpt><trkpt lat="45.9400106" lon="10.6143251"><ele>908.0</ele><time>2026-05-02T13:06:14.798Z</time></trkpt><trkpt lat="45.9399405" lon="10.6144585"><ele>904.8333333333334</ele><time>2026-05-02T13:06:15.798Z</time></trkpt><trkpt lat="45.9398752" lon="10.6145911"><ele>901.6666666666667</ele><time>2026-05-02T13:06:16.798Z</time></trkpt><trkpt lat="45.9398118" lon="10.6147014"><ele>898.5</ele><time>2026-05-02T13:06:17.798Z</time></trkpt><trkpt lat="45.9397566" lon="10.6147973"><ele>895.3333333333333</ele><time>2026-05-02T13:06:18.798Z</time></trkpt><trkpt lat="45.9397045" lon="10.6148811"><ele>892.1666666666666</ele><time>2026-05-02T13:06:19.798Z</time></trkpt><trkpt lat="45.9396692" lon="10.6149596"><ele>889.0</ele><time>2026-05-02T13:06:20.798Z</time></trkpt><trkpt lat="45.9396692" lon="10.6150572"><ele>889.0</ele><time>2026-05-02T13:06:22.798Z</time></trkpt><trkpt lat="45.9397666" lon="10.6149968"><ele>889.0</ele><time>2026-05-02T13:06:24.798Z</time></trkpt><trkpt lat="45.939856" lon="10.6149227"><ele>889.0</ele><time>2026-05-02T13:06:25.798Z</time></trkpt><trkpt lat="45.939975" lon="10.6148179"><ele>889.0</ele><time>2026-05-02T13:06:26.798Z</time></trkpt><trkpt lat="45.9400905" lon="10.6147109"><ele>888.4000000000001</ele><time>2026-05-02T13:06:27.798Z</time></trkpt><trkpt lat="45.9401986" lon="10.6146402"><ele>887.8000000000001</ele><time>2026-05-02T13:06:28.798Z</time></trkpt><trkpt lat="45.9403029" lon="10.6145867"><ele>887.1999999999999</ele><time>2026-05-02T13:06:29.798Z</time></trkpt><trkpt lat="45.9404009" lon="10.6145298"><ele>886.5999999999999</ele><time>2026-05-02T13:06:30.798Z</time></trkpt><trkpt lat="45.9404974" lon="10.6144718"><ele>886.0</ele><time>2026-05-02T13:06:31.798Z</time></trkpt><trkpt lat="45.9405764" lon="10.6144014"><ele>885.9999999999999</ele><time>2026-05-02T13:06:32.798Z</time></trkpt><trkpt lat="45.9406381" lon="10.6143143"><ele>886.0</ele><time>2026-05-02T13:06:33.798Z</time></trkpt><trkpt lat="45.9406925" lon="10.6142237"><ele>886.0</ele><time>2026-05-02T13:06:34.798Z</time></trkpt><trkpt lat="45.9407527" lon="10.6141506"><ele>886.0</ele><time>2026-05-02T13:06:35.798Z</time></trkpt><trkpt lat="45.9408138" lon="10.614091"><ele>885.9999999999999</ele><time>2026-05-02T13:06:36.798Z</time></trkpt><trkpt lat="45.9408852" lon="10.6140293"><ele>886.0</ele><time>2026-05-02T13:06:37.798Z</time></trkpt><trkpt lat="45.9409559" lon="10.6139623"><ele>884.1999999999999</ele><time>2026-05-02T13:06:38.798Z</time></trkpt><trkpt lat="45.9410198" lon="10.6138738"><ele>882.3999999999999</ele><time>2026-05-02T13:06:39.798Z</time></trkpt><trkpt lat="45.9410768" lon="10.6137692"><ele>880.6</ele><time>2026-05-02T13:06:40.798Z</time></trkpt><trkpt lat="45.9411266" lon="10.6136561"><ele>878.8</ele><time>2026-05-02T13:06:41.798Z</time></trkpt><trkpt lat="45.9411772" lon="10.6135319"><ele>877.0</ele><time>2026-05-02T13:06:42.798Z</time></trkpt><trkpt lat="45.9412458" lon="10.6134064"><ele>877.0</ele><time>2026-05-02T13:06:43.798Z</time></trkpt><trkpt lat="45.9413153" lon="10.6132707"><ele>877.0</ele><time>2026-05-02T13:06:44.798Z</time></trkpt><trkpt lat="45.9413812" lon="10.6131345"><ele>877.0</ele><time>2026-05-02T13:06:45.798Z</time></trkpt><trkpt lat="45.941452" lon="10.6129972"><ele>877.0</ele><time>2026-05-02T13:06:46.798Z</time></trkpt><trkpt lat="45.9415218" lon="10.6128635"><ele>872.75</ele><time>2026-05-02T13:06:47.798Z</time></trkpt><trkpt lat="45.9416063" lon="10.6127517"><ele>868.5</ele><time>2026-05-02T13:06:48.798Z</time></trkpt><trkpt lat="45.9416973" lon="10.6126523"><ele>864.25</ele><time>2026-05-02T13:06:49.798Z</time></trkpt><trkpt lat="45.9417986" lon="10.6125588"><ele>860.0</ele><time>2026-05-02T13:06:50.798Z</time></trkpt><trkpt lat="45.9419018" lon="10.6124664"><ele>860.0</ele><time>2026-05-02T13:06:51.798Z</time></trkpt><trkpt lat="45.9419986" lon="10.6123658"><ele>860.0</ele><time>2026-05-02T13:06:52.798Z</time></trkpt><trkpt lat="45.9420931" lon="10.6122669"><ele>860.0</ele><time>2026-05-02T13:06:53.798Z</time></trkpt><trkpt lat="45.9421829" lon="10.6121693"><ele>860.0</ele><time>2026-05-02T13:06:54.798Z</time></trkpt><trkpt lat="45.9422611" lon="10.6120578"><ele>863.0</ele><time>2026-05-02T13:06:55.798Z</time></trkpt><trkpt lat="45.9423399" lon="10.6119467"><ele>866.0</ele><time>2026-05-02T13:06:56.798Z</time></trkpt><trkpt lat="45.942408" lon="10.6118209"><ele>869.0</ele><time>2026-05-02T13:06:57.798Z</time></trkpt><trkpt lat="45.9424606" lon="10.611697"><ele>872.0</ele><time>2026-05-02T13:06:58.798Z</time></trkpt><trkpt lat="45.9425066" lon="10.6115676"><ele>875.0</ele><time>2026-05-02T13:06:59.798Z</time></trkpt><trkpt lat="45.9425391" lon="10.6114222"><ele>865.4</ele><time>2026-05-02T13:07:00.798Z</time></trkpt><trkpt lat="45.9425772" lon="10.6112707"><ele>855.8</ele><time>2026-05-02T13:07:01.798Z</time></trkpt><trkpt lat="45.9426148" lon="10.611143"><ele>846.2</ele><time>2026-05-02T13:07:02.798Z</time></trkpt><trkpt lat="45.9426512" lon="10.6110243"><ele>836.6</ele><time>2026-05-02T13:07:03.798Z</time></trkpt><trkpt lat="45.9427019" lon="10.6109274"><ele>827.0</ele><time>2026-05-02T13:07:04.798Z</time></trkpt><trkpt lat="45.9427588" lon="10.6108361"><ele>827.0</ele><time>2026-05-02T13:07:05.798Z</time></trkpt><trkpt lat="45.9428057" lon="10.6107414"><ele>827.0</ele><time>2026-05-02T13:07:06.798Z</time></trkpt><trkpt lat="45.9428397" lon="10.6106276"><ele>827.0</ele><time>2026-05-02T13:07:07.798Z</time></trkpt><trkpt lat="45.9428673" lon="10.6104955"><ele>827.0</ele><time>2026-05-02T13:07:08.798Z</time></trkpt><trkpt lat="45.9428854" lon="10.6103452"><ele>827.0</ele><time>2026-05-02T13:07:09.798Z</time></trkpt><trkpt lat="45.9429012" lon="10.6101796"><ele>832.0</ele><time>2026-05-02T13:07:10.798Z</time></trkpt><trkpt lat="45.9429175" lon="10.6100017"><ele>837.0</ele><time>2026-05-02T13:07:11.798Z</time></trkpt><trkpt lat="45.9429334" lon="10.6098174"><ele>842.0</ele><time>2026-05-02T13:07:12.798Z</time></trkpt><trkpt lat="45.9429537" lon="10.6096308"><ele>847.0</ele><time>2026-05-02T13:07:13.798Z</time></trkpt><trkpt lat="45.9429842" lon="10.6094492"><ele>848.75</ele><time>2026-05-02T13:07:14.798Z</time></trkpt><trkpt lat="45.9430224" lon="10.6092749"><ele>850.5</ele><time>2026-05-02T13:07:15.798Z</time></trkpt><trkpt lat="45.9430635" lon="10.6091164"><ele>852.25</ele><time>2026-05-02T13:07:16.798Z</time></trkpt><trkpt lat="45.9430978" lon="10.6089567"><ele>854.0</ele><time>2026-05-02T13:07:17.798Z</time></trkpt><trkpt lat="45.9431262" lon="10.608797"><ele>855.0</ele><time>2026-05-02T13:07:18.798Z</time></trkpt><trkpt lat="45.9431648" lon="10.6086301"><ele>856.0</ele><time>2026-05-02T13:07:19.798Z</time></trkpt><trkpt lat="45.9432094" lon="10.6084811"><ele>857.0</ele><time>2026-05-02T13:07:20.798Z</time></trkpt><trkpt lat="45.9432486" lon="10.6083359"><ele>858.0</ele><time>2026-05-02T13:07:21.798Z</time></trkpt><trkpt lat="45.9432912" lon="10.6081904"><ele>858.0</ele><time>2026-05-02T13:07:22.798Z</time></trkpt><trkpt lat="45.9433366" lon="10.6080309"><ele>858.0</ele><time>2026-05-02T13:07:23.798Z</time></trkpt><trkpt lat="45.9433867" lon="10.607863"><ele>858.0</ele><time>2026-05-02T13:07:24.798Z</time></trkpt><trkpt lat="45.9434324" lon="10.6076962"><ele>858.0</ele><time>2026-05-02T13:07:25.798Z</time></trkpt><trkpt lat="45.943488" lon="10.6075168"><ele>853.0</ele><time>2026-05-02T13:07:26.798Z</time></trkpt><trkpt lat="45.9435476" lon="10.6073395"><ele>848.0</ele><time>2026-05-02T13:07:27.798Z</time></trkpt><trkpt lat="45.9436118" lon="10.6071714"><ele>843.0</ele><time>2026-05-02T13:07:28.798Z</time></trkpt><trkpt lat="45.9436819" lon="10.607032"><ele>838.0</ele><time>2026-05-02T13:07:29.798Z</time></trkpt><trkpt lat="45.9437487" lon="10.6069216"><ele>837.9999999999999</ele><time>2026-05-02T13:07:30.798Z</time></trkpt><trkpt lat="45.9438057" lon="10.6068235"><ele>838.0</ele><time>2026-05-02T13:07:31.798Z</time></trkpt><trkpt lat="45.9438534" lon="10.6067509"><ele>838.0</ele><time>2026-05-02T13:07:32.798Z</time></trkpt><trkpt lat="45.9438982" lon="10.6066872"><ele>838.0</ele><time>2026-05-02T13:07:33.798Z</time></trkpt><trkpt lat="45.9439691" lon="10.606613"><ele>838.0</ele><time>2026-05-02T13:07:35.798Z</time></trkpt><trkpt lat="45.9440267" lon="10.6065685"><ele>837.9999999999999</ele><time>2026-05-02T13:07:37.798Z</time></trkpt><trkpt lat="45.9440766" lon="10.606508"><ele>838.0</ele><time>2026-05-02T13:07:41.798Z</time></trkpt><trkpt lat="45.9441124" lon="10.6064243"><ele>837.9999999999999</ele><time>2026-05-02T13:08:44.797Z</time></trkpt><trkpt lat="45.9441831" lon="10.6063679"><ele>838.0</ele><time>2026-05-02T13:08:46.797Z</time></trkpt><trkpt lat="45.9442342" lon="10.6063132"><ele>838.0</ele><time>2026-05-02T13:08:47.797Z</time></trkpt><trkpt lat="45.9442886" lon="10.606252"><ele>838.0</ele><time>2026-05-02T13:08:48.797Z</time></trkpt><trkpt lat="45.944341" lon="10.6061755"><ele>838.0</ele><time>2026-05-02T13:08:49.797Z</time></trkpt><trkpt lat="45.9443858" lon="10.6060912"><ele>837.9999999999999</ele><time>2026-05-02T13:08:50.797Z</time></trkpt><trkpt lat="45.9444219" lon="10.6059953"><ele>838.0</ele><time>2026-05-02T13:08:51.797Z</time></trkpt><trkpt lat="45.9444543" lon="10.6058826"><ele>835.25</ele><time>2026-05-02T13:08:52.797Z</time></trkpt><trkpt lat="45.9444846" lon="10.6057397"><ele>832.5</ele><time>2026-05-02T13:08:53.797Z</time></trkpt><trkpt lat="45.9445118" lon="10.6055831"><ele>829.75</ele><time>2026-05-02T13:08:54.797Z</time></trkpt><trkpt lat="45.9445549" lon="10.6054246"><ele>827.0</ele><time>2026-05-02T13:08:55.797Z</time></trkpt><trkpt lat="45.944613" lon="10.6052713"><ele>833.75</ele><time>2026-05-02T13:08:56.797Z</time></trkpt><trkpt lat="45.9446723" lon="10.6051159"><ele>840.5</ele><time>2026-05-02T13:08:57.797Z</time></trkpt><trkpt lat="45.9447299" lon="10.6049617"><ele>847.25</ele><time>2026-05-02T13:08:58.797Z</time></trkpt><trkpt lat="45.944777" lon="10.6048186"><ele>854.0</ele><time>2026-05-02T13:08:59.797Z</time></trkpt><trkpt lat="45.9448265" lon="10.6046695"><ele>854.0</ele><time>2026-05-02T13:09:00.797Z</time></trkpt><trkpt lat="45.9448741" lon="10.6045437"><ele>854.0000000000001</ele><time>2026-05-02T13:09:01.797Z</time></trkpt><trkpt lat="45.9449264" lon="10.6044389"><ele>854.0000000000001</ele><time>2026-05-02T13:09:02.797Z</time></trkpt><trkpt lat="45.9449903" lon="10.6043437"><ele>854.0</ele><time>2026-05-02T13:09:03.797Z</time></trkpt><trkpt lat="45.9450562" lon="10.6042517"><ele>854.0</ele><time>2026-05-02T13:09:04.797Z</time></trkpt><trkpt lat="45.9451226" lon="10.6041464"><ele>855.5</ele><time>2026-05-02T13:09:05.797Z</time></trkpt><trkpt lat="45.945177" lon="10.6040185"><ele>857.0</ele><time>2026-05-02T13:09:06.797Z</time></trkpt><trkpt lat="45.9452378" lon="10.6038691"><ele>858.5</ele><time>2026-05-02T13:09:07.797Z</time></trkpt><trkpt lat="45.9453032" lon="10.6037266"><ele>860.0</ele><time>2026-05-02T13:09:08.797Z</time></trkpt><trkpt lat="45.9453698" lon="10.6036063"><ele>860.0</ele><time>2026-05-02T13:09:09.797Z</time></trkpt><trkpt lat="45.9454343" lon="10.6035037"><ele>860.0</ele><time>2026-05-02T13:09:10.797Z</time></trkpt><trkpt lat="45.945485" lon="10.6034042"><ele>860.0</ele><time>2026-05-02T13:09:11.797Z</time></trkpt><trkpt lat="45.945524" lon="10.6032977"><ele>860.0</ele><time>2026-05-02T13:09:12.797Z</time></trkpt><trkpt lat="45.9455515" lon="10.6031947"><ele>860.0</ele><time>2026-05-02T13:09:13.797Z</time></trkpt><trkpt lat="45.9455543" lon="10.6029554"><ele>863.1666666666667</ele><time>2026-05-02T13:09:15.797Z</time></trkpt><trkpt lat="45.9455392" lon="10.6028301"><ele>866.3333333333334</ele><time>2026-05-02T13:09:16.797Z</time></trkpt><trkpt lat="45.945522" lon="10.602705"><ele>869.5</ele><time>2026-05-02T13:09:17.797Z</time></trkpt><trkpt lat="45.9455099" lon="10.6025813"><ele>872.6666666666667</ele><time>2026-05-02T13:09:18.797Z</time></trkpt><trkpt lat="45.9454986" lon="10.6024579"><ele>875.8333333333334</ele><time>2026-05-02T13:09:19.797Z</time></trkpt><trkpt lat="45.9454987" lon="10.6023485"><ele>879.0</ele><time>2026-05-02T13:09:20.797Z</time></trkpt><trkpt lat="45.9455677" lon="10.6022297"><ele>879.0</ele><time>2026-05-02T13:09:22.797Z</time></trkpt><trkpt lat="45.9456495" lon="10.6022274"><ele>879.0</ele><time>2026-05-02T13:09:23.797Z</time></trkpt><trkpt lat="45.9457213" lon="10.6022005"><ele>879.0</ele><time>2026-05-02T13:09:24.797Z</time></trkpt><trkpt lat="45.9457818" lon="10.6021525"><ele>879.0</ele><time>2026-05-02T13:09:25.797Z</time></trkpt><trkpt lat="45.9458324" lon="10.6020882"><ele>879.0</ele><time>2026-05-02T13:09:26.797Z</time></trkpt><trkpt lat="45.9458601" lon="10.6020064"><ele>879.0</ele><time>2026-05-02T13:09:27.797Z</time></trkpt><trkpt lat="45.9458775" lon="10.6018846"><ele>879.0</ele><time>2026-05-02T13:09:28.797Z</time></trkpt><trkpt lat="45.9458741" lon="10.6017245"><ele>882.75</ele><time>2026-05-02T13:09:29.797Z</time></trkpt><trkpt lat="45.9458533" lon="10.6015495"><ele>886.5</ele><time>2026-05-02T13:09:30.797Z</time></trkpt><trkpt lat="45.9458276" lon="10.6013757"><ele>890.25</ele><time>2026-05-02T13:09:31.797Z</time></trkpt><trkpt lat="45.9457968" lon="10.6012052"><ele>894.0</ele><time>2026-05-02T13:09:32.797Z</time></trkpt><trkpt lat="45.9457805" lon="10.6010551"><ele>894.8000000000001</ele><time>2026-05-02T13:09:33.797Z</time></trkpt><trkpt lat="45.9457713" lon="10.6009109"><ele>895.6000000000001</ele><time>2026-05-02T13:09:34.797Z</time></trkpt><trkpt lat="45.9457563" lon="10.6007681"><ele>896.4</ele><time>2026-05-02T13:09:35.797Z</time></trkpt><trkpt lat="45.9457419" lon="10.6006185"><ele>897.2</ele><time>2026-05-02T13:09:36.797Z</time></trkpt><trkpt lat="45.9457161" lon="10.6004644"><ele>898.0</ele><time>2026-05-02T13:09:37.797Z</time></trkpt><trkpt lat="45.9456863" lon="10.6003113"><ele>899.0</ele><time>2026-05-02T13:09:38.798Z</time></trkpt><trkpt lat="45.9456585" lon="10.6001589"><ele>900.0</ele><time>2026-05-02T13:09:39.797Z</time></trkpt><trkpt lat="45.9456317" lon="10.5999989"><ele>901.0</ele><time>2026-05-02T13:09:40.797Z</time></trkpt><trkpt lat="45.9456122" lon="10.5998253"><ele>902.0</ele><time>2026-05-02T13:09:41.797Z</time></trkpt><trkpt lat="45.94557" lon="10.5994853"><ele>905.0</ele><time>2026-05-02T13:09:43.797Z</time></trkpt><trkpt lat="45.9455661" lon="10.5993058"><ele>908.0</ele><time>2026-05-02T13:09:44.797Z</time></trkpt><trkpt lat="45.9455951" lon="10.5991206"><ele>911.0</ele><time>2026-05-02T13:09:45.797Z</time></trkpt><trkpt lat="45.9456396" lon="10.5989516"><ele>914.0</ele><time>2026-05-02T13:09:46.797Z</time></trkpt><trkpt lat="45.9456831" lon="10.5987986"><ele>918.0</ele><time>2026-05-02T13:09:47.797Z</time></trkpt><trkpt lat="45.9457333" lon="10.5986433"><ele>922.0</ele><time>2026-05-02T13:09:48.797Z</time></trkpt><trkpt lat="45.945782" lon="10.5984796"><ele>926.0</ele><time>2026-05-02T13:09:49.797Z</time></trkpt><trkpt lat="45.945831" lon="10.5983034"><ele>930.0</ele><time>2026-05-02T13:09:50.797Z</time></trkpt><trkpt lat="45.9458913" lon="10.5981274"><ele>919.3333333333333</ele><time>2026-05-02T13:09:51.797Z</time></trkpt><trkpt lat="45.9459434" lon="10.5979508"><ele>908.6666666666666</ele><time>2026-05-02T13:09:52.797Z</time></trkpt><trkpt lat="45.9459875" lon="10.5977853"><ele>898.0</ele><time>2026-05-02T13:09:53.797Z</time></trkpt><trkpt lat="45.9460486" lon="10.5974924"><ele>898.0</ele><time>2026-05-02T13:09:55.797Z</time></trkpt><trkpt lat="45.9460695" lon="10.5973548"><ele>898.0</ele><time>2026-05-02T13:09:56.797Z</time></trkpt><trkpt lat="45.9460893" lon="10.5972306"><ele>898.0</ele><time>2026-05-02T13:09:57.797Z</time></trkpt><trkpt lat="45.9461242" lon="10.5971119"><ele>898.0</ele><time>2026-05-02T13:09:58.797Z</time></trkpt><trkpt lat="45.9461588" lon="10.5969977"><ele>898.0</ele><time>2026-05-02T13:09:59.797Z</time></trkpt><trkpt lat="45.9461907" lon="10.5968678"><ele>899.5999999999999</ele><time>2026-05-02T13:10:00.797Z</time></trkpt><trkpt lat="45.9462218" lon="10.5967403"><ele>901.1999999999999</ele><time>2026-05-02T13:10:01.797Z</time></trkpt><trkpt lat="45.9462547" lon="10.5966016"><ele>902.8</ele><time>2026-05-02T13:10:02.797Z</time></trkpt><trkpt lat="45.9462826" lon="10.5964572"><ele>904.4</ele><time>2026-05-02T13:10:03.797Z</time></trkpt><trkpt lat="45.9462941" lon="10.5963013"><ele>906.0</ele><time>2026-05-02T13:10:04.797Z</time></trkpt><trkpt lat="45.9463061" lon="10.5961368"><ele>909.25</ele><time>2026-05-02T13:10:05.797Z</time></trkpt><trkpt lat="45.9463044" lon="10.5959593"><ele>912.5</ele><time>2026-05-02T13:10:06.797Z</time></trkpt><trkpt lat="45.9463028" lon="10.5957798"><ele>915.75</ele><time>2026-05-02T13:10:07.797Z</time></trkpt><trkpt lat="45.9462931" lon="10.5955986"><ele>919.0</ele><time>2026-05-02T13:10:08.797Z</time></trkpt><trkpt lat="45.9462863" lon="10.5954288"><ele>921.5</ele><time>2026-05-02T13:10:09.797Z</time></trkpt><trkpt lat="45.9462815" lon="10.5952641"><ele>924.0</ele><time>2026-05-02T13:10:10.797Z</time></trkpt><trkpt lat="45.9462795" lon="10.5950957"><ele>926.5</ele><time>2026-05-02T13:10:11.797Z</time></trkpt><trkpt lat="45.9462787" lon="10.5949337"><ele>929.0</ele><time>2026-05-02T13:10:12.797Z</time></trkpt><trkpt lat="45.9462749" lon="10.5947636"><ele>929.0</ele><time>2026-05-02T13:10:13.797Z</time></trkpt><trkpt lat="45.9462933" lon="10.5945937"><ele>929.0</ele><time>2026-05-02T13:10:14.797Z</time></trkpt><trkpt lat="45.9463232" lon="10.5944307"><ele>929.0</ele><time>2026-05-02T13:10:15.797Z</time></trkpt><trkpt lat="45.946343" lon="10.5942627"><ele>929.0</ele><time>2026-05-02T13:10:16.797Z</time></trkpt><trkpt lat="45.9463671" lon="10.5940962"><ele>932.1666666666667</ele><time>2026-05-02T13:10:17.797Z</time></trkpt><trkpt lat="45.9463867" lon="10.5939403"><ele>935.3333333333334</ele><time>2026-05-02T13:10:18.797Z</time></trkpt><trkpt lat="45.9463997" lon="10.593801"><ele>938.5</ele><time>2026-05-02T13:10:19.797Z</time></trkpt><trkpt lat="45.9464094" lon="10.5936824"><ele>941.6666666666667</ele><time>2026-05-02T13:10:20.797Z</time></trkpt><trkpt lat="45.9464349" lon="10.5935713"><ele>944.8333333333334</ele><time>2026-05-02T13:10:21.797Z</time></trkpt><trkpt lat="45.9464672" lon="10.5934734"><ele>948.0</ele><time>2026-05-02T13:10:22.797Z</time></trkpt><trkpt lat="45.9465081" lon="10.5934041"><ele>946.5</ele><time>2026-05-02T13:10:23.797Z</time></trkpt><trkpt lat="45.9465652" lon="10.5933635"><ele>945.0</ele><time>2026-05-02T13:10:24.797Z</time></trkpt><trkpt lat="45.9466282" lon="10.5933292"><ele>943.5</ele><time>2026-05-02T13:10:25.797Z</time></trkpt><trkpt lat="45.9467314" lon="10.5932434"><ele>942.0</ele><time>2026-05-02T13:10:27.797Z</time></trkpt><trkpt lat="45.946788" lon="10.5930859"><ele>940.5</ele><time>2026-05-02T13:10:29.797Z</time></trkpt><trkpt lat="45.9467943" lon="10.5929797"><ele>939.0</ele><time>2026-05-02T13:10:30.797Z</time></trkpt><trkpt lat="45.9468211" lon="10.5927319"><ele>939.0</ele><time>2026-05-02T13:10:32.797Z</time></trkpt><trkpt lat="45.94683" lon="10.5926116"><ele>939.0</ele><time>2026-05-02T13:10:33.797Z</time></trkpt><trkpt lat="45.9468252" lon="10.5924933"><ele>939.0</ele><time>2026-05-02T13:10:34.797Z</time></trkpt><trkpt lat="45.9468116" lon="10.5923711"><ele>939.0</ele><time>2026-05-02T13:10:35.797Z</time></trkpt><trkpt lat="45.9467961" lon="10.5922494"><ele>939.0</ele><time>2026-05-02T13:10:36.797Z</time></trkpt><trkpt lat="45.9467658" lon="10.5921329"><ele>939.0</ele><time>2026-05-02T13:10:37.797Z</time></trkpt><trkpt lat="45.9467232" lon="10.5919332"><ele>940.8571428571429</ele><time>2026-05-02T13:10:39.797Z</time></trkpt><trkpt lat="45.9467301" lon="10.5918314"><ele>942.7142857142857</ele><time>2026-05-02T13:10:40.797Z</time></trkpt><trkpt lat="45.9467492" lon="10.5917324"><ele>944.5714285714286</ele><time>2026-05-02T13:10:41.797Z</time></trkpt><trkpt lat="45.9467906" lon="10.5916569"><ele>946.4285714285714</ele><time>2026-05-02T13:10:42.797Z</time></trkpt><trkpt lat="45.9468586" lon="10.5915998"><ele>948.2857142857142</ele><time>2026-05-02T13:10:43.797Z</time></trkpt><trkpt lat="45.9469285" lon="10.5915378"><ele>950.1428571428571</ele><time>2026-05-02T13:10:44.797Z</time></trkpt><trkpt lat="45.9469898" lon="10.5914741"><ele>952.0</ele><time>2026-05-02T13:10:45.797Z</time></trkpt><trkpt lat="45.9470388" lon="10.5913997"><ele>951.9999999999999</ele><time>2026-05-02T13:10:46.797Z</time></trkpt><trkpt lat="45.9470725" lon="10.5913134"><ele>952.0</ele><time>2026-05-02T13:10:47.797Z</time></trkpt><trkpt lat="45.9470915" lon="10.5912121"><ele>952.0</ele><time>2026-05-02T13:10:48.797Z</time></trkpt><trkpt lat="45.9471114" lon="10.5910945"><ele>952.0</ele><time>2026-05-02T13:10:49.797Z</time></trkpt><trkpt lat="45.9471246" lon="10.5909557"><ele>951.9999999999999</ele><time>2026-05-02T13:10:50.797Z</time></trkpt><trkpt lat="45.9471315" lon="10.5908049"><ele>952.0</ele><time>2026-05-02T13:10:51.797Z</time></trkpt><trkpt lat="45.9471272" lon="10.5906489"><ele>954.75</ele><time>2026-05-02T13:10:52.797Z</time></trkpt><trkpt lat="45.9471395" lon="10.5904843"><ele>957.5</ele><time>2026-05-02T13:10:53.797Z</time></trkpt><trkpt lat="45.9471599" lon="10.5903217"><ele>960.25</ele><time>2026-05-02T13:10:54.797Z</time></trkpt><trkpt lat="45.9472146" lon="10.5900261"><ele>963.0</ele><time>2026-05-02T13:10:56.797Z</time></trkpt><trkpt lat="45.9472419" lon="10.5898755"><ele>964.75</ele><time>2026-05-02T13:10:57.797Z</time></trkpt><trkpt lat="45.9472577" lon="10.589705"><ele>966.5</ele><time>2026-05-02T13:10:58.797Z</time></trkpt><trkpt lat="45.9472615" lon="10.5895289"><ele>968.25</ele><time>2026-05-02T13:10:59.797Z</time></trkpt><trkpt lat="45.9472505" lon="10.589363"><ele>970.0</ele><time>2026-05-02T13:11:00.797Z</time></trkpt><trkpt lat="45.9472379" lon="10.5892075"><ele>971.6</ele><time>2026-05-02T13:11:01.797Z</time></trkpt><trkpt lat="45.9472241" lon="10.5890603"><ele>973.2</ele><time>2026-05-02T13:11:02.797Z</time></trkpt><trkpt lat="45.9472129" lon="10.5889194"><ele>974.8</ele><time>2026-05-02T13:11:03.797Z</time></trkpt><trkpt lat="45.947206" lon="10.5887823"><ele>976.4</ele><time>2026-05-02T13:11:04.797Z</time></trkpt><trkpt lat="45.9472004" lon="10.5886433"><ele>978.0</ele><time>2026-05-02T13:11:05.797Z</time></trkpt><trkpt lat="45.9471978" lon="10.5884859"><ele>979.0</ele><time>2026-05-02T13:11:06.797Z</time></trkpt><trkpt lat="45.9471916" lon="10.5883235"><ele>980.0</ele><time>2026-05-02T13:11:07.797Z</time></trkpt><trkpt lat="45.947183" lon="10.5881665"><ele>981.0</ele><time>2026-05-02T13:11:08.797Z</time></trkpt><trkpt lat="45.9471755" lon="10.5880188"><ele>982.0</ele><time>2026-05-02T13:11:09.797Z</time></trkpt><trkpt lat="45.9471702" lon="10.5879003"><ele>983.0</ele><time>2026-05-02T13:11:10.797Z</time></trkpt><trkpt lat="45.9471666" lon="10.5877963"><ele>984.6666666666667</ele><time>2026-05-02T13:11:11.797Z</time></trkpt><trkpt lat="45.9471555" lon="10.5877032"><ele>986.3333333333334</ele><time>2026-05-02T13:11:12.797Z</time></trkpt><trkpt lat="45.9471029" lon="10.5875587"><ele>988.0</ele><time>2026-05-02T13:11:14.797Z</time></trkpt><trkpt lat="45.947073" lon="10.5874696"><ele>989.6666666666667</ele><time>2026-05-02T13:11:17.797Z</time></trkpt><trkpt lat="45.9471677" lon="10.5873927"><ele>991.3333333333334</ele><time>2026-05-02T13:12:49.797Z</time></trkpt><trkpt lat="45.9472284" lon="10.5873554"><ele>993.0</ele><time>2026-05-02T13:12:52.797Z</time></trkpt><trkpt lat="45.9472422" lon="10.5872479"><ele>993.0</ele><time>2026-05-02T13:17:25.797Z</time></trkpt><trkpt lat="45.9471726" lon="10.5872283"><ele>993.0</ele><time>2026-05-02T13:17:30.797Z</time></trkpt><trkpt lat="45.9470926" lon="10.5872596"><ele>993.0</ele><time>2026-05-02T13:17:36.797Z</time></trkpt><trkpt lat="45.9470596" lon="10.5873656"><ele>993.0</ele><time>2026-05-02T13:17:38.796Z</time></trkpt><trkpt lat="45.9470689" lon="10.5875047"><ele>993.0</ele><time>2026-05-02T13:17:40.796Z</time></trkpt><trkpt lat="45.9470893" lon="10.5875908"><ele>993.0</ele><time>2026-05-02T13:17:41.796Z</time></trkpt><trkpt lat="45.9471096" lon="10.5877099"><ele>993.0</ele><time>2026-05-02T13:17:42.796Z</time></trkpt><trkpt lat="45.9471292" lon="10.5878304"><ele>993.0</ele><time>2026-05-02T13:17:43.796Z</time></trkpt><trkpt lat="45.9471457" lon="10.5879595"><ele>993.0</ele><time>2026-05-02T13:17:44.796Z</time></trkpt><trkpt lat="45.9471466" lon="10.588114"><ele>993.0</ele><time>2026-05-02T13:17:45.796Z</time></trkpt><trkpt lat="45.9471587" lon="10.5882563"><ele>993.0</ele><time>2026-05-02T13:17:46.796Z</time></trkpt><trkpt lat="45.9471761" lon="10.5883926"><ele>991.0</ele><time>2026-05-02T13:17:47.796Z</time></trkpt><trkpt lat="45.9471855" lon="10.5885312"><ele>989.0</ele><time>2026-05-02T13:17:48.796Z</time></trkpt><trkpt lat="45.9471938" lon="10.5886606"><ele>987.0</ele><time>2026-05-02T13:17:49.796Z</time></trkpt><trkpt lat="45.9471935" lon="10.5887955"><ele>985.0</ele><time>2026-05-02T13:17:50.796Z</time></trkpt><trkpt lat="45.9471932" lon="10.5889306"><ele>983.0</ele><time>2026-05-02T13:17:51.796Z</time></trkpt><trkpt lat="45.9471981" lon="10.5890675"><ele>982.0</ele><time>2026-05-02T13:17:52.796Z</time></trkpt><trkpt lat="45.9472086" lon="10.58921"><ele>981.0</ele><time>2026-05-02T13:17:53.796Z</time></trkpt><trkpt lat="45.9472181" lon="10.5893457"><ele>980.0</ele><time>2026-05-02T13:17:54.796Z</time></trkpt><trkpt lat="45.9472316" lon="10.589478"><ele>979.0</ele><time>2026-05-02T13:17:55.796Z</time></trkpt><trkpt lat="45.9472423" lon="10.5896037"><ele>978.0</ele><time>2026-05-02T13:17:56.796Z</time></trkpt><trkpt lat="45.9472472" lon="10.5897236"><ele>976.6666666666666</ele><time>2026-05-02T13:17:57.796Z</time></trkpt><trkpt lat="45.9472452" lon="10.5898425"><ele>975.3333333333333</ele><time>2026-05-02T13:17:58.796Z</time></trkpt><trkpt lat="45.9472396" lon="10.5899515"><ele>974.0</ele><time>2026-05-02T13:17:59.796Z</time></trkpt><trkpt lat="45.9472247" lon="10.5900759"><ele>972.6666666666666</ele><time>2026-05-02T13:18:00.796Z</time></trkpt><trkpt lat="45.9472018" lon="10.5901942"><ele>971.3333333333333</ele><time>2026-05-02T13:18:01.796Z</time></trkpt><trkpt lat="45.9471739" lon="10.590332"><ele>970.0</ele><time>2026-05-02T13:18:02.796Z</time></trkpt><trkpt lat="45.9471531" lon="10.5904667"><ele>968.6</ele><time>2026-05-02T13:18:03.796Z</time></trkpt><trkpt lat="45.9471421" lon="10.5906024"><ele>967.2</ele><time>2026-05-02T13:18:04.796Z</time></trkpt><trkpt lat="45.9471367" lon="10.5907258"><ele>965.8</ele><time>2026-05-02T13:18:05.796Z</time></trkpt><trkpt lat="45.9471333" lon="10.5908578"><ele>964.4</ele><time>2026-05-02T13:18:06.796Z</time></trkpt><trkpt lat="45.9471265" lon="10.590998"><ele>963.0</ele><time>2026-05-02T13:18:07.796Z</time></trkpt><trkpt lat="45.9471157" lon="10.5911275"><ele>961.1666666666666</ele><time>2026-05-02T13:18:08.796Z</time></trkpt><trkpt lat="45.9470922" lon="10.591256"><ele>959.3333333333333</ele><time>2026-05-02T13:18:09.796Z</time></trkpt><trkpt lat="45.9470589" lon="10.5913797"><ele>957.5</ele><time>2026-05-02T13:18:10.796Z</time></trkpt><trkpt lat="45.9470268" lon="10.591487"><ele>955.6666666666666</ele><time>2026-05-02T13:18:11.796Z</time></trkpt><trkpt lat="45.946984" lon="10.5915768"><ele>953.8333333333333</ele><time>2026-05-02T13:18:12.796Z</time></trkpt><trkpt lat="45.9469346" lon="10.59166"><ele>952.0</ele><time>2026-05-02T13:18:13.796Z</time></trkpt><trkpt lat="45.946871" lon="10.5917324"><ele>951.9999999999999</ele><time>2026-05-02T13:18:14.796Z</time></trkpt><trkpt lat="45.9468007" lon="10.5918071"><ele>952.0</ele><time>2026-05-02T13:18:15.796Z</time></trkpt><trkpt lat="45.946749" lon="10.5918881"><ele>952.0</ele><time>2026-05-02T13:18:16.796Z</time></trkpt><trkpt lat="45.9467174" lon="10.5919746"><ele>952.0</ele><time>2026-05-02T13:18:17.796Z</time></trkpt><trkpt lat="45.9467122" lon="10.5920887"><ele>951.9999999999999</ele><time>2026-05-02T13:18:18.796Z</time></trkpt><trkpt lat="45.9467307" lon="10.592216"><ele>952.0</ele><time>2026-05-02T13:18:19.796Z</time></trkpt><trkpt lat="45.9467626" lon="10.5923476"><ele>949.4000000000001</ele><time>2026-05-02T13:18:20.796Z</time></trkpt><trkpt lat="45.9467837" lon="10.5924785"><ele>946.8000000000001</ele><time>2026-05-02T13:18:21.796Z</time></trkpt><trkpt lat="45.9467943" lon="10.5926117"><ele>944.2</ele><time>2026-05-02T13:18:22.796Z</time></trkpt><trkpt lat="45.9467927" lon="10.5927508"><ele>941.6</ele><time>2026-05-02T13:18:23.796Z</time></trkpt><trkpt lat="45.9467941" lon="10.5929092"><ele>939.0</ele><time>2026-05-02T13:18:24.796Z</time></trkpt><trkpt lat="45.9467887" lon="10.5930649"><ele>936.5</ele><time>2026-05-02T13:18:25.796Z</time></trkpt><trkpt lat="45.9467703" lon="10.5932151"><ele>934.0</ele><time>2026-05-02T13:18:26.796Z</time></trkpt><trkpt lat="45.9467469" lon="10.5933503"><ele>931.5</ele><time>2026-05-02T13:18:27.796Z</time></trkpt><trkpt lat="45.9467162" lon="10.5934641"><ele>929.0</ele><time>2026-05-02T13:18:28.796Z</time></trkpt><trkpt lat="45.9466664" lon="10.593546"><ele>926.5</ele><time>2026-05-02T13:18:29.796Z</time></trkpt><trkpt lat="45.946605" lon="10.5935975"><ele>924.0</ele><time>2026-05-02T13:18:30.796Z</time></trkpt><trkpt lat="45.9465347" lon="10.5936424"><ele>928.8000000000001</ele><time>2026-05-02T13:18:31.796Z</time></trkpt><trkpt lat="45.9464555" lon="10.5936978"><ele>933.6000000000001</ele><time>2026-05-02T13:18:32.796Z</time></trkpt><trkpt lat="45.946392" lon="10.5937881"><ele>938.4</ele><time>2026-05-02T13:18:33.796Z</time></trkpt><trkpt lat="45.9463514" lon="10.5939062"><ele>943.2</ele><time>2026-05-02T13:18:34.796Z</time></trkpt><trkpt lat="45.9463305" lon="10.594046"><ele>948.0</ele><time>2026-05-02T13:18:35.796Z</time></trkpt><trkpt lat="45.9463241" lon="10.5942004"><ele>948.0</ele><time>2026-05-02T13:18:36.796Z</time></trkpt><trkpt lat="45.9463169" lon="10.5943591"><ele>948.0</ele><time>2026-05-02T13:18:37.796Z</time></trkpt><trkpt lat="45.946302" lon="10.5945155"><ele>948.0</ele><time>2026-05-02T13:18:38.796Z</time></trkpt><trkpt lat="45.9462833" lon="10.5946681"><ele>948.0</ele><time>2026-05-02T13:18:39.796Z</time></trkpt><trkpt lat="45.9462717" lon="10.5948245"><ele>948.0</ele><time>2026-05-02T13:18:40.796Z</time></trkpt><trkpt lat="45.9462735" lon="10.5949747"><ele>944.2</ele><time>2026-05-02T13:18:41.796Z</time></trkpt><trkpt lat="45.9462816" lon="10.5951365"><ele>940.4</ele><time>2026-05-02T13:18:42.797Z</time></trkpt><trkpt lat="45.9462757" lon="10.5952979"><ele>936.6000000000001</ele><time>2026-05-02T13:18:43.796Z</time></trkpt><trkpt lat="45.9462717" lon="10.5954534"><ele>932.8000000000001</ele><time>2026-05-02T13:18:44.796Z</time></trkpt><trkpt lat="45.9462732" lon="10.5956086"><ele>929.0</ele><time>2026-05-02T13:18:45.796Z</time></trkpt><trkpt lat="45.9462816" lon="10.5957662"><ele>926.5</ele><time>2026-05-02T13:18:46.796Z</time></trkpt><trkpt lat="45.9462984" lon="10.5959269"><ele>924.0</ele><time>2026-05-02T13:18:47.796Z</time></trkpt><trkpt lat="45.9463071" lon="10.5960958"><ele>921.5</ele><time>2026-05-02T13:18:48.796Z</time></trkpt><trkpt lat="45.9463048" lon="10.596266"><ele>919.0</ele><time>2026-05-02T13:18:49.796Z</time></trkpt><trkpt lat="45.9462812" lon="10.5964366"><ele>915.75</ele><time>2026-05-02T13:18:50.796Z</time></trkpt><trkpt lat="45.9462387" lon="10.5966068"><ele>912.5</ele><time>2026-05-02T13:18:51.796Z</time></trkpt><trkpt lat="45.9461988" lon="10.5967753"><ele>909.25</ele><time>2026-05-02T13:18:52.796Z</time></trkpt><trkpt lat="45.946156" lon="10.5969234"><ele>906.0</ele><time>2026-05-02T13:18:53.796Z</time></trkpt><trkpt lat="45.9461023" lon="10.5970583"><ele>904.0</ele><time>2026-05-02T13:18:54.796Z</time></trkpt><trkpt lat="45.946042" lon="10.5971894"><ele>902.0</ele><time>2026-05-02T13:18:55.796Z</time></trkpt><trkpt lat="45.9459981" lon="10.597337"><ele>900.0</ele><time>2026-05-02T13:18:56.796Z</time></trkpt><trkpt lat="45.9459759" lon="10.5975001"><ele>898.0</ele><time>2026-05-02T13:18:57.796Z</time></trkpt><trkpt lat="45.9459588" lon="10.5976695"><ele>898.0</ele><time>2026-05-02T13:18:58.796Z</time></trkpt><trkpt lat="45.9459354" lon="10.5978305"><ele>898.0</ele><time>2026-05-02T13:18:59.796Z</time></trkpt><trkpt lat="45.9459066" lon="10.5979979"><ele>898.0</ele><time>2026-05-02T13:19:00.796Z</time></trkpt><trkpt lat="45.9458712" lon="10.5981687"><ele>898.0</ele><time>2026-05-02T13:19:01.796Z</time></trkpt><trkpt lat="45.9458369" lon="10.5983405"><ele>902.0</ele><time>2026-05-02T13:19:02.796Z</time></trkpt><trkpt lat="45.9458068" lon="10.5985148"><ele>906.0</ele><time>2026-05-02T13:19:03.796Z</time></trkpt><trkpt lat="45.9457783" lon="10.5986796"><ele>910.0</ele><time>2026-05-02T13:19:04.796Z</time></trkpt><trkpt lat="45.9457332" lon="10.5988301"><ele>914.0</ele><time>2026-05-02T13:19:05.796Z</time></trkpt><trkpt lat="45.9456817" lon="10.5989818"><ele>914.0</ele><time>2026-05-02T13:19:06.796Z</time></trkpt><trkpt lat="45.9456296" lon="10.5991394"><ele>914.0</ele><time>2026-05-02T13:19:07.796Z</time></trkpt><trkpt lat="45.9455831" lon="10.5993093"><ele>914.0</ele><time>2026-05-02T13:19:08.796Z</time></trkpt><trkpt lat="45.9455575" lon="10.5994962"><ele>914.0</ele><time>2026-05-02T13:19:09.796Z</time></trkpt><trkpt lat="45.9455494" lon="10.5996806"><ele>911.0</ele><time>2026-05-02T13:19:10.796Z</time></trkpt><trkpt lat="45.9455655" lon="10.5998689"><ele>908.0</ele><time>2026-05-02T13:19:11.796Z</time></trkpt><trkpt lat="45.9455809" lon="10.6000514"><ele>905.0</ele><time>2026-05-02T13:19:12.796Z</time></trkpt><trkpt lat="45.9456069" lon="10.6002196"><ele>902.0</ele><time>2026-05-02T13:19:13.796Z</time></trkpt><trkpt lat="45.945651" lon="10.6003878"><ele>901.0</ele><time>2026-05-02T13:19:14.796Z</time></trkpt><trkpt lat="45.9456984" lon="10.6005533"><ele>900.0</ele><time>2026-05-02T13:19:15.796Z</time></trkpt><trkpt lat="45.9457322" lon="10.6007291"><ele>899.0</ele><time>2026-05-02T13:19:16.796Z</time></trkpt><trkpt lat="45.9457577" lon="10.6009159"><ele>898.0</ele><time>2026-05-02T13:19:17.796Z</time></trkpt><trkpt lat="45.9457841" lon="10.6010989"><ele>897.0</ele><time>2026-05-02T13:19:18.796Z</time></trkpt><trkpt lat="45.9458072" lon="10.6012825"><ele>896.0</ele><time>2026-05-02T13:19:19.796Z</time></trkpt><trkpt lat="45.9458363" lon="10.6014676"><ele>895.0</ele><time>2026-05-02T13:19:20.796Z</time></trkpt><trkpt lat="45.9458621" lon="10.6016516"><ele>894.0</ele><time>2026-05-02T13:19:21.796Z</time></trkpt><trkpt lat="45.9458765" lon="10.601827"><ele>891.0</ele><time>2026-05-02T13:19:22.796Z</time></trkpt><trkpt lat="45.9458791" lon="10.6019849"><ele>888.0000000000001</ele><time>2026-05-02T13:19:23.796Z</time></trkpt><trkpt lat="45.9458784" lon="10.6021322"><ele>885.0000000000001</ele><time>2026-05-02T13:19:24.796Z</time></trkpt><trkpt lat="45.9458693" lon="10.6022571"><ele>882.0</ele><time>2026-05-02T13:19:25.796Z</time></trkpt><trkpt lat="45.9458557" lon="10.6023706"><ele>879.0</ele><time>2026-05-02T13:19:26.796Z</time></trkpt><trkpt lat="45.945834" lon="10.6024671"><ele>879.0</ele><time>2026-05-02T13:19:27.796Z</time></trkpt><trkpt lat="45.9457437" lon="10.6025713"><ele>879.0000000000001</ele><time>2026-05-02T13:19:29.796Z</time></trkpt><trkpt lat="45.9456736" lon="10.6025874"><ele>879.0000000000001</ele><time>2026-05-02T13:19:30.796Z</time></trkpt><trkpt lat="45.9455732" lon="10.602671"><ele>879.0</ele><time>2026-05-02T13:19:32.796Z</time></trkpt><trkpt lat="45.9455574" lon="10.6028722"><ele>879.0</ele><time>2026-05-02T13:19:34.796Z</time></trkpt><trkpt lat="45.9455741" lon="10.6030122"><ele>875.2</ele><time>2026-05-02T13:19:35.796Z</time></trkpt><trkpt lat="45.9455972" lon="10.6031697"><ele>871.4000000000001</ele><time>2026-05-02T13:19:36.796Z</time></trkpt><trkpt lat="45.9455944" lon="10.603322"><ele>867.6</ele><time>2026-05-02T13:19:37.796Z</time></trkpt><trkpt lat="45.9455615" lon="10.6034605"><ele>863.8</ele><time>2026-05-02T13:19:38.796Z</time></trkpt><trkpt lat="45.9455145" lon="10.6035942"><ele>860.0</ele><time>2026-05-02T13:19:39.796Z</time></trkpt><trkpt lat="45.9454488" lon="10.6037239"><ele>856.2</ele><time>2026-05-02T13:19:40.796Z</time></trkpt><trkpt lat="45.9453811" lon="10.6038471"><ele>852.4</ele><time>2026-05-02T13:19:41.796Z</time></trkpt><trkpt lat="45.9453153" lon="10.603975"><ele>848.5999999999999</ele><time>2026-05-02T13:19:42.796Z</time></trkpt><trkpt lat="45.9452479" lon="10.6041097"><ele>844.8</ele><time>2026-05-02T13:19:43.796Z</time></trkpt><trkpt lat="45.945175" lon="10.6042346"><ele>841.0</ele><time>2026-05-02T13:19:44.796Z</time></trkpt><trkpt lat="45.9450918" lon="10.6043492"><ele>844.25</ele><time>2026-05-02T13:19:45.796Z</time></trkpt><trkpt lat="45.9450029" lon="10.6044649"><ele>847.5</ele><time>2026-05-02T13:19:46.796Z</time></trkpt><trkpt lat="45.9449254" lon="10.6045881"><ele>850.75</ele><time>2026-05-02T13:19:47.797Z</time></trkpt><trkpt lat="45.94486" lon="10.6047045"><ele>854.0</ele><time>2026-05-02T13:19:48.796Z</time></trkpt><trkpt lat="45.9448044" lon="10.6048416"><ele>854.0</ele><time>2026-05-02T13:19:49.796Z</time></trkpt><trkpt lat="45.9447505" lon="10.6050033"><ele>854.0</ele><time>2026-05-02T13:19:50.796Z</time></trkpt><trkpt lat="45.9446924" lon="10.6051736"><ele>854.0</ele><time>2026-05-02T13:19:51.796Z</time></trkpt><trkpt lat="45.944627" lon="10.6053532"><ele>854.0</ele><time>2026-05-02T13:19:52.796Z</time></trkpt><trkpt lat="45.9445691" lon="10.6055235"><ele>847.25</ele><time>2026-05-02T13:19:53.796Z</time></trkpt><trkpt lat="45.9445199" lon="10.6056835"><ele>840.5</ele><time>2026-05-02T13:19:54.796Z</time></trkpt><trkpt lat="45.9444827" lon="10.6058307"><ele>833.75</ele><time>2026-05-02T13:19:55.796Z</time></trkpt><trkpt lat="45.944451" lon="10.6059961"><ele>827.0</ele><time>2026-05-02T13:19:56.796Z</time></trkpt><trkpt lat="45.9444157" lon="10.6061422"><ele>829.2</ele><time>2026-05-02T13:19:57.796Z</time></trkpt><trkpt lat="45.94437" lon="10.6062528"><ele>831.4000000000001</ele><time>2026-05-02T13:19:58.796Z</time></trkpt><trkpt lat="45.9443083" lon="10.606347"><ele>833.5999999999999</ele><time>2026-05-02T13:19:59.796Z</time></trkpt><trkpt lat="45.9442361" lon="10.6064334"><ele>835.8</ele><time>2026-05-02T13:20:00.796Z</time></trkpt><trkpt lat="45.9441615" lon="10.6065274"><ele>838.0</ele><time>2026-05-02T13:20:01.796Z</time></trkpt><trkpt lat="45.9440756" lon="10.6066222"><ele>838.0</ele><time>2026-05-02T13:20:02.796Z</time></trkpt><trkpt lat="45.944002" lon="10.6067237"><ele>838.0</ele><time>2026-05-02T13:20:03.796Z</time></trkpt><trkpt lat="45.943938" lon="10.6068433"><ele>838.0</ele><time>2026-05-02T13:20:04.796Z</time></trkpt><trkpt lat="45.9438881" lon="10.6069815"><ele>838.0</ele><time>2026-05-02T13:20:05.796Z</time></trkpt><trkpt lat="45.9438575" lon="10.6071401"><ele>838.0</ele><time>2026-05-02T13:20:06.796Z</time></trkpt><trkpt lat="45.9438284" lon="10.6073004"><ele>831.25</ele><time>2026-05-02T13:20:07.796Z</time></trkpt><trkpt lat="45.9438025" lon="10.6074627"><ele>824.5</ele><time>2026-05-02T13:20:08.796Z</time></trkpt><trkpt lat="45.9437836" lon="10.6076297"><ele>817.75</ele><time>2026-05-02T13:20:09.796Z</time></trkpt><trkpt lat="45.9437769" lon="10.6077988"><ele>811.0</ele><time>2026-05-02T13:20:10.796Z</time></trkpt><trkpt lat="45.9437882" lon="10.6079635"><ele>808.25</ele><time>2026-05-02T13:20:11.796Z</time></trkpt><trkpt lat="45.9437922" lon="10.6081414"><ele>805.5</ele><time>2026-05-02T13:20:12.796Z</time></trkpt><trkpt lat="45.9437951" lon="10.608313"><ele>802.75</ele><time>2026-05-02T13:20:13.796Z</time></trkpt><trkpt lat="45.9438026" lon="10.6084856"><ele>800.0</ele><time>2026-05-02T13:20:14.796Z</time></trkpt><trkpt lat="45.9438073" lon="10.6086546"><ele>798.2</ele><time>2026-05-02T13:20:15.796Z</time></trkpt><trkpt lat="45.9438059" lon="10.6088165"><ele>796.4</ele><time>2026-05-02T13:20:16.796Z</time></trkpt><trkpt lat="45.9437998" lon="10.6089647"><ele>794.5999999999999</ele><time>2026-05-02T13:20:17.796Z</time></trkpt><trkpt lat="45.9437734" lon="10.6090972"><ele>792.8</ele><time>2026-05-02T13:20:18.796Z</time></trkpt><trkpt lat="45.9437361" lon="10.6092137"><ele>791.0</ele><time>2026-05-02T13:20:19.796Z</time></trkpt><trkpt lat="45.9436829" lon="10.6093134"><ele>791.0000000000001</ele><time>2026-05-02T13:20:20.796Z</time></trkpt><trkpt lat="45.9436482" lon="10.6094059"><ele>791.0</ele><time>2026-05-02T13:20:21.796Z</time></trkpt><trkpt lat="45.9436128" lon="10.609516"><ele>791.0</ele><time>2026-05-02T13:20:23.796Z</time></trkpt><trkpt lat="45.9437002" lon="10.6095"><ele>791.0</ele><time>2026-05-02T13:20:28.796Z</time></trkpt><trkpt lat="45.9437816" lon="10.6093981"><ele>791.0000000000001</ele><time>2026-05-02T13:20:30.796Z</time></trkpt><trkpt lat="45.9438412" lon="10.6093333"><ele>791.0</ele><time>2026-05-02T13:20:31.796Z</time></trkpt><trkpt lat="45.9439094" lon="10.6092317"><ele>791.0</ele><time>2026-05-02T13:20:32.796Z</time></trkpt><trkpt lat="45.943997" lon="10.6091013"><ele>791.0</ele><time>2026-05-02T13:20:33.796Z</time></trkpt><trkpt lat="45.9440837" lon="10.6089602"><ele>791.0</ele><time>2026-05-02T13:20:34.796Z</time></trkpt><trkpt lat="45.9441526" lon="10.6088136"><ele>791.0</ele><time>2026-05-02T13:20:35.796Z</time></trkpt><trkpt lat="45.9442273" lon="10.6086668"><ele>785.5999999999999</ele><time>2026-05-02T13:20:36.796Z</time></trkpt><trkpt lat="45.944303" lon="10.6085354"><ele>780.2</ele><time>2026-05-02T13:20:37.796Z</time></trkpt><trkpt lat="45.9443732" lon="10.6084065"><ele>774.8</ele><time>2026-05-02T13:20:38.796Z</time></trkpt><trkpt lat="45.9444352" lon="10.6082916"><ele>769.4000000000001</ele><time>2026-05-02T13:20:39.796Z</time></trkpt><trkpt lat="45.9444927" lon="10.6081806"><ele>764.0</ele><time>2026-05-02T13:20:40.796Z</time></trkpt><trkpt lat="45.9445658" lon="10.6080875"><ele>764.0</ele><time>2026-05-02T13:20:41.796Z</time></trkpt><trkpt lat="45.9446489" lon="10.6080009"><ele>764.0</ele><time>2026-05-02T13:20:42.796Z</time></trkpt><trkpt lat="45.944741" lon="10.6079281"><ele>764.0</ele><time>2026-05-02T13:20:43.796Z</time></trkpt><trkpt lat="45.9448318" lon="10.6078561"><ele>764.0</ele><time>2026-05-02T13:20:44.796Z</time></trkpt><trkpt lat="45.9449141" lon="10.6077749"><ele>764.0</ele><time>2026-05-02T13:20:45.796Z</time></trkpt><trkpt lat="45.9449899" lon="10.6076767"><ele>757.0</ele><time>2026-05-02T13:20:46.796Z</time></trkpt><trkpt lat="45.9450697" lon="10.607572"><ele>750.0</ele><time>2026-05-02T13:20:47.796Z</time></trkpt><trkpt lat="45.9451458" lon="10.6074504"><ele>743.0</ele><time>2026-05-02T13:20:48.796Z</time></trkpt><trkpt lat="45.9452198" lon="10.6073233"><ele>736.0</ele><time>2026-05-02T13:20:49.796Z</time></trkpt><trkpt lat="45.9452982" lon="10.6071867"><ele>736.0</ele><time>2026-05-02T13:20:50.796Z</time></trkpt><trkpt lat="45.945373" lon="10.6070566"><ele>736.0</ele><time>2026-05-02T13:20:51.796Z</time></trkpt><trkpt lat="45.9454511" lon="10.6069262"><ele>736.0</ele><time>2026-05-02T13:20:52.796Z</time></trkpt><trkpt lat="45.9455308" lon="10.6067979"><ele>736.0</ele><time>2026-05-02T13:20:53.796Z</time></trkpt><trkpt lat="45.9456063" lon="10.6066881"><ele>732.1999999999999</ele><time>2026-05-02T13:20:54.796Z</time></trkpt><trkpt lat="45.9456877" lon="10.606585"><ele>728.4</ele><time>2026-05-02T13:20:55.796Z</time></trkpt><trkpt lat="45.9457718" lon="10.6064863"><ele>724.6</ele><time>2026-05-02T13:20:56.796Z</time></trkpt><trkpt lat="45.9458554" lon="10.6063937"><ele>720.8</ele><time>2026-05-02T13:20:57.796Z</time></trkpt><trkpt lat="45.9459376" lon="10.6062954"><ele>717.0</ele><time>2026-05-02T13:20:58.796Z</time></trkpt><trkpt lat="45.946022" lon="10.6061932"><ele>718.75</ele><time>2026-05-02T13:20:59.796Z</time></trkpt><trkpt lat="45.9461082" lon="10.6060785"><ele>720.5</ele><time>2026-05-02T13:21:00.796Z</time></trkpt><trkpt lat="45.9461906" lon="10.605939"><ele>722.25</ele><time>2026-05-02T13:21:01.796Z</time></trkpt><trkpt lat="45.9462556" lon="10.6057913"><ele>724.0</ele><time>2026-05-02T13:21:02.796Z</time></trkpt><trkpt lat="45.9463128" lon="10.6056375"><ele>724.0</ele><time>2026-05-02T13:21:03.796Z</time></trkpt><trkpt lat="45.9463805" lon="10.6054867"><ele>724.0</ele><time>2026-05-02T13:21:04.796Z</time></trkpt><trkpt lat="45.9464568" lon="10.6053449"><ele>724.0</ele><time>2026-05-02T13:21:05.796Z</time></trkpt><trkpt lat="45.9465403" lon="10.6052058"><ele>724.0</ele><time>2026-05-02T13:21:06.796Z</time></trkpt><trkpt lat="45.946619" lon="10.6050742"><ele>721.6</ele><time>2026-05-02T13:21:07.796Z</time></trkpt><trkpt lat="45.9467009" lon="10.6049642"><ele>719.2</ele><time>2026-05-02T13:21:08.796Z</time></trkpt><trkpt lat="45.9467835" lon="10.6048665"><ele>716.8000000000001</ele><time>2026-05-02T13:21:09.796Z</time></trkpt><trkpt lat="45.9468643" lon="10.6047991"><ele>714.4000000000001</ele><time>2026-05-02T13:21:10.796Z</time></trkpt><trkpt lat="45.9469533" lon="10.6047551"><ele>712.0</ele><time>2026-05-02T13:21:11.796Z</time></trkpt><trkpt lat="45.9470444" lon="10.604738"><ele>712.0</ele><time>2026-05-02T13:21:12.796Z</time></trkpt><trkpt lat="45.9471271" lon="10.6047213"><ele>712.0</ele><time>2026-05-02T13:21:13.796Z</time></trkpt><trkpt lat="45.9471894" lon="10.6046883"><ele>712.0</ele><time>2026-05-02T13:21:14.796Z</time></trkpt><trkpt lat="45.947291" lon="10.6046098"><ele>712.0</ele><time>2026-05-02T13:21:16.796Z</time></trkpt><trkpt lat="45.9474112" lon="10.6046054"><ele>712.0</ele><time>2026-05-02T13:21:18.796Z</time></trkpt><trkpt lat="45.9474873" lon="10.6046388"><ele>711.8</ele><time>2026-05-02T13:21:19.796Z</time></trkpt><trkpt lat="45.9475739" lon="10.6046814"><ele>711.6</ele><time>2026-05-02T13:21:20.796Z</time></trkpt><trkpt lat="45.9476629" lon="10.6047181"><ele>711.4</ele><time>2026-05-02T13:21:21.796Z</time></trkpt><trkpt lat="45.9477563" lon="10.6047524"><ele>711.1999999999999</ele><time>2026-05-02T13:21:22.796Z</time></trkpt><trkpt lat="45.9478544" lon="10.6047846"><ele>711.0</ele><time>2026-05-02T13:21:23.796Z</time></trkpt><trkpt lat="45.9479492" lon="10.6048191"><ele>711.0</ele><time>2026-05-02T13:21:24.796Z</time></trkpt><trkpt lat="45.94804" lon="10.6048464"><ele>711.0</ele><time>2026-05-02T13:21:25.796Z</time></trkpt><trkpt lat="45.9481235" lon="10.6048678"><ele>711.0</ele><time>2026-05-02T13:21:26.796Z</time></trkpt><trkpt lat="45.9482019" lon="10.6048929"><ele>711.0</ele><time>2026-05-02T13:21:27.796Z</time></trkpt><trkpt lat="45.9482675" lon="10.6049152"><ele>711.0</ele><time>2026-05-02T13:21:28.796Z</time></trkpt><trkpt lat="45.948361" lon="10.6049518"><ele>711.0</ele><time>2026-05-02T13:21:30.796Z</time></trkpt><trkpt lat="45.9484407" lon="10.6049647"><ele>714.8333333333334</ele><time>2026-05-02T13:21:33.796Z</time></trkpt><trkpt lat="45.9484954" lon="10.6050646"><ele>718.6666666666666</ele><time>2026-05-02T13:21:44.796Z</time></trkpt><trkpt lat="45.9485334" lon="10.6051589"><ele>722.5</ele><time>2026-05-02T13:21:45.796Z</time></trkpt><trkpt lat="45.9485756" lon="10.6052714"><ele>726.3333333333333</ele><time>2026-05-02T13:21:46.796Z</time></trkpt><trkpt lat="45.948623" lon="10.6053969"><ele>730.1666666666666</ele><time>2026-05-02T13:21:47.796Z</time></trkpt><trkpt lat="45.9486594" lon="10.6055228"><ele>734.0</ele><time>2026-05-02T13:21:48.796Z</time></trkpt><trkpt lat="45.9486891" lon="10.6056429"><ele>735.2</ele><time>2026-05-02T13:21:49.796Z</time></trkpt><trkpt lat="45.9487129" lon="10.6057622"><ele>736.4000000000001</ele><time>2026-05-02T13:21:50.796Z</time></trkpt><trkpt lat="45.9487293" lon="10.6058808"><ele>737.6</ele><time>2026-05-02T13:21:51.796Z</time></trkpt><trkpt lat="45.94874" lon="10.6060112"><ele>738.8</ele><time>2026-05-02T13:21:52.797Z</time></trkpt><trkpt lat="45.9487513" lon="10.6061526"><ele>740.0</ele><time>2026-05-02T13:21:53.796Z</time></trkpt><trkpt lat="45.9487609" lon="10.6063114"><ele>742.25</ele><time>2026-05-02T13:21:54.796Z</time></trkpt><trkpt lat="45.9487691" lon="10.6064805"><ele>744.5</ele><time>2026-05-02T13:21:55.796Z</time></trkpt><trkpt lat="45.9487775" lon="10.6066785"><ele>746.75</ele><time>2026-05-02T13:21:56.796Z</time></trkpt><trkpt lat="45.948783" lon="10.6068972"><ele>749.0</ele><time>2026-05-02T13:21:57.796Z</time></trkpt><trkpt lat="45.9487921" lon="10.6071301"><ele>752.6666666666666</ele><time>2026-05-02T13:21:58.796Z</time></trkpt><trkpt lat="45.9488091" lon="10.6073746"><ele>756.3333333333334</ele><time>2026-05-02T13:21:59.796Z</time></trkpt><trkpt lat="45.9488306" lon="10.6076202"><ele>760.0</ele><time>2026-05-02T13:22:00.796Z</time></trkpt><trkpt lat="45.9488472" lon="10.6078857"><ele>760.0</ele><time>2026-05-02T13:22:01.796Z</time></trkpt><trkpt lat="45.9488503" lon="10.6081658"><ele>760.0</ele><time>2026-05-02T13:22:02.796Z</time></trkpt><trkpt lat="45.9488412" lon="10.6084381"><ele>760.0</ele><time>2026-05-02T13:22:03.796Z</time></trkpt><trkpt lat="45.9488179" lon="10.6087138"><ele>763.0</ele><time>2026-05-02T13:22:04.796Z</time></trkpt><trkpt lat="45.9487341" lon="10.6092204"><ele>766.0</ele><time>2026-05-02T13:22:06.796Z</time></trkpt><trkpt lat="45.9486698" lon="10.6094689"><ele>769.0</ele><time>2026-05-02T13:22:07.796Z</time></trkpt><trkpt lat="45.9485763" lon="10.6096805"><ele>772.0</ele><time>2026-05-02T13:22:08.796Z</time></trkpt><trkpt lat="45.9484767" lon="10.6098701"><ele>775.0</ele><time>2026-05-02T13:22:09.796Z</time></trkpt><trkpt lat="45.9483715" lon="10.6100641"><ele>764.6666666666666</ele><time>2026-05-02T13:22:10.796Z</time></trkpt><trkpt lat="45.9482731" lon="10.6102464"><ele>754.3333333333333</ele><time>2026-05-02T13:22:11.796Z</time></trkpt><trkpt lat="45.9481726" lon="10.6104147"><ele>744.0</ele><time>2026-05-02T13:22:12.796Z</time></trkpt><trkpt lat="45.9480845" lon="10.6105787"><ele>744.0</ele><time>2026-05-02T13:22:13.796Z</time></trkpt><trkpt lat="45.9480282" lon="10.6107457"><ele>744.0</ele><time>2026-05-02T13:22:14.796Z</time></trkpt><trkpt lat="45.9480017" lon="10.610913"><ele>744.0</ele><time>2026-05-02T13:22:15.796Z</time></trkpt><trkpt lat="45.9479961" lon="10.6112789"><ele>747.75</ele><time>2026-05-02T13:22:17.796Z</time></trkpt><trkpt lat="45.9479982" lon="10.6114705"><ele>751.5</ele><time>2026-05-02T13:22:18.796Z</time></trkpt><trkpt lat="45.9480171" lon="10.6116819"><ele>755.25</ele><time>2026-05-02T13:22:19.796Z</time></trkpt><trkpt lat="45.9480326" lon="10.6118921"><ele>759.0</ele><time>2026-05-02T13:22:20.796Z</time></trkpt><trkpt lat="45.9480458" lon="10.6120953"><ele>759.0</ele><time>2026-05-02T13:22:21.796Z</time></trkpt><trkpt lat="45.9480541" lon="10.6122999"><ele>759.0</ele><time>2026-05-02T13:22:22.796Z</time></trkpt><trkpt lat="45.9480598" lon="10.612513"><ele>759.0</ele><time>2026-05-02T13:22:23.796Z</time></trkpt><trkpt lat="45.9480676" lon="10.6127309"><ele>759.0</ele><time>2026-05-02T13:22:24.796Z</time></trkpt><trkpt lat="45.9480746" lon="10.6129551"><ele>763.5</ele><time>2026-05-02T13:22:25.796Z</time></trkpt><trkpt lat="45.9480784" lon="10.6131761"><ele>768.0</ele><time>2026-05-02T13:22:26.796Z</time></trkpt><trkpt lat="45.9480291" lon="10.6136541"><ele>776.3333333333333</ele><time>2026-05-02T13:22:28.796Z</time></trkpt><trkpt lat="45.9479825" lon="10.6139015"><ele>784.6666666666666</ele><time>2026-05-02T13:22:29.796Z</time></trkpt><trkpt lat="45.9479281" lon="10.6141464"><ele>793.0</ele><time>2026-05-02T13:22:30.796Z</time></trkpt><trkpt lat="45.9478685" lon="10.6143814"><ele>798.3333333333333</ele><time>2026-05-02T13:22:31.796Z</time></trkpt><trkpt lat="45.9478115" lon="10.6146023"><ele>803.6666666666667</ele><time>2026-05-02T13:22:32.796Z</time></trkpt><trkpt lat="45.9477623" lon="10.6148174"><ele>809.0</ele><time>2026-05-02T13:22:33.796Z</time></trkpt><trkpt lat="45.9477054" lon="10.6150298"><ele>809.0</ele><time>2026-05-02T13:22:34.796Z</time></trkpt><trkpt lat="45.9476493" lon="10.6152081"><ele>809.0</ele><time>2026-05-02T13:22:35.796Z</time></trkpt><trkpt lat="45.9475632" lon="10.6153694"><ele>809.0</ele><time>2026-05-02T13:22:36.796Z</time></trkpt><trkpt lat="45.947502" lon="10.615527"><ele>809.0</ele><time>2026-05-02T13:22:37.796Z</time></trkpt><trkpt lat="45.9474513" lon="10.6156725"><ele>801.75</ele><time>2026-05-02T13:22:38.796Z</time></trkpt><trkpt lat="45.9474095" lon="10.6158291"><ele>794.5</ele><time>2026-05-02T13:22:39.796Z</time></trkpt><trkpt lat="45.9473732" lon="10.6159997"><ele>787.25</ele><time>2026-05-02T13:22:40.796Z</time></trkpt><trkpt lat="45.9473349" lon="10.6161675"><ele>780.0</ele><time>2026-05-02T13:22:41.796Z</time></trkpt><trkpt lat="45.9472993" lon="10.6163349"><ele>780.0</ele><time>2026-05-02T13:22:42.796Z</time></trkpt><trkpt lat="45.9472548" lon="10.6164995"><ele>780.0</ele><time>2026-05-02T13:22:43.796Z</time></trkpt><trkpt lat="45.9472164" lon="10.6166526"><ele>780.0</ele><time>2026-05-02T13:22:44.796Z</time></trkpt><trkpt lat="45.947186" lon="10.6167847"><ele>780.0</ele><time>2026-05-02T13:22:45.796Z</time></trkpt><trkpt lat="45.9471683" lon="10.6169026"><ele>780.0</ele><time>2026-05-02T13:22:46.796Z</time></trkpt><trkpt lat="45.9471591" lon="10.6169982"><ele>780.0</ele><time>2026-05-02T13:22:47.796Z</time></trkpt><trkpt lat="45.9471853" lon="10.6171521"><ele>780.0</ele><time>2026-05-02T13:22:49.796Z</time></trkpt><trkpt lat="45.9472432" lon="10.6172133"><ele>780.0</ele><time>2026-05-02T13:22:51.796Z</time></trkpt><trkpt lat="45.9473124" lon="10.6171153"><ele>780.0</ele><time>2026-05-02T13:22:55.796Z</time></trkpt><trkpt lat="45.9473589" lon="10.6168941"><ele>780.0</ele><time>2026-05-02T13:22:57.796Z</time></trkpt><trkpt lat="45.9473884" lon="10.6167191"><ele>780.0</ele><time>2026-05-02T13:22:58.796Z</time></trkpt><trkpt lat="45.947426" lon="10.6165087"><ele>780.0</ele><time>2026-05-02T13:22:59.796Z</time></trkpt><trkpt lat="45.947477" lon="10.6162918"><ele>780.0</ele><time>2026-05-02T13:23:00.796Z</time></trkpt><trkpt lat="45.9475321" lon="10.6160813"><ele>787.25</ele><time>2026-05-02T13:23:01.796Z</time></trkpt><trkpt lat="45.947585" lon="10.6158812"><ele>794.5</ele><time>2026-05-02T13:23:02.796Z</time></trkpt><trkpt lat="45.9476367" lon="10.6156892"><ele>801.75</ele><time>2026-05-02T13:23:03.796Z</time></trkpt><trkpt lat="45.9476909" lon="10.615509"><ele>809.0</ele><time>2026-05-02T13:23:04.796Z</time></trkpt><trkpt lat="45.9478517" lon="10.6151658"><ele>809.0</ele><time>2026-05-02T13:23:06.796Z</time></trkpt><trkpt lat="45.9479325" lon="10.6149708"><ele>809.0</ele><time>2026-05-02T13:23:07.796Z</time></trkpt><trkpt lat="45.9480014" lon="10.6147576"><ele>809.0</ele><time>2026-05-02T13:23:08.796Z</time></trkpt><trkpt lat="45.9480646" lon="10.6145295"><ele>803.6666666666667</ele><time>2026-05-02T13:23:09.796Z</time></trkpt><trkpt lat="45.9481378" lon="10.614296"><ele>798.3333333333333</ele><time>2026-05-02T13:23:10.796Z</time></trkpt><trkpt lat="45.9482192" lon="10.6140643"><ele>793.0</ele><time>2026-05-02T13:23:11.796Z</time></trkpt><trkpt lat="45.9483128" lon="10.6138337"><ele>809.6666666666666</ele><time>2026-05-02T13:23:12.796Z</time></trkpt><trkpt lat="45.9484083" lon="10.6135965"><ele>826.3333333333333</ele><time>2026-05-02T13:23:13.796Z</time></trkpt><trkpt lat="45.9484963" lon="10.6133515"><ele>843.0</ele><time>2026-05-02T13:23:14.796Z</time></trkpt><trkpt lat="45.9485775" lon="10.6131005"><ele>843.0</ele><time>2026-05-02T13:23:15.796Z</time></trkpt><trkpt lat="45.9486657" lon="10.6128433"><ele>843.0</ele><time>2026-05-02T13:23:16.796Z</time></trkpt><trkpt lat="45.9487647" lon="10.612603"><ele>843.0</ele><time>2026-05-02T13:23:17.796Z</time></trkpt><trkpt lat="45.948866" lon="10.612378"><ele>830.3333333333333</ele><time>2026-05-02T13:23:18.796Z</time></trkpt><trkpt lat="45.9489445" lon="10.6121765"><ele>817.6666666666666</ele><time>2026-05-02T13:23:19.796Z</time></trkpt><trkpt lat="45.9489896" lon="10.6119522"><ele>805.0</ele><time>2026-05-02T13:23:20.796Z</time></trkpt><trkpt lat="45.9490145" lon="10.6117336"><ele>802.3333333333333</ele><time>2026-05-02T13:23:21.796Z</time></trkpt><trkpt lat="45.9490492" lon="10.6115338"><ele>799.6666666666667</ele><time>2026-05-02T13:23:22.796Z</time></trkpt><trkpt lat="45.9491889" lon="10.6111919"><ele>797.0</ele><time>2026-05-02T13:23:24.796Z</time></trkpt><trkpt lat="45.9492717" lon="10.6110099"><ele>813.0</ele><time>2026-05-02T13:23:25.796Z</time></trkpt><trkpt lat="45.9493394" lon="10.610811"><ele>829.0</ele><time>2026-05-02T13:23:26.796Z</time></trkpt><trkpt lat="45.9493884" lon="10.610594"><ele>845.0</ele><time>2026-05-02T13:23:27.796Z</time></trkpt><trkpt lat="45.9494371" lon="10.6103561"><ele>840.0</ele><time>2026-05-02T13:23:28.796Z</time></trkpt><trkpt lat="45.9494796" lon="10.6101185"><ele>835.0</ele><time>2026-05-02T13:23:29.796Z</time></trkpt><trkpt lat="45.949512" lon="10.6098744"><ele>830.0</ele><time>2026-05-02T13:23:30.796Z</time></trkpt><trkpt lat="45.9495486" lon="10.6096328"><ele>827.3333333333334</ele><time>2026-05-02T13:23:31.796Z</time></trkpt><trkpt lat="45.9495954" lon="10.6094025"><ele>824.6666666666667</ele><time>2026-05-02T13:23:32.796Z</time></trkpt><trkpt lat="45.9496313" lon="10.6091771"><ele>822.0</ele><time>2026-05-02T13:23:33.796Z</time></trkpt><trkpt lat="45.9496486" lon="10.6089459"><ele>822.0</ele><time>2026-05-02T13:23:34.796Z</time></trkpt><trkpt lat="45.9496481" lon="10.6087267"><ele>822.0</ele><time>2026-05-02T13:23:35.796Z</time></trkpt><trkpt lat="45.949641" lon="10.6085098"><ele>822.0</ele><time>2026-05-02T13:23:36.796Z</time></trkpt><trkpt lat="45.9496163" lon="10.6082997"><ele>821.75</ele><time>2026-05-02T13:23:37.796Z</time></trkpt><trkpt lat="45.9495814" lon="10.608109"><ele>821.5</ele><time>2026-05-02T13:23:38.796Z</time></trkpt><trkpt lat="45.9495269" lon="10.6079537"><ele>821.25</ele><time>2026-05-02T13:23:39.796Z</time></trkpt><trkpt lat="45.9494651" lon="10.6078204"><ele>821.0</ele><time>2026-05-02T13:23:40.796Z</time></trkpt><trkpt lat="45.9494287" lon="10.6076727"><ele>821.0</ele><time>2026-05-02T13:23:41.796Z</time></trkpt><trkpt lat="45.9494535" lon="10.6075553"><ele>821.0</ele><time>2026-05-02T13:23:42.796Z</time></trkpt><trkpt lat="45.9495167" lon="10.6074634"><ele>821.0</ele><time>2026-05-02T13:23:43.796Z</time></trkpt><trkpt lat="45.9496159" lon="10.6073892"><ele>821.0</ele><time>2026-05-02T13:23:44.796Z</time></trkpt><trkpt lat="45.9496961" lon="10.6072721"><ele>821.0</ele><time>2026-05-02T13:23:45.796Z</time></trkpt><trkpt lat="45.9497426" lon="10.6071064"><ele>816.6666666666667</ele><time>2026-05-02T13:23:46.796Z</time></trkpt><trkpt lat="45.9497799" lon="10.6068947"><ele>812.3333333333333</ele><time>2026-05-02T13:23:47.796Z</time></trkpt><trkpt lat="45.9498263" lon="10.6066893"><ele>808.0</ele><time>2026-05-02T13:23:48.796Z</time></trkpt><trkpt lat="45.9498885" lon="10.6064686"><ele>808.0</ele><time>2026-05-02T13:23:49.796Z</time></trkpt><trkpt lat="45.9499706" lon="10.6062772"><ele>808.0</ele><time>2026-05-02T13:23:50.796Z</time></trkpt><trkpt lat="45.9500427" lon="10.606095"><ele>808.0</ele><time>2026-05-02T13:23:51.796Z</time></trkpt><trkpt lat="45.9500862" lon="10.6059042"><ele>808.0</ele><time>2026-05-02T13:23:52.796Z</time></trkpt><trkpt lat="45.9501026" lon="10.6057132"><ele>818.25</ele><time>2026-05-02T13:23:53.796Z</time></trkpt><trkpt lat="45.9501202" lon="10.6055217"><ele>828.5</ele><time>2026-05-02T13:23:54.796Z</time></trkpt><trkpt lat="45.9501683" lon="10.6053221"><ele>838.75</ele><time>2026-05-02T13:23:55.796Z</time></trkpt><trkpt lat="45.9502413" lon="10.6051084"><ele>849.0</ele><time>2026-05-02T13:23:56.796Z</time></trkpt><trkpt lat="45.9503299" lon="10.6048814"><ele>849.0</ele><time>2026-05-02T13:23:57.796Z</time></trkpt><trkpt lat="45.9504201" lon="10.6046455"><ele>849.0</ele><time>2026-05-02T13:23:58.796Z</time></trkpt><trkpt lat="45.9504887" lon="10.6043908"><ele>849.0</ele><time>2026-05-02T13:23:59.796Z</time></trkpt><trkpt lat="45.9505413" lon="10.6041153"><ele>844.6666666666667</ele><time>2026-05-02T13:24:00.796Z</time></trkpt><trkpt lat="45.9505853" lon="10.603835"><ele>840.3333333333334</ele><time>2026-05-02T13:24:01.796Z</time></trkpt><trkpt lat="45.9506296" lon="10.603547"><ele>836.0</ele><time>2026-05-02T13:24:02.796Z</time></trkpt><trkpt lat="45.9506665" lon="10.6032639"><ele>829.6666666666667</ele><time>2026-05-02T13:24:03.796Z</time></trkpt><trkpt lat="45.9507125" lon="10.6029799"><ele>823.3333333333333</ele><time>2026-05-02T13:24:04.796Z</time></trkpt><trkpt lat="45.9507827" lon="10.6027008"><ele>817.0</ele><time>2026-05-02T13:24:05.796Z</time></trkpt><trkpt lat="45.9508631" lon="10.6024409"><ele>830.0</ele><time>2026-05-02T13:24:06.796Z</time></trkpt><trkpt lat="45.9509309" lon="10.602185"><ele>843.0</ele><time>2026-05-02T13:24:07.796Z</time></trkpt><trkpt lat="45.9509699" lon="10.6019323"><ele>856.0</ele><time>2026-05-02T13:24:08.796Z</time></trkpt><trkpt lat="45.9509706" lon="10.6017041"><ele>856.0</ele><time>2026-05-02T13:24:09.796Z</time></trkpt><trkpt lat="45.9509717" lon="10.6014898"><ele>856.0</ele><time>2026-05-02T13:24:10.796Z</time></trkpt><trkpt lat="45.9509903" lon="10.6012881"><ele>856.0</ele><time>2026-05-02T13:24:11.796Z</time></trkpt><trkpt lat="45.951042" lon="10.6010925"><ele>856.0</ele><time>2026-05-02T13:24:12.796Z</time></trkpt><trkpt lat="45.9511361" lon="10.6009102"><ele>847.6666666666666</ele><time>2026-05-02T13:24:13.796Z</time></trkpt><trkpt lat="45.9512492" lon="10.6007327"><ele>839.3333333333333</ele><time>2026-05-02T13:24:14.796Z</time></trkpt><trkpt lat="45.9513799" lon="10.6005529"><ele>831.0</ele><time>2026-05-02T13:24:15.796Z</time></trkpt><trkpt lat="45.9515066" lon="10.6003593"><ele>827.0</ele><time>2026-05-02T13:24:16.796Z</time></trkpt><trkpt lat="45.9516164" lon="10.6001555"><ele>823.0</ele><time>2026-05-02T13:24:17.796Z</time></trkpt><trkpt lat="45.9517033" lon="10.5999432"><ele>819.0</ele><time>2026-05-02T13:24:18.796Z</time></trkpt><trkpt lat="45.9517545" lon="10.5997283"><ele>830.0</ele><time>2026-05-02T13:24:19.796Z</time></trkpt><trkpt lat="45.9517684" lon="10.5995214"><ele>841.0</ele><time>2026-05-02T13:24:20.796Z</time></trkpt><trkpt lat="45.9517616" lon="10.5992874"><ele>852.0</ele><time>2026-05-02T13:24:21.796Z</time></trkpt><trkpt lat="45.951745" lon="10.5990356"><ele>856.3333333333333</ele><time>2026-05-02T13:24:22.796Z</time></trkpt><trkpt lat="45.9517296" lon="10.598771"><ele>860.6666666666666</ele><time>2026-05-02T13:24:23.796Z</time></trkpt><trkpt lat="45.9517036" lon="10.5984968"><ele>865.0</ele><time>2026-05-02T13:24:24.796Z</time></trkpt><trkpt lat="45.9516702" lon="10.5982241"><ele>855.6666666666666</ele><time>2026-05-02T13:24:25.796Z</time></trkpt><trkpt lat="45.9516193" lon="10.5979527"><ele>846.3333333333333</ele><time>2026-05-02T13:24:26.796Z</time></trkpt><trkpt lat="45.9515488" lon="10.5976926"><ele>837.0</ele><time>2026-05-02T13:24:27.796Z</time></trkpt><trkpt lat="45.9514726" lon="10.5974555"><ele>837.0</ele><time>2026-05-02T13:24:28.796Z</time></trkpt><trkpt lat="45.9513959" lon="10.5972167"><ele>837.0</ele><time>2026-05-02T13:24:29.796Z</time></trkpt><trkpt lat="45.9513323" lon="10.5969753"><ele>837.0</ele><time>2026-05-02T13:24:30.796Z</time></trkpt><trkpt lat="45.9512875" lon="10.596736"><ele>841.6666666666667</ele><time>2026-05-02T13:24:31.796Z</time></trkpt><trkpt lat="45.9512667" lon="10.5965059"><ele>846.3333333333334</ele><time>2026-05-02T13:24:32.796Z</time></trkpt><trkpt lat="45.9512847" lon="10.5962712"><ele>851.0</ele><time>2026-05-02T13:24:33.796Z</time></trkpt><trkpt lat="45.9513239" lon="10.5960295"><ele>853.0</ele><time>2026-05-02T13:24:34.796Z</time></trkpt><trkpt lat="45.9513731" lon="10.5957817"><ele>855.0</ele><time>2026-05-02T13:24:35.796Z</time></trkpt><trkpt lat="45.951394" lon="10.5955186"><ele>857.0</ele><time>2026-05-02T13:24:36.796Z</time></trkpt><trkpt lat="45.9513832" lon="10.5952405"><ele>857.0</ele><time>2026-05-02T13:24:37.796Z</time></trkpt><trkpt lat="45.9513705" lon="10.5949641"><ele>857.0</ele><time>2026-05-02T13:24:38.796Z</time></trkpt><trkpt lat="45.9513806" lon="10.5946812"><ele>857.0</ele><time>2026-05-02T13:24:39.796Z</time></trkpt><trkpt lat="45.9514089" lon="10.5944066"><ele>851.3333333333334</ele><time>2026-05-02T13:24:40.796Z</time></trkpt><trkpt lat="45.9514348" lon="10.5941536"><ele>845.6666666666667</ele><time>2026-05-02T13:24:41.796Z</time></trkpt><trkpt lat="45.9514481" lon="10.5939315"><ele>840.0</ele><time>2026-05-02T13:24:42.796Z</time></trkpt><trkpt lat="45.9514302" lon="10.5937335"><ele>840.6666666666667</ele><time>2026-05-02T13:24:43.797Z</time></trkpt><trkpt lat="45.9513971" lon="10.5935294"><ele>841.3333333333334</ele><time>2026-05-02T13:24:44.796Z</time></trkpt><trkpt lat="45.951391" lon="10.5933097"><ele>842.0</ele><time>2026-05-02T13:24:45.796Z</time></trkpt><trkpt lat="45.9514104" lon="10.5930835"><ele>842.0</ele><time>2026-05-02T13:24:46.796Z</time></trkpt><trkpt lat="45.9514524" lon="10.5928546"><ele>842.0</ele><time>2026-05-02T13:24:47.796Z</time></trkpt><trkpt lat="45.9515354" lon="10.5926333"><ele>842.0</ele><time>2026-05-02T13:24:48.796Z</time></trkpt><trkpt lat="45.9516458" lon="10.5924273"><ele>847.6666666666667</ele><time>2026-05-02T13:24:49.796Z</time></trkpt><trkpt lat="45.9517595" lon="10.5922252"><ele>853.3333333333333</ele><time>2026-05-02T13:24:50.796Z</time></trkpt><trkpt lat="45.9518667" lon="10.5920181"><ele>859.0</ele><time>2026-05-02T13:24:51.796Z</time></trkpt><trkpt lat="45.9519565" lon="10.5918029"><ele>859.0</ele><time>2026-05-02T13:24:52.796Z</time></trkpt><trkpt lat="45.9520316" lon="10.5915894"><ele>859.0</ele><time>2026-05-02T13:24:53.796Z</time></trkpt><trkpt lat="45.9521073" lon="10.591402"><ele>859.0</ele><time>2026-05-02T13:24:54.796Z</time></trkpt><trkpt lat="45.9521885" lon="10.591227"><ele>856.75</ele><time>2026-05-02T13:24:55.796Z</time></trkpt><trkpt lat="45.9522827" lon="10.5910613"><ele>854.5</ele><time>2026-05-02T13:24:56.796Z</time></trkpt><trkpt lat="45.9523755" lon="10.5908995"><ele>852.25</ele><time>2026-05-02T13:24:57.796Z</time></trkpt><trkpt lat="45.9524519" lon="10.5907288"><ele>850.0</ele><time>2026-05-02T13:24:58.796Z</time></trkpt><trkpt lat="45.9525021" lon="10.590545"><ele>850.0</ele><time>2026-05-02T13:24:59.796Z</time></trkpt><trkpt lat="45.9525267" lon="10.5903612"><ele>850.0</ele><time>2026-05-02T13:25:00.796Z</time></trkpt><trkpt lat="45.9525456" lon="10.5902002"><ele>850.0</ele><time>2026-05-02T13:25:01.796Z</time></trkpt><trkpt lat="45.9525878" lon="10.590056"><ele>850.0</ele><time>2026-05-02T13:25:02.796Z</time></trkpt><trkpt lat="45.9526632" lon="10.5899421"><ele>852.75</ele><time>2026-05-02T13:25:03.796Z</time></trkpt><trkpt lat="45.9527496" lon="10.5898603"><ele>855.5</ele><time>2026-05-02T13:25:04.796Z</time></trkpt><trkpt lat="45.9528655" lon="10.5898192"><ele>858.25</ele><time>2026-05-02T13:25:05.796Z</time></trkpt><trkpt lat="45.9529914" lon="10.5897969"><ele>861.0</ele><time>2026-05-02T13:25:06.796Z</time></trkpt><trkpt lat="45.9531069" lon="10.5897705"><ele>861.0</ele><time>2026-05-02T13:25:07.796Z</time></trkpt><trkpt lat="45.9532409" lon="10.5897529"><ele>861.0</ele><time>2026-05-02T13:25:08.796Z</time></trkpt><trkpt lat="45.953376" lon="10.5897734"><ele>861.0</ele><time>2026-05-02T13:25:09.796Z</time></trkpt><trkpt lat="45.9535095" lon="10.589835"><ele>861.0</ele><time>2026-05-02T13:25:10.797Z</time></trkpt><trkpt lat="45.953635" lon="10.5899214"><ele>865.6666666666667</ele><time>2026-05-02T13:25:11.796Z</time></trkpt><trkpt lat="45.9537546" lon="10.5900086"><ele>870.3333333333334</ele><time>2026-05-02T13:25:12.796Z</time></trkpt><trkpt lat="45.9538721" lon="10.5900771"><ele>875.0</ele><time>2026-05-02T13:25:13.796Z</time></trkpt><trkpt lat="45.9514302" lon="10.5937335"><ele>864.0</ele><time>2026-05-02T13:24:43.797Z</time></trkpt><trkpt lat="45.9513971" lon="10.5935294"><ele>853.0</ele><time>2026-05-02T13:24:44.796Z</time></trkpt><trkpt lat="45.951391" lon="10.5933097"><ele>842.0</ele><time>2026-05-02T13:24:45.796Z</time></trkpt><trkpt lat="45.9514104" lon="10.5930835"><ele>842.0</ele><time>2026-05-02T13:24:46.796Z</time></trkpt><trkpt lat="45.9514524" lon="10.5928546"><ele>842.0</ele><time>2026-05-02T13:24:47.796Z</time></trkpt><trkpt lat="45.9515354" lon="10.5926333"><ele>842.0</ele><time>2026-05-02T13:24:48.796Z</time></trkpt><trkpt lat="45.9516458" lon="10.5924273"><ele>847.6666666666667</ele><time>2026-05-02T13:24:49.796Z</time></trkpt><trkpt lat="45.9517595" lon="10.5922252"><ele>853.3333333333333</ele><time>2026-05-02T13:24:50.796Z</time></trkpt><trkpt lat="45.9518667" lon="10.5920181"><ele>859.0</ele><time>2026-05-02T13:24:51.796Z</time></trkpt><trkpt lat="45.9519565" lon="10.5918029"><ele>859.0</ele><time>2026-05-02T13:24:52.796Z</time></trkpt><trkpt lat="45.9520316" lon="10.5915894"><ele>859.0</ele><time>2026-05-02T13:24:53.796Z</time></trkpt><trkpt lat="45.9521073" lon="10.591402"><ele>859.0</ele><time>2026-05-02T13:24:54.796Z</time></trkpt><trkpt lat="45.9521885" lon="10.591227"><ele>856.75</ele><time>2026-05-02T13:24:55.796Z</time></trkpt><trkpt lat="45.9522827" lon="10.5910613"><ele>854.5</ele><time>2026-05-02T13:24:56.796Z</time></trkpt><trkpt lat="45.9523755" lon="10.5908995"><ele>852.25</ele><time>2026-05-02T13:24:57.796Z</time></trkpt><trkpt lat="45.9524519" lon="10.5907288"><ele>850.0</ele><time>2026-05-02T13:24:58.796Z</time></trkpt><trkpt lat="45.9525021" lon="10.590545"><ele>850.0</ele><time>2026-05-02T13:24:59.796Z</time></trkpt><trkpt lat="45.9525267" lon="10.5903612"><ele>850.0</ele><time>2026-05-02T13:25:00.796Z</time></trkpt><trkpt lat="45.9525456" lon="10.5902002"><ele>850.0</ele><time>2026-05-02T13:25:01.796Z</time></trkpt><trkpt lat="45.9525878" lon="10.590056"><ele>850.0</ele><time>2026-05-02T13:25:02.796Z</time></trkpt><trkpt lat="45.9526632" lon="10.5899421"><ele>852.75</ele><time>2026-05-02T13:25:03.796Z</time></trkpt><trkpt lat="45.9527496" lon="10.5898603"><ele>855.5</ele><time>2026-05-02T13:25:04.796Z</time></trkpt><trkpt lat="45.9528655" lon="10.5898192"><ele>858.25</ele><time>2026-05-02T13:25:05.796Z</time></trkpt><trkpt lat="45.9529914" lon="10.5897969"><ele>861.0</ele><time>2026-05-02T13:25:06.796Z</time></trkpt><trkpt lat="45.9531069" lon="10.5897705"><ele>861.0</ele><time>2026-05-02T13:25:07.796Z</time></trkpt><trkpt lat="45.9532409" lon="10.5897529"><ele>861.0</ele><time>2026-05-02T13:25:08.796Z</time></trkpt><trkpt lat="45.953376" lon="10.5897734"><ele>861.0</ele><time>2026-05-02T13:25:09.796Z</time></trkpt><trkpt lat="45.9535095" lon="10.589835"><ele>861.0</ele><time>2026-05-02T13:25:10.797Z</time></trkpt><trkpt lat="45.953635" lon="10.5899214"><ele>864.5</ele><time>2026-05-02T13:25:11.796Z</time></trkpt><trkpt lat="45.9537546" lon="10.5900086"><ele>868.0</ele><time>2026-05-02T13:25:12.796Z</time></trkpt><trkpt lat="45.9538721" lon="10.5900771"><ele>871.5</ele><time>2026-05-02T13:25:13.796Z</time></trkpt><trkpt lat="45.9539859" lon="10.5901302"><ele>875.0</ele><time>2026-05-02T13:25:14.796Z</time></trkpt><trkpt lat="45.9540975" lon="10.5901705"><ele>875.0</ele><time>2026-05-02T13:25:15.796Z</time></trkpt><trkpt lat="45.9542048" lon="10.5901987"><ele>875.0</ele><time>2026-05-02T13:25:16.796Z</time></trkpt><trkpt lat="45.9543073" lon="10.5902225"><ele>875.0</ele><time>2026-05-02T13:25:17.796Z</time></trkpt><trkpt lat="45.9544063" lon="10.590238"><ele>875.0</ele><time>2026-05-02T13:25:18.796Z</time></trkpt><trkpt lat="45.954488" lon="10.5902311"><ele>875.0</ele><time>2026-05-02T13:25:19.796Z</time></trkpt><trkpt lat="45.9545751" lon="10.5902321"><ele>888.0</ele><time>2026-05-02T13:25:20.796Z</time></trkpt><trkpt lat="45.9546261" lon="10.5901268"><ele>901.0</ele><time>2026-05-02T13:25:21.796Z</time></trkpt><trkpt lat="45.9545746" lon="10.5898729"><ele>914.0</ele><time>2026-05-02T13:25:22.796Z</time></trkpt><trkpt lat="45.9545213" lon="10.5895907"><ele>908.6666666666667</ele><time>2026-05-02T13:25:23.796Z</time></trkpt><trkpt lat="45.9544923" lon="10.5893256"><ele>903.3333333333333</ele><time>2026-05-02T13:25:24.796Z</time></trkpt><trkpt lat="45.9545215" lon="10.5891097"><ele>898.0</ele><time>2026-05-02T13:25:25.796Z</time></trkpt><trkpt lat="45.9545829" lon="10.5889196"><ele>898.0</ele><time>2026-05-02T13:25:26.796Z</time></trkpt><trkpt lat="45.954673" lon="10.5887227"><ele>898.0</ele><time>2026-05-02T13:25:27.796Z</time></trkpt><trkpt lat="45.9547548" lon="10.5884994"><ele>898.0</ele><time>2026-05-02T13:25:28.796Z</time></trkpt><trkpt lat="45.9548292" lon="10.588278"><ele>901.0</ele><time>2026-05-02T13:25:29.796Z</time></trkpt><trkpt lat="45.9549119" lon="10.588066"><ele>904.0</ele><time>2026-05-02T13:25:30.796Z</time></trkpt><trkpt lat="45.9550075" lon="10.587868"><ele>907.0</ele><time>2026-05-02T13:25:31.796Z</time></trkpt><trkpt lat="45.955102" lon="10.587673"><ele>907.0</ele><time>2026-05-02T13:25:32.796Z</time></trkpt><trkpt lat="45.95519" lon="10.5874697"><ele>907.0</ele><time>2026-05-02T13:25:33.796Z</time></trkpt><trkpt lat="45.9552633" lon="10.587255"><ele>907.0</ele><time>2026-05-02T13:25:34.796Z</time></trkpt><trkpt lat="45.9553331" lon="10.5870381"><ele>898.3333333333333</ele><time>2026-05-02T13:25:35.796Z</time></trkpt><trkpt lat="45.9554057" lon="10.5868373"><ele>889.6666666666667</ele><time>2026-05-02T13:25:36.796Z</time></trkpt><trkpt lat="45.9554904" lon="10.586656"><ele>881.0</ele><time>2026-05-02T13:25:37.796Z</time></trkpt><trkpt lat="45.9555986" lon="10.5865145"><ele>881.0</ele><time>2026-05-02T13:25:38.796Z</time></trkpt><trkpt lat="45.9557221" lon="10.5863818"><ele>881.0</ele><time>2026-05-02T13:25:39.796Z</time></trkpt><trkpt lat="45.9558425" lon="10.5862422"><ele>881.0</ele><time>2026-05-02T13:25:40.796Z</time></trkpt><trkpt lat="45.9559533" lon="10.5860795"><ele>888.3333333333334</ele><time>2026-05-02T13:25:41.796Z</time></trkpt><trkpt lat="45.9560611" lon="10.5858994"><ele>895.6666666666667</ele><time>2026-05-02T13:25:42.796Z</time></trkpt><trkpt lat="45.9561487" lon="10.5857036"><ele>903.0</ele><time>2026-05-02T13:25:43.796Z</time></trkpt><trkpt lat="45.956206" lon="10.5854896"><ele>895.3333333333333</ele><time>2026-05-02T13:25:44.796Z</time></trkpt><trkpt lat="45.9562534" lon="10.5852663"><ele>887.6666666666666</ele><time>2026-05-02T13:25:45.796Z</time></trkpt><trkpt lat="45.95631" lon="10.5850468"><ele>880.0</ele><time>2026-05-02T13:25:46.796Z</time></trkpt><trkpt lat="45.9563786" lon="10.5848305"><ele>880.0</ele><time>2026-05-02T13:25:47.796Z</time></trkpt><trkpt lat="45.9564447" lon="10.5846143"><ele>880.0</ele><time>2026-05-02T13:25:48.796Z</time></trkpt><trkpt lat="45.9565086" lon="10.584381"><ele>880.0</ele><time>2026-05-02T13:25:49.796Z</time></trkpt><trkpt lat="45.9565638" lon="10.5841574"><ele>881.0</ele><time>2026-05-02T13:25:50.796Z</time></trkpt><trkpt lat="45.9566244" lon="10.5839545"><ele>882.0</ele><time>2026-05-02T13:25:51.796Z</time></trkpt><trkpt lat="45.9566743" lon="10.5837796"><ele>883.0</ele><time>2026-05-02T13:25:52.796Z</time></trkpt><trkpt lat="45.9567359" lon="10.5836326"><ele>884.0</ele><time>2026-05-02T13:25:53.796Z</time></trkpt><trkpt lat="45.9568206" lon="10.5835233"><ele>884.0</ele><time>2026-05-02T13:25:54.796Z</time></trkpt><trkpt lat="45.9569301" lon="10.5834728"><ele>884.0</ele><time>2026-05-02T13:25:55.796Z</time></trkpt><trkpt lat="45.9570566" lon="10.5834634"><ele>884.0</ele><time>2026-05-02T13:25:56.796Z</time></trkpt><trkpt lat="45.9571842" lon="10.5834486"><ele>884.0</ele><time>2026-05-02T13:25:57.796Z</time></trkpt><trkpt lat="45.957319" lon="10.5833882"><ele>884.0</ele><time>2026-05-02T13:25:58.796Z</time></trkpt><trkpt lat="45.957445" lon="10.583278"><ele>884.0</ele><time>2026-05-02T13:25:59.796Z</time></trkpt><trkpt lat="45.9575667" lon="10.5831351"><ele>884.0</ele><time>2026-05-02T13:26:00.796Z</time></trkpt><trkpt lat="45.9576827" lon="10.582971"><ele>889.6666666666667</ele><time>2026-05-02T13:26:01.796Z</time></trkpt><trkpt lat="45.9578044" lon="10.5827958"><ele>895.3333333333333</ele><time>2026-05-02T13:26:02.796Z</time></trkpt><trkpt lat="45.9579244" lon="10.5826165"><ele>901.0</ele><time>2026-05-02T13:26:03.796Z</time></trkpt><trkpt lat="45.9580365" lon="10.5824357"><ele>901.0</ele><time>2026-05-02T13:26:04.796Z</time></trkpt><trkpt lat="45.9581615" lon="10.5822685"><ele>901.0</ele><time>2026-05-02T13:26:05.796Z</time></trkpt><trkpt lat="45.958294" lon="10.5821074"><ele>901.0</ele><time>2026-05-02T13:26:06.796Z</time></trkpt><trkpt lat="45.9584359" lon="10.5819657"><ele>901.6666666666666</ele><time>2026-05-02T13:26:07.796Z</time></trkpt><trkpt lat="45.9585925" lon="10.5818356"><ele>902.3333333333333</ele><time>2026-05-02T13:26:08.796Z</time></trkpt><trkpt lat="45.9587573" lon="10.5817112"><ele>903.0</ele><time>2026-05-02T13:26:09.796Z</time></trkpt><trkpt lat="45.9589249" lon="10.5815898"><ele>903.0</ele><time>2026-05-02T13:26:10.796Z</time></trkpt><trkpt lat="45.9590945" lon="10.5814725"><ele>903.0</ele><time>2026-05-02T13:26:11.796Z</time></trkpt><trkpt lat="45.9592679" lon="10.5813465"><ele>903.0</ele><time>2026-05-02T13:26:12.796Z</time></trkpt><trkpt lat="45.959445" lon="10.5812244"><ele>897.6666666666667</ele><time>2026-05-02T13:26:13.796Z</time></trkpt><trkpt lat="45.9596253" lon="10.5811012"><ele>892.3333333333334</ele><time>2026-05-02T13:26:14.796Z</time></trkpt><trkpt lat="45.9598034" lon="10.580986"><ele>887.0</ele><time>2026-05-02T13:26:15.796Z</time></trkpt><trkpt lat="45.959976" lon="10.5808756"><ele>896.3333333333334</ele><time>2026-05-02T13:26:16.796Z</time></trkpt><trkpt lat="45.9601518" lon="10.5807796"><ele>905.6666666666667</ele><time>2026-05-02T13:26:17.796Z</time></trkpt><trkpt lat="45.960331" lon="10.5806973"><ele>915.0</ele><time>2026-05-02T13:26:18.796Z</time></trkpt><trkpt lat="45.960515" lon="10.5806365"><ele>915.0</ele><time>2026-05-02T13:26:19.796Z</time></trkpt><trkpt lat="45.9606938" lon="10.5805869"><ele>915.0</ele><time>2026-05-02T13:26:20.796Z</time></trkpt><trkpt lat="45.9608786" lon="10.5805365"><ele>915.0</ele><time>2026-05-02T13:26:21.796Z</time></trkpt><trkpt lat="45.9610636" lon="10.5804681"><ele>919.0</ele><time>2026-05-02T13:26:22.796Z</time></trkpt><trkpt lat="45.9612386" lon="10.5803824"><ele>923.0</ele><time>2026-05-02T13:26:23.796Z</time></trkpt><trkpt lat="45.961392" lon="10.5802714"><ele>927.0</ele><time>2026-05-02T13:26:24.795Z</time></trkpt><trkpt lat="45.9615405" lon="10.5801374"><ele>917.0</ele><time>2026-05-02T13:26:25.795Z</time></trkpt><trkpt lat="45.9616848" lon="10.5800081"><ele>907.0</ele><time>2026-05-02T13:26:26.795Z</time></trkpt><trkpt lat="45.9618348" lon="10.5798984"><ele>897.0</ele><time>2026-05-02T13:26:27.795Z</time></trkpt><trkpt lat="45.9619758" lon="10.5798063"><ele>897.0</ele><time>2026-05-02T13:26:28.795Z</time></trkpt><trkpt lat="45.9621169" lon="10.5797503"><ele>897.0</ele><time>2026-05-02T13:26:29.795Z</time></trkpt><trkpt lat="45.9622527" lon="10.5797167"><ele>897.0</ele><time>2026-05-02T13:26:30.795Z</time></trkpt><trkpt lat="45.9623793" lon="10.5797085"><ele>897.0</ele><time>2026-05-02T13:26:31.795Z</time></trkpt><trkpt lat="45.9624895" lon="10.5797021"><ele>894.5</ele><time>2026-05-02T13:26:32.795Z</time></trkpt><trkpt lat="45.9626094" lon="10.5796926"><ele>892.0</ele><time>2026-05-02T13:26:33.795Z</time></trkpt><trkpt lat="45.9627234" lon="10.5796593"><ele>889.5</ele><time>2026-05-02T13:26:34.795Z</time></trkpt><trkpt lat="45.9628324" lon="10.5795941"><ele>887.0</ele><time>2026-05-02T13:26:35.795Z</time></trkpt><trkpt lat="45.9629372" lon="10.5794854"><ele>887.0</ele><time>2026-05-02T13:26:36.795Z</time></trkpt><trkpt lat="45.9630321" lon="10.5793451"><ele>887.0</ele><time>2026-05-02T13:26:37.795Z</time></trkpt><trkpt lat="45.9631223" lon="10.5792073"><ele>887.0</ele><time>2026-05-02T13:26:38.795Z</time></trkpt><trkpt lat="45.9632174" lon="10.5790924"><ele>887.0</ele><time>2026-05-02T13:26:39.795Z</time></trkpt><trkpt lat="45.9633108" lon="10.5790046"><ele>891.75</ele><time>2026-05-02T13:26:40.795Z</time></trkpt><trkpt lat="45.9634068" lon="10.5789521"><ele>896.5</ele><time>2026-05-02T13:26:41.795Z</time></trkpt><trkpt lat="45.963519" lon="10.5789441"><ele>901.25</ele><time>2026-05-02T13:26:42.796Z</time></trkpt><trkpt lat="45.9636388" lon="10.5789305"><ele>906.0</ele><time>2026-05-02T13:26:43.795Z</time></trkpt><trkpt lat="45.9637724" lon="10.578903"><ele>906.0</ele><time>2026-05-02T13:26:44.795Z</time></trkpt><trkpt lat="45.9639209" lon="10.5788531"><ele>906.0</ele><time>2026-05-02T13:26:45.795Z</time></trkpt><trkpt lat="45.9640679" lon="10.5787855"><ele>906.0</ele><time>2026-05-02T13:26:46.795Z</time></trkpt><trkpt lat="45.9642142" lon="10.5786797"><ele>904.6666666666667</ele><time>2026-05-02T13:26:47.795Z</time></trkpt><trkpt lat="45.9643677" lon="10.5785365"><ele>903.3333333333334</ele><time>2026-05-02T13:26:48.795Z</time></trkpt><trkpt lat="45.9645252" lon="10.5783612"><ele>902.0</ele><time>2026-05-02T13:26:49.795Z</time></trkpt><trkpt lat="45.9646883" lon="10.5781838"><ele>902.0</ele><time>2026-05-02T13:26:50.795Z</time></trkpt><trkpt lat="45.9648438" lon="10.5780254"><ele>902.0</ele><time>2026-05-02T13:26:51.795Z</time></trkpt><trkpt lat="45.9649888" lon="10.5778859"><ele>902.0</ele><time>2026-05-02T13:26:52.795Z</time></trkpt><trkpt lat="45.9651373" lon="10.5777603"><ele>899.0</ele><time>2026-05-02T13:26:53.795Z</time></trkpt><trkpt lat="45.9652863" lon="10.5776677"><ele>896.0</ele><time>2026-05-02T13:26:54.795Z</time></trkpt><trkpt lat="45.9654428" lon="10.5775954"><ele>893.0</ele><time>2026-05-02T13:26:55.795Z</time></trkpt><trkpt lat="45.9656119" lon="10.5775284"><ele>893.0</ele><time>2026-05-02T13:26:56.795Z</time></trkpt><trkpt lat="45.9657814" lon="10.577444"><ele>893.0</ele><time>2026-05-02T13:26:57.795Z</time></trkpt><trkpt lat="45.9659523" lon="10.57734"><ele>893.0</ele><time>2026-05-02T13:26:58.795Z</time></trkpt><trkpt lat="45.9661204" lon="10.5772467"><ele>892.3333333333334</ele><time>2026-05-02T13:26:59.795Z</time></trkpt><trkpt lat="45.966285" lon="10.5771554"><ele>891.6666666666667</ele><time>2026-05-02T13:27:00.795Z</time></trkpt><trkpt lat="45.9664203" lon="10.5770188"><ele>891.0</ele><time>2026-05-02T13:27:01.795Z</time></trkpt><trkpt lat="45.9665533" lon="10.5768591"><ele>891.0</ele><time>2026-05-02T13:27:02.795Z</time></trkpt><trkpt lat="45.966681" lon="10.5766866"><ele>891.0</ele><time>2026-05-02T13:27:03.795Z</time></trkpt><trkpt lat="45.9667913" lon="10.5765176"><ele>891.0</ele><time>2026-05-02T13:27:04.795Z</time></trkpt><trkpt lat="45.9668829" lon="10.5763519"><ele>894.75</ele><time>2026-05-02T13:27:05.795Z</time></trkpt><trkpt lat="45.9669305" lon="10.5761671"><ele>898.5</ele><time>2026-05-02T13:27:06.795Z</time></trkpt><trkpt lat="45.966962" lon="10.5759847"><ele>902.25</ele><time>2026-05-02T13:27:07.795Z</time></trkpt><trkpt lat="45.967009" lon="10.5758002"><ele>906.0</ele><time>2026-05-02T13:27:08.795Z</time></trkpt><trkpt lat="45.9670702" lon="10.5756361"><ele>906.0</ele><time>2026-05-02T13:27:09.795Z</time></trkpt><trkpt lat="45.9671544" lon="10.5754974"><ele>906.0</ele><time>2026-05-02T13:27:10.795Z</time></trkpt><trkpt lat="45.9672488" lon="10.5753772"><ele>906.0</ele><time>2026-05-02T13:27:11.795Z</time></trkpt><trkpt lat="45.9673544" lon="10.5752662"><ele>906.0</ele><time>2026-05-02T13:27:12.795Z</time></trkpt><trkpt lat="45.9674819" lon="10.5751697"><ele>908.0</ele><time>2026-05-02T13:27:13.795Z</time></trkpt><trkpt lat="45.9676222" lon="10.5750721"><ele>910.0</ele><time>2026-05-02T13:27:14.795Z</time></trkpt><trkpt lat="45.9677641" lon="10.5749458"><ele>912.0</ele><time>2026-05-02T13:27:15.795Z</time></trkpt><trkpt lat="45.9679005" lon="10.574791"><ele>912.0</ele><time>2026-05-02T13:27:16.795Z</time></trkpt><trkpt lat="45.9680345" lon="10.5746197"><ele>912.0</ele><time>2026-05-02T13:27:17.795Z</time></trkpt><trkpt lat="45.9681755" lon="10.5744553"><ele>912.0</ele><time>2026-05-02T13:27:18.795Z</time></trkpt><trkpt lat="45.9683259" lon="10.5743024"><ele>915.0</ele><time>2026-05-02T13:27:19.795Z</time></trkpt><trkpt lat="45.9684825" lon="10.5741566"><ele>918.0</ele><time>2026-05-02T13:27:20.795Z</time></trkpt><trkpt lat="45.9686349" lon="10.574002"><ele>921.0</ele><time>2026-05-02T13:27:21.795Z</time></trkpt><trkpt lat="45.9687723" lon="10.5738113"><ele>919.6666666666667</ele><time>2026-05-02T13:27:22.795Z</time></trkpt><trkpt lat="45.9688831" lon="10.5735876"><ele>918.3333333333334</ele><time>2026-05-02T13:27:23.795Z</time></trkpt><trkpt lat="45.9689349" lon="10.5733228"><ele>917.0</ele><time>2026-05-02T13:27:24.795Z</time></trkpt><trkpt lat="45.9689385" lon="10.5730414"><ele>914.6666666666667</ele><time>2026-05-02T13:27:25.795Z</time></trkpt><trkpt lat="45.968912" lon="10.5727359"><ele>912.3333333333333</ele><time>2026-05-02T13:27:26.795Z</time></trkpt><trkpt lat="45.9688792" lon="10.572438"><ele>910.0</ele><time>2026-05-02T13:27:27.795Z</time></trkpt><trkpt lat="45.9688493" lon="10.5721514"><ele>910.3333333333333</ele><time>2026-05-02T13:27:28.795Z</time></trkpt><trkpt lat="45.9688313" lon="10.5718683"><ele>910.6666666666667</ele><time>2026-05-02T13:27:29.795Z</time></trkpt><trkpt lat="45.9688136" lon="10.5716045"><ele>911.0</ele><time>2026-05-02T13:27:30.795Z</time></trkpt><trkpt lat="45.9687965" lon="10.5713477"><ele>910.3333333333334</ele><time>2026-05-02T13:27:31.795Z</time></trkpt><trkpt lat="45.9687789" lon="10.571096"><ele>909.6666666666667</ele><time>2026-05-02T13:27:32.795Z</time></trkpt><trkpt lat="45.9687793" lon="10.5708726"><ele>909.0</ele><time>2026-05-02T13:27:33.795Z</time></trkpt><trkpt lat="45.9687971" lon="10.5706567"><ele>909.0</ele><time>2026-05-02T13:27:34.795Z</time></trkpt><trkpt lat="45.968829" lon="10.5704311"><ele>909.0</ele><time>2026-05-02T13:27:35.795Z</time></trkpt><trkpt lat="45.9688653" lon="10.5701896"><ele>909.0</ele><time>2026-05-02T13:27:36.795Z</time></trkpt><trkpt lat="45.9689141" lon="10.5699474"><ele>908.0</ele><time>2026-05-02T13:27:37.795Z</time></trkpt><trkpt lat="45.9689561" lon="10.5696917"><ele>907.0</ele><time>2026-05-02T13:27:38.795Z</time></trkpt><trkpt lat="45.9689985" lon="10.5694313"><ele>906.0</ele><time>2026-05-02T13:27:39.795Z</time></trkpt><trkpt lat="45.9690509" lon="10.569179"><ele>904.6666666666667</ele><time>2026-05-02T13:27:40.795Z</time></trkpt><trkpt lat="45.9691311" lon="10.5689443"><ele>903.3333333333334</ele><time>2026-05-02T13:27:41.795Z</time></trkpt><trkpt lat="45.9692346" lon="10.5687183"><ele>902.0</ele><time>2026-05-02T13:27:42.795Z</time></trkpt><trkpt lat="45.9693585" lon="10.5685102"><ele>904.6666666666667</ele><time>2026-05-02T13:27:43.795Z</time></trkpt><trkpt lat="45.9694932" lon="10.5683025"><ele>907.3333333333333</ele><time>2026-05-02T13:27:44.795Z</time></trkpt><trkpt lat="45.9696341" lon="10.5680951"><ele>910.0</ele><time>2026-05-02T13:27:45.795Z</time></trkpt><trkpt lat="45.9697794" lon="10.567881"><ele>911.6666666666666</ele><time>2026-05-02T13:27:46.795Z</time></trkpt><trkpt lat="45.9699322" lon="10.5676649"><ele>913.3333333333333</ele><time>2026-05-02T13:27:47.795Z</time></trkpt><trkpt lat="45.9700767" lon="10.567453"><ele>915.0</ele><time>2026-05-02T13:27:48.795Z</time></trkpt><trkpt lat="45.9702168" lon="10.5672549"><ele>915.0</ele><time>2026-05-02T13:27:49.795Z</time></trkpt><trkpt lat="45.9703429" lon="10.5670489"><ele>915.0</ele><time>2026-05-02T13:27:50.795Z</time></trkpt><trkpt lat="45.970427" lon="10.5668055"><ele>915.0</ele><time>2026-05-02T13:27:51.795Z</time></trkpt><trkpt lat="45.9705108" lon="10.5665649"><ele>912.6666666666667</ele><time>2026-05-02T13:27:52.795Z</time></trkpt><trkpt lat="45.9705994" lon="10.5663271"><ele>910.3333333333334</ele><time>2026-05-02T13:27:53.795Z</time></trkpt><trkpt lat="45.9706995" lon="10.5661043"><ele>908.0</ele><time>2026-05-02T13:27:54.795Z</time></trkpt><trkpt lat="45.9708044" lon="10.5658866"><ele>906.6666666666667</ele><time>2026-05-02T13:27:55.795Z</time></trkpt><trkpt lat="45.9709232" lon="10.5657"><ele>905.3333333333333</ele><time>2026-05-02T13:27:56.795Z</time></trkpt><trkpt lat="45.9710514" lon="10.5655405"><ele>904.0</ele><time>2026-05-02T13:27:57.795Z</time></trkpt><trkpt lat="45.9711936" lon="10.5654198"><ele>901.0</ele><time>2026-05-02T13:27:58.795Z</time></trkpt><trkpt lat="45.9713442" lon="10.5653185"><ele>898.0</ele><time>2026-05-02T13:27:59.795Z</time></trkpt><trkpt lat="45.971512" lon="10.5652529"><ele>895.0</ele><time>2026-05-02T13:28:00.795Z</time></trkpt><trkpt lat="45.9716767" lon="10.5651915"><ele>900.0</ele><time>2026-05-02T13:28:01.795Z</time></trkpt><trkpt lat="45.9718426" lon="10.5651246"><ele>905.0</ele><time>2026-05-02T13:28:02.795Z</time></trkpt><trkpt lat="45.9719974" lon="10.5650126"><ele>910.0</ele><time>2026-05-02T13:28:03.795Z</time></trkpt><trkpt lat="45.9721246" lon="10.5648573"><ele>910.0</ele><time>2026-05-02T13:28:04.795Z</time></trkpt><trkpt lat="45.9722267" lon="10.5646568"><ele>910.0</ele><time>2026-05-02T13:28:05.795Z</time></trkpt><trkpt lat="45.9723136" lon="10.5644239"><ele>910.0</ele><time>2026-05-02T13:28:06.795Z</time></trkpt><trkpt lat="45.9723904" lon="10.5641788"><ele>909.3333333333333</ele><time>2026-05-02T13:28:07.795Z</time></trkpt><trkpt lat="45.9724815" lon="10.5639556"><ele>908.6666666666667</ele><time>2026-05-02T13:28:08.795Z</time></trkpt><trkpt lat="45.9725652" lon="10.5637463"><ele>908.0</ele><time>2026-05-02T13:28:09.795Z</time></trkpt><trkpt lat="45.9726448" lon="10.5635343"><ele>911.3333333333334</ele><time>2026-05-02T13:28:10.795Z</time></trkpt><trkpt lat="45.9727174" lon="10.5633232"><ele>914.6666666666667</ele><time>2026-05-02T13:28:11.795Z</time></trkpt><trkpt lat="45.9727628" lon="10.5630966"><ele>918.0</ele><time>2026-05-02T13:28:12.795Z</time></trkpt><trkpt lat="45.9727918" lon="10.5628621"><ele>918.0</ele><time>2026-05-02T13:28:13.795Z</time></trkpt><trkpt lat="45.9727954" lon="10.562622"><ele>918.0</ele><time>2026-05-02T13:28:14.795Z</time></trkpt><trkpt lat="45.9728013" lon="10.5623788"><ele>918.0</ele><time>2026-05-02T13:28:15.795Z</time></trkpt><trkpt lat="45.9727831" lon="10.5621262"><ele>917.0</ele><time>2026-05-02T13:28:16.795Z</time></trkpt><trkpt lat="45.9727691" lon="10.5618983"><ele>916.0</ele><time>2026-05-02T13:28:17.795Z</time></trkpt><trkpt lat="45.9727611" lon="10.5616793"><ele>915.0</ele><time>2026-05-02T13:28:18.795Z</time></trkpt><trkpt lat="45.9727708" lon="10.5614577"><ele>915.0</ele><time>2026-05-02T13:28:19.795Z</time></trkpt><trkpt lat="45.9727969" lon="10.5612468"><ele>915.0</ele><time>2026-05-02T13:28:20.795Z</time></trkpt><trkpt lat="45.9728417" lon="10.5610357"><ele>915.0</ele><time>2026-05-02T13:28:21.795Z</time></trkpt><trkpt lat="45.9729121" lon="10.5608294"><ele>912.3333333333333</ele><time>2026-05-02T13:28:22.795Z</time></trkpt><trkpt lat="45.9729859" lon="10.5606236"><ele>909.6666666666666</ele><time>2026-05-02T13:28:23.795Z</time></trkpt><trkpt lat="45.9730611" lon="10.5604049"><ele>907.0</ele><time>2026-05-02T13:28:24.795Z</time></trkpt><trkpt lat="45.9731349" lon="10.5601768"><ele>908.0</ele><time>2026-05-02T13:28:25.795Z</time></trkpt><trkpt lat="45.9732102" lon="10.5599477"><ele>909.0</ele><time>2026-05-02T13:28:26.795Z</time></trkpt><trkpt lat="45.9732857" lon="10.5597138"><ele>910.0</ele><time>2026-05-02T13:28:27.795Z</time></trkpt><trkpt lat="45.973361" lon="10.5594839"><ele>910.0</ele><time>2026-05-02T13:28:28.796Z</time></trkpt><trkpt lat="45.9734302" lon="10.5592642"><ele>910.0</ele><time>2026-05-02T13:28:29.795Z</time></trkpt><trkpt lat="45.973499" lon="10.5590623"><ele>910.0</ele><time>2026-05-02T13:28:30.795Z</time></trkpt><trkpt lat="45.9735686" lon="10.5588617"><ele>911.0</ele><time>2026-05-02T13:28:31.795Z</time></trkpt><trkpt lat="45.973637" lon="10.5586573"><ele>912.0</ele><time>2026-05-02T13:28:32.795Z</time></trkpt><trkpt lat="45.9736769" lon="10.558448"><ele>913.0</ele><time>2026-05-02T13:28:33.795Z</time></trkpt><trkpt lat="45.9737065" lon="10.5582356"><ele>913.0</ele><time>2026-05-02T13:28:34.795Z</time></trkpt><trkpt lat="45.9737227" lon="10.5580132"><ele>913.0</ele><time>2026-05-02T13:28:35.795Z</time></trkpt><trkpt lat="45.9737241" lon="10.5577843"><ele>913.0</ele><time>2026-05-02T13:28:36.795Z</time></trkpt><trkpt lat="45.9737071" lon="10.5575573"><ele>914.6666666666666</ele><time>2026-05-02T13:28:37.795Z</time></trkpt><trkpt lat="45.9737017" lon="10.5573324"><ele>916.3333333333333</ele><time>2026-05-02T13:28:38.795Z</time></trkpt><trkpt lat="45.9737041" lon="10.5571114"><ele>918.0</ele><time>2026-05-02T13:28:39.795Z</time></trkpt><trkpt lat="45.9737061" lon="10.556892"><ele>919.3333333333333</ele><time>2026-05-02T13:28:40.795Z</time></trkpt><trkpt lat="45.9737184" lon="10.5566721"><ele>920.6666666666666</ele><time>2026-05-02T13:28:41.795Z</time></trkpt><trkpt lat="45.9737462" lon="10.5564485"><ele>922.0</ele><time>2026-05-02T13:28:42.795Z</time></trkpt><trkpt lat="45.973778" lon="10.5562167"><ele>923.0</ele><time>2026-05-02T13:28:43.795Z</time></trkpt><trkpt lat="45.9738076" lon="10.5559834"><ele>924.0</ele><time>2026-05-02T13:28:44.795Z</time></trkpt><trkpt lat="45.9738447" lon="10.5557508"><ele>925.0</ele><time>2026-05-02T13:28:45.795Z</time></trkpt><trkpt lat="45.9738753" lon="10.5555125"><ele>923.3333333333333</ele><time>2026-05-02T13:28:46.795Z</time></trkpt><trkpt lat="45.9739215" lon="10.5552839"><ele>921.6666666666667</ele><time>2026-05-02T13:28:47.795Z</time></trkpt><trkpt lat="45.9739753" lon="10.5550562"><ele>920.0</ele><time>2026-05-02T13:28:48.795Z</time></trkpt><trkpt lat="45.974049" lon="10.5548392"><ele>920.0</ele><time>2026-05-02T13:28:49.795Z</time></trkpt><trkpt lat="45.9741421" lon="10.5546458"><ele>920.0</ele><time>2026-05-02T13:28:50.795Z</time></trkpt><trkpt lat="45.9742509" lon="10.5544612"><ele>920.0</ele><time>2026-05-02T13:28:51.795Z</time></trkpt><trkpt lat="45.9743643" lon="10.5542697"><ele>922.6666666666667</ele><time>2026-05-02T13:28:52.795Z</time></trkpt><trkpt lat="45.9744493" lon="10.5540501"><ele>925.3333333333333</ele><time>2026-05-02T13:28:53.795Z</time></trkpt><trkpt lat="45.9745112" lon="10.553819"><ele>928.0</ele><time>2026-05-02T13:28:54.795Z</time></trkpt><trkpt lat="45.9745451" lon="10.5535794"><ele>928.0</ele><time>2026-05-02T13:28:55.795Z</time></trkpt><trkpt lat="45.974558" lon="10.5533426"><ele>928.0</ele><time>2026-05-02T13:28:56.795Z</time></trkpt><trkpt lat="45.9745744" lon="10.5531092"><ele>928.0</ele><time>2026-05-02T13:28:57.795Z</time></trkpt><trkpt lat="45.9746235" lon="10.5528764"><ele>924.6666666666666</ele><time>2026-05-02T13:28:58.795Z</time></trkpt><trkpt lat="45.974699" lon="10.5526611"><ele>921.3333333333333</ele><time>2026-05-02T13:28:59.795Z</time></trkpt><trkpt lat="45.9747993" lon="10.552458"><ele>918.0</ele><time>2026-05-02T13:29:00.795Z</time></trkpt><trkpt lat="45.9749143" lon="10.5522489"><ele>917.0</ele><time>2026-05-02T13:29:01.795Z</time></trkpt><trkpt lat="45.9750682" lon="10.5520806"><ele>916.0</ele><time>2026-05-02T13:29:02.795Z</time></trkpt><trkpt lat="45.9752133" lon="10.5518976"><ele>915.0</ele><time>2026-05-02T13:29:03.795Z</time></trkpt><trkpt lat="45.9753592" lon="10.5517245"><ele>915.0</ele><time>2026-05-02T13:29:04.795Z</time></trkpt><trkpt lat="45.975519" lon="10.5515794"><ele>915.0</ele><time>2026-05-02T13:29:05.795Z</time></trkpt><trkpt lat="45.9756777" lon="10.5514533"><ele>915.0</ele><time>2026-05-02T13:29:06.795Z</time></trkpt><trkpt lat="45.9758193" lon="10.5513159"><ele>914.0</ele><time>2026-05-02T13:29:07.795Z</time></trkpt><trkpt lat="45.9759392" lon="10.5511564"><ele>913.0</ele><time>2026-05-02T13:29:08.795Z</time></trkpt><trkpt lat="45.9760341" lon="10.550981"><ele>912.0</ele><time>2026-05-02T13:29:09.795Z</time></trkpt><trkpt lat="45.9761054" lon="10.55078"><ele>912.0</ele><time>2026-05-02T13:29:10.795Z</time></trkpt><trkpt lat="45.9761653" lon="10.5505688"><ele>912.0</ele><time>2026-05-02T13:29:11.795Z</time></trkpt><trkpt lat="45.9762264" lon="10.5503595"><ele>912.0</ele><time>2026-05-02T13:29:12.795Z</time></trkpt><trkpt lat="45.9762885" lon="10.550161"><ele>912.0</ele><time>2026-05-02T13:29:13.795Z</time></trkpt><trkpt lat="45.9763372" lon="10.5499599"><ele>912.0</ele><time>2026-05-02T13:29:14.795Z</time></trkpt><trkpt lat="45.976377" lon="10.5497619"><ele>912.0</ele><time>2026-05-02T13:29:15.795Z</time></trkpt><trkpt lat="45.9764023" lon="10.5495643"><ele>912.0</ele><time>2026-05-02T13:29:16.795Z</time></trkpt><trkpt lat="45.9764059" lon="10.5493631"><ele>912.5</ele><time>2026-05-02T13:29:17.795Z</time></trkpt><trkpt lat="45.976398" lon="10.5491616"><ele>913.0</ele><time>2026-05-02T13:29:18.795Z</time></trkpt><trkpt lat="45.9763893" lon="10.5489552"><ele>913.5</ele><time>2026-05-02T13:29:19.795Z</time></trkpt><trkpt lat="45.9763826" lon="10.5487535"><ele>914.0</ele><time>2026-05-02T13:29:20.795Z</time></trkpt><trkpt lat="45.9763796" lon="10.5485454"><ele>914.0</ele><time>2026-05-02T13:29:21.795Z</time></trkpt><trkpt lat="45.9763767" lon="10.5483452"><ele>914.0</ele><time>2026-05-02T13:29:22.795Z</time></trkpt><trkpt lat="45.9763825" lon="10.5481415"><ele>914.0</ele><time>2026-05-02T13:29:23.795Z</time></trkpt><trkpt lat="45.9763935" lon="10.5479337"><ele>914.0</ele><time>2026-05-02T13:29:24.795Z</time></trkpt><trkpt lat="45.9764077" lon="10.5477172"><ele>913.3333333333334</ele><time>2026-05-02T13:29:25.795Z</time></trkpt><trkpt lat="45.9764215" lon="10.5474973"><ele>912.6666666666667</ele><time>2026-05-02T13:29:26.795Z</time></trkpt><trkpt lat="45.9764391" lon="10.5472791"><ele>912.0</ele><time>2026-05-02T13:29:27.795Z</time></trkpt><trkpt lat="45.9764517" lon="10.5470596"><ele>913.3333333333333</ele><time>2026-05-02T13:29:28.795Z</time></trkpt><trkpt lat="45.9764634" lon="10.5468315"><ele>914.6666666666666</ele><time>2026-05-02T13:29:29.795Z</time></trkpt><trkpt lat="45.9764774" lon="10.5466093"><ele>916.0</ele><time>2026-05-02T13:29:30.795Z</time></trkpt><trkpt lat="45.9764971" lon="10.5463965"><ele>915.6666666666666</ele><time>2026-05-02T13:29:31.795Z</time></trkpt><trkpt lat="45.9765401" lon="10.5461758"><ele>915.3333333333333</ele><time>2026-05-02T13:29:32.795Z</time></trkpt><trkpt lat="45.9765954" lon="10.5459787"><ele>915.0</ele><time>2026-05-02T13:29:33.795Z</time></trkpt><trkpt lat="45.9766549" lon="10.5457694"><ele>915.3333333333333</ele><time>2026-05-02T13:29:34.795Z</time></trkpt><trkpt lat="45.9767016" lon="10.5455593"><ele>915.6666666666666</ele><time>2026-05-02T13:29:35.795Z</time></trkpt><trkpt lat="45.9767416" lon="10.5453483"><ele>916.0</ele><time>2026-05-02T13:29:36.795Z</time></trkpt><trkpt lat="45.9767847" lon="10.5451378"><ele>916.0</ele><time>2026-05-02T13:29:37.795Z</time></trkpt><trkpt lat="45.9768445" lon="10.5449478"><ele>916.0</ele><time>2026-05-02T13:29:38.795Z</time></trkpt><trkpt lat="45.9769061" lon="10.5447434"><ele>916.0</ele><time>2026-05-02T13:29:39.795Z</time></trkpt><trkpt lat="45.9769389" lon="10.5445256"><ele>916.0</ele><time>2026-05-02T13:29:40.795Z</time></trkpt><trkpt lat="45.9769562" lon="10.5443198"><ele>916.0</ele><time>2026-05-02T13:29:41.795Z</time></trkpt><trkpt lat="45.9769576" lon="10.5441198"><ele>916.0</ele><time>2026-05-02T13:29:42.795Z</time></trkpt><trkpt lat="45.9769514" lon="10.5439228"><ele>916.0</ele><time>2026-05-02T13:29:43.795Z</time></trkpt><trkpt lat="45.9769621" lon="10.5437264"><ele>916.25</ele><time>2026-05-02T13:29:44.795Z</time></trkpt><trkpt lat="45.9769864" lon="10.5435266"><ele>916.5</ele><time>2026-05-02T13:29:45.795Z</time></trkpt><trkpt lat="45.977036" lon="10.5433346"><ele>916.75</ele><time>2026-05-02T13:29:46.795Z</time></trkpt><trkpt lat="45.9770981" lon="10.5431418"><ele>917.0</ele><time>2026-05-02T13:29:47.795Z</time></trkpt><trkpt lat="45.9771503" lon="10.5429462"><ele>918.25</ele><time>2026-05-02T13:29:48.795Z</time></trkpt><trkpt lat="45.9772057" lon="10.5427569"><ele>919.5</ele><time>2026-05-02T13:29:49.795Z</time></trkpt><trkpt lat="45.9772696" lon="10.5425823"><ele>920.75</ele><time>2026-05-02T13:29:50.795Z</time></trkpt><trkpt lat="45.9773128" lon="10.5424139"><ele>922.0</ele><time>2026-05-02T13:29:51.795Z</time></trkpt><trkpt lat="45.9772947" lon="10.5421067"><ele>926.2</ele><time>2026-05-02T13:29:53.795Z</time></trkpt><trkpt lat="45.9772425" lon="10.5419922"><ele>930.4000000000001</ele><time>2026-05-02T13:29:54.795Z</time></trkpt><trkpt lat="45.977154" lon="10.5419114"><ele>934.5999999999999</ele><time>2026-05-02T13:29:55.795Z</time></trkpt><trkpt lat="45.9770327" lon="10.5418821"><ele>938.8</ele><time>2026-05-02T13:29:56.795Z</time></trkpt><trkpt lat="45.9769106" lon="10.5418362"><ele>943.0</ele><time>2026-05-02T13:29:57.795Z</time></trkpt><trkpt lat="45.976797" lon="10.5417668"><ele>943.0</ele><time>2026-05-02T13:29:58.795Z</time></trkpt><trkpt lat="45.9767017" lon="10.5416745"><ele>943.0</ele><time>2026-05-02T13:29:59.795Z</time></trkpt><trkpt lat="45.9766336" lon="10.5415509"><ele>943.0</ele><time>2026-05-02T13:30:00.795Z</time></trkpt><trkpt lat="45.9766183" lon="10.541413"><ele>943.0</ele><time>2026-05-02T13:30:01.795Z</time></trkpt><trkpt lat="45.9766374" lon="10.5412784"><ele>943.0</ele><time>2026-05-02T13:30:02.795Z</time></trkpt><trkpt lat="45.9766892" lon="10.5411535"><ele>946.0</ele><time>2026-05-02T13:30:03.795Z</time></trkpt><trkpt lat="45.9767482" lon="10.5410012"><ele>949.0</ele><time>2026-05-02T13:30:04.795Z</time></trkpt><trkpt lat="45.9768059" lon="10.5408436"><ele>952.0</ele><time>2026-05-02T13:30:05.795Z</time></trkpt><trkpt lat="45.9768549" lon="10.5406848"><ele>955.0</ele><time>2026-05-02T13:30:06.795Z</time></trkpt><trkpt lat="45.9769095" lon="10.5405371"><ele>954.9999999999999</ele><time>2026-05-02T13:30:07.795Z</time></trkpt><trkpt lat="45.9769756" lon="10.5404249"><ele>955.0</ele><time>2026-05-02T13:30:08.795Z</time></trkpt><trkpt lat="45.9770418" lon="10.5403408"><ele>955.0</ele><time>2026-05-02T13:30:09.795Z</time></trkpt><trkpt lat="45.9771042" lon="10.5402989"><ele>955.0</ele><time>2026-05-02T13:30:10.795Z</time></trkpt><trkpt lat="45.9772082" lon="10.5403624"><ele>954.9999999999999</ele><time>2026-05-02T13:30:12.795Z</time></trkpt><trkpt lat="45.9772369" lon="10.5404624"><ele>955.0</ele><time>2026-05-02T13:30:13.795Z</time></trkpt><trkpt lat="45.977247" lon="10.5406083"><ele>955.0</ele><time>2026-05-02T13:30:14.795Z</time></trkpt><trkpt lat="45.9772343" lon="10.5407915"><ele>955.0</ele><time>2026-05-02T13:30:15.795Z</time></trkpt><trkpt lat="45.9772213" lon="10.5410228"><ele>955.0</ele><time>2026-05-02T13:30:16.795Z</time></trkpt><trkpt lat="45.9772372" lon="10.5412561"><ele>956.6666666666666</ele><time>2026-05-02T13:30:17.795Z</time></trkpt><trkpt lat="45.9772691" lon="10.5414364"><ele>958.3333333333333</ele><time>2026-05-02T13:30:18.795Z</time></trkpt><trkpt lat="45.977315" lon="10.5415536"><ele>960.0</ele><time>2026-05-02T13:30:19.795Z</time></trkpt><trkpt lat="45.977372" lon="10.5416356"><ele>961.6666666666667</ele><time>2026-05-02T13:30:20.795Z</time></trkpt><trkpt lat="45.9774322" lon="10.5416762"><ele>963.3333333333334</ele><time>2026-05-02T13:30:21.795Z</time></trkpt><trkpt lat="45.9774981" lon="10.5416807"><ele>965.0</ele><time>2026-05-02T13:30:22.795Z</time></trkpt><trkpt lat="45.9775505" lon="10.5416245"><ele>965.0</ele><time>2026-05-02T13:30:23.795Z</time></trkpt><trkpt lat="45.9775877" lon="10.5415103"><ele>965.0</ele><time>2026-05-02T13:30:24.795Z</time></trkpt><trkpt lat="45.9776105" lon="10.5413376"><ele>965.0</ele><time>2026-05-02T13:30:25.795Z</time></trkpt><trkpt lat="45.9776229" lon="10.5411022"><ele>965.0</ele><time>2026-05-02T13:30:26.795Z</time></trkpt><trkpt lat="45.9776363" lon="10.5408092"><ele>964.0</ele><time>2026-05-02T13:30:27.795Z</time></trkpt><trkpt lat="45.9776797" lon="10.5405817"><ele>963.0</ele><time>2026-05-02T13:30:28.795Z</time></trkpt><trkpt lat="45.9777457" lon="10.5404227"><ele>962.0</ele><time>2026-05-02T13:30:29.795Z</time></trkpt><trkpt lat="45.9778212" lon="10.5403311"><ele>961.0</ele><time>2026-05-02T13:30:30.795Z</time></trkpt><trkpt lat="45.97792" lon="10.5403137"><ele>961.0</ele><time>2026-05-02T13:30:31.795Z</time></trkpt><trkpt lat="45.9780413" lon="10.5403251"><ele>961.0</ele><time>2026-05-02T13:30:32.795Z</time></trkpt><trkpt lat="45.9781811" lon="10.5403379"><ele>961.0</ele><time>2026-05-02T13:30:33.795Z</time></trkpt><trkpt lat="45.9783229" lon="10.5403303"><ele>961.0</ele><time>2026-05-02T13:30:34.795Z</time></trkpt><trkpt lat="45.9784541" lon="10.5402854"><ele>964.25</ele><time>2026-05-02T13:30:35.795Z</time></trkpt><trkpt lat="45.978588" lon="10.5402233"><ele>967.5</ele><time>2026-05-02T13:30:36.795Z</time></trkpt><trkpt lat="45.9787203" lon="10.540166"><ele>970.75</ele><time>2026-05-02T13:30:37.795Z</time></trkpt><trkpt lat="45.9788567" lon="10.5401307"><ele>974.0</ele><time>2026-05-02T13:30:38.795Z</time></trkpt><trkpt lat="45.978991" lon="10.540134"><ele>974.0</ele><time>2026-05-02T13:30:39.795Z</time></trkpt><trkpt lat="45.9791279" lon="10.5401412"><ele>974.0</ele><time>2026-05-02T13:30:40.795Z</time></trkpt><trkpt lat="45.9792725" lon="10.5401405"><ele>974.0</ele><time>2026-05-02T13:30:41.795Z</time></trkpt><trkpt lat="45.9794095" lon="10.5401401"><ele>974.0</ele><time>2026-05-02T13:30:42.795Z</time></trkpt><trkpt lat="45.9795229" lon="10.5401067"><ele>979.5</ele><time>2026-05-02T13:30:43.795Z</time></trkpt><trkpt lat="45.9796249" lon="10.5400289"><ele>985.0</ele><time>2026-05-02T13:30:44.795Z</time></trkpt><trkpt lat="45.9797034" lon="10.539902"><ele>990.5</ele><time>2026-05-02T13:30:45.795Z</time></trkpt><trkpt lat="45.9797715" lon="10.5397532"><ele>996.0</ele><time>2026-05-02T13:30:46.795Z</time></trkpt><trkpt lat="45.9798238" lon="10.5395826"><ele>993.5999999999999</ele><time>2026-05-02T13:30:47.795Z</time></trkpt><trkpt lat="45.979897" lon="10.5394397"><ele>991.1999999999999</ele><time>2026-05-02T13:30:48.795Z</time></trkpt><trkpt lat="45.9799776" lon="10.53933"><ele>988.8000000000001</ele><time>2026-05-02T13:30:49.795Z</time></trkpt><trkpt lat="45.9800481" lon="10.5392482"><ele>986.4000000000001</ele><time>2026-05-02T13:30:50.795Z</time></trkpt><trkpt lat="45.9801196" lon="10.5392163"><ele>984.0</ele><time>2026-05-02T13:30:51.795Z</time></trkpt><trkpt lat="45.9802147" lon="10.5392401"><ele>989.4000000000001</ele><time>2026-05-02T13:30:52.795Z</time></trkpt><trkpt lat="45.9803221" lon="10.5392775"><ele>994.8000000000001</ele><time>2026-05-02T13:30:53.795Z</time></trkpt><trkpt lat="45.9804247" lon="10.5392943"><ele>1000.1999999999999</ele><time>2026-05-02T13:30:54.795Z</time></trkpt><trkpt lat="45.9805268" lon="10.5392873"><ele>1005.5999999999999</ele><time>2026-05-02T13:30:55.795Z</time></trkpt><trkpt lat="45.9806161" lon="10.539252"><ele>1011.0</ele><time>2026-05-02T13:30:56.795Z</time></trkpt><trkpt lat="45.9806894" lon="10.5391847"><ele>1011.0</ele><time>2026-05-02T13:30:57.795Z</time></trkpt><trkpt lat="45.9807441" lon="10.5390681"><ele>1010.9999999999999</ele><time>2026-05-02T13:30:58.795Z</time></trkpt><trkpt lat="45.9807684" lon="10.5389221"><ele>1010.9999999999999</ele><time>2026-05-02T13:30:59.795Z</time></trkpt><trkpt lat="45.9808024" lon="10.5387927"><ele>1011.0</ele><time>2026-05-02T13:31:00.795Z</time></trkpt><trkpt lat="45.9808649" lon="10.538691"><ele>1011.0</ele><time>2026-05-02T13:31:01.795Z</time></trkpt><trkpt lat="45.9809523" lon="10.5385961"><ele>1011.5</ele><time>2026-05-02T13:31:02.795Z</time></trkpt><trkpt lat="45.9810621" lon="10.5384951"><ele>1012.0</ele><time>2026-05-02T13:31:03.795Z</time></trkpt><trkpt lat="45.9811757" lon="10.5383855"><ele>1012.5</ele><time>2026-05-02T13:31:04.795Z</time></trkpt><trkpt lat="45.9813021" lon="10.5382707"><ele>1013.0</ele><time>2026-05-02T13:31:05.795Z</time></trkpt><trkpt lat="45.9814353" lon="10.5381629"><ele>1013.0</ele><time>2026-05-02T13:31:06.795Z</time></trkpt><trkpt lat="45.9815847" lon="10.5380555"><ele>1013.0</ele><time>2026-05-02T13:31:07.795Z</time></trkpt><trkpt lat="45.9817298" lon="10.5379547"><ele>1013.0</ele><time>2026-05-02T13:31:08.795Z</time></trkpt><trkpt lat="45.9818617" lon="10.5378348"><ele>1015.5</ele><time>2026-05-02T13:31:09.795Z</time></trkpt><trkpt lat="45.9819769" lon="10.5377007"><ele>1018.0</ele><time>2026-05-02T13:31:10.795Z</time></trkpt><trkpt lat="45.9820839" lon="10.5375488"><ele>1020.5</ele><time>2026-05-02T13:31:11.795Z</time></trkpt><trkpt lat="45.982194" lon="10.537409"><ele>1023.0</ele><time>2026-05-02T13:31:12.795Z</time></trkpt><trkpt lat="45.982309" lon="10.5372979"><ele>1023.0</ele><time>2026-05-02T13:31:13.795Z</time></trkpt><trkpt lat="45.9824306" lon="10.5372207"><ele>1023.0</ele><time>2026-05-02T13:31:14.795Z</time></trkpt><trkpt lat="45.9825537" lon="10.5371606"><ele>1023.0</ele><time>2026-05-02T13:31:15.795Z</time></trkpt><trkpt lat="45.9826607" lon="10.5370667"><ele>1023.0</ele><time>2026-05-02T13:31:16.795Z</time></trkpt><trkpt lat="45.9827344" lon="10.5369537"><ele>1025.4</ele><time>2026-05-02T13:31:17.795Z</time></trkpt><trkpt lat="45.9827881" lon="10.536826"><ele>1027.8</ele><time>2026-05-02T13:31:18.795Z</time></trkpt><trkpt lat="45.9828212" lon="10.5366917"><ele>1030.2</ele><time>2026-05-02T13:31:19.795Z</time></trkpt><trkpt lat="45.9828734" lon="10.5365752"><ele>1032.6</ele><time>2026-05-02T13:31:20.795Z</time></trkpt><trkpt lat="45.9829566" lon="10.53648"><ele>1035.0</ele><time>2026-05-02T13:31:21.795Z</time></trkpt><trkpt lat="45.9830449" lon="10.5363816"><ele>1035.0</ele><time>2026-05-02T13:31:22.795Z</time></trkpt><trkpt lat="45.9831532" lon="10.5363036"><ele>1035.0</ele><time>2026-05-02T13:31:23.795Z</time></trkpt><trkpt lat="45.9832691" lon="10.5362516"><ele>1035.0</ele><time>2026-05-02T13:31:24.795Z</time></trkpt><trkpt lat="45.9833949" lon="10.5362183"><ele>1035.0</ele><time>2026-05-02T13:31:25.795Z</time></trkpt><trkpt lat="45.983524" lon="10.536199"><ele>1031.75</ele><time>2026-05-02T13:31:26.795Z</time></trkpt><trkpt lat="45.9836549" lon="10.5361826"><ele>1028.5</ele><time>2026-05-02T13:31:27.795Z</time></trkpt><trkpt lat="45.9837869" lon="10.5361626"><ele>1025.25</ele><time>2026-05-02T13:31:28.795Z</time></trkpt><trkpt lat="45.9839125" lon="10.5361331"><ele>1022.0</ele><time>2026-05-02T13:31:29.795Z</time></trkpt><trkpt lat="45.9840362" lon="10.5360886"><ele>1022.0</ele><time>2026-05-02T13:31:30.795Z</time></trkpt><trkpt lat="45.984153" lon="10.5360249"><ele>1022.0</ele><time>2026-05-02T13:31:31.795Z</time></trkpt><trkpt lat="45.9842641" lon="10.5359701"><ele>1022.0</ele><time>2026-05-02T13:31:32.795Z</time></trkpt><trkpt lat="45.9843742" lon="10.5359236"><ele>1022.0</ele><time>2026-05-02T13:31:33.795Z</time></trkpt><trkpt lat="45.9844892" lon="10.5358933"><ele>1026.25</ele><time>2026-05-02T13:31:34.795Z</time></trkpt><trkpt lat="45.9845997" lon="10.5358661"><ele>1030.5</ele><time>2026-05-02T13:31:35.795Z</time></trkpt><trkpt lat="45.9847185" lon="10.5358505"><ele>1034.75</ele><time>2026-05-02T13:31:36.795Z</time></trkpt><trkpt lat="45.9848364" lon="10.5358408"><ele>1039.0</ele><time>2026-05-02T13:31:37.795Z</time></trkpt><trkpt lat="45.9849611" lon="10.5358348"><ele>1039.0</ele><time>2026-05-02T13:31:38.795Z</time></trkpt><trkpt lat="45.9850916" lon="10.5358461"><ele>1039.0</ele><time>2026-05-02T13:31:39.795Z</time></trkpt><trkpt lat="45.9852263" lon="10.535871"><ele>1039.0</ele><time>2026-05-02T13:31:40.795Z</time></trkpt><trkpt lat="45.9853645" lon="10.5359042"><ele>1039.0</ele><time>2026-05-02T13:31:41.795Z</time></trkpt><trkpt lat="45.9855009" lon="10.5359212"><ele>1039.0</ele><time>2026-05-02T13:31:42.795Z</time></trkpt><trkpt lat="45.9856457" lon="10.5359192"><ele>1039.0</ele><time>2026-05-02T13:31:43.795Z</time></trkpt><trkpt lat="45.9857874" lon="10.5359257"><ele>1039.0</ele><time>2026-05-02T13:31:44.795Z</time></trkpt><trkpt lat="45.9859255" lon="10.5359345"><ele>1039.0</ele><time>2026-05-02T13:31:45.795Z</time></trkpt><trkpt lat="45.9860636" lon="10.5359058"><ele>1042.25</ele><time>2026-05-02T13:31:46.795Z</time></trkpt><trkpt lat="45.9861944" lon="10.5358239"><ele>1045.5</ele><time>2026-05-02T13:31:47.795Z</time></trkpt><trkpt lat="45.9863181" lon="10.5357248"><ele>1048.75</ele><time>2026-05-02T13:31:48.795Z</time></trkpt><trkpt lat="45.9864349" lon="10.5356397"><ele>1052.0</ele><time>2026-05-02T13:31:49.795Z</time></trkpt><trkpt lat="45.9865721" lon="10.5356127"><ele>1058.5</ele><time>2026-05-02T13:31:50.795Z</time></trkpt><trkpt lat="45.9867155" lon="10.5355978"><ele>1065.0</ele><time>2026-05-02T13:31:51.795Z</time></trkpt><trkpt lat="45.9868569" lon="10.5355985"><ele>1071.5</ele><time>2026-05-02T13:31:52.795Z</time></trkpt><trkpt lat="45.9869968" lon="10.5356036"><ele>1078.0</ele><time>2026-05-02T13:31:53.795Z</time></trkpt><trkpt lat="45.9871471" lon="10.535593"><ele>1078.0</ele><time>2026-05-02T13:31:54.795Z</time></trkpt><trkpt lat="45.9872962" lon="10.5355411"><ele>1078.0</ele><time>2026-05-02T13:31:55.795Z</time></trkpt><trkpt lat="45.9874206" lon="10.5354755"><ele>1078.0</ele><time>2026-05-02T13:31:56.795Z</time></trkpt><trkpt lat="45.9875361" lon="10.5353985"><ele>1078.0</ele><time>2026-05-02T13:31:57.795Z</time></trkpt><trkpt lat="45.9876463" lon="10.5353401"><ele>1072.6</ele><time>2026-05-02T13:31:58.795Z</time></trkpt><trkpt lat="45.9877557" lon="10.5353184"><ele>1067.1999999999998</ele><time>2026-05-02T13:31:59.795Z</time></trkpt><trkpt lat="45.9878663" lon="10.535318"><ele>1061.8</ele><time>2026-05-02T13:32:00.795Z</time></trkpt><trkpt lat="45.9879749" lon="10.5353363"><ele>1056.3999999999999</ele><time>2026-05-02T13:32:01.795Z</time></trkpt><trkpt lat="45.9880867" lon="10.5353581"><ele>1051.0</ele><time>2026-05-02T13:32:02.795Z</time></trkpt><trkpt lat="45.9881971" lon="10.5353778"><ele>1051.0</ele><time>2026-05-02T13:32:03.795Z</time></trkpt><trkpt lat="45.988312" lon="10.5353643"><ele>1051.0</ele><time>2026-05-02T13:32:04.795Z</time></trkpt><trkpt lat="45.9884242" lon="10.5353229"><ele>1051.0</ele><time>2026-05-02T13:32:05.795Z</time></trkpt><trkpt lat="45.9885343" lon="10.5352656"><ele>1051.0</ele><time>2026-05-02T13:32:06.795Z</time></trkpt><trkpt lat="45.9886506" lon="10.5351991"><ele>1056.5</ele><time>2026-05-02T13:32:07.795Z</time></trkpt><trkpt lat="45.98877" lon="10.53512"><ele>1062.0</ele><time>2026-05-02T13:32:08.795Z</time></trkpt><trkpt lat="45.9888901" lon="10.5350395"><ele>1067.5</ele><time>2026-05-02T13:32:09.795Z</time></trkpt><trkpt lat="45.9890039" lon="10.5349493"><ele>1073.0</ele><time>2026-05-02T13:32:10.795Z</time></trkpt><trkpt lat="45.9891147" lon="10.5348547"><ele>1076.75</ele><time>2026-05-02T13:32:11.795Z</time></trkpt><trkpt lat="45.9892299" lon="10.534768"><ele>1080.5</ele><time>2026-05-02T13:32:12.795Z</time></trkpt><trkpt lat="45.9893349" lon="10.5346866"><ele>1084.25</ele><time>2026-05-02T13:32:13.795Z</time></trkpt><trkpt lat="45.9894221" lon="10.534595"><ele>1088.0</ele><time>2026-05-02T13:32:14.795Z</time></trkpt><trkpt lat="45.9895039" lon="10.5344703"><ele>1088.0</ele><time>2026-05-02T13:32:15.795Z</time></trkpt><trkpt lat="45.9895797" lon="10.5343261"><ele>1088.0</ele><time>2026-05-02T13:32:16.795Z</time></trkpt><trkpt lat="45.9896476" lon="10.5341662"><ele>1088.0</ele><time>2026-05-02T13:32:17.795Z</time></trkpt><trkpt lat="45.9897154" lon="10.5340011"><ele>1088.0</ele><time>2026-05-02T13:32:18.795Z</time></trkpt><trkpt lat="45.9897822" lon="10.5338229"><ele>1086.75</ele><time>2026-05-02T13:32:19.795Z</time></trkpt><trkpt lat="45.9898532" lon="10.5336479"><ele>1085.5</ele><time>2026-05-02T13:32:20.795Z</time></trkpt><trkpt lat="45.9899211" lon="10.5334817"><ele>1084.25</ele><time>2026-05-02T13:32:21.795Z</time></trkpt><trkpt lat="45.9899952" lon="10.5333096"><ele>1083.0</ele><time>2026-05-02T13:32:22.795Z</time></trkpt><trkpt lat="45.9900563" lon="10.5331304"><ele>1092.5</ele><time>2026-05-02T13:32:23.795Z</time></trkpt><trkpt lat="45.9901081" lon="10.5329623"><ele>1102.0</ele><time>2026-05-02T13:32:24.795Z</time></trkpt><trkpt lat="45.9901489" lon="10.532795"><ele>1111.5</ele><time>2026-05-02T13:32:25.795Z</time></trkpt><trkpt lat="45.9901643" lon="10.5326367"><ele>1121.0</ele><time>2026-05-02T13:32:26.795Z</time></trkpt><trkpt lat="45.9901421" lon="10.5324749"><ele>1124.8</ele><time>2026-05-02T13:32:27.795Z</time></trkpt><trkpt lat="45.9900988" lon="10.5323351"><ele>1128.6</ele><time>2026-05-02T13:32:28.795Z</time></trkpt><trkpt lat="45.9900674" lon="10.53221"><ele>1132.4</ele><time>2026-05-02T13:32:29.795Z</time></trkpt><trkpt lat="45.9900569" lon="10.5320898"><ele>1136.2</ele><time>2026-05-02T13:32:30.795Z</time></trkpt><trkpt lat="45.9900641" lon="10.5319742"><ele>1140.0</ele><time>2026-05-02T13:32:31.795Z</time></trkpt><trkpt lat="45.9900891" lon="10.5318443"><ele>1143.25</ele><time>2026-05-02T13:32:32.795Z</time></trkpt><trkpt lat="45.9901282" lon="10.5316963"><ele>1146.5</ele><time>2026-05-02T13:32:33.795Z</time></trkpt><trkpt lat="45.9901522" lon="10.5315334"><ele>1149.75</ele><time>2026-05-02T13:32:34.795Z</time></trkpt><trkpt lat="45.9901554" lon="10.5313579"><ele>1153.0</ele><time>2026-05-02T13:32:35.795Z</time></trkpt><trkpt lat="45.9901326" lon="10.531184"><ele>1153.5</ele><time>2026-05-02T13:32:36.795Z</time></trkpt><trkpt lat="45.9900654" lon="10.5310058"><ele>1154.0</ele><time>2026-05-02T13:32:37.795Z</time></trkpt><trkpt lat="45.9899853" lon="10.5308292"><ele>1154.5</ele><time>2026-05-02T13:32:38.795Z</time></trkpt><trkpt lat="45.9898872" lon="10.5306673"><ele>1155.0</ele><time>2026-05-02T13:32:39.795Z</time></trkpt><trkpt lat="45.9897877" lon="10.5305138"><ele>1145.25</ele><time>2026-05-02T13:32:40.795Z</time></trkpt><trkpt lat="45.9897008" lon="10.5303668"><ele>1135.5</ele><time>2026-05-02T13:32:41.795Z</time></trkpt><trkpt lat="45.989618" lon="10.5302361"><ele>1125.75</ele><time>2026-05-02T13:32:42.795Z</time></trkpt><trkpt lat="45.9895613" lon="10.5301043"><ele>1116.0</ele><time>2026-05-02T13:32:43.795Z</time></trkpt><trkpt lat="45.9895422" lon="10.5299644"><ele>1116.0</ele><time>2026-05-02T13:32:44.795Z</time></trkpt><trkpt lat="45.9895683" lon="10.5298251"><ele>1116.0</ele><time>2026-05-02T13:32:45.796Z</time></trkpt><trkpt lat="45.9896328" lon="10.529704"><ele>1116.0</ele><time>2026-05-02T13:32:46.795Z</time></trkpt><trkpt lat="45.989728" lon="10.5296232"><ele>1116.0</ele><time>2026-05-02T13:32:47.795Z</time></trkpt><trkpt lat="45.9898395" lon="10.5295632"><ele>1116.0</ele><time>2026-05-02T13:32:48.795Z</time></trkpt><trkpt lat="45.9899656" lon="10.5294938"><ele>1114.5</ele><time>2026-05-02T13:32:49.795Z</time></trkpt><trkpt lat="45.9901012" lon="10.5294242"><ele>1113.0</ele><time>2026-05-02T13:32:50.795Z</time></trkpt><trkpt lat="45.9902368" lon="10.5293684"><ele>1111.5</ele><time>2026-05-02T13:32:51.795Z</time></trkpt><trkpt lat="45.9903763" lon="10.5293305"><ele>1110.0</ele><time>2026-05-02T13:32:52.795Z</time></trkpt><trkpt lat="45.9905251" lon="10.5293066"><ele>1110.0</ele><time>2026-05-02T13:32:53.795Z</time></trkpt><trkpt lat="45.9906708" lon="10.5292921"><ele>1110.0</ele><time>2026-05-02T13:32:54.795Z</time></trkpt><trkpt lat="45.9908163" lon="10.5292853"><ele>1110.0</ele><time>2026-05-02T13:32:55.795Z</time></trkpt><trkpt lat="45.9909643" lon="10.5292801"><ele>1110.0</ele><time>2026-05-02T13:32:56.795Z</time></trkpt><trkpt lat="45.9911224" lon="10.5292774"><ele>1116.0</ele><time>2026-05-02T13:32:57.795Z</time></trkpt><trkpt lat="45.9912753" lon="10.5292566"><ele>1122.0</ele><time>2026-05-02T13:32:58.795Z</time></trkpt><trkpt lat="45.9914067" lon="10.5292106"><ele>1128.0</ele><time>2026-05-02T13:32:59.795Z</time></trkpt><trkpt lat="45.9915228" lon="10.5291185"><ele>1134.0</ele><time>2026-05-02T13:33:00.795Z</time></trkpt><trkpt lat="45.9916227" lon="10.5289921"><ele>1134.0</ele><time>2026-05-02T13:33:01.795Z</time></trkpt><trkpt lat="45.991718" lon="10.5288592"><ele>1134.0</ele><time>2026-05-02T13:33:02.795Z</time></trkpt><trkpt lat="45.9918073" lon="10.5287271"><ele>1134.0</ele><time>2026-05-02T13:33:03.795Z</time></trkpt><trkpt lat="45.9919022" lon="10.5286236"><ele>1134.0</ele><time>2026-05-02T13:33:04.795Z</time></trkpt><trkpt lat="45.9920045" lon="10.5285409"><ele>1134.0</ele><time>2026-05-02T13:33:05.795Z</time></trkpt><trkpt lat="45.9921166" lon="10.5284951"><ele>1134.0</ele><time>2026-05-02T13:33:06.795Z</time></trkpt><trkpt lat="45.9922343" lon="10.5284713"><ele>1134.0</ele><time>2026-05-02T13:33:07.795Z</time></trkpt><trkpt lat="45.9923603" lon="10.5284523"><ele>1134.0</ele><time>2026-05-02T13:33:08.795Z</time></trkpt><trkpt lat="45.9924836" lon="10.5284357"><ele>1134.0</ele><time>2026-05-02T13:33:09.795Z</time></trkpt><trkpt lat="45.9926047" lon="10.5284178"><ele>1134.0</ele><time>2026-05-02T13:33:10.795Z</time></trkpt><trkpt lat="45.9927164" lon="10.5283977"><ele>1134.0</ele><time>2026-05-02T13:33:11.795Z</time></trkpt><trkpt lat="45.9928236" lon="10.5283568"><ele>1134.0</ele><time>2026-05-02T13:33:12.795Z</time></trkpt><trkpt lat="45.9929112" lon="10.5282874"><ele>1134.0</ele><time>2026-05-02T13:33:13.795Z</time></trkpt><trkpt lat="45.9929779" lon="10.5282031"><ele>1134.0</ele><time>2026-05-02T13:33:14.795Z</time></trkpt><trkpt lat="45.9930229" lon="10.5281116"><ele>1134.0</ele><time>2026-05-02T13:33:15.795Z</time></trkpt><trkpt lat="45.9930633" lon="10.5280223"><ele>1134.0</ele><time>2026-05-02T13:33:16.795Z</time></trkpt><trkpt lat="45.993076" lon="10.5278861"><ele>1134.0</ele><time>2026-05-02T13:33:17.795Z</time></trkpt><trkpt lat="45.9930976" lon="10.5277831"><ele>1134.0</ele><time>2026-05-02T13:33:18.795Z</time></trkpt><trkpt lat="45.9931778" lon="10.5276769"><ele>1134.0</ele><time>2026-05-02T13:33:20.795Z</time></trkpt><trkpt lat="45.9932614" lon="10.5276817"><ele>1134.0</ele><time>2026-05-02T13:33:21.795Z</time></trkpt><trkpt lat="45.9933649" lon="10.5276962"><ele>1134.0</ele><time>2026-05-02T13:33:22.795Z</time></trkpt><trkpt lat="45.9934817" lon="10.5276941"><ele>1134.0</ele><time>2026-05-02T13:33:23.795Z</time></trkpt><trkpt lat="45.9936019" lon="10.5276385"><ele>1134.0</ele><time>2026-05-02T13:33:24.795Z</time></trkpt><trkpt lat="45.9937234" lon="10.5275499"><ele>1134.0</ele><time>2026-05-02T13:33:25.795Z</time></trkpt><trkpt lat="45.9938436" lon="10.5274301"><ele>1134.0</ele><time>2026-05-02T13:33:26.795Z</time></trkpt><trkpt lat="45.9939602" lon="10.5273041"><ele>1134.0</ele><time>2026-05-02T13:33:27.795Z</time></trkpt><trkpt lat="45.9940637" lon="10.527189"><ele>1134.0</ele><time>2026-05-02T13:33:28.795Z</time></trkpt><trkpt lat="45.9941673" lon="10.5270813"><ele>1134.0</ele><time>2026-05-02T13:33:29.795Z</time></trkpt><trkpt lat="45.9942705" lon="10.5269659"><ele>1134.0</ele><time>2026-05-02T13:33:30.795Z</time></trkpt><trkpt lat="45.9943686" lon="10.5268624"><ele>1134.0</ele><time>2026-05-02T13:33:31.795Z</time></trkpt><trkpt lat="45.9944673" lon="10.52678"><ele>1134.0</ele><time>2026-05-02T13:33:32.795Z</time></trkpt><trkpt lat="45.9945665" lon="10.5267222"><ele>1134.0</ele><time>2026-05-02T13:33:33.795Z</time></trkpt><trkpt lat="45.9946726" lon="10.5266952"><ele>1134.0</ele><time>2026-05-02T13:33:34.795Z</time></trkpt><trkpt lat="45.9947745" lon="10.5266694"><ele>1134.0</ele><time>2026-05-02T13:33:35.795Z</time></trkpt><trkpt lat="45.9948788" lon="10.5266444"><ele>1134.0</ele><time>2026-05-02T13:33:36.795Z</time></trkpt><trkpt lat="45.9949777" lon="10.5266153"><ele>1134.0</ele><time>2026-05-02T13:33:37.795Z</time></trkpt><trkpt lat="45.9950801" lon="10.5265773"><ele>1134.0</ele><time>2026-05-02T13:33:38.795Z</time></trkpt><trkpt lat="45.9951882" lon="10.5265435"><ele>1134.0</ele><time>2026-05-02T13:33:39.795Z</time></trkpt><trkpt lat="45.9952961" lon="10.5265051"><ele>1134.0</ele><time>2026-05-02T13:33:40.795Z</time></trkpt><trkpt lat="45.9953927" lon="10.5264503"><ele>1134.0</ele><time>2026-05-02T13:33:41.795Z</time></trkpt><trkpt lat="45.995477" lon="10.5263717"><ele>1134.0</ele><time>2026-05-02T13:33:42.795Z</time></trkpt><trkpt lat="45.9955344" lon="10.5262554"><ele>1134.0</ele><time>2026-05-02T13:33:43.795Z</time></trkpt><trkpt lat="45.9955842" lon="10.5261372"><ele>1134.0</ele><time>2026-05-02T13:33:44.795Z</time></trkpt><trkpt lat="45.9956291" lon="10.526031"><ele>1134.0</ele><time>2026-05-02T13:33:45.795Z</time></trkpt><trkpt lat="45.9956756" lon="10.5259389"><ele>1134.0</ele><time>2026-05-02T13:33:46.795Z</time></trkpt><trkpt lat="45.9957268" lon="10.5258734"><ele>1134.0</ele><time>2026-05-02T13:33:47.795Z</time></trkpt><trkpt lat="45.995822" lon="10.5258642"><ele>1134.0</ele><time>2026-05-02T13:33:49.795Z</time></trkpt><trkpt lat="45.9958744" lon="10.5259768"><ele>1134.0</ele><time>2026-05-02T13:33:51.795Z</time></trkpt><trkpt lat="45.9958592" lon="10.5260916"><ele>1134.0</ele><time>2026-05-02T13:33:52.795Z</time></trkpt><trkpt lat="45.9958074" lon="10.5262273"><ele>1134.0</ele><time>2026-05-02T13:33:53.795Z</time></trkpt><trkpt lat="45.9957306" lon="10.5263635"><ele>1134.0</ele><time>2026-05-02T13:33:54.795Z</time></trkpt><trkpt lat="45.9956361" lon="10.526503"><ele>1134.0</ele><time>2026-05-02T13:33:55.795Z</time></trkpt><trkpt lat="45.9955267" lon="10.5266332"><ele>1134.0</ele><time>2026-05-02T13:33:56.795Z</time></trkpt><trkpt lat="45.995417" lon="10.5267707"><ele>1134.0</ele><time>2026-05-02T13:33:57.795Z</time></trkpt><trkpt lat="45.9953192" lon="10.526922"><ele>1134.0</ele><time>2026-05-02T13:33:58.795Z</time></trkpt><trkpt lat="45.9952266" lon="10.5270878"><ele>1134.0</ele><time>2026-05-02T13:33:59.795Z</time></trkpt><trkpt lat="45.9951358" lon="10.5272315"><ele>1134.0</ele><time>2026-05-02T13:34:00.795Z</time></trkpt><trkpt lat="45.9950344" lon="10.5273457"><ele>1134.0</ele><time>2026-05-02T13:34:01.795Z</time></trkpt><trkpt lat="45.9949279" lon="10.5274173"><ele>1134.0</ele><time>2026-05-02T13:34:02.795Z</time></trkpt><trkpt lat="45.9948295" lon="10.5274868"><ele>1134.0</ele><time>2026-05-02T13:34:03.795Z</time></trkpt><trkpt lat="45.9947515" lon="10.527569"><ele>1134.0</ele><time>2026-05-02T13:34:04.795Z</time></trkpt><trkpt lat="45.9947103" lon="10.5276646"><ele>1134.0</ele><time>2026-05-02T13:34:05.796Z</time></trkpt><trkpt lat="45.9946887" lon="10.5277676"><ele>1134.0</ele><time>2026-05-02T13:34:06.795Z</time></trkpt><trkpt lat="45.994708" lon="10.5279205"><ele>1134.0</ele><time>2026-05-02T13:34:08.795Z</time></trkpt><trkpt lat="45.994847" lon="10.527928"><ele>1134.0</ele><time>2026-05-02T13:34:10.795Z</time></trkpt><trkpt lat="45.9949234" lon="10.5278682"><ele>1134.0</ele><time>2026-05-02T13:34:11.795Z</time></trkpt><trkpt lat="45.9950173" lon="10.5277577"><ele>1134.0</ele><time>2026-05-02T13:34:12.795Z</time></trkpt><trkpt lat="45.9951381" lon="10.5276151"><ele>1134.0</ele><time>2026-05-02T13:34:13.795Z</time></trkpt><trkpt lat="45.9952838" lon="10.5274494"><ele>1134.0</ele><time>2026-05-02T13:34:14.795Z</time></trkpt><trkpt lat="45.9954411" lon="10.5272915"><ele>1134.0</ele><time>2026-05-02T13:34:15.795Z</time></trkpt><trkpt lat="45.9956033" lon="10.5271704"><ele>1134.0</ele><time>2026-05-02T13:34:16.795Z</time></trkpt><trkpt lat="45.9957491" lon="10.5270752"><ele>1134.0</ele><time>2026-05-02T13:34:17.795Z</time></trkpt><trkpt lat="45.9958971" lon="10.526988"><ele>1134.0</ele><time>2026-05-02T13:34:18.795Z</time></trkpt><trkpt lat="45.9960384" lon="10.5269109"><ele>1134.0</ele><time>2026-05-02T13:34:19.795Z</time></trkpt><trkpt lat="45.9961736" lon="10.5268275"><ele>1134.0</ele><time>2026-05-02T13:34:20.795Z</time></trkpt><trkpt lat="45.9962978" lon="10.5267305"><ele>1134.0</ele><time>2026-05-02T13:34:21.795Z</time></trkpt><trkpt lat="45.9964249" lon="10.5266349"><ele>1134.0</ele><time>2026-05-02T13:34:22.795Z</time></trkpt><trkpt lat="45.9965262" lon="10.5265371"><ele>1134.0</ele><time>2026-05-02T13:34:23.795Z</time></trkpt><trkpt lat="45.9966191" lon="10.5264269"><ele>1204.0</ele><time>2026-05-02T13:34:24.795Z</time></trkpt><trkpt lat="45.9967113" lon="10.5263249"><ele>1274.0</ele><time>2026-05-02T13:34:25.795Z</time></trkpt><trkpt lat="45.9968035" lon="10.526236"><ele>1344.0</ele><time>2026-05-02T13:34:26.795Z</time></trkpt><trkpt lat="45.9969062" lon="10.5261603"><ele>1414.0</ele><time>2026-05-02T13:34:27.795Z</time></trkpt><trkpt lat="45.9970195" lon="10.5260983"><ele>1414.0</ele><time>2026-05-02T13:34:28.795Z</time></trkpt><trkpt lat="45.9971595" lon="10.526074"><ele>1414.0</ele><time>2026-05-02T13:34:29.795Z</time></trkpt><trkpt lat="45.9973018" lon="10.5260527"><ele>1414.0</ele><time>2026-05-02T13:34:30.795Z</time></trkpt><trkpt lat="45.9974333" lon="10.526008"><ele>1414.0</ele><time>2026-05-02T13:34:31.795Z</time></trkpt><trkpt lat="45.9975615" lon="10.525949"><ele>1424.25</ele><time>2026-05-02T13:34:32.795Z</time></trkpt><trkpt lat="45.9976884" lon="10.5258819"><ele>1434.5</ele><time>2026-05-02T13:34:33.795Z</time></trkpt><trkpt lat="45.9977799" lon="10.5257523"><ele>1444.75</ele><time>2026-05-02T13:34:34.795Z</time></trkpt><trkpt lat="45.9978564" lon="10.5255856"><ele>1455.0</ele><time>2026-05-02T13:34:35.795Z</time></trkpt><trkpt lat="45.9979254" lon="10.5254146"><ele>1448.0</ele><time>2026-05-02T13:34:36.795Z</time></trkpt><trkpt lat="45.9979749" lon="10.5252326"><ele>1441.0</ele><time>2026-05-02T13:34:37.795Z</time></trkpt><trkpt lat="45.9980013" lon="10.5250405"><ele>1434.0</ele><time>2026-05-02T13:34:38.795Z</time></trkpt><trkpt lat="45.9980189" lon="10.5248499"><ele>1427.0</ele><time>2026-05-02T13:34:39.795Z</time></trkpt><trkpt lat="45.9980166" lon="10.5246584"><ele>1417.6</ele><time>2026-05-02T13:34:40.795Z</time></trkpt><trkpt lat="45.9980198" lon="10.5244813"><ele>1408.1999999999998</ele><time>2026-05-02T13:34:41.795Z</time></trkpt><trkpt lat="45.9980457" lon="10.5243268"><ele>1398.8</ele><time>2026-05-02T13:34:42.795Z</time></trkpt><trkpt lat="45.9980812" lon="10.5241904"><ele>1389.4</ele><time>2026-05-02T13:34:43.795Z</time></trkpt><trkpt lat="45.9981215" lon="10.5240561"><ele>1380.0</ele><time>2026-05-02T13:34:44.795Z</time></trkpt><trkpt lat="45.9981502" lon="10.523917"><ele>1380.0</ele><time>2026-05-02T13:34:45.795Z</time></trkpt><trkpt lat="45.9981748" lon="10.523785"><ele>1380.0</ele><time>2026-05-02T13:34:46.795Z</time></trkpt><trkpt lat="45.998189" lon="10.5236442"><ele>1380.0</ele><time>2026-05-02T13:34:47.795Z</time></trkpt><trkpt lat="45.9981959" lon="10.5235191"><ele>1380.0</ele><time>2026-05-02T13:34:48.795Z</time></trkpt><trkpt lat="45.9981975" lon="10.5234054"><ele>1380.0</ele><time>2026-05-02T13:34:49.795Z</time></trkpt><trkpt lat="45.9981982" lon="10.5233067"><ele>1380.0</ele><time>2026-05-02T13:34:50.795Z</time></trkpt><trkpt lat="45.9982154" lon="10.523142"><ele>1378.0</ele><time>2026-05-02T13:34:52.795Z</time></trkpt><trkpt lat="45.9982517" lon="10.5230097"><ele>1376.0</ele><time>2026-05-02T13:34:54.795Z</time></trkpt><trkpt lat="45.9982928" lon="10.5228915"><ele>1374.0</ele><time>2026-05-02T13:34:56.795Z</time></trkpt><trkpt lat="45.9983778" lon="10.5227745"><ele>1372.0</ele><time>2026-05-02T13:34:58.795Z</time></trkpt><trkpt lat="45.9984324" lon="10.5227108"><ele>1370.0</ele><time>2026-05-02T13:34:59.795Z</time></trkpt><trkpt lat="45.9984847" lon="10.5226486"><ele>1368.0</ele><time>2026-05-02T13:35:00.795Z</time></trkpt><trkpt lat="45.9985394" lon="10.52259"><ele>1368.0</ele><time>2026-05-02T13:35:01.794Z</time></trkpt><trkpt lat="45.9986121" lon="10.5224696"><ele>1368.0</ele><time>2026-05-02T13:35:03.794Z</time></trkpt><trkpt lat="45.9986324" lon="10.5223044"><ele>1368.0</ele><time>2026-05-02T13:35:05.794Z</time></trkpt><trkpt lat="45.9986267" lon="10.5222098"><ele>1368.0</ele><time>2026-05-02T13:35:06.794Z</time></trkpt><trkpt lat="45.9986134" lon="10.5221102"><ele>1368.0</ele><time>2026-05-02T13:35:07.794Z</time></trkpt><trkpt lat="45.9986005" lon="10.5220119"><ele>1368.0</ele><time>2026-05-02T13:35:08.794Z</time></trkpt><trkpt lat="45.9985931" lon="10.5219181"><ele>1349.25</ele><time>2026-05-02T13:35:09.794Z</time></trkpt><trkpt lat="45.9986109" lon="10.5217509"><ele>1330.5</ele><time>2026-05-02T13:35:11.794Z</time></trkpt><trkpt lat="45.9986635" lon="10.5216161"><ele>1311.75</ele><time>2026-05-02T13:35:13.794Z</time></trkpt><trkpt lat="45.9987239" lon="10.5214856"><ele>1293.0</ele><time>2026-05-02T13:35:15.794Z</time></trkpt><trkpt lat="45.9987877" lon="10.5213459"><ele>1217.0</ele><time>2026-05-02T13:35:17.794Z</time></trkpt><trkpt lat="46.0006683" lon="10.5199367"><ele>1221.3333333333335</ele><time>2026-05-02T13:35:39.812Z</time></trkpt><trkpt lat="46.0008595" lon="10.5199897"><ele>1225.6666666666667</ele><time>2026-05-02T13:35:40.812Z</time></trkpt><trkpt lat="46.0010036" lon="10.5199369"><ele>1230.0</ele><time>2026-05-02T13:35:41.812Z</time></trkpt><trkpt lat="46.001144" lon="10.519877"><ele>1230.0</ele><time>2026-05-02T13:35:42.812Z</time></trkpt><trkpt lat="46.0012858" lon="10.5198582"><ele>1230.0</ele><time>2026-05-02T13:35:43.812Z</time></trkpt><trkpt lat="46.0014031" lon="10.5198271"><ele>1230.0</ele><time>2026-05-02T13:35:44.812Z</time></trkpt><trkpt lat="46.0015175" lon="10.5198261"><ele>1230.0</ele><time>2026-05-02T13:35:45.812Z</time></trkpt><trkpt lat="46.0016307" lon="10.5198247"><ele>1233.4</ele><time>2026-05-02T13:35:46.812Z</time></trkpt><trkpt lat="46.0017399" lon="10.5198042"><ele>1236.8</ele><time>2026-05-02T13:35:47.812Z</time></trkpt><trkpt lat="46.0018444" lon="10.5197743"><ele>1240.2</ele><time>2026-05-02T13:35:48.812Z</time></trkpt><trkpt lat="46.001949" lon="10.5197456"><ele>1243.6</ele><time>2026-05-02T13:35:49.812Z</time></trkpt><trkpt lat="46.0020475" lon="10.5196911"><ele>1247.0</ele><time>2026-05-02T13:35:50.812Z</time></trkpt><trkpt lat="46.002143" lon="10.5195853"><ele>1244.5</ele><time>2026-05-02T13:35:51.812Z</time></trkpt><trkpt lat="46.0022439" lon="10.5194757"><ele>1242.0</ele><time>2026-05-02T13:35:52.812Z</time></trkpt><trkpt lat="46.0023425" lon="10.5193428"><ele>1239.5</ele><time>2026-05-02T13:35:53.812Z</time></trkpt><trkpt lat="46.0024401" lon="10.5191848"><ele>1237.0</ele><time>2026-05-02T13:35:54.812Z</time></trkpt><trkpt lat="46.0025452" lon="10.5190415"><ele>1237.0</ele><time>2026-05-02T13:35:55.812Z</time></trkpt><trkpt lat="46.0026357" lon="10.5189282"><ele>1237.0</ele><time>2026-05-02T13:35:56.812Z</time></trkpt><trkpt lat="46.0027309" lon="10.5188582"><ele>1237.0</ele><time>2026-05-02T13:35:57.812Z</time></trkpt><trkpt lat="46.0028423" lon="10.5188255"><ele>1237.0</ele><time>2026-05-02T13:35:58.812Z</time></trkpt><trkpt lat="46.002946" lon="10.5188234"><ele>1237.0</ele><time>2026-05-02T13:35:59.812Z</time></trkpt><trkpt lat="46.0030588" lon="10.5188584"><ele>1237.0</ele><time>2026-05-02T13:36:00.812Z</time></trkpt><trkpt lat="46.0031751" lon="10.518875"><ele>1237.0</ele><time>2026-05-02T13:36:01.812Z</time></trkpt><trkpt lat="46.0032911" lon="10.5188869"><ele>1237.0</ele><time>2026-05-02T13:36:02.812Z</time></trkpt><trkpt lat="46.0034093" lon="10.5188993"><ele>1237.0</ele><time>2026-05-02T13:36:03.812Z</time></trkpt><trkpt lat="46.0035236" lon="10.5188871"><ele>1242.0</ele><time>2026-05-02T13:36:04.812Z</time></trkpt><trkpt lat="46.0036401" lon="10.5188796"><ele>1247.0</ele><time>2026-05-02T13:36:05.812Z</time></trkpt><trkpt lat="46.0044015" lon="10.5178683"><ele>1234.6666666666667</ele><time>2026-05-02T13:36:16.816Z</time></trkpt><trkpt lat="46.0045365" lon="10.5178217"><ele>1222.3333333333333</ele><time>2026-05-02T13:36:17.816Z</time></trkpt><trkpt lat="46.0047045" lon="10.5178628"><ele>1210.0</ele><time>2026-05-02T13:36:18.816Z</time></trkpt><trkpt lat="46.0048498" lon="10.5178699"><ele>1210.0</ele><time>2026-05-02T13:36:19.816Z</time></trkpt><trkpt lat="46.0049578" lon="10.517827"><ele>1210.0</ele><time>2026-05-02T13:36:20.816Z</time></trkpt><trkpt lat="46.0052953" lon="10.5176299"><ele>1212.6</ele><time>2026-05-02T13:36:23.812Z</time></trkpt><trkpt lat="46.0053877" lon="10.5175265"><ele>1215.2</ele><time>2026-05-02T13:36:24.812Z</time></trkpt><trkpt lat="46.0054723" lon="10.5174299"><ele>1217.8</ele><time>2026-05-02T13:36:25.812Z</time></trkpt><trkpt lat="46.0055712" lon="10.5173647"><ele>1220.4</ele><time>2026-05-02T13:36:26.812Z</time></trkpt><trkpt lat="46.0056531" lon="10.5172999"><ele>1223.0</ele><time>2026-05-02T13:36:27.812Z</time></trkpt><trkpt lat="46.005733" lon="10.517229"><ele>1249.0</ele><time>2026-05-02T13:36:28.812Z</time></trkpt><trkpt lat="46.0074883" lon="10.51709"><ele>1251.6666666666665</ele><time>2026-05-02T13:36:44.813Z</time></trkpt><trkpt lat="46.0077284" lon="10.5173006"><ele>1254.3333333333333</ele><time>2026-05-02T13:36:45.813Z</time></trkpt><trkpt lat="46.0078561" lon="10.5173131"><ele>1257.0</ele><time>2026-05-02T13:36:46.813Z</time></trkpt><trkpt lat="46.007974" lon="10.5173202"><ele>1257.0</ele><time>2026-05-02T13:36:47.813Z</time></trkpt><trkpt lat="46.0080861" lon="10.5172972"><ele>1257.0</ele><time>2026-05-02T13:36:48.813Z</time></trkpt><trkpt lat="46.0081807" lon="10.5172348"><ele>1257.0</ele><time>2026-05-02T13:36:49.813Z</time></trkpt><trkpt lat="46.0082773" lon="10.5171641"><ele>1257.0</ele><time>2026-05-02T13:36:50.813Z</time></trkpt><trkpt lat="46.0083748" lon="10.5171025"><ele>1257.0</ele><time>2026-05-02T13:36:51.813Z</time></trkpt><trkpt lat="46.0084703" lon="10.5170445"><ele>1248.0</ele><time>2026-05-02T13:36:52.813Z</time></trkpt><trkpt lat="46.00901" lon="10.5166346"><ele>1248.0</ele><time>2026-05-02T13:36:58.804Z</time></trkpt><trkpt lat="46.0090619" lon="10.5163877"><ele>1248.0</ele><time>2026-05-02T13:36:59.804Z</time></trkpt><trkpt lat="46.0090811" lon="10.51619"><ele>1248.0</ele><time>2026-05-02T13:37:00.804Z</time></trkpt><trkpt lat="46.0091248" lon="10.515987"><ele>1242.75</ele><time>2026-05-02T13:37:01.804Z</time></trkpt><trkpt lat="46.0091316" lon="10.5157532"><ele>1237.5</ele><time>2026-05-02T13:37:02.804Z</time></trkpt><trkpt lat="46.0091295" lon="10.5155326"><ele>1232.25</ele><time>2026-05-02T13:37:03.804Z</time></trkpt><trkpt lat="46.0091564" lon="10.5153564"><ele>1227.0</ele><time>2026-05-02T13:37:04.804Z</time></trkpt><trkpt lat="46.0091998" lon="10.5151998"><ele>1227.0</ele><time>2026-05-02T13:37:05.804Z</time></trkpt><trkpt lat="46.0092579" lon="10.5150601"><ele>1227.0</ele><time>2026-05-02T13:37:06.804Z</time></trkpt><trkpt lat="46.0093271" lon="10.5149387"><ele>1227.0</ele><time>2026-05-02T13:37:07.804Z</time></trkpt><trkpt lat="46.0093936" lon="10.5148093"><ele>1227.0</ele><time>2026-05-02T13:37:08.804Z</time></trkpt><trkpt lat="46.0094557" lon="10.5146792"><ele>1227.0</ele><time>2026-05-02T13:37:09.804Z</time></trkpt><trkpt lat="46.0095125" lon="10.5145513"><ele>1225.8333333333333</ele><time>2026-05-02T13:37:10.804Z</time></trkpt><trkpt lat="46.0095599" lon="10.5144296"><ele>1224.6666666666667</ele><time>2026-05-02T13:37:11.804Z</time></trkpt><trkpt lat="46.0096036" lon="10.5143102"><ele>1223.5</ele><time>2026-05-02T13:37:12.804Z</time></trkpt><trkpt lat="46.0096456" lon="10.514192"><ele>1222.3333333333335</ele><time>2026-05-02T13:37:13.804Z</time></trkpt><trkpt lat="46.0096863" lon="10.5140905"><ele>1221.1666666666667</ele><time>2026-05-02T13:37:14.804Z</time></trkpt><trkpt lat="46.0097388" lon="10.5140064"><ele>1220.0</ele><time>2026-05-02T13:37:15.804Z</time></trkpt><trkpt lat="46.0098122" lon="10.5139454"><ele>1220.0</ele><time>2026-05-02T13:37:16.804Z</time></trkpt><trkpt lat="46.0098968" lon="10.5139145"><ele>1220.0</ele><time>2026-05-02T13:37:17.804Z</time></trkpt><trkpt lat="46.0099819" lon="10.5138948"><ele>1220.0</ele><time>2026-05-02T13:37:18.804Z</time></trkpt><trkpt lat="46.0100565" lon="10.5138766"><ele>1220.0</ele><time>2026-05-02T13:37:19.804Z</time></trkpt><trkpt lat="46.0101186" lon="10.513855"><ele>1220.0</ele><time>2026-05-02T13:37:20.804Z</time></trkpt><trkpt lat="46.0101749" lon="10.5138117"><ele>1220.0</ele><time>2026-05-02T13:37:21.804Z</time></trkpt><trkpt lat="46.0102413" lon="10.5136921"><ele>1221.3333333333335</ele><time>2026-05-02T13:37:23.804Z</time></trkpt><trkpt lat="46.010231" lon="10.5135686"><ele>1222.6666666666667</ele><time>2026-05-02T13:37:25.804Z</time></trkpt><trkpt lat="46.0101861" lon="10.5134894"><ele>1224.0</ele><time>2026-05-02T13:37:26.804Z</time></trkpt><trkpt lat="46.0101306" lon="10.5134073"><ele>1225.3333333333333</ele><time>2026-05-02T13:37:27.804Z</time></trkpt><trkpt lat="46.0100674" lon="10.5133248"><ele>1226.6666666666665</ele><time>2026-05-02T13:37:28.804Z</time></trkpt><trkpt lat="46.0100159" lon="10.5132467"><ele>1228.0</ele><time>2026-05-02T13:37:29.804Z</time></trkpt><trkpt lat="46.0099639" lon="10.5131756"><ele>1227.9999999999998</ele><time>2026-05-02T13:37:30.804Z</time></trkpt><trkpt lat="46.009911" lon="10.5131088"><ele>1228.0</ele><time>2026-05-02T13:37:31.804Z</time></trkpt><trkpt lat="46.0098631" lon="10.5130369"><ele>1228.0</ele><time>2026-05-02T13:37:32.804Z</time></trkpt><trkpt lat="46.009813" lon="10.5129581"><ele>1228.0</ele><time>2026-05-02T13:37:33.804Z</time></trkpt><trkpt lat="46.0097622" lon="10.5128824"><ele>1228.0</ele><time>2026-05-02T13:37:34.804Z</time></trkpt><trkpt lat="46.0097015" lon="10.5128138"><ele>1227.9999999999998</ele><time>2026-05-02T13:37:35.804Z</time></trkpt><trkpt lat="46.0096392" lon="10.5127525"><ele>1228.0</ele><time>2026-05-02T13:37:36.804Z</time></trkpt><trkpt lat="46.0095743" lon="10.5127106"><ele>1229.0</ele><time>2026-05-02T13:37:37.804Z</time></trkpt><trkpt lat="46.0095126" lon="10.5126826"><ele>1230.0</ele><time>2026-05-02T13:37:38.804Z</time></trkpt><trkpt lat="46.0094306" lon="10.5126476"><ele>1231.0</ele><time>2026-05-02T13:37:40.804Z</time></trkpt><trkpt lat="46.0093691" lon="10.5126228"><ele>1232.0</ele><time>2026-05-02T13:37:42.804Z</time></trkpt><trkpt lat="46.0092998" lon="10.5125746"><ele>1233.0</ele><time>2026-05-02T13:39:39.804Z</time></trkpt><trkpt lat="46.0091846" lon="10.5125504"><ele>1234.0</ele><time>2026-05-02T13:39:41.804Z</time></trkpt><trkpt lat="46.0091194" lon="10.5125299"><ele>1234.0</ele><time>2026-05-02T13:39:42.804Z</time></trkpt><trkpt lat="46.0090506" lon="10.5125012"><ele>1234.0</ele><time>2026-05-02T13:39:43.804Z</time></trkpt><trkpt lat="46.0089751" lon="10.5124693"><ele>1234.0</ele><time>2026-05-02T13:39:44.804Z</time></trkpt><trkpt lat="46.0089003" lon="10.5124381"><ele>1234.0</ele><time>2026-05-02T13:39:45.804Z</time></trkpt><trkpt lat="46.0088277" lon="10.5123959"><ele>1234.0</ele><time>2026-05-02T13:39:46.804Z</time></trkpt><trkpt lat="46.0087618" lon="10.5123412"><ele>1234.0</ele><time>2026-05-02T13:39:47.804Z</time></trkpt><trkpt lat="46.008703" lon="10.5122697"><ele>1234.0</ele><time>2026-05-02T13:39:48.804Z</time></trkpt><trkpt lat="46.0086475" lon="10.5121846"><ele>1234.0</ele><time>2026-05-02T13:39:49.804Z</time></trkpt><trkpt lat="46.008591" lon="10.5120965"><ele>1234.0</ele><time>2026-05-02T13:39:50.804Z</time></trkpt><trkpt lat="46.0085255" lon="10.512011"><ele>1234.0</ele><time>2026-05-02T13:39:51.804Z</time></trkpt><trkpt lat="46.0084616" lon="10.511938"><ele>1234.0</ele><time>2026-05-02T13:39:52.804Z</time></trkpt><trkpt lat="46.008407" lon="10.5118751"><ele>1234.0</ele><time>2026-05-02T13:39:53.804Z</time></trkpt><trkpt lat="46.0083543" lon="10.5118108"><ele>1237.2</ele><time>2026-05-02T13:39:54.804Z</time></trkpt><trkpt lat="46.0082975" lon="10.511667"><ele>1240.4</ele><time>2026-05-02T13:39:56.804Z</time></trkpt><trkpt lat="46.0083477" lon="10.5115257"><ele>1243.6</ele><time>2026-05-02T13:39:58.804Z</time></trkpt><trkpt lat="46.0084084" lon="10.5114863"><ele>1246.8</ele><time>2026-05-02T13:39:59.804Z</time></trkpt><trkpt lat="46.008481" lon="10.5114879"><ele>1250.0</ele><time>2026-05-02T13:40:00.804Z</time></trkpt><trkpt lat="46.0085654" lon="10.5115338"><ele>1252.2</ele><time>2026-05-02T13:40:01.804Z</time></trkpt><trkpt lat="46.0086538" lon="10.5116096"><ele>1254.4</ele><time>2026-05-02T13:40:02.804Z</time></trkpt><trkpt lat="46.0087359" lon="10.5117097"><ele>1256.6</ele><time>2026-05-02T13:40:03.804Z</time></trkpt><trkpt lat="46.0088089" lon="10.5118171"><ele>1258.8</ele><time>2026-05-02T13:40:04.804Z</time></trkpt><trkpt lat="46.0088927" lon="10.5119015"><ele>1261.0</ele><time>2026-05-02T13:40:05.804Z</time></trkpt><trkpt lat="46.0089861" lon="10.511959"><ele>1261.0</ele><time>2026-05-02T13:40:06.804Z</time></trkpt><trkpt lat="46.009092" lon="10.5119799"><ele>1261.0</ele><time>2026-05-02T13:40:07.804Z</time></trkpt><trkpt lat="46.0092033" lon="10.5119704"><ele>1261.0</ele><time>2026-05-02T13:40:08.804Z</time></trkpt><trkpt lat="46.0093196" lon="10.5119481"><ele>1261.0</ele><time>2026-05-02T13:40:09.804Z</time></trkpt><trkpt lat="46.0094382" lon="10.5119384"><ele>1263.75</ele><time>2026-05-02T13:40:10.804Z</time></trkpt><trkpt lat="46.0095607" lon="10.5119378"><ele>1266.5</ele><time>2026-05-02T13:40:11.804Z</time></trkpt><trkpt lat="46.0096902" lon="10.5119635"><ele>1269.25</ele><time>2026-05-02T13:40:12.804Z</time></trkpt><trkpt lat="46.0098117" lon="10.5120039"><ele>1272.0</ele><time>2026-05-02T13:40:13.804Z</time></trkpt><trkpt lat="46.0099224" lon="10.512045"><ele>1274.3333333333333</ele><time>2026-05-02T13:40:14.804Z</time></trkpt><trkpt lat="46.0100178" lon="10.5120771"><ele>1276.6666666666667</ele><time>2026-05-02T13:40:15.804Z</time></trkpt><trkpt lat="46.0101066" lon="10.5120947"><ele>1279.0</ele><time>2026-05-02T13:40:16.804Z</time></trkpt><trkpt lat="46.0101866" lon="10.5120864"><ele>1281.3333333333335</ele><time>2026-05-02T13:40:17.804Z</time></trkpt><trkpt lat="46.0102484" lon="10.5120491"><ele>1283.6666666666667</ele><time>2026-05-02T13:40:18.804Z</time></trkpt><trkpt lat="46.0102921" lon="10.5119599"><ele>1286.0</ele><time>2026-05-02T13:40:19.804Z</time></trkpt><trkpt lat="46.0103057" lon="10.5118624"><ele>1286.0</ele><time>2026-05-02T13:40:20.804Z</time></trkpt><trkpt lat="46.0102886" lon="10.5117684"><ele>1286.0</ele><time>2026-05-02T13:40:21.804Z</time></trkpt><trkpt lat="46.0102558" lon="10.5116846"><ele>1286.0</ele><time>2026-05-02T13:40:22.805Z</time></trkpt><trkpt lat="46.0102041" lon="10.5116165"><ele>1286.0</ele><time>2026-05-02T13:40:23.804Z</time></trkpt><trkpt lat="46.0101121" lon="10.5115557"><ele>1286.0</ele><time>2026-05-02T13:40:24.804Z</time></trkpt><trkpt lat="46.0099594" lon="10.5115018"><ele>1281.3333333333335</ele><time>2026-05-02T13:40:25.804Z</time></trkpt><trkpt lat="46.0097746" lon="10.5114679"><ele>1276.6666666666667</ele><time>2026-05-02T13:40:26.804Z</time></trkpt><trkpt lat="46.0095937" lon="10.5114446"><ele>1272.0</ele><time>2026-05-02T13:40:27.804Z</time></trkpt><trkpt lat="46.009433" lon="10.5114124"><ele>1272.0</ele><time>2026-05-02T13:40:28.804Z</time></trkpt><trkpt lat="46.0092928" lon="10.5113874"><ele>1272.0</ele><time>2026-05-02T13:40:29.804Z</time></trkpt><trkpt lat="46.0091679" lon="10.5113562"><ele>1272.0</ele><time>2026-05-02T13:40:30.804Z</time></trkpt><trkpt lat="46.0090642" lon="10.5113216"><ele>1272.0</ele><time>2026-05-02T13:40:31.804Z</time></trkpt><trkpt lat="46.0089839" lon="10.5112819"><ele>1278.2</ele><time>2026-05-02T13:40:32.804Z</time></trkpt><trkpt lat="46.0089197" lon="10.511231"><ele>1284.4</ele><time>2026-05-02T13:40:33.804Z</time></trkpt><trkpt lat="46.0089108" lon="10.5110843"><ele>1290.6000000000001</ele><time>2026-05-02T13:40:35.804Z</time></trkpt><trkpt lat="46.0090043" lon="10.5109982"><ele>1296.8000000000002</ele><time>2026-05-02T13:40:37.805Z</time></trkpt><trkpt lat="46.0090918" lon="10.5110054"><ele>1303.0</ele><time>2026-05-02T13:40:38.804Z</time></trkpt><trkpt lat="46.0092104" lon="10.5110392"><ele>1303.0</ele><time>2026-05-02T13:40:39.804Z</time></trkpt><trkpt lat="46.0093441" lon="10.5110988"><ele>1303.0</ele><time>2026-05-02T13:40:40.804Z</time></trkpt><trkpt lat="46.0095033" lon="10.5111714"><ele>1303.0</ele><time>2026-05-02T13:40:41.804Z</time></trkpt><trkpt lat="46.0096572" lon="10.511228"><ele>1298.75</ele><time>2026-05-02T13:40:42.804Z</time></trkpt><trkpt lat="46.0098033" lon="10.5112799"><ele>1294.5</ele><time>2026-05-02T13:40:43.804Z</time></trkpt><trkpt lat="46.009943" lon="10.5113314"><ele>1290.25</ele><time>2026-05-02T13:40:44.804Z</time></trkpt><trkpt lat="46.010085" lon="10.5113735"><ele>1286.0</ele><time>2026-05-02T13:40:45.804Z</time></trkpt><trkpt lat="46.0102308" lon="10.5114037"><ele>1286.0</ele><time>2026-05-02T13:40:46.804Z</time></trkpt><trkpt lat="46.0103799" lon="10.5114308"><ele>1286.0</ele><time>2026-05-02T13:40:47.804Z</time></trkpt><trkpt lat="46.0105294" lon="10.5114563"><ele>1286.0</ele><time>2026-05-02T13:40:48.804Z</time></trkpt><trkpt lat="46.0106701" lon="10.5115003"><ele>1286.0</ele><time>2026-05-02T13:40:49.804Z</time></trkpt><trkpt lat="46.0108129" lon="10.5115551"><ele>1290.75</ele><time>2026-05-02T13:40:50.804Z</time></trkpt><trkpt lat="46.0109549" lon="10.5116124"><ele>1295.5</ele><time>2026-05-02T13:40:51.804Z</time></trkpt><trkpt lat="46.0111002" lon="10.5116599"><ele>1300.25</ele><time>2026-05-02T13:40:52.804Z</time></trkpt><trkpt lat="46.0112463" lon="10.5116992"><ele>1305.0</ele><time>2026-05-02T13:40:53.804Z</time></trkpt><trkpt lat="46.0113865" lon="10.5117309"><ele>1305.0</ele><time>2026-05-02T13:40:54.804Z</time></trkpt><trkpt lat="46.0115225" lon="10.5117574"><ele>1305.0</ele><time>2026-05-02T13:40:55.804Z</time></trkpt><trkpt lat="46.0116584" lon="10.5117613"><ele>1305.0</ele><time>2026-05-02T13:40:56.804Z</time></trkpt><trkpt lat="46.0117853" lon="10.5117684"><ele>1305.0</ele><time>2026-05-02T13:40:57.804Z</time></trkpt><trkpt lat="46.011901" lon="10.5117925"><ele>1309.2</ele><time>2026-05-02T13:40:58.804Z</time></trkpt><trkpt lat="46.0119997" lon="10.5118439"><ele>1313.4</ele><time>2026-05-02T13:40:59.804Z</time></trkpt><trkpt lat="46.0120847" lon="10.5118853"><ele>1317.6</ele><time>2026-05-02T13:41:00.804Z</time></trkpt><trkpt lat="46.012156" lon="10.5119012"><ele>1321.8</ele><time>2026-05-02T13:41:01.805Z</time></trkpt><trkpt lat="46.0122498" lon="10.5118815"><ele>1326.0</ele><time>2026-05-02T13:41:03.804Z</time></trkpt><trkpt lat="46.012263" lon="10.5117339"><ele>1326.0</ele><time>2026-05-02T13:41:05.804Z</time></trkpt><trkpt lat="46.0122316" lon="10.5116518"><ele>1326.0</ele><time>2026-05-02T13:41:06.804Z</time></trkpt><trkpt lat="46.0121875" lon="10.511581"><ele>1326.0</ele><time>2026-05-02T13:41:07.804Z</time></trkpt><trkpt lat="46.0121169" lon="10.5115163"><ele>1326.0</ele><time>2026-05-02T13:41:08.804Z</time></trkpt><trkpt lat="46.0119742" lon="10.5114488"><ele>1326.0</ele><time>2026-05-02T13:41:09.804Z</time></trkpt><trkpt lat="46.01183" lon="10.5113924"><ele>1326.0</ele><time>2026-05-02T13:41:10.804Z</time></trkpt><trkpt lat="46.0116971" lon="10.5113329"><ele>1326.0</ele><time>2026-05-02T13:41:11.804Z</time></trkpt><trkpt lat="46.0115711" lon="10.5112853"><ele>1326.0</ele><time>2026-05-02T13:41:12.804Z</time></trkpt><trkpt lat="46.0114527" lon="10.5112205"><ele>1326.0</ele><time>2026-05-02T13:41:13.804Z</time></trkpt><trkpt lat="46.011346" lon="10.511135"><ele>1328.75</ele><time>2026-05-02T13:41:14.804Z</time></trkpt><trkpt lat="46.011242" lon="10.5110491"><ele>1331.5</ele><time>2026-05-02T13:41:15.804Z</time></trkpt><trkpt lat="46.0111313" lon="10.5109662"><ele>1334.25</ele><time>2026-05-02T13:41:16.804Z</time></trkpt><trkpt lat="46.0110109" lon="10.5108821"><ele>1337.0</ele><time>2026-05-02T13:41:17.804Z</time></trkpt><trkpt lat="46.0108698" lon="10.5108437"><ele>1333.0</ele><time>2026-05-02T13:41:18.804Z</time></trkpt><trkpt lat="46.0107341" lon="10.5108218"><ele>1329.0</ele><time>2026-05-02T13:41:19.804Z</time></trkpt><trkpt lat="46.0106078" lon="10.5108148"><ele>1325.0</ele><time>2026-05-02T13:41:20.804Z</time></trkpt><trkpt lat="46.0104926" lon="10.5107932"><ele>1321.0</ele><time>2026-05-02T13:41:21.804Z</time></trkpt><trkpt lat="46.0103986" lon="10.5107534"><ele>1321.0</ele><time>2026-05-02T13:41:22.804Z</time></trkpt><trkpt lat="46.0103386" lon="10.5106935"><ele>1321.0</ele><time>2026-05-02T13:41:23.804Z</time></trkpt><trkpt lat="46.0102835" lon="10.5105807"><ele>1321.0</ele><time>2026-05-02T13:41:25.804Z</time></trkpt><trkpt lat="46.0103698" lon="10.5105368"><ele>1321.0</ele><time>2026-05-02T13:41:27.804Z</time></trkpt><trkpt lat="46.0104677" lon="10.5105614"><ele>1321.0</ele><time>2026-05-02T13:41:28.804Z</time></trkpt><trkpt lat="46.0106149" lon="10.5106137"><ele>1321.0</ele><time>2026-05-02T13:41:29.804Z</time></trkpt><trkpt lat="46.010786" lon="10.510679"><ele>1321.0</ele><time>2026-05-02T13:41:30.804Z</time></trkpt><trkpt lat="46.0109896" lon="10.5107419"><ele>1321.0</ele><time>2026-05-02T13:41:31.804Z</time></trkpt><trkpt lat="46.0111686" lon="10.5107893"><ele>1326.3333333333333</ele><time>2026-05-02T13:41:32.804Z</time></trkpt><trkpt lat="46.0113336" lon="10.5108357"><ele>1331.6666666666667</ele><time>2026-05-02T13:41:33.804Z</time></trkpt><trkpt lat="46.0114925" lon="10.5108834"><ele>1337.0</ele><time>2026-05-02T13:41:34.804Z</time></trkpt><trkpt lat="46.0116457" lon="10.5109219"><ele>1342.5</ele><time>2026-05-02T13:41:35.804Z</time></trkpt><trkpt lat="46.0117852" lon="10.5109604"><ele>1348.0</ele><time>2026-05-02T13:41:36.804Z</time></trkpt><trkpt lat="46.0119332" lon="10.5109835"><ele>1353.5</ele><time>2026-05-02T13:41:37.804Z</time></trkpt><trkpt lat="46.0120797" lon="10.5109981"><ele>1359.0</ele><time>2026-05-02T13:41:38.804Z</time></trkpt><trkpt lat="46.0122257" lon="10.5110222"><ele>1359.0</ele><time>2026-05-02T13:41:39.804Z</time></trkpt><trkpt lat="46.0123675" lon="10.5110545"><ele>1359.0</ele><time>2026-05-02T13:41:40.804Z</time></trkpt><trkpt lat="46.0124964" lon="10.5111036"><ele>1359.0</ele><time>2026-05-02T13:41:41.804Z</time></trkpt><trkpt lat="46.0126195" lon="10.511157"><ele>1359.0</ele><time>2026-05-02T13:41:42.804Z</time></trkpt><trkpt lat="46.012738" lon="10.5112376"><ele>1356.75</ele><time>2026-05-02T13:41:43.804Z</time></trkpt><trkpt lat="46.0128613" lon="10.5112806"><ele>1354.5</ele><time>2026-05-02T13:41:44.804Z</time></trkpt><trkpt lat="46.0129753" lon="10.5113241"><ele>1352.25</ele><time>2026-05-02T13:41:45.804Z</time></trkpt><trkpt lat="46.0130845" lon="10.5113697"><ele>1350.0</ele><time>2026-05-02T13:41:46.804Z</time></trkpt><trkpt lat="46.0131871" lon="10.5114173"><ele>1350.0</ele><time>2026-05-02T13:41:47.804Z</time></trkpt><trkpt lat="46.0132842" lon="10.5114792"><ele>1350.0</ele><time>2026-05-02T13:41:48.804Z</time></trkpt><trkpt lat="46.0133726" lon="10.5115567"><ele>1350.0</ele><time>2026-05-02T13:41:49.804Z</time></trkpt><trkpt lat="46.0134572" lon="10.5116514"><ele>1350.0</ele><time>2026-05-02T13:41:50.804Z</time></trkpt><trkpt lat="46.013542" lon="10.5117587"><ele>1350.0</ele><time>2026-05-02T13:41:51.804Z</time></trkpt><trkpt lat="46.0136327" lon="10.5118631"><ele>1355.25</ele><time>2026-05-02T13:41:52.804Z</time></trkpt><trkpt lat="46.0137193" lon="10.5119568"><ele>1360.5</ele><time>2026-05-02T13:41:53.804Z</time></trkpt><trkpt lat="46.0138199" lon="10.5120055"><ele>1365.75</ele><time>2026-05-02T13:41:54.804Z</time></trkpt><trkpt lat="46.0139359" lon="10.5120105"><ele>1371.0</ele><time>2026-05-02T13:41:55.804Z</time></trkpt><trkpt lat="46.014055" lon="10.5120109"><ele>1371.6</ele><time>2026-05-02T13:41:56.804Z</time></trkpt><trkpt lat="46.014168" lon="10.5120071"><ele>1372.1999999999998</ele><time>2026-05-02T13:41:57.804Z</time></trkpt><trkpt lat="46.014281" lon="10.5119946"><ele>1372.8000000000002</ele><time>2026-05-02T13:41:58.804Z</time></trkpt><trkpt lat="46.0143809" lon="10.5119758"><ele>1373.4</ele><time>2026-05-02T13:41:59.804Z</time></trkpt><trkpt lat="46.0144696" lon="10.511974"><ele>1374.0</ele><time>2026-05-02T13:42:00.804Z</time></trkpt><trkpt lat="46.0145518" lon="10.5119886"><ele>1374.0</ele><time>2026-05-02T13:42:01.804Z</time></trkpt><trkpt lat="46.0146253" lon="10.5120198"><ele>1374.0</ele><time>2026-05-02T13:42:02.804Z</time></trkpt><trkpt lat="46.014678" lon="10.5120825"><ele>1374.0</ele><time>2026-05-02T13:42:03.804Z</time></trkpt><trkpt lat="46.0147132" lon="10.5121802"><ele>1374.0</ele><time>2026-05-02T13:42:04.804Z</time></trkpt><trkpt lat="46.0147167" lon="10.5123177"><ele>1374.0</ele><time>2026-05-02T13:42:05.804Z</time></trkpt><trkpt lat="46.0147049" lon="10.5124659"><ele>1374.0</ele><time>2026-05-02T13:42:06.804Z</time></trkpt><trkpt lat="46.0147013" lon="10.5126048"><ele>1372.6666666666667</ele><time>2026-05-02T13:42:07.804Z</time></trkpt><trkpt lat="46.0147062" lon="10.5127358"><ele>1371.3333333333333</ele><time>2026-05-02T13:42:08.804Z</time></trkpt><trkpt lat="46.0147144" lon="10.5128558"><ele>1370.0</ele><time>2026-05-02T13:42:09.804Z</time></trkpt><trkpt lat="46.0147297" lon="10.5129663"><ele>1368.6666666666665</ele><time>2026-05-02T13:42:10.804Z</time></trkpt><trkpt lat="46.0147633" lon="10.5130592"><ele>1367.3333333333333</ele><time>2026-05-02T13:42:11.804Z</time></trkpt><trkpt lat="46.0148282" lon="10.5131258"><ele>1366.0</ele><time>2026-05-02T13:42:12.804Z</time></trkpt><trkpt lat="46.014922" lon="10.5131686"><ele>1374.25</ele><time>2026-05-02T13:42:13.804Z</time></trkpt><trkpt lat="46.0150341" lon="10.5131668"><ele>1382.5</ele><time>2026-05-02T13:42:14.804Z</time></trkpt><trkpt lat="46.0151711" lon="10.5131251"><ele>1390.75</ele><time>2026-05-02T13:42:15.804Z</time></trkpt><trkpt lat="46.0153164" lon="10.5130615"><ele>1399.0</ele><time>2026-05-02T13:42:16.804Z</time></trkpt><trkpt lat="46.0154711" lon="10.5130101"><ele>1399.0</ele><time>2026-05-02T13:42:17.804Z</time></trkpt><trkpt lat="46.01564" lon="10.5129983"><ele>1399.0</ele><time>2026-05-02T13:42:18.804Z</time></trkpt><trkpt lat="46.0157958" lon="10.5130098"><ele>1399.0</ele><time>2026-05-02T13:42:19.804Z</time></trkpt><trkpt lat="46.0159423" lon="10.5130307"><ele>1404.0</ele><time>2026-05-02T13:42:20.804Z</time></trkpt><trkpt lat="46.0160717" lon="10.5130574"><ele>1409.0</ele><time>2026-05-02T13:42:21.804Z</time></trkpt><trkpt lat="46.016195" lon="10.513105"><ele>1414.0</ele><time>2026-05-02T13:42:22.804Z</time></trkpt><trkpt lat="46.0163211" lon="10.5131726"><ele>1419.0</ele><time>2026-05-02T13:42:23.804Z</time></trkpt><trkpt lat="46.0164427" lon="10.5132534"><ele>1419.0</ele><time>2026-05-02T13:42:24.804Z</time></trkpt><trkpt lat="46.0165615" lon="10.5133513"><ele>1419.0</ele><time>2026-05-02T13:42:25.804Z</time></trkpt><trkpt lat="46.0166678" lon="10.5134623"><ele>1419.0</ele><time>2026-05-02T13:42:26.804Z</time></trkpt><trkpt lat="46.0167737" lon="10.5135579"><ele>1419.0</ele><time>2026-05-02T13:42:27.804Z</time></trkpt><trkpt lat="46.0168685" lon="10.513614"><ele>1417.2</ele><time>2026-05-02T13:42:28.804Z</time></trkpt><trkpt lat="46.0169762" lon="10.5136359"><ele>1415.4</ele><time>2026-05-02T13:42:29.804Z</time></trkpt><trkpt lat="46.0170692" lon="10.5136247"><ele>1413.6</ele><time>2026-05-02T13:42:30.804Z</time></trkpt><trkpt lat="46.0171544" lon="10.513569"><ele>1411.8</ele><time>2026-05-02T13:42:31.804Z</time></trkpt><trkpt lat="46.017241" lon="10.5134781"><ele>1410.0</ele><time>2026-05-02T13:42:32.804Z</time></trkpt><trkpt lat="46.0173164" lon="10.5133351"><ele>1410.0</ele><time>2026-05-02T13:42:33.804Z</time></trkpt><trkpt lat="46.0174003" lon="10.5132183"><ele>1410.0</ele><time>2026-05-02T13:42:34.804Z</time></trkpt><trkpt lat="46.0175025" lon="10.5131047"><ele>1410.0</ele><time>2026-05-02T13:42:35.805Z</time></trkpt><trkpt lat="46.0176136" lon="10.513005"><ele>1410.0</ele><time>2026-05-02T13:42:36.804Z</time></trkpt><trkpt lat="46.0177129" lon="10.5129083"><ele>1410.25</ele><time>2026-05-02T13:42:37.804Z</time></trkpt><trkpt lat="46.0178111" lon="10.5127967"><ele>1410.5</ele><time>2026-05-02T13:42:38.804Z</time></trkpt><trkpt lat="46.0179121" lon="10.5127096"><ele>1410.75</ele><time>2026-05-02T13:42:39.804Z</time></trkpt><trkpt lat="46.0180141" lon="10.5126495"><ele>1411.0</ele><time>2026-05-02T13:42:40.804Z</time></trkpt><trkpt lat="46.0181186" lon="10.512609"><ele>1411.0</ele><time>2026-05-02T13:42:41.804Z</time></trkpt><trkpt lat="46.018215" lon="10.5126147"><ele>1411.0</ele><time>2026-05-02T13:42:42.804Z</time></trkpt><trkpt lat="46.0183027" lon="10.5126701"><ele>1411.0</ele><time>2026-05-02T13:42:43.804Z</time></trkpt><trkpt lat="46.0184073" lon="10.512745"><ele>1411.0</ele><time>2026-05-02T13:42:44.804Z</time></trkpt><trkpt lat="46.0185194" lon="10.5128159"><ele>1411.0</ele><time>2026-05-02T13:42:45.804Z</time></trkpt><trkpt lat="46.0186368" lon="10.5128642"><ele>1411.25</ele><time>2026-05-02T13:42:46.804Z</time></trkpt><trkpt lat="46.0187614" lon="10.5128867"><ele>1411.5</ele><time>2026-05-02T13:42:47.804Z</time></trkpt><trkpt lat="46.0188843" lon="10.5128814"><ele>1411.75</ele><time>2026-05-02T13:42:48.804Z</time></trkpt><trkpt lat="46.0190094" lon="10.5128723"><ele>1412.0</ele><time>2026-05-02T13:42:49.804Z</time></trkpt><trkpt lat="46.0191261" lon="10.5128589"><ele>1413.25</ele><time>2026-05-02T13:42:50.804Z</time></trkpt><trkpt lat="46.0192415" lon="10.5128516"><ele>1414.5</ele><time>2026-05-02T13:42:51.804Z</time></trkpt><trkpt lat="46.019354" lon="10.5128651"><ele>1415.75</ele><time>2026-05-02T13:42:52.804Z</time></trkpt><trkpt lat="46.0194633" lon="10.5129031"><ele>1417.0</ele><time>2026-05-02T13:42:53.804Z</time></trkpt><trkpt lat="46.0195712" lon="10.5129596"><ele>1420.0</ele><time>2026-05-02T13:42:54.804Z</time></trkpt><trkpt lat="46.0196886" lon="10.5130389"><ele>1423.0</ele><time>2026-05-02T13:42:55.804Z</time></trkpt><trkpt lat="46.0199521" lon="10.5131554"><ele>1426.0</ele><time>2026-05-02T13:42:57.804Z</time></trkpt><trkpt lat="46.020101" lon="10.5131865"><ele>1426.0</ele><time>2026-05-02T13:42:58.804Z</time></trkpt><trkpt lat="46.0202538" lon="10.5132048"><ele>1426.0</ele><time>2026-05-02T13:42:59.804Z</time></trkpt><trkpt lat="46.0204095" lon="10.5132267"><ele>1426.0</ele><time>2026-05-02T13:43:00.804Z</time></trkpt><trkpt lat="46.0205578" lon="10.5132598"><ele>1426.0</ele><time>2026-05-02T13:43:01.804Z</time></trkpt><trkpt lat="46.0207014" lon="10.5132973"><ele>1426.0</ele><time>2026-05-02T13:43:02.804Z</time></trkpt><trkpt lat="46.0208462" lon="10.5133385"><ele>1426.0</ele><time>2026-05-02T13:43:03.804Z</time></trkpt><trkpt lat="46.0209949" lon="10.5133859"><ele>1426.0</ele><time>2026-05-02T13:43:04.804Z</time></trkpt><trkpt lat="46.0211398" lon="10.5134384"><ele>1428.5</ele><time>2026-05-02T13:43:05.804Z</time></trkpt><trkpt lat="46.0212846" lon="10.5134776"><ele>1431.0</ele><time>2026-05-02T13:43:06.804Z</time></trkpt><trkpt lat="46.0214319" lon="10.5134987"><ele>1433.5</ele><time>2026-05-02T13:43:07.804Z</time></trkpt><trkpt lat="46.0215825" lon="10.5134942"><ele>1436.0</ele><time>2026-05-02T13:43:08.804Z</time></trkpt><trkpt lat="46.0217251" lon="10.5134603"><ele>1436.25</ele><time>2026-05-02T13:43:09.804Z</time></trkpt><trkpt lat="46.0218659" lon="10.5134164"><ele>1436.5</ele><time>2026-05-02T13:43:10.804Z</time></trkpt><trkpt lat="46.0220072" lon="10.5133641"><ele>1436.75</ele><time>2026-05-02T13:43:11.804Z</time></trkpt><trkpt lat="46.0221514" lon="10.5133075"><ele>1437.0</ele><time>2026-05-02T13:43:12.804Z</time></trkpt><trkpt lat="46.0222988" lon="10.5132594"><ele>1437.0</ele><time>2026-05-02T13:43:13.804Z</time></trkpt><trkpt lat="46.0224366" lon="10.5132154"><ele>1437.0</ele><time>2026-05-02T13:43:14.804Z</time></trkpt><trkpt lat="46.0225693" lon="10.5131848"><ele>1437.0</ele><time>2026-05-02T13:43:15.804Z</time></trkpt><trkpt lat="46.0227045" lon="10.5131817"><ele>1437.0</ele><time>2026-05-02T13:43:16.804Z</time></trkpt><trkpt lat="46.0228382" lon="10.5131934"><ele>1437.25</ele><time>2026-05-02T13:43:17.804Z</time></trkpt><trkpt lat="46.0229728" lon="10.5132203"><ele>1437.5</ele><time>2026-05-02T13:43:18.804Z</time></trkpt><trkpt lat="46.0231065" lon="10.5132653"><ele>1437.75</ele><time>2026-05-02T13:43:19.804Z</time></trkpt><trkpt lat="46.0232435" lon="10.5133078"><ele>1438.0</ele><time>2026-05-02T13:43:20.804Z</time></trkpt><trkpt lat="46.0233828" lon="10.5133732"><ele>1442.75</ele><time>2026-05-02T13:43:21.804Z</time></trkpt><trkpt lat="46.0235093" lon="10.5134249"><ele>1447.5</ele><time>2026-05-02T13:43:22.804Z</time></trkpt><trkpt lat="46.0236433" lon="10.5134666"><ele>1452.25</ele><time>2026-05-02T13:43:23.804Z</time></trkpt><trkpt lat="46.0237819" lon="10.5135216"><ele>1457.0</ele><time>2026-05-02T13:43:24.804Z</time></trkpt><trkpt lat="46.0239187" lon="10.513569"><ele>1457.0</ele><time>2026-05-02T13:43:25.804Z</time></trkpt><trkpt lat="46.0240562" lon="10.5136078"><ele>1457.0</ele><time>2026-05-02T13:43:26.804Z</time></trkpt><trkpt lat="46.0241876" lon="10.5136463"><ele>1457.0</ele><time>2026-05-02T13:43:27.804Z</time></trkpt><trkpt lat="46.024315" lon="10.5136743"><ele>1457.0</ele><time>2026-05-02T13:43:28.804Z</time></trkpt><trkpt lat="46.0244441" lon="10.5136817"><ele>1456.0</ele><time>2026-05-02T13:43:29.804Z</time></trkpt><trkpt lat="46.0245723" lon="10.5136584"><ele>1455.0</ele><time>2026-05-02T13:43:30.804Z</time></trkpt><trkpt lat="46.0246948" lon="10.513617"><ele>1454.0</ele><time>2026-05-02T13:43:31.804Z</time></trkpt><trkpt lat="46.0248163" lon="10.5135826"><ele>1453.0</ele><time>2026-05-02T13:43:32.804Z</time></trkpt><trkpt lat="46.0249402" lon="10.5135771"><ele>1454.25</ele><time>2026-05-02T13:43:33.804Z</time></trkpt><trkpt lat="46.025061" lon="10.513598"><ele>1455.5</ele><time>2026-05-02T13:43:34.804Z</time></trkpt><trkpt lat="46.0251897" lon="10.5136467"><ele>1456.75</ele><time>2026-05-02T13:43:35.804Z</time></trkpt><trkpt lat="46.025328" lon="10.5137067"><ele>1458.0</ele><time>2026-05-02T13:43:36.804Z</time></trkpt><trkpt lat="46.0254748" lon="10.5137626"><ele>1463.5</ele><time>2026-05-02T13:43:37.804Z</time></trkpt><trkpt lat="46.0256238" lon="10.5138098"><ele>1469.0</ele><time>2026-05-02T13:43:38.804Z</time></trkpt><trkpt lat="46.025765" lon="10.5138583"><ele>1474.5</ele><time>2026-05-02T13:43:39.804Z</time></trkpt><trkpt lat="46.0259026" lon="10.5139132"><ele>1480.0</ele><time>2026-05-02T13:43:40.804Z</time></trkpt><trkpt lat="46.0260303" lon="10.5139661"><ele>1480.0</ele><time>2026-05-02T13:43:41.804Z</time></trkpt><trkpt lat="46.0261554" lon="10.5140245"><ele>1480.0</ele><time>2026-05-02T13:43:42.804Z</time></trkpt><trkpt lat="46.0262835" lon="10.514078"><ele>1480.0</ele><time>2026-05-02T13:43:43.804Z</time></trkpt><trkpt lat="46.0264139" lon="10.5141272"><ele>1480.0</ele><time>2026-05-02T13:43:44.804Z</time></trkpt><trkpt lat="46.026545" lon="10.5141447"><ele>1481.0</ele><time>2026-05-02T13:43:45.804Z</time></trkpt><trkpt lat="46.0266822" lon="10.5141262"><ele>1482.0</ele><time>2026-05-02T13:43:46.804Z</time></trkpt><trkpt lat="46.0268077" lon="10.5140653"><ele>1483.0</ele><time>2026-05-02T13:43:47.804Z</time></trkpt><trkpt lat="46.026914" lon="10.5139661"><ele>1484.0</ele><time>2026-05-02T13:43:48.804Z</time></trkpt><trkpt lat="46.0270108" lon="10.5138335"><ele>1483.75</ele><time>2026-05-02T13:43:49.803Z</time></trkpt><trkpt lat="46.0271181" lon="10.5137234"><ele>1483.5</ele><time>2026-05-02T13:43:50.803Z</time></trkpt><trkpt lat="46.0272395" lon="10.5136327"><ele>1483.25</ele><time>2026-05-02T13:43:51.803Z</time></trkpt><trkpt lat="46.0273709" lon="10.5135707"><ele>1483.0</ele><time>2026-05-02T13:43:52.803Z</time></trkpt><trkpt lat="46.0275083" lon="10.5135232"><ele>1483.0</ele><time>2026-05-02T13:43:53.803Z</time></trkpt><trkpt lat="46.0276419" lon="10.5134759"><ele>1483.0</ele><time>2026-05-02T13:43:54.803Z</time></trkpt><trkpt lat="46.0277719" lon="10.5134351"><ele>1483.0</ele><time>2026-05-02T13:43:55.803Z</time></trkpt><trkpt lat="46.0278994" lon="10.5134051"><ele>1483.0</ele><time>2026-05-02T13:43:56.803Z</time></trkpt><trkpt lat="46.0280241" lon="10.5133895"><ele>1483.0</ele><time>2026-05-02T13:43:57.803Z</time></trkpt><trkpt lat="46.0281567" lon="10.5133952"><ele>1483.0</ele><time>2026-05-02T13:43:58.803Z</time></trkpt><trkpt lat="46.0282965" lon="10.5134054"><ele>1483.0</ele><time>2026-05-02T13:43:59.803Z</time></trkpt><trkpt lat="46.028436" lon="10.5134282"><ele>1483.0</ele><time>2026-05-02T13:44:00.803Z</time></trkpt><trkpt lat="46.0285761" lon="10.5134539"><ele>1484.25</ele><time>2026-05-02T13:44:01.803Z</time></trkpt><trkpt lat="46.0287092" lon="10.5134823"><ele>1485.5</ele><time>2026-05-02T13:44:02.803Z</time></trkpt><trkpt lat="46.0288415" lon="10.5134954"><ele>1486.75</ele><time>2026-05-02T13:44:03.803Z</time></trkpt><trkpt lat="46.0289607" lon="10.5134747"><ele>1488.0</ele><time>2026-05-02T13:44:04.803Z</time></trkpt><trkpt lat="46.0290744" lon="10.5133985"><ele>1489.25</ele><time>2026-05-02T13:44:05.803Z</time></trkpt><trkpt lat="46.0291772" lon="10.5132892"><ele>1490.5</ele><time>2026-05-02T13:44:06.803Z</time></trkpt><trkpt lat="46.0292502" lon="10.5131819"><ele>1491.75</ele><time>2026-05-02T13:44:07.803Z</time></trkpt><trkpt lat="46.0293484" lon="10.5130668"><ele>1493.0</ele><time>2026-05-02T13:44:08.803Z</time></trkpt><trkpt lat="46.0294438" lon="10.5129624"><ele>1493.0</ele><time>2026-05-02T13:44:09.803Z</time></trkpt><trkpt lat="46.0295325" lon="10.5128666"><ele>1493.0</ele><time>2026-05-02T13:44:10.803Z</time></trkpt><trkpt lat="46.0296144" lon="10.5128029"><ele>1493.0</ele><time>2026-05-02T13:44:11.803Z</time></trkpt><trkpt lat="46.0296946" lon="10.5127836"><ele>1493.0</ele><time>2026-05-02T13:44:12.803Z</time></trkpt><trkpt lat="46.029768" lon="10.5128154"><ele>1493.0</ele><time>2026-05-02T13:44:13.803Z</time></trkpt><trkpt lat="46.0298306" lon="10.5128631"><ele>1493.0</ele><time>2026-05-02T13:44:14.803Z</time></trkpt><trkpt lat="46.0298741" lon="10.5129646"><ele>1493.0</ele><time>2026-05-02T13:44:15.803Z</time></trkpt><trkpt lat="46.0298957" lon="10.5131132"><ele>1493.0</ele><time>2026-05-02T13:44:16.803Z</time></trkpt><trkpt lat="46.0299123" lon="10.5132953"><ele>1493.0</ele><time>2026-05-02T13:44:17.803Z</time></trkpt><trkpt lat="46.0299452" lon="10.5134519"><ele>1493.0</ele><time>2026-05-02T13:44:18.803Z</time></trkpt><trkpt lat="46.0299979" lon="10.5135652"><ele>1493.0</ele><time>2026-05-02T13:44:19.803Z</time></trkpt><trkpt lat="46.0300523" lon="10.5136351"><ele>1496.4</ele><time>2026-05-02T13:44:20.803Z</time></trkpt><trkpt lat="46.0301127" lon="10.5135994"><ele>1499.8000000000002</ele><time>2026-05-02T13:44:22.803Z</time></trkpt><trkpt lat="46.0301273" lon="10.5134897"><ele>1503.2</ele><time>2026-05-02T13:44:23.803Z</time></trkpt><trkpt lat="46.0301188" lon="10.5133346"><ele>1506.6</ele><time>2026-05-02T13:44:24.803Z</time></trkpt><trkpt lat="46.0300752" lon="10.5131114"><ele>1510.0</ele><time>2026-05-02T13:44:25.803Z</time></trkpt><trkpt lat="46.0300129" lon="10.5128727"><ele>1508.0</ele><time>2026-05-02T13:44:26.803Z</time></trkpt><trkpt lat="46.029928" lon="10.5126599"><ele>1506.0</ele><time>2026-05-02T13:44:27.803Z</time></trkpt><trkpt lat="46.0298503" lon="10.5124866"><ele>1504.0</ele><time>2026-05-02T13:44:28.803Z</time></trkpt><trkpt lat="46.0297611" lon="10.5123698"><ele>1502.0</ele><time>2026-05-02T13:44:29.803Z</time></trkpt><trkpt lat="46.0296582" lon="10.5123303"><ele>1502.0</ele><time>2026-05-02T13:44:30.803Z</time></trkpt><trkpt lat="46.0295517" lon="10.5123371"><ele>1502.0</ele><time>2026-05-02T13:44:31.803Z</time></trkpt><trkpt lat="46.0294619" lon="10.5123427"><ele>1502.0</ele><time>2026-05-02T13:44:32.803Z</time></trkpt><trkpt lat="46.0293939" lon="10.5123147"><ele>1502.0</ele><time>2026-05-02T13:44:33.803Z</time></trkpt><trkpt lat="46.0293427" lon="10.5121747"><ele>1502.0</ele><time>2026-05-02T13:44:35.803Z</time></trkpt><trkpt lat="46.0294222" lon="10.512072"><ele>1502.0</ele><time>2026-05-02T13:44:37.803Z</time></trkpt><trkpt lat="46.029515" lon="10.5120671"><ele>1502.0</ele><time>2026-05-02T13:44:38.803Z</time></trkpt><trkpt lat="46.0296437" lon="10.5120996"><ele>1502.0</ele><time>2026-05-02T13:44:39.803Z</time></trkpt><trkpt lat="46.0298139" lon="10.5121563"><ele>1502.0</ele><time>2026-05-02T13:44:40.803Z</time></trkpt><trkpt lat="46.0300044" lon="10.5121978"><ele>1506.0</ele><time>2026-05-02T13:44:41.803Z</time></trkpt><trkpt lat="46.0301667" lon="10.5122237"><ele>1510.0</ele><time>2026-05-02T13:44:42.803Z</time></trkpt><trkpt lat="46.0303005" lon="10.5122592"><ele>1514.0</ele><time>2026-05-02T13:44:43.803Z</time></trkpt><trkpt lat="46.0304234" lon="10.5123232"><ele>1518.0</ele><time>2026-05-02T13:44:44.803Z</time></trkpt><trkpt lat="46.030516" lon="10.512433"><ele>1518.0</ele><time>2026-05-02T13:44:45.803Z</time></trkpt><trkpt lat="46.0305817" lon="10.5125728"><ele>1518.0</ele><time>2026-05-02T13:44:46.803Z</time></trkpt><trkpt lat="46.0306234" lon="10.5127378"><ele>1518.0</ele><time>2026-05-02T13:44:47.803Z</time></trkpt><trkpt lat="46.0306424" lon="10.5129177"><ele>1518.0</ele><time>2026-05-02T13:44:48.803Z</time></trkpt><trkpt lat="46.0306444" lon="10.5131086"><ele>1516.4</ele><time>2026-05-02T13:44:49.803Z</time></trkpt><trkpt lat="46.0306361" lon="10.5132898"><ele>1514.8000000000002</ele><time>2026-05-02T13:44:50.803Z</time></trkpt><trkpt lat="46.030615" lon="10.5134442"><ele>1513.2</ele><time>2026-05-02T13:44:51.803Z</time></trkpt><trkpt lat="46.0305979" lon="10.5135813"><ele>1511.6</ele><time>2026-05-02T13:44:52.803Z</time></trkpt><trkpt lat="46.030606" lon="10.5137164"><ele>1510.0</ele><time>2026-05-02T13:44:53.803Z</time></trkpt><trkpt lat="46.0306418" lon="10.5138447"><ele>1509.6</ele><time>2026-05-02T13:44:54.803Z</time></trkpt><trkpt lat="46.0307081" lon="10.5139405"><ele>1509.2</ele><time>2026-05-02T13:44:55.803Z</time></trkpt><trkpt lat="46.0307922" lon="10.51399"><ele>1508.8000000000002</ele><time>2026-05-02T13:44:56.803Z</time></trkpt><trkpt lat="46.030892" lon="10.5139854"><ele>1508.4</ele><time>2026-05-02T13:44:57.803Z</time></trkpt><trkpt lat="46.0310103" lon="10.5139463"><ele>1508.0</ele><time>2026-05-02T13:44:58.803Z</time></trkpt><trkpt lat="46.0311488" lon="10.5138782"><ele>1515.0</ele><time>2026-05-02T13:44:59.803Z</time></trkpt><trkpt lat="46.031298" lon="10.5137889"><ele>1522.0</ele><time>2026-05-02T13:45:00.803Z</time></trkpt><trkpt lat="46.0314402" lon="10.5137075"><ele>1529.0</ele><time>2026-05-02T13:45:01.803Z</time></trkpt><trkpt lat="46.0315743" lon="10.5136352"><ele>1533.75</ele><time>2026-05-02T13:45:02.803Z</time></trkpt><trkpt lat="46.03169" lon="10.5135589"><ele>1538.5</ele><time>2026-05-02T13:45:03.803Z</time></trkpt><trkpt lat="46.0318018" lon="10.5134722"><ele>1543.25</ele><time>2026-05-02T13:45:04.803Z</time></trkpt><trkpt lat="46.031912" lon="10.5133746"><ele>1548.0</ele><time>2026-05-02T13:45:05.803Z</time></trkpt><trkpt lat="46.0320126" lon="10.5132827"><ele>1548.0</ele><time>2026-05-02T13:45:06.803Z</time></trkpt><trkpt lat="46.0321088" lon="10.5131834"><ele>1548.0</ele><time>2026-05-02T13:45:07.803Z</time></trkpt><trkpt lat="46.0321942" lon="10.5130755"><ele>1548.0</ele><time>2026-05-02T13:45:08.803Z</time></trkpt><trkpt lat="46.0322609" lon="10.5129642"><ele>1548.0</ele><time>2026-05-02T13:45:09.803Z</time></trkpt><trkpt lat="46.0323172" lon="10.5128475"><ele>1548.0</ele><time>2026-05-02T13:45:10.803Z</time></trkpt><trkpt lat="46.032369" lon="10.5127324"><ele>1549.8000000000002</ele><time>2026-05-02T13:45:11.803Z</time></trkpt><trkpt lat="46.0324275" lon="10.5126257"><ele>1551.6</ele><time>2026-05-02T13:45:12.803Z</time></trkpt><trkpt lat="46.0324881" lon="10.5125089"><ele>1553.4</ele><time>2026-05-02T13:45:13.803Z</time></trkpt><trkpt lat="46.0325556" lon="10.5123908"><ele>1555.1999999999998</ele><time>2026-05-02T13:45:14.803Z</time></trkpt><trkpt lat="46.0326238" lon="10.5122775"><ele>1557.0</ele><time>2026-05-02T13:45:15.803Z</time></trkpt><trkpt lat="46.0326947" lon="10.5121601"><ele>1562.25</ele><time>2026-05-02T13:45:16.803Z</time></trkpt><trkpt lat="46.0327651" lon="10.5120366"><ele>1567.5</ele><time>2026-05-02T13:45:17.803Z</time></trkpt><trkpt lat="46.0328415" lon="10.5119139"><ele>1572.75</ele><time>2026-05-02T13:45:18.803Z</time></trkpt><trkpt lat="46.0329221" lon="10.5117914"><ele>1578.0</ele><time>2026-05-02T13:45:19.803Z</time></trkpt><trkpt lat="46.0329957" lon="10.5116697"><ele>1578.0</ele><time>2026-05-02T13:45:20.803Z</time></trkpt><trkpt lat="46.0330724" lon="10.5115668"><ele>1578.0</ele><time>2026-05-02T13:45:21.803Z</time></trkpt><trkpt lat="46.0331675" lon="10.5114858"><ele>1578.0</ele><time>2026-05-02T13:45:22.803Z</time></trkpt><trkpt lat="46.0332777" lon="10.5114307"><ele>1578.0</ele><time>2026-05-02T13:45:23.803Z</time></trkpt><trkpt lat="46.0333932" lon="10.5113827"><ele>1580.0</ele><time>2026-05-02T13:45:24.803Z</time></trkpt><trkpt lat="46.0335099" lon="10.5113358"><ele>1582.0</ele><time>2026-05-02T13:45:25.803Z</time></trkpt><trkpt lat="46.0336292" lon="10.5112894"><ele>1584.0</ele><time>2026-05-02T13:45:26.803Z</time></trkpt><trkpt lat="46.0337363" lon="10.5112276"><ele>1586.0</ele><time>2026-05-02T13:45:27.803Z</time></trkpt><trkpt lat="46.0338344" lon="10.5111466"><ele>1586.0</ele><time>2026-05-02T13:45:28.803Z</time></trkpt><trkpt lat="46.0339232" lon="10.5110423"><ele>1586.0</ele><time>2026-05-02T13:45:29.803Z</time></trkpt><trkpt lat="46.0340162" lon="10.5109365"><ele>1586.0</ele><time>2026-05-02T13:45:30.803Z</time></trkpt><trkpt lat="46.0341144" lon="10.5108385"><ele>1586.0</ele><time>2026-05-02T13:45:31.803Z</time></trkpt><trkpt lat="46.0342204" lon="10.5107621"><ele>1580.25</ele><time>2026-05-02T13:45:32.803Z</time></trkpt><trkpt lat="46.0343361" lon="10.5107053"><ele>1574.5</ele><time>2026-05-02T13:45:33.803Z</time></trkpt><trkpt lat="46.034465" lon="10.5106741"><ele>1568.75</ele><time>2026-05-02T13:45:34.803Z</time></trkpt><trkpt lat="46.0346022" lon="10.5106514"><ele>1563.0</ele><time>2026-05-02T13:45:35.803Z</time></trkpt><trkpt lat="46.0347335" lon="10.5106004"><ele>1563.0</ele><time>2026-05-02T13:45:36.803Z</time></trkpt><trkpt lat="46.0348444" lon="10.5105209"><ele>1563.0</ele><time>2026-05-02T13:45:37.803Z</time></trkpt><trkpt lat="46.0349553" lon="10.5104233"><ele>1563.0</ele><time>2026-05-02T13:45:38.803Z</time></trkpt><trkpt lat="46.0350726" lon="10.5103159"><ele>1563.0</ele><time>2026-05-02T13:45:39.803Z</time></trkpt><trkpt lat="46.0351949" lon="10.5102226"><ele>1568.75</ele><time>2026-05-02T13:45:40.803Z</time></trkpt><trkpt lat="46.0353239" lon="10.5101459"><ele>1574.5</ele><time>2026-05-02T13:45:41.803Z</time></trkpt><trkpt lat="46.0354558" lon="10.5100963"><ele>1580.25</ele><time>2026-05-02T13:45:42.803Z</time></trkpt><trkpt lat="46.0355921" lon="10.5100788"><ele>1586.0</ele><time>2026-05-02T13:45:43.803Z</time></trkpt><trkpt lat="46.0357292" lon="10.5101112"><ele>1584.0</ele><time>2026-05-02T13:45:44.803Z</time></trkpt><trkpt lat="46.0358574" lon="10.5101587"><ele>1582.0</ele><time>2026-05-02T13:45:45.803Z</time></trkpt><trkpt lat="46.035989" lon="10.5101878"><ele>1580.0</ele><time>2026-05-02T13:45:46.803Z</time></trkpt><trkpt lat="46.0361195" lon="10.510196"><ele>1578.0</ele><time>2026-05-02T13:45:47.803Z</time></trkpt><trkpt lat="46.0362519" lon="10.5101763"><ele>1578.0</ele><time>2026-05-02T13:45:48.803Z</time></trkpt><trkpt lat="46.036386" lon="10.5101407"><ele>1578.0</ele><time>2026-05-02T13:45:49.803Z</time></trkpt><trkpt lat="46.0365232" lon="10.5100991"><ele>1578.0</ele><time>2026-05-02T13:45:50.803Z</time></trkpt><trkpt lat="46.0366634" lon="10.5100539"><ele>1578.0</ele><time>2026-05-02T13:45:51.803Z</time></trkpt><trkpt lat="46.0368052" lon="10.509995"><ele>1579.0</ele><time>2026-05-02T13:45:52.803Z</time></trkpt><trkpt lat="46.0369472" lon="10.5099209"><ele>1580.0</ele><time>2026-05-02T13:45:53.803Z</time></trkpt><trkpt lat="46.0370816" lon="10.5098281"><ele>1581.0</ele><time>2026-05-02T13:45:54.803Z</time></trkpt><trkpt lat="46.0372097" lon="10.5097309"><ele>1582.0</ele><time>2026-05-02T13:45:55.803Z</time></trkpt><trkpt lat="46.0373348" lon="10.5096397"><ele>1591.5</ele><time>2026-05-02T13:45:56.803Z</time></trkpt><trkpt lat="46.0374607" lon="10.5095699"><ele>1601.0</ele><time>2026-05-02T13:45:57.803Z</time></trkpt><trkpt lat="46.037591" lon="10.509515"><ele>1610.5</ele><time>2026-05-02T13:45:58.803Z</time></trkpt><trkpt lat="46.0377265" lon="10.5094666"><ele>1620.0</ele><time>2026-05-02T13:45:59.803Z</time></trkpt><trkpt lat="46.0378659" lon="10.5094178"><ele>1620.0</ele><time>2026-05-02T13:46:00.804Z</time></trkpt><trkpt lat="46.0380064" lon="10.5093673"><ele>1620.0</ele><time>2026-05-02T13:46:01.803Z</time></trkpt><trkpt lat="46.0381575" lon="10.5093241"><ele>1620.0</ele><time>2026-05-02T13:46:02.803Z</time></trkpt><trkpt lat="46.0383285" lon="10.5092671"><ele>1617.75</ele><time>2026-05-02T13:46:03.803Z</time></trkpt><trkpt lat="46.0384811" lon="10.5092463"><ele>1615.5</ele><time>2026-05-02T13:46:04.803Z</time></trkpt><trkpt lat="46.0386271" lon="10.5092349"><ele>1613.25</ele><time>2026-05-02T13:46:05.803Z</time></trkpt><trkpt lat="46.0387748" lon="10.5092369"><ele>1611.0</ele><time>2026-05-02T13:46:06.803Z</time></trkpt><trkpt lat="46.0389134" lon="10.5092722"><ele>1611.0</ele><time>2026-05-02T13:46:07.803Z</time></trkpt><trkpt lat="46.0390722" lon="10.5092865"><ele>1611.0</ele><time>2026-05-02T13:46:08.803Z</time></trkpt><trkpt lat="46.0392434" lon="10.5093"><ele>1611.0</ele><time>2026-05-02T13:46:09.803Z</time></trkpt><trkpt lat="46.0394068" lon="10.5093389"><ele>1614.6666666666665</ele><time>2026-05-02T13:46:10.803Z</time></trkpt><trkpt lat="46.039563" lon="10.5093983"><ele>1618.3333333333333</ele><time>2026-05-02T13:46:11.803Z</time></trkpt><trkpt lat="46.0397171" lon="10.5094759"><ele>1622.0</ele><time>2026-05-02T13:46:12.803Z</time></trkpt><trkpt lat="46.0398524" lon="10.5095748"><ele>1619.75</ele><time>2026-05-02T13:46:13.803Z</time></trkpt><trkpt lat="46.0399805" lon="10.5096573"><ele>1617.5</ele><time>2026-05-02T13:46:14.803Z</time></trkpt><trkpt lat="46.0400925" lon="10.5097525"><ele>1615.25</ele><time>2026-05-02T13:46:15.803Z</time></trkpt><trkpt lat="46.0402188" lon="10.5098334"><ele>1613.0</ele><time>2026-05-02T13:46:16.803Z</time></trkpt><trkpt lat="46.0403528" lon="10.5099081"><ele>1613.0</ele><time>2026-05-02T13:46:17.803Z</time></trkpt><trkpt lat="46.0404653" lon="10.5100195"><ele>1613.0</ele><time>2026-05-02T13:46:18.803Z</time></trkpt><trkpt lat="46.0405629" lon="10.5101545"><ele>1613.0</ele><time>2026-05-02T13:46:19.803Z</time></trkpt><trkpt lat="46.0406225" lon="10.5103014"><ele>1613.0</ele><time>2026-05-02T13:46:20.803Z</time></trkpt><trkpt lat="46.0406577" lon="10.5104778"><ele>1611.25</ele><time>2026-05-02T13:46:21.803Z</time></trkpt><trkpt lat="46.0406841" lon="10.5106578"><ele>1609.5</ele><time>2026-05-02T13:46:22.803Z</time></trkpt><trkpt lat="46.0407092" lon="10.5108303"><ele>1607.75</ele><time>2026-05-02T13:46:23.803Z</time></trkpt><trkpt lat="46.0407291" lon="10.5110016"><ele>1606.0</ele><time>2026-05-02T13:46:24.803Z</time></trkpt><trkpt lat="46.0407408" lon="10.5111493"><ele>1605.6</ele><time>2026-05-02T13:46:25.803Z</time></trkpt><trkpt lat="46.0407709" lon="10.5112576"><ele>1605.1999999999998</ele><time>2026-05-02T13:46:26.803Z</time></trkpt><trkpt lat="46.0408175" lon="10.5113496"><ele>1604.8000000000002</ele><time>2026-05-02T13:46:27.803Z</time></trkpt><trkpt lat="46.0409227" lon="10.5114326"><ele>1604.4</ele><time>2026-05-02T13:46:29.803Z</time></trkpt><trkpt lat="46.0410132" lon="10.5113298"><ele>1604.0</ele><time>2026-05-02T13:46:31.803Z</time></trkpt><trkpt lat="46.0410155" lon="10.5112053"><ele>1609.5</ele><time>2026-05-02T13:46:32.803Z</time></trkpt><trkpt lat="46.0409939" lon="10.5110387"><ele>1615.0</ele><time>2026-05-02T13:46:33.803Z</time></trkpt><trkpt lat="46.0409419" lon="10.5108375"><ele>1620.5</ele><time>2026-05-02T13:46:34.803Z</time></trkpt><trkpt lat="46.0408672" lon="10.5106205"><ele>1626.0</ele><time>2026-05-02T13:46:35.803Z</time></trkpt><trkpt lat="46.0408089" lon="10.5104516"><ele>1628.1999999999998</ele><time>2026-05-02T13:46:36.803Z</time></trkpt><trkpt lat="46.0407693" lon="10.5103038"><ele>1630.3999999999999</ele><time>2026-05-02T13:46:37.803Z</time></trkpt><trkpt lat="46.0407602" lon="10.5101803"><ele>1632.6</ele><time>2026-05-02T13:46:38.803Z</time></trkpt><trkpt lat="46.0408238" lon="10.5100514"><ele>1634.8</ele><time>2026-05-02T13:46:40.803Z</time></trkpt><trkpt lat="46.0408886" lon="10.5100675"><ele>1637.0</ele><time>2026-05-02T13:46:41.803Z</time></trkpt><trkpt lat="46.0409584" lon="10.5101475"><ele>1637.0</ele><time>2026-05-02T13:46:42.803Z</time></trkpt><trkpt lat="46.0410148" lon="10.5103032"><ele>1637.0</ele><time>2026-05-02T13:46:43.803Z</time></trkpt><trkpt lat="46.0410453" lon="10.5105016"><ele>1637.0</ele><time>2026-05-02T13:46:44.803Z</time></trkpt><trkpt lat="46.0410588" lon="10.5107253"><ele>1637.0</ele><time>2026-05-02T13:46:45.803Z</time></trkpt><trkpt lat="46.0410929" lon="10.5109314"><ele>1634.25</ele><time>2026-05-02T13:46:46.803Z</time></trkpt><trkpt lat="46.0411345" lon="10.5111101"><ele>1631.5</ele><time>2026-05-02T13:46:47.803Z</time></trkpt><trkpt lat="46.0411961" lon="10.5112932"><ele>1628.75</ele><time>2026-05-02T13:46:48.803Z</time></trkpt><trkpt lat="46.0413033" lon="10.5114559"><ele>1626.0</ele><time>2026-05-02T13:46:49.803Z</time></trkpt><trkpt lat="46.041418" lon="10.5116091"><ele>1624.8</ele><time>2026-05-02T13:46:50.803Z</time></trkpt><trkpt lat="46.041523" lon="10.5117368"><ele>1623.6</ele><time>2026-05-02T13:46:51.803Z</time></trkpt><trkpt lat="46.0416064" lon="10.5118316"><ele>1622.4</ele><time>2026-05-02T13:46:52.803Z</time></trkpt><trkpt lat="46.0416821" lon="10.5118906"><ele>1621.2</ele><time>2026-05-02T13:46:53.803Z</time></trkpt><trkpt lat="46.0417533" lon="10.5119221"><ele>1620.0</ele><time>2026-05-02T13:46:54.803Z</time></trkpt><trkpt lat="46.0418221" lon="10.5119027"><ele>1626.5</ele><time>2026-05-02T13:46:55.803Z</time></trkpt><trkpt lat="46.041903" lon="10.5117796"><ele>1633.0</ele><time>2026-05-02T13:46:57.803Z</time></trkpt><trkpt lat="46.0418866" lon="10.5115694"><ele>1639.5</ele><time>2026-05-02T13:46:59.803Z</time></trkpt><trkpt lat="46.0418246" lon="10.5113984"><ele>1646.0</ele><time>2026-05-02T13:47:00.803Z</time></trkpt><trkpt lat="46.0417128" lon="10.5111781"><ele>1639.3333333333333</ele><time>2026-05-02T13:47:01.803Z</time></trkpt><trkpt lat="46.0415943" lon="10.5109575"><ele>1632.6666666666665</ele><time>2026-05-02T13:47:02.803Z</time></trkpt><trkpt lat="46.0414956" lon="10.5107643"><ele>1626.0</ele><time>2026-05-02T13:47:03.803Z</time></trkpt><trkpt lat="46.0414288" lon="10.5106017"><ele>1626.0</ele><time>2026-05-02T13:47:04.803Z</time></trkpt><trkpt lat="46.0413918" lon="10.5104554"><ele>1626.0</ele><time>2026-05-02T13:47:05.803Z</time></trkpt><trkpt lat="46.0413864" lon="10.5103383"><ele>1626.0</ele><time>2026-05-02T13:47:06.803Z</time></trkpt><trkpt lat="46.0414503" lon="10.5102255"><ele>1626.0</ele><time>2026-05-02T13:47:08.803Z</time></trkpt><trkpt lat="46.0415149" lon="10.5102533"><ele>1626.0</ele><time>2026-05-02T13:47:09.803Z</time></trkpt><trkpt lat="46.0415887" lon="10.510339"><ele>1637.6666666666665</ele><time>2026-05-02T13:47:10.803Z</time></trkpt><trkpt lat="46.0416678" lon="10.5104897"><ele>1649.3333333333333</ele><time>2026-05-02T13:47:11.803Z</time></trkpt><trkpt lat="46.0417511" lon="10.5107022"><ele>1661.0</ele><time>2026-05-02T13:47:12.803Z</time></trkpt><trkpt lat="46.0418487" lon="10.5109608"><ele>1661.0</ele><time>2026-05-02T13:47:13.803Z</time></trkpt><trkpt lat="46.0419422" lon="10.5112053"><ele>1661.0</ele><time>2026-05-02T13:47:14.803Z</time></trkpt><trkpt lat="46.0420319" lon="10.5114011"><ele>1661.0</ele><time>2026-05-02T13:47:15.803Z</time></trkpt><trkpt lat="46.0421246" lon="10.5115577"><ele>1664.25</ele><time>2026-05-02T13:47:16.803Z</time></trkpt><trkpt lat="46.0422297" lon="10.5116838"><ele>1667.5</ele><time>2026-05-02T13:47:17.803Z</time></trkpt><trkpt lat="46.0423336" lon="10.5117819"><ele>1670.75</ele><time>2026-05-02T13:47:18.803Z</time></trkpt><trkpt lat="46.0424543" lon="10.5118502"><ele>1674.0</ele><time>2026-05-02T13:47:19.803Z</time></trkpt><trkpt lat="46.0425776" lon="10.5118831"><ele>1674.0</ele><time>2026-05-02T13:47:20.803Z</time></trkpt><trkpt lat="46.0427102" lon="10.5119218"><ele>1674.0</ele><time>2026-05-02T13:47:21.803Z</time></trkpt><trkpt lat="46.0428387" lon="10.5119587"><ele>1674.0</ele><time>2026-05-02T13:47:22.803Z</time></trkpt><trkpt lat="46.0429539" lon="10.5120339"><ele>1674.0</ele><time>2026-05-02T13:47:23.803Z</time></trkpt><trkpt lat="46.0430653" lon="10.5121185"><ele>1673.25</ele><time>2026-05-02T13:47:24.803Z</time></trkpt><trkpt lat="46.0431865" lon="10.5121982"><ele>1672.5</ele><time>2026-05-02T13:47:25.803Z</time></trkpt><trkpt lat="46.0433047" lon="10.5122518"><ele>1671.75</ele><time>2026-05-02T13:47:26.803Z</time></trkpt><trkpt lat="46.0434218" lon="10.512271"><ele>1671.0</ele><time>2026-05-02T13:47:27.803Z</time></trkpt><trkpt lat="46.0435349" lon="10.5122414"><ele>1671.0</ele><time>2026-05-02T13:47:28.803Z</time></trkpt><trkpt lat="46.0436663" lon="10.5121697"><ele>1671.0</ele><time>2026-05-02T13:47:29.803Z</time></trkpt><trkpt lat="46.0438001" lon="10.512112"><ele>1671.0</ele><time>2026-05-02T13:47:30.803Z</time></trkpt><trkpt lat="46.0439382" lon="10.5120854"><ele>1671.0</ele><time>2026-05-02T13:47:31.803Z</time></trkpt><trkpt lat="46.0440797" lon="10.5120836"><ele>1672.75</ele><time>2026-05-02T13:47:32.803Z</time></trkpt><trkpt lat="46.0442259" lon="10.5120991"><ele>1674.5</ele><time>2026-05-02T13:47:33.803Z</time></trkpt><trkpt lat="46.044372" lon="10.5121113"><ele>1676.25</ele><time>2026-05-02T13:47:34.803Z</time></trkpt><trkpt lat="46.0445192" lon="10.5121105"><ele>1678.0</ele><time>2026-05-02T13:47:35.803Z</time></trkpt><trkpt lat="46.044665" lon="10.5121209"><ele>1678.0</ele><time>2026-05-02T13:47:36.803Z</time></trkpt><trkpt lat="46.0448078" lon="10.5121336"><ele>1678.0</ele><time>2026-05-02T13:47:37.803Z</time></trkpt><trkpt lat="46.0449549" lon="10.5121423"><ele>1678.0</ele><time>2026-05-02T13:47:38.803Z</time></trkpt><trkpt lat="46.0451093" lon="10.5121395"><ele>1678.0</ele><time>2026-05-02T13:47:39.803Z</time></trkpt><trkpt lat="46.0452632" lon="10.5121534"><ele>1679.0</ele><time>2026-05-02T13:47:40.803Z</time></trkpt><trkpt lat="46.0454066" lon="10.512168"><ele>1680.0</ele><time>2026-05-02T13:47:41.803Z</time></trkpt><trkpt lat="46.045532" lon="10.512183"><ele>1681.0</ele><time>2026-05-02T13:47:42.803Z</time></trkpt><trkpt lat="46.0456532" lon="10.5121786"><ele>1682.0</ele><time>2026-05-02T13:47:43.803Z</time></trkpt><trkpt lat="46.0457757" lon="10.5121798"><ele>1683.3999999999999</ele><time>2026-05-02T13:47:44.803Z</time></trkpt><trkpt lat="46.0458882" lon="10.5121848"><ele>1684.8</ele><time>2026-05-02T13:47:45.804Z</time></trkpt><trkpt lat="46.0459965" lon="10.5121941"><ele>1686.2</ele><time>2026-05-02T13:47:46.803Z</time></trkpt><trkpt lat="46.0460939" lon="10.5121993"><ele>1687.6</ele><time>2026-05-02T13:47:47.803Z</time></trkpt><trkpt lat="46.0461816" lon="10.5121877"><ele>1689.0</ele><time>2026-05-02T13:47:48.803Z</time></trkpt><trkpt lat="46.0462553" lon="10.5121506"><ele>1689.0</ele><time>2026-05-02T13:47:49.803Z</time></trkpt><trkpt lat="46.0463141" lon="10.5120932"><ele>1689.0</ele><time>2026-05-02T13:47:50.803Z</time></trkpt><trkpt lat="46.0463169" lon="10.5119199"><ele>1689.0</ele><time>2026-05-02T13:47:52.803Z</time></trkpt><trkpt lat="46.0462594" lon="10.5118207"><ele>1689.0</ele><time>2026-05-02T13:47:53.803Z</time></trkpt><trkpt lat="46.0461679" lon="10.5117362"><ele>1689.0</ele><time>2026-05-02T13:47:54.803Z</time></trkpt><trkpt lat="46.0460399" lon="10.5116762"><ele>1694.6666666666665</ele><time>2026-05-02T13:47:55.803Z</time></trkpt><trkpt lat="46.0458862" lon="10.5116475"><ele>1700.3333333333333</ele><time>2026-05-02T13:47:56.803Z</time></trkpt><trkpt lat="46.0457146" lon="10.5116495"><ele>1706.0</ele><time>2026-05-02T13:47:57.803Z</time></trkpt><trkpt lat="46.0455526" lon="10.5116659"><ele>1706.0</ele><time>2026-05-02T13:47:58.803Z</time></trkpt><trkpt lat="46.0453995" lon="10.5116828"><ele>1706.0</ele><time>2026-05-02T13:47:59.803Z</time></trkpt><trkpt lat="46.0452581" lon="10.5116923"><ele>1706.0</ele><time>2026-05-02T13:48:00.803Z</time></trkpt><trkpt lat="46.0451353" lon="10.5116947"><ele>1706.0</ele><time>2026-05-02T13:48:01.803Z</time></trkpt><trkpt lat="46.0450205" lon="10.5116819"><ele>1705.75</ele><time>2026-05-02T13:48:02.803Z</time></trkpt><trkpt lat="46.0449146" lon="10.511639"><ele>1705.5</ele><time>2026-05-02T13:48:03.803Z</time></trkpt><trkpt lat="46.0448217" lon="10.5115582"><ele>1705.25</ele><time>2026-05-02T13:48:04.803Z</time></trkpt><trkpt lat="46.0447393" lon="10.5114372"><ele>1705.0</ele><time>2026-05-02T13:48:05.803Z</time></trkpt><trkpt lat="46.0446575" lon="10.511299"><ele>1709.25</ele><time>2026-05-02T13:48:06.803Z</time></trkpt><trkpt lat="46.0445767" lon="10.511144"><ele>1713.5</ele><time>2026-05-02T13:48:07.803Z</time></trkpt><trkpt lat="46.0444985" lon="10.5109828"><ele>1717.75</ele><time>2026-05-02T13:48:08.803Z</time></trkpt><trkpt lat="46.0444259" lon="10.510831"><ele>1722.0</ele><time>2026-05-02T13:48:09.803Z</time></trkpt><trkpt lat="46.0443601" lon="10.5106858"><ele>1722.0</ele><time>2026-05-02T13:48:10.803Z</time></trkpt><trkpt lat="46.0443032" lon="10.5105414"><ele>1721.9999999999998</ele><time>2026-05-02T13:48:11.803Z</time></trkpt><trkpt lat="46.0442587" lon="10.5103961"><ele>1721.9999999999998</ele><time>2026-05-02T13:48:12.803Z</time></trkpt><trkpt lat="46.0442399" lon="10.510248"><ele>1722.0</ele><time>2026-05-02T13:48:13.803Z</time></trkpt><trkpt lat="46.0442421" lon="10.5100849"><ele>1722.0</ele><time>2026-05-02T13:48:14.803Z</time></trkpt><trkpt lat="46.0442529" lon="10.5099111"><ele>1722.25</ele><time>2026-05-02T13:48:15.803Z</time></trkpt><trkpt lat="46.0442696" lon="10.5097256"><ele>1722.5</ele><time>2026-05-02T13:48:16.803Z</time></trkpt><trkpt lat="46.0443096" lon="10.5095533"><ele>1722.75</ele><time>2026-05-02T13:48:17.803Z</time></trkpt><trkpt lat="46.0443689" lon="10.5093764"><ele>1723.0</ele><time>2026-05-02T13:48:18.803Z</time></trkpt><trkpt lat="46.0444323" lon="10.5092073"><ele>1725.75</ele><time>2026-05-02T13:48:19.803Z</time></trkpt><trkpt lat="46.0445071" lon="10.5090521"><ele>1728.5</ele><time>2026-05-02T13:48:20.803Z</time></trkpt><trkpt lat="46.0445823" lon="10.5089078"><ele>1731.25</ele><time>2026-05-02T13:48:21.803Z</time></trkpt><trkpt lat="46.0446676" lon="10.5087934"><ele>1734.0</ele><time>2026-05-02T13:48:22.803Z</time></trkpt><trkpt lat="46.044767" lon="10.5086768"><ele>1736.75</ele><time>2026-05-02T13:48:23.803Z</time></trkpt><trkpt lat="46.04488" lon="10.5085687"><ele>1739.5</ele><time>2026-05-02T13:48:24.803Z</time></trkpt><trkpt lat="46.0450048" lon="10.5084847"><ele>1742.25</ele><time>2026-05-02T13:48:25.803Z</time></trkpt><trkpt lat="46.0451361" lon="10.5084351"><ele>1745.0</ele><time>2026-05-02T13:48:26.803Z</time></trkpt><trkpt lat="46.0452746" lon="10.5084076"><ele>1745.0</ele><time>2026-05-02T13:48:27.803Z</time></trkpt><trkpt lat="46.0454161" lon="10.50843"><ele>1745.0</ele><time>2026-05-02T13:48:28.803Z</time></trkpt><trkpt lat="46.0455481" lon="10.508503"><ele>1745.0</ele><time>2026-05-02T13:48:29.803Z</time></trkpt><trkpt lat="46.045679" lon="10.5086155"><ele>1745.0</ele><time>2026-05-02T13:48:30.803Z</time></trkpt><trkpt lat="46.0458072" lon="10.5087163"><ele>1742.25</ele><time>2026-05-02T13:48:31.803Z</time></trkpt><trkpt lat="46.0459376" lon="10.5088032"><ele>1739.5</ele><time>2026-05-02T13:48:32.803Z</time></trkpt><trkpt lat="46.0460623" lon="10.5088713"><ele>1736.75</ele><time>2026-05-02T13:48:33.803Z</time></trkpt><trkpt lat="46.0461816" lon="10.5089202"><ele>1734.0</ele><time>2026-05-02T13:48:34.803Z</time></trkpt><trkpt lat="46.0463034" lon="10.5089304"><ele>1734.0</ele><time>2026-05-02T13:48:35.803Z</time></trkpt><trkpt lat="46.0464208" lon="10.5089058"><ele>1734.0</ele><time>2026-05-02T13:48:36.803Z</time></trkpt><trkpt lat="46.0465371" lon="10.5088727"><ele>1734.0</ele><time>2026-05-02T13:48:37.803Z</time></trkpt><trkpt lat="46.0466559" lon="10.5088567"><ele>1734.0</ele><time>2026-05-02T13:48:38.803Z</time></trkpt><trkpt lat="46.0467751" lon="10.5088643"><ele>1738.4</ele><time>2026-05-02T13:48:39.803Z</time></trkpt><trkpt lat="46.0468688" lon="10.5089085"><ele>1742.8000000000002</ele><time>2026-05-02T13:48:40.803Z</time></trkpt><trkpt lat="46.0469428" lon="10.5089943"><ele>1747.1999999999998</ele><time>2026-05-02T13:48:41.803Z</time></trkpt><trkpt lat="46.0469964" lon="10.5091226"><ele>1751.6</ele><time>2026-05-02T13:48:42.803Z</time></trkpt><trkpt lat="46.047015" lon="10.5092806"><ele>1756.0</ele><time>2026-05-02T13:48:43.803Z</time></trkpt><trkpt lat="46.047016" lon="10.5094405"><ele>1752.1999999999998</ele><time>2026-05-02T13:48:44.803Z</time></trkpt><trkpt lat="46.0470222" lon="10.5095968"><ele>1748.3999999999999</ele><time>2026-05-02T13:48:45.803Z</time></trkpt><trkpt lat="46.0470507" lon="10.509733"><ele>1744.6</ele><time>2026-05-02T13:48:46.803Z</time></trkpt><trkpt lat="46.0471063" lon="10.5098422"><ele>1740.8</ele><time>2026-05-02T13:48:47.803Z</time></trkpt><trkpt lat="46.0471856" lon="10.5099296"><ele>1737.0</ele><time>2026-05-02T13:48:48.803Z</time></trkpt><trkpt lat="46.047288" lon="10.5100029"><ele>1737.0</ele><time>2026-05-02T13:48:49.803Z</time></trkpt><trkpt lat="46.0473985" lon="10.5100787"><ele>1737.0</ele><time>2026-05-02T13:48:50.803Z</time></trkpt><trkpt lat="46.0475144" lon="10.5101796"><ele>1737.0</ele><time>2026-05-02T13:48:51.803Z</time></trkpt><trkpt lat="46.0476124" lon="10.5102869"><ele>1737.0</ele><time>2026-05-02T13:48:52.803Z</time></trkpt><trkpt lat="46.0477006" lon="10.5104404"><ele>1742.25</ele><time>2026-05-02T13:48:53.803Z</time></trkpt><trkpt lat="46.0477885" lon="10.5105994"><ele>1747.5</ele><time>2026-05-02T13:48:54.803Z</time></trkpt><trkpt lat="46.047879" lon="10.5107507"><ele>1752.75</ele><time>2026-05-02T13:48:55.803Z</time></trkpt><trkpt lat="46.0479757" lon="10.5108936"><ele>1758.0</ele><time>2026-05-02T13:48:56.803Z</time></trkpt><trkpt lat="46.0480823" lon="10.5110072"><ele>1758.0</ele><time>2026-05-02T13:48:57.803Z</time></trkpt><trkpt lat="46.0481978" lon="10.5111084"><ele>1758.0</ele><time>2026-05-02T13:48:58.803Z</time></trkpt><trkpt lat="46.0483118" lon="10.5111945"><ele>1758.0</ele><time>2026-05-02T13:48:59.803Z</time></trkpt><trkpt lat="46.0484223" lon="10.5112634"><ele>1758.0</ele><time>2026-05-02T13:49:00.803Z</time></trkpt><trkpt lat="46.0485405" lon="10.5112804"><ele>1758.0</ele><time>2026-05-02T13:49:01.803Z</time></trkpt><trkpt lat="46.0486691" lon="10.5112776"><ele>1758.0</ele><time>2026-05-02T13:49:02.803Z</time></trkpt><trkpt lat="46.0488165" lon="10.5112735"><ele>1758.0</ele><time>2026-05-02T13:49:03.803Z</time></trkpt><trkpt lat="46.0489637" lon="10.5113021"><ele>1758.0</ele><time>2026-05-02T13:49:04.803Z</time></trkpt><trkpt lat="46.0491105" lon="10.5113549"><ele>1763.0</ele><time>2026-05-02T13:49:05.803Z</time></trkpt><trkpt lat="46.0492462" lon="10.5114348"><ele>1768.0</ele><time>2026-05-02T13:49:06.803Z</time></trkpt><trkpt lat="46.0493762" lon="10.5114998"><ele>1773.0</ele><time>2026-05-02T13:49:07.803Z</time></trkpt><trkpt lat="46.0495018" lon="10.5115665"><ele>1778.0</ele><time>2026-05-02T13:49:08.803Z</time></trkpt><trkpt lat="46.0496252" lon="10.5116179"><ele>1778.0</ele><time>2026-05-02T13:49:09.803Z</time></trkpt><trkpt lat="46.0497478" lon="10.5116555"><ele>1778.0</ele><time>2026-05-02T13:49:10.803Z</time></trkpt><trkpt lat="46.049861" lon="10.5117071"><ele>1778.0</ele><time>2026-05-02T13:49:11.803Z</time></trkpt><trkpt lat="46.0499575" lon="10.5117851"><ele>1778.0</ele><time>2026-05-02T13:49:12.803Z</time></trkpt><trkpt lat="46.0500272" lon="10.5118982"><ele>1777.0</ele><time>2026-05-02T13:49:13.803Z</time></trkpt><trkpt lat="46.0500818" lon="10.5120169"><ele>1776.0000000000002</ele><time>2026-05-02T13:49:14.803Z</time></trkpt><trkpt lat="46.0501436" lon="10.5121205"><ele>1775.0000000000002</ele><time>2026-05-02T13:49:15.803Z</time></trkpt><trkpt lat="46.0502175" lon="10.5121929"><ele>1774.0</ele><time>2026-05-02T13:49:16.803Z</time></trkpt><trkpt lat="46.0503094" lon="10.5122429"><ele>1773.0</ele><time>2026-05-02T13:49:17.803Z</time></trkpt><trkpt lat="46.0504162" lon="10.5122747"><ele>1773.0</ele><time>2026-05-02T13:49:18.803Z</time></trkpt><trkpt lat="46.0505341" lon="10.5122892"><ele>1773.0</ele><time>2026-05-02T13:49:19.803Z</time></trkpt><trkpt lat="46.0506602" lon="10.5123488"><ele>1773.0</ele><time>2026-05-02T13:49:20.803Z</time></trkpt><trkpt lat="46.0507749" lon="10.5124276"><ele>1773.0</ele><time>2026-05-02T13:49:21.803Z</time></trkpt><trkpt lat="46.0508737" lon="10.5125347"><ele>1772.75</ele><time>2026-05-02T13:49:22.803Z</time></trkpt><trkpt lat="46.0509638" lon="10.5126509"><ele>1772.5</ele><time>2026-05-02T13:49:23.803Z</time></trkpt><trkpt lat="46.0511336" lon="10.5128522"><ele>1772.25</ele><time>2026-05-02T13:49:25.803Z</time></trkpt><trkpt lat="46.0512142" lon="10.5129317"><ele>1772.0</ele><time>2026-05-02T13:49:26.803Z</time></trkpt><trkpt lat="46.0512996" lon="10.5129874"><ele>1771.9999999999998</ele><time>2026-05-02T13:49:27.803Z</time></trkpt><trkpt lat="46.0513913" lon="10.5130199"><ele>1772.0</ele><time>2026-05-02T13:49:28.803Z</time></trkpt><trkpt lat="46.0514769" lon="10.5130531"><ele>1772.0</ele><time>2026-05-02T13:49:29.803Z</time></trkpt><trkpt lat="46.0515606" lon="10.5130904"><ele>1772.0</ele><time>2026-05-02T13:49:30.803Z</time></trkpt><trkpt lat="46.05164" lon="10.5131299"><ele>1771.9999999999998</ele><time>2026-05-02T13:49:31.803Z</time></trkpt><trkpt lat="46.0517229" lon="10.5131808"><ele>1772.0</ele><time>2026-05-02T13:49:32.803Z</time></trkpt><trkpt lat="46.0518032" lon="10.5132235"><ele>1774.8333333333333</ele><time>2026-05-02T13:49:33.803Z</time></trkpt><trkpt lat="46.0518787" lon="10.513261"><ele>1777.6666666666665</ele><time>2026-05-02T13:49:34.803Z</time></trkpt><trkpt lat="46.0519503" lon="10.5133015"><ele>1780.5</ele><time>2026-05-02T13:49:35.803Z</time></trkpt><trkpt lat="46.0520162" lon="10.5133388"><ele>1783.3333333333335</ele><time>2026-05-02T13:49:36.803Z</time></trkpt><trkpt lat="46.052082" lon="10.5133732"><ele>1786.1666666666667</ele><time>2026-05-02T13:49:37.803Z</time></trkpt><trkpt lat="46.052144" lon="10.5134035"><ele>1789.0</ele><time>2026-05-02T13:49:38.803Z</time></trkpt><trkpt lat="46.0522654" lon="10.5134519"><ele>1789.0</ele><time>2026-05-02T13:49:40.803Z</time></trkpt><trkpt lat="46.052371" lon="10.5134901"><ele>1789.0</ele><time>2026-05-02T13:49:42.803Z</time></trkpt><trkpt lat="46.052454" lon="10.5135182"><ele>1789.0</ele><time>2026-05-02T13:49:44.803Z</time></trkpt><trkpt lat="46.0526805" lon="10.5135598"><ele>1789.0</ele><time>2026-05-02T13:49:49.804Z</time></trkpt><trkpt lat="46.0527733" lon="10.5135936"><ele>1786.6666666666667</ele><time>2026-05-02T13:49:51.803Z</time></trkpt><trkpt lat="46.0528628" lon="10.5136512"><ele>1784.3333333333335</ele><time>2026-05-02T13:49:53.803Z</time></trkpt><trkpt lat="46.0529457" lon="10.513723"><ele>1782.0</ele><time>2026-05-02T13:49:55.803Z</time></trkpt><trkpt lat="46.0530106" lon="10.5137888"><ele>1779.6666666666665</ele><time>2026-05-02T13:49:57.803Z</time></trkpt><trkpt lat="46.0530616" lon="10.5138486"><ele>1777.3333333333333</ele><time>2026-05-02T13:49:59.803Z</time></trkpt><trkpt lat="46.0531318" lon="10.5138877"><ele>1775.0</ele><time>2026-05-02T13:50:02.803Z</time></trkpt><trkpt lat="46.0531636" lon="10.5137753"><ele>1779.4285714285716</ele><time>2026-05-02T14:09:14.801Z</time></trkpt><trkpt lat="46.053192" lon="10.5136802"><ele>1783.857142857143</ele><time>2026-05-02T14:09:17.801Z</time></trkpt><trkpt lat="46.0531818" lon="10.5135815"><ele>1788.2857142857142</ele><time>2026-05-02T14:09:19.801Z</time></trkpt><trkpt lat="46.053139" lon="10.5134965"><ele>1792.7142857142858</ele><time>2026-05-02T14:09:41.801Z</time></trkpt><trkpt lat="46.0530677" lon="10.513505"><ele>1797.142857142857</ele><time>2026-05-02T14:09:43.801Z</time></trkpt><trkpt lat="46.0529902" lon="10.5135318"><ele>1801.5714285714287</ele><time>2026-05-02T14:09:45.801Z</time></trkpt><trkpt lat="46.0529211" lon="10.5135514"><ele>1806.0</ele><time>2026-05-02T14:09:47.801Z</time></trkpt><trkpt lat="46.0528345" lon="10.5135797"><ele>1806.0</ele><time>2026-05-02T14:09:49.801Z</time></trkpt><trkpt lat="46.0527511" lon="10.5135676"><ele>1806.0</ele><time>2026-05-02T14:09:51.801Z</time></trkpt><trkpt lat="46.0526874" lon="10.5135408"><ele>1806.0</ele><time>2026-05-02T14:09:53.801Z</time></trkpt><trkpt lat="46.0526094" lon="10.5135151"><ele>1806.0</ele><time>2026-05-02T14:09:55.801Z</time></trkpt><trkpt lat="46.0525185" lon="10.5134914"><ele>1806.0</ele><time>2026-05-02T14:09:57.801Z</time></trkpt><trkpt lat="46.0524189" lon="10.5134571"><ele>1806.0</ele><time>2026-05-02T14:09:59.801Z</time></trkpt><trkpt lat="46.0523046" lon="10.5134138"><ele>1803.5714285714287</ele><time>2026-05-02T14:10:01.801Z</time></trkpt><trkpt lat="46.0522434" lon="10.5133871"><ele>1801.142857142857</ele><time>2026-05-02T14:10:02.801Z</time></trkpt><trkpt lat="46.0521786" lon="10.5133615"><ele>1798.7142857142858</ele><time>2026-05-02T14:10:03.801Z</time></trkpt><trkpt lat="46.052108" lon="10.5133285"><ele>1796.2857142857142</ele><time>2026-05-02T14:10:04.801Z</time></trkpt><trkpt lat="46.0520387" lon="10.5132883"><ele>1793.857142857143</ele><time>2026-05-02T14:10:05.801Z</time></trkpt><trkpt lat="46.0519722" lon="10.5132484"><ele>1791.4285714285716</ele><time>2026-05-02T14:10:06.801Z</time></trkpt><trkpt lat="46.0519065" lon="10.5132101"><ele>1789.0</ele><time>2026-05-02T14:10:07.801Z</time></trkpt><trkpt lat="46.0518395" lon="10.5131727"><ele>1789.0000000000002</ele><time>2026-05-02T14:10:08.8Z</time></trkpt><trkpt lat="46.0517657" lon="10.5131319"><ele>1789.0</ele><time>2026-05-02T14:10:09.8Z</time></trkpt><trkpt lat="46.0516904" lon="10.5130753"><ele>1789.0</ele><time>2026-05-02T14:10:10.8Z</time></trkpt><trkpt lat="46.0516077" lon="10.5130231"><ele>1789.0</ele><time>2026-05-02T14:10:11.8Z</time></trkpt><trkpt lat="46.0515203" lon="10.5129776"><ele>1789.0000000000002</ele><time>2026-05-02T14:10:12.8Z</time></trkpt><trkpt lat="46.051433" lon="10.5129392"><ele>1789.0</ele><time>2026-05-02T14:10:13.8Z</time></trkpt><trkpt lat="46.0513484" lon="10.5129072"><ele>1792.5</ele><time>2026-05-02T14:10:14.8Z</time></trkpt><trkpt lat="46.0512607" lon="10.5128739"><ele>1796.0</ele><time>2026-05-02T14:10:15.8Z</time></trkpt><trkpt lat="46.0511663" lon="10.5128271"><ele>1799.5</ele><time>2026-05-02T14:10:16.8Z</time></trkpt><trkpt lat="46.0509938" lon="10.5126691"><ele>1803.0</ele><time>2026-05-02T14:10:18.8Z</time></trkpt><trkpt lat="46.0509297" lon="10.5125493"><ele>1803.0</ele><time>2026-05-02T14:10:19.8Z</time></trkpt><trkpt lat="46.050864" lon="10.5124404"><ele>1803.0000000000002</ele><time>2026-05-02T14:10:20.8Z</time></trkpt><trkpt lat="46.0507887" lon="10.5123344"><ele>1803.0000000000002</ele><time>2026-05-02T14:10:21.8Z</time></trkpt><trkpt lat="46.0507067" lon="10.5122432"><ele>1803.0</ele><time>2026-05-02T14:10:22.8Z</time></trkpt><trkpt lat="46.0506181" lon="10.5121717"><ele>1803.0</ele><time>2026-05-02T14:10:23.8Z</time></trkpt><trkpt lat="46.0505178" lon="10.5121346"><ele>1802.75</ele><time>2026-05-02T14:10:24.8Z</time></trkpt><trkpt lat="46.0504109" lon="10.5121132"><ele>1802.5</ele><time>2026-05-02T14:10:25.8Z</time></trkpt><trkpt lat="46.0503098" lon="10.5120956"><ele>1802.25</ele><time>2026-05-02T14:10:26.8Z</time></trkpt><trkpt lat="46.0501409" lon="10.5120183"><ele>1802.0</ele><time>2026-05-02T14:10:28.8Z</time></trkpt><trkpt lat="46.0500722" lon="10.511939"><ele>1802.0</ele><time>2026-05-02T14:10:29.8Z</time></trkpt><trkpt lat="46.0500126" lon="10.5118357"><ele>1801.9999999999998</ele><time>2026-05-02T14:10:30.8Z</time></trkpt><trkpt lat="46.0499357" lon="10.5117244"><ele>1801.9999999999998</ele><time>2026-05-02T14:10:31.8Z</time></trkpt><trkpt lat="46.0498457" lon="10.5116345"><ele>1802.0</ele><time>2026-05-02T14:10:32.8Z</time></trkpt><trkpt lat="46.0497369" lon="10.5115614"><ele>1802.0</ele><time>2026-05-02T14:10:33.8Z</time></trkpt><trkpt lat="46.0496164" lon="10.5115337"><ele>1796.0</ele><time>2026-05-02T14:10:34.8Z</time></trkpt><trkpt lat="46.0494946" lon="10.511516"><ele>1790.0</ele><time>2026-05-02T14:10:35.8Z</time></trkpt><trkpt lat="46.049377" lon="10.511489"><ele>1784.0</ele><time>2026-05-02T14:10:36.8Z</time></trkpt><trkpt lat="46.049262" lon="10.5114561"><ele>1778.0</ele><time>2026-05-02T14:10:37.8Z</time></trkpt><trkpt lat="46.0491495" lon="10.5114156"><ele>1781.0</ele><time>2026-05-02T14:10:38.8Z</time></trkpt><trkpt lat="46.0490452" lon="10.5113661"><ele>1784.0000000000002</ele><time>2026-05-02T14:10:39.8Z</time></trkpt><trkpt lat="46.0489455" lon="10.5113106"><ele>1787.0000000000002</ele><time>2026-05-02T14:10:40.8Z</time></trkpt><trkpt lat="46.0488491" lon="10.5112493"><ele>1790.0</ele><time>2026-05-02T14:10:41.8Z</time></trkpt><trkpt lat="46.0487439" lon="10.511212"><ele>1793.0</ele><time>2026-05-02T14:10:42.8Z</time></trkpt><trkpt lat="46.0486501" lon="10.511184"><ele>1793.0</ele><time>2026-05-02T14:10:43.8Z</time></trkpt><trkpt lat="46.0485549" lon="10.5111801"><ele>1793.0000000000002</ele><time>2026-05-02T14:10:44.8Z</time></trkpt><trkpt lat="46.048453" lon="10.5111828"><ele>1793.0000000000002</ele><time>2026-05-02T14:10:45.8Z</time></trkpt><trkpt lat="46.0483587" lon="10.5111713"><ele>1793.0</ele><time>2026-05-02T14:10:46.8Z</time></trkpt><trkpt lat="46.048264" lon="10.5111394"><ele>1793.0</ele><time>2026-05-02T14:10:47.8Z</time></trkpt><trkpt lat="46.0481657" lon="10.5110847"><ele>1786.0</ele><time>2026-05-02T14:10:48.8Z</time></trkpt><trkpt lat="46.0480739" lon="10.5110079"><ele>1779.0000000000002</ele><time>2026-05-02T14:10:49.8Z</time></trkpt><trkpt lat="46.047985" lon="10.5109155"><ele>1772.0000000000002</ele><time>2026-05-02T14:10:50.8Z</time></trkpt><trkpt lat="46.0478947" lon="10.5108251"><ele>1765.0</ele><time>2026-05-02T14:10:51.8Z</time></trkpt><trkpt lat="46.047819" lon="10.5106948"><ele>1758.0</ele><time>2026-05-02T14:10:52.8Z</time></trkpt><trkpt lat="46.0477425" lon="10.5105635"><ele>1758.0</ele><time>2026-05-02T14:10:53.8Z</time></trkpt><trkpt lat="46.0476641" lon="10.5104399"><ele>1758.0</ele><time>2026-05-02T14:10:54.8Z</time></trkpt><trkpt lat="46.0475886" lon="10.5103181"><ele>1758.0</ele><time>2026-05-02T14:10:55.8Z</time></trkpt><trkpt lat="46.047507" lon="10.5101896"><ele>1758.0</ele><time>2026-05-02T14:10:56.8Z</time></trkpt><trkpt lat="46.0474218" lon="10.510058"><ele>1753.8000000000002</ele><time>2026-05-02T14:10:57.8Z</time></trkpt><trkpt lat="46.0473284" lon="10.5099381"><ele>1749.6000000000001</ele><time>2026-05-02T14:10:58.8Z</time></trkpt><trkpt lat="46.047228" lon="10.50986"><ele>1745.3999999999999</ele><time>2026-05-02T14:10:59.8Z</time></trkpt><trkpt lat="46.0471314" lon="10.5098125"><ele>1741.1999999999998</ele><time>2026-05-02T14:11:00.8Z</time></trkpt><trkpt lat="46.0470394" lon="10.509773"><ele>1737.0</ele><time>2026-05-02T14:11:01.8Z</time></trkpt><trkpt lat="46.0469723" lon="10.5097038"><ele>1737.0</ele><time>2026-05-02T14:11:02.8Z</time></trkpt><trkpt lat="46.0469248" lon="10.5096035"><ele>1736.9999999999998</ele><time>2026-05-02T14:11:03.8Z</time></trkpt><trkpt lat="46.0468966" lon="10.509487"><ele>1736.9999999999998</ele><time>2026-05-02T14:11:04.8Z</time></trkpt><trkpt lat="46.0468937" lon="10.5093388"><ele>1737.0</ele><time>2026-05-02T14:11:05.8Z</time></trkpt><trkpt lat="46.0468913" lon="10.509188"><ele>1737.0</ele><time>2026-05-02T14:11:06.8Z</time></trkpt><trkpt lat="46.0468803" lon="10.5090589"><ele>1740.8</ele><time>2026-05-02T14:11:07.8Z</time></trkpt><trkpt lat="46.0468506" lon="10.5089198"><ele>1744.6</ele><time>2026-05-02T14:11:08.8Z</time></trkpt><trkpt lat="46.046793" lon="10.5088082"><ele>1748.3999999999999</ele><time>2026-05-02T14:11:09.8Z</time></trkpt><trkpt lat="46.0467152" lon="10.5087191"><ele>1752.1999999999998</ele><time>2026-05-02T14:11:10.8Z</time></trkpt><trkpt lat="46.0466014" lon="10.5086891"><ele>1756.0</ele><time>2026-05-02T14:11:11.8Z</time></trkpt><trkpt lat="46.0464808" lon="10.5087128"><ele>1750.5</ele><time>2026-05-02T14:11:12.8Z</time></trkpt><trkpt lat="46.0463486" lon="10.5087614"><ele>1745.0</ele><time>2026-05-02T14:11:13.8Z</time></trkpt><trkpt lat="46.0462202" lon="10.5087744"><ele>1739.5</ele><time>2026-05-02T14:11:14.8Z</time></trkpt><trkpt lat="46.0460837" lon="10.5087675"><ele>1734.0</ele><time>2026-05-02T14:11:15.8Z</time></trkpt><trkpt lat="46.0459476" lon="10.5087442"><ele>1736.75</ele><time>2026-05-02T14:11:16.8Z</time></trkpt><trkpt lat="46.0458114" lon="10.5087022"><ele>1739.5</ele><time>2026-05-02T14:11:17.8Z</time></trkpt><trkpt lat="46.0456835" lon="10.5086391"><ele>1742.25</ele><time>2026-05-02T14:11:18.8Z</time></trkpt><trkpt lat="46.0455681" lon="10.5085508"><ele>1745.0</ele><time>2026-05-02T14:11:19.8Z</time></trkpt><trkpt lat="46.0454557" lon="10.5084584"><ele>1745.0</ele><time>2026-05-02T14:11:20.8Z</time></trkpt><trkpt lat="46.0453396" lon="10.5083915"><ele>1745.0</ele><time>2026-05-02T14:11:21.8Z</time></trkpt><trkpt lat="46.0452125" lon="10.5083589"><ele>1745.0</ele><time>2026-05-02T14:11:22.8Z</time></trkpt><trkpt lat="46.0450828" lon="10.5083649"><ele>1745.0</ele><time>2026-05-02T14:11:23.8Z</time></trkpt><trkpt lat="46.044959" lon="10.5084171"><ele>1746.5</ele><time>2026-05-02T14:11:24.8Z</time></trkpt><trkpt lat="46.0448461" lon="10.5085147"><ele>1748.0</ele><time>2026-05-02T14:11:25.8Z</time></trkpt><trkpt lat="46.0447473" lon="10.5086385"><ele>1749.5</ele><time>2026-05-02T14:11:26.8Z</time></trkpt><trkpt lat="46.0446567" lon="10.5087763"><ele>1751.0</ele><time>2026-05-02T14:11:27.8Z</time></trkpt><trkpt lat="46.0445669" lon="10.5089273"><ele>1746.75</ele><time>2026-05-02T14:11:28.8Z</time></trkpt><trkpt lat="46.0444838" lon="10.5090901"><ele>1742.5</ele><time>2026-05-02T14:11:29.8Z</time></trkpt><trkpt lat="46.0444146" lon="10.5092507"><ele>1738.25</ele><time>2026-05-02T14:11:30.8Z</time></trkpt><trkpt lat="46.0443449" lon="10.5094302"><ele>1734.0</ele><time>2026-05-02T14:11:31.8Z</time></trkpt><trkpt lat="46.0442768" lon="10.5095935"><ele>1731.25</ele><time>2026-05-02T14:11:32.8Z</time></trkpt><trkpt lat="46.0442292" lon="10.5097733"><ele>1728.5</ele><time>2026-05-02T14:11:33.8Z</time></trkpt><trkpt lat="46.044198" lon="10.5099517"><ele>1725.75</ele><time>2026-05-02T14:11:34.8Z</time></trkpt><trkpt lat="46.0441812" lon="10.5101347"><ele>1723.0</ele><time>2026-05-02T14:11:35.8Z</time></trkpt><trkpt lat="46.0441772" lon="10.5103223"><ele>1722.75</ele><time>2026-05-02T14:11:36.8Z</time></trkpt><trkpt lat="46.0441935" lon="10.5104981"><ele>1722.5</ele><time>2026-05-02T14:11:37.8Z</time></trkpt><trkpt lat="46.0442258" lon="10.510659"><ele>1722.25</ele><time>2026-05-02T14:11:38.8Z</time></trkpt><trkpt lat="46.044292" lon="10.5107953"><ele>1722.0</ele><time>2026-05-02T14:11:39.8Z</time></trkpt><trkpt lat="46.0443696" lon="10.5109112"><ele>1722.0</ele><time>2026-05-02T14:11:40.8Z</time></trkpt><trkpt lat="46.044453" lon="10.511018"><ele>1722.0</ele><time>2026-05-02T14:11:41.8Z</time></trkpt><trkpt lat="46.0445349" lon="10.5111279"><ele>1722.0</ele><time>2026-05-02T14:11:42.8Z</time></trkpt><trkpt lat="46.0446182" lon="10.5112392"><ele>1722.0</ele><time>2026-05-02T14:11:43.8Z</time></trkpt><trkpt lat="46.0446917" lon="10.5113624"><ele>1718.8</ele><time>2026-05-02T14:11:44.8Z</time></trkpt><trkpt lat="46.0447722" lon="10.5114702"><ele>1715.6</ele><time>2026-05-02T14:11:45.8Z</time></trkpt><trkpt lat="46.0448609" lon="10.5115692"><ele>1712.3999999999999</ele><time>2026-05-02T14:11:46.8Z</time></trkpt><trkpt lat="46.0449545" lon="10.5116485"><ele>1709.1999999999998</ele><time>2026-05-02T14:11:47.8Z</time></trkpt><trkpt lat="46.0450646" lon="10.5116944"><ele>1706.0</ele><time>2026-05-02T14:11:48.8Z</time></trkpt><trkpt lat="46.0451768" lon="10.5117071"><ele>1706.0</ele><time>2026-05-02T14:11:49.8Z</time></trkpt><trkpt lat="46.0452916" lon="10.5117048"><ele>1706.0</ele><time>2026-05-02T14:11:50.8Z</time></trkpt><trkpt lat="46.0454093" lon="10.511703"><ele>1706.0</ele><time>2026-05-02T14:11:51.8Z</time></trkpt><trkpt lat="46.0455313" lon="10.5117073"><ele>1706.0</ele><time>2026-05-02T14:11:52.8Z</time></trkpt><trkpt lat="46.0456551" lon="10.5117183"><ele>1706.0</ele><time>2026-05-02T14:11:53.8Z</time></trkpt><trkpt lat="46.0457729" lon="10.5117376"><ele>1706.0</ele><time>2026-05-02T14:11:54.8Z</time></trkpt><trkpt lat="46.0458859" lon="10.5117593"><ele>1706.0</ele><time>2026-05-02T14:11:55.8Z</time></trkpt><trkpt lat="46.0459935" lon="10.5117762"><ele>1706.0</ele><time>2026-05-02T14:11:56.8Z</time></trkpt><trkpt lat="46.0460902" lon="10.5117947"><ele>1706.0</ele><time>2026-05-02T14:11:57.8Z</time></trkpt><trkpt lat="46.0461711" lon="10.5118497"><ele>1706.1999999999998</ele><time>2026-05-02T14:11:58.8Z</time></trkpt><trkpt lat="46.046228" lon="10.5119348"><ele>1706.3999999999999</ele><time>2026-05-02T14:11:59.8Z</time></trkpt><trkpt lat="46.0462629" lon="10.512021"><ele>1706.6</ele><time>2026-05-02T14:12:00.8Z</time></trkpt><trkpt lat="46.0462669" lon="10.5121154"><ele>1706.8</ele><time>2026-05-02T14:12:01.8Z</time></trkpt><trkpt lat="46.0461501" lon="10.5122296"><ele>1707.0</ele><time>2026-05-02T14:12:03.8Z</time></trkpt><trkpt lat="46.0460392" lon="10.5122449"><ele>1701.0</ele><time>2026-05-02T14:12:04.8Z</time></trkpt><trkpt lat="46.0458847" lon="10.5122283"><ele>1695.0</ele><time>2026-05-02T14:12:05.8Z</time></trkpt><trkpt lat="46.0457116" lon="10.5122021"><ele>1689.0</ele><time>2026-05-02T14:12:06.8Z</time></trkpt><trkpt lat="46.0455089" lon="10.5121829"><ele>1686.6666666666665</ele><time>2026-05-02T14:12:07.8Z</time></trkpt><trkpt lat="46.0453115" lon="10.5121625"><ele>1684.3333333333333</ele><time>2026-05-02T14:12:08.8Z</time></trkpt><trkpt lat="46.0451183" lon="10.5121411"><ele>1682.0</ele><time>2026-05-02T14:12:09.8Z</time></trkpt><trkpt lat="46.0449253" lon="10.5121306"><ele>1680.6666666666665</ele><time>2026-05-02T14:12:10.8Z</time></trkpt><trkpt lat="46.0447319" lon="10.5121179"><ele>1679.3333333333335</ele><time>2026-05-02T14:12:11.8Z</time></trkpt><trkpt lat="46.0445464" lon="10.5121074"><ele>1678.0</ele><time>2026-05-02T14:12:12.8Z</time></trkpt><trkpt lat="46.0443619" lon="10.5120943"><ele>1678.0</ele><time>2026-05-02T14:12:13.8Z</time></trkpt><trkpt lat="46.0441897" lon="10.5120733"><ele>1678.0</ele><time>2026-05-02T14:12:14.8Z</time></trkpt><trkpt lat="46.0440247" lon="10.5120458"><ele>1678.0</ele><time>2026-05-02T14:12:15.8Z</time></trkpt><trkpt lat="46.0438732" lon="10.5120227"><ele>1676.25</ele><time>2026-05-02T14:12:16.8Z</time></trkpt><trkpt lat="46.0437304" lon="10.5120269"><ele>1674.5</ele><time>2026-05-02T14:12:17.8Z</time></trkpt><trkpt lat="46.0435914" lon="10.5120791"><ele>1672.75</ele><time>2026-05-02T14:12:18.8Z</time></trkpt><trkpt lat="46.043463" lon="10.5121427"><ele>1671.0</ele><time>2026-05-02T14:12:19.8Z</time></trkpt><trkpt lat="46.0433484" lon="10.5122069"><ele>1665.25</ele><time>2026-05-02T14:12:20.8Z</time></trkpt><trkpt lat="46.0432395" lon="10.5122185"><ele>1659.5</ele><time>2026-05-02T14:12:21.8Z</time></trkpt><trkpt lat="46.0431207" lon="10.5122064"><ele>1653.75</ele><time>2026-05-02T14:12:22.8Z</time></trkpt><trkpt lat="46.0430152" lon="10.5121562"><ele>1648.0</ele><time>2026-05-02T14:12:23.8Z</time></trkpt><trkpt lat="46.0429151" lon="10.512075"><ele>1654.5</ele><time>2026-05-02T14:12:24.8Z</time></trkpt><trkpt lat="46.042811" lon="10.5120024"><ele>1661.0</ele><time>2026-05-02T14:12:25.8Z</time></trkpt><trkpt lat="46.0426983" lon="10.511936"><ele>1667.5</ele><time>2026-05-02T14:12:26.8Z</time></trkpt><trkpt lat="46.0425868" lon="10.5118801"><ele>1674.0</ele><time>2026-05-02T14:12:27.8Z</time></trkpt><trkpt lat="46.0424843" lon="10.5118173"><ele>1667.0</ele><time>2026-05-02T14:12:28.8Z</time></trkpt><trkpt lat="46.0423814" lon="10.5117776"><ele>1660.0</ele><time>2026-05-02T14:12:29.8Z</time></trkpt><trkpt lat="46.0422772" lon="10.5117302"><ele>1653.0</ele><time>2026-05-02T14:12:30.8Z</time></trkpt><trkpt lat="46.0421765" lon="10.5116588"><ele>1646.0</ele><time>2026-05-02T14:12:31.8Z</time></trkpt><trkpt lat="46.0419879" lon="10.5114606"><ele>1646.0</ele><time>2026-05-02T14:12:33.8Z</time></trkpt><trkpt lat="46.0418996" lon="10.511318"><ele>1646.0</ele><time>2026-05-02T14:12:34.8Z</time></trkpt><trkpt lat="46.0418225" lon="10.5111679"><ele>1646.0</ele><time>2026-05-02T14:12:35.8Z</time></trkpt><trkpt lat="46.0417624" lon="10.5110221"><ele>1646.0</ele><time>2026-05-02T14:12:36.8Z</time></trkpt><trkpt lat="46.0417122" lon="10.5108674"><ele>1644.1999999999998</ele><time>2026-05-02T14:12:37.8Z</time></trkpt><trkpt lat="46.0416644" lon="10.5107058"><ele>1642.3999999999999</ele><time>2026-05-02T14:12:38.8Z</time></trkpt><trkpt lat="46.0416238" lon="10.5105559"><ele>1640.6</ele><time>2026-05-02T14:12:39.8Z</time></trkpt><trkpt lat="46.0415797" lon="10.5104237"><ele>1638.8</ele><time>2026-05-02T14:12:40.8Z</time></trkpt><trkpt lat="46.041534" lon="10.5103154"><ele>1637.0</ele><time>2026-05-02T14:12:41.8Z</time></trkpt><trkpt lat="46.0414828" lon="10.5102415"><ele>1637.0</ele><time>2026-05-02T14:12:42.8Z</time></trkpt><trkpt lat="46.0413766" lon="10.5102043"><ele>1637.0</ele><time>2026-05-02T14:12:44.8Z</time></trkpt><trkpt lat="46.0413204" lon="10.510375"><ele>1637.0</ele><time>2026-05-02T14:12:46.8Z</time></trkpt><trkpt lat="46.041333" lon="10.5105235"><ele>1637.0</ele><time>2026-05-02T14:12:47.8Z</time></trkpt><trkpt lat="46.0413684" lon="10.5106998"><ele>1634.25</ele><time>2026-05-02T14:12:48.8Z</time></trkpt><trkpt lat="46.0414182" lon="10.510888"><ele>1631.5</ele><time>2026-05-02T14:12:49.8Z</time></trkpt><trkpt lat="46.0414829" lon="10.5110797"><ele>1628.75</ele><time>2026-05-02T14:12:50.8Z</time></trkpt><trkpt lat="46.0415506" lon="10.5112468"><ele>1626.0</ele><time>2026-05-02T14:12:51.8Z</time></trkpt><trkpt lat="46.0416155" lon="10.5113694"><ele>1629.3333333333333</ele><time>2026-05-02T14:12:52.8Z</time></trkpt><trkpt lat="46.0416809" lon="10.5114686"><ele>1632.6666666666665</ele><time>2026-05-02T14:12:53.8Z</time></trkpt><trkpt lat="46.0417476" lon="10.5115555"><ele>1636.0</ele><time>2026-05-02T14:12:54.8Z</time></trkpt><trkpt lat="46.0417887" lon="10.5116445"><ele>1639.3333333333333</ele><time>2026-05-02T14:12:55.8Z</time></trkpt><trkpt lat="46.0418082" lon="10.5117402"><ele>1642.6666666666665</ele><time>2026-05-02T14:12:56.8Z</time></trkpt><trkpt lat="46.0417599" lon="10.5118692"><ele>1646.0</ele><time>2026-05-02T14:12:58.8Z</time></trkpt><trkpt lat="46.0416956" lon="10.5118776"><ele>1641.6666666666665</ele><time>2026-05-02T14:12:59.8Z</time></trkpt><trkpt lat="46.0416177" lon="10.5118233"><ele>1637.3333333333333</ele><time>2026-05-02T14:13:00.8Z</time></trkpt><trkpt lat="46.0415435" lon="10.5117108"><ele>1633.0</ele><time>2026-05-02T14:13:01.8Z</time></trkpt><trkpt lat="46.0414897" lon="10.5116348"><ele>1628.6666666666665</ele><time>2026-05-02T14:13:02.8Z</time></trkpt><trkpt lat="46.0414276" lon="10.5115393"><ele>1624.3333333333333</ele><time>2026-05-02T14:13:04.8Z</time></trkpt><trkpt lat="46.0413488" lon="10.511549"><ele>1620.0</ele><time>2026-05-02T14:13:46.8Z</time></trkpt><trkpt lat="46.0412827" lon="10.5114977"><ele>1620.0</ele><time>2026-05-02T14:13:48.8Z</time></trkpt><trkpt lat="46.0412031" lon="10.5113543"><ele>1620.0</ele><time>2026-05-02T14:13:50.8Z</time></trkpt><trkpt lat="46.0411608" lon="10.5112312"><ele>1620.0</ele><time>2026-05-02T14:13:51.8Z</time></trkpt><trkpt lat="46.041127" lon="10.511084"><ele>1620.0</ele><time>2026-05-02T14:13:52.8Z</time></trkpt><trkpt lat="46.0410999" lon="10.5109328"><ele>1620.0</ele><time>2026-05-02T14:13:53.8Z</time></trkpt><trkpt lat="46.0410845" lon="10.5107746"><ele>1621.2</ele><time>2026-05-02T14:13:54.8Z</time></trkpt><trkpt lat="46.0410658" lon="10.5106082"><ele>1622.4</ele><time>2026-05-02T14:13:55.8Z</time></trkpt><trkpt lat="46.0410294" lon="10.5104393"><ele>1623.6</ele><time>2026-05-02T14:13:56.8Z</time></trkpt><trkpt lat="46.0409839" lon="10.5102875"><ele>1624.8</ele><time>2026-05-02T14:13:57.8Z</time></trkpt><trkpt lat="46.0409335" lon="10.5101717"><ele>1626.0</ele><time>2026-05-02T14:13:58.8Z</time></trkpt><trkpt lat="46.0408724" lon="10.510089"><ele>1626.0</ele><time>2026-05-02T14:13:59.8Z</time></trkpt><trkpt lat="46.040815" lon="10.5100477"><ele>1626.0</ele><time>2026-05-02T14:14:00.8Z</time></trkpt><trkpt lat="46.0407189" lon="10.5101284"><ele>1626.0</ele><time>2026-05-02T14:14:02.8Z</time></trkpt><trkpt lat="46.0407131" lon="10.5102491"><ele>1626.0</ele><time>2026-05-02T14:14:03.8Z</time></trkpt><trkpt lat="46.040743" lon="10.5104003"><ele>1626.0</ele><time>2026-05-02T14:14:04.8Z</time></trkpt><trkpt lat="46.0408051" lon="10.5105752"><ele>1626.0</ele><time>2026-05-02T14:14:05.8Z</time></trkpt><trkpt lat="46.0408811" lon="10.5107468"><ele>1626.0</ele><time>2026-05-02T14:14:06.8Z</time></trkpt><trkpt lat="46.0409489" lon="10.5108988"><ele>1626.0</ele><time>2026-05-02T14:14:07.8Z</time></trkpt><trkpt lat="46.040992" lon="10.5110299"><ele>1626.0</ele><time>2026-05-02T14:14:08.8Z</time></trkpt><trkpt lat="46.041007" lon="10.5111406"><ele>1626.0</ele><time>2026-05-02T14:14:09.8Z</time></trkpt><trkpt lat="46.0409817" lon="10.5112327"><ele>1626.0</ele><time>2026-05-02T14:14:10.8Z</time></trkpt><trkpt lat="46.0408867" lon="10.5112915"><ele>1626.0</ele><time>2026-05-02T14:14:12.8Z</time></trkpt><trkpt lat="46.0408241" lon="10.5112183"><ele>1626.0</ele><time>2026-05-02T14:14:13.8Z</time></trkpt><trkpt lat="46.0407595" lon="10.5110719"><ele>1626.0</ele><time>2026-05-02T14:14:14.8Z</time></trkpt><trkpt lat="46.0407016" lon="10.5108653"><ele>1621.6666666666665</ele><time>2026-05-02T14:14:15.8Z</time></trkpt><trkpt lat="46.040616" lon="10.5104565"><ele>1617.3333333333333</ele><time>2026-05-02T14:14:17.8Z</time></trkpt><trkpt lat="46.0405744" lon="10.5102775"><ele>1613.0</ele><time>2026-05-02T14:14:18.8Z</time></trkpt><trkpt lat="46.0405102" lon="10.5101211"><ele>1613.0</ele><time>2026-05-02T14:14:19.8Z</time></trkpt><trkpt lat="46.0404258" lon="10.5099772"><ele>1613.0</ele><time>2026-05-02T14:14:20.8Z</time></trkpt><trkpt lat="46.0403289" lon="10.5098521"><ele>1613.0</ele><time>2026-05-02T14:14:21.8Z</time></trkpt><trkpt lat="46.0402207" lon="10.5097489"><ele>1613.0</ele><time>2026-05-02T14:14:22.8Z</time></trkpt><trkpt lat="46.0401024" lon="10.5096665"><ele>1613.0</ele><time>2026-05-02T14:14:23.8Z</time></trkpt><trkpt lat="46.0399777" lon="10.5096"><ele>1613.0</ele><time>2026-05-02T14:14:24.8Z</time></trkpt><trkpt lat="46.0398521" lon="10.5095389"><ele>1613.0</ele><time>2026-05-02T14:14:25.8Z</time></trkpt><trkpt lat="46.0397195" lon="10.5094765"><ele>1613.0</ele><time>2026-05-02T14:14:26.8Z</time></trkpt><trkpt lat="46.0395834" lon="10.5094189"><ele>1612.5</ele><time>2026-05-02T14:14:27.8Z</time></trkpt><trkpt lat="46.0394494" lon="10.5093673"><ele>1612.0</ele><time>2026-05-02T14:14:28.8Z</time></trkpt><trkpt lat="46.0393123" lon="10.5093227"><ele>1611.5</ele><time>2026-05-02T14:14:29.8Z</time></trkpt><trkpt lat="46.0391805" lon="10.5092767"><ele>1611.0</ele><time>2026-05-02T14:14:30.8Z</time></trkpt><trkpt lat="46.0390349" lon="10.5092421"><ele>1611.0</ele><time>2026-05-02T14:14:31.8Z</time></trkpt><trkpt lat="46.0388976" lon="10.5092202"><ele>1611.0</ele><time>2026-05-02T14:14:32.8Z</time></trkpt><trkpt lat="46.0387591" lon="10.5092082"><ele>1611.0</ele><time>2026-05-02T14:14:33.8Z</time></trkpt><trkpt lat="46.0386156" lon="10.5092116"><ele>1611.0</ele><time>2026-05-02T14:14:34.8Z</time></trkpt><trkpt lat="46.0384665" lon="10.5092212"><ele>1611.0</ele><time>2026-05-02T14:14:35.8Z</time></trkpt><trkpt lat="46.0383102" lon="10.5092505"><ele>1611.0</ele><time>2026-05-02T14:14:36.8Z</time></trkpt><trkpt lat="46.0380144" lon="10.5093392"><ele>1613.25</ele><time>2026-05-02T14:14:38.8Z</time></trkpt><trkpt lat="46.0378681" lon="10.5093906"><ele>1615.5</ele><time>2026-05-02T14:14:39.8Z</time></trkpt><trkpt lat="46.0377254" lon="10.5094446"><ele>1617.75</ele><time>2026-05-02T14:14:40.8Z</time></trkpt><trkpt lat="46.0375811" lon="10.5095045"><ele>1620.0</ele><time>2026-05-02T14:14:41.8Z</time></trkpt><trkpt lat="46.0374362" lon="10.5095617"><ele>1607.3333333333335</ele><time>2026-05-02T14:14:42.8Z</time></trkpt><trkpt lat="46.0372886" lon="10.5096288"><ele>1594.6666666666667</ele><time>2026-05-02T14:14:43.8Z</time></trkpt><trkpt lat="46.0371482" lon="10.509717"><ele>1582.0</ele><time>2026-05-02T14:14:44.8Z</time></trkpt><trkpt lat="46.0370158" lon="10.5098205"><ele>1582.0</ele><time>2026-05-02T14:14:45.8Z</time></trkpt><trkpt lat="46.036885" lon="10.5099139"><ele>1582.0</ele><time>2026-05-02T14:14:46.8Z</time></trkpt><trkpt lat="46.036751" lon="10.5100033"><ele>1582.0</ele><time>2026-05-02T14:14:47.8Z</time></trkpt><trkpt lat="46.0366121" lon="10.5100642"><ele>1582.0</ele><time>2026-05-02T14:14:48.8Z</time></trkpt><trkpt lat="46.0364665" lon="10.510107"><ele>1581.0</ele><time>2026-05-02T14:14:49.8Z</time></trkpt><trkpt lat="46.0363219" lon="10.510139"><ele>1580.0</ele><time>2026-05-02T14:14:50.8Z</time></trkpt><trkpt lat="46.0361768" lon="10.5101722"><ele>1579.0</ele><time>2026-05-02T14:14:51.8Z</time></trkpt><trkpt lat="46.0360392" lon="10.5102001"><ele>1578.0</ele><time>2026-05-02T14:14:52.8Z</time></trkpt><trkpt lat="46.0358977" lon="10.5102006"><ele>1580.0</ele><time>2026-05-02T14:14:53.8Z</time></trkpt><trkpt lat="46.0357579" lon="10.5101672"><ele>1582.0</ele><time>2026-05-02T14:14:54.8Z</time></trkpt><trkpt lat="46.0356208" lon="10.5101287"><ele>1584.0</ele><time>2026-05-02T14:14:55.8Z</time></trkpt><trkpt lat="46.0354865" lon="10.5101097"><ele>1586.0</ele><time>2026-05-02T14:14:56.8Z</time></trkpt><trkpt lat="46.0353494" lon="10.5101286"><ele>1586.0</ele><time>2026-05-02T14:14:57.8Z</time></trkpt><trkpt lat="46.0352091" lon="10.5101886"><ele>1586.0</ele><time>2026-05-02T14:14:58.8Z</time></trkpt><trkpt lat="46.0350733" lon="10.5102909"><ele>1586.0</ele><time>2026-05-02T14:14:59.8Z</time></trkpt><trkpt lat="46.0349416" lon="10.510409"><ele>1580.25</ele><time>2026-05-02T14:15:00.8Z</time></trkpt><trkpt lat="46.0348112" lon="10.5105279"><ele>1574.5</ele><time>2026-05-02T14:15:01.8Z</time></trkpt><trkpt lat="46.0346817" lon="10.5106332"><ele>1568.75</ele><time>2026-05-02T14:15:02.8Z</time></trkpt><trkpt lat="46.0345472" lon="10.510696"><ele>1563.0</ele><time>2026-05-02T14:15:03.8Z</time></trkpt><trkpt lat="46.0344026" lon="10.5107208"><ele>1563.0</ele><time>2026-05-02T14:15:04.8Z</time></trkpt><trkpt lat="46.034251" lon="10.5107548"><ele>1563.0</ele><time>2026-05-02T14:15:05.8Z</time></trkpt><trkpt lat="46.0341029" lon="10.5108051"><ele>1563.0</ele><time>2026-05-02T14:15:06.8Z</time></trkpt><trkpt lat="46.0339746" lon="10.5108948"><ele>1563.0</ele><time>2026-05-02T14:15:07.8Z</time></trkpt><trkpt lat="46.033857" lon="10.5110089"><ele>1561.5</ele><time>2026-05-02T14:15:08.8Z</time></trkpt><trkpt lat="46.0337474" lon="10.5111327"><ele>1560.0</ele><time>2026-05-02T14:15:09.8Z</time></trkpt><trkpt lat="46.0336365" lon="10.5112436"><ele>1558.5</ele><time>2026-05-02T14:15:10.8Z</time></trkpt><trkpt lat="46.0335189" lon="10.5113256"><ele>1557.0</ele><time>2026-05-02T14:15:11.8Z</time></trkpt><trkpt lat="46.0333958" lon="10.5113892"><ele>1562.25</ele><time>2026-05-02T14:15:12.8Z</time></trkpt><trkpt lat="46.0332751" lon="10.5114415"><ele>1567.5</ele><time>2026-05-02T14:15:13.8Z</time></trkpt><trkpt lat="46.0331563" lon="10.5114914"><ele>1572.75</ele><time>2026-05-02T14:15:14.8Z</time></trkpt><trkpt lat="46.0330366" lon="10.5115672"><ele>1578.0</ele><time>2026-05-02T14:15:15.8Z</time></trkpt><trkpt lat="46.032931" lon="10.5116659"><ele>1578.0</ele><time>2026-05-02T14:15:16.8Z</time></trkpt><trkpt lat="46.0328395" lon="10.5117976"><ele>1578.0</ele><time>2026-05-02T14:15:17.8Z</time></trkpt><trkpt lat="46.0327585" lon="10.5119391"><ele>1578.0</ele><time>2026-05-02T14:15:18.8Z</time></trkpt><trkpt lat="46.0326784" lon="10.5120846"><ele>1578.0</ele><time>2026-05-02T14:15:19.8Z</time></trkpt><trkpt lat="46.0326005" lon="10.5122375"><ele>1576.0</ele><time>2026-05-02T14:15:20.8Z</time></trkpt><trkpt lat="46.0325233" lon="10.5123871"><ele>1574.0</ele><time>2026-05-02T14:15:21.8Z</time></trkpt><trkpt lat="46.0324484" lon="10.5125301"><ele>1572.0</ele><time>2026-05-02T14:15:22.8Z</time></trkpt><trkpt lat="46.0323756" lon="10.5126591"><ele>1570.0</ele><time>2026-05-02T14:15:23.8Z</time></trkpt><trkpt lat="46.0323095" lon="10.5127798"><ele>1570.0</ele><time>2026-05-02T14:15:24.8Z</time></trkpt><trkpt lat="46.0322466" lon="10.5128933"><ele>1570.0</ele><time>2026-05-02T14:15:25.8Z</time></trkpt><trkpt lat="46.0321865" lon="10.5130012"><ele>1570.0</ele><time>2026-05-02T14:15:26.8Z</time></trkpt><trkpt lat="46.0321187" lon="10.5131033"><ele>1570.0</ele><time>2026-05-02T14:15:27.8Z</time></trkpt><trkpt lat="46.0320356" lon="10.5132014"><ele>1570.0</ele><time>2026-05-02T14:15:28.8Z</time></trkpt><trkpt lat="46.0319427" lon="10.5133038"><ele>1564.5</ele><time>2026-05-02T14:15:29.8Z</time></trkpt><trkpt lat="46.0318416" lon="10.5133918"><ele>1559.0</ele><time>2026-05-02T14:15:30.8Z</time></trkpt><trkpt lat="46.0317411" lon="10.5134678"><ele>1553.5</ele><time>2026-05-02T14:15:31.8Z</time></trkpt><trkpt lat="46.0316431" lon="10.5135379"><ele>1548.0</ele><time>2026-05-02T14:15:32.8Z</time></trkpt><trkpt lat="46.0315325" lon="10.5136016"><ele>1545.5</ele><time>2026-05-02T14:15:33.8Z</time></trkpt><trkpt lat="46.031415" lon="10.5136454"><ele>1543.0</ele><time>2026-05-02T14:15:34.8Z</time></trkpt><trkpt lat="46.0312916" lon="10.5136695"><ele>1540.5</ele><time>2026-05-02T14:15:35.8Z</time></trkpt><trkpt lat="46.031167" lon="10.5136927"><ele>1538.0</ele><time>2026-05-02T14:15:36.8Z</time></trkpt><trkpt lat="46.0310523" lon="10.5137202"><ele>1536.2</ele><time>2026-05-02T14:15:37.8Z</time></trkpt><trkpt lat="46.0309462" lon="10.5137695"><ele>1534.4</ele><time>2026-05-02T14:15:38.8Z</time></trkpt><trkpt lat="46.0308482" lon="10.5138126"><ele>1532.6000000000001</ele><time>2026-05-02T14:15:39.8Z</time></trkpt><trkpt lat="46.0307498" lon="10.5138255"><ele>1530.8000000000002</ele><time>2026-05-02T14:15:40.8Z</time></trkpt><trkpt lat="46.0306609" lon="10.5137985"><ele>1529.0</ele><time>2026-05-02T14:15:41.8Z</time></trkpt><trkpt lat="46.0305893" lon="10.5137105"><ele>1524.25</ele><time>2026-05-02T14:15:42.8Z</time></trkpt><trkpt lat="46.0305415" lon="10.5135819"><ele>1519.5</ele><time>2026-05-02T14:15:43.8Z</time></trkpt><trkpt lat="46.03054" lon="10.5134213"><ele>1514.75</ele><time>2026-05-02T14:15:44.8Z</time></trkpt><trkpt lat="46.0305683" lon="10.5132476"><ele>1510.0</ele><time>2026-05-02T14:15:45.8Z</time></trkpt><trkpt lat="46.0305908" lon="10.5130707"><ele>1512.0</ele><time>2026-05-02T14:15:46.8Z</time></trkpt><trkpt lat="46.0305992" lon="10.5128897"><ele>1514.0</ele><time>2026-05-02T14:15:47.8Z</time></trkpt><trkpt lat="46.0305914" lon="10.5127203"><ele>1516.0</ele><time>2026-05-02T14:15:48.8Z</time></trkpt><trkpt lat="46.0305757" lon="10.5125625"><ele>1518.0</ele><time>2026-05-02T14:15:49.8Z</time></trkpt><trkpt lat="46.0305352" lon="10.512417"><ele>1518.0</ele><time>2026-05-02T14:15:50.8Z</time></trkpt><trkpt lat="46.0304675" lon="10.5122935"><ele>1518.0</ele><time>2026-05-02T14:15:51.8Z</time></trkpt><trkpt lat="46.0303866" lon="10.5122014"><ele>1518.0</ele><time>2026-05-02T14:15:52.8Z</time></trkpt><trkpt lat="46.0302733" lon="10.5121699"><ele>1518.0</ele><time>2026-05-02T14:15:53.8Z</time></trkpt><trkpt lat="46.030138" lon="10.5121862"><ele>1518.0</ele><time>2026-05-02T14:15:54.8Z</time></trkpt><trkpt lat="46.0300085" lon="10.5122089"><ele>1518.0</ele><time>2026-05-02T14:15:55.8Z</time></trkpt><trkpt lat="46.0298795" lon="10.5122174"><ele>1518.0</ele><time>2026-05-02T14:15:56.8Z</time></trkpt><trkpt lat="46.0297643" lon="10.5121949"><ele>1518.0</ele><time>2026-05-02T14:15:57.8Z</time></trkpt><trkpt lat="46.0296611" lon="10.5121455"><ele>1515.3333333333333</ele><time>2026-05-02T14:15:58.8Z</time></trkpt><trkpt lat="46.0295712" lon="10.5121056"><ele>1512.6666666666667</ele><time>2026-05-02T14:15:59.8Z</time></trkpt><trkpt lat="46.0294822" lon="10.5120812"><ele>1510.0</ele><time>2026-05-02T14:16:00.8Z</time></trkpt><trkpt lat="46.0293994" lon="10.5120867"><ele>1507.3333333333335</ele><time>2026-05-02T14:16:01.8Z</time></trkpt><trkpt lat="46.0293267" lon="10.5121212"><ele>1504.6666666666667</ele><time>2026-05-02T14:16:02.8Z</time></trkpt><trkpt lat="46.029283" lon="10.5121895"><ele>1502.0</ele><time>2026-05-02T14:16:03.8Z</time></trkpt><trkpt lat="46.0293037" lon="10.5123656"><ele>1502.0</ele><time>2026-05-02T14:16:05.8Z</time></trkpt><trkpt lat="46.0293694" lon="10.5124203"><ele>1502.0</ele><time>2026-05-02T14:16:06.8Z</time></trkpt><trkpt lat="46.0294816" lon="10.51244"><ele>1502.0</ele><time>2026-05-02T14:16:07.8Z</time></trkpt><trkpt lat="46.0296339" lon="10.5124392"><ele>1502.0</ele><time>2026-05-02T14:16:08.8Z</time></trkpt><trkpt lat="46.0297816" lon="10.5124687"><ele>1502.0</ele><time>2026-05-02T14:16:09.801Z</time></trkpt><trkpt lat="46.0299061" lon="10.5125503"><ele>1502.0</ele><time>2026-05-02T14:16:10.8Z</time></trkpt><trkpt lat="46.0299864" lon="10.5126978"><ele>1502.0</ele><time>2026-05-02T14:16:11.8Z</time></trkpt><trkpt lat="46.0300311" lon="10.5128849"><ele>1502.0</ele><time>2026-05-02T14:16:12.8Z</time></trkpt><trkpt lat="46.0300647" lon="10.5130647"><ele>1503.6</ele><time>2026-05-02T14:16:13.8Z</time></trkpt><trkpt lat="46.030098" lon="10.5132281"><ele>1505.1999999999998</ele><time>2026-05-02T14:16:14.8Z</time></trkpt><trkpt lat="46.0301133" lon="10.5133815"><ele>1506.8</ele><time>2026-05-02T14:16:15.8Z</time></trkpt><trkpt lat="46.0301033" lon="10.5135152"><ele>1508.4</ele><time>2026-05-02T14:16:16.8Z</time></trkpt><trkpt lat="46.0300639" lon="10.5136061"><ele>1510.0</ele><time>2026-05-02T14:16:17.8Z</time></trkpt><trkpt lat="46.0299544" lon="10.513657"><ele>1504.3333333333333</ele><time>2026-05-02T14:16:19.8Z</time></trkpt><trkpt lat="46.0298996" lon="10.5135738"><ele>1498.6666666666667</ele><time>2026-05-02T14:16:20.8Z</time></trkpt><trkpt lat="46.0298096" lon="10.5132368"><ele>1493.0</ele><time>2026-05-02T14:16:22.8Z</time></trkpt><trkpt lat="46.0297436" lon="10.5130218"><ele>1493.0</ele><time>2026-05-02T14:16:23.8Z</time></trkpt><trkpt lat="46.0296706" lon="10.5128537"><ele>1493.0</ele><time>2026-05-02T14:16:24.8Z</time></trkpt><trkpt lat="46.0295923" lon="10.5127559"><ele>1493.0</ele><time>2026-05-02T14:16:25.8Z</time></trkpt><trkpt lat="46.0295052" lon="10.5127517"><ele>1493.0</ele><time>2026-05-02T14:16:26.8Z</time></trkpt><trkpt lat="46.0294159" lon="10.5128125"><ele>1493.0</ele><time>2026-05-02T14:16:27.8Z</time></trkpt><trkpt lat="46.029321" lon="10.5129243"><ele>1493.0</ele><time>2026-05-02T14:16:28.8Z</time></trkpt><trkpt lat="46.0292187" lon="10.5130788"><ele>1493.0</ele><time>2026-05-02T14:16:29.8Z</time></trkpt><trkpt lat="46.0291156" lon="10.5132229"><ele>1493.0</ele><time>2026-05-02T14:16:30.8Z</time></trkpt><trkpt lat="46.0290179" lon="10.5133434"><ele>1493.0</ele><time>2026-05-02T14:16:31.8Z</time></trkpt><trkpt lat="46.0289074" lon="10.5134448"><ele>1491.75</ele><time>2026-05-02T14:16:32.8Z</time></trkpt><trkpt lat="46.0287921" lon="10.5134986"><ele>1490.5</ele><time>2026-05-02T14:16:33.8Z</time></trkpt><trkpt lat="46.0286677" lon="10.5135147"><ele>1489.25</ele><time>2026-05-02T14:16:34.8Z</time></trkpt><trkpt lat="46.0285424" lon="10.5135058"><ele>1488.0</ele><time>2026-05-02T14:16:35.8Z</time></trkpt><trkpt lat="46.0284103" lon="10.5134855"><ele>1486.75</ele><time>2026-05-02T14:16:36.8Z</time></trkpt><trkpt lat="46.028277" lon="10.513461"><ele>1485.5</ele><time>2026-05-02T14:16:37.8Z</time></trkpt><trkpt lat="46.0281412" lon="10.5134373"><ele>1484.25</ele><time>2026-05-02T14:16:38.8Z</time></trkpt><trkpt lat="46.028008" lon="10.513416"><ele>1483.0</ele><time>2026-05-02T14:16:39.8Z</time></trkpt><trkpt lat="46.0278782" lon="10.5134132"><ele>1483.0</ele><time>2026-05-02T14:16:40.8Z</time></trkpt><trkpt lat="46.0277426" lon="10.5134294"><ele>1483.0</ele><time>2026-05-02T14:16:41.8Z</time></trkpt><trkpt lat="46.0274778" lon="10.5135324"><ele>1483.0</ele><time>2026-05-02T14:16:43.8Z</time></trkpt><trkpt lat="46.0273438" lon="10.5135916"><ele>1483.25</ele><time>2026-05-02T14:16:44.8Z</time></trkpt><trkpt lat="46.0272114" lon="10.5136389"><ele>1483.5</ele><time>2026-05-02T14:16:45.8Z</time></trkpt><trkpt lat="46.0270867" lon="10.5136766"><ele>1483.75</ele><time>2026-05-02T14:16:46.8Z</time></trkpt><trkpt lat="46.0269639" lon="10.5137441"><ele>1484.0</ele><time>2026-05-02T14:16:47.8Z</time></trkpt><trkpt lat="46.0268576" lon="10.5138479"><ele>1484.0</ele><time>2026-05-02T14:16:48.8Z</time></trkpt><trkpt lat="46.0267647" lon="10.513962"><ele>1484.0</ele><time>2026-05-02T14:16:49.8Z</time></trkpt><trkpt lat="46.0266663" lon="10.5140685"><ele>1484.0</ele><time>2026-05-02T14:16:50.8Z</time></trkpt><trkpt lat="46.0265445" lon="10.51415"><ele>1484.0</ele><time>2026-05-02T14:16:51.8Z</time></trkpt><trkpt lat="46.0264207" lon="10.5141774"><ele>1483.0</ele><time>2026-05-02T14:16:52.8Z</time></trkpt><trkpt lat="46.0263045" lon="10.5141271"><ele>1482.0</ele><time>2026-05-02T14:16:53.8Z</time></trkpt><trkpt lat="46.0261804" lon="10.5140609"><ele>1481.0</ele><time>2026-05-02T14:16:54.8Z</time></trkpt><trkpt lat="46.0260529" lon="10.5140008"><ele>1480.0</ele><time>2026-05-02T14:16:55.8Z</time></trkpt><trkpt lat="46.0259251" lon="10.5139453"><ele>1480.0</ele><time>2026-05-02T14:16:56.8Z</time></trkpt><trkpt lat="46.0257955" lon="10.5138916"><ele>1480.0</ele><time>2026-05-02T14:16:57.8Z</time></trkpt><trkpt lat="46.0256571" lon="10.5138336"><ele>1480.0</ele><time>2026-05-02T14:16:58.8Z</time></trkpt><trkpt lat="46.0255151" lon="10.5137773"><ele>1480.0</ele><time>2026-05-02T14:16:59.8Z</time></trkpt><trkpt lat="46.025375" lon="10.5137241"><ele>1474.5</ele><time>2026-05-02T14:17:00.8Z</time></trkpt><trkpt lat="46.0252338" lon="10.5136665"><ele>1469.0</ele><time>2026-05-02T14:17:01.8Z</time></trkpt><trkpt lat="46.0250957" lon="10.5136175"><ele>1463.5</ele><time>2026-05-02T14:17:02.8Z</time></trkpt><trkpt lat="46.0249589" lon="10.5135683"><ele>1458.0</ele><time>2026-05-02T14:17:03.8Z</time></trkpt><trkpt lat="46.0248213" lon="10.51354"><ele>1456.75</ele><time>2026-05-02T14:17:04.8Z</time></trkpt><trkpt lat="46.0246868" lon="10.5135443"><ele>1455.5</ele><time>2026-05-02T14:17:05.8Z</time></trkpt><trkpt lat="46.0245521" lon="10.5135713"><ele>1454.25</ele><time>2026-05-02T14:17:06.8Z</time></trkpt><trkpt lat="46.0244143" lon="10.5136017"><ele>1453.0</ele><time>2026-05-02T14:17:07.8Z</time></trkpt><trkpt lat="46.0242731" lon="10.5136192"><ele>1454.0</ele><time>2026-05-02T14:17:08.8Z</time></trkpt><trkpt lat="46.02413" lon="10.513618"><ele>1455.0</ele><time>2026-05-02T14:17:09.8Z</time></trkpt><trkpt lat="46.0239842" lon="10.5135818"><ele>1456.0</ele><time>2026-05-02T14:17:10.8Z</time></trkpt><trkpt lat="46.0238354" lon="10.5135251"><ele>1457.0</ele><time>2026-05-02T14:17:11.8Z</time></trkpt><trkpt lat="46.0236881" lon="10.5134642"><ele>1457.0</ele><time>2026-05-02T14:17:12.8Z</time></trkpt><trkpt lat="46.0235423" lon="10.5134066"><ele>1457.0</ele><time>2026-05-02T14:17:13.8Z</time></trkpt><trkpt lat="46.0233958" lon="10.5133509"><ele>1457.0</ele><time>2026-05-02T14:17:14.8Z</time></trkpt><trkpt lat="46.023249" lon="10.5132896"><ele>1452.25</ele><time>2026-05-02T14:17:15.8Z</time></trkpt><trkpt lat="46.0231057" lon="10.5132432"><ele>1447.5</ele><time>2026-05-02T14:17:16.8Z</time></trkpt><trkpt lat="46.0229597" lon="10.5132075"><ele>1442.75</ele><time>2026-05-02T14:17:17.8Z</time></trkpt><trkpt lat="46.0228167" lon="10.5131631"><ele>1438.0</ele><time>2026-05-02T14:17:18.8Z</time></trkpt><trkpt lat="46.0226739" lon="10.5131129"><ele>1438.0</ele><time>2026-05-02T14:17:19.8Z</time></trkpt><trkpt lat="46.0225333" lon="10.5130855"><ele>1438.0</ele><time>2026-05-02T14:17:20.8Z</time></trkpt><trkpt lat="46.0223949" lon="10.5130976"><ele>1438.0</ele><time>2026-05-02T14:17:21.8Z</time></trkpt><trkpt lat="46.022258" lon="10.5131387"><ele>1438.0</ele><time>2026-05-02T14:17:22.8Z</time></trkpt><trkpt lat="46.0221206" lon="10.5132057"><ele>1437.75</ele><time>2026-05-02T14:17:23.8Z</time></trkpt><trkpt lat="46.0219829" lon="10.5132679"><ele>1437.5</ele><time>2026-05-02T14:17:24.8Z</time></trkpt><trkpt lat="46.0218487" lon="10.5133293"><ele>1437.25</ele><time>2026-05-02T14:17:25.8Z</time></trkpt><trkpt lat="46.0217164" lon="10.5133879"><ele>1437.0</ele><time>2026-05-02T14:17:26.8Z</time></trkpt><trkpt lat="46.0215851" lon="10.5134345"><ele>1436.75</ele><time>2026-05-02T14:17:27.8Z</time></trkpt><trkpt lat="46.0214564" lon="10.5134698"><ele>1436.5</ele><time>2026-05-02T14:17:28.8Z</time></trkpt><trkpt lat="46.0213271" lon="10.5134867"><ele>1436.25</ele><time>2026-05-02T14:17:29.8Z</time></trkpt><trkpt lat="46.0211987" lon="10.5134745"><ele>1436.0</ele><time>2026-05-02T14:17:30.8Z</time></trkpt><trkpt lat="46.021068" lon="10.5134323"><ele>1436.0</ele><time>2026-05-02T14:17:31.8Z</time></trkpt><trkpt lat="46.0209366" lon="10.5133832"><ele>1436.0</ele><time>2026-05-02T14:17:32.8Z</time></trkpt><trkpt lat="46.0208051" lon="10.5133296"><ele>1436.0</ele><time>2026-05-02T14:17:33.8Z</time></trkpt><trkpt lat="46.0206747" lon="10.5132723"><ele>1436.0</ele><time>2026-05-02T14:17:34.8Z</time></trkpt><trkpt lat="46.0205402" lon="10.5132256"><ele>1432.6666666666667</ele><time>2026-05-02T14:17:35.801Z</time></trkpt><trkpt lat="46.0203984" lon="10.513184"><ele>1429.3333333333333</ele><time>2026-05-02T14:17:36.8Z</time></trkpt><trkpt lat="46.0202469" lon="10.5131532"><ele>1426.0</ele><time>2026-05-02T14:17:37.8Z</time></trkpt><trkpt lat="46.0200884" lon="10.5131343"><ele>1427.0</ele><time>2026-05-02T14:17:38.8Z</time></trkpt><trkpt lat="46.0199356" lon="10.5131191"><ele>1428.0</ele><time>2026-05-02T14:17:39.8Z</time></trkpt><trkpt lat="46.0197932" lon="10.5130858"><ele>1429.0</ele><time>2026-05-02T14:17:40.8Z</time></trkpt><trkpt lat="46.0196481" lon="10.5130292"><ele>1430.0</ele><time>2026-05-02T14:17:41.8Z</time></trkpt><trkpt lat="46.0195155" lon="10.5129545"><ele>1426.75</ele><time>2026-05-02T14:17:42.8Z</time></trkpt><trkpt lat="46.0193941" lon="10.5128734"><ele>1423.5</ele><time>2026-05-02T14:17:43.8Z</time></trkpt><trkpt lat="46.0192669" lon="10.5128079"><ele>1420.25</ele><time>2026-05-02T14:17:44.8Z</time></trkpt><trkpt lat="46.0191376" lon="10.5127723"><ele>1417.0</ele><time>2026-05-02T14:17:45.8Z</time></trkpt><trkpt lat="46.0189992" lon="10.5127761"><ele>1415.75</ele><time>2026-05-02T14:17:46.8Z</time></trkpt><trkpt lat="46.0188659" lon="10.5128064"><ele>1414.5</ele><time>2026-05-02T14:17:47.8Z</time></trkpt><trkpt lat="46.0187363" lon="10.5128429"><ele>1413.25</ele><time>2026-05-02T14:17:48.8Z</time></trkpt><trkpt lat="46.0186123" lon="10.5128795"><ele>1412.0</ele><time>2026-05-02T14:17:49.8Z</time></trkpt><trkpt lat="46.0184906" lon="10.5129038"><ele>1411.75</ele><time>2026-05-02T14:17:50.8Z</time></trkpt><trkpt lat="46.0183693" lon="10.5129172"><ele>1411.5</ele><time>2026-05-02T14:17:51.8Z</time></trkpt><trkpt lat="46.0182518" lon="10.5129042"><ele>1411.25</ele><time>2026-05-02T14:17:52.8Z</time></trkpt><trkpt lat="46.0181366" lon="10.5128611"><ele>1411.0</ele><time>2026-05-02T14:17:53.8Z</time></trkpt><trkpt lat="46.0180335" lon="10.5127835"><ele>1411.0</ele><time>2026-05-02T14:17:54.8Z</time></trkpt><trkpt lat="46.0179389" lon="10.5127095"><ele>1411.0</ele><time>2026-05-02T14:17:55.8Z</time></trkpt><trkpt lat="46.01784" lon="10.5126597"><ele>1411.0</ele><time>2026-05-02T14:17:56.8Z</time></trkpt><trkpt lat="46.0177458" lon="10.5126457"><ele>1411.0</ele><time>2026-05-02T14:17:57.8Z</time></trkpt><trkpt lat="46.017668" lon="10.5126881"><ele>1411.0</ele><time>2026-05-02T14:17:58.8Z</time></trkpt><trkpt lat="46.0175967" lon="10.5127852"><ele>1411.0</ele><time>2026-05-02T14:17:59.8Z</time></trkpt><trkpt lat="46.0175058" lon="10.5128785"><ele>1411.0</ele><time>2026-05-02T14:18:00.8Z</time></trkpt><trkpt lat="46.0174041" lon="10.5129652"><ele>1411.0</ele><time>2026-05-02T14:18:01.8Z</time></trkpt><trkpt lat="46.0172988" lon="10.5130484"><ele>1411.0</ele><time>2026-05-02T14:18:02.8Z</time></trkpt><trkpt lat="46.0172042" lon="10.5131546"><ele>1410.6666666666665</ele><time>2026-05-02T14:18:03.8Z</time></trkpt><trkpt lat="46.0171159" lon="10.513273"><ele>1410.3333333333333</ele><time>2026-05-02T14:18:04.8Z</time></trkpt><trkpt lat="46.0169554" lon="10.5134983"><ele>1410.0</ele><time>2026-05-02T14:18:06.8Z</time></trkpt><trkpt lat="46.0168559" lon="10.5135791"><ele>1410.0</ele><time>2026-05-02T14:18:07.8Z</time></trkpt><trkpt lat="46.0167455" lon="10.5136233"><ele>1410.0</ele><time>2026-05-02T14:18:08.8Z</time></trkpt><trkpt lat="46.0166446" lon="10.5136237"><ele>1410.0</ele><time>2026-05-02T14:18:09.8Z</time></trkpt><trkpt lat="46.016544" lon="10.5135691"><ele>1410.0</ele><time>2026-05-02T14:18:10.8Z</time></trkpt><trkpt lat="46.0164487" lon="10.5134484"><ele>1412.25</ele><time>2026-05-02T14:18:11.8Z</time></trkpt><trkpt lat="46.0163584" lon="10.5133245"><ele>1414.5</ele><time>2026-05-02T14:18:12.8Z</time></trkpt><trkpt lat="46.0162602" lon="10.5131979"><ele>1416.75</ele><time>2026-05-02T14:18:13.8Z</time></trkpt><trkpt lat="46.0161525" lon="10.5130913"><ele>1419.0</ele><time>2026-05-02T14:18:14.8Z</time></trkpt><trkpt lat="46.016041" lon="10.5130042"><ele>1419.0</ele><time>2026-05-02T14:18:15.8Z</time></trkpt><trkpt lat="46.0159219" lon="10.5129511"><ele>1419.0</ele><time>2026-05-02T14:18:16.8Z</time></trkpt><trkpt lat="46.0157933" lon="10.5129078"><ele>1419.0</ele><time>2026-05-02T14:18:17.8Z</time></trkpt><trkpt lat="46.0156464" lon="10.5128749"><ele>1419.0</ele><time>2026-05-02T14:18:18.8Z</time></trkpt><trkpt lat="46.0155113" lon="10.5128418"><ele>1406.75</ele><time>2026-05-02T14:18:19.8Z</time></trkpt><trkpt lat="46.0153731" lon="10.5128184"><ele>1394.5</ele><time>2026-05-02T14:18:20.8Z</time></trkpt><trkpt lat="46.0152418" lon="10.5128209"><ele>1382.25</ele><time>2026-05-02T14:18:21.8Z</time></trkpt><trkpt lat="46.0151078" lon="10.5128435"><ele>1370.0</ele><time>2026-05-02T14:18:22.8Z</time></trkpt><trkpt lat="46.014977" lon="10.512868"><ele>1369.0</ele><time>2026-05-02T14:18:23.8Z</time></trkpt><trkpt lat="46.0148536" lon="10.5128866"><ele>1368.0</ele><time>2026-05-02T14:18:24.8Z</time></trkpt><trkpt lat="46.0147383" lon="10.5128755"><ele>1367.0</ele><time>2026-05-02T14:18:25.8Z</time></trkpt><trkpt lat="46.0145702" lon="10.5127412"><ele>1366.0</ele><time>2026-05-02T14:18:27.8Z</time></trkpt><trkpt lat="46.0145511" lon="10.5126236"><ele>1366.0</ele><time>2026-05-02T14:18:28.8Z</time></trkpt><trkpt lat="46.0145743" lon="10.5124787"><ele>1366.0</ele><time>2026-05-02T14:18:29.8Z</time></trkpt><trkpt lat="46.0146062" lon="10.5123237"><ele>1366.0</ele><time>2026-05-02T14:18:30.8Z</time></trkpt><trkpt lat="46.0146142" lon="10.512191"><ele>1366.0</ele><time>2026-05-02T14:18:31.8Z</time></trkpt><trkpt lat="46.0146113" lon="10.5120755"><ele>1366.0</ele><time>2026-05-02T14:18:32.8Z</time></trkpt><trkpt lat="46.0145882" lon="10.511966"><ele>1366.8333333333333</ele><time>2026-05-02T14:18:33.8Z</time></trkpt><trkpt lat="46.0145519" lon="10.5118721"><ele>1367.6666666666665</ele><time>2026-05-02T14:18:34.8Z</time></trkpt><trkpt lat="46.0144998" lon="10.5118127"><ele>1368.5</ele><time>2026-05-02T14:18:35.8Z</time></trkpt><trkpt lat="46.0144283" lon="10.5117784"><ele>1369.3333333333333</ele><time>2026-05-02T14:18:36.8Z</time></trkpt><trkpt lat="46.0143351" lon="10.5117614"><ele>1370.1666666666667</ele><time>2026-05-02T14:18:37.8Z</time></trkpt><trkpt lat="46.0142254" lon="10.5117808"><ele>1371.0</ele><time>2026-05-02T14:18:38.8Z</time></trkpt><trkpt lat="46.0141132" lon="10.5118075"><ele>1371.0</ele><time>2026-05-02T14:18:39.8Z</time></trkpt><trkpt lat="46.0140063" lon="10.5118225"><ele>1371.0</ele><time>2026-05-02T14:18:40.8Z</time></trkpt><trkpt lat="46.0139065" lon="10.5118451"><ele>1371.0</ele><time>2026-05-02T14:18:41.8Z</time></trkpt><trkpt lat="46.0137978" lon="10.5118562"><ele>1371.0</ele><time>2026-05-02T14:18:42.8Z</time></trkpt><trkpt lat="46.0136859" lon="10.5118357"><ele>1371.0</ele><time>2026-05-02T14:18:43.8Z</time></trkpt><trkpt lat="46.0135773" lon="10.5117808"><ele>1371.0</ele><time>2026-05-02T14:18:44.8Z</time></trkpt><trkpt lat="46.0134813" lon="10.5116911"><ele>1371.0</ele><time>2026-05-02T14:18:45.8Z</time></trkpt><trkpt lat="46.0133888" lon="10.5115898"><ele>1371.0</ele><time>2026-05-02T14:18:46.8Z</time></trkpt><trkpt lat="46.0132943" lon="10.5114853"><ele>1371.0</ele><time>2026-05-02T14:18:47.8Z</time></trkpt><trkpt lat="46.0131892" lon="10.5113876"><ele>1371.75</ele><time>2026-05-02T14:18:48.8Z</time></trkpt><trkpt lat="46.0130744" lon="10.5113163"><ele>1372.5</ele><time>2026-05-02T14:18:49.8Z</time></trkpt><trkpt lat="46.0129557" lon="10.5112529"><ele>1373.25</ele><time>2026-05-02T14:18:50.8Z</time></trkpt><trkpt lat="46.0128336" lon="10.5111953"><ele>1374.0</ele><time>2026-05-02T14:18:51.8Z</time></trkpt><trkpt lat="46.0127121" lon="10.5111368"><ele>1374.0</ele><time>2026-05-02T14:18:52.8Z</time></trkpt><trkpt lat="46.0125826" lon="10.5110712"><ele>1374.0</ele><time>2026-05-02T14:18:53.8Z</time></trkpt><trkpt lat="46.0124585" lon="10.5110073"><ele>1374.0</ele><time>2026-05-02T14:18:54.8Z</time></trkpt><trkpt lat="46.0123308" lon="10.5109606"><ele>1374.0</ele><time>2026-05-02T14:18:55.8Z</time></trkpt><trkpt lat="46.0122058" lon="10.5109269"><ele>1370.25</ele><time>2026-05-02T14:18:56.8Z</time></trkpt><trkpt lat="46.0120667" lon="10.510911"><ele>1366.5</ele><time>2026-05-02T14:18:57.8Z</time></trkpt><trkpt lat="46.0119165" lon="10.5108882"><ele>1362.75</ele><time>2026-05-02T14:18:58.8Z</time></trkpt><trkpt lat="46.0117716" lon="10.510867"><ele>1359.0</ele><time>2026-05-02T14:18:59.8Z</time></trkpt><trkpt lat="46.0116294" lon="10.5108469"><ele>1353.5</ele><time>2026-05-02T14:19:00.8Z</time></trkpt><trkpt lat="46.0114832" lon="10.5108186"><ele>1348.0</ele><time>2026-05-02T14:19:01.8Z</time></trkpt><trkpt lat="46.0113422" lon="10.5107882"><ele>1342.5</ele><time>2026-05-02T14:19:02.8Z</time></trkpt><trkpt lat="46.0112074" lon="10.5107546"><ele>1337.0</ele><time>2026-05-02T14:19:03.8Z</time></trkpt><trkpt lat="46.0110729" lon="10.5107197"><ele>1337.0</ele><time>2026-05-02T14:19:04.8Z</time></trkpt><trkpt lat="46.0109479" lon="10.5106932"><ele>1337.0</ele><time>2026-05-02T14:19:05.8Z</time></trkpt><trkpt lat="46.010818" lon="10.5106788"><ele>1337.0</ele><time>2026-05-02T14:19:06.8Z</time></trkpt><trkpt lat="46.0106985" lon="10.5106413"><ele>1337.0</ele><time>2026-05-02T14:19:07.8Z</time></trkpt><trkpt lat="46.0105969" lon="10.5105939"><ele>1334.3333333333335</ele><time>2026-05-02T14:19:08.8Z</time></trkpt><trkpt lat="46.0105054" lon="10.5105478"><ele>1331.6666666666667</ele><time>2026-05-02T14:19:09.8Z</time></trkpt><trkpt lat="46.0104221" lon="10.510524"><ele>1329.0</ele><time>2026-05-02T14:19:10.8Z</time></trkpt><trkpt lat="46.0103489" lon="10.5105328"><ele>1326.3333333333333</ele><time>2026-05-02T14:19:11.8Z</time></trkpt><trkpt lat="46.0102866" lon="10.5105659"><ele>1323.6666666666665</ele><time>2026-05-02T14:19:12.8Z</time></trkpt><trkpt lat="46.0102548" lon="10.510683"><ele>1321.0</ele><time>2026-05-02T14:19:14.8Z</time></trkpt><trkpt lat="46.0103214" lon="10.5107397"><ele>1321.0</ele><time>2026-05-02T14:19:15.8Z</time></trkpt><trkpt lat="46.0104455" lon="10.5107957"><ele>1321.0</ele><time>2026-05-02T14:19:16.8Z</time></trkpt><trkpt lat="46.0106112" lon="10.5108439"><ele>1321.0</ele><time>2026-05-02T14:19:17.8Z</time></trkpt><trkpt lat="46.0107801" lon="10.5109113"><ele>1326.3333333333333</ele><time>2026-05-02T14:19:18.801Z</time></trkpt><trkpt lat="46.0109384" lon="10.5110076"><ele>1331.6666666666667</ele><time>2026-05-02T14:19:19.8Z</time></trkpt><trkpt lat="46.0110837" lon="10.5111289"><ele>1337.0</ele><time>2026-05-02T14:19:20.8Z</time></trkpt><trkpt lat="46.0112182" lon="10.511255"><ele>1334.25</ele><time>2026-05-02T14:19:21.8Z</time></trkpt><trkpt lat="46.0113335" lon="10.511371"><ele>1331.5</ele><time>2026-05-02T14:19:22.8Z</time></trkpt><trkpt lat="46.0114394" lon="10.5114705"><ele>1328.75</ele><time>2026-05-02T14:19:23.8Z</time></trkpt><trkpt lat="46.0115491" lon="10.5115473"><ele>1326.0</ele><time>2026-05-02T14:19:24.8Z</time></trkpt><trkpt lat="46.0116827" lon="10.5115865"><ele>1326.0</ele><time>2026-05-02T14:19:25.8Z</time></trkpt><trkpt lat="46.0118061" lon="10.5116095"><ele>1326.0</ele><time>2026-05-02T14:19:26.8Z</time></trkpt><trkpt lat="46.0119127" lon="10.5116279"><ele>1326.0</ele><time>2026-05-02T14:19:27.8Z</time></trkpt><trkpt lat="46.0120216" lon="10.5116496"><ele>1326.0</ele><time>2026-05-02T14:19:28.8Z</time></trkpt><trkpt lat="46.0121217" lon="10.5116912"><ele>1326.0</ele><time>2026-05-02T14:19:29.8Z</time></trkpt><trkpt lat="46.012193" lon="10.5117687"><ele>1326.0</ele><time>2026-05-02T14:19:30.8Z</time></trkpt><trkpt lat="46.0122481" lon="10.5118474"><ele>1326.0</ele><time>2026-05-02T14:19:31.8Z</time></trkpt><trkpt lat="46.012243" lon="10.5119856"><ele>1326.0</ele><time>2026-05-02T14:19:33.8Z</time></trkpt><trkpt lat="46.0121025" lon="10.5119888"><ele>1326.0</ele><time>2026-05-02T14:19:35.8Z</time></trkpt><trkpt lat="46.011988" lon="10.5119466"><ele>1326.0</ele><time>2026-05-02T14:19:36.8Z</time></trkpt><trkpt lat="46.0118302" lon="10.5118723"><ele>1319.0</ele><time>2026-05-02T14:19:37.8Z</time></trkpt><trkpt lat="46.0116426" lon="10.5117808"><ele>1312.0</ele><time>2026-05-02T14:19:38.8Z</time></trkpt><trkpt lat="46.011451" lon="10.5117109"><ele>1305.0</ele><time>2026-05-02T14:19:39.8Z</time></trkpt><trkpt lat="46.0112658" lon="10.5116565"><ele>1305.0</ele><time>2026-05-02T14:19:40.8Z</time></trkpt><trkpt lat="46.0110864" lon="10.5116011"><ele>1305.0</ele><time>2026-05-02T14:19:41.8Z</time></trkpt><trkpt lat="46.0109146" lon="10.5115563"><ele>1305.0</ele><time>2026-05-02T14:19:42.8Z</time></trkpt><trkpt lat="46.0107457" lon="10.511511"><ele>1298.6666666666667</ele><time>2026-05-02T14:19:43.8Z</time></trkpt><trkpt lat="46.010583" lon="10.5114759"><ele>1292.3333333333335</ele><time>2026-05-02T14:19:44.8Z</time></trkpt><trkpt lat="46.0104232" lon="10.5114332"><ele>1286.0</ele><time>2026-05-02T14:19:45.8Z</time></trkpt><trkpt lat="46.0102633" lon="10.5114006"><ele>1286.0</ele><time>2026-05-02T14:19:46.8Z</time></trkpt><trkpt lat="46.0100966" lon="10.511369"><ele>1286.0</ele><time>2026-05-02T14:19:47.8Z</time></trkpt><trkpt lat="46.0099345" lon="10.5113296"><ele>1286.0</ele><time>2026-05-02T14:19:48.8Z</time></trkpt><trkpt lat="46.0097776" lon="10.5112804"><ele>1291.6666666666667</ele><time>2026-05-02T14:19:49.8Z</time></trkpt><trkpt lat="46.0096258" lon="10.5112269"><ele>1297.3333333333333</ele><time>2026-05-02T14:19:50.8Z</time></trkpt><trkpt lat="46.0094792" lon="10.5111685"><ele>1303.0</ele><time>2026-05-02T14:19:51.8Z</time></trkpt><trkpt lat="46.0093391" lon="10.5111084"><ele>1303.0</ele><time>2026-05-02T14:19:52.8Z</time></trkpt><trkpt lat="46.0092142" lon="10.5110537"><ele>1303.0</ele><time>2026-05-02T14:19:53.8Z</time></trkpt><trkpt lat="46.0091004" lon="10.5110153"><ele>1303.0</ele><time>2026-05-02T14:19:54.8Z</time></trkpt><trkpt lat="46.0089956" lon="10.511019"><ele>1303.0</ele><time>2026-05-02T14:19:55.8Z</time></trkpt><trkpt lat="46.0089094" lon="10.5110586"><ele>1303.0</ele><time>2026-05-02T14:19:56.8Z</time></trkpt><trkpt lat="46.0088473" lon="10.5111301"><ele>1309.75</ele><time>2026-05-02T14:19:57.8Z</time></trkpt><trkpt lat="46.0088097" lon="10.5112111"><ele>1316.5</ele><time>2026-05-02T14:19:58.8Z</time></trkpt><trkpt lat="46.0088344" lon="10.5113575"><ele>1323.25</ele><time>2026-05-02T14:20:00.8Z</time></trkpt><trkpt lat="46.0089322" lon="10.5114541"><ele>1330.0</ele><time>2026-05-02T14:20:01.8Z</time></trkpt><trkpt lat="46.0090776" lon="10.5115545"><ele>1310.6666666666665</ele><time>2026-05-02T14:20:02.8Z</time></trkpt><trkpt lat="46.0092802" lon="10.5116335"><ele>1291.3333333333333</ele><time>2026-05-02T14:20:03.8Z</time></trkpt><trkpt lat="46.0094912" lon="10.511709"><ele>1272.0</ele><time>2026-05-02T14:20:04.8Z</time></trkpt><trkpt lat="46.0096596" lon="10.511777"><ele>1272.0</ele><time>2026-05-02T14:20:05.8Z</time></trkpt><trkpt lat="46.0098017" lon="10.511811"><ele>1272.0</ele><time>2026-05-02T14:20:06.8Z</time></trkpt><trkpt lat="46.009932" lon="10.5118021"><ele>1272.0</ele><time>2026-05-02T14:20:07.8Z</time></trkpt><trkpt lat="46.0100438" lon="10.5117874"><ele>1272.0</ele><time>2026-05-02T14:20:08.8Z</time></trkpt><trkpt lat="46.010151" lon="10.5118011"><ele>1272.0</ele><time>2026-05-02T14:20:09.8Z</time></trkpt><trkpt lat="46.0102484" lon="10.5119201"><ele>1272.0</ele><time>2026-05-02T14:20:11.8Z</time></trkpt><trkpt lat="46.0102091" lon="10.5120509"><ele>1272.0</ele><time>2026-05-02T14:20:13.8Z</time></trkpt><trkpt lat="46.0101357" lon="10.5120917"><ele>1272.0</ele><time>2026-05-02T14:20:14.8Z</time></trkpt><trkpt lat="46.0100109" lon="10.5120987"><ele>1272.0</ele><time>2026-05-02T14:20:15.8Z</time></trkpt><trkpt lat="46.0098575" lon="10.5120648"><ele>1272.0</ele><time>2026-05-02T14:20:16.8Z</time></trkpt><trkpt lat="46.0096706" lon="10.5120186"><ele>1272.0</ele><time>2026-05-02T14:20:17.8Z</time></trkpt><trkpt lat="46.0094824" lon="10.5119901"><ele>1272.0</ele><time>2026-05-02T14:20:18.8Z</time></trkpt><trkpt lat="46.0093061" lon="10.5119912"><ele>1269.25</ele><time>2026-05-02T14:20:19.8Z</time></trkpt><trkpt lat="46.0091546" lon="10.5119969"><ele>1266.5</ele><time>2026-05-02T14:20:20.8Z</time></trkpt><trkpt lat="46.009023" lon="10.5120123"><ele>1263.75</ele><time>2026-05-02T14:20:21.8Z</time></trkpt><trkpt lat="46.0088965" lon="10.5120048"><ele>1261.0</ele><time>2026-05-02T14:20:22.8Z</time></trkpt><trkpt lat="46.0087866" lon="10.5119576"><ele>1261.0</ele><time>2026-05-02T14:20:23.8Z</time></trkpt><trkpt lat="46.0086941" lon="10.5118736"><ele>1261.0</ele><time>2026-05-02T14:20:24.8Z</time></trkpt><trkpt lat="46.0086256" lon="10.5117702"><ele>1261.0</ele><time>2026-05-02T14:20:25.8Z</time></trkpt><trkpt lat="46.0085582" lon="10.511673"><ele>1261.0</ele><time>2026-05-02T14:20:26.8Z</time></trkpt><trkpt lat="46.008489" lon="10.5115851"><ele>1261.0</ele><time>2026-05-02T14:20:27.8Z</time></trkpt><trkpt lat="46.0084074" lon="10.5115273"><ele>1261.0</ele><time>2026-05-02T14:20:28.8Z</time></trkpt><trkpt lat="46.0083333" lon="10.5114948"><ele>1261.0</ele><time>2026-05-02T14:20:29.8Z</time></trkpt><trkpt lat="46.0082214" lon="10.5116302"><ele>1261.0</ele><time>2026-05-02T14:20:32.8Z</time></trkpt><trkpt lat="46.0082508" lon="10.5117201"><ele>1261.0</ele><time>2026-05-02T14:20:33.8Z</time></trkpt><trkpt lat="46.0083229" lon="10.5118156"><ele>1261.0</ele><time>2026-05-02T14:20:34.8Z</time></trkpt><trkpt lat="46.0084348" lon="10.511935"><ele>1261.0</ele><time>2026-05-02T14:20:35.8Z</time></trkpt><trkpt lat="46.0085318" lon="10.5120348"><ele>1261.0</ele><time>2026-05-02T14:20:36.8Z</time></trkpt><trkpt lat="46.0086131" lon="10.5121308"><ele>1261.0</ele><time>2026-05-02T14:20:37.8Z</time></trkpt><trkpt lat="46.0086812" lon="10.5122213"><ele>1261.0</ele><time>2026-05-02T14:20:38.8Z</time></trkpt><trkpt lat="46.0087453" lon="10.5123172"><ele>1261.0</ele><time>2026-05-02T14:20:39.8Z</time></trkpt><trkpt lat="46.008812" lon="10.5124174"><ele>1258.6</ele><time>2026-05-02T14:20:40.8Z</time></trkpt><trkpt lat="46.0088937" lon="10.5124984"><ele>1256.1999999999998</ele><time>2026-05-02T14:20:41.8Z</time></trkpt><trkpt lat="46.0089771" lon="10.5125477"><ele>1253.8000000000002</ele><time>2026-05-02T14:20:42.8Z</time></trkpt><trkpt lat="46.0090635" lon="10.5125806"><ele>1251.4</ele><time>2026-05-02T14:20:43.8Z</time></trkpt><trkpt lat="46.0091536" lon="10.5126078"><ele>1249.0</ele><time>2026-05-02T14:20:44.8Z</time></trkpt><trkpt lat="46.0092381" lon="10.5126357"><ele>1249.0</ele><time>2026-05-02T14:20:45.8Z</time></trkpt><trkpt lat="46.0093217" lon="10.5126695"><ele>1249.0</ele><time>2026-05-02T14:20:46.8Z</time></trkpt><trkpt lat="46.0094023" lon="10.5126969"><ele>1249.0</ele><time>2026-05-02T14:20:47.8Z</time></trkpt><trkpt lat="46.0094758" lon="10.5127258"><ele>1249.0</ele><time>2026-05-02T14:20:48.8Z</time></trkpt><trkpt lat="46.0095384" lon="10.512748"><ele>1249.0</ele><time>2026-05-02T14:20:49.8Z</time></trkpt><trkpt lat="46.0096201" lon="10.5128085"><ele>1249.0</ele><time>2026-05-02T14:20:51.8Z</time></trkpt><trkpt lat="46.0095531" lon="10.5128817"><ele>1249.0</ele><time>2026-05-02T14:20:54.8Z</time></trkpt><trkpt lat="46.0094646" lon="10.5128635"><ele>1249.0</ele><time>2026-05-02T14:20:55.8Z</time></trkpt><trkpt lat="46.0093554" lon="10.5128332"><ele>1249.0</ele><time>2026-05-02T14:20:56.8Z</time></trkpt><trkpt lat="46.0092476" lon="10.5128246"><ele>1249.0</ele><time>2026-05-02T14:20:57.8Z</time></trkpt><trkpt lat="46.0091477" lon="10.5128515"><ele>1249.0</ele><time>2026-05-02T14:20:58.8Z</time></trkpt><trkpt lat="46.0090502" lon="10.5128924"><ele>1246.0</ele><time>2026-05-02T14:20:59.8Z</time></trkpt><trkpt lat="46.0089576" lon="10.5129373"><ele>1243.0</ele><time>2026-05-02T14:21:00.8Z</time></trkpt><trkpt lat="46.0088728" lon="10.5129661"><ele>1240.0</ele><time>2026-05-02T14:21:01.8Z</time></trkpt><trkpt lat="46.0087872" lon="10.5129652"><ele>1237.0</ele><time>2026-05-02T14:21:02.8Z</time></trkpt><trkpt lat="46.0086217" lon="10.5129107"><ele>1234.0</ele><time>2026-05-02T14:21:04.8Z</time></trkpt><trkpt lat="46.0085542" lon="10.5128664"><ele>1234.0</ele><time>2026-05-02T14:21:05.8Z</time></trkpt><trkpt lat="46.0084998" lon="10.5127991"><ele>1234.0</ele><time>2026-05-02T14:21:06.8Z</time></trkpt><trkpt lat="46.0084569" lon="10.5127173"><ele>1234.0</ele><time>2026-05-02T14:21:07.8Z</time></trkpt><trkpt lat="46.0083793" lon="10.512592"><ele>1234.0</ele><time>2026-05-02T14:21:09.8Z</time></trkpt><trkpt lat="46.0082954" lon="10.5125038"><ele>1234.0</ele><time>2026-05-02T14:21:11.8Z</time></trkpt><trkpt lat="46.0082366" lon="10.5124506"><ele>1234.0</ele><time>2026-05-02T14:21:13.8Z</time></trkpt><trkpt lat="46.0081654" lon="10.5124472"><ele>1234.0</ele><time>2026-05-02T14:21:16.8Z</time></trkpt><trkpt lat="46.0082067" lon="10.51255"><ele>1234.0</ele><time>2026-05-02T14:21:19.8Z</time></trkpt><trkpt lat="46.0082945" lon="10.5125977"><ele>1234.0</ele><time>2026-05-02T14:21:21.8Z</time></trkpt><trkpt lat="46.0084551" lon="10.5127112"><ele>1234.0</ele><time>2026-05-02T14:21:24.8Z</time></trkpt><trkpt lat="46.008517" lon="10.5127731"><ele>1234.0</ele><time>2026-05-02T14:21:25.8Z</time></trkpt><trkpt lat="46.0085821" lon="10.5128388"><ele>1234.0</ele><time>2026-05-02T14:21:26.8Z</time></trkpt><trkpt lat="46.0086515" lon="10.5129045"><ele>1234.0</ele><time>2026-05-02T14:21:27.8Z</time></trkpt><trkpt lat="46.0087234" lon="10.5129561"><ele>1234.0</ele><time>2026-05-02T14:21:28.8Z</time></trkpt><trkpt lat="46.0088026" lon="10.5129789"><ele>1234.0</ele><time>2026-05-02T14:21:29.8Z</time></trkpt><trkpt lat="46.008882" lon="10.5129742"><ele>1234.0</ele><time>2026-05-02T14:21:30.8Z</time></trkpt><trkpt lat="46.0089596" lon="10.5129541"><ele>1234.0</ele><time>2026-05-02T14:21:31.8Z</time></trkpt><trkpt lat="46.0090273" lon="10.5129171"><ele>1234.0</ele><time>2026-05-02T14:21:32.8Z</time></trkpt><trkpt lat="46.0090894" lon="10.5128561"><ele>1234.0</ele><time>2026-05-02T14:21:33.8Z</time></trkpt><trkpt lat="46.0092279" lon="10.5127473"><ele>1234.0</ele><time>2026-05-02T14:21:35.8Z</time></trkpt><trkpt lat="46.0092985" lon="10.5127328"><ele>1234.0</ele><time>2026-05-02T14:21:36.8Z</time></trkpt><trkpt lat="46.0093752" lon="10.5127469"><ele>1234.0</ele><time>2026-05-02T14:21:37.8Z</time></trkpt><trkpt lat="46.0094432" lon="10.5127702"><ele>1233.142857142857</ele><time>2026-05-02T14:21:38.8Z</time></trkpt><trkpt lat="46.0095074" lon="10.5127923"><ele>1232.2857142857142</ele><time>2026-05-02T14:21:39.8Z</time></trkpt><trkpt lat="46.0095705" lon="10.5128003"><ele>1231.4285714285713</ele><time>2026-05-02T14:21:40.8Z</time></trkpt><trkpt lat="46.0096376" lon="10.5127951"><ele>1230.5714285714284</ele><time>2026-05-02T14:21:41.8Z</time></trkpt><trkpt lat="46.0097099" lon="10.5128022"><ele>1229.7142857142858</ele><time>2026-05-02T14:21:42.8Z</time></trkpt><trkpt lat="46.0097898" lon="10.5128432"><ele>1228.8571428571427</ele><time>2026-05-02T14:21:43.8Z</time></trkpt><trkpt lat="46.0098613" lon="10.5129234"><ele>1228.0</ele><time>2026-05-02T14:21:44.8Z</time></trkpt><trkpt lat="46.0099261" lon="10.5130336"><ele>1228.0</ele><time>2026-05-02T14:21:45.8Z</time></trkpt><trkpt lat="46.009988" lon="10.5131544"><ele>1228.0</ele><time>2026-05-02T14:21:46.8Z</time></trkpt><trkpt lat="46.0101129" lon="10.513415"><ele>1228.0</ele><time>2026-05-02T14:21:48.8Z</time></trkpt><trkpt lat="46.010173" lon="10.5135397"><ele>1228.0</ele><time>2026-05-02T14:21:49.8Z</time></trkpt><trkpt lat="46.0102208" lon="10.5136566"><ele>1226.6666666666665</ele><time>2026-05-02T14:21:50.8Z</time></trkpt><trkpt lat="46.0102481" lon="10.5137739"><ele>1225.3333333333333</ele><time>2026-05-02T14:21:51.8Z</time></trkpt><trkpt lat="46.01025" lon="10.5138975"><ele>1224.0</ele><time>2026-05-02T14:21:52.8Z</time></trkpt><trkpt lat="46.0102225" lon="10.514005"><ele>1222.6666666666667</ele><time>2026-05-02T14:21:53.8Z</time></trkpt><trkpt lat="46.0101656" lon="10.5140764"><ele>1221.3333333333335</ele><time>2026-05-02T14:21:54.8Z</time></trkpt><trkpt lat="46.0100654" lon="10.514117"><ele>1220.0</ele><time>2026-05-02T14:21:55.8Z</time></trkpt><trkpt lat="46.0099366" lon="10.5141261"><ele>1220.0</ele><time>2026-05-02T14:21:56.8Z</time></trkpt><trkpt lat="46.0098025" lon="10.5141547"><ele>1220.0</ele><time>2026-05-02T14:21:57.8Z</time></trkpt><trkpt lat="46.0096818" lon="10.5142074"><ele>1220.0</ele><time>2026-05-02T14:21:58.8Z</time></trkpt><trkpt lat="46.0095853" lon="10.514295"><ele>1220.0</ele><time>2026-05-02T14:21:59.8Z</time></trkpt><trkpt lat="46.0095078" lon="10.5144372"><ele>1221.75</ele><time>2026-05-02T14:22:00.8Z</time></trkpt><trkpt lat="46.0094282" lon="10.5146128"><ele>1223.5</ele><time>2026-05-02T14:22:01.8Z</time></trkpt><trkpt lat="46.0093503" lon="10.5148003"><ele>1225.25</ele><time>2026-05-02T14:22:02.8Z</time></trkpt><trkpt lat="46.0092734" lon="10.5149814"><ele>1227.0</ele><time>2026-05-02T14:22:03.8Z</time></trkpt><trkpt lat="46.0091987" lon="10.5151617"><ele>1223.5</ele><time>2026-05-02T14:22:04.8Z</time></trkpt><trkpt lat="46.0091261" lon="10.5153401"><ele>1220.0</ele><time>2026-05-02T14:22:05.8Z</time></trkpt><trkpt lat="46.0090721" lon="10.5155107"><ele>1216.5</ele><time>2026-05-02T14:22:06.8Z</time></trkpt><trkpt lat="46.0090364" lon="10.5156874"><ele>1213.0</ele><time>2026-05-02T14:22:07.8Z</time></trkpt><trkpt lat="46.0090153" lon="10.5158732"><ele>1213.0</ele><time>2026-05-02T14:22:08.8Z</time></trkpt><trkpt lat="46.0090093" lon="10.5160599"><ele>1213.0</ele><time>2026-05-02T14:22:09.8Z</time></trkpt><trkpt lat="46.0089774" lon="10.5162319"><ele>1213.0</ele><time>2026-05-02T14:22:10.8Z</time></trkpt><trkpt lat="46.0089266" lon="10.5163974"><ele>1213.0</ele><time>2026-05-02T14:22:11.8Z</time></trkpt><trkpt lat="46.008857" lon="10.5165547"><ele>1221.75</ele><time>2026-05-02T14:22:12.8Z</time></trkpt><trkpt lat="46.0087857" lon="10.5167097"><ele>1230.5</ele><time>2026-05-02T14:22:13.8Z</time></trkpt><trkpt lat="46.0087069" lon="10.516858"><ele>1239.25</ele><time>2026-05-02T14:22:14.8Z</time></trkpt><trkpt lat="46.0086198" lon="10.5170005"><ele>1248.0</ele><time>2026-05-02T14:22:15.8Z</time></trkpt><trkpt lat="46.0085443" lon="10.5171528"><ele>1252.5</ele><time>2026-05-02T14:22:16.8Z</time></trkpt><trkpt lat="46.008471" lon="10.5173079"><ele>1257.0</ele><time>2026-05-02T14:22:17.8Z</time></trkpt><trkpt lat="46.0081893" lon="10.5177611"><ele>1257.0</ele><time>2026-05-02T14:22:20.813Z</time></trkpt><trkpt lat="46.0079992" lon="10.5175892"><ele>1257.0</ele><time>2026-05-02T14:22:21.813Z</time></trkpt><trkpt lat="46.0076949" lon="10.5174627"><ele>1254.3333333333333</ele><time>2026-05-02T14:22:22.813Z</time></trkpt><trkpt lat="46.0074824" lon="10.5174359"><ele>1251.6666666666665</ele><time>2026-05-02T14:22:23.813Z</time></trkpt><trkpt lat="46.0073115" lon="10.5174419"><ele>1249.0</ele><time>2026-05-02T14:22:24.813Z</time></trkpt><trkpt lat="46.0071402" lon="10.5173853"><ele>1249.0</ele><time>2026-05-02T14:22:25.813Z</time></trkpt><trkpt lat="46.006984" lon="10.5173483"><ele>1249.0</ele><time>2026-05-02T14:22:26.813Z</time></trkpt><trkpt lat="46.0068371" lon="10.5173176"><ele>1249.0</ele><time>2026-05-02T14:22:27.813Z</time></trkpt><trkpt lat="46.0066915" lon="10.5172905"><ele>1223.0</ele><time>2026-05-02T14:22:28.813Z</time></trkpt><trkpt lat="46.0053935" lon="10.5176949"><ele>1223.0</ele><time>2026-05-02T14:22:41.815Z</time></trkpt><trkpt lat="46.0052756" lon="10.5177469"><ele>1223.0</ele><time>2026-05-02T14:22:42.815Z</time></trkpt><trkpt lat="46.0051687" lon="10.5177939"><ele>1223.0</ele><time>2026-05-02T14:22:43.815Z</time></trkpt><trkpt lat="46.0050684" lon="10.5178534"><ele>1223.0</ele><time>2026-05-02T14:22:44.815Z</time></trkpt><trkpt lat="46.0049569" lon="10.5178915"><ele>1224.3333333333335</ele><time>2026-05-02T14:22:45.815Z</time></trkpt><trkpt lat="46.0048044" lon="10.5180968"><ele>1225.6666666666667</ele><time>2026-05-02T14:22:46.815Z</time></trkpt><trkpt lat="46.0046751" lon="10.5182337"><ele>1227.0</ele><time>2026-05-02T14:22:47.815Z</time></trkpt><trkpt lat="46.0045515" lon="10.5183396"><ele>1227.0</ele><time>2026-05-02T14:22:48.815Z</time></trkpt><trkpt lat="46.0044319" lon="10.5184352"><ele>1227.0</ele><time>2026-05-02T14:22:49.815Z</time></trkpt><trkpt lat="46.0043196" lon="10.5185281"><ele>1227.0</ele><time>2026-05-02T14:22:50.815Z</time></trkpt><trkpt lat="46.0042104" lon="10.518619"><ele>1227.0</ele><time>2026-05-02T14:22:51.815Z</time></trkpt><trkpt lat="46.0040995" lon="10.5186919"><ele>1232.0</ele><time>2026-05-02T14:22:52.815Z</time></trkpt><trkpt lat="46.0039931" lon="10.5187532"><ele>1237.0</ele><time>2026-05-02T14:22:53.815Z</time></trkpt><trkpt lat="46.0038817" lon="10.5188014"><ele>1242.0</ele><time>2026-05-02T14:22:54.815Z</time></trkpt><trkpt lat="46.0037714" lon="10.5188659"><ele>1247.0</ele><time>2026-05-02T14:22:55.815Z</time></trkpt><trkpt lat="46.0036603" lon="10.5189445"><ele>1247.0</ele><time>2026-05-02T14:22:56.815Z</time></trkpt><trkpt lat="46.0035495" lon="10.5190215"><ele>1247.0</ele><time>2026-05-02T14:22:57.815Z</time></trkpt><trkpt lat="46.0031955" lon="10.5191734"><ele>1243.6666666666667</ele><time>2026-05-02T14:23:01.805Z</time></trkpt><trkpt lat="46.0030725" lon="10.5190023"><ele>1240.3333333333333</ele><time>2026-05-02T14:23:02.805Z</time></trkpt><trkpt lat="46.0028661" lon="10.5189085"><ele>1237.0</ele><time>2026-05-02T14:23:03.805Z</time></trkpt><trkpt lat="46.0027273" lon="10.5188442"><ele>1237.0</ele><time>2026-05-02T14:23:04.805Z</time></trkpt><trkpt lat="46.0025934" lon="10.5188163"><ele>1237.0</ele><time>2026-05-02T14:23:05.805Z</time></trkpt><trkpt lat="46.0024647" lon="10.5188084"><ele>1237.0</ele><time>2026-05-02T14:23:06.805Z</time></trkpt><trkpt lat="46.0023462" lon="10.5188595"><ele>1237.0</ele><time>2026-05-02T14:23:07.805Z</time></trkpt><trkpt lat="46.0022305" lon="10.5189353"><ele>1231.0</ele><time>2026-05-02T14:23:08.805Z</time></trkpt><trkpt lat="46.0021269" lon="10.5190581"><ele>1225.0</ele><time>2026-05-02T14:23:09.805Z</time></trkpt><trkpt lat="46.002032" lon="10.5192074"><ele>1219.0</ele><time>2026-05-02T14:23:10.805Z</time></trkpt><trkpt lat="46.0019337" lon="10.5193655"><ele>1213.0</ele><time>2026-05-02T14:23:11.805Z</time></trkpt><trkpt lat="46.0018384" lon="10.5195122"><ele>1217.25</ele><time>2026-05-02T14:23:12.805Z</time></trkpt><trkpt lat="46.0017462" lon="10.5196545"><ele>1221.5</ele><time>2026-05-02T14:23:13.805Z</time></trkpt><trkpt lat="46.0016462" lon="10.5197927"><ele>1225.75</ele><time>2026-05-02T14:23:14.805Z</time></trkpt><trkpt lat="46.0015337" lon="10.5198947"><ele>1230.0</ele><time>2026-05-02T14:23:15.805Z</time></trkpt><trkpt lat="46.0014175" lon="10.5199222"><ele>1230.0</ele><time>2026-05-02T14:23:16.805Z</time></trkpt><trkpt lat="46.0012868" lon="10.5198861"><ele>1230.0</ele><time>2026-05-02T14:23:17.805Z</time></trkpt><trkpt lat="46.0011538" lon="10.5198868"><ele>1230.0</ele><time>2026-05-02T14:23:18.805Z</time></trkpt><trkpt lat="46.0010197" lon="10.5199269"><ele>1230.0</ele><time>2026-05-02T14:23:19.805Z</time></trkpt><trkpt lat="46.0008936" lon="10.5199937"><ele>1226.75</ele><time>2026-05-02T14:23:20.805Z</time></trkpt><trkpt lat="46.0007773" lon="10.5200859"><ele>1223.5</ele><time>2026-05-02T14:23:21.805Z</time></trkpt><trkpt lat="46.000661" lon="10.520192"><ele>1220.25</ele><time>2026-05-02T14:23:22.805Z</time></trkpt><trkpt lat="46.0005445" lon="10.5203069"><ele>1217.0</ele><time>2026-05-02T14:23:23.805Z</time></trkpt><trkpt lat="46.0004247" lon="10.5204136"><ele>1228.0</ele><time>2026-05-02T14:23:24.805Z</time></trkpt><trkpt lat="46.0003165" lon="10.520512"><ele>1239.0</ele><time>2026-05-02T14:23:25.805Z</time></trkpt><trkpt lat="46.0002161" lon="10.5206003"><ele>1250.0</ele><time>2026-05-02T14:23:26.805Z</time></trkpt><trkpt lat="46.0001115" lon="10.5206896"><ele>1261.0</ele><time>2026-05-02T14:23:27.805Z</time></trkpt><trkpt lat="46.0000093" lon="10.5207841"><ele>1261.0</ele><time>2026-05-02T14:23:28.805Z</time></trkpt><trkpt lat="45.9999065" lon="10.5208803"><ele>1261.0</ele><time>2026-05-02T14:23:29.806Z</time></trkpt><trkpt lat="45.9997996" lon="10.5209768"><ele>1261.0</ele><time>2026-05-02T14:23:30.805Z</time></trkpt><trkpt lat="45.9984977" lon="10.522111"><ele>1287.75</ele><time>2026-05-02T14:23:44.805Z</time></trkpt><trkpt lat="45.9985339" lon="10.5222669"><ele>1314.5</ele><time>2026-05-02T14:23:46.805Z</time></trkpt><trkpt lat="45.9985495" lon="10.5224446"><ele>1341.25</ele><time>2026-05-02T14:23:47.805Z</time></trkpt><trkpt lat="45.9985162" lon="10.5226148"><ele>1368.0</ele><time>2026-05-02T14:23:48.805Z</time></trkpt><trkpt lat="45.9984518" lon="10.522755"><ele>1368.0</ele><time>2026-05-02T14:23:49.805Z</time></trkpt><trkpt lat="45.9983837" lon="10.5228692"><ele>1368.0</ele><time>2026-05-02T14:23:50.805Z</time></trkpt><trkpt lat="45.9983101" lon="10.5229725"><ele>1368.0</ele><time>2026-05-02T14:23:51.804Z</time></trkpt><trkpt lat="45.9982421" lon="10.523095"><ele>1368.0</ele><time>2026-05-02T14:23:52.804Z</time></trkpt><trkpt lat="45.9981908" lon="10.5232454"><ele>1368.0</ele><time>2026-05-02T14:23:53.804Z</time></trkpt><trkpt lat="45.9981508" lon="10.5234053"><ele>1371.0</ele><time>2026-05-02T14:23:54.804Z</time></trkpt><trkpt lat="45.9981198" lon="10.5235906"><ele>1374.0</ele><time>2026-05-02T14:23:55.804Z</time></trkpt><trkpt lat="45.998097" lon="10.5237937"><ele>1377.0</ele><time>2026-05-02T14:23:56.804Z</time></trkpt><trkpt lat="45.9980705" lon="10.5240014"><ele>1380.0</ele><time>2026-05-02T14:23:57.804Z</time></trkpt><trkpt lat="45.9980165" lon="10.5241961"><ele>1395.6666666666667</ele><time>2026-05-02T14:23:58.804Z</time></trkpt><trkpt lat="45.9979017" lon="10.524566"><ele>1411.3333333333335</ele><time>2026-05-02T14:24:00.804Z</time></trkpt><trkpt lat="45.9978581" lon="10.5247521"><ele>1427.0</ele><time>2026-05-02T14:24:01.804Z</time></trkpt><trkpt lat="45.9978389" lon="10.5249399"><ele>1427.0</ele><time>2026-05-02T14:24:02.804Z</time></trkpt><trkpt lat="45.9978188" lon="10.5251159"><ele>1427.0</ele><time>2026-05-02T14:24:03.804Z</time></trkpt><trkpt lat="45.9977864" lon="10.5252946"><ele>1427.0</ele><time>2026-05-02T14:24:04.804Z</time></trkpt><trkpt lat="45.997735" lon="10.5254626"><ele>1427.0</ele><time>2026-05-02T14:24:05.804Z</time></trkpt><trkpt lat="45.9976622" lon="10.5256179"><ele>1423.75</ele><time>2026-05-02T14:24:06.804Z</time></trkpt><trkpt lat="45.9975809" lon="10.5257579"><ele>1420.5</ele><time>2026-05-02T14:24:07.804Z</time></trkpt><trkpt lat="45.9974849" lon="10.5258758"><ele>1417.25</ele><time>2026-05-02T14:24:08.804Z</time></trkpt><trkpt lat="45.9973781" lon="10.5259705"><ele>1414.0</ele><time>2026-05-02T14:24:09.804Z</time></trkpt><trkpt lat="45.9972543" lon="10.526038"><ele>1414.0</ele><time>2026-05-02T14:24:10.804Z</time></trkpt><trkpt lat="45.9971132" lon="10.5260843"><ele>1414.0</ele><time>2026-05-02T14:24:11.804Z</time></trkpt><trkpt lat="45.9969634" lon="10.5261218"><ele>1414.0</ele><time>2026-05-02T14:24:12.804Z</time></trkpt><trkpt lat="45.9968203" lon="10.5261656"><ele>1414.0</ele><time>2026-05-02T14:24:13.804Z</time></trkpt><trkpt lat="45.9966884" lon="10.5262203"><ele>1414.0</ele><time>2026-05-02T14:24:14.804Z</time></trkpt><trkpt lat="45.9965638" lon="10.5262977"><ele>1414.0</ele><time>2026-05-02T14:24:15.804Z</time></trkpt><trkpt lat="45.9964462" lon="10.5263942"><ele>1414.0</ele><time>2026-05-02T14:24:16.804Z</time></trkpt><trkpt lat="45.9963482" lon="10.5265215"><ele>1414.0</ele><time>2026-05-02T14:24:17.804Z</time></trkpt><trkpt lat="45.9962472" lon="10.5266389"><ele>1414.0</ele><time>2026-05-02T14:24:18.804Z</time></trkpt><trkpt lat="45.9961449" lon="10.5267598"><ele>1414.0</ele><time>2026-05-02T14:24:19.804Z</time></trkpt><trkpt lat="45.9960297" lon="10.5268796"><ele>1414.0</ele><time>2026-05-02T14:24:20.804Z</time></trkpt><trkpt lat="45.9958944" lon="10.5269973"><ele>1414.0</ele><time>2026-05-02T14:24:21.804Z</time></trkpt><trkpt lat="45.9957368" lon="10.5271082"><ele>1414.0</ele><time>2026-05-02T14:24:22.804Z</time></trkpt><trkpt lat="45.9955543" lon="10.5272041"><ele>1414.0</ele><time>2026-05-02T14:24:23.804Z</time></trkpt><trkpt lat="45.9953798" lon="10.5272997"><ele>1414.0</ele><time>2026-05-02T14:24:24.804Z</time></trkpt><trkpt lat="45.9952152" lon="10.5274004"><ele>1414.0</ele><time>2026-05-02T14:24:25.804Z</time></trkpt><trkpt lat="45.9950715" lon="10.5275"><ele>1414.0</ele><time>2026-05-02T14:24:26.804Z</time></trkpt><trkpt lat="45.9949697" lon="10.527601"><ele>1414.0</ele><time>2026-05-02T14:24:27.804Z</time></trkpt><trkpt lat="45.9948741" lon="10.5277033"><ele>1414.0</ele><time>2026-05-02T14:24:28.804Z</time></trkpt><trkpt lat="45.9947984" lon="10.5278009"><ele>1414.0</ele><time>2026-05-02T14:24:29.804Z</time></trkpt><trkpt lat="45.994724" lon="10.5278588"><ele>1414.0</ele><time>2026-05-02T14:24:30.804Z</time></trkpt><trkpt lat="45.9946346" lon="10.5277984"><ele>1414.0</ele><time>2026-05-02T14:24:32.804Z</time></trkpt><trkpt lat="45.99464" lon="10.5276966"><ele>1414.0</ele><time>2026-05-02T14:24:33.804Z</time></trkpt><trkpt lat="45.9946783" lon="10.527594"><ele>1414.0</ele><time>2026-05-02T14:24:34.804Z</time></trkpt><trkpt lat="45.9947543" lon="10.5274738"><ele>1414.0</ele><time>2026-05-02T14:24:35.804Z</time></trkpt><trkpt lat="45.9948774" lon="10.5273285"><ele>1414.0</ele><time>2026-05-02T14:24:36.804Z</time></trkpt><trkpt lat="45.9950394" lon="10.5271561"><ele>1414.0</ele><time>2026-05-02T14:24:37.804Z</time></trkpt><trkpt lat="45.9951881" lon="10.5269687"><ele>1414.0</ele><time>2026-05-02T14:24:38.804Z</time></trkpt><trkpt lat="45.9953326" lon="10.5267813"><ele>1414.0</ele><time>2026-05-02T14:24:39.804Z</time></trkpt><trkpt lat="45.9954642" lon="10.5266059"><ele>1414.0</ele><time>2026-05-02T14:24:40.804Z</time></trkpt><trkpt lat="45.9955849" lon="10.526453"><ele>1414.0</ele><time>2026-05-02T14:24:41.804Z</time></trkpt><trkpt lat="45.9956957" lon="10.5263197"><ele>1414.0</ele><time>2026-05-02T14:24:42.804Z</time></trkpt><trkpt lat="45.9957954" lon="10.5262035"><ele>1414.0</ele><time>2026-05-02T14:24:43.804Z</time></trkpt><trkpt lat="45.995872" lon="10.5260897"><ele>1414.0</ele><time>2026-05-02T14:24:44.804Z</time></trkpt><trkpt lat="45.9959283" lon="10.5259641"><ele>1414.0</ele><time>2026-05-02T14:24:45.804Z</time></trkpt><trkpt lat="45.9959486" lon="10.5258401"><ele>1414.0</ele><time>2026-05-02T14:24:46.804Z</time></trkpt><trkpt lat="45.9959162" lon="10.5257514"><ele>1414.0</ele><time>2026-05-02T14:24:47.804Z</time></trkpt><trkpt lat="45.9958497" lon="10.5257104"><ele>1414.0</ele><time>2026-05-02T14:24:48.804Z</time></trkpt><trkpt lat="45.9957599" lon="10.5257319"><ele>1414.0</ele><time>2026-05-02T14:24:49.804Z</time></trkpt><trkpt lat="45.9956562" lon="10.5258411"><ele>1414.0</ele><time>2026-05-02T14:24:50.804Z</time></trkpt><trkpt lat="45.9955278" lon="10.5260271"><ele>1414.0</ele><time>2026-05-02T14:24:51.804Z</time></trkpt><trkpt lat="45.9953823" lon="10.5262381"><ele>1414.0</ele><time>2026-05-02T14:24:52.804Z</time></trkpt><trkpt lat="45.9952413" lon="10.5264019"><ele>1414.0</ele><time>2026-05-02T14:24:53.804Z</time></trkpt><trkpt lat="45.9950867" lon="10.52653"><ele>1414.0</ele><time>2026-05-02T14:24:54.804Z</time></trkpt><trkpt lat="45.9948932" lon="10.5266125"><ele>1414.0</ele><time>2026-05-02T14:24:55.804Z</time></trkpt><trkpt lat="45.9947013" lon="10.5266687"><ele>1414.0</ele><time>2026-05-02T14:24:56.804Z</time></trkpt><trkpt lat="45.9945285" lon="10.5267115"><ele>1414.0</ele><time>2026-05-02T14:24:57.804Z</time></trkpt><trkpt lat="45.9943753" lon="10.526777"><ele>1414.0</ele><time>2026-05-02T14:24:58.804Z</time></trkpt><trkpt lat="45.9942333" lon="10.5268764"><ele>1414.0</ele><time>2026-05-02T14:24:59.804Z</time></trkpt><trkpt lat="45.9941044" lon="10.5270139"><ele>1414.0</ele><time>2026-05-02T14:25:00.804Z</time></trkpt><trkpt lat="45.9939831" lon="10.5271659"><ele>1414.0</ele><time>2026-05-02T14:25:01.804Z</time></trkpt><trkpt lat="45.9938685" lon="10.5273203"><ele>1414.0</ele><time>2026-05-02T14:25:02.804Z</time></trkpt><trkpt lat="45.9937508" lon="10.5274746"><ele>1414.0</ele><time>2026-05-02T14:25:03.804Z</time></trkpt><trkpt lat="45.9936351" lon="10.5276053"><ele>1414.0</ele><time>2026-05-02T14:25:04.804Z</time></trkpt><trkpt lat="45.9935099" lon="10.5276943"><ele>1414.0</ele><time>2026-05-02T14:25:05.804Z</time></trkpt><trkpt lat="45.9933735" lon="10.5277211"><ele>1414.0</ele><time>2026-05-02T14:25:06.804Z</time></trkpt><trkpt lat="45.9932342" lon="10.5276857"><ele>1414.0</ele><time>2026-05-02T14:25:07.804Z</time></trkpt><trkpt lat="45.9931096" lon="10.5276652"><ele>1414.0</ele><time>2026-05-02T14:25:08.804Z</time></trkpt><trkpt lat="45.9929884" lon="10.5276733"><ele>1414.0</ele><time>2026-05-02T14:25:09.804Z</time></trkpt><trkpt lat="45.9928866" lon="10.5277039"><ele>1414.0</ele><time>2026-05-02T14:25:10.804Z</time></trkpt><trkpt lat="45.9927957" lon="10.5277562"><ele>1414.0</ele><time>2026-05-02T14:25:11.804Z</time></trkpt><trkpt lat="45.9927326" lon="10.5278473"><ele>1414.0</ele><time>2026-05-02T14:25:12.804Z</time></trkpt><trkpt lat="45.9927266" lon="10.5279967"><ele>1414.0</ele><time>2026-05-02T14:25:13.804Z</time></trkpt><trkpt lat="45.992774" lon="10.5281915"><ele>1414.0</ele><time>2026-05-02T14:25:14.804Z</time></trkpt><trkpt lat="45.9927897" lon="10.5283552"><ele>1414.0</ele><time>2026-05-02T14:25:15.804Z</time></trkpt><trkpt lat="45.9927523" lon="10.528498"><ele>1344.0</ele><time>2026-05-02T14:25:16.804Z</time></trkpt><trkpt lat="45.9926391" lon="10.5285614"><ele>1274.0</ele><time>2026-05-02T14:25:17.804Z</time></trkpt><trkpt lat="45.9924924" lon="10.5285577"><ele>1204.0</ele><time>2026-05-02T14:25:18.804Z</time></trkpt><trkpt lat="45.9923397" lon="10.528563"><ele>1134.0</ele><time>2026-05-02T14:25:19.804Z</time></trkpt><trkpt lat="45.9921844" lon="10.5285648"><ele>1134.0</ele><time>2026-05-02T14:25:20.804Z</time></trkpt><trkpt lat="45.9920336" lon="10.5285758"><ele>1134.0</ele><time>2026-05-02T14:25:21.804Z</time></trkpt><trkpt lat="45.9918899" lon="10.5286213"><ele>1134.0</ele><time>2026-05-02T14:25:22.804Z</time></trkpt><trkpt lat="45.9917578" lon="10.528716"><ele>1134.0</ele><time>2026-05-02T14:25:23.804Z</time></trkpt><trkpt lat="45.991636" lon="10.5288452"><ele>1134.0</ele><time>2026-05-02T14:25:24.804Z</time></trkpt><trkpt lat="45.9915177" lon="10.5289917"><ele>1134.0</ele><time>2026-05-02T14:25:25.804Z</time></trkpt><trkpt lat="45.9914105" lon="10.5291223"><ele>1134.0</ele><time>2026-05-02T14:25:26.804Z</time></trkpt><trkpt lat="45.9913012" lon="10.5292217"><ele>1134.0</ele><time>2026-05-02T14:25:27.804Z</time></trkpt><trkpt lat="45.9911699" lon="10.529289"><ele>1134.0</ele><time>2026-05-02T14:25:28.804Z</time></trkpt><trkpt lat="45.9910238" lon="10.5293176"><ele>1134.0</ele><time>2026-05-02T14:25:29.804Z</time></trkpt><trkpt lat="45.9908549" lon="10.5293219"><ele>1134.0</ele><time>2026-05-02T14:25:30.804Z</time></trkpt><trkpt lat="45.9906747" lon="10.5293231"><ele>1126.0</ele><time>2026-05-02T14:25:31.804Z</time></trkpt><trkpt lat="45.9905079" lon="10.5293237"><ele>1118.0</ele><time>2026-05-02T14:25:32.804Z</time></trkpt><trkpt lat="45.9903496" lon="10.5293313"><ele>1110.0</ele><time>2026-05-02T14:25:33.804Z</time></trkpt><trkpt lat="45.9902" lon="10.5293646"><ele>1110.0</ele><time>2026-05-02T14:25:34.804Z</time></trkpt><trkpt lat="45.9900584" lon="10.5294259"><ele>1110.0</ele><time>2026-05-02T14:25:35.804Z</time></trkpt><trkpt lat="45.9899215" lon="10.5295044"><ele>1110.0</ele><time>2026-05-02T14:25:36.804Z</time></trkpt><trkpt lat="45.9898004" lon="10.5295953"><ele>1110.0</ele><time>2026-05-02T14:25:37.804Z</time></trkpt><trkpt lat="45.9896898" lon="10.529679"><ele>1111.2</ele><time>2026-05-02T14:25:38.804Z</time></trkpt><trkpt lat="45.9895933" lon="10.5297709"><ele>1112.4</ele><time>2026-05-02T14:25:39.804Z</time></trkpt><trkpt lat="45.9895306" lon="10.5298829"><ele>1113.6</ele><time>2026-05-02T14:25:40.804Z</time></trkpt><trkpt lat="45.9894988" lon="10.5300322"><ele>1114.8</ele><time>2026-05-02T14:25:41.804Z</time></trkpt><trkpt lat="45.9895157" lon="10.5301867"><ele>1116.0</ele><time>2026-05-02T14:25:42.804Z</time></trkpt><trkpt lat="45.9895754" lon="10.5303547"><ele>1115.3333333333333</ele><time>2026-05-02T14:25:43.804Z</time></trkpt><trkpt lat="45.989668" lon="10.5305185"><ele>1114.6666666666665</ele><time>2026-05-02T14:25:44.804Z</time></trkpt><trkpt lat="45.9897768" lon="10.5306959"><ele>1114.0</ele><time>2026-05-02T14:25:45.804Z</time></trkpt><trkpt lat="45.9898849" lon="10.5308866"><ele>1114.0</ele><time>2026-05-02T14:25:46.804Z</time></trkpt><trkpt lat="45.9899823" lon="10.5310857"><ele>1114.0</ele><time>2026-05-02T14:25:47.804Z</time></trkpt><trkpt lat="45.9900652" lon="10.5312885"><ele>1114.0</ele><time>2026-05-02T14:25:48.804Z</time></trkpt><trkpt lat="45.9901343" lon="10.531478"><ele>1120.5</ele><time>2026-05-02T14:25:49.804Z</time></trkpt><trkpt lat="45.9901813" lon="10.5316708"><ele>1127.0</ele><time>2026-05-02T14:25:50.804Z</time></trkpt><trkpt lat="45.9901674" lon="10.5318717"><ele>1133.5</ele><time>2026-05-02T14:25:51.804Z</time></trkpt><trkpt lat="45.9901147" lon="10.5320623"><ele>1140.0</ele><time>2026-05-02T14:25:52.804Z</time></trkpt><trkpt lat="45.9900592" lon="10.5322386"><ele>1140.0</ele><time>2026-05-02T14:25:53.804Z</time></trkpt><trkpt lat="45.9900122" lon="10.5324021"><ele>1140.0</ele><time>2026-05-02T14:25:54.804Z</time></trkpt><trkpt lat="45.9899893" lon="10.5325438"><ele>1140.0</ele><time>2026-05-02T14:25:55.804Z</time></trkpt><trkpt lat="45.9900039" lon="10.5326748"><ele>1140.0</ele><time>2026-05-02T14:25:56.804Z</time></trkpt><trkpt lat="45.9900372" lon="10.5328115"><ele>1140.0</ele><time>2026-05-02T14:25:57.804Z</time></trkpt><trkpt lat="45.9900576" lon="10.5329685"><ele>1135.25</ele><time>2026-05-02T14:25:58.804Z</time></trkpt><trkpt lat="45.990061" lon="10.53315"><ele>1130.5</ele><time>2026-05-02T14:25:59.804Z</time></trkpt><trkpt lat="45.9900214" lon="10.5333454"><ele>1125.75</ele><time>2026-05-02T14:26:00.804Z</time></trkpt><trkpt lat="45.9899466" lon="10.5335514"><ele>1121.0</ele><time>2026-05-02T14:26:01.804Z</time></trkpt><trkpt lat="45.989851" lon="10.5337577"><ele>1104.5</ele><time>2026-05-02T14:26:02.804Z</time></trkpt><trkpt lat="45.9897489" lon="10.5339613"><ele>1088.0</ele><time>2026-05-02T14:26:03.804Z</time></trkpt><trkpt lat="45.989545" lon="10.5343672"><ele>1083.0</ele><time>2026-05-02T14:26:05.804Z</time></trkpt><trkpt lat="45.9894442" lon="10.5345641"><ele>1078.0</ele><time>2026-05-02T14:26:06.804Z</time></trkpt><trkpt lat="45.9893153" lon="10.5347391"><ele>1073.0</ele><time>2026-05-02T14:26:07.804Z</time></trkpt><trkpt lat="45.9891699" lon="10.5348717"><ele>1073.0</ele><time>2026-05-02T14:26:08.804Z</time></trkpt><trkpt lat="45.9890022" lon="10.5349663"><ele>1073.0</ele><time>2026-05-02T14:26:09.804Z</time></trkpt><trkpt lat="45.9888401" lon="10.5350566"><ele>1073.0</ele><time>2026-05-02T14:26:10.804Z</time></trkpt><trkpt lat="45.9886892" lon="10.5351535"><ele>1073.0</ele><time>2026-05-02T14:26:11.804Z</time></trkpt><trkpt lat="45.9885351" lon="10.5352506"><ele>1073.0</ele><time>2026-05-02T14:26:12.804Z</time></trkpt><trkpt lat="45.9883827" lon="10.5353352"><ele>1073.0</ele><time>2026-05-02T14:26:13.804Z</time></trkpt><trkpt lat="45.9882341" lon="10.5354127"><ele>1078.3333333333335</ele><time>2026-05-02T14:26:14.804Z</time></trkpt><trkpt lat="45.9880803" lon="10.5354478"><ele>1083.6666666666667</ele><time>2026-05-02T14:26:15.804Z</time></trkpt><trkpt lat="45.9879117" lon="10.5354326"><ele>1089.0</ele><time>2026-05-02T14:26:16.804Z</time></trkpt><trkpt lat="45.9877538" lon="10.5353846"><ele>1086.25</ele><time>2026-05-02T14:26:17.804Z</time></trkpt><trkpt lat="45.9876015" lon="10.5353594"><ele>1083.5</ele><time>2026-05-02T14:26:18.804Z</time></trkpt><trkpt lat="45.9874622" lon="10.5353767"><ele>1080.75</ele><time>2026-05-02T14:26:19.804Z</time></trkpt><trkpt lat="45.9873239" lon="10.5354309"><ele>1078.0</ele><time>2026-05-02T14:26:20.804Z</time></trkpt><trkpt lat="45.9871838" lon="10.5355128"><ele>1078.0</ele><time>2026-05-02T14:26:21.804Z</time></trkpt><trkpt lat="45.9870452" lon="10.5355919"><ele>1078.0</ele><time>2026-05-02T14:26:22.804Z</time></trkpt><trkpt lat="45.9868943" lon="10.5356171"><ele>1078.0</ele><time>2026-05-02T14:26:23.804Z</time></trkpt><trkpt lat="45.9867437" lon="10.5356169"><ele>1065.0</ele><time>2026-05-02T14:26:24.804Z</time></trkpt><trkpt lat="45.9864376" lon="10.5356738"><ele>1052.0</ele><time>2026-05-02T14:26:26.804Z</time></trkpt><trkpt lat="45.9862831" lon="10.5357432"><ele>1052.0</ele><time>2026-05-02T14:26:27.804Z</time></trkpt><trkpt lat="45.9861332" lon="10.5358201"><ele>1052.0</ele><time>2026-05-02T14:26:28.804Z</time></trkpt><trkpt lat="45.9859866" lon="10.5358821"><ele>1052.0</ele><time>2026-05-02T14:26:29.804Z</time></trkpt><trkpt lat="45.9858359" lon="10.5359246"><ele>1047.6666666666667</ele><time>2026-05-02T14:26:30.804Z</time></trkpt><trkpt lat="45.9856755" lon="10.5359371"><ele>1043.3333333333333</ele><time>2026-05-02T14:26:31.804Z</time></trkpt><trkpt lat="45.9855158" lon="10.5359285"><ele>1039.0</ele><time>2026-05-02T14:26:32.804Z</time></trkpt><trkpt lat="45.9853553" lon="10.5358976"><ele>1039.0</ele><time>2026-05-02T14:26:33.804Z</time></trkpt><trkpt lat="45.9851887" lon="10.5358569"><ele>1039.0</ele><time>2026-05-02T14:26:34.804Z</time></trkpt><trkpt lat="45.9850268" lon="10.53583"><ele>1039.0</ele><time>2026-05-02T14:26:35.804Z</time></trkpt><trkpt lat="45.9848596" lon="10.5358275"><ele>1039.0</ele><time>2026-05-02T14:26:36.804Z</time></trkpt><trkpt lat="45.9846873" lon="10.5358359"><ele>1039.0</ele><time>2026-05-02T14:26:37.804Z</time></trkpt><trkpt lat="45.9845164" lon="10.5358652"><ele>1039.0</ele><time>2026-05-02T14:26:38.804Z</time></trkpt><trkpt lat="45.9843533" lon="10.5359095"><ele>1039.0</ele><time>2026-05-02T14:26:39.804Z</time></trkpt><trkpt lat="45.984195" lon="10.5359666"><ele>1039.0</ele><time>2026-05-02T14:26:40.804Z</time></trkpt><trkpt lat="45.9840421" lon="10.5360512"><ele>1039.0</ele><time>2026-05-02T14:26:41.804Z</time></trkpt><trkpt lat="45.9838865" lon="10.536126"><ele>1033.3333333333333</ele><time>2026-05-02T14:26:42.804Z</time></trkpt><trkpt lat="45.9837222" lon="10.536184"><ele>1027.6666666666667</ele><time>2026-05-02T14:26:43.804Z</time></trkpt><trkpt lat="45.9835515" lon="10.5362373"><ele>1022.0</ele><time>2026-05-02T14:26:44.804Z</time></trkpt><trkpt lat="45.9833772" lon="10.5362706"><ele>1028.5</ele><time>2026-05-02T14:26:45.804Z</time></trkpt><trkpt lat="45.9830386" lon="10.5363772"><ele>1035.0</ele><time>2026-05-02T14:26:47.804Z</time></trkpt><trkpt lat="45.9828813" lon="10.5364682"><ele>1035.0</ele><time>2026-05-02T14:26:48.804Z</time></trkpt><trkpt lat="45.9827452" lon="10.5365833"><ele>1035.0</ele><time>2026-05-02T14:26:49.804Z</time></trkpt><trkpt lat="45.9826364" lon="10.5367137"><ele>1035.0</ele><time>2026-05-02T14:26:50.804Z</time></trkpt><trkpt lat="45.9825711" lon="10.5368765"><ele>1035.0</ele><time>2026-05-02T14:26:51.804Z</time></trkpt><trkpt lat="45.9825129" lon="10.5370513"><ele>1032.0</ele><time>2026-05-02T14:26:52.804Z</time></trkpt><trkpt lat="45.982431" lon="10.537202"><ele>1029.0</ele><time>2026-05-02T14:26:53.804Z</time></trkpt><trkpt lat="45.9823168" lon="10.5373004"><ele>1026.0</ele><time>2026-05-02T14:26:54.804Z</time></trkpt><trkpt lat="45.9821934" lon="10.5373861"><ele>1023.0</ele><time>2026-05-02T14:26:55.804Z</time></trkpt><trkpt lat="45.9820722" lon="10.5374887"><ele>1023.0</ele><time>2026-05-02T14:26:56.804Z</time></trkpt><trkpt lat="45.981956" lon="10.5376323"><ele>1023.0</ele><time>2026-05-02T14:26:57.804Z</time></trkpt><trkpt lat="45.9818444" lon="10.5377936"><ele>1023.0</ele><time>2026-05-02T14:26:58.804Z</time></trkpt><trkpt lat="45.9817312" lon="10.5379518"><ele>1019.6666666666667</ele><time>2026-05-02T14:26:59.804Z</time></trkpt><trkpt lat="45.98161" lon="10.5380897"><ele>1016.3333333333334</ele><time>2026-05-02T14:27:00.804Z</time></trkpt><trkpt lat="45.9814753" lon="10.5381996"><ele>1013.0</ele><time>2026-05-02T14:27:01.804Z</time></trkpt><trkpt lat="45.9813384" lon="10.5382981"><ele>1013.0</ele><time>2026-05-02T14:27:02.804Z</time></trkpt><trkpt lat="45.9812023" lon="10.538406"><ele>1013.0</ele><time>2026-05-02T14:27:03.804Z</time></trkpt><trkpt lat="45.9810682" lon="10.5385237"><ele>1013.0</ele><time>2026-05-02T14:27:04.804Z</time></trkpt><trkpt lat="45.9809426" lon="10.5386466"><ele>1012.5</ele><time>2026-05-02T14:27:05.804Z</time></trkpt><trkpt lat="45.9808339" lon="10.5387735"><ele>1012.0</ele><time>2026-05-02T14:27:06.804Z</time></trkpt><trkpt lat="45.9807349" lon="10.5388861"><ele>1011.5</ele><time>2026-05-02T14:27:07.804Z</time></trkpt><trkpt lat="45.9806606" lon="10.538985"><ele>1011.0</ele><time>2026-05-02T14:27:08.804Z</time></trkpt><trkpt lat="45.980606" lon="10.539085"><ele>1011.0</ele><time>2026-05-02T14:27:09.804Z</time></trkpt><trkpt lat="45.9805799" lon="10.5392202"><ele>1010.9999999999999</ele><time>2026-05-02T14:27:10.804Z</time></trkpt><trkpt lat="45.9805482" lon="10.5393555"><ele>1010.9999999999999</ele><time>2026-05-02T14:27:11.804Z</time></trkpt><trkpt lat="45.9804949" lon="10.5394646"><ele>1011.0</ele><time>2026-05-02T14:27:12.804Z</time></trkpt><trkpt lat="45.9804139" lon="10.5395284"><ele>1011.0</ele><time>2026-05-02T14:27:13.804Z</time></trkpt><trkpt lat="45.9803135" lon="10.5395554"><ele>1011.0</ele><time>2026-05-02T14:27:14.804Z</time></trkpt><trkpt lat="45.9801819" lon="10.5395142"><ele>1011.0</ele><time>2026-05-02T14:27:15.804Z</time></trkpt><trkpt lat="45.9800576" lon="10.5394857"><ele>1011.0</ele><time>2026-05-02T14:27:16.804Z</time></trkpt><trkpt lat="45.9799362" lon="10.5394805"><ele>1011.0</ele><time>2026-05-02T14:27:17.804Z</time></trkpt><trkpt lat="45.9798275" lon="10.5395014"><ele>1008.0</ele><time>2026-05-02T14:27:18.804Z</time></trkpt><trkpt lat="45.9797375" lon="10.5395649"><ele>1004.9999999999999</ele><time>2026-05-02T14:27:19.804Z</time></trkpt><trkpt lat="45.9796668" lon="10.539662"><ele>1001.9999999999999</ele><time>2026-05-02T14:27:20.804Z</time></trkpt><trkpt lat="45.9796096" lon="10.5398184"><ele>999.0</ele><time>2026-05-02T14:27:21.804Z</time></trkpt><trkpt lat="45.979529" lon="10.5399617"><ele>996.0</ele><time>2026-05-02T14:27:22.804Z</time></trkpt><trkpt lat="45.9794176" lon="10.5400562"><ele>996.0</ele><time>2026-05-02T14:27:23.804Z</time></trkpt><trkpt lat="45.979297" lon="10.5401046"><ele>996.0</ele><time>2026-05-02T14:27:24.804Z</time></trkpt><trkpt lat="45.9791682" lon="10.5401142"><ele>996.0</ele><time>2026-05-02T14:27:25.804Z</time></trkpt><trkpt lat="45.9790293" lon="10.5401047"><ele>996.0</ele><time>2026-05-02T14:27:26.804Z</time></trkpt><trkpt lat="45.9788925" lon="10.5400971"><ele>990.5</ele><time>2026-05-02T14:27:27.804Z</time></trkpt><trkpt lat="45.9787522" lon="10.5401022"><ele>985.0</ele><time>2026-05-02T14:27:28.804Z</time></trkpt><trkpt lat="45.9786127" lon="10.5401427"><ele>979.5</ele><time>2026-05-02T14:27:29.804Z</time></trkpt><trkpt lat="45.9784763" lon="10.5402114"><ele>974.0</ele><time>2026-05-02T14:27:30.804Z</time></trkpt><trkpt lat="45.9783368" lon="10.5402836"><ele>970.75</ele><time>2026-05-02T14:27:31.804Z</time></trkpt><trkpt lat="45.9781937" lon="10.540338"><ele>967.5</ele><time>2026-05-02T14:27:32.804Z</time></trkpt><trkpt lat="45.9780527" lon="10.540351"><ele>964.25</ele><time>2026-05-02T14:27:33.804Z</time></trkpt><trkpt lat="45.9779188" lon="10.5403432"><ele>961.0</ele><time>2026-05-02T14:27:34.804Z</time></trkpt><trkpt lat="45.9777903" lon="10.5403247"><ele>961.0</ele><time>2026-05-02T14:27:35.804Z</time></trkpt><trkpt lat="45.9776745" lon="10.5403341"><ele>960.9999999999999</ele><time>2026-05-02T14:27:36.804Z</time></trkpt><trkpt lat="45.9775877" lon="10.5404001"><ele>960.9999999999999</ele><time>2026-05-02T14:27:37.804Z</time></trkpt><trkpt lat="45.977524" lon="10.5405199"><ele>961.0</ele><time>2026-05-02T14:27:38.804Z</time></trkpt><trkpt lat="45.9774762" lon="10.5406756"><ele>961.0</ele><time>2026-05-02T14:27:39.804Z</time></trkpt><trkpt lat="45.9774614" lon="10.5408594"><ele>959.5</ele><time>2026-05-02T14:27:40.804Z</time></trkpt><trkpt lat="45.9774636" lon="10.5410528"><ele>958.0</ele><time>2026-05-02T14:27:41.804Z</time></trkpt><trkpt lat="45.9774764" lon="10.541245"><ele>956.5</ele><time>2026-05-02T14:27:42.804Z</time></trkpt><trkpt lat="45.9774662" lon="10.5413942"><ele>955.0</ele><time>2026-05-02T14:27:43.804Z</time></trkpt><trkpt lat="45.9774323" lon="10.541523"><ele>952.6</ele><time>2026-05-02T14:27:44.804Z</time></trkpt><trkpt lat="45.9773784" lon="10.5416036"><ele>950.2</ele><time>2026-05-02T14:27:45.804Z</time></trkpt><trkpt lat="45.9773113" lon="10.5416363"><ele>947.8</ele><time>2026-05-02T14:27:46.804Z</time></trkpt><trkpt lat="45.977188" lon="10.5415715"><ele>945.4</ele><time>2026-05-02T14:27:48.804Z</time></trkpt><trkpt lat="45.9771319" lon="10.5414664"><ele>943.0</ele><time>2026-05-02T14:27:49.804Z</time></trkpt><trkpt lat="45.9770964" lon="10.5413039"><ele>947.0</ele><time>2026-05-02T14:27:50.804Z</time></trkpt><trkpt lat="45.9770873" lon="10.5410959"><ele>951.0</ele><time>2026-05-02T14:27:51.804Z</time></trkpt><trkpt lat="45.9770999" lon="10.5408516"><ele>955.0</ele><time>2026-05-02T14:27:52.804Z</time></trkpt><trkpt lat="45.9771067" lon="10.5406293"><ele>955.0</ele><time>2026-05-02T14:27:53.804Z</time></trkpt><trkpt lat="45.9770872" lon="10.5404671"><ele>955.0</ele><time>2026-05-02T14:27:54.804Z</time></trkpt><trkpt lat="45.9770422" lon="10.5403545"><ele>955.0</ele><time>2026-05-02T14:27:55.804Z</time></trkpt><trkpt lat="45.9769401" lon="10.5403167"><ele>955.0</ele><time>2026-05-02T14:27:57.804Z</time></trkpt><trkpt lat="45.9768955" lon="10.5403922"><ele>955.0</ele><time>2026-05-02T14:27:58.804Z</time></trkpt><trkpt lat="45.976843" lon="10.5405219"><ele>955.0</ele><time>2026-05-02T14:27:59.804Z</time></trkpt><trkpt lat="45.9767996" lon="10.5407"><ele>955.0</ele><time>2026-05-02T14:28:00.804Z</time></trkpt><trkpt lat="45.9767526" lon="10.5409306"><ele>955.0</ele><time>2026-05-02T14:28:01.804Z</time></trkpt><trkpt lat="45.9767179" lon="10.5411541"><ele>952.0</ele><time>2026-05-02T14:28:02.804Z</time></trkpt><trkpt lat="45.9766912" lon="10.5413646"><ele>949.0</ele><time>2026-05-02T14:28:03.804Z</time></trkpt><trkpt lat="45.9766933" lon="10.541543"><ele>946.0</ele><time>2026-05-02T14:28:04.804Z</time></trkpt><trkpt lat="45.9767343" lon="10.5417061"><ele>943.0</ele><time>2026-05-02T14:28:05.804Z</time></trkpt><trkpt lat="45.9768036" lon="10.5418373"><ele>943.0</ele><time>2026-05-02T14:28:06.804Z</time></trkpt><trkpt lat="45.9769153" lon="10.5419229"><ele>943.0</ele><time>2026-05-02T14:28:07.804Z</time></trkpt><trkpt lat="45.9770302" lon="10.5419831"><ele>943.0</ele><time>2026-05-02T14:28:08.804Z</time></trkpt><trkpt lat="45.9771462" lon="10.5420247"><ele>943.0</ele><time>2026-05-02T14:28:09.804Z</time></trkpt><trkpt lat="45.9772411" lon="10.5420994"><ele>937.75</ele><time>2026-05-02T14:28:10.804Z</time></trkpt><trkpt lat="45.9773131" lon="10.5422172"><ele>932.5</ele><time>2026-05-02T14:28:11.804Z</time></trkpt><trkpt lat="45.9773525" lon="10.5423555"><ele>927.25</ele><time>2026-05-02T14:28:12.804Z</time></trkpt><trkpt lat="45.9773496" lon="10.5425346"><ele>922.0</ele><time>2026-05-02T14:28:13.804Z</time></trkpt><trkpt lat="45.9773238" lon="10.5427032"><ele>922.0</ele><time>2026-05-02T14:28:14.804Z</time></trkpt><trkpt lat="45.9772736" lon="10.5428634"><ele>922.0</ele><time>2026-05-02T14:28:15.804Z</time></trkpt><trkpt lat="45.9772117" lon="10.543042"><ele>922.0</ele><time>2026-05-02T14:28:16.804Z</time></trkpt><trkpt lat="45.977144" lon="10.5432242"><ele>922.0</ele><time>2026-05-02T14:28:17.804Z</time></trkpt><trkpt lat="45.9770777" lon="10.5433959"><ele>920.75</ele><time>2026-05-02T14:28:18.804Z</time></trkpt><trkpt lat="45.977024" lon="10.54358"><ele>919.5</ele><time>2026-05-02T14:28:19.804Z</time></trkpt><trkpt lat="45.9769799" lon="10.5437736"><ele>918.25</ele><time>2026-05-02T14:28:20.804Z</time></trkpt><trkpt lat="45.9769417" lon="10.5439678"><ele>917.0</ele><time>2026-05-02T14:28:21.804Z</time></trkpt><trkpt lat="45.9769293" lon="10.5441767"><ele>916.6666666666667</ele><time>2026-05-02T14:28:22.804Z</time></trkpt><trkpt lat="45.9769262" lon="10.5444216"><ele>916.3333333333333</ele><time>2026-05-02T14:28:23.804Z</time></trkpt><trkpt lat="45.9769174" lon="10.5446477"><ele>916.0</ele><time>2026-05-02T14:28:24.804Z</time></trkpt><trkpt lat="45.9768997" lon="10.5448564"><ele>916.0</ele><time>2026-05-02T14:28:25.804Z</time></trkpt><trkpt lat="45.9768586" lon="10.5450739"><ele>916.0</ele><time>2026-05-02T14:28:26.804Z</time></trkpt><trkpt lat="45.9767995" lon="10.5452904"><ele>916.0</ele><time>2026-05-02T14:28:27.804Z</time></trkpt><trkpt lat="45.9767417" lon="10.5454914"><ele>915.6666666666666</ele><time>2026-05-02T14:28:28.804Z</time></trkpt><trkpt lat="45.9767096" lon="10.5457282"><ele>915.3333333333333</ele><time>2026-05-02T14:28:29.804Z</time></trkpt><trkpt lat="45.9766572" lon="10.5459322"><ele>915.0</ele><time>2026-05-02T14:28:30.804Z</time></trkpt><trkpt lat="45.9765853" lon="10.5461244"><ele>915.3333333333333</ele><time>2026-05-02T14:28:31.804Z</time></trkpt><trkpt lat="45.976526" lon="10.5463269"><ele>915.6666666666666</ele><time>2026-05-02T14:28:32.804Z</time></trkpt><trkpt lat="45.9764887" lon="10.5465478"><ele>916.0</ele><time>2026-05-02T14:28:33.804Z</time></trkpt><trkpt lat="45.9764605" lon="10.5467702"><ele>916.0</ele><time>2026-05-02T14:28:34.804Z</time></trkpt><trkpt lat="45.9764433" lon="10.5469837"><ele>916.0</ele><time>2026-05-02T14:28:35.804Z</time></trkpt><trkpt lat="45.9764336" lon="10.5472171"><ele>916.0</ele><time>2026-05-02T14:28:36.804Z</time></trkpt><trkpt lat="45.9764226" lon="10.547453"><ele>915.3333333333333</ele><time>2026-05-02T14:28:37.804Z</time></trkpt><trkpt lat="45.9764051" lon="10.5476927"><ele>914.6666666666667</ele><time>2026-05-02T14:28:38.804Z</time></trkpt><trkpt lat="45.9763835" lon="10.5479169"><ele>914.0</ele><time>2026-05-02T14:28:39.804Z</time></trkpt><trkpt lat="45.9763637" lon="10.5481408"><ele>914.0</ele><time>2026-05-02T14:28:40.804Z</time></trkpt><trkpt lat="45.9763522" lon="10.5483647"><ele>914.0</ele><time>2026-05-02T14:28:41.804Z</time></trkpt><trkpt lat="45.9763462" lon="10.548603"><ele>914.0</ele><time>2026-05-02T14:28:42.804Z</time></trkpt><trkpt lat="45.9763427" lon="10.5488367"><ele>914.0</ele><time>2026-05-02T14:28:43.804Z</time></trkpt><trkpt lat="45.9763464" lon="10.549069"><ele>914.0</ele><time>2026-05-02T14:28:44.804Z</time></trkpt><trkpt lat="45.9763494" lon="10.5492959"><ele>914.0</ele><time>2026-05-02T14:28:45.804Z</time></trkpt><trkpt lat="45.9763523" lon="10.5495323"><ele>913.3333333333334</ele><time>2026-05-02T14:28:46.804Z</time></trkpt><trkpt lat="45.9763428" lon="10.5497688"><ele>912.6666666666667</ele><time>2026-05-02T14:28:47.804Z</time></trkpt><trkpt lat="45.9763058" lon="10.5499879"><ele>912.0</ele><time>2026-05-02T14:28:48.804Z</time></trkpt><trkpt lat="45.9762494" lon="10.5502091"><ele>912.0</ele><time>2026-05-02T14:28:49.804Z</time></trkpt><trkpt lat="45.9761838" lon="10.5504294"><ele>912.0</ele><time>2026-05-02T14:28:50.804Z</time></trkpt><trkpt lat="45.9760138" lon="10.5508475"><ele>912.0</ele><time>2026-05-02T14:28:52.804Z</time></trkpt><trkpt lat="45.9759274" lon="10.5510495"><ele>912.0</ele><time>2026-05-02T14:28:53.804Z</time></trkpt><trkpt lat="45.9758366" lon="10.5512408"><ele>912.0</ele><time>2026-05-02T14:28:54.804Z</time></trkpt><trkpt lat="45.9757213" lon="10.5514064"><ele>913.0</ele><time>2026-05-02T14:28:55.804Z</time></trkpt><trkpt lat="45.9755884" lon="10.5515401"><ele>914.0</ele><time>2026-05-02T14:28:56.804Z</time></trkpt><trkpt lat="45.9754567" lon="10.5516615"><ele>915.0</ele><time>2026-05-02T14:28:57.804Z</time></trkpt><trkpt lat="45.9753317" lon="10.5517926"><ele>915.0</ele><time>2026-05-02T14:28:58.804Z</time></trkpt><trkpt lat="45.9752057" lon="10.5519431"><ele>915.0</ele><time>2026-05-02T14:28:59.804Z</time></trkpt><trkpt lat="45.975087" lon="10.5521054"><ele>915.0</ele><time>2026-05-02T14:29:00.804Z</time></trkpt><trkpt lat="45.9749751" lon="10.5522686"><ele>916.0</ele><time>2026-05-02T14:29:01.804Z</time></trkpt><trkpt lat="45.9748649" lon="10.5524385"><ele>917.0</ele><time>2026-05-02T14:29:02.804Z</time></trkpt><trkpt lat="45.9747555" lon="10.5526071"><ele>918.0</ele><time>2026-05-02T14:29:03.804Z</time></trkpt><trkpt lat="45.9746539" lon="10.5527803"><ele>921.3333333333333</ele><time>2026-05-02T14:29:04.804Z</time></trkpt><trkpt lat="45.9745846" lon="10.5530073"><ele>924.6666666666666</ele><time>2026-05-02T14:29:05.804Z</time></trkpt><trkpt lat="45.9745278" lon="10.5532398"><ele>928.0</ele><time>2026-05-02T14:29:06.804Z</time></trkpt><trkpt lat="45.9744955" lon="10.5534893"><ele>929.3333333333333</ele><time>2026-05-02T14:29:07.804Z</time></trkpt><trkpt lat="45.9744604" lon="10.5537422"><ele>930.6666666666667</ele><time>2026-05-02T14:29:08.804Z</time></trkpt><trkpt lat="45.9744191" lon="10.5539898"><ele>932.0</ele><time>2026-05-02T14:29:09.804Z</time></trkpt><trkpt lat="45.9743578" lon="10.5542263"><ele>932.0</ele><time>2026-05-02T14:29:10.804Z</time></trkpt><trkpt lat="45.9742754" lon="10.5544497"><ele>932.0</ele><time>2026-05-02T14:29:11.804Z</time></trkpt><trkpt lat="45.9740856" lon="10.5548789"><ele>929.6666666666667</ele><time>2026-05-02T14:29:13.804Z</time></trkpt><trkpt lat="45.9739945" lon="10.5550928"><ele>927.3333333333333</ele><time>2026-05-02T14:29:14.804Z</time></trkpt><trkpt lat="45.9739225" lon="10.5553177"><ele>925.0</ele><time>2026-05-02T14:29:15.804Z</time></trkpt><trkpt lat="45.9738648" lon="10.5555534"><ele>925.0</ele><time>2026-05-02T14:29:16.804Z</time></trkpt><trkpt lat="45.9738205" lon="10.5557934"><ele>925.0</ele><time>2026-05-02T14:29:17.804Z</time></trkpt><trkpt lat="45.9737813" lon="10.5560247"><ele>925.0</ele><time>2026-05-02T14:29:18.804Z</time></trkpt><trkpt lat="45.973754" lon="10.5562652"><ele>924.0</ele><time>2026-05-02T14:29:19.804Z</time></trkpt><trkpt lat="45.9737265" lon="10.5565056"><ele>923.0</ele><time>2026-05-02T14:29:20.804Z</time></trkpt><trkpt lat="45.9737037" lon="10.55675"><ele>922.0</ele><time>2026-05-02T14:29:21.804Z</time></trkpt><trkpt lat="45.9736908" lon="10.557011"><ele>920.6666666666666</ele><time>2026-05-02T14:29:22.804Z</time></trkpt><trkpt lat="45.9736876" lon="10.5572708"><ele>919.3333333333333</ele><time>2026-05-02T14:29:23.804Z</time></trkpt><trkpt lat="45.9736833" lon="10.5575365"><ele>918.0</ele><time>2026-05-02T14:29:24.804Z</time></trkpt><trkpt lat="45.9736806" lon="10.5577956"><ele>916.3333333333333</ele><time>2026-05-02T14:29:25.804Z</time></trkpt><trkpt lat="45.9736731" lon="10.5580527"><ele>914.6666666666666</ele><time>2026-05-02T14:29:26.804Z</time></trkpt><trkpt lat="45.9736633" lon="10.5583223"><ele>913.0</ele><time>2026-05-02T14:29:27.804Z</time></trkpt><trkpt lat="45.9736329" lon="10.5585789"><ele>912.0</ele><time>2026-05-02T14:29:28.804Z</time></trkpt><trkpt lat="45.9735833" lon="10.5588276"><ele>911.0</ele><time>2026-05-02T14:29:29.804Z</time></trkpt><trkpt lat="45.9735111" lon="10.5590796"><ele>910.0</ele><time>2026-05-02T14:29:30.804Z</time></trkpt><trkpt lat="45.9734322" lon="10.5593207"><ele>905.5</ele><time>2026-05-02T14:29:31.804Z</time></trkpt><trkpt lat="45.9733415" lon="10.559565"><ele>901.0</ele><time>2026-05-02T14:29:32.804Z</time></trkpt><trkpt lat="45.9731637" lon="10.5600583"><ele>901.0</ele><time>2026-05-02T14:29:34.804Z</time></trkpt><trkpt lat="45.9730791" lon="10.5602968"><ele>901.0</ele><time>2026-05-02T14:29:35.804Z</time></trkpt><trkpt lat="45.9729991" lon="10.5605358"><ele>901.0</ele><time>2026-05-02T14:29:36.804Z</time></trkpt><trkpt lat="45.9729183" lon="10.5607732"><ele>903.0</ele><time>2026-05-02T14:29:37.804Z</time></trkpt><trkpt lat="45.9728397" lon="10.5610025"><ele>905.0</ele><time>2026-05-02T14:29:38.804Z</time></trkpt><trkpt lat="45.9727691" lon="10.5612144"><ele>907.0</ele><time>2026-05-02T14:29:39.804Z</time></trkpt><trkpt lat="45.9727084" lon="10.5614235"><ele>909.6666666666666</ele><time>2026-05-02T14:29:40.804Z</time></trkpt><trkpt lat="45.9726752" lon="10.5616382"><ele>912.3333333333333</ele><time>2026-05-02T14:29:41.804Z</time></trkpt><trkpt lat="45.9726607" lon="10.5618644"><ele>915.0</ele><time>2026-05-02T14:29:42.804Z</time></trkpt><trkpt lat="45.9726652" lon="10.5620991"><ele>916.0</ele><time>2026-05-02T14:29:43.804Z</time></trkpt><trkpt lat="45.9726768" lon="10.5623393"><ele>917.0</ele><time>2026-05-02T14:29:44.804Z</time></trkpt><trkpt lat="45.9726857" lon="10.5626011"><ele>918.0</ele><time>2026-05-02T14:29:45.804Z</time></trkpt><trkpt lat="45.9726863" lon="10.5628673"><ele>920.6666666666667</ele><time>2026-05-02T14:29:46.804Z</time></trkpt><trkpt lat="45.9726691" lon="10.5631416"><ele>923.3333333333334</ele><time>2026-05-02T14:29:47.804Z</time></trkpt><trkpt lat="45.9726381" lon="10.5634127"><ele>926.0</ele><time>2026-05-02T14:29:48.804Z</time></trkpt><trkpt lat="45.9725786" lon="10.5636893"><ele>920.0</ele><time>2026-05-02T14:29:49.804Z</time></trkpt><trkpt lat="45.9724689" lon="10.5639431"><ele>914.0</ele><time>2026-05-02T14:29:50.804Z</time></trkpt><trkpt lat="45.9723655" lon="10.564183"><ele>908.0</ele><time>2026-05-02T14:29:51.804Z</time></trkpt><trkpt lat="45.9722615" lon="10.5644258"><ele>908.6666666666667</ele><time>2026-05-02T14:29:52.804Z</time></trkpt><trkpt lat="45.9721792" lon="10.5646913"><ele>909.3333333333333</ele><time>2026-05-02T14:29:53.804Z</time></trkpt><trkpt lat="45.9720844" lon="10.5649404"><ele>910.0</ele><time>2026-05-02T14:29:54.804Z</time></trkpt><trkpt lat="45.9719653" lon="10.5651448"><ele>910.0</ele><time>2026-05-02T14:29:55.804Z</time></trkpt><trkpt lat="45.9718181" lon="10.5653029"><ele>910.0</ele><time>2026-05-02T14:29:56.804Z</time></trkpt><trkpt lat="45.9716363" lon="10.5654021"><ele>910.0</ele><time>2026-05-02T14:29:57.804Z</time></trkpt><trkpt lat="45.9714273" lon="10.5654456"><ele>908.0</ele><time>2026-05-02T14:29:58.804Z</time></trkpt><trkpt lat="45.9712373" lon="10.5654979"><ele>906.0</ele><time>2026-05-02T14:29:59.804Z</time></trkpt><trkpt lat="45.9710591" lon="10.565588"><ele>904.0</ele><time>2026-05-02T14:30:00.804Z</time></trkpt><trkpt lat="45.9708951" lon="10.565726"><ele>906.0</ele><time>2026-05-02T14:30:01.804Z</time></trkpt><trkpt lat="45.9707585" lon="10.5659088"><ele>908.0</ele><time>2026-05-02T14:30:02.804Z</time></trkpt><trkpt lat="45.9705359" lon="10.5663427"><ele>908.0</ele><time>2026-05-02T14:30:04.804Z</time></trkpt><trkpt lat="45.9704381" lon="10.566597"><ele>908.0</ele><time>2026-05-02T14:30:05.804Z</time></trkpt><trkpt lat="45.9703499" lon="10.5668542"><ele>908.0</ele><time>2026-05-02T14:30:06.804Z</time></trkpt><trkpt lat="45.9702664" lon="10.567101"><ele>910.3333333333334</ele><time>2026-05-02T14:30:07.804Z</time></trkpt><trkpt lat="45.9701596" lon="10.5673396"><ele>912.6666666666667</ele><time>2026-05-02T14:30:08.804Z</time></trkpt><trkpt lat="45.9700393" lon="10.5675714"><ele>915.0</ele><time>2026-05-02T14:30:09.804Z</time></trkpt><trkpt lat="45.9699057" lon="10.5677889"><ele>913.3333333333333</ele><time>2026-05-02T14:30:10.804Z</time></trkpt><trkpt lat="45.9697689" lon="10.5679951"><ele>911.6666666666666</ele><time>2026-05-02T14:30:11.804Z</time></trkpt><trkpt lat="45.9696314" lon="10.568192"><ele>910.0</ele><time>2026-05-02T14:30:12.804Z</time></trkpt><trkpt lat="45.9694942" lon="10.5683869"><ele>910.0</ele><time>2026-05-02T14:30:13.804Z</time></trkpt><trkpt lat="45.9693565" lon="10.5685893"><ele>910.0</ele><time>2026-05-02T14:30:14.804Z</time></trkpt><trkpt lat="45.9692241" lon="10.5688046"><ele>910.0</ele><time>2026-05-02T14:30:15.804Z</time></trkpt><trkpt lat="45.9691025" lon="10.5690288"><ele>908.6666666666666</ele><time>2026-05-02T14:30:16.804Z</time></trkpt><trkpt lat="45.9690093" lon="10.5692779"><ele>907.3333333333333</ele><time>2026-05-02T14:30:17.804Z</time></trkpt><trkpt lat="45.9689375" lon="10.5695408"><ele>906.0</ele><time>2026-05-02T14:30:18.804Z</time></trkpt><trkpt lat="45.9688891" lon="10.5698122"><ele>906.0</ele><time>2026-05-02T14:30:19.804Z</time></trkpt><trkpt lat="45.9688516" lon="10.570086"><ele>906.0</ele><time>2026-05-02T14:30:20.804Z</time></trkpt><trkpt lat="45.9688139" lon="10.5703556"><ele>906.0</ele><time>2026-05-02T14:30:21.804Z</time></trkpt><trkpt lat="45.9687769" lon="10.5706226"><ele>907.5</ele><time>2026-05-02T14:30:22.804Z</time></trkpt><trkpt lat="45.9687365" lon="10.5711603"><ele>909.0</ele><time>2026-05-02T14:30:24.804Z</time></trkpt><trkpt lat="45.9687481" lon="10.5714366"><ele>909.3333333333333</ele><time>2026-05-02T14:30:25.804Z</time></trkpt><trkpt lat="45.9687708" lon="10.5717178"><ele>909.6666666666666</ele><time>2026-05-02T14:30:26.804Z</time></trkpt><trkpt lat="45.9687893" lon="10.5720026"><ele>910.0</ele><time>2026-05-02T14:30:27.804Z</time></trkpt><trkpt lat="45.9688045" lon="10.5722893"><ele>910.0</ele><time>2026-05-02T14:30:28.804Z</time></trkpt><trkpt lat="45.9688125" lon="10.5725809"><ele>910.0</ele><time>2026-05-02T14:30:29.804Z</time></trkpt><trkpt lat="45.9688282" lon="10.5728654"><ele>910.0</ele><time>2026-05-02T14:30:30.804Z</time></trkpt><trkpt lat="45.9688336" lon="10.5731551"><ele>912.3333333333333</ele><time>2026-05-02T14:30:31.804Z</time></trkpt><trkpt lat="45.9688227" lon="10.5734461"><ele>914.6666666666667</ele><time>2026-05-02T14:30:32.804Z</time></trkpt><trkpt lat="45.9687858" lon="10.5737225"><ele>917.0</ele><time>2026-05-02T14:30:33.804Z</time></trkpt><trkpt lat="45.9687029" lon="10.5739699"><ele>918.3333333333334</ele><time>2026-05-02T14:30:34.804Z</time></trkpt><trkpt lat="45.9685688" lon="10.5741752"><ele>919.6666666666667</ele><time>2026-05-02T14:30:35.804Z</time></trkpt><trkpt lat="45.9684017" lon="10.574351"><ele>921.0</ele><time>2026-05-02T14:30:36.804Z</time></trkpt><trkpt lat="45.9682331" lon="10.5744919"><ele>918.0</ele><time>2026-05-02T14:30:37.804Z</time></trkpt><trkpt lat="45.9680711" lon="10.5746276"><ele>915.0</ele><time>2026-05-02T14:30:38.804Z</time></trkpt><trkpt lat="45.9679181" lon="10.5747904"><ele>912.0</ele><time>2026-05-02T14:30:39.804Z</time></trkpt><trkpt lat="45.9677757" lon="10.5749583"><ele>912.0</ele><time>2026-05-02T14:30:40.804Z</time></trkpt><trkpt lat="45.9676195" lon="10.5751294"><ele>912.0</ele><time>2026-05-02T14:30:41.804Z</time></trkpt><trkpt lat="45.9674514" lon="10.5752645"><ele>912.0</ele><time>2026-05-02T14:30:42.804Z</time></trkpt><trkpt lat="45.9672855" lon="10.5753808"><ele>909.0</ele><time>2026-05-02T14:30:43.804Z</time></trkpt><trkpt lat="45.9670189" lon="10.5756883"><ele>906.0</ele><time>2026-05-02T14:30:45.804Z</time></trkpt><trkpt lat="45.9669125" lon="10.5758787"><ele>906.0</ele><time>2026-05-02T14:30:46.804Z</time></trkpt><trkpt lat="45.9668397" lon="10.5761096"><ele>906.0</ele><time>2026-05-02T14:30:47.804Z</time></trkpt><trkpt lat="45.9667954" lon="10.576346"><ele>906.0</ele><time>2026-05-02T14:30:48.804Z</time></trkpt><trkpt lat="45.9667303" lon="10.5765654"><ele>906.0</ele><time>2026-05-02T14:30:49.804Z</time></trkpt><trkpt lat="45.9666337" lon="10.5767607"><ele>906.0</ele><time>2026-05-02T14:30:50.804Z</time></trkpt><trkpt lat="45.9665097" lon="10.5769461"><ele>906.0</ele><time>2026-05-02T14:30:51.804Z</time></trkpt><trkpt lat="45.9663751" lon="10.5771065"><ele>906.0</ele><time>2026-05-02T14:30:52.804Z</time></trkpt><trkpt lat="45.9662318" lon="10.5772451"><ele>906.0</ele><time>2026-05-02T14:30:53.804Z</time></trkpt><trkpt lat="45.9660742" lon="10.5773428"><ele>906.0</ele><time>2026-05-02T14:30:54.804Z</time></trkpt><trkpt lat="45.9659101" lon="10.577432"><ele>901.6666666666667</ele><time>2026-05-02T14:30:55.804Z</time></trkpt><trkpt lat="45.9657427" lon="10.5775328"><ele>897.3333333333334</ele><time>2026-05-02T14:30:56.804Z</time></trkpt><trkpt lat="45.9655793" lon="10.5776362"><ele>893.0</ele><time>2026-05-02T14:30:57.804Z</time></trkpt><trkpt lat="45.9654111" lon="10.5777168"><ele>893.0</ele><time>2026-05-02T14:30:58.804Z</time></trkpt><trkpt lat="45.9652417" lon="10.5777816"><ele>893.0</ele><time>2026-05-02T14:30:59.804Z</time></trkpt><trkpt lat="45.9650669" lon="10.5778595"><ele>893.0</ele><time>2026-05-02T14:31:00.804Z</time></trkpt><trkpt lat="45.964896" lon="10.5779696"><ele>896.0</ele><time>2026-05-02T14:31:01.804Z</time></trkpt><trkpt lat="45.9647384" lon="10.578103"><ele>899.0</ele><time>2026-05-02T14:31:02.804Z</time></trkpt><trkpt lat="45.9645843" lon="10.5782513"><ele>902.0</ele><time>2026-05-02T14:31:03.804Z</time></trkpt><trkpt lat="45.9644287" lon="10.5784156"><ele>902.0</ele><time>2026-05-02T14:31:04.804Z</time></trkpt><trkpt lat="45.964273" lon="10.578589"><ele>902.0</ele><time>2026-05-02T14:31:05.804Z</time></trkpt><trkpt lat="45.9641178" lon="10.5787579"><ele>902.0</ele><time>2026-05-02T14:31:06.804Z</time></trkpt><trkpt lat="45.963952" lon="10.5788938"><ele>903.3333333333334</ele><time>2026-05-02T14:31:07.804Z</time></trkpt><trkpt lat="45.9637912" lon="10.5789867"><ele>904.6666666666667</ele><time>2026-05-02T14:31:08.804Z</time></trkpt><trkpt lat="45.9636087" lon="10.579029"><ele>906.0</ele><time>2026-05-02T14:31:09.804Z</time></trkpt><trkpt lat="45.9634278" lon="10.5790464"><ele>901.25</ele><time>2026-05-02T14:31:10.804Z</time></trkpt><trkpt lat="45.963267" lon="10.5790485"><ele>896.5</ele><time>2026-05-02T14:31:11.804Z</time></trkpt><trkpt lat="45.9631253" lon="10.5790759"><ele>891.75</ele><time>2026-05-02T14:31:12.804Z</time></trkpt><trkpt lat="45.9630014" lon="10.5791754"><ele>887.0</ele><time>2026-05-02T14:31:13.804Z</time></trkpt><trkpt lat="45.9628948" lon="10.5793554"><ele>890.3333333333334</ele><time>2026-05-02T14:31:14.804Z</time></trkpt><trkpt lat="45.96278" lon="10.5795436"><ele>893.6666666666667</ele><time>2026-05-02T14:31:15.804Z</time></trkpt><trkpt lat="45.9626375" lon="10.5796902"><ele>897.0</ele><time>2026-05-02T14:31:16.804Z</time></trkpt><trkpt lat="45.9624734" lon="10.5797782"><ele>897.0</ele><time>2026-05-02T14:31:17.804Z</time></trkpt><trkpt lat="45.9622939" lon="10.5798102"><ele>897.0</ele><time>2026-05-02T14:31:18.804Z</time></trkpt><trkpt lat="45.962112" lon="10.5798204"><ele>897.0</ele><time>2026-05-02T14:31:19.804Z</time></trkpt><trkpt lat="45.9619291" lon="10.579846"><ele>897.0</ele><time>2026-05-02T14:31:20.804Z</time></trkpt><trkpt lat="45.9617551" lon="10.5799093"><ele>897.0</ele><time>2026-05-02T14:31:21.804Z</time></trkpt><trkpt lat="45.9615788" lon="10.5800058"><ele>897.0</ele><time>2026-05-02T14:31:22.804Z</time></trkpt><trkpt lat="45.9614005" lon="10.5801218"><ele>892.0</ele><time>2026-05-02T14:31:23.804Z</time></trkpt><trkpt lat="45.9612462" lon="10.5802689"><ele>887.0</ele><time>2026-05-02T14:31:24.804Z</time></trkpt><trkpt lat="45.9610945" lon="10.5804176"><ele>882.0</ele><time>2026-05-02T14:31:25.804Z</time></trkpt><trkpt lat="45.9609427" lon="10.5805497"><ele>893.0</ele><time>2026-05-02T14:31:26.804Z</time></trkpt><trkpt lat="45.9607657" lon="10.5806413"><ele>904.0</ele><time>2026-05-02T14:31:27.804Z</time></trkpt><trkpt lat="45.9605681" lon="10.5807009"><ele>915.0</ele><time>2026-05-02T14:31:28.804Z</time></trkpt><trkpt lat="45.9603668" lon="10.5807531"><ele>915.0</ele><time>2026-05-02T14:31:29.804Z</time></trkpt><trkpt lat="45.9601661" lon="10.5808202"><ele>915.0</ele><time>2026-05-02T14:31:30.804Z</time></trkpt><trkpt lat="45.9599584" lon="10.5809101"><ele>915.0</ele><time>2026-05-02T14:31:31.804Z</time></trkpt><trkpt lat="45.9597477" lon="10.5810085"><ele>911.0</ele><time>2026-05-02T14:31:32.804Z</time></trkpt><trkpt lat="45.9595415" lon="10.5811219"><ele>907.0</ele><time>2026-05-02T14:31:33.804Z</time></trkpt><trkpt lat="45.9593384" lon="10.5812341"><ele>903.0</ele><time>2026-05-02T14:31:34.804Z</time></trkpt><trkpt lat="45.9591369" lon="10.5813709"><ele>903.0</ele><time>2026-05-02T14:31:35.804Z</time></trkpt><trkpt lat="45.9589394" lon="10.5815036"><ele>903.0</ele><time>2026-05-02T14:31:36.804Z</time></trkpt><trkpt lat="45.9587478" lon="10.5816532"><ele>903.0</ele><time>2026-05-02T14:31:37.804Z</time></trkpt><trkpt lat="45.9585568" lon="10.5817985"><ele>902.0</ele><time>2026-05-02T14:31:38.804Z</time></trkpt><trkpt lat="45.9583515" lon="10.5819444"><ele>901.0</ele><time>2026-05-02T14:31:39.804Z</time></trkpt><trkpt lat="45.9581712" lon="10.582134"><ele>901.0</ele><time>2026-05-02T14:31:40.804Z</time></trkpt><trkpt lat="45.9579953" lon="10.582326"><ele>901.0</ele><time>2026-05-02T14:31:41.804Z</time></trkpt><trkpt lat="45.9578441" lon="10.5825498"><ele>901.0</ele><time>2026-05-02T14:31:42.804Z</time></trkpt><trkpt lat="45.957724" lon="10.5828059"><ele>895.3333333333333</ele><time>2026-05-02T14:31:43.804Z</time></trkpt><trkpt lat="45.9575957" lon="10.5830442"><ele>889.6666666666667</ele><time>2026-05-02T14:31:44.804Z</time></trkpt><trkpt lat="45.9574562" lon="10.5832505"><ele>884.0</ele><time>2026-05-02T14:31:45.804Z</time></trkpt><trkpt lat="45.9573344" lon="10.5834437"><ele>884.0</ele><time>2026-05-02T14:31:46.804Z</time></trkpt><trkpt lat="45.957197" lon="10.5835881"><ele>884.0</ele><time>2026-05-02T14:31:47.804Z</time></trkpt><trkpt lat="45.957045" lon="10.5836656"><ele>884.0</ele><time>2026-05-02T14:31:48.804Z</time></trkpt><trkpt lat="45.9568953" lon="10.5836927"><ele>881.25</ele><time>2026-05-02T14:31:49.804Z</time></trkpt><trkpt lat="45.9567574" lon="10.5837208"><ele>878.5</ele><time>2026-05-02T14:31:50.804Z</time></trkpt><trkpt lat="45.9566488" lon="10.5837828"><ele>875.75</ele><time>2026-05-02T14:31:51.804Z</time></trkpt><trkpt lat="45.9565837" lon="10.5839244"><ele>873.0</ele><time>2026-05-02T14:31:52.804Z</time></trkpt><trkpt lat="45.9565302" lon="10.5841262"><ele>873.0</ele><time>2026-05-02T14:31:53.804Z</time></trkpt><trkpt lat="45.9564692" lon="10.5843585"><ele>873.0</ele><time>2026-05-02T14:31:54.804Z</time></trkpt><trkpt lat="45.9563996" lon="10.5845985"><ele>873.0</ele><time>2026-05-02T14:31:55.804Z</time></trkpt><trkpt lat="45.9563211" lon="10.5848431"><ele>875.3333333333333</ele><time>2026-05-02T14:31:56.804Z</time></trkpt><trkpt lat="45.9562458" lon="10.5850924"><ele>877.6666666666666</ele><time>2026-05-02T14:31:57.804Z</time></trkpt><trkpt lat="45.9561821" lon="10.5853395"><ele>880.0</ele><time>2026-05-02T14:31:58.804Z</time></trkpt><trkpt lat="45.9561355" lon="10.5855878"><ele>887.6666666666666</ele><time>2026-05-02T14:31:59.804Z</time></trkpt><trkpt lat="45.9560845" lon="10.5858267"><ele>895.3333333333333</ele><time>2026-05-02T14:32:00.804Z</time></trkpt><trkpt lat="45.9560031" lon="10.5860521"><ele>903.0</ele><time>2026-05-02T14:32:01.804Z</time></trkpt><trkpt lat="45.9558978" lon="10.5862617"><ele>895.6666666666667</ele><time>2026-05-02T14:32:02.804Z</time></trkpt><trkpt lat="45.9557701" lon="10.5864584"><ele>888.3333333333334</ele><time>2026-05-02T14:32:03.804Z</time></trkpt><trkpt lat="45.955627" lon="10.5866121"><ele>881.0</ele><time>2026-05-02T14:32:04.804Z</time></trkpt><trkpt lat="45.9554924" lon="10.5867615"><ele>881.0</ele><time>2026-05-02T14:32:05.804Z</time></trkpt><trkpt lat="45.9553645" lon="10.5869256"><ele>881.0</ele><time>2026-05-02T14:32:06.804Z</time></trkpt><trkpt lat="45.955281" lon="10.5871552"><ele>881.0</ele><time>2026-05-02T14:32:07.804Z</time></trkpt><trkpt lat="45.9551943" lon="10.5873923"><ele>880.6666666666667</ele><time>2026-05-02T14:32:08.804Z</time></trkpt><trkpt lat="45.9551023" lon="10.58763"><ele>880.3333333333333</ele><time>2026-05-02T14:32:09.804Z</time></trkpt><trkpt lat="45.9550023" lon="10.5878547"><ele>880.0</ele><time>2026-05-02T14:32:10.804Z</time></trkpt><trkpt lat="45.9548877" lon="10.5880695"><ele>880.0</ele><time>2026-05-02T14:32:11.804Z</time></trkpt><trkpt lat="45.9547798" lon="10.5882769"><ele>880.0</ele><time>2026-05-02T14:32:12.804Z</time></trkpt><trkpt lat="45.9546961" lon="10.5884874"><ele>880.0</ele><time>2026-05-02T14:32:13.804Z</time></trkpt><trkpt lat="45.9546138" lon="10.5886993"><ele>886.0</ele><time>2026-05-02T14:32:14.804Z</time></trkpt><trkpt lat="45.9545247" lon="10.5888869"><ele>892.0</ele><time>2026-05-02T14:32:15.804Z</time></trkpt><trkpt lat="45.9544276" lon="10.5890549"><ele>898.0</ele><time>2026-05-02T14:32:16.804Z</time></trkpt><trkpt lat="45.9543431" lon="10.5892208"><ele>898.0</ele><time>2026-05-02T14:32:17.804Z</time></trkpt><trkpt lat="45.9542941" lon="10.5894084"><ele>898.0</ele><time>2026-05-02T14:32:18.804Z</time></trkpt><trkpt lat="45.9542763" lon="10.5896085"><ele>898.0</ele><time>2026-05-02T14:32:19.804Z</time></trkpt><trkpt lat="45.9542866" lon="10.5898071"><ele>898.0</ele><time>2026-05-02T14:32:20.804Z</time></trkpt><trkpt lat="45.9543022" lon="10.5899831"><ele>902.0</ele><time>2026-05-02T14:32:21.804Z</time></trkpt><trkpt lat="45.954312" lon="10.5901454"><ele>906.0</ele><time>2026-05-02T14:32:22.804Z</time></trkpt><trkpt lat="45.9543071" lon="10.5903053"><ele>910.0</ele><time>2026-05-02T14:32:23.804Z</time></trkpt><trkpt lat="45.9542914" lon="10.5904684"><ele>914.0</ele><time>2026-05-02T14:32:24.804Z</time></trkpt><trkpt lat="45.954215" lon="10.5906048"><ele>909.6666666666667</ele><time>2026-05-02T14:32:25.804Z</time></trkpt><trkpt lat="45.9540798" lon="10.5906109"><ele>905.3333333333333</ele><time>2026-05-02T14:32:26.804Z</time></trkpt><trkpt lat="45.953934" lon="10.5905681"><ele>901.0</ele><time>2026-05-02T14:32:27.804Z</time></trkpt><trkpt lat="45.9537574" lon="10.5903825"><ele>892.3333333333333</ele><time>2026-05-02T14:32:28.804Z</time></trkpt><trkpt lat="45.953585" lon="10.5901883"><ele>883.6666666666667</ele><time>2026-05-02T14:32:29.804Z</time></trkpt><trkpt lat="45.9534181" lon="10.5900217"><ele>875.0</ele><time>2026-05-02T14:32:30.804Z</time></trkpt><trkpt lat="45.9532479" lon="10.5899115"><ele>870.3333333333334</ele><time>2026-05-02T14:32:31.804Z</time></trkpt><trkpt lat="45.9530597" lon="10.5898282"><ele>865.6666666666667</ele><time>2026-05-02T14:32:32.804Z</time></trkpt><trkpt lat="45.9528815" lon="10.5898006"><ele>861.0</ele><time>2026-05-02T14:32:33.804Z</time></trkpt><trkpt lat="45.9527235" lon="10.5898132"><ele>861.0</ele><time>2026-05-02T14:32:34.804Z</time></trkpt><trkpt lat="45.9525708" lon="10.5898943"><ele>861.0</ele><time>2026-05-02T14:32:35.804Z</time></trkpt><trkpt lat="45.9524655" lon="10.5900126"><ele>861.0</ele><time>2026-05-02T14:32:36.804Z</time></trkpt><trkpt lat="45.9524167" lon="10.5901636"><ele>861.0</ele><time>2026-05-02T14:32:37.804Z</time></trkpt><trkpt lat="45.9524218" lon="10.5903517"><ele>858.25</ele><time>2026-05-02T14:32:38.804Z</time></trkpt><trkpt lat="45.9524201" lon="10.5905589"><ele>855.5</ele><time>2026-05-02T14:32:39.804Z</time></trkpt><trkpt lat="45.9523998" lon="10.5907652"><ele>852.75</ele><time>2026-05-02T14:32:40.804Z</time></trkpt><trkpt lat="45.9523426" lon="10.5909626"><ele>850.0</ele><time>2026-05-02T14:32:41.804Z</time></trkpt><trkpt lat="45.9522514" lon="10.5911522"><ele>853.0</ele><time>2026-05-02T14:32:42.804Z</time></trkpt><trkpt lat="45.9521447" lon="10.5913448"><ele>856.0</ele><time>2026-05-02T14:32:43.804Z</time></trkpt><trkpt lat="45.9520468" lon="10.591553"><ele>859.0</ele><time>2026-05-02T14:32:44.804Z</time></trkpt><trkpt lat="45.9519613" lon="10.5917817"><ele>862.3333333333333</ele><time>2026-05-02T14:32:45.804Z</time></trkpt><trkpt lat="45.9518759" lon="10.5920216"><ele>865.6666666666667</ele><time>2026-05-02T14:32:46.804Z</time></trkpt><trkpt lat="45.9517821" lon="10.5922473"><ele>869.0</ele><time>2026-05-02T14:32:47.804Z</time></trkpt><trkpt lat="45.9516767" lon="10.5924492"><ele>860.0</ele><time>2026-05-02T14:32:48.804Z</time></trkpt><trkpt lat="45.9515663" lon="10.5926389"><ele>851.0</ele><time>2026-05-02T14:32:49.804Z</time></trkpt><trkpt lat="45.9514696" lon="10.5928217"><ele>842.0</ele><time>2026-05-02T14:32:50.804Z</time></trkpt><trkpt lat="45.951393" lon="10.593021"><ele>842.0</ele><time>2026-05-02T14:32:51.804Z</time></trkpt><trkpt lat="45.9513485" lon="10.5932338"><ele>842.0</ele><time>2026-05-02T14:32:52.804Z</time></trkpt><trkpt lat="45.9513296" lon="10.5934492"><ele>842.0</ele><time>2026-05-02T14:32:53.804Z</time></trkpt><trkpt lat="45.9513309" lon="10.5936548"><ele>842.0</ele><time>2026-05-02T14:32:54.804Z</time></trkpt><trkpt lat="45.9513502" lon="10.5938436"><ele>841.5</ele><time>2026-05-02T14:32:55.804Z</time></trkpt><trkpt lat="45.9513936" lon="10.5940055"><ele>841.0</ele><time>2026-05-02T14:32:56.804Z</time></trkpt><trkpt lat="45.9514306" lon="10.5941793"><ele>840.5</ele><time>2026-05-02T14:32:57.804Z</time></trkpt><trkpt lat="45.951454" lon="10.5943547"><ele>840.0</ele><time>2026-05-02T14:32:58.804Z</time></trkpt><trkpt lat="45.9514509" lon="10.5945569"><ele>845.6666666666667</ele><time>2026-05-02T14:32:59.804Z</time></trkpt><trkpt lat="45.9514238" lon="10.5947951"><ele>851.3333333333334</ele><time>2026-05-02T14:33:00.804Z</time></trkpt><trkpt lat="45.9513995" lon="10.5950812"><ele>857.0</ele><time>2026-05-02T14:33:01.804Z</time></trkpt><trkpt lat="45.9514037" lon="10.5953612"><ele>857.6666666666667</ele><time>2026-05-02T14:33:02.804Z</time></trkpt><trkpt lat="45.9514123" lon="10.5956476"><ele>858.3333333333333</ele><time>2026-05-02T14:33:03.804Z</time></trkpt><trkpt lat="45.9513966" lon="10.5959331"><ele>859.0</ele><time>2026-05-02T14:33:04.804Z</time></trkpt><trkpt lat="45.9513518" lon="10.5961927"><ele>856.3333333333333</ele><time>2026-05-02T14:33:05.804Z</time></trkpt><trkpt lat="45.9512954" lon="10.5964407"><ele>853.6666666666667</ele><time>2026-05-02T14:33:06.804Z</time></trkpt><trkpt lat="45.9512583" lon="10.5966834"><ele>851.0</ele><time>2026-05-02T14:33:07.804Z</time></trkpt><trkpt lat="45.9512475" lon="10.5969158"><ele>846.3333333333334</ele><time>2026-05-02T14:33:08.804Z</time></trkpt><trkpt lat="45.9512672" lon="10.5971661"><ele>841.6666666666667</ele><time>2026-05-02T14:33:09.804Z</time></trkpt><trkpt lat="45.9513293" lon="10.5974197"><ele>837.0</ele><time>2026-05-02T14:33:10.804Z</time></trkpt><trkpt lat="45.9514153" lon="10.5976803"><ele>833.0</ele><time>2026-05-02T14:33:11.804Z</time></trkpt><trkpt lat="45.9515013" lon="10.5979349"><ele>829.0</ele><time>2026-05-02T14:33:12.804Z</time></trkpt><trkpt lat="45.9515804" lon="10.5981987"><ele>825.0</ele><time>2026-05-02T14:33:13.804Z</time></trkpt><trkpt lat="45.9516352" lon="10.5984571"><ele>823.3333333333333</ele><time>2026-05-02T14:33:14.804Z</time></trkpt><trkpt lat="45.9516723" lon="10.5987371"><ele>821.6666666666666</ele><time>2026-05-02T14:33:15.804Z</time></trkpt><trkpt lat="45.951689" lon="10.5990043"><ele>820.0</ele><time>2026-05-02T14:33:16.804Z</time></trkpt><trkpt lat="45.9516871" lon="10.5992587"><ele>819.6666666666666</ele><time>2026-05-02T14:33:17.804Z</time></trkpt><trkpt lat="45.9516756" lon="10.5995031"><ele>819.3333333333333</ele><time>2026-05-02T14:33:18.804Z</time></trkpt><trkpt lat="45.9516828" lon="10.5997387"><ele>819.0</ele><time>2026-05-02T14:33:19.804Z</time></trkpt><trkpt lat="45.9516881" lon="10.5999793"><ele>819.0</ele><time>2026-05-02T14:33:20.804Z</time></trkpt><trkpt lat="45.951668" lon="10.6002169"><ele>819.0</ele><time>2026-05-02T14:33:21.804Z</time></trkpt><trkpt lat="45.9516008" lon="10.600435"><ele>819.0</ele><time>2026-05-02T14:33:22.805Z</time></trkpt><trkpt lat="45.95149" lon="10.6006334"><ele>823.0</ele><time>2026-05-02T14:33:23.804Z</time></trkpt><trkpt lat="45.9513479" lon="10.6008246"><ele>827.0</ele><time>2026-05-02T14:33:24.804Z</time></trkpt><trkpt lat="45.9511971" lon="10.6009901"><ele>831.0</ele><time>2026-05-02T14:33:25.804Z</time></trkpt><trkpt lat="45.9510703" lon="10.6011633"><ele>839.3333333333333</ele><time>2026-05-02T14:33:26.804Z</time></trkpt><trkpt lat="45.9509621" lon="10.60135"><ele>847.6666666666666</ele><time>2026-05-02T14:33:27.804Z</time></trkpt><trkpt lat="45.9508769" lon="10.6015672"><ele>856.0</ele><time>2026-05-02T14:33:28.804Z</time></trkpt><trkpt lat="45.950837" lon="10.6017958"><ele>839.3333333333333</ele><time>2026-05-02T14:33:29.804Z</time></trkpt><trkpt lat="45.9508448" lon="10.6020755"><ele>822.6666666666667</ele><time>2026-05-02T14:33:30.804Z</time></trkpt><trkpt lat="45.9508181" lon="10.6023581"><ele>806.0</ele><time>2026-05-02T14:33:31.804Z</time></trkpt><trkpt lat="45.9507676" lon="10.6026467"><ele>809.6666666666667</ele><time>2026-05-02T14:33:32.804Z</time></trkpt><trkpt lat="45.9506999" lon="10.6029276"><ele>813.3333333333333</ele><time>2026-05-02T14:33:33.804Z</time></trkpt><trkpt lat="45.950633" lon="10.6032135"><ele>817.0</ele><time>2026-05-02T14:33:34.804Z</time></trkpt><trkpt lat="45.9505784" lon="10.6035243"><ele>826.5</ele><time>2026-05-02T14:33:35.804Z</time></trkpt><trkpt lat="45.9505354" lon="10.6038498"><ele>836.0</ele><time>2026-05-02T14:33:36.804Z</time></trkpt><trkpt lat="45.9504891" lon="10.6041753"><ele>836.0</ele><time>2026-05-02T14:33:37.804Z</time></trkpt><trkpt lat="45.9504391" lon="10.6044685"><ele>836.0</ele><time>2026-05-02T14:33:38.804Z</time></trkpt><trkpt lat="45.9503778" lon="10.604752"><ele>836.0</ele><time>2026-05-02T14:33:39.804Z</time></trkpt><trkpt lat="45.950305" lon="10.6050253"><ele>840.3333333333334</ele><time>2026-05-02T14:33:40.804Z</time></trkpt><trkpt lat="45.9502351" lon="10.6052695"><ele>844.6666666666667</ele><time>2026-05-02T14:33:41.804Z</time></trkpt><trkpt lat="45.9501557" lon="10.6055087"><ele>849.0</ele><time>2026-05-02T14:33:42.804Z</time></trkpt><trkpt lat="45.9500712" lon="10.6057325"><ele>838.75</ele><time>2026-05-02T14:33:43.804Z</time></trkpt><trkpt lat="45.9500396" lon="10.6059377"><ele>828.5</ele><time>2026-05-02T14:33:44.804Z</time></trkpt><trkpt lat="45.9500216" lon="10.6061405"><ele>818.25</ele><time>2026-05-02T14:33:45.804Z</time></trkpt><trkpt lat="45.9499755" lon="10.606342"><ele>808.0</ele><time>2026-05-02T14:33:46.804Z</time></trkpt><trkpt lat="45.9498976" lon="10.6065409"><ele>808.0</ele><time>2026-05-02T14:33:47.804Z</time></trkpt><trkpt lat="45.9498174" lon="10.6067478"><ele>808.0</ele><time>2026-05-02T14:33:48.804Z</time></trkpt><trkpt lat="45.9497553" lon="10.6069698"><ele>808.0</ele><time>2026-05-02T14:33:49.804Z</time></trkpt><trkpt lat="45.9497174" lon="10.6071828"><ele>811.25</ele><time>2026-05-02T14:33:50.804Z</time></trkpt><trkpt lat="45.9496774" lon="10.607381"><ele>814.5</ele><time>2026-05-02T14:33:51.804Z</time></trkpt><trkpt lat="45.9496004" lon="10.6075347"><ele>817.75</ele><time>2026-05-02T14:33:52.804Z</time></trkpt><trkpt lat="45.9495101" lon="10.6076635"><ele>821.0</ele><time>2026-05-02T14:33:53.804Z</time></trkpt><trkpt lat="45.9494273" lon="10.6077824"><ele>820.5</ele><time>2026-05-02T14:33:54.804Z</time></trkpt><trkpt lat="45.9493722" lon="10.6079183"><ele>820.0</ele><time>2026-05-02T14:33:55.804Z</time></trkpt><trkpt lat="45.9493524" lon="10.6080664"><ele>819.5</ele><time>2026-05-02T14:33:56.804Z</time></trkpt><trkpt lat="45.9493969" lon="10.6082341"><ele>819.0</ele><time>2026-05-02T14:33:57.804Z</time></trkpt><trkpt lat="45.9494485" lon="10.6084152"><ele>819.0</ele><time>2026-05-02T14:33:58.804Z</time></trkpt><trkpt lat="45.9494887" lon="10.6086111"><ele>819.0</ele><time>2026-05-02T14:33:59.804Z</time></trkpt><trkpt lat="45.9495355" lon="10.608804"><ele>819.0</ele><time>2026-05-02T14:34:00.804Z</time></trkpt><trkpt lat="45.949588" lon="10.6089879"><ele>819.0</ele><time>2026-05-02T14:34:01.804Z</time></trkpt><trkpt lat="45.9496248" lon="10.6091717"><ele>820.0</ele><time>2026-05-02T14:34:02.804Z</time></trkpt><trkpt lat="45.9496334" lon="10.6093691"><ele>821.0</ele><time>2026-05-02T14:34:03.804Z</time></trkpt><trkpt lat="45.9496111" lon="10.6095921"><ele>822.0</ele><time>2026-05-02T14:34:04.804Z</time></trkpt><trkpt lat="45.9495698" lon="10.6098324"><ele>824.6666666666667</ele><time>2026-05-02T14:34:05.804Z</time></trkpt><trkpt lat="45.9495152" lon="10.6101032"><ele>827.3333333333334</ele><time>2026-05-02T14:34:06.804Z</time></trkpt><trkpt lat="45.949442" lon="10.6103702"><ele>830.0</ele><time>2026-05-02T14:34:07.804Z</time></trkpt><trkpt lat="45.9493715" lon="10.6106351"><ele>835.0</ele><time>2026-05-02T14:34:08.804Z</time></trkpt><trkpt lat="45.9492987" lon="10.6108933"><ele>840.0</ele><time>2026-05-02T14:34:09.804Z</time></trkpt><trkpt lat="45.9492245" lon="10.6111283"><ele>845.0</ele><time>2026-05-02T14:34:10.804Z</time></trkpt><trkpt lat="45.9491482" lon="10.6113253"><ele>831.6666666666667</ele><time>2026-05-02T14:34:11.804Z</time></trkpt><trkpt lat="45.9490467" lon="10.6115336"><ele>818.3333333333333</ele><time>2026-05-02T14:34:12.804Z</time></trkpt><trkpt lat="45.9489651" lon="10.6117629"><ele>805.0</ele><time>2026-05-02T14:34:13.804Z</time></trkpt><trkpt lat="45.9489183" lon="10.6120123"><ele>805.0</ele><time>2026-05-02T14:34:14.804Z</time></trkpt><trkpt lat="45.948876" lon="10.6122549"><ele>805.0</ele><time>2026-05-02T14:34:15.804Z</time></trkpt><trkpt lat="45.9488225" lon="10.6124972"><ele>805.0</ele><time>2026-05-02T14:34:16.804Z</time></trkpt><trkpt lat="45.9487371" lon="10.6127213"><ele>817.6666666666666</ele><time>2026-05-02T14:34:17.804Z</time></trkpt><trkpt lat="45.9486444" lon="10.6129506"><ele>830.3333333333333</ele><time>2026-05-02T14:34:18.804Z</time></trkpt><trkpt lat="45.9485577" lon="10.6131845"><ele>843.0</ele><time>2026-05-02T14:34:19.804Z</time></trkpt><trkpt lat="45.9484733" lon="10.6134162"><ele>848.3333333333333</ele><time>2026-05-02T14:34:20.804Z</time></trkpt><trkpt lat="45.9483892" lon="10.6136613"><ele>853.6666666666666</ele><time>2026-05-02T14:34:21.804Z</time></trkpt><trkpt lat="45.9483029" lon="10.6139089"><ele>859.0</ele><time>2026-05-02T14:34:22.805Z</time></trkpt><trkpt lat="45.9482211" lon="10.6141627"><ele>842.3333333333333</ele><time>2026-05-02T14:34:23.804Z</time></trkpt><trkpt lat="45.9481434" lon="10.6144135"><ele>825.6666666666667</ele><time>2026-05-02T14:34:24.804Z</time></trkpt><trkpt lat="45.9480646" lon="10.6146622"><ele>809.0</ele><time>2026-05-02T14:34:25.804Z</time></trkpt><trkpt lat="45.9479863" lon="10.6148965"><ele>809.0</ele><time>2026-05-02T14:34:26.804Z</time></trkpt><trkpt lat="45.9479161" lon="10.6151128"><ele>809.0</ele><time>2026-05-02T14:34:27.804Z</time></trkpt><trkpt lat="45.9478381" lon="10.6153036"><ele>809.0</ele><time>2026-05-02T14:34:28.804Z</time></trkpt><trkpt lat="45.9477525" lon="10.6154804"><ele>812.25</ele><time>2026-05-02T14:34:29.804Z</time></trkpt><trkpt lat="45.9476684" lon="10.6156348"><ele>815.5</ele><time>2026-05-02T14:34:30.804Z</time></trkpt><trkpt lat="45.9476" lon="10.6157943"><ele>818.75</ele><time>2026-05-02T14:34:31.804Z</time></trkpt><trkpt lat="45.9475509" lon="10.6159638"><ele>822.0</ele><time>2026-05-02T14:34:32.804Z</time></trkpt><trkpt lat="45.9475156" lon="10.6161236"><ele>811.5</ele><time>2026-05-02T14:34:33.804Z</time></trkpt><trkpt lat="45.9474747" lon="10.6162845"><ele>801.0</ele><time>2026-05-02T14:34:34.804Z</time></trkpt><trkpt lat="45.9474317" lon="10.6164498"><ele>790.5</ele><time>2026-05-02T14:34:35.804Z</time></trkpt><trkpt lat="45.9473931" lon="10.6166145"><ele>780.0</ele><time>2026-05-02T14:34:36.804Z</time></trkpt><trkpt lat="45.9473601" lon="10.6167803"><ele>780.0</ele><time>2026-05-02T14:34:37.804Z</time></trkpt><trkpt lat="45.9473344" lon="10.6169378"><ele>780.0</ele><time>2026-05-02T14:34:38.804Z</time></trkpt><trkpt lat="45.9473222" lon="10.617089"><ele>780.0</ele><time>2026-05-02T14:34:39.804Z</time></trkpt><trkpt lat="45.9473116" lon="10.617246"><ele>780.0</ele><time>2026-05-02T14:34:40.804Z</time></trkpt><trkpt lat="45.9472951" lon="10.6173849"><ele>780.0</ele><time>2026-05-02T14:34:41.804Z</time></trkpt><trkpt lat="45.9472839" lon="10.6175034"><ele>780.8333333333334</ele><time>2026-05-02T14:34:42.804Z</time></trkpt><trkpt lat="45.9472765" lon="10.6176137"><ele>781.6666666666667</ele><time>2026-05-02T14:34:43.804Z</time></trkpt><trkpt lat="45.9472708" lon="10.6177198"><ele>782.5</ele><time>2026-05-02T14:34:44.804Z</time></trkpt><trkpt lat="45.947263" lon="10.6178272"><ele>783.3333333333334</ele><time>2026-05-02T14:34:45.804Z</time></trkpt><trkpt lat="45.9472534" lon="10.6179292"><ele>784.1666666666667</ele><time>2026-05-02T14:34:46.804Z</time></trkpt><trkpt lat="45.9472585" lon="10.6180874"><ele>785.0</ele><time>2026-05-02T14:34:48.804Z</time></trkpt><trkpt lat="45.9472721" lon="10.6181765"><ele>785.0</ele><time>2026-05-02T14:34:50.804Z</time></trkpt><trkpt lat="45.9473065" lon="10.6180957"><ele>785.0</ele><time>2026-05-02T14:36:29.804Z</time></trkpt></trkseg></trk></gpx>